<?xml version="1.0" encoding="UTF-8" standalone="no" ?>
<gpx xmlns="http://www.topografix.com/GPX/1/1" xmlns:xsi="http://www.w3.org/2001/XMLSchema-instance" xsi:schemaLocation="http://www.topografix.com/GPX/1/1 http://www.topografix.com/GPX/1/1/gpx.xsd" version="1.1" creator="VisuGPX - https://www.visugpx.com">
  <metadata>
    <name>Traversée des Pyrénées à vélo - Partie Ouest - bes-16777263</name>
    <desc><![CDATA[

]]></desc>
  </metadata>
  <trk>
    <name><![CDATA[Traversée des Pyrénées à vélo - Partie Ouest - bes-16777263]]></name>
    <extensions>
      <line xmlns="http://www.topografix.com/GPX/gpx_style/0/2">
        <color>0000FF</color>
        <width>4</width>
      </line>
    </extensions>
    <trkseg>
      <trkpt lat="43.37315" lon="-1.77417">
        <ele>8</ele>
        <time>2023-05-17T16:18:19Z</time>
      </trkpt>
      <trkpt lat="43.37373" lon="-1.77112">
        <ele>4</ele>
        <time>2023-05-17T16:19:00Z</time>
      </trkpt>
      <trkpt lat="43.37473" lon="-1.76654">
        <ele>3</ele>
        <time>2023-05-17T16:20:02Z</time>
      </trkpt>
      <trkpt lat="43.37558" lon="-1.76297">
        <ele>5</ele>
        <time>2023-05-17T16:20:50Z</time>
      </trkpt>
      <trkpt lat="43.37561" lon="-1.76259">
        <ele>5</ele>
        <time>2023-05-17T16:20:55Z</time>
      </trkpt>
      <trkpt lat="43.37547" lon="-1.76185">
        <ele>8</ele>
        <time>2023-05-17T16:21:05Z</time>
      </trkpt>
      <trkpt lat="43.37532" lon="-1.76141">
        <ele>10</ele>
        <time>2023-05-17T16:21:11Z</time>
      </trkpt>
      <trkpt lat="43.37519" lon="-1.76117">
        <ele>11</ele>
        <time>2023-05-17T16:21:15Z</time>
      </trkpt>
      <trkpt lat="43.37493" lon="-1.76083">
        <ele>12</ele>
        <time>2023-05-17T16:21:22Z</time>
      </trkpt>
      <trkpt lat="43.37474" lon="-1.76067">
        <ele>14</ele>
        <time>2023-05-17T16:21:26Z</time>
      </trkpt>
      <trkpt lat="43.37447" lon="-1.76051">
        <ele>16</ele>
        <time>2023-05-17T16:21:31Z</time>
      </trkpt>
      <trkpt lat="43.37411" lon="-1.76037">
        <ele>18</ele>
        <time>2023-05-17T16:21:37Z</time>
      </trkpt>
      <trkpt lat="43.37391" lon="-1.76022">
        <ele>19</ele>
        <time>2023-05-17T16:21:41Z</time>
      </trkpt>
      <trkpt lat="43.37376" lon="-1.76002">
        <ele>20</ele>
        <time>2023-05-17T16:21:45Z</time>
      </trkpt>
      <trkpt lat="43.37366" lon="-1.75977">
        <ele>21</ele>
        <time>2023-05-17T16:21:49Z</time>
      </trkpt>
      <trkpt lat="43.37361" lon="-1.75949">
        <ele>23</ele>
        <time>2023-05-17T16:21:53Z</time>
      </trkpt>
      <trkpt lat="43.37361" lon="-1.75925">
        <ele>24</ele>
        <time>2023-05-17T16:21:56Z</time>
      </trkpt>
      <trkpt lat="43.37369" lon="-1.75892">
        <ele>27</ele>
        <time>2023-05-17T16:22:00Z</time>
      </trkpt>
      <trkpt lat="43.3738" lon="-1.7587">
        <ele>28</ele>
        <time>2023-05-17T16:22:04Z</time>
      </trkpt>
      <trkpt lat="43.37446" lon="-1.75785">
        <ele>32</ele>
        <time>2023-05-17T16:22:20Z</time>
      </trkpt>
      <trkpt lat="43.37462" lon="-1.75748">
        <ele>33</ele>
        <time>2023-05-17T16:22:25Z</time>
      </trkpt>
      <trkpt lat="43.37466" lon="-1.75708">
        <ele>33</ele>
        <time>2023-05-17T16:22:31Z</time>
      </trkpt>
      <trkpt lat="43.37462" lon="-1.75685">
        <ele>34</ele>
        <time>2023-05-17T16:22:34Z</time>
      </trkpt>
      <trkpt lat="43.37446" lon="-1.75653">
        <ele>37</ele>
        <time>2023-05-17T16:22:39Z</time>
      </trkpt>
      <trkpt lat="43.3743" lon="-1.75636">
        <ele>39</ele>
        <time>2023-05-17T16:22:42Z</time>
      </trkpt>
      <trkpt lat="43.37393" lon="-1.7561">
        <ele>41</ele>
        <time>2023-05-17T16:22:50Z</time>
      </trkpt>
      <trkpt lat="43.37382" lon="-1.75599">
        <ele>42</ele>
        <time>2023-05-17T16:22:52Z</time>
      </trkpt>
      <trkpt lat="43.37366" lon="-1.75576">
        <ele>43</ele>
        <time>2023-05-17T16:22:56Z</time>
      </trkpt>
      <trkpt lat="43.37351" lon="-1.75537">
        <ele>44</ele>
        <time>2023-05-17T16:23:02Z</time>
      </trkpt>
      <trkpt lat="43.37348" lon="-1.75506">
        <ele>45</ele>
        <time>2023-05-17T16:23:06Z</time>
      </trkpt>
      <trkpt lat="43.37349" lon="-1.75481">
        <ele>46</ele>
        <time>2023-05-17T16:23:09Z</time>
      </trkpt>
      <trkpt lat="43.37375" lon="-1.75315">
        <ele>52</ele>
        <time>2023-05-17T16:23:31Z</time>
      </trkpt>
      <trkpt lat="43.37383" lon="-1.75282">
        <ele>53</ele>
        <time>2023-05-17T16:23:36Z</time>
      </trkpt>
      <trkpt lat="43.37405" lon="-1.75237">
        <ele>55</ele>
        <time>2023-05-17T16:23:43Z</time>
      </trkpt>
      <trkpt lat="43.37439" lon="-1.75202">
        <ele>57</ele>
        <time>2023-05-17T16:23:50Z</time>
      </trkpt>
      <trkpt lat="43.37458" lon="-1.75191">
        <ele>58</ele>
        <time>2023-05-17T16:23:54Z</time>
      </trkpt>
      <trkpt lat="43.3748" lon="-1.75183">
        <ele>60</ele>
        <time>2023-05-17T16:23:58Z</time>
      </trkpt>
      <trkpt lat="43.37484" lon="-1.75194">
        <ele>60</ele>
        <time>2023-05-17T16:23:59Z</time>
      </trkpt>
      <trkpt lat="43.3749" lon="-1.75199">
        <ele>60</ele>
        <time>2023-05-17T16:24:01Z</time>
      </trkpt>
      <trkpt lat="43.37497" lon="-1.752">
        <ele>61</ele>
        <time>2023-05-17T16:24:02Z</time>
      </trkpt>
      <trkpt lat="43.37505" lon="-1.75197">
        <ele>61</ele>
        <time>2023-05-17T16:24:03Z</time>
      </trkpt>
      <trkpt lat="43.3751" lon="-1.75187">
        <ele>62</ele>
        <time>2023-05-17T16:24:05Z</time>
      </trkpt>
      <trkpt lat="43.37511" lon="-1.75177">
        <ele>62</ele>
        <time>2023-05-17T16:24:06Z</time>
      </trkpt>
      <trkpt lat="43.37527" lon="-1.75172">
        <ele>63</ele>
        <time>2023-05-17T16:24:09Z</time>
      </trkpt>
      <trkpt lat="43.37552" lon="-1.7516">
        <ele>64</ele>
        <time>2023-05-17T16:24:14Z</time>
      </trkpt>
      <trkpt lat="43.37576" lon="-1.75133">
        <ele>66</ele>
        <time>2023-05-17T16:24:19Z</time>
      </trkpt>
      <trkpt lat="43.37587" lon="-1.75111">
        <ele>66</ele>
        <time>2023-05-17T16:24:23Z</time>
      </trkpt>
      <trkpt lat="43.37593" lon="-1.75091">
        <ele>66</ele>
        <time>2023-05-17T16:24:26Z</time>
      </trkpt>
      <trkpt lat="43.37611" lon="-1.74995">
        <ele>67</ele>
        <time>2023-05-17T16:24:39Z</time>
      </trkpt>
      <trkpt lat="43.37619" lon="-1.7488">
        <ele>61</ele>
        <time>2023-05-17T16:24:54Z</time>
      </trkpt>
      <trkpt lat="43.37626" lon="-1.74846">
        <ele>58</ele>
        <time>2023-05-17T16:24:58Z</time>
      </trkpt>
      <trkpt lat="43.37632" lon="-1.74829">
        <ele>57</ele>
        <time>2023-05-17T16:25:01Z</time>
      </trkpt>
      <trkpt lat="43.37683" lon="-1.7475">
        <ele>58</ele>
        <time>2023-05-17T16:25:14Z</time>
      </trkpt>
      <trkpt lat="43.37699" lon="-1.74717">
        <ele>58</ele>
        <time>2023-05-17T16:25:19Z</time>
      </trkpt>
      <trkpt lat="43.37714" lon="-1.74675">
        <ele>58</ele>
        <time>2023-05-17T16:25:25Z</time>
      </trkpt>
      <trkpt lat="43.37724" lon="-1.74637">
        <ele>58</ele>
        <time>2023-05-17T16:25:31Z</time>
      </trkpt>
      <trkpt lat="43.37735" lon="-1.7458">
        <ele>56</ele>
        <time>2023-05-17T16:25:38Z</time>
      </trkpt>
      <trkpt lat="43.37738" lon="-1.74528">
        <ele>54</ele>
        <time>2023-05-17T16:25:45Z</time>
      </trkpt>
      <trkpt lat="43.37734" lon="-1.74383">
        <ele>49</ele>
        <time>2023-05-17T16:26:04Z</time>
      </trkpt>
      <trkpt lat="43.37727" lon="-1.74317">
        <ele>46</ele>
        <time>2023-05-17T16:26:12Z</time>
      </trkpt>
      <trkpt lat="43.37718" lon="-1.74285">
        <ele>45</ele>
        <time>2023-05-17T16:26:17Z</time>
      </trkpt>
      <trkpt lat="43.37691" lon="-1.74233">
        <ele>44</ele>
        <time>2023-05-17T16:26:25Z</time>
      </trkpt>
      <trkpt lat="43.37695" lon="-1.7422">
        <ele>44</ele>
        <time>2023-05-17T16:26:27Z</time>
      </trkpt>
      <trkpt lat="43.37693" lon="-1.74212">
        <ele>44</ele>
        <time>2023-05-17T16:26:28Z</time>
      </trkpt>
      <trkpt lat="43.37689" lon="-1.74206">
        <ele>44</ele>
        <time>2023-05-17T16:26:29Z</time>
      </trkpt>
      <trkpt lat="43.37683" lon="-1.74204">
        <ele>44</ele>
        <time>2023-05-17T16:26:30Z</time>
      </trkpt>
      <trkpt lat="43.37676" lon="-1.74188">
        <ele>45</ele>
        <time>2023-05-17T16:26:33Z</time>
      </trkpt>
      <trkpt lat="43.37665" lon="-1.74141">
        <ele>45</ele>
        <time>2023-05-17T16:26:39Z</time>
      </trkpt>
      <trkpt lat="43.37645" lon="-1.74078">
        <ele>44</ele>
        <time>2023-05-17T16:26:48Z</time>
      </trkpt>
      <trkpt lat="43.37641" lon="-1.74053">
        <ele>42</ele>
        <time>2023-05-17T16:26:51Z</time>
      </trkpt>
      <trkpt lat="43.37641" lon="-1.74022">
        <ele>41</ele>
        <time>2023-05-17T16:26:55Z</time>
      </trkpt>
      <trkpt lat="43.37648" lon="-1.73986">
        <ele>40</ele>
        <time>2023-05-17T16:27:00Z</time>
      </trkpt>
      <trkpt lat="43.37659" lon="-1.73961">
        <ele>38</ele>
        <time>2023-05-17T16:27:04Z</time>
      </trkpt>
      <trkpt lat="43.37673" lon="-1.7394">
        <ele>37</ele>
        <time>2023-05-17T16:27:07Z</time>
      </trkpt>
      <trkpt lat="43.37727" lon="-1.73884">
        <ele>33</ele>
        <time>2023-05-17T16:27:19Z</time>
      </trkpt>
      <trkpt lat="43.37742" lon="-1.73861">
        <ele>32</ele>
        <time>2023-05-17T16:27:23Z</time>
      </trkpt>
      <trkpt lat="43.37751" lon="-1.7384">
        <ele>30</ele>
        <time>2023-05-17T16:27:27Z</time>
      </trkpt>
      <trkpt lat="43.37758" lon="-1.73813">
        <ele>29</ele>
        <time>2023-05-17T16:27:30Z</time>
      </trkpt>
      <trkpt lat="43.37756" lon="-1.73769">
        <ele>26</ele>
        <time>2023-05-17T16:27:36Z</time>
      </trkpt>
      <trkpt lat="43.37738" lon="-1.73692">
        <ele>25</ele>
        <time>2023-05-17T16:27:46Z</time>
      </trkpt>
      <trkpt lat="43.37733" lon="-1.73659">
        <ele>24</ele>
        <time>2023-05-17T16:27:51Z</time>
      </trkpt>
      <trkpt lat="43.37734" lon="-1.73623">
        <ele>24</ele>
        <time>2023-05-17T16:27:55Z</time>
      </trkpt>
      <trkpt lat="43.37738" lon="-1.736">
        <ele>25</ele>
        <time>2023-05-17T16:27:59Z</time>
      </trkpt>
      <trkpt lat="43.37745" lon="-1.73579">
        <ele>25</ele>
        <time>2023-05-17T16:28:02Z</time>
      </trkpt>
      <trkpt lat="43.37878" lon="-1.73361">
        <ele>13</ele>
        <time>2023-05-17T16:28:38Z</time>
      </trkpt>
      <trkpt lat="43.37912" lon="-1.73316">
        <ele>13</ele>
        <time>2023-05-17T16:28:47Z</time>
      </trkpt>
      <trkpt lat="43.37929" lon="-1.733">
        <ele>13</ele>
        <time>2023-05-17T16:28:50Z</time>
      </trkpt>
      <trkpt lat="43.38019" lon="-1.7324">
        <ele>11</ele>
        <time>2023-05-17T16:29:08Z</time>
      </trkpt>
      <trkpt lat="43.38051" lon="-1.73232">
        <ele>12</ele>
        <time>2023-05-17T16:29:14Z</time>
      </trkpt>
      <trkpt lat="43.38108" lon="-1.73232">
        <ele>11</ele>
        <time>2023-05-17T16:29:24Z</time>
      </trkpt>
      <trkpt lat="43.38133" lon="-1.73224">
        <ele>12</ele>
        <time>2023-05-17T16:29:29Z</time>
      </trkpt>
      <trkpt lat="43.38156" lon="-1.73203">
        <ele>14</ele>
        <time>2023-05-17T16:29:34Z</time>
      </trkpt>
      <trkpt lat="43.38168" lon="-1.73184">
        <ele>15</ele>
        <time>2023-05-17T16:29:37Z</time>
      </trkpt>
      <trkpt lat="43.38178" lon="-1.7316">
        <ele>16</ele>
        <time>2023-05-17T16:29:40Z</time>
      </trkpt>
      <trkpt lat="43.38185" lon="-1.73118">
        <ele>15</ele>
        <time>2023-05-17T16:29:46Z</time>
      </trkpt>
      <trkpt lat="43.38166" lon="-1.72961">
        <ele>15</ele>
        <time>2023-05-17T16:30:07Z</time>
      </trkpt>
      <trkpt lat="43.38166" lon="-1.72923">
        <ele>15</ele>
        <time>2023-05-17T16:30:12Z</time>
      </trkpt>
      <trkpt lat="43.38172" lon="-1.72886">
        <ele>15</ele>
        <time>2023-05-17T16:30:16Z</time>
      </trkpt>
      <trkpt lat="43.38201" lon="-1.72771">
        <ele>15</ele>
        <time>2023-05-17T16:30:32Z</time>
      </trkpt>
      <trkpt lat="43.38212" lon="-1.72739">
        <ele>17</ele>
        <time>2023-05-17T16:30:37Z</time>
      </trkpt>
      <trkpt lat="43.38226" lon="-1.72714">
        <ele>18</ele>
        <time>2023-05-17T16:30:41Z</time>
      </trkpt>
      <trkpt lat="43.38242" lon="-1.72696">
        <ele>20</ele>
        <time>2023-05-17T16:30:44Z</time>
      </trkpt>
      <trkpt lat="43.38388" lon="-1.72562">
        <ele>18</ele>
        <time>2023-05-17T16:31:16Z</time>
      </trkpt>
      <trkpt lat="43.384" lon="-1.72547">
        <ele>19</ele>
        <time>2023-05-17T16:31:19Z</time>
      </trkpt>
      <trkpt lat="43.38418" lon="-1.72513">
        <ele>22</ele>
        <time>2023-05-17T16:31:24Z</time>
      </trkpt>
      <trkpt lat="43.38432" lon="-1.7247">
        <ele>24</ele>
        <time>2023-05-17T16:31:30Z</time>
      </trkpt>
      <trkpt lat="43.38438" lon="-1.7242">
        <ele>27</ele>
        <time>2023-05-17T16:31:37Z</time>
      </trkpt>
      <trkpt lat="43.38437" lon="-1.72393">
        <ele>29</ele>
        <time>2023-05-17T16:31:40Z</time>
      </trkpt>
      <trkpt lat="43.38432" lon="-1.72362">
        <ele>33</ele>
        <time>2023-05-17T16:31:44Z</time>
      </trkpt>
      <trkpt lat="43.38411" lon="-1.72269">
        <ele>43</ele>
        <time>2023-05-17T16:31:57Z</time>
      </trkpt>
      <trkpt lat="43.38406" lon="-1.72236">
        <ele>43</ele>
        <time>2023-05-17T16:32:01Z</time>
      </trkpt>
      <trkpt lat="43.38408" lon="-1.72182">
        <ele>42</ele>
        <time>2023-05-17T16:32:08Z</time>
      </trkpt>
      <trkpt lat="43.38416" lon="-1.72152">
        <ele>41</ele>
        <time>2023-05-17T16:32:12Z</time>
      </trkpt>
      <trkpt lat="43.3858" lon="-1.71711">
        <ele>26</ele>
        <time>2023-05-17T16:33:16Z</time>
      </trkpt>
      <trkpt lat="43.38671" lon="-1.71399">
        <ele>18</ele>
        <time>2023-05-17T16:34:00Z</time>
      </trkpt>
      <trkpt lat="43.38682" lon="-1.71345">
        <ele>14</ele>
        <time>2023-05-17T16:34:07Z</time>
      </trkpt>
      <trkpt lat="43.38683" lon="-1.71317">
        <ele>13</ele>
        <time>2023-05-17T16:34:11Z</time>
      </trkpt>
      <trkpt lat="43.3868" lon="-1.71291">
        <ele>13</ele>
        <time>2023-05-17T16:34:14Z</time>
      </trkpt>
      <trkpt lat="43.38634" lon="-1.71098">
        <ele>22</ele>
        <time>2023-05-17T16:34:40Z</time>
      </trkpt>
      <trkpt lat="43.38631" lon="-1.71061">
        <ele>24</ele>
        <time>2023-05-17T16:34:45Z</time>
      </trkpt>
      <trkpt lat="43.38632" lon="-1.71042">
        <ele>25</ele>
        <time>2023-05-17T16:34:48Z</time>
      </trkpt>
      <trkpt lat="43.38639" lon="-1.71013">
        <ele>27</ele>
        <time>2023-05-17T16:34:52Z</time>
      </trkpt>
      <trkpt lat="43.38657" lon="-1.70977">
        <ele>28</ele>
        <time>2023-05-17T16:34:57Z</time>
      </trkpt>
      <trkpt lat="43.38674" lon="-1.70958">
        <ele>29</ele>
        <time>2023-05-17T16:35:01Z</time>
      </trkpt>
      <trkpt lat="43.3869" lon="-1.70946">
        <ele>30</ele>
        <time>2023-05-17T16:35:04Z</time>
      </trkpt>
      <trkpt lat="43.38719" lon="-1.70933">
        <ele>32</ele>
        <time>2023-05-17T16:35:10Z</time>
      </trkpt>
      <trkpt lat="43.38831" lon="-1.70892">
        <ele>33</ele>
        <time>2023-05-17T16:35:31Z</time>
      </trkpt>
      <trkpt lat="43.38848" lon="-1.70883">
        <ele>31</ele>
        <time>2023-05-17T16:35:34Z</time>
      </trkpt>
      <trkpt lat="43.38862" lon="-1.70867">
        <ele>31</ele>
        <time>2023-05-17T16:35:37Z</time>
      </trkpt>
      <trkpt lat="43.38874" lon="-1.70846">
        <ele>32</ele>
        <time>2023-05-17T16:35:40Z</time>
      </trkpt>
      <trkpt lat="43.38883" lon="-1.70815">
        <ele>35</ele>
        <time>2023-05-17T16:35:45Z</time>
      </trkpt>
      <trkpt lat="43.38892" lon="-1.70728">
        <ele>40</ele>
        <time>2023-05-17T16:35:56Z</time>
      </trkpt>
      <trkpt lat="43.38909" lon="-1.70667">
        <ele>44</ele>
        <time>2023-05-17T16:36:05Z</time>
      </trkpt>
      <trkpt lat="43.38917" lon="-1.70648">
        <ele>44</ele>
        <time>2023-05-17T16:36:07Z</time>
      </trkpt>
      <trkpt lat="43.38946" lon="-1.70599">
        <ele>40</ele>
        <time>2023-05-17T16:36:16Z</time>
      </trkpt>
      <trkpt lat="43.38959" lon="-1.70569">
        <ele>38</ele>
        <time>2023-05-17T16:36:20Z</time>
      </trkpt>
      <trkpt lat="43.38999" lon="-1.70436">
        <ele>34</ele>
        <time>2023-05-17T16:36:39Z</time>
      </trkpt>
      <trkpt lat="43.39049" lon="-1.70296">
        <ele>26</ele>
        <time>2023-05-17T16:36:59Z</time>
      </trkpt>
      <trkpt lat="43.39068" lon="-1.70223">
        <ele>28</ele>
        <time>2023-05-17T16:37:09Z</time>
      </trkpt>
      <trkpt lat="43.39077" lon="-1.70206">
        <ele>29</ele>
        <time>2023-05-17T16:37:12Z</time>
      </trkpt>
      <trkpt lat="43.39112" lon="-1.70114">
        <ele>32</ele>
        <time>2023-05-17T16:37:25Z</time>
      </trkpt>
      <trkpt lat="43.39136" lon="-1.7007">
        <ele>31</ele>
        <time>2023-05-17T16:37:32Z</time>
      </trkpt>
      <trkpt lat="43.39146" lon="-1.70035">
        <ele>31</ele>
        <time>2023-05-17T16:37:37Z</time>
      </trkpt>
      <trkpt lat="43.39148" lon="-1.70011">
        <ele>33</ele>
        <time>2023-05-17T16:37:40Z</time>
      </trkpt>
      <trkpt lat="43.39145" lon="-1.69838">
        <ele>39</ele>
        <time>2023-05-17T16:38:03Z</time>
      </trkpt>
      <trkpt lat="43.3915" lon="-1.69802">
        <ele>38</ele>
        <time>2023-05-17T16:38:07Z</time>
      </trkpt>
      <trkpt lat="43.3916" lon="-1.69769">
        <ele>37</ele>
        <time>2023-05-17T16:38:12Z</time>
      </trkpt>
      <trkpt lat="43.39216" lon="-1.69619">
        <ele>21</ele>
        <time>2023-05-17T16:38:34Z</time>
      </trkpt>
      <trkpt lat="43.39235" lon="-1.69574">
        <ele>21</ele>
        <time>2023-05-17T16:38:40Z</time>
      </trkpt>
      <trkpt lat="43.39356" lon="-1.6935">
        <ele>21</ele>
        <time>2023-05-17T16:39:17Z</time>
      </trkpt>
      <trkpt lat="43.39371" lon="-1.69305">
        <ele>18</ele>
        <time>2023-05-17T16:39:23Z</time>
      </trkpt>
      <trkpt lat="43.39394" lon="-1.69146">
        <ele>14</ele>
        <time>2023-05-17T16:39:44Z</time>
      </trkpt>
      <trkpt lat="43.39431" lon="-1.68953">
        <ele>11</ele>
        <time>2023-05-17T16:40:10Z</time>
      </trkpt>
      <trkpt lat="43.39434" lon="-1.68911">
        <ele>10</ele>
        <time>2023-05-17T16:40:15Z</time>
      </trkpt>
      <trkpt lat="43.39433" lon="-1.68889">
        <ele>11</ele>
        <time>2023-05-17T16:40:18Z</time>
      </trkpt>
      <trkpt lat="43.39422" lon="-1.68837">
        <ele>13</ele>
        <time>2023-05-17T16:40:25Z</time>
      </trkpt>
      <trkpt lat="43.39404" lon="-1.688">
        <ele>16</ele>
        <time>2023-05-17T16:40:31Z</time>
      </trkpt>
      <trkpt lat="43.39384" lon="-1.68774">
        <ele>16</ele>
        <time>2023-05-17T16:40:36Z</time>
      </trkpt>
      <trkpt lat="43.39354" lon="-1.68749">
        <ele>15</ele>
        <time>2023-05-17T16:40:42Z</time>
      </trkpt>
      <trkpt lat="43.39278" lon="-1.68705">
        <ele>13</ele>
        <time>2023-05-17T16:40:57Z</time>
      </trkpt>
      <trkpt lat="43.3926" lon="-1.68686">
        <ele>12</ele>
        <time>2023-05-17T16:41:01Z</time>
      </trkpt>
      <trkpt lat="43.39233" lon="-1.68649">
        <ele>10</ele>
        <time>2023-05-17T16:41:07Z</time>
      </trkpt>
      <trkpt lat="43.39217" lon="-1.68632">
        <ele>10</ele>
        <time>2023-05-17T16:41:11Z</time>
      </trkpt>
      <trkpt lat="43.39199" lon="-1.68621">
        <ele>9</ele>
        <time>2023-05-17T16:41:14Z</time>
      </trkpt>
      <trkpt lat="43.39186" lon="-1.68617">
        <ele>8</ele>
        <time>2023-05-17T16:41:17Z</time>
      </trkpt>
      <trkpt lat="43.39076" lon="-1.686">
        <ele>5</ele>
        <time>2023-05-17T16:41:37Z</time>
      </trkpt>
      <trkpt lat="43.39056" lon="-1.68595">
        <ele>5</ele>
        <time>2023-05-17T16:41:40Z</time>
      </trkpt>
      <trkpt lat="43.39033" lon="-1.68585">
        <ele>4</ele>
        <time>2023-05-17T16:41:44Z</time>
      </trkpt>
      <trkpt lat="43.39013" lon="-1.68565">
        <ele>4</ele>
        <time>2023-05-17T16:41:49Z</time>
      </trkpt>
      <trkpt lat="43.39005" lon="-1.68552">
        <ele>4</ele>
        <time>2023-05-17T16:41:51Z</time>
      </trkpt>
      <trkpt lat="43.38995" lon="-1.68524">
        <ele>4</ele>
        <time>2023-05-17T16:41:55Z</time>
      </trkpt>
      <trkpt lat="43.38988" lon="-1.68493">
        <ele>5</ele>
        <time>2023-05-17T16:41:59Z</time>
      </trkpt>
      <trkpt lat="43.38985" lon="-1.68441">
        <ele>6</ele>
        <time>2023-05-17T16:42:06Z</time>
      </trkpt>
      <trkpt lat="43.38978" lon="-1.68388">
        <ele>6</ele>
        <time>2023-05-17T16:42:13Z</time>
      </trkpt>
      <trkpt lat="43.38962" lon="-1.68315">
        <ele>8</ele>
        <time>2023-05-17T16:42:23Z</time>
      </trkpt>
      <trkpt lat="43.38892" lon="-1.68044">
        <ele>6</ele>
        <time>2023-05-17T16:43:00Z</time>
      </trkpt>
      <trkpt lat="43.38875" lon="-1.68005">
        <ele>7</ele>
        <time>2023-05-17T16:43:06Z</time>
      </trkpt>
      <trkpt lat="43.38863" lon="-1.67986">
        <ele>8</ele>
        <time>2023-05-17T16:43:09Z</time>
      </trkpt>
      <trkpt lat="43.38851" lon="-1.67956">
        <ele>9</ele>
        <time>2023-05-17T16:43:14Z</time>
      </trkpt>
      <trkpt lat="43.38841" lon="-1.67898">
        <ele>9</ele>
        <time>2023-05-17T16:43:21Z</time>
      </trkpt>
      <trkpt lat="43.38819" lon="-1.67826">
        <ele>16</ele>
        <time>2023-05-17T16:43:31Z</time>
      </trkpt>
      <trkpt lat="43.3881" lon="-1.67782">
        <ele>16</ele>
        <time>2023-05-17T16:43:37Z</time>
      </trkpt>
      <trkpt lat="43.38806" lon="-1.67698">
        <ele>14</ele>
        <time>2023-05-17T16:43:48Z</time>
      </trkpt>
      <trkpt lat="43.38814" lon="-1.67363">
        <ele>18</ele>
        <time>2023-05-17T16:44:32Z</time>
      </trkpt>
      <trkpt lat="43.38819" lon="-1.67332">
        <ele>16</ele>
        <time>2023-05-17T16:44:36Z</time>
      </trkpt>
      <trkpt lat="43.38846" lon="-1.67273">
        <ele>11</ele>
        <time>2023-05-17T16:44:45Z</time>
      </trkpt>
      <trkpt lat="43.38851" lon="-1.67248">
        <ele>11</ele>
        <time>2023-05-17T16:44:48Z</time>
      </trkpt>
      <trkpt lat="43.38848" lon="-1.67206">
        <ele>9</ele>
        <time>2023-05-17T16:44:53Z</time>
      </trkpt>
      <trkpt lat="43.38812" lon="-1.67111">
        <ele>8</ele>
        <time>2023-05-17T16:45:07Z</time>
      </trkpt>
      <trkpt lat="43.38774" lon="-1.67054">
        <ele>8</ele>
        <time>2023-05-17T16:45:17Z</time>
      </trkpt>
      <trkpt lat="43.3874" lon="-1.66977">
        <ele>6</ele>
        <time>2023-05-17T16:45:29Z</time>
      </trkpt>
      <trkpt lat="43.38728" lon="-1.66955">
        <ele>7</ele>
        <time>2023-05-17T16:45:33Z</time>
      </trkpt>
      <trkpt lat="43.38664" lon="-1.66876">
        <ele>7</ele>
        <time>2023-05-17T16:45:48Z</time>
      </trkpt>
      <trkpt lat="43.38642" lon="-1.66844">
        <ele>7</ele>
        <time>2023-05-17T16:45:54Z</time>
      </trkpt>
      <trkpt lat="43.38588" lon="-1.6678">
        <ele>6</ele>
        <time>2023-05-17T16:46:06Z</time>
      </trkpt>
      <trkpt lat="43.38553" lon="-1.66747">
        <ele>5</ele>
        <time>2023-05-17T16:46:14Z</time>
      </trkpt>
      <trkpt lat="43.385" lon="-1.66712">
        <ele>6</ele>
        <time>2023-05-17T16:46:24Z</time>
      </trkpt>
      <trkpt lat="43.38486" lon="-1.66698">
        <ele>5</ele>
        <time>2023-05-17T16:46:27Z</time>
      </trkpt>
      <trkpt lat="43.38471" lon="-1.66673">
        <ele>4</ele>
        <time>2023-05-17T16:46:31Z</time>
      </trkpt>
      <trkpt lat="43.3846" lon="-1.66646">
        <ele>4</ele>
        <time>2023-05-17T16:46:35Z</time>
      </trkpt>
      <trkpt lat="43.38465" lon="-1.66639">
        <ele>4</ele>
        <time>2023-05-17T16:46:37Z</time>
      </trkpt>
      <trkpt lat="43.38465" lon="-1.66624">
        <ele>4</ele>
        <time>2023-05-17T16:46:39Z</time>
      </trkpt>
      <trkpt lat="43.38459" lon="-1.66619">
        <ele>4</ele>
        <time>2023-05-17T16:46:40Z</time>
      </trkpt>
      <trkpt lat="43.38454" lon="-1.66618">
        <ele>4</ele>
        <time>2023-05-17T16:46:41Z</time>
      </trkpt>
      <trkpt lat="43.3844" lon="-1.66591">
        <ele>4</ele>
        <time>2023-05-17T16:46:45Z</time>
      </trkpt>
      <trkpt lat="43.38436" lon="-1.66577">
        <ele>4</ele>
        <time>2023-05-17T16:46:47Z</time>
      </trkpt>
      <trkpt lat="43.38435" lon="-1.6656">
        <ele>4</ele>
        <time>2023-05-17T16:46:49Z</time>
      </trkpt>
      <trkpt lat="43.38439" lon="-1.66545">
        <ele>5</ele>
        <time>2023-05-17T16:46:51Z</time>
      </trkpt>
      <trkpt lat="43.3848" lon="-1.66453">
        <ele>6</ele>
        <time>2023-05-17T16:47:05Z</time>
      </trkpt>
      <trkpt lat="43.38487" lon="-1.66418">
        <ele>5</ele>
        <time>2023-05-17T16:47:10Z</time>
      </trkpt>
      <trkpt lat="43.3856" lon="-1.66247">
        <ele>3</ele>
        <time>2023-05-17T16:47:36Z</time>
      </trkpt>
      <trkpt lat="43.38569" lon="-1.66232">
        <ele>3</ele>
        <time>2023-05-17T16:47:38Z</time>
      </trkpt>
      <trkpt lat="43.38592" lon="-1.66219">
        <ele>4</ele>
        <time>2023-05-17T16:47:43Z</time>
      </trkpt>
      <trkpt lat="43.38612" lon="-1.66214">
        <ele>4</ele>
        <time>2023-05-17T16:47:46Z</time>
      </trkpt>
      <trkpt lat="43.3862" lon="-1.66208">
        <ele>5</ele>
        <time>2023-05-17T16:47:48Z</time>
      </trkpt>
      <trkpt lat="43.38623" lon="-1.66196">
        <ele>5</ele>
        <time>2023-05-17T16:47:49Z</time>
      </trkpt>
      <trkpt lat="43.38622" lon="-1.66183">
        <ele>6</ele>
        <time>2023-05-17T16:47:51Z</time>
      </trkpt>
      <trkpt lat="43.38615" lon="-1.66173">
        <ele>6</ele>
        <time>2023-05-17T16:47:53Z</time>
      </trkpt>
      <trkpt lat="43.38607" lon="-1.6617">
        <ele>5</ele>
        <time>2023-05-17T16:47:54Z</time>
      </trkpt>
      <trkpt lat="43.38609" lon="-1.66077">
        <ele>6</ele>
        <time>2023-05-17T16:48:06Z</time>
      </trkpt>
      <trkpt lat="43.38612" lon="-1.66046">
        <ele>6</ele>
        <time>2023-05-17T16:48:10Z</time>
      </trkpt>
      <trkpt lat="43.38617" lon="-1.66024">
        <ele>5</ele>
        <time>2023-05-17T16:48:13Z</time>
      </trkpt>
      <trkpt lat="43.3865" lon="-1.65922">
        <ele>5</ele>
        <time>2023-05-17T16:48:28Z</time>
      </trkpt>
      <trkpt lat="43.38674" lon="-1.65868">
        <ele>4</ele>
        <time>2023-05-17T16:48:36Z</time>
      </trkpt>
      <trkpt lat="43.38686" lon="-1.65853">
        <ele>4</ele>
        <time>2023-05-17T16:48:39Z</time>
      </trkpt>
      <trkpt lat="43.38694" lon="-1.65864">
        <ele>5</ele>
        <time>2023-05-17T16:48:41Z</time>
      </trkpt>
      <trkpt lat="43.38702" lon="-1.65864">
        <ele>5</ele>
        <time>2023-05-17T16:48:42Z</time>
      </trkpt>
      <trkpt lat="43.38709" lon="-1.65855">
        <ele>5</ele>
        <time>2023-05-17T16:48:44Z</time>
      </trkpt>
      <trkpt lat="43.38711" lon="-1.65846">
        <ele>5</ele>
        <time>2023-05-17T16:48:45Z</time>
      </trkpt>
      <trkpt lat="43.38709" lon="-1.65838">
        <ele>5</ele>
        <time>2023-05-17T16:48:46Z</time>
      </trkpt>
      <trkpt lat="43.38702" lon="-1.65828">
        <ele>5</ele>
        <time>2023-05-17T16:48:48Z</time>
      </trkpt>
      <trkpt lat="43.38695" lon="-1.65827">
        <ele>4</ele>
        <time>2023-05-17T16:48:49Z</time>
      </trkpt>
      <trkpt lat="43.38695" lon="-1.65799">
        <ele>5</ele>
        <time>2023-05-17T16:48:53Z</time>
      </trkpt>
      <trkpt lat="43.38708" lon="-1.65753">
        <ele>5</ele>
        <time>2023-05-17T16:48:59Z</time>
      </trkpt>
      <trkpt lat="43.38735" lon="-1.65678">
        <ele>9</ele>
        <time>2023-05-17T16:49:10Z</time>
      </trkpt>
      <trkpt lat="43.38762" lon="-1.65591">
        <ele>10</ele>
        <time>2023-05-17T16:49:23Z</time>
      </trkpt>
      <trkpt lat="43.3877" lon="-1.6557">
        <ele>11</ele>
        <time>2023-05-17T16:49:26Z</time>
      </trkpt>
      <trkpt lat="43.38789" lon="-1.65534">
        <ele>14</ele>
        <time>2023-05-17T16:49:31Z</time>
      </trkpt>
      <trkpt lat="43.38873" lon="-1.65405">
        <ele>20</ele>
        <time>2023-05-17T16:49:54Z</time>
      </trkpt>
      <trkpt lat="43.38886" lon="-1.65376">
        <ele>20</ele>
        <time>2023-05-17T16:49:58Z</time>
      </trkpt>
      <trkpt lat="43.38892" lon="-1.65372">
        <ele>21</ele>
        <time>2023-05-17T16:49:59Z</time>
      </trkpt>
      <trkpt lat="43.38893" lon="-1.65368">
        <ele>20</ele>
        <time>2023-05-17T16:50:00Z</time>
      </trkpt>
      <trkpt lat="43.3889" lon="-1.65361">
        <ele>20</ele>
        <time>2023-05-17T16:50:01Z</time>
      </trkpt>
      <trkpt lat="43.38887" lon="-1.6536">
        <ele>20</ele>
        <time>2023-05-17T16:50:01Z</time>
      </trkpt>
      <trkpt lat="43.38882" lon="-1.65364">
        <ele>20</ele>
        <time>2023-05-17T16:50:03Z</time>
      </trkpt>
      <trkpt lat="43.38877" lon="-1.65355">
        <ele>19</ele>
        <time>2023-05-17T16:50:04Z</time>
      </trkpt>
      <trkpt lat="43.38822" lon="-1.65345">
        <ele>18</ele>
        <time>2023-05-17T16:50:14Z</time>
      </trkpt>
      <trkpt lat="43.38844" lon="-1.65296">
        <ele>20</ele>
        <time>2023-05-17T16:50:21Z</time>
      </trkpt>
      <trkpt lat="43.38848" lon="-1.65277">
        <ele>21</ele>
        <time>2023-05-17T16:50:24Z</time>
      </trkpt>
      <trkpt lat="43.3884" lon="-1.6525">
        <ele>23</ele>
        <time>2023-05-17T16:50:28Z</time>
      </trkpt>
      <trkpt lat="43.38823" lon="-1.65222">
        <ele>23</ele>
        <time>2023-05-17T16:50:32Z</time>
      </trkpt>
      <trkpt lat="43.39012" lon="-1.65022">
        <ele>13</ele>
        <time>2023-05-17T16:51:15Z</time>
      </trkpt>
      <trkpt lat="43.39026" lon="-1.65001">
        <ele>14</ele>
        <time>2023-05-17T16:51:18Z</time>
      </trkpt>
      <trkpt lat="43.38893" lon="-1.64948">
        <ele>11</ele>
        <time>2023-05-17T16:51:43Z</time>
      </trkpt>
      <trkpt lat="43.38886" lon="-1.64943">
        <ele>10</ele>
        <time>2023-05-17T16:51:44Z</time>
      </trkpt>
      <trkpt lat="43.38873" lon="-1.64922">
        <ele>9</ele>
        <time>2023-05-17T16:51:48Z</time>
      </trkpt>
      <trkpt lat="43.38859" lon="-1.64843">
        <ele>9</ele>
        <time>2023-05-17T16:51:59Z</time>
      </trkpt>
      <trkpt lat="43.38858" lon="-1.64811">
        <ele>12</ele>
        <time>2023-05-17T16:52:03Z</time>
      </trkpt>
      <trkpt lat="43.38859" lon="-1.64793">
        <ele>14</ele>
        <time>2023-05-17T16:52:05Z</time>
      </trkpt>
      <trkpt lat="43.38901" lon="-1.64515">
        <ele>29</ele>
        <time>2023-05-17T16:52:42Z</time>
      </trkpt>
      <trkpt lat="43.38902" lon="-1.64489">
        <ele>30</ele>
        <time>2023-05-17T16:52:45Z</time>
      </trkpt>
      <trkpt lat="43.38899" lon="-1.64462">
        <ele>30</ele>
        <time>2023-05-17T16:52:49Z</time>
      </trkpt>
      <trkpt lat="43.38889" lon="-1.64436">
        <ele>32</ele>
        <time>2023-05-17T16:52:52Z</time>
      </trkpt>
      <trkpt lat="43.3884" lon="-1.64357">
        <ele>35</ele>
        <time>2023-05-17T16:53:06Z</time>
      </trkpt>
      <trkpt lat="43.38834" lon="-1.64334">
        <ele>34</ele>
        <time>2023-05-17T16:53:09Z</time>
      </trkpt>
      <trkpt lat="43.38775" lon="-1.64419">
        <ele>39</ele>
        <time>2023-05-17T16:53:24Z</time>
      </trkpt>
      <trkpt lat="43.38767" lon="-1.64427">
        <ele>39</ele>
        <time>2023-05-17T16:53:26Z</time>
      </trkpt>
      <trkpt lat="43.38738" lon="-1.64444">
        <ele>39</ele>
        <time>2023-05-17T16:53:32Z</time>
      </trkpt>
      <trkpt lat="43.38691" lon="-1.6448">
        <ele>37</ele>
        <time>2023-05-17T16:53:41Z</time>
      </trkpt>
      <trkpt lat="43.38612" lon="-1.64517">
        <ele>35</ele>
        <time>2023-05-17T16:53:56Z</time>
      </trkpt>
      <trkpt lat="43.38593" lon="-1.64531">
        <ele>34</ele>
        <time>2023-05-17T16:54:00Z</time>
      </trkpt>
      <trkpt lat="43.38545" lon="-1.64573">
        <ele>33</ele>
        <time>2023-05-17T16:54:10Z</time>
      </trkpt>
      <trkpt lat="43.38522" lon="-1.64598">
        <ele>33</ele>
        <time>2023-05-17T16:54:15Z</time>
      </trkpt>
      <trkpt lat="43.38481" lon="-1.64652">
        <ele>31</ele>
        <time>2023-05-17T16:54:25Z</time>
      </trkpt>
      <trkpt lat="43.38465" lon="-1.64686">
        <ele>31</ele>
        <time>2023-05-17T16:54:31Z</time>
      </trkpt>
      <trkpt lat="43.38483" lon="-1.64888">
        <ele>38</ele>
        <time>2023-05-17T16:54:57Z</time>
      </trkpt>
      <trkpt lat="43.38497" lon="-1.64958">
        <ele>41</ele>
        <time>2023-05-17T16:55:06Z</time>
      </trkpt>
      <trkpt lat="43.38497" lon="-1.64986">
        <ele>41</ele>
        <time>2023-05-17T16:55:10Z</time>
      </trkpt>
      <trkpt lat="43.3847" lon="-1.65143">
        <ele>27</ele>
        <time>2023-05-17T16:55:31Z</time>
      </trkpt>
      <trkpt lat="43.38457" lon="-1.65139">
        <ele>28</ele>
        <time>2023-05-17T16:55:33Z</time>
      </trkpt>
      <trkpt lat="43.38448" lon="-1.6516">
        <ele>26</ele>
        <time>2023-05-17T16:55:36Z</time>
      </trkpt>
      <trkpt lat="43.38427" lon="-1.65187">
        <ele>24</ele>
        <time>2023-05-17T16:55:41Z</time>
      </trkpt>
      <trkpt lat="43.38448" lon="-1.6516">
        <ele>26</ele>
        <time>2023-05-17T16:55:46Z</time>
      </trkpt>
      <trkpt lat="43.38457" lon="-1.65139">
        <ele>28</ele>
        <time>2023-05-17T16:55:50Z</time>
      </trkpt>
      <trkpt lat="43.3847" lon="-1.65143">
        <ele>27</ele>
        <time>2023-05-17T16:55:52Z</time>
      </trkpt>
      <trkpt lat="43.38455" lon="-1.6518">
        <ele>24</ele>
        <time>2023-05-17T16:55:57Z</time>
      </trkpt>
      <trkpt lat="43.38418" lon="-1.65228">
        <ele>20</ele>
        <time>2023-05-17T16:56:07Z</time>
      </trkpt>
      <trkpt lat="43.38413" lon="-1.6524">
        <ele>19</ele>
        <time>2023-05-17T16:56:08Z</time>
      </trkpt>
      <trkpt lat="43.38414" lon="-1.6525">
        <ele>18</ele>
        <time>2023-05-17T16:56:10Z</time>
      </trkpt>
      <trkpt lat="43.38474" lon="-1.65293">
        <ele>9</ele>
        <time>2023-05-17T16:56:22Z</time>
      </trkpt>
      <trkpt lat="43.3848" lon="-1.65304">
        <ele>8</ele>
        <time>2023-05-17T16:56:23Z</time>
      </trkpt>
      <trkpt lat="43.38463" lon="-1.65304">
        <ele>9</ele>
        <time>2023-05-17T16:56:26Z</time>
      </trkpt>
      <trkpt lat="43.38413" lon="-1.65282">
        <ele>13</ele>
        <time>2023-05-17T16:56:36Z</time>
      </trkpt>
      <trkpt lat="43.38386" lon="-1.6526">
        <ele>14</ele>
        <time>2023-05-17T16:56:41Z</time>
      </trkpt>
      <trkpt lat="43.38368" lon="-1.65239">
        <ele>13</ele>
        <time>2023-05-17T16:56:46Z</time>
      </trkpt>
      <trkpt lat="43.38353" lon="-1.65217">
        <ele>13</ele>
        <time>2023-05-17T16:56:49Z</time>
      </trkpt>
      <trkpt lat="43.38333" lon="-1.65175">
        <ele>12</ele>
        <time>2023-05-17T16:56:56Z</time>
      </trkpt>
      <trkpt lat="43.38259" lon="-1.64968">
        <ele>8</ele>
        <time>2023-05-17T16:57:26Z</time>
      </trkpt>
      <trkpt lat="43.38253" lon="-1.64937">
        <ele>8</ele>
        <time>2023-05-17T16:57:30Z</time>
      </trkpt>
      <trkpt lat="43.38252" lon="-1.64907">
        <ele>8</ele>
        <time>2023-05-17T16:57:34Z</time>
      </trkpt>
      <trkpt lat="43.38274" lon="-1.64689">
        <ele>7</ele>
        <time>2023-05-17T16:58:02Z</time>
      </trkpt>
      <trkpt lat="43.38278" lon="-1.6463">
        <ele>7</ele>
        <time>2023-05-17T16:58:10Z</time>
      </trkpt>
      <trkpt lat="43.3828" lon="-1.64541">
        <ele>9</ele>
        <time>2023-05-17T16:58:21Z</time>
      </trkpt>
      <trkpt lat="43.38273" lon="-1.64416">
        <ele>8</ele>
        <time>2023-05-17T16:58:38Z</time>
      </trkpt>
      <trkpt lat="43.38256" lon="-1.64355">
        <ele>6</ele>
        <time>2023-05-17T16:58:46Z</time>
      </trkpt>
      <trkpt lat="43.38241" lon="-1.64323">
        <ele>5</ele>
        <time>2023-05-17T16:58:51Z</time>
      </trkpt>
      <trkpt lat="43.38217" lon="-1.64289">
        <ele>5</ele>
        <time>2023-05-17T16:58:57Z</time>
      </trkpt>
      <trkpt lat="43.38132" lon="-1.64208">
        <ele>6</ele>
        <time>2023-05-17T16:59:16Z</time>
      </trkpt>
      <trkpt lat="43.3812" lon="-1.64193">
        <ele>6</ele>
        <time>2023-05-17T16:59:18Z</time>
      </trkpt>
      <trkpt lat="43.38065" lon="-1.64074">
        <ele>9</ele>
        <time>2023-05-17T16:59:37Z</time>
      </trkpt>
      <trkpt lat="43.38047" lon="-1.64048">
        <ele>9</ele>
        <time>2023-05-17T16:59:41Z</time>
      </trkpt>
      <trkpt lat="43.3792" lon="-1.6393">
        <ele>7</ele>
        <time>2023-05-17T17:00:09Z</time>
      </trkpt>
      <trkpt lat="43.37786" lon="-1.63794">
        <ele>8</ele>
        <time>2023-05-17T17:00:38Z</time>
      </trkpt>
      <trkpt lat="43.37765" lon="-1.63779">
        <ele>8</ele>
        <time>2023-05-17T17:00:42Z</time>
      </trkpt>
      <trkpt lat="43.37754" lon="-1.63775">
        <ele>8</ele>
        <time>2023-05-17T17:00:44Z</time>
      </trkpt>
      <trkpt lat="43.37722" lon="-1.63773">
        <ele>8</ele>
        <time>2023-05-17T17:00:50Z</time>
      </trkpt>
      <trkpt lat="43.3764" lon="-1.63776">
        <ele>6</ele>
        <time>2023-05-17T17:01:05Z</time>
      </trkpt>
      <trkpt lat="43.37629" lon="-1.63773">
        <ele>6</ele>
        <time>2023-05-17T17:01:07Z</time>
      </trkpt>
      <trkpt lat="43.37583" lon="-1.63773">
        <ele>6</ele>
        <time>2023-05-17T17:01:15Z</time>
      </trkpt>
      <trkpt lat="43.3745" lon="-1.63781">
        <ele>4</ele>
        <time>2023-05-17T17:01:39Z</time>
      </trkpt>
      <trkpt lat="43.37439" lon="-1.63783">
        <ele>4</ele>
        <time>2023-05-17T17:01:41Z</time>
      </trkpt>
      <trkpt lat="43.37432" lon="-1.63788">
        <ele>4</ele>
        <time>2023-05-17T17:01:42Z</time>
      </trkpt>
      <trkpt lat="43.37128" lon="-1.63807">
        <ele>5</ele>
        <time>2023-05-17T17:02:36Z</time>
      </trkpt>
      <trkpt lat="43.37101" lon="-1.63806">
        <ele>5</ele>
        <time>2023-05-17T17:02:41Z</time>
      </trkpt>
      <trkpt lat="43.37076" lon="-1.63799">
        <ele>6</ele>
        <time>2023-05-17T17:02:46Z</time>
      </trkpt>
      <trkpt lat="43.37042" lon="-1.63782">
        <ele>5</ele>
        <time>2023-05-17T17:02:52Z</time>
      </trkpt>
      <trkpt lat="43.36785" lon="-1.63615">
        <ele>6</ele>
        <time>2023-05-17T17:03:43Z</time>
      </trkpt>
      <trkpt lat="43.3674" lon="-1.63591">
        <ele>7</ele>
        <time>2023-05-17T17:03:51Z</time>
      </trkpt>
      <trkpt lat="43.36713" lon="-1.63582">
        <ele>7</ele>
        <time>2023-05-17T17:03:56Z</time>
      </trkpt>
      <trkpt lat="43.36681" lon="-1.63577">
        <ele>8</ele>
        <time>2023-05-17T17:04:02Z</time>
      </trkpt>
      <trkpt lat="43.36651" lon="-1.63576">
        <ele>8</ele>
        <time>2023-05-17T17:04:07Z</time>
      </trkpt>
      <trkpt lat="43.36611" lon="-1.63583">
        <ele>6</ele>
        <time>2023-05-17T17:04:14Z</time>
      </trkpt>
      <trkpt lat="43.36402" lon="-1.63653">
        <ele>7</ele>
        <time>2023-05-17T17:04:53Z</time>
      </trkpt>
      <trkpt lat="43.36349" lon="-1.63668">
        <ele>7</ele>
        <time>2023-05-17T17:05:02Z</time>
      </trkpt>
      <trkpt lat="43.36316" lon="-1.63673">
        <ele>7</ele>
        <time>2023-05-17T17:05:08Z</time>
      </trkpt>
      <trkpt lat="43.3627" lon="-1.6367">
        <ele>6</ele>
        <time>2023-05-17T17:05:16Z</time>
      </trkpt>
      <trkpt lat="43.36217" lon="-1.63651">
        <ele>6</ele>
        <time>2023-05-17T17:05:26Z</time>
      </trkpt>
      <trkpt lat="43.36087" lon="-1.63597">
        <ele>5</ele>
        <time>2023-05-17T17:05:50Z</time>
      </trkpt>
      <trkpt lat="43.36066" lon="-1.63579">
        <ele>5</ele>
        <time>2023-05-17T17:05:55Z</time>
      </trkpt>
      <trkpt lat="43.3604" lon="-1.63548">
        <ele>6</ele>
        <time>2023-05-17T17:06:01Z</time>
      </trkpt>
      <trkpt lat="43.36023" lon="-1.63517">
        <ele>6</ele>
        <time>2023-05-17T17:06:06Z</time>
      </trkpt>
      <trkpt lat="43.35988" lon="-1.63438">
        <ele>8</ele>
        <time>2023-05-17T17:06:18Z</time>
      </trkpt>
      <trkpt lat="43.3593" lon="-1.63351">
        <ele>9</ele>
        <time>2023-05-17T17:06:33Z</time>
      </trkpt>
      <trkpt lat="43.35901" lon="-1.63319">
        <ele>9</ele>
        <time>2023-05-17T17:06:40Z</time>
      </trkpt>
      <trkpt lat="43.35788" lon="-1.63217">
        <ele>9</ele>
        <time>2023-05-17T17:07:04Z</time>
      </trkpt>
      <trkpt lat="43.35764" lon="-1.632">
        <ele>8</ele>
        <time>2023-05-17T17:07:08Z</time>
      </trkpt>
      <trkpt lat="43.35709" lon="-1.63175">
        <ele>7</ele>
        <time>2023-05-17T17:07:19Z</time>
      </trkpt>
      <trkpt lat="43.35674" lon="-1.63152">
        <ele>7</ele>
        <time>2023-05-17T17:07:26Z</time>
      </trkpt>
      <trkpt lat="43.35676" lon="-1.63143">
        <ele>7</ele>
        <time>2023-05-17T17:07:27Z</time>
      </trkpt>
      <trkpt lat="43.3567" lon="-1.63127">
        <ele>7</ele>
        <time>2023-05-17T17:07:29Z</time>
      </trkpt>
      <trkpt lat="43.35656" lon="-1.63127">
        <ele>7</ele>
        <time>2023-05-17T17:07:32Z</time>
      </trkpt>
      <trkpt lat="43.3565" lon="-1.63143">
        <ele>6</ele>
        <time>2023-05-17T17:07:34Z</time>
      </trkpt>
      <trkpt lat="43.35614" lon="-1.63147">
        <ele>5</ele>
        <time>2023-05-17T17:07:40Z</time>
      </trkpt>
      <trkpt lat="43.35427" lon="-1.63091">
        <ele>7</ele>
        <time>2023-05-17T17:08:15Z</time>
      </trkpt>
      <trkpt lat="43.35378" lon="-1.63067">
        <ele>7</ele>
        <time>2023-05-17T17:08:24Z</time>
      </trkpt>
      <trkpt lat="43.35347" lon="-1.63041">
        <ele>7</ele>
        <time>2023-05-17T17:08:30Z</time>
      </trkpt>
      <trkpt lat="43.35315" lon="-1.63008">
        <ele>6</ele>
        <time>2023-05-17T17:08:37Z</time>
      </trkpt>
      <trkpt lat="43.35291" lon="-1.62974">
        <ele>6</ele>
        <time>2023-05-17T17:08:43Z</time>
      </trkpt>
      <trkpt lat="43.35271" lon="-1.62935">
        <ele>6</ele>
        <time>2023-05-17T17:08:50Z</time>
      </trkpt>
      <trkpt lat="43.35222" lon="-1.62794">
        <ele>8</ele>
        <time>2023-05-17T17:09:10Z</time>
      </trkpt>
      <trkpt lat="43.35118" lon="-1.62524">
        <ele>12</ele>
        <time>2023-05-17T17:09:49Z</time>
      </trkpt>
      <trkpt lat="43.35071" lon="-1.62535">
        <ele>6</ele>
        <time>2023-05-17T17:09:58Z</time>
      </trkpt>
      <trkpt lat="43.35045" lon="-1.62537">
        <ele>6</ele>
        <time>2023-05-17T17:10:03Z</time>
      </trkpt>
      <trkpt lat="43.35009" lon="-1.62533">
        <ele>6</ele>
        <time>2023-05-17T17:10:09Z</time>
      </trkpt>
      <trkpt lat="43.34935" lon="-1.62518">
        <ele>7</ele>
        <time>2023-05-17T17:10:22Z</time>
      </trkpt>
      <trkpt lat="43.34918" lon="-1.62518">
        <ele>7</ele>
        <time>2023-05-17T17:10:25Z</time>
      </trkpt>
      <trkpt lat="43.34917" lon="-1.62512">
        <ele>7</ele>
        <time>2023-05-17T17:10:26Z</time>
      </trkpt>
      <trkpt lat="43.34914" lon="-1.62511">
        <ele>7</ele>
        <time>2023-05-17T17:10:27Z</time>
      </trkpt>
      <trkpt lat="43.3491" lon="-1.62512">
        <ele>7</ele>
        <time>2023-05-17T17:10:27Z</time>
      </trkpt>
      <trkpt lat="43.34908" lon="-1.62522">
        <ele>7</ele>
        <time>2023-05-17T17:10:29Z</time>
      </trkpt>
      <trkpt lat="43.34888" lon="-1.62548">
        <ele>6</ele>
        <time>2023-05-17T17:10:34Z</time>
      </trkpt>
      <trkpt lat="43.34879" lon="-1.62554">
        <ele>6</ele>
        <time>2023-05-17T17:10:35Z</time>
      </trkpt>
      <trkpt lat="43.34866" lon="-1.62555">
        <ele>6</ele>
        <time>2023-05-17T17:10:38Z</time>
      </trkpt>
      <trkpt lat="43.34833" lon="-1.62542">
        <ele>6</ele>
        <time>2023-05-17T17:10:44Z</time>
      </trkpt>
      <trkpt lat="43.34771" lon="-1.62467">
        <ele>6</ele>
        <time>2023-05-17T17:10:58Z</time>
      </trkpt>
      <trkpt lat="43.3473" lon="-1.62424">
        <ele>8</ele>
        <time>2023-05-17T17:11:08Z</time>
      </trkpt>
      <trkpt lat="43.34677" lon="-1.6237">
        <ele>13</ele>
        <time>2023-05-17T17:11:19Z</time>
      </trkpt>
      <trkpt lat="43.34641" lon="-1.62346">
        <ele>13</ele>
        <time>2023-05-17T17:11:27Z</time>
      </trkpt>
      <trkpt lat="43.34575" lon="-1.6231">
        <ele>14</ele>
        <time>2023-05-17T17:11:39Z</time>
      </trkpt>
      <trkpt lat="43.3456" lon="-1.62308">
        <ele>15</ele>
        <time>2023-05-17T17:11:42Z</time>
      </trkpt>
      <trkpt lat="43.34465" lon="-1.62309">
        <ele>21</ele>
        <time>2023-05-17T17:11:59Z</time>
      </trkpt>
      <trkpt lat="43.34446" lon="-1.62307">
        <ele>21</ele>
        <time>2023-05-17T17:12:02Z</time>
      </trkpt>
      <trkpt lat="43.34448" lon="-1.62276">
        <ele>21</ele>
        <time>2023-05-17T17:12:06Z</time>
      </trkpt>
      <trkpt lat="43.34474" lon="-1.62151">
        <ele>23</ele>
        <time>2023-05-17T17:12:23Z</time>
      </trkpt>
      <trkpt lat="43.34472" lon="-1.6209">
        <ele>25</ele>
        <time>2023-05-17T17:12:31Z</time>
      </trkpt>
      <trkpt lat="43.34463" lon="-1.62069">
        <ele>24</ele>
        <time>2023-05-17T17:12:34Z</time>
      </trkpt>
      <trkpt lat="43.34405" lon="-1.61982">
        <ele>25</ele>
        <time>2023-05-17T17:12:49Z</time>
      </trkpt>
      <trkpt lat="43.34392" lon="-1.61957">
        <ele>26</ele>
        <time>2023-05-17T17:12:53Z</time>
      </trkpt>
      <trkpt lat="43.34387" lon="-1.61942">
        <ele>26</ele>
        <time>2023-05-17T17:12:55Z</time>
      </trkpt>
      <trkpt lat="43.34381" lon="-1.61904">
        <ele>25</ele>
        <time>2023-05-17T17:13:00Z</time>
      </trkpt>
      <trkpt lat="43.34379" lon="-1.61852">
        <ele>23</ele>
        <time>2023-05-17T17:13:07Z</time>
      </trkpt>
      <trkpt lat="43.3438" lon="-1.61712">
        <ele>25</ele>
        <time>2023-05-17T17:13:25Z</time>
      </trkpt>
      <trkpt lat="43.34378" lon="-1.61683">
        <ele>26</ele>
        <time>2023-05-17T17:13:29Z</time>
      </trkpt>
      <trkpt lat="43.34371" lon="-1.61657">
        <ele>28</ele>
        <time>2023-05-17T17:13:33Z</time>
      </trkpt>
      <trkpt lat="43.34358" lon="-1.61639">
        <ele>30</ele>
        <time>2023-05-17T17:13:36Z</time>
      </trkpt>
      <trkpt lat="43.34334" lon="-1.6163">
        <ele>33</ele>
        <time>2023-05-17T17:13:40Z</time>
      </trkpt>
      <trkpt lat="43.34323" lon="-1.61629">
        <ele>34</ele>
        <time>2023-05-17T17:13:42Z</time>
      </trkpt>
      <trkpt lat="43.34249" lon="-1.61631">
        <ele>40</ele>
        <time>2023-05-17T17:13:56Z</time>
      </trkpt>
      <trkpt lat="43.34236" lon="-1.61629">
        <ele>40</ele>
        <time>2023-05-17T17:13:58Z</time>
      </trkpt>
      <trkpt lat="43.34199" lon="-1.61616">
        <ele>42</ele>
        <time>2023-05-17T17:14:05Z</time>
      </trkpt>
      <trkpt lat="43.34175" lon="-1.61612">
        <ele>43</ele>
        <time>2023-05-17T17:14:09Z</time>
      </trkpt>
      <trkpt lat="43.34143" lon="-1.6161">
        <ele>45</ele>
        <time>2023-05-17T17:14:15Z</time>
      </trkpt>
      <trkpt lat="43.34124" lon="-1.61613">
        <ele>46</ele>
        <time>2023-05-17T17:14:18Z</time>
      </trkpt>
      <trkpt lat="43.34096" lon="-1.61622">
        <ele>46</ele>
        <time>2023-05-17T17:14:23Z</time>
      </trkpt>
      <trkpt lat="43.34078" lon="-1.61619">
        <ele>47</ele>
        <time>2023-05-17T17:14:26Z</time>
      </trkpt>
      <trkpt lat="43.34057" lon="-1.61604">
        <ele>49</ele>
        <time>2023-05-17T17:14:31Z</time>
      </trkpt>
      <trkpt lat="43.34034" lon="-1.6158">
        <ele>53</ele>
        <time>2023-05-17T17:14:36Z</time>
      </trkpt>
      <trkpt lat="43.34015" lon="-1.61567">
        <ele>56</ele>
        <time>2023-05-17T17:14:40Z</time>
      </trkpt>
      <trkpt lat="43.33975" lon="-1.61558">
        <ele>59</ele>
        <time>2023-05-17T17:14:47Z</time>
      </trkpt>
      <trkpt lat="43.33953" lon="-1.61557">
        <ele>59</ele>
        <time>2023-05-17T17:14:51Z</time>
      </trkpt>
      <trkpt lat="43.33925" lon="-1.61562">
        <ele>57</ele>
        <time>2023-05-17T17:14:56Z</time>
      </trkpt>
      <trkpt lat="43.33899" lon="-1.61563">
        <ele>58</ele>
        <time>2023-05-17T17:15:00Z</time>
      </trkpt>
      <trkpt lat="43.33869" lon="-1.61569">
        <ele>58</ele>
        <time>2023-05-17T17:15:06Z</time>
      </trkpt>
      <trkpt lat="43.33835" lon="-1.61567">
        <ele>61</ele>
        <time>2023-05-17T17:15:12Z</time>
      </trkpt>
      <trkpt lat="43.33804" lon="-1.61573">
        <ele>62</ele>
        <time>2023-05-17T17:15:17Z</time>
      </trkpt>
      <trkpt lat="43.33785" lon="-1.61572">
        <ele>64</ele>
        <time>2023-05-17T17:15:21Z</time>
      </trkpt>
      <trkpt lat="43.33698" lon="-1.61541">
        <ele>73</ele>
        <time>2023-05-17T17:15:37Z</time>
      </trkpt>
      <trkpt lat="43.33684" lon="-1.61531">
        <ele>75</ele>
        <time>2023-05-17T17:15:39Z</time>
      </trkpt>
      <trkpt lat="43.33657" lon="-1.615">
        <ele>81</ele>
        <time>2023-05-17T17:15:46Z</time>
      </trkpt>
      <trkpt lat="43.33612" lon="-1.61474">
        <ele>80</ele>
        <time>2023-05-17T17:15:54Z</time>
      </trkpt>
      <trkpt lat="43.33599" lon="-1.6146">
        <ele>81</ele>
        <time>2023-05-17T17:15:57Z</time>
      </trkpt>
      <trkpt lat="43.33576" lon="-1.61416">
        <ele>86</ele>
        <time>2023-05-17T17:16:04Z</time>
      </trkpt>
      <trkpt lat="43.33551" lon="-1.61391">
        <ele>84</ele>
        <time>2023-05-17T17:16:10Z</time>
      </trkpt>
      <trkpt lat="43.33543" lon="-1.61377">
        <ele>85</ele>
        <time>2023-05-17T17:16:12Z</time>
      </trkpt>
      <trkpt lat="43.3354" lon="-1.61363">
        <ele>87</ele>
        <time>2023-05-17T17:16:14Z</time>
      </trkpt>
      <trkpt lat="43.33539" lon="-1.61322">
        <ele>94</ele>
        <time>2023-05-17T17:16:19Z</time>
      </trkpt>
      <trkpt lat="43.33531" lon="-1.61302">
        <ele>97</ele>
        <time>2023-05-17T17:16:22Z</time>
      </trkpt>
      <trkpt lat="43.33504" lon="-1.61282">
        <ele>95</ele>
        <time>2023-05-17T17:16:28Z</time>
      </trkpt>
      <trkpt lat="43.33492" lon="-1.61264">
        <ele>96</ele>
        <time>2023-05-17T17:16:31Z</time>
      </trkpt>
      <trkpt lat="43.33476" lon="-1.61227">
        <ele>101</ele>
        <time>2023-05-17T17:16:37Z</time>
      </trkpt>
      <trkpt lat="43.3347" lon="-1.61222">
        <ele>101</ele>
        <time>2023-05-17T17:16:38Z</time>
      </trkpt>
      <trkpt lat="43.33448" lon="-1.61217">
        <ele>95</ele>
        <time>2023-05-17T17:16:42Z</time>
      </trkpt>
      <trkpt lat="43.33439" lon="-1.61212">
        <ele>94</ele>
        <time>2023-05-17T17:16:43Z</time>
      </trkpt>
      <trkpt lat="43.3343" lon="-1.61195">
        <ele>94</ele>
        <time>2023-05-17T17:16:46Z</time>
      </trkpt>
      <trkpt lat="43.33422" lon="-1.61155">
        <ele>98</ele>
        <time>2023-05-17T17:16:52Z</time>
      </trkpt>
      <trkpt lat="43.33421" lon="-1.61131">
        <ele>100</ele>
        <time>2023-05-17T17:16:55Z</time>
      </trkpt>
      <trkpt lat="43.33428" lon="-1.61089">
        <ele>107</ele>
        <time>2023-05-17T17:17:00Z</time>
      </trkpt>
      <trkpt lat="43.33432" lon="-1.61037">
        <ele>109</ele>
        <time>2023-05-17T17:17:07Z</time>
      </trkpt>
      <trkpt lat="43.33437" lon="-1.61022">
        <ele>111</ele>
        <time>2023-05-17T17:17:09Z</time>
      </trkpt>
      <trkpt lat="43.33458" lon="-1.60998">
        <ele>119</ele>
        <time>2023-05-17T17:17:14Z</time>
      </trkpt>
      <trkpt lat="43.33461" lon="-1.60988">
        <ele>121</ele>
        <time>2023-05-17T17:17:15Z</time>
      </trkpt>
      <trkpt lat="43.33458" lon="-1.60974">
        <ele>121</ele>
        <time>2023-05-17T17:17:17Z</time>
      </trkpt>
      <trkpt lat="43.33443" lon="-1.60956">
        <ele>117</ele>
        <time>2023-05-17T17:17:21Z</time>
      </trkpt>
      <trkpt lat="43.33435" lon="-1.60934">
        <ele>116</ele>
        <time>2023-05-17T17:17:24Z</time>
      </trkpt>
      <trkpt lat="43.33435" lon="-1.60911">
        <ele>119</ele>
        <time>2023-05-17T17:17:27Z</time>
      </trkpt>
      <trkpt lat="43.33442" lon="-1.6087">
        <ele>128</ele>
        <time>2023-05-17T17:17:32Z</time>
      </trkpt>
      <trkpt lat="43.33439" lon="-1.60853">
        <ele>130</ele>
        <time>2023-05-17T17:17:35Z</time>
      </trkpt>
      <trkpt lat="43.3343" lon="-1.60844">
        <ele>129</ele>
        <time>2023-05-17T17:17:37Z</time>
      </trkpt>
      <trkpt lat="43.3342" lon="-1.60844">
        <ele>126</ele>
        <time>2023-05-17T17:17:38Z</time>
      </trkpt>
      <trkpt lat="43.33405" lon="-1.60851">
        <ele>122</ele>
        <time>2023-05-17T17:17:41Z</time>
      </trkpt>
      <trkpt lat="43.33394" lon="-1.60851">
        <ele>120</ele>
        <time>2023-05-17T17:17:43Z</time>
      </trkpt>
      <trkpt lat="43.33378" lon="-1.60839">
        <ele>120</ele>
        <time>2023-05-17T17:17:46Z</time>
      </trkpt>
      <trkpt lat="43.33362" lon="-1.60814">
        <ele>122</ele>
        <time>2023-05-17T17:17:51Z</time>
      </trkpt>
      <trkpt lat="43.3335" lon="-1.60759">
        <ele>130</ele>
        <time>2023-05-17T17:17:58Z</time>
      </trkpt>
      <trkpt lat="43.33346" lon="-1.6075">
        <ele>131</ele>
        <time>2023-05-17T17:18:00Z</time>
      </trkpt>
      <trkpt lat="43.33339" lon="-1.60742">
        <ele>131</ele>
        <time>2023-05-17T17:18:01Z</time>
      </trkpt>
      <trkpt lat="43.33313" lon="-1.60723">
        <ele>129</ele>
        <time>2023-05-17T17:18:06Z</time>
      </trkpt>
      <trkpt lat="43.33272" lon="-1.60657">
        <ele>132</ele>
        <time>2023-05-17T17:18:18Z</time>
      </trkpt>
      <trkpt lat="43.33254" lon="-1.60618">
        <ele>135</ele>
        <time>2023-05-17T17:18:24Z</time>
      </trkpt>
      <trkpt lat="43.33247" lon="-1.6059">
        <ele>138</ele>
        <time>2023-05-17T17:18:27Z</time>
      </trkpt>
      <trkpt lat="43.33245" lon="-1.60574">
        <ele>140</ele>
        <time>2023-05-17T17:18:30Z</time>
      </trkpt>
      <trkpt lat="43.33246" lon="-1.60526">
        <ele>146</ele>
        <time>2023-05-17T17:18:36Z</time>
      </trkpt>
      <trkpt lat="43.33243" lon="-1.60513">
        <ele>147</ele>
        <time>2023-05-17T17:18:38Z</time>
      </trkpt>
      <trkpt lat="43.33231" lon="-1.60501">
        <ele>146</ele>
        <time>2023-05-17T17:18:40Z</time>
      </trkpt>
      <trkpt lat="43.33202" lon="-1.60489">
        <ele>140</ele>
        <time>2023-05-17T17:18:46Z</time>
      </trkpt>
      <trkpt lat="43.33191" lon="-1.60474">
        <ele>139</ele>
        <time>2023-05-17T17:18:48Z</time>
      </trkpt>
      <trkpt lat="43.33182" lon="-1.60451">
        <ele>140</ele>
        <time>2023-05-17T17:18:52Z</time>
      </trkpt>
      <trkpt lat="43.33173" lon="-1.604">
        <ele>146</ele>
        <time>2023-05-17T17:18:59Z</time>
      </trkpt>
      <trkpt lat="43.33142" lon="-1.60314">
        <ele>150</ele>
        <time>2023-05-17T17:19:11Z</time>
      </trkpt>
      <trkpt lat="43.33131" lon="-1.60295">
        <ele>150</ele>
        <time>2023-05-17T17:19:14Z</time>
      </trkpt>
      <trkpt lat="43.3311" lon="-1.60274">
        <ele>150</ele>
        <time>2023-05-17T17:19:19Z</time>
      </trkpt>
      <trkpt lat="43.33083" lon="-1.60256">
        <ele>152</ele>
        <time>2023-05-17T17:19:24Z</time>
      </trkpt>
      <trkpt lat="43.33018" lon="-1.60227">
        <ele>155</ele>
        <time>2023-05-17T17:19:36Z</time>
      </trkpt>
      <trkpt lat="43.32987" lon="-1.60216">
        <ele>158</ele>
        <time>2023-05-17T17:19:42Z</time>
      </trkpt>
      <trkpt lat="43.3294" lon="-1.60207">
        <ele>161</ele>
        <time>2023-05-17T17:19:50Z</time>
      </trkpt>
      <trkpt lat="43.32863" lon="-1.60197">
        <ele>164</ele>
        <time>2023-05-17T17:20:04Z</time>
      </trkpt>
      <trkpt lat="43.32812" lon="-1.60193">
        <ele>164</ele>
        <time>2023-05-17T17:20:13Z</time>
      </trkpt>
      <trkpt lat="43.32769" lon="-1.60185">
        <ele>165</ele>
        <time>2023-05-17T17:20:21Z</time>
      </trkpt>
      <trkpt lat="43.32753" lon="-1.60178">
        <ele>166</ele>
        <time>2023-05-17T17:20:24Z</time>
      </trkpt>
      <trkpt lat="43.32686" lon="-1.60132">
        <ele>170</ele>
        <time>2023-05-17T17:20:37Z</time>
      </trkpt>
      <trkpt lat="43.32665" lon="-1.60123">
        <ele>170</ele>
        <time>2023-05-17T17:20:41Z</time>
      </trkpt>
      <trkpt lat="43.32591" lon="-1.601">
        <ele>168</ele>
        <time>2023-05-17T17:20:55Z</time>
      </trkpt>
      <trkpt lat="43.32569" lon="-1.60089">
        <ele>170</ele>
        <time>2023-05-17T17:20:59Z</time>
      </trkpt>
      <trkpt lat="43.32518" lon="-1.60054">
        <ele>174</ele>
        <time>2023-05-17T17:21:09Z</time>
      </trkpt>
      <trkpt lat="43.32508" lon="-1.60053">
        <ele>174</ele>
        <time>2023-05-17T17:21:11Z</time>
      </trkpt>
      <trkpt lat="43.32498" lon="-1.60056">
        <ele>173</ele>
        <time>2023-05-17T17:21:13Z</time>
      </trkpt>
      <trkpt lat="43.32459" lon="-1.6009">
        <ele>175</ele>
        <time>2023-05-17T17:21:21Z</time>
      </trkpt>
      <trkpt lat="43.32442" lon="-1.60101">
        <ele>178</ele>
        <time>2023-05-17T17:21:24Z</time>
      </trkpt>
      <trkpt lat="43.32434" lon="-1.60102">
        <ele>179</ele>
        <time>2023-05-17T17:21:26Z</time>
      </trkpt>
      <trkpt lat="43.32417" lon="-1.60086">
        <ele>178</ele>
        <time>2023-05-17T17:21:29Z</time>
      </trkpt>
      <trkpt lat="43.32383" lon="-1.60038">
        <ele>180</ele>
        <time>2023-05-17T17:21:38Z</time>
      </trkpt>
      <trkpt lat="43.3237" lon="-1.60027">
        <ele>181</ele>
        <time>2023-05-17T17:21:41Z</time>
      </trkpt>
      <trkpt lat="43.32318" lon="-1.60005">
        <ele>184</ele>
        <time>2023-05-17T17:21:50Z</time>
      </trkpt>
      <trkpt lat="43.32287" lon="-1.59982">
        <ele>183</ele>
        <time>2023-05-17T17:21:57Z</time>
      </trkpt>
      <trkpt lat="43.3226" lon="-1.59953">
        <ele>180</ele>
        <time>2023-05-17T17:22:03Z</time>
      </trkpt>
      <trkpt lat="43.3225" lon="-1.59947">
        <ele>180</ele>
        <time>2023-05-17T17:22:05Z</time>
      </trkpt>
      <trkpt lat="43.32238" lon="-1.59948">
        <ele>181</ele>
        <time>2023-05-17T17:22:07Z</time>
      </trkpt>
      <trkpt lat="43.32233" lon="-1.59951">
        <ele>182</ele>
        <time>2023-05-17T17:22:08Z</time>
      </trkpt>
      <trkpt lat="43.32205" lon="-1.59988">
        <ele>191</ele>
        <time>2023-05-17T17:22:15Z</time>
      </trkpt>
      <trkpt lat="43.32197" lon="-1.59991">
        <ele>192</ele>
        <time>2023-05-17T17:22:16Z</time>
      </trkpt>
      <trkpt lat="43.3219" lon="-1.5999">
        <ele>192</ele>
        <time>2023-05-17T17:22:17Z</time>
      </trkpt>
      <trkpt lat="43.32184" lon="-1.5998">
        <ele>191</ele>
        <time>2023-05-17T17:22:19Z</time>
      </trkpt>
      <trkpt lat="43.3219" lon="-1.59928">
        <ele>182</ele>
        <time>2023-05-17T17:22:26Z</time>
      </trkpt>
      <trkpt lat="43.32189" lon="-1.59897">
        <ele>179</ele>
        <time>2023-05-17T17:22:30Z</time>
      </trkpt>
      <trkpt lat="43.32186" lon="-1.59878">
        <ele>178</ele>
        <time>2023-05-17T17:22:32Z</time>
      </trkpt>
      <trkpt lat="43.32176" lon="-1.59848">
        <ele>177</ele>
        <time>2023-05-17T17:22:37Z</time>
      </trkpt>
      <trkpt lat="43.32165" lon="-1.5983">
        <ele>176</ele>
        <time>2023-05-17T17:22:40Z</time>
      </trkpt>
      <trkpt lat="43.32148" lon="-1.59817">
        <ele>175</ele>
        <time>2023-05-17T17:22:43Z</time>
      </trkpt>
      <trkpt lat="43.32095" lon="-1.59799">
        <ele>175</ele>
        <time>2023-05-17T17:22:53Z</time>
      </trkpt>
      <trkpt lat="43.32068" lon="-1.59784">
        <ele>170</ele>
        <time>2023-05-17T17:22:58Z</time>
      </trkpt>
      <trkpt lat="43.32057" lon="-1.59781">
        <ele>168</ele>
        <time>2023-05-17T17:23:00Z</time>
      </trkpt>
      <trkpt lat="43.32048" lon="-1.59784">
        <ele>168</ele>
        <time>2023-05-17T17:23:02Z</time>
      </trkpt>
      <trkpt lat="43.32041" lon="-1.59791">
        <ele>169</ele>
        <time>2023-05-17T17:23:03Z</time>
      </trkpt>
      <trkpt lat="43.32028" lon="-1.59814">
        <ele>173</ele>
        <time>2023-05-17T17:23:07Z</time>
      </trkpt>
      <trkpt lat="43.32019" lon="-1.59824">
        <ele>174</ele>
        <time>2023-05-17T17:23:09Z</time>
      </trkpt>
      <trkpt lat="43.31984" lon="-1.59849">
        <ele>177</ele>
        <time>2023-05-17T17:23:16Z</time>
      </trkpt>
      <trkpt lat="43.31974" lon="-1.59853">
        <ele>178</ele>
        <time>2023-05-17T17:23:18Z</time>
      </trkpt>
      <trkpt lat="43.31958" lon="-1.59849">
        <ele>177</ele>
        <time>2023-05-17T17:23:21Z</time>
      </trkpt>
      <trkpt lat="43.31927" lon="-1.59824">
        <ele>170</ele>
        <time>2023-05-17T17:23:27Z</time>
      </trkpt>
      <trkpt lat="43.31916" lon="-1.59821">
        <ele>170</ele>
        <time>2023-05-17T17:23:29Z</time>
      </trkpt>
      <trkpt lat="43.31898" lon="-1.59822">
        <ele>171</ele>
        <time>2023-05-17T17:23:32Z</time>
      </trkpt>
      <trkpt lat="43.31889" lon="-1.59819">
        <ele>172</ele>
        <time>2023-05-17T17:23:34Z</time>
      </trkpt>
      <trkpt lat="43.31882" lon="-1.59812">
        <ele>171</ele>
        <time>2023-05-17T17:23:36Z</time>
      </trkpt>
      <trkpt lat="43.31867" lon="-1.59785">
        <ele>167</ele>
        <time>2023-05-17T17:23:40Z</time>
      </trkpt>
      <trkpt lat="43.31827" lon="-1.59762">
        <ele>167</ele>
        <time>2023-05-17T17:23:48Z</time>
      </trkpt>
      <trkpt lat="43.31797" lon="-1.59729">
        <ele>165</ele>
        <time>2023-05-17T17:23:55Z</time>
      </trkpt>
      <trkpt lat="43.31789" lon="-1.59725">
        <ele>166</ele>
        <time>2023-05-17T17:23:56Z</time>
      </trkpt>
      <trkpt lat="43.31767" lon="-1.59721">
        <ele>169</ele>
        <time>2023-05-17T17:24:00Z</time>
      </trkpt>
      <trkpt lat="43.31757" lon="-1.59716">
        <ele>169</ele>
        <time>2023-05-17T17:24:02Z</time>
      </trkpt>
      <trkpt lat="43.31747" lon="-1.59698">
        <ele>167</ele>
        <time>2023-05-17T17:24:05Z</time>
      </trkpt>
      <trkpt lat="43.31726" lon="-1.5967">
        <ele>169</ele>
        <time>2023-05-17T17:24:10Z</time>
      </trkpt>
      <trkpt lat="43.31725" lon="-1.59659">
        <ele>168</ele>
        <time>2023-05-17T17:24:11Z</time>
      </trkpt>
      <trkpt lat="43.31738" lon="-1.59622">
        <ele>159</ele>
        <time>2023-05-17T17:24:17Z</time>
      </trkpt>
      <trkpt lat="43.3174" lon="-1.59598">
        <ele>156</ele>
        <time>2023-05-17T17:24:20Z</time>
      </trkpt>
      <trkpt lat="43.31736" lon="-1.59578">
        <ele>155</ele>
        <time>2023-05-17T17:24:23Z</time>
      </trkpt>
      <trkpt lat="43.31721" lon="-1.59551">
        <ele>155</ele>
        <time>2023-05-17T17:24:27Z</time>
      </trkpt>
      <trkpt lat="43.31699" lon="-1.59525">
        <ele>155</ele>
        <time>2023-05-17T17:24:32Z</time>
      </trkpt>
      <trkpt lat="43.31664" lon="-1.59495">
        <ele>156</ele>
        <time>2023-05-17T17:24:40Z</time>
      </trkpt>
      <trkpt lat="43.31646" lon="-1.59482">
        <ele>156</ele>
        <time>2023-05-17T17:24:43Z</time>
      </trkpt>
      <trkpt lat="43.3163" lon="-1.59475">
        <ele>157</ele>
        <time>2023-05-17T17:24:46Z</time>
      </trkpt>
      <trkpt lat="43.31625" lon="-1.5947">
        <ele>157</ele>
        <time>2023-05-17T17:24:47Z</time>
      </trkpt>
      <trkpt lat="43.31617" lon="-1.5946">
        <ele>156</ele>
        <time>2023-05-17T17:24:49Z</time>
      </trkpt>
      <trkpt lat="43.31603" lon="-1.59431">
        <ele>151</ele>
        <time>2023-05-17T17:24:54Z</time>
      </trkpt>
      <trkpt lat="43.31598" lon="-1.59425">
        <ele>151</ele>
        <time>2023-05-17T17:24:55Z</time>
      </trkpt>
      <trkpt lat="43.31588" lon="-1.59418">
        <ele>151</ele>
        <time>2023-05-17T17:24:57Z</time>
      </trkpt>
      <trkpt lat="43.31564" lon="-1.59411">
        <ele>154</ele>
        <time>2023-05-17T17:25:01Z</time>
      </trkpt>
      <trkpt lat="43.31553" lon="-1.59402">
        <ele>156</ele>
        <time>2023-05-17T17:25:03Z</time>
      </trkpt>
      <trkpt lat="43.31541" lon="-1.59374">
        <ele>155</ele>
        <time>2023-05-17T17:25:08Z</time>
      </trkpt>
      <trkpt lat="43.3152" lon="-1.59346">
        <ele>156</ele>
        <time>2023-05-17T17:25:13Z</time>
      </trkpt>
      <trkpt lat="43.3152" lon="-1.59328">
        <ele>155</ele>
        <time>2023-05-17T17:25:15Z</time>
      </trkpt>
      <trkpt lat="43.31525" lon="-1.59317">
        <ele>154</ele>
        <time>2023-05-17T17:25:17Z</time>
      </trkpt>
      <trkpt lat="43.31546" lon="-1.59289">
        <ele>147</ele>
        <time>2023-05-17T17:25:22Z</time>
      </trkpt>
      <trkpt lat="43.31588" lon="-1.59172">
        <ele>136</ele>
        <time>2023-05-17T17:25:39Z</time>
      </trkpt>
      <trkpt lat="43.31599" lon="-1.59126">
        <ele>137</ele>
        <time>2023-05-17T17:25:45Z</time>
      </trkpt>
      <trkpt lat="43.31606" lon="-1.59113">
        <ele>136</ele>
        <time>2023-05-17T17:25:47Z</time>
      </trkpt>
      <trkpt lat="43.31611" lon="-1.59109">
        <ele>136</ele>
        <time>2023-05-17T17:25:48Z</time>
      </trkpt>
      <trkpt lat="43.31644" lon="-1.59098">
        <ele>132</ele>
        <time>2023-05-17T17:25:54Z</time>
      </trkpt>
      <trkpt lat="43.3166" lon="-1.5909">
        <ele>131</ele>
        <time>2023-05-17T17:25:57Z</time>
      </trkpt>
      <trkpt lat="43.31679" lon="-1.59069">
        <ele>131</ele>
        <time>2023-05-17T17:26:02Z</time>
      </trkpt>
      <trkpt lat="43.31686" lon="-1.59055">
        <ele>132</ele>
        <time>2023-05-17T17:26:04Z</time>
      </trkpt>
      <trkpt lat="43.31697" lon="-1.59041">
        <ele>132</ele>
        <time>2023-05-17T17:26:07Z</time>
      </trkpt>
      <trkpt lat="43.31704" lon="-1.59036">
        <ele>132</ele>
        <time>2023-05-17T17:26:08Z</time>
      </trkpt>
      <trkpt lat="43.31724" lon="-1.5903">
        <ele>130</ele>
        <time>2023-05-17T17:26:12Z</time>
      </trkpt>
      <trkpt lat="43.31736" lon="-1.5903">
        <ele>129</ele>
        <time>2023-05-17T17:26:14Z</time>
      </trkpt>
      <trkpt lat="43.31767" lon="-1.59036">
        <ele>125</ele>
        <time>2023-05-17T17:26:19Z</time>
      </trkpt>
      <trkpt lat="43.3178" lon="-1.5903">
        <ele>125</ele>
        <time>2023-05-17T17:26:22Z</time>
      </trkpt>
      <trkpt lat="43.31791" lon="-1.59017">
        <ele>127</ele>
        <time>2023-05-17T17:26:24Z</time>
      </trkpt>
      <trkpt lat="43.31808" lon="-1.58989">
        <ele>129</ele>
        <time>2023-05-17T17:26:29Z</time>
      </trkpt>
      <trkpt lat="43.31814" lon="-1.58969">
        <ele>128</ele>
        <time>2023-05-17T17:26:32Z</time>
      </trkpt>
      <trkpt lat="43.31813" lon="-1.58957">
        <ele>128</ele>
        <time>2023-05-17T17:26:34Z</time>
      </trkpt>
      <trkpt lat="43.31808" lon="-1.58945">
        <ele>128</ele>
        <time>2023-05-17T17:26:35Z</time>
      </trkpt>
      <trkpt lat="43.31801" lon="-1.58937">
        <ele>128</ele>
        <time>2023-05-17T17:26:37Z</time>
      </trkpt>
      <trkpt lat="43.31787" lon="-1.58932">
        <ele>128</ele>
        <time>2023-05-17T17:26:39Z</time>
      </trkpt>
      <trkpt lat="43.31763" lon="-1.5893">
        <ele>128</ele>
        <time>2023-05-17T17:26:44Z</time>
      </trkpt>
      <trkpt lat="43.31756" lon="-1.58926">
        <ele>128</ele>
        <time>2023-05-17T17:26:45Z</time>
      </trkpt>
      <trkpt lat="43.31711" lon="-1.58882">
        <ele>124</ele>
        <time>2023-05-17T17:26:55Z</time>
      </trkpt>
      <trkpt lat="43.31691" lon="-1.58872">
        <ele>123</ele>
        <time>2023-05-17T17:26:59Z</time>
      </trkpt>
      <trkpt lat="43.31665" lon="-1.58874">
        <ele>124</ele>
        <time>2023-05-17T17:27:03Z</time>
      </trkpt>
      <trkpt lat="43.31646" lon="-1.58872">
        <ele>123</ele>
        <time>2023-05-17T17:27:07Z</time>
      </trkpt>
      <trkpt lat="43.31623" lon="-1.5886">
        <ele>120</ele>
        <time>2023-05-17T17:27:11Z</time>
      </trkpt>
      <trkpt lat="43.31606" lon="-1.58857">
        <ele>119</ele>
        <time>2023-05-17T17:27:14Z</time>
      </trkpt>
      <trkpt lat="43.31525" lon="-1.58855">
        <ele>114</ele>
        <time>2023-05-17T17:27:29Z</time>
      </trkpt>
      <trkpt lat="43.31502" lon="-1.5886">
        <ele>114</ele>
        <time>2023-05-17T17:27:33Z</time>
      </trkpt>
      <trkpt lat="43.31497" lon="-1.58859">
        <ele>113</ele>
        <time>2023-05-17T17:27:34Z</time>
      </trkpt>
      <trkpt lat="43.31492" lon="-1.58854">
        <ele>111</ele>
        <time>2023-05-17T17:27:35Z</time>
      </trkpt>
      <trkpt lat="43.31492" lon="-1.58842">
        <ele>108</ele>
        <time>2023-05-17T17:27:36Z</time>
      </trkpt>
      <trkpt lat="43.31494" lon="-1.58837">
        <ele>107</ele>
        <time>2023-05-17T17:27:37Z</time>
      </trkpt>
      <trkpt lat="43.315" lon="-1.58833">
        <ele>107</ele>
        <time>2023-05-17T17:27:38Z</time>
      </trkpt>
      <trkpt lat="43.31552" lon="-1.58832">
        <ele>111</ele>
        <time>2023-05-17T17:27:47Z</time>
      </trkpt>
      <trkpt lat="43.31605" lon="-1.58813">
        <ele>109</ele>
        <time>2023-05-17T17:27:57Z</time>
      </trkpt>
      <trkpt lat="43.31653" lon="-1.58802">
        <ele>107</ele>
        <time>2023-05-17T17:28:06Z</time>
      </trkpt>
      <trkpt lat="43.31672" lon="-1.588">
        <ele>108</ele>
        <time>2023-05-17T17:28:09Z</time>
      </trkpt>
      <trkpt lat="43.31706" lon="-1.58801">
        <ele>110</ele>
        <time>2023-05-17T17:28:15Z</time>
      </trkpt>
      <trkpt lat="43.31714" lon="-1.58795">
        <ele>109</ele>
        <time>2023-05-17T17:28:17Z</time>
      </trkpt>
      <trkpt lat="43.31716" lon="-1.58783">
        <ele>107</ele>
        <time>2023-05-17T17:28:19Z</time>
      </trkpt>
      <trkpt lat="43.31709" lon="-1.58769">
        <ele>104</ele>
        <time>2023-05-17T17:28:21Z</time>
      </trkpt>
      <trkpt lat="43.317" lon="-1.58759">
        <ele>101</ele>
        <time>2023-05-17T17:28:23Z</time>
      </trkpt>
      <trkpt lat="43.31651" lon="-1.58718">
        <ele>93</ele>
        <time>2023-05-17T17:28:33Z</time>
      </trkpt>
      <trkpt lat="43.31637" lon="-1.587">
        <ele>90</ele>
        <time>2023-05-17T17:28:36Z</time>
      </trkpt>
      <trkpt lat="43.31624" lon="-1.58671">
        <ele>85</ele>
        <time>2023-05-17T17:28:41Z</time>
      </trkpt>
      <trkpt lat="43.31586" lon="-1.58495">
        <ele>72</ele>
        <time>2023-05-17T17:29:05Z</time>
      </trkpt>
      <trkpt lat="43.31561" lon="-1.58415">
        <ele>69</ele>
        <time>2023-05-17T17:29:16Z</time>
      </trkpt>
      <trkpt lat="43.31529" lon="-1.58373">
        <ele>66</ele>
        <time>2023-05-17T17:29:24Z</time>
      </trkpt>
      <trkpt lat="43.31479" lon="-1.58317">
        <ele>62</ele>
        <time>2023-05-17T17:29:35Z</time>
      </trkpt>
      <trkpt lat="43.31474" lon="-1.58305">
        <ele>62</ele>
        <time>2023-05-17T17:29:37Z</time>
      </trkpt>
      <trkpt lat="43.31478" lon="-1.58288">
        <ele>61</ele>
        <time>2023-05-17T17:29:39Z</time>
      </trkpt>
      <trkpt lat="43.31471" lon="-1.58272">
        <ele>61</ele>
        <time>2023-05-17T17:29:42Z</time>
      </trkpt>
      <trkpt lat="43.31465" lon="-1.58269">
        <ele>61</ele>
        <time>2023-05-17T17:29:43Z</time>
      </trkpt>
      <trkpt lat="43.31458" lon="-1.5827">
        <ele>60</ele>
        <time>2023-05-17T17:29:44Z</time>
      </trkpt>
      <trkpt lat="43.31456" lon="-1.58203">
        <ele>59</ele>
        <time>2023-05-17T17:29:53Z</time>
      </trkpt>
      <trkpt lat="43.31459" lon="-1.58177">
        <ele>59</ele>
        <time>2023-05-17T17:29:56Z</time>
      </trkpt>
      <trkpt lat="43.31466" lon="-1.5815">
        <ele>58</ele>
        <time>2023-05-17T17:30:00Z</time>
      </trkpt>
      <trkpt lat="43.31493" lon="-1.58083">
        <ele>57</ele>
        <time>2023-05-17T17:30:10Z</time>
      </trkpt>
      <trkpt lat="43.315" lon="-1.58059">
        <ele>56</ele>
        <time>2023-05-17T17:30:13Z</time>
      </trkpt>
      <trkpt lat="43.31503" lon="-1.58034">
        <ele>56</ele>
        <time>2023-05-17T17:30:16Z</time>
      </trkpt>
      <trkpt lat="43.31502" lon="-1.58001">
        <ele>55</ele>
        <time>2023-05-17T17:30:21Z</time>
      </trkpt>
      <trkpt lat="43.31455" lon="-1.57822">
        <ele>63</ele>
        <time>2023-05-17T17:30:45Z</time>
      </trkpt>
      <trkpt lat="43.31382" lon="-1.57566">
        <ele>56</ele>
        <time>2023-05-17T17:31:21Z</time>
      </trkpt>
      <trkpt lat="43.31365" lon="-1.57517">
        <ele>54</ele>
        <time>2023-05-17T17:31:28Z</time>
      </trkpt>
      <trkpt lat="43.31349" lon="-1.57492">
        <ele>53</ele>
        <time>2023-05-17T17:31:32Z</time>
      </trkpt>
      <trkpt lat="43.31333" lon="-1.57477">
        <ele>53</ele>
        <time>2023-05-17T17:31:36Z</time>
      </trkpt>
      <trkpt lat="43.31258" lon="-1.57423">
        <ele>51</ele>
        <time>2023-05-17T17:31:51Z</time>
      </trkpt>
      <trkpt lat="43.31237" lon="-1.57405">
        <ele>50</ele>
        <time>2023-05-17T17:31:55Z</time>
      </trkpt>
      <trkpt lat="43.31147" lon="-1.57323">
        <ele>48</ele>
        <time>2023-05-17T17:32:14Z</time>
      </trkpt>
      <trkpt lat="43.31092" lon="-1.57267">
        <ele>45</ele>
        <time>2023-05-17T17:32:27Z</time>
      </trkpt>
      <trkpt lat="43.31066" lon="-1.5725">
        <ele>45</ele>
        <time>2023-05-17T17:32:32Z</time>
      </trkpt>
      <trkpt lat="43.3104" lon="-1.5724">
        <ele>46</ele>
        <time>2023-05-17T17:32:37Z</time>
      </trkpt>
      <trkpt lat="43.31009" lon="-1.57233">
        <ele>48</ele>
        <time>2023-05-17T17:32:42Z</time>
      </trkpt>
      <trkpt lat="43.30968" lon="-1.57229">
        <ele>47</ele>
        <time>2023-05-17T17:32:49Z</time>
      </trkpt>
      <trkpt lat="43.30968" lon="-1.57215">
        <ele>47</ele>
        <time>2023-05-17T17:32:51Z</time>
      </trkpt>
      <trkpt lat="43.30965" lon="-1.57211">
        <ele>47</ele>
        <time>2023-05-17T17:32:52Z</time>
      </trkpt>
      <trkpt lat="43.30987" lon="-1.57145">
        <ele>48</ele>
        <time>2023-05-17T17:33:01Z</time>
      </trkpt>
      <trkpt lat="43.30991" lon="-1.57111">
        <ele>49</ele>
        <time>2023-05-17T17:33:06Z</time>
      </trkpt>
      <trkpt lat="43.3099" lon="-1.57092">
        <ele>49</ele>
        <time>2023-05-17T17:33:08Z</time>
      </trkpt>
      <trkpt lat="43.30987" lon="-1.57078">
        <ele>50</ele>
        <time>2023-05-17T17:33:10Z</time>
      </trkpt>
      <trkpt lat="43.30945" lon="-1.57005">
        <ele>50</ele>
        <time>2023-05-17T17:33:22Z</time>
      </trkpt>
      <trkpt lat="43.30932" lon="-1.56969">
        <ele>50</ele>
        <time>2023-05-17T17:33:27Z</time>
      </trkpt>
      <trkpt lat="43.30921" lon="-1.56919">
        <ele>51</ele>
        <time>2023-05-17T17:33:34Z</time>
      </trkpt>
      <trkpt lat="43.30921" lon="-1.5688">
        <ele>50</ele>
        <time>2023-05-17T17:33:39Z</time>
      </trkpt>
      <trkpt lat="43.30935" lon="-1.56813">
        <ele>50</ele>
        <time>2023-05-17T17:33:48Z</time>
      </trkpt>
      <trkpt lat="43.30947" lon="-1.56774">
        <ele>49</ele>
        <time>2023-05-17T17:33:54Z</time>
      </trkpt>
      <trkpt lat="43.31038" lon="-1.56619">
        <ele>47</ele>
        <time>2023-05-17T17:34:20Z</time>
      </trkpt>
      <trkpt lat="43.31049" lon="-1.56607">
        <ele>47</ele>
        <time>2023-05-17T17:34:22Z</time>
      </trkpt>
      <trkpt lat="43.31076" lon="-1.56586">
        <ele>47</ele>
        <time>2023-05-17T17:34:28Z</time>
      </trkpt>
      <trkpt lat="43.31225" lon="-1.56499">
        <ele>47</ele>
        <time>2023-05-17T17:34:56Z</time>
      </trkpt>
      <trkpt lat="43.31246" lon="-1.56482">
        <ele>47</ele>
        <time>2023-05-17T17:35:01Z</time>
      </trkpt>
      <trkpt lat="43.3126" lon="-1.56465">
        <ele>47</ele>
        <time>2023-05-17T17:35:04Z</time>
      </trkpt>
      <trkpt lat="43.313" lon="-1.56394">
        <ele>46</ele>
        <time>2023-05-17T17:35:16Z</time>
      </trkpt>
      <trkpt lat="43.31316" lon="-1.56372">
        <ele>45</ele>
        <time>2023-05-17T17:35:20Z</time>
      </trkpt>
      <trkpt lat="43.31334" lon="-1.56354">
        <ele>44</ele>
        <time>2023-05-17T17:35:24Z</time>
      </trkpt>
      <trkpt lat="43.31396" lon="-1.56304">
        <ele>44</ele>
        <time>2023-05-17T17:35:36Z</time>
      </trkpt>
      <trkpt lat="43.31409" lon="-1.56288">
        <ele>44</ele>
        <time>2023-05-17T17:35:40Z</time>
      </trkpt>
      <trkpt lat="43.31426" lon="-1.5626">
        <ele>44</ele>
        <time>2023-05-17T17:35:44Z</time>
      </trkpt>
      <trkpt lat="43.31439" lon="-1.56228">
        <ele>45</ele>
        <time>2023-05-17T17:35:49Z</time>
      </trkpt>
      <trkpt lat="43.3146" lon="-1.56133">
        <ele>46</ele>
        <time>2023-05-17T17:36:02Z</time>
      </trkpt>
      <trkpt lat="43.31463" lon="-1.56123">
        <ele>46</ele>
        <time>2023-05-17T17:36:03Z</time>
      </trkpt>
      <trkpt lat="43.31473" lon="-1.56109">
        <ele>47</ele>
        <time>2023-05-17T17:36:06Z</time>
      </trkpt>
      <trkpt lat="43.31482" lon="-1.56106">
        <ele>47</ele>
        <time>2023-05-17T17:36:07Z</time>
      </trkpt>
      <trkpt lat="43.31496" lon="-1.5611">
        <ele>49</ele>
        <time>2023-05-17T17:36:10Z</time>
      </trkpt>
      <trkpt lat="43.31546" lon="-1.56148">
        <ele>52</ele>
        <time>2023-05-17T17:36:20Z</time>
      </trkpt>
      <trkpt lat="43.31561" lon="-1.56154">
        <ele>53</ele>
        <time>2023-05-17T17:36:23Z</time>
      </trkpt>
      <trkpt lat="43.31571" lon="-1.56156">
        <ele>53</ele>
        <time>2023-05-17T17:36:25Z</time>
      </trkpt>
      <trkpt lat="43.31586" lon="-1.56153">
        <ele>53</ele>
        <time>2023-05-17T17:36:27Z</time>
      </trkpt>
      <trkpt lat="43.31599" lon="-1.56146">
        <ele>54</ele>
        <time>2023-05-17T17:36:30Z</time>
      </trkpt>
      <trkpt lat="43.31611" lon="-1.56136">
        <ele>54</ele>
        <time>2023-05-17T17:36:32Z</time>
      </trkpt>
      <trkpt lat="43.31741" lon="-1.55996">
        <ele>53</ele>
        <time>2023-05-17T17:37:02Z</time>
      </trkpt>
      <trkpt lat="43.31752" lon="-1.55979">
        <ele>52</ele>
        <time>2023-05-17T17:37:05Z</time>
      </trkpt>
      <trkpt lat="43.31763" lon="-1.55932">
        <ele>51</ele>
        <time>2023-05-17T17:37:11Z</time>
      </trkpt>
      <trkpt lat="43.31771" lon="-1.55913">
        <ele>50</ele>
        <time>2023-05-17T17:37:14Z</time>
      </trkpt>
      <trkpt lat="43.31808" lon="-1.55862">
        <ele>49</ele>
        <time>2023-05-17T17:37:23Z</time>
      </trkpt>
      <trkpt lat="43.31862" lon="-1.55767">
        <ele>46</ele>
        <time>2023-05-17T17:37:39Z</time>
      </trkpt>
      <trkpt lat="43.31918" lon="-1.55692">
        <ele>43</ele>
        <time>2023-05-17T17:37:53Z</time>
      </trkpt>
      <trkpt lat="43.31937" lon="-1.55663">
        <ele>41</ele>
        <time>2023-05-17T17:37:58Z</time>
      </trkpt>
      <trkpt lat="43.31944" lon="-1.55648">
        <ele>41</ele>
        <time>2023-05-17T17:38:00Z</time>
      </trkpt>
      <trkpt lat="43.31973" lon="-1.55528">
        <ele>36</ele>
        <time>2023-05-17T17:38:17Z</time>
      </trkpt>
      <trkpt lat="43.31994" lon="-1.55425">
        <ele>35</ele>
        <time>2023-05-17T17:38:30Z</time>
      </trkpt>
      <trkpt lat="43.32006" lon="-1.55398">
        <ele>35</ele>
        <time>2023-05-17T17:38:35Z</time>
      </trkpt>
      <trkpt lat="43.3202" lon="-1.55383">
        <ele>35</ele>
        <time>2023-05-17T17:38:38Z</time>
      </trkpt>
      <trkpt lat="43.32047" lon="-1.55362">
        <ele>34</ele>
        <time>2023-05-17T17:38:43Z</time>
      </trkpt>
      <trkpt lat="43.32058" lon="-1.5535">
        <ele>34</ele>
        <time>2023-05-17T17:38:46Z</time>
      </trkpt>
      <trkpt lat="43.32074" lon="-1.55324">
        <ele>34</ele>
        <time>2023-05-17T17:38:50Z</time>
      </trkpt>
      <trkpt lat="43.32098" lon="-1.55247">
        <ele>32</ele>
        <time>2023-05-17T17:39:01Z</time>
      </trkpt>
      <trkpt lat="43.32142" lon="-1.55069">
        <ele>31</ele>
        <time>2023-05-17T17:39:25Z</time>
      </trkpt>
      <trkpt lat="43.32144" lon="-1.55053">
        <ele>31</ele>
        <time>2023-05-17T17:39:27Z</time>
      </trkpt>
      <trkpt lat="43.32148" lon="-1.55052">
        <ele>31</ele>
        <time>2023-05-17T17:39:28Z</time>
      </trkpt>
      <trkpt lat="43.32151" lon="-1.55044">
        <ele>31</ele>
        <time>2023-05-17T17:39:29Z</time>
      </trkpt>
      <trkpt lat="43.32148" lon="-1.55034">
        <ele>31</ele>
        <time>2023-05-17T17:39:31Z</time>
      </trkpt>
      <trkpt lat="43.32144" lon="-1.55033">
        <ele>31</ele>
        <time>2023-05-17T17:39:31Z</time>
      </trkpt>
      <trkpt lat="43.32133" lon="-1.54946">
        <ele>30</ele>
        <time>2023-05-17T17:39:43Z</time>
      </trkpt>
      <trkpt lat="43.32124" lon="-1.54914">
        <ele>30</ele>
        <time>2023-05-17T17:39:47Z</time>
      </trkpt>
      <trkpt lat="43.32117" lon="-1.54902">
        <ele>30</ele>
        <time>2023-05-17T17:39:49Z</time>
      </trkpt>
      <trkpt lat="43.31945" lon="-1.54685">
        <ele>41</ele>
        <time>2023-05-17T17:40:31Z</time>
      </trkpt>
      <trkpt lat="43.31919" lon="-1.54649">
        <ele>39</ele>
        <time>2023-05-17T17:40:37Z</time>
      </trkpt>
      <trkpt lat="43.31907" lon="-1.54628">
        <ele>39</ele>
        <time>2023-05-17T17:40:41Z</time>
      </trkpt>
      <trkpt lat="43.31891" lon="-1.54589">
        <ele>40</ele>
        <time>2023-05-17T17:40:47Z</time>
      </trkpt>
      <trkpt lat="43.31877" lon="-1.5453">
        <ele>40</ele>
        <time>2023-05-17T17:40:55Z</time>
      </trkpt>
      <trkpt lat="43.31875" lon="-1.54505">
        <ele>40</ele>
        <time>2023-05-17T17:40:58Z</time>
      </trkpt>
      <trkpt lat="43.31876" lon="-1.54459">
        <ele>41</ele>
        <time>2023-05-17T17:41:04Z</time>
      </trkpt>
      <trkpt lat="43.31885" lon="-1.54408">
        <ele>42</ele>
        <time>2023-05-17T17:41:11Z</time>
      </trkpt>
      <trkpt lat="43.32001" lon="-1.53986">
        <ele>38</ele>
        <time>2023-05-17T17:42:09Z</time>
      </trkpt>
      <trkpt lat="43.32009" lon="-1.53945">
        <ele>39</ele>
        <time>2023-05-17T17:42:15Z</time>
      </trkpt>
      <trkpt lat="43.3201" lon="-1.53916">
        <ele>39</ele>
        <time>2023-05-17T17:42:18Z</time>
      </trkpt>
      <trkpt lat="43.31995" lon="-1.5364">
        <ele>40</ele>
        <time>2023-05-17T17:42:54Z</time>
      </trkpt>
      <trkpt lat="43.31988" lon="-1.53593">
        <ele>39</ele>
        <time>2023-05-17T17:43:00Z</time>
      </trkpt>
      <trkpt lat="43.31966" lon="-1.53549">
        <ele>40</ele>
        <time>2023-05-17T17:43:07Z</time>
      </trkpt>
      <trkpt lat="43.31708" lon="-1.53155">
        <ele>48</ele>
        <time>2023-05-17T17:44:16Z</time>
      </trkpt>
      <trkpt lat="43.31807" lon="-1.52537">
        <ele>53</ele>
        <time>2023-05-17T17:45:38Z</time>
      </trkpt>
      <trkpt lat="43.31809" lon="-1.525">
        <ele>53</ele>
        <time>2023-05-17T17:45:43Z</time>
      </trkpt>
      <trkpt lat="43.31805" lon="-1.5247">
        <ele>54</ele>
        <time>2023-05-17T17:45:47Z</time>
      </trkpt>
      <trkpt lat="43.31788" lon="-1.52425">
        <ele>56</ele>
        <time>2023-05-17T17:45:53Z</time>
      </trkpt>
      <trkpt lat="43.31521" lon="-1.52045">
        <ele>66</ele>
        <time>2023-05-17T17:47:02Z</time>
      </trkpt>
      <trkpt lat="43.31502" lon="-1.52026">
        <ele>67</ele>
        <time>2023-05-17T17:47:06Z</time>
      </trkpt>
      <trkpt lat="43.3149" lon="-1.52018">
        <ele>68</ele>
        <time>2023-05-17T17:47:08Z</time>
      </trkpt>
      <trkpt lat="43.31445" lon="-1.51997">
        <ele>68</ele>
        <time>2023-05-17T17:47:17Z</time>
      </trkpt>
      <trkpt lat="43.31425" lon="-1.51973">
        <ele>67</ele>
        <time>2023-05-17T17:47:21Z</time>
      </trkpt>
      <trkpt lat="43.31415" lon="-1.51947">
        <ele>66</ele>
        <time>2023-05-17T17:47:25Z</time>
      </trkpt>
      <trkpt lat="43.31399" lon="-1.51865">
        <ele>67</ele>
        <time>2023-05-17T17:47:36Z</time>
      </trkpt>
      <trkpt lat="43.31376" lon="-1.51772">
        <ele>67</ele>
        <time>2023-05-17T17:47:49Z</time>
      </trkpt>
      <trkpt lat="43.31353" lon="-1.5173">
        <ele>66</ele>
        <time>2023-05-17T17:47:56Z</time>
      </trkpt>
      <trkpt lat="43.3125" lon="-1.51576">
        <ele>65</ele>
        <time>2023-05-17T17:48:23Z</time>
      </trkpt>
      <trkpt lat="43.31225" lon="-1.51531">
        <ele>66</ele>
        <time>2023-05-17T17:48:30Z</time>
      </trkpt>
      <trkpt lat="43.31217" lon="-1.51504">
        <ele>67</ele>
        <time>2023-05-17T17:48:34Z</time>
      </trkpt>
      <trkpt lat="43.31193" lon="-1.51389">
        <ele>67</ele>
        <time>2023-05-17T17:48:49Z</time>
      </trkpt>
      <trkpt lat="43.31183" lon="-1.51241">
        <ele>72</ele>
        <time>2023-05-17T17:49:08Z</time>
      </trkpt>
      <trkpt lat="43.31184" lon="-1.51212">
        <ele>71</ele>
        <time>2023-05-17T17:49:12Z</time>
      </trkpt>
      <trkpt lat="43.31196" lon="-1.51148">
        <ele>70</ele>
        <time>2023-05-17T17:49:21Z</time>
      </trkpt>
      <trkpt lat="43.31214" lon="-1.51079">
        <ele>71</ele>
        <time>2023-05-17T17:49:30Z</time>
      </trkpt>
      <trkpt lat="43.31225" lon="-1.51046">
        <ele>71</ele>
        <time>2023-05-17T17:49:35Z</time>
      </trkpt>
      <trkpt lat="43.31252" lon="-1.50985">
        <ele>71</ele>
        <time>2023-05-17T17:49:44Z</time>
      </trkpt>
      <trkpt lat="43.3129" lon="-1.50938">
        <ele>72</ele>
        <time>2023-05-17T17:49:53Z</time>
      </trkpt>
      <trkpt lat="43.31302" lon="-1.50914">
        <ele>71</ele>
        <time>2023-05-17T17:49:57Z</time>
      </trkpt>
      <trkpt lat="43.31355" lon="-1.50717">
        <ele>74</ele>
        <time>2023-05-17T17:50:24Z</time>
      </trkpt>
      <trkpt lat="43.3136" lon="-1.50687">
        <ele>76</ele>
        <time>2023-05-17T17:50:28Z</time>
      </trkpt>
      <trkpt lat="43.31361" lon="-1.50663">
        <ele>77</ele>
        <time>2023-05-17T17:50:31Z</time>
      </trkpt>
      <trkpt lat="43.31355" lon="-1.50624">
        <ele>79</ele>
        <time>2023-05-17T17:50:37Z</time>
      </trkpt>
      <trkpt lat="43.31309" lon="-1.50459">
        <ele>77</ele>
        <time>2023-05-17T17:50:59Z</time>
      </trkpt>
      <trkpt lat="43.31306" lon="-1.50428">
        <ele>76</ele>
        <time>2023-05-17T17:51:03Z</time>
      </trkpt>
      <trkpt lat="43.31307" lon="-1.5033">
        <ele>82</ele>
        <time>2023-05-17T17:51:16Z</time>
      </trkpt>
      <trkpt lat="43.31302" lon="-1.503">
        <ele>83</ele>
        <time>2023-05-17T17:51:20Z</time>
      </trkpt>
      <trkpt lat="43.31293" lon="-1.50275">
        <ele>85</ele>
        <time>2023-05-17T17:51:24Z</time>
      </trkpt>
      <trkpt lat="43.31279" lon="-1.5025">
        <ele>88</ele>
        <time>2023-05-17T17:51:28Z</time>
      </trkpt>
      <trkpt lat="43.31257" lon="-1.5022">
        <ele>92</ele>
        <time>2023-05-17T17:51:33Z</time>
      </trkpt>
      <trkpt lat="43.31232" lon="-1.50191">
        <ele>94</ele>
        <time>2023-05-17T17:51:39Z</time>
      </trkpt>
      <trkpt lat="43.31211" lon="-1.50172">
        <ele>96</ele>
        <time>2023-05-17T17:51:44Z</time>
      </trkpt>
      <trkpt lat="43.31182" lon="-1.5012">
        <ele>97</ele>
        <time>2023-05-17T17:51:52Z</time>
      </trkpt>
      <trkpt lat="43.31152" lon="-1.5008">
        <ele>97</ele>
        <time>2023-05-17T17:52:00Z</time>
      </trkpt>
      <trkpt lat="43.31136" lon="-1.50046">
        <ele>97</ele>
        <time>2023-05-17T17:52:05Z</time>
      </trkpt>
      <trkpt lat="43.31115" lon="-1.50054">
        <ele>99</ele>
        <time>2023-05-17T17:52:09Z</time>
      </trkpt>
      <trkpt lat="43.31088" lon="-1.50056">
        <ele>101</ele>
        <time>2023-05-17T17:52:13Z</time>
      </trkpt>
      <trkpt lat="43.31071" lon="-1.50052">
        <ele>102</ele>
        <time>2023-05-17T17:52:17Z</time>
      </trkpt>
      <trkpt lat="43.31056" lon="-1.50037">
        <ele>103</ele>
        <time>2023-05-17T17:52:20Z</time>
      </trkpt>
      <trkpt lat="43.3105" lon="-1.50027">
        <ele>103</ele>
        <time>2023-05-17T17:52:22Z</time>
      </trkpt>
      <trkpt lat="43.31003" lon="-1.49908">
        <ele>109</ele>
        <time>2023-05-17T17:52:39Z</time>
      </trkpt>
      <trkpt lat="43.31009" lon="-1.49904">
        <ele>108</ele>
        <time>2023-05-17T17:52:40Z</time>
      </trkpt>
      <trkpt lat="43.3101" lon="-1.49895">
        <ele>108</ele>
        <time>2023-05-17T17:52:41Z</time>
      </trkpt>
      <trkpt lat="43.31005" lon="-1.49888">
        <ele>108</ele>
        <time>2023-05-17T17:52:43Z</time>
      </trkpt>
      <trkpt lat="43.31" lon="-1.49888">
        <ele>109</ele>
        <time>2023-05-17T17:52:44Z</time>
      </trkpt>
      <trkpt lat="43.30996" lon="-1.49898">
        <ele>109</ele>
        <time>2023-05-17T17:52:45Z</time>
      </trkpt>
      <trkpt lat="43.30934" lon="-1.49902">
        <ele>112</ele>
        <time>2023-05-17T17:52:56Z</time>
      </trkpt>
      <trkpt lat="43.30937" lon="-1.49872">
        <ele>111</ele>
        <time>2023-05-17T17:53:00Z</time>
      </trkpt>
      <trkpt lat="43.30934" lon="-1.49902">
        <ele>112</ele>
        <time>2023-05-17T17:53:04Z</time>
      </trkpt>
      <trkpt lat="43.30842" lon="-1.49904">
        <ele>114</ele>
        <time>2023-05-17T17:53:20Z</time>
      </trkpt>
      <trkpt lat="43.30753" lon="-1.49901">
        <ele>116</ele>
        <time>2023-05-17T17:53:36Z</time>
      </trkpt>
      <trkpt lat="43.30726" lon="-1.49897">
        <ele>119</ele>
        <time>2023-05-17T17:53:41Z</time>
      </trkpt>
      <trkpt lat="43.30678" lon="-1.49877">
        <ele>123</ele>
        <time>2023-05-17T17:53:50Z</time>
      </trkpt>
      <trkpt lat="43.3066" lon="-1.49875">
        <ele>125</ele>
        <time>2023-05-17T17:53:53Z</time>
      </trkpt>
      <trkpt lat="43.30635" lon="-1.49878">
        <ele>125</ele>
        <time>2023-05-17T17:53:58Z</time>
      </trkpt>
      <trkpt lat="43.30543" lon="-1.49902">
        <ele>123</ele>
        <time>2023-05-17T17:54:14Z</time>
      </trkpt>
      <trkpt lat="43.30528" lon="-1.49903">
        <ele>122</ele>
        <time>2023-05-17T17:54:17Z</time>
      </trkpt>
      <trkpt lat="43.30521" lon="-1.49901">
        <ele>121</ele>
        <time>2023-05-17T17:54:18Z</time>
      </trkpt>
      <trkpt lat="43.30512" lon="-1.49893">
        <ele>120</ele>
        <time>2023-05-17T17:54:20Z</time>
      </trkpt>
      <trkpt lat="43.30502" lon="-1.49875">
        <ele>120</ele>
        <time>2023-05-17T17:54:23Z</time>
      </trkpt>
      <trkpt lat="43.30433" lon="-1.49673">
        <ele>123</ele>
        <time>2023-05-17T17:54:52Z</time>
      </trkpt>
      <trkpt lat="43.3042" lon="-1.49646">
        <ele>124</ele>
        <time>2023-05-17T17:54:56Z</time>
      </trkpt>
      <trkpt lat="43.30391" lon="-1.49615">
        <ele>125</ele>
        <time>2023-05-17T17:55:03Z</time>
      </trkpt>
      <trkpt lat="43.30345" lon="-1.4958">
        <ele>124</ele>
        <time>2023-05-17T17:55:12Z</time>
      </trkpt>
      <trkpt lat="43.30333" lon="-1.49563">
        <ele>124</ele>
        <time>2023-05-17T17:55:15Z</time>
      </trkpt>
      <trkpt lat="43.30325" lon="-1.49543">
        <ele>124</ele>
        <time>2023-05-17T17:55:18Z</time>
      </trkpt>
      <trkpt lat="43.3028" lon="-1.49373">
        <ele>130</ele>
        <time>2023-05-17T17:55:41Z</time>
      </trkpt>
      <trkpt lat="43.30266" lon="-1.49353">
        <ele>131</ele>
        <time>2023-05-17T17:55:45Z</time>
      </trkpt>
      <trkpt lat="43.30256" lon="-1.49348">
        <ele>131</ele>
        <time>2023-05-17T17:55:47Z</time>
      </trkpt>
      <trkpt lat="43.30236" lon="-1.49348">
        <ele>131</ele>
        <time>2023-05-17T17:55:51Z</time>
      </trkpt>
      <trkpt lat="43.30228" lon="-1.49351">
        <ele>131</ele>
        <time>2023-05-17T17:55:52Z</time>
      </trkpt>
      <trkpt lat="43.30119" lon="-1.49419">
        <ele>127</ele>
        <time>2023-05-17T17:56:13Z</time>
      </trkpt>
      <trkpt lat="43.30094" lon="-1.49431">
        <ele>127</ele>
        <time>2023-05-17T17:56:18Z</time>
      </trkpt>
      <trkpt lat="43.30062" lon="-1.49439">
        <ele>127</ele>
        <time>2023-05-17T17:56:24Z</time>
      </trkpt>
      <trkpt lat="43.3002" lon="-1.49441">
        <ele>129</ele>
        <time>2023-05-17T17:56:31Z</time>
      </trkpt>
      <trkpt lat="43.29991" lon="-1.49436">
        <ele>131</ele>
        <time>2023-05-17T17:56:36Z</time>
      </trkpt>
      <trkpt lat="43.29953" lon="-1.49421">
        <ele>134</ele>
        <time>2023-05-17T17:56:44Z</time>
      </trkpt>
      <trkpt lat="43.29939" lon="-1.49412">
        <ele>135</ele>
        <time>2023-05-17T17:56:46Z</time>
      </trkpt>
      <trkpt lat="43.29903" lon="-1.49382">
        <ele>136</ele>
        <time>2023-05-17T17:56:54Z</time>
      </trkpt>
      <trkpt lat="43.29847" lon="-1.49321">
        <ele>132</ele>
        <time>2023-05-17T17:57:06Z</time>
      </trkpt>
      <trkpt lat="43.29818" lon="-1.49303">
        <ele>129</ele>
        <time>2023-05-17T17:57:12Z</time>
      </trkpt>
      <trkpt lat="43.29786" lon="-1.49294">
        <ele>127</ele>
        <time>2023-05-17T17:57:18Z</time>
      </trkpt>
      <trkpt lat="43.29763" lon="-1.49293">
        <ele>125</ele>
        <time>2023-05-17T17:57:22Z</time>
      </trkpt>
      <trkpt lat="43.29731" lon="-1.49303">
        <ele>123</ele>
        <time>2023-05-17T17:57:28Z</time>
      </trkpt>
      <trkpt lat="43.29706" lon="-1.4932">
        <ele>120</ele>
        <time>2023-05-17T17:57:33Z</time>
      </trkpt>
      <trkpt lat="43.29696" lon="-1.49328">
        <ele>119</ele>
        <time>2023-05-17T17:57:35Z</time>
      </trkpt>
      <trkpt lat="43.29652" lon="-1.49377">
        <ele>116</ele>
        <time>2023-05-17T17:57:45Z</time>
      </trkpt>
      <trkpt lat="43.29623" lon="-1.49417">
        <ele>113</ele>
        <time>2023-05-17T17:57:52Z</time>
      </trkpt>
      <trkpt lat="43.2961" lon="-1.49443">
        <ele>112</ele>
        <time>2023-05-17T17:57:56Z</time>
      </trkpt>
      <trkpt lat="43.29574" lon="-1.49539">
        <ele>114</ele>
        <time>2023-05-17T17:58:10Z</time>
      </trkpt>
      <trkpt lat="43.29553" lon="-1.4956">
        <ele>113</ele>
        <time>2023-05-17T17:58:15Z</time>
      </trkpt>
      <trkpt lat="43.29485" lon="-1.49598">
        <ele>107</ele>
        <time>2023-05-17T17:58:28Z</time>
      </trkpt>
      <trkpt lat="43.29465" lon="-1.49614">
        <ele>105</ele>
        <time>2023-05-17T17:58:32Z</time>
      </trkpt>
      <trkpt lat="43.29445" lon="-1.49635">
        <ele>102</ele>
        <time>2023-05-17T17:58:37Z</time>
      </trkpt>
      <trkpt lat="43.2943" lon="-1.49657">
        <ele>100</ele>
        <time>2023-05-17T17:58:41Z</time>
      </trkpt>
      <trkpt lat="43.29414" lon="-1.49693">
        <ele>100</ele>
        <time>2023-05-17T17:58:46Z</time>
      </trkpt>
      <trkpt lat="43.29407" lon="-1.49727">
        <ele>102</ele>
        <time>2023-05-17T17:58:51Z</time>
      </trkpt>
      <trkpt lat="43.29405" lon="-1.49752">
        <ele>103</ele>
        <time>2023-05-17T17:58:54Z</time>
      </trkpt>
      <trkpt lat="43.29423" lon="-1.49962">
        <ele>90</ele>
        <time>2023-05-17T17:59:21Z</time>
      </trkpt>
      <trkpt lat="43.29423" lon="-1.50013">
        <ele>88</ele>
        <time>2023-05-17T17:59:28Z</time>
      </trkpt>
      <trkpt lat="43.29412" lon="-1.50063">
        <ele>88</ele>
        <time>2023-05-17T17:59:35Z</time>
      </trkpt>
      <trkpt lat="43.29385" lon="-1.5012">
        <ele>87</ele>
        <time>2023-05-17T17:59:43Z</time>
      </trkpt>
      <trkpt lat="43.2937" lon="-1.50172">
        <ele>84</ele>
        <time>2023-05-17T17:59:51Z</time>
      </trkpt>
      <trkpt lat="43.29344" lon="-1.5031">
        <ele>78</ele>
        <time>2023-05-17T18:00:09Z</time>
      </trkpt>
      <trkpt lat="43.29353" lon="-1.50437">
        <ele>75</ele>
        <time>2023-05-17T18:00:26Z</time>
      </trkpt>
      <trkpt lat="43.29351" lon="-1.50449">
        <ele>74</ele>
        <time>2023-05-17T18:00:27Z</time>
      </trkpt>
      <trkpt lat="43.29342" lon="-1.50483">
        <ele>73</ele>
        <time>2023-05-17T18:00:32Z</time>
      </trkpt>
      <trkpt lat="43.29329" lon="-1.50508">
        <ele>71</ele>
        <time>2023-05-17T18:00:36Z</time>
      </trkpt>
      <trkpt lat="43.29311" lon="-1.50523">
        <ele>71</ele>
        <time>2023-05-17T18:00:40Z</time>
      </trkpt>
      <trkpt lat="43.29287" lon="-1.50537">
        <ele>70</ele>
        <time>2023-05-17T18:00:44Z</time>
      </trkpt>
      <trkpt lat="43.29244" lon="-1.50551">
        <ele>71</ele>
        <time>2023-05-17T18:00:52Z</time>
      </trkpt>
      <trkpt lat="43.29235" lon="-1.50558">
        <ele>71</ele>
        <time>2023-05-17T18:00:54Z</time>
      </trkpt>
      <trkpt lat="43.29233" lon="-1.50555">
        <ele>71</ele>
        <time>2023-05-17T18:00:54Z</time>
      </trkpt>
      <trkpt lat="43.29225" lon="-1.50552">
        <ele>71</ele>
        <time>2023-05-17T18:00:56Z</time>
      </trkpt>
      <trkpt lat="43.2922" lon="-1.50557">
        <ele>71</ele>
        <time>2023-05-17T18:00:57Z</time>
      </trkpt>
      <trkpt lat="43.2922" lon="-1.50561">
        <ele>71</ele>
        <time>2023-05-17T18:00:58Z</time>
      </trkpt>
      <trkpt lat="43.29201" lon="-1.50555">
        <ele>70</ele>
        <time>2023-05-17T18:01:01Z</time>
      </trkpt>
      <trkpt lat="43.29125" lon="-1.50559">
        <ele>71</ele>
        <time>2023-05-17T18:01:15Z</time>
      </trkpt>
      <trkpt lat="43.29122" lon="-1.50551">
        <ele>72</ele>
        <time>2023-05-17T18:01:16Z</time>
      </trkpt>
      <trkpt lat="43.29113" lon="-1.50548">
        <ele>72</ele>
        <time>2023-05-17T18:01:17Z</time>
      </trkpt>
      <trkpt lat="43.29107" lon="-1.50552">
        <ele>72</ele>
        <time>2023-05-17T18:01:19Z</time>
      </trkpt>
      <trkpt lat="43.29105" lon="-1.5056">
        <ele>72</ele>
        <time>2023-05-17T18:01:20Z</time>
      </trkpt>
      <trkpt lat="43.29073" lon="-1.50559">
        <ele>73</ele>
        <time>2023-05-17T18:01:25Z</time>
      </trkpt>
      <trkpt lat="43.28988" lon="-1.50564">
        <ele>77</ele>
        <time>2023-05-17T18:01:41Z</time>
      </trkpt>
      <trkpt lat="43.2898" lon="-1.50563">
        <ele>77</ele>
        <time>2023-05-17T18:01:42Z</time>
      </trkpt>
      <trkpt lat="43.28977" lon="-1.50555">
        <ele>78</ele>
        <time>2023-05-17T18:01:43Z</time>
      </trkpt>
      <trkpt lat="43.28971" lon="-1.50552">
        <ele>78</ele>
        <time>2023-05-17T18:01:44Z</time>
      </trkpt>
      <trkpt lat="43.28963" lon="-1.50555">
        <ele>78</ele>
        <time>2023-05-17T18:01:46Z</time>
      </trkpt>
      <trkpt lat="43.2896" lon="-1.50569">
        <ele>77</ele>
        <time>2023-05-17T18:01:48Z</time>
      </trkpt>
      <trkpt lat="43.28904" lon="-1.50582">
        <ele>78</ele>
        <time>2023-05-17T18:01:58Z</time>
      </trkpt>
      <trkpt lat="43.28838" lon="-1.5059">
        <ele>79</ele>
        <time>2023-05-17T18:02:10Z</time>
      </trkpt>
      <trkpt lat="43.28712" lon="-1.50592">
        <ele>85</ele>
        <time>2023-05-17T18:02:32Z</time>
      </trkpt>
      <trkpt lat="43.28708" lon="-1.50578">
        <ele>87</ele>
        <time>2023-05-17T18:02:34Z</time>
      </trkpt>
      <trkpt lat="43.28699" lon="-1.50576">
        <ele>89</ele>
        <time>2023-05-17T18:02:35Z</time>
      </trkpt>
      <trkpt lat="43.28693" lon="-1.5058">
        <ele>88</ele>
        <time>2023-05-17T18:02:37Z</time>
      </trkpt>
      <trkpt lat="43.2869" lon="-1.5059">
        <ele>87</ele>
        <time>2023-05-17T18:02:38Z</time>
      </trkpt>
      <trkpt lat="43.28646" lon="-1.50594">
        <ele>90</ele>
        <time>2023-05-17T18:02:46Z</time>
      </trkpt>
      <trkpt lat="43.2859" lon="-1.50593">
        <ele>93</ele>
        <time>2023-05-17T18:02:56Z</time>
      </trkpt>
      <trkpt lat="43.28485" lon="-1.50574">
        <ele>95</ele>
        <time>2023-05-17T18:03:15Z</time>
      </trkpt>
      <trkpt lat="43.28484" lon="-1.50564">
        <ele>95</ele>
        <time>2023-05-17T18:03:16Z</time>
      </trkpt>
      <trkpt lat="43.28474" lon="-1.50558">
        <ele>95</ele>
        <time>2023-05-17T18:03:18Z</time>
      </trkpt>
      <trkpt lat="43.28468" lon="-1.50561">
        <ele>95</ele>
        <time>2023-05-17T18:03:19Z</time>
      </trkpt>
      <trkpt lat="43.28465" lon="-1.5057">
        <ele>95</ele>
        <time>2023-05-17T18:03:20Z</time>
      </trkpt>
      <trkpt lat="43.28455" lon="-1.50569">
        <ele>95</ele>
        <time>2023-05-17T18:03:22Z</time>
      </trkpt>
      <trkpt lat="43.28172" lon="-1.50522">
        <ele>103</ele>
        <time>2023-05-17T18:04:13Z</time>
      </trkpt>
      <trkpt lat="43.28131" lon="-1.50504">
        <ele>103</ele>
        <time>2023-05-17T18:04:21Z</time>
      </trkpt>
      <trkpt lat="43.28104" lon="-1.50488">
        <ele>103</ele>
        <time>2023-05-17T18:04:26Z</time>
      </trkpt>
      <trkpt lat="43.27984" lon="-1.50407">
        <ele>103</ele>
        <time>2023-05-17T18:04:50Z</time>
      </trkpt>
      <trkpt lat="43.2794" lon="-1.50381">
        <ele>104</ele>
        <time>2023-05-17T18:04:58Z</time>
      </trkpt>
      <trkpt lat="43.27853" lon="-1.50361">
        <ele>109</ele>
        <time>2023-05-17T18:05:14Z</time>
      </trkpt>
      <trkpt lat="43.27809" lon="-1.50348">
        <ele>114</ele>
        <time>2023-05-17T18:05:22Z</time>
      </trkpt>
      <trkpt lat="43.27785" lon="-1.50346">
        <ele>117</ele>
        <time>2023-05-17T18:05:26Z</time>
      </trkpt>
      <trkpt lat="43.2776" lon="-1.50349">
        <ele>119</ele>
        <time>2023-05-17T18:05:31Z</time>
      </trkpt>
      <trkpt lat="43.27729" lon="-1.50349">
        <ele>124</ele>
        <time>2023-05-17T18:05:36Z</time>
      </trkpt>
      <trkpt lat="43.27704" lon="-1.50354">
        <ele>128</ele>
        <time>2023-05-17T18:05:41Z</time>
      </trkpt>
      <trkpt lat="43.27684" lon="-1.50365">
        <ele>129</ele>
        <time>2023-05-17T18:05:44Z</time>
      </trkpt>
      <trkpt lat="43.27631" lon="-1.50418">
        <ele>129</ele>
        <time>2023-05-17T18:05:56Z</time>
      </trkpt>
      <trkpt lat="43.27608" lon="-1.50432">
        <ele>130</ele>
        <time>2023-05-17T18:06:01Z</time>
      </trkpt>
      <trkpt lat="43.27562" lon="-1.50448">
        <ele>132</ele>
        <time>2023-05-17T18:06:09Z</time>
      </trkpt>
      <trkpt lat="43.2754" lon="-1.50452">
        <ele>131</ele>
        <time>2023-05-17T18:06:13Z</time>
      </trkpt>
      <trkpt lat="43.27528" lon="-1.50452">
        <ele>131</ele>
        <time>2023-05-17T18:06:15Z</time>
      </trkpt>
      <trkpt lat="43.27505" lon="-1.50446">
        <ele>133</ele>
        <time>2023-05-17T18:06:19Z</time>
      </trkpt>
      <trkpt lat="43.27488" lon="-1.50437">
        <ele>133</ele>
        <time>2023-05-17T18:06:22Z</time>
      </trkpt>
      <trkpt lat="43.27457" lon="-1.50403">
        <ele>133</ele>
        <time>2023-05-17T18:06:30Z</time>
      </trkpt>
      <trkpt lat="43.27443" lon="-1.50375">
        <ele>134</ele>
        <time>2023-05-17T18:06:34Z</time>
      </trkpt>
      <trkpt lat="43.27432" lon="-1.50339">
        <ele>138</ele>
        <time>2023-05-17T18:06:39Z</time>
      </trkpt>
      <trkpt lat="43.27422" lon="-1.50281">
        <ele>142</ele>
        <time>2023-05-17T18:06:47Z</time>
      </trkpt>
      <trkpt lat="43.27428" lon="-1.50202">
        <ele>154</ele>
        <time>2023-05-17T18:06:57Z</time>
      </trkpt>
      <trkpt lat="43.27422" lon="-1.50173">
        <ele>156</ele>
        <time>2023-05-17T18:07:01Z</time>
      </trkpt>
      <trkpt lat="43.27408" lon="-1.50136">
        <ele>156</ele>
        <time>2023-05-17T18:07:06Z</time>
      </trkpt>
      <trkpt lat="43.27402" lon="-1.50113">
        <ele>156</ele>
        <time>2023-05-17T18:07:09Z</time>
      </trkpt>
      <trkpt lat="43.27399" lon="-1.50085">
        <ele>159</ele>
        <time>2023-05-17T18:07:13Z</time>
      </trkpt>
      <trkpt lat="43.27402" lon="-1.50052">
        <ele>162</ele>
        <time>2023-05-17T18:07:17Z</time>
      </trkpt>
      <trkpt lat="43.27412" lon="-1.50017">
        <ele>167</ele>
        <time>2023-05-17T18:07:22Z</time>
      </trkpt>
      <trkpt lat="43.2743" lon="-1.49968">
        <ele>170</ele>
        <time>2023-05-17T18:07:29Z</time>
      </trkpt>
      <trkpt lat="43.27465" lon="-1.49904">
        <ele>178</ele>
        <time>2023-05-17T18:07:40Z</time>
      </trkpt>
      <trkpt lat="43.27479" lon="-1.49872">
        <ele>180</ele>
        <time>2023-05-17T18:07:45Z</time>
      </trkpt>
      <trkpt lat="43.2749" lon="-1.49833">
        <ele>181</ele>
        <time>2023-05-17T18:07:50Z</time>
      </trkpt>
      <trkpt lat="43.27493" lon="-1.49813">
        <ele>181</ele>
        <time>2023-05-17T18:07:53Z</time>
      </trkpt>
      <trkpt lat="43.27493" lon="-1.4978">
        <ele>181</ele>
        <time>2023-05-17T18:07:57Z</time>
      </trkpt>
      <trkpt lat="43.27476" lon="-1.49701">
        <ele>176</ele>
        <time>2023-05-17T18:08:08Z</time>
      </trkpt>
      <trkpt lat="43.27462" lon="-1.49671">
        <ele>175</ele>
        <time>2023-05-17T18:08:12Z</time>
      </trkpt>
      <trkpt lat="43.27454" lon="-1.4966">
        <ele>175</ele>
        <time>2023-05-17T18:08:14Z</time>
      </trkpt>
      <trkpt lat="43.2743" lon="-1.49637">
        <ele>175</ele>
        <time>2023-05-17T18:08:19Z</time>
      </trkpt>
      <trkpt lat="43.27351" lon="-1.49572">
        <ele>177</ele>
        <time>2023-05-17T18:08:36Z</time>
      </trkpt>
      <trkpt lat="43.27316" lon="-1.49545">
        <ele>179</ele>
        <time>2023-05-17T18:08:43Z</time>
      </trkpt>
      <trkpt lat="43.27269" lon="-1.49515">
        <ele>173</ele>
        <time>2023-05-17T18:08:52Z</time>
      </trkpt>
      <trkpt lat="43.27253" lon="-1.49497">
        <ele>172</ele>
        <time>2023-05-17T18:08:56Z</time>
      </trkpt>
      <trkpt lat="43.27216" lon="-1.4944">
        <ele>170</ele>
        <time>2023-05-17T18:09:06Z</time>
      </trkpt>
      <trkpt lat="43.27191" lon="-1.49411">
        <ele>167</ele>
        <time>2023-05-17T18:09:12Z</time>
      </trkpt>
      <trkpt lat="43.27159" lon="-1.49396">
        <ele>163</ele>
        <time>2023-05-17T18:09:18Z</time>
      </trkpt>
      <trkpt lat="43.27091" lon="-1.49378">
        <ele>164</ele>
        <time>2023-05-17T18:09:30Z</time>
      </trkpt>
      <trkpt lat="43.27066" lon="-1.49378">
        <ele>168</ele>
        <time>2023-05-17T18:09:34Z</time>
      </trkpt>
      <trkpt lat="43.27057" lon="-1.4938">
        <ele>169</ele>
        <time>2023-05-17T18:09:36Z</time>
      </trkpt>
      <trkpt lat="43.27035" lon="-1.49392">
        <ele>174</ele>
        <time>2023-05-17T18:09:40Z</time>
      </trkpt>
      <trkpt lat="43.27017" lon="-1.49409">
        <ele>179</ele>
        <time>2023-05-17T18:09:44Z</time>
      </trkpt>
      <trkpt lat="43.27003" lon="-1.49433">
        <ele>183</ele>
        <time>2023-05-17T18:09:48Z</time>
      </trkpt>
      <trkpt lat="43.26994" lon="-1.49476">
        <ele>188</ele>
        <time>2023-05-17T18:09:54Z</time>
      </trkpt>
      <trkpt lat="43.26991" lon="-1.49521">
        <ele>188</ele>
        <time>2023-05-17T18:10:00Z</time>
      </trkpt>
      <trkpt lat="43.26986" lon="-1.49553">
        <ele>187</ele>
        <time>2023-05-17T18:10:04Z</time>
      </trkpt>
      <trkpt lat="43.26974" lon="-1.49583">
        <ele>189</ele>
        <time>2023-05-17T18:10:08Z</time>
      </trkpt>
      <trkpt lat="43.26946" lon="-1.49634">
        <ele>194</ele>
        <time>2023-05-17T18:10:17Z</time>
      </trkpt>
      <trkpt lat="43.26928" lon="-1.49659">
        <ele>197</ele>
        <time>2023-05-17T18:10:21Z</time>
      </trkpt>
      <trkpt lat="43.26902" lon="-1.4968">
        <ele>203</ele>
        <time>2023-05-17T18:10:27Z</time>
      </trkpt>
      <trkpt lat="43.26889" lon="-1.49687">
        <ele>206</ele>
        <time>2023-05-17T18:10:29Z</time>
      </trkpt>
      <trkpt lat="43.2687" lon="-1.49704">
        <ele>209</ele>
        <time>2023-05-17T18:10:33Z</time>
      </trkpt>
      <trkpt lat="43.26845" lon="-1.4974">
        <ele>209</ele>
        <time>2023-05-17T18:10:40Z</time>
      </trkpt>
      <trkpt lat="43.26827" lon="-1.49756">
        <ele>210</ele>
        <time>2023-05-17T18:10:43Z</time>
      </trkpt>
      <trkpt lat="43.26806" lon="-1.49765">
        <ele>212</ele>
        <time>2023-05-17T18:10:47Z</time>
      </trkpt>
      <trkpt lat="43.26755" lon="-1.49775">
        <ele>220</ele>
        <time>2023-05-17T18:10:57Z</time>
      </trkpt>
      <trkpt lat="43.26712" lon="-1.49787">
        <ele>220</ele>
        <time>2023-05-17T18:11:04Z</time>
      </trkpt>
      <trkpt lat="43.26688" lon="-1.49789">
        <ele>221</ele>
        <time>2023-05-17T18:11:09Z</time>
      </trkpt>
      <trkpt lat="43.26677" lon="-1.49787">
        <ele>223</ele>
        <time>2023-05-17T18:11:11Z</time>
      </trkpt>
      <trkpt lat="43.26647" lon="-1.49774">
        <ele>221</ele>
        <time>2023-05-17T18:11:16Z</time>
      </trkpt>
      <trkpt lat="43.26637" lon="-1.4976">
        <ele>221</ele>
        <time>2023-05-17T18:11:19Z</time>
      </trkpt>
      <trkpt lat="43.26639" lon="-1.49745">
        <ele>226</ele>
        <time>2023-05-17T18:11:21Z</time>
      </trkpt>
      <trkpt lat="43.26644" lon="-1.49739">
        <ele>228</ele>
        <time>2023-05-17T18:11:22Z</time>
      </trkpt>
      <trkpt lat="43.2665" lon="-1.49737">
        <ele>231</ele>
        <time>2023-05-17T18:11:23Z</time>
      </trkpt>
      <trkpt lat="43.26681" lon="-1.49746">
        <ele>233</ele>
        <time>2023-05-17T18:11:29Z</time>
      </trkpt>
      <trkpt lat="43.26695" lon="-1.49745">
        <ele>232</ele>
        <time>2023-05-17T18:11:31Z</time>
      </trkpt>
      <trkpt lat="43.26703" lon="-1.49741">
        <ele>233</ele>
        <time>2023-05-17T18:11:33Z</time>
      </trkpt>
      <trkpt lat="43.26741" lon="-1.49706">
        <ele>239</ele>
        <time>2023-05-17T18:11:41Z</time>
      </trkpt>
      <trkpt lat="43.26777" lon="-1.49665">
        <ele>243</ele>
        <time>2023-05-17T18:11:49Z</time>
      </trkpt>
      <trkpt lat="43.26806" lon="-1.49622">
        <ele>245</ele>
        <time>2023-05-17T18:11:57Z</time>
      </trkpt>
      <trkpt lat="43.26821" lon="-1.49592">
        <ele>247</ele>
        <time>2023-05-17T18:12:01Z</time>
      </trkpt>
      <trkpt lat="43.26827" lon="-1.49565">
        <ele>248</ele>
        <time>2023-05-17T18:12:05Z</time>
      </trkpt>
      <trkpt lat="43.26827" lon="-1.49555">
        <ele>248</ele>
        <time>2023-05-17T18:12:06Z</time>
      </trkpt>
      <trkpt lat="43.26821" lon="-1.49535">
        <ele>249</ele>
        <time>2023-05-17T18:12:09Z</time>
      </trkpt>
      <trkpt lat="43.26809" lon="-1.49524">
        <ele>252</ele>
        <time>2023-05-17T18:12:12Z</time>
      </trkpt>
      <trkpt lat="43.26801" lon="-1.4952">
        <ele>253</ele>
        <time>2023-05-17T18:12:13Z</time>
      </trkpt>
      <trkpt lat="43.26758" lon="-1.49509">
        <ele>261</ele>
        <time>2023-05-17T18:12:21Z</time>
      </trkpt>
      <trkpt lat="43.26669" lon="-1.4948">
        <ele>264</ele>
        <time>2023-05-17T18:12:37Z</time>
      </trkpt>
      <trkpt lat="43.26616" lon="-1.4946">
        <ele>264</ele>
        <time>2023-05-17T18:12:47Z</time>
      </trkpt>
      <trkpt lat="43.26603" lon="-1.49453">
        <ele>264</ele>
        <time>2023-05-17T18:12:50Z</time>
      </trkpt>
      <trkpt lat="43.26591" lon="-1.49445">
        <ele>266</ele>
        <time>2023-05-17T18:12:52Z</time>
      </trkpt>
      <trkpt lat="43.26557" lon="-1.49414">
        <ele>268</ele>
        <time>2023-05-17T18:12:59Z</time>
      </trkpt>
      <trkpt lat="43.26534" lon="-1.49388">
        <ele>270</ele>
        <time>2023-05-17T18:13:04Z</time>
      </trkpt>
      <trkpt lat="43.26478" lon="-1.49293">
        <ele>276</ele>
        <time>2023-05-17T18:13:20Z</time>
      </trkpt>
      <trkpt lat="43.26462" lon="-1.49277">
        <ele>277</ele>
        <time>2023-05-17T18:13:24Z</time>
      </trkpt>
      <trkpt lat="43.26439" lon="-1.49263">
        <ele>280</ele>
        <time>2023-05-17T18:13:28Z</time>
      </trkpt>
      <trkpt lat="43.26416" lon="-1.49254">
        <ele>283</ele>
        <time>2023-05-17T18:13:33Z</time>
      </trkpt>
      <trkpt lat="43.2634" lon="-1.49232">
        <ele>293</ele>
        <time>2023-05-17T18:13:46Z</time>
      </trkpt>
      <trkpt lat="43.26291" lon="-1.49223">
        <ele>290</ele>
        <time>2023-05-17T18:13:55Z</time>
      </trkpt>
      <trkpt lat="43.26281" lon="-1.49213">
        <ele>291</ele>
        <time>2023-05-17T18:13:57Z</time>
      </trkpt>
      <trkpt lat="43.26281" lon="-1.492">
        <ele>293</ele>
        <time>2023-05-17T18:13:59Z</time>
      </trkpt>
      <trkpt lat="43.26284" lon="-1.49194">
        <ele>295</ele>
        <time>2023-05-17T18:14:00Z</time>
      </trkpt>
      <trkpt lat="43.26289" lon="-1.49191">
        <ele>296</ele>
        <time>2023-05-17T18:14:01Z</time>
      </trkpt>
      <trkpt lat="43.26302" lon="-1.4919">
        <ele>298</ele>
        <time>2023-05-17T18:14:03Z</time>
      </trkpt>
      <trkpt lat="43.26323" lon="-1.49195">
        <ele>300</ele>
        <time>2023-05-17T18:14:07Z</time>
      </trkpt>
      <trkpt lat="43.26343" lon="-1.49196">
        <ele>301</ele>
        <time>2023-05-17T18:14:11Z</time>
      </trkpt>
      <trkpt lat="43.2637" lon="-1.49188">
        <ele>301</ele>
        <time>2023-05-17T18:14:16Z</time>
      </trkpt>
      <trkpt lat="43.26384" lon="-1.4918">
        <ele>301</ele>
        <time>2023-05-17T18:14:18Z</time>
      </trkpt>
      <trkpt lat="43.26405" lon="-1.49161">
        <ele>304</ele>
        <time>2023-05-17T18:14:23Z</time>
      </trkpt>
      <trkpt lat="43.26421" lon="-1.49136">
        <ele>305</ele>
        <time>2023-05-17T18:14:27Z</time>
      </trkpt>
      <trkpt lat="43.26427" lon="-1.49121">
        <ele>306</ele>
        <time>2023-05-17T18:14:29Z</time>
      </trkpt>
      <trkpt lat="43.2643" lon="-1.49108">
        <ele>306</ele>
        <time>2023-05-17T18:14:31Z</time>
      </trkpt>
      <trkpt lat="43.2643" lon="-1.49077">
        <ele>310</ele>
        <time>2023-05-17T18:14:35Z</time>
      </trkpt>
      <trkpt lat="43.26419" lon="-1.49015">
        <ele>316</ele>
        <time>2023-05-17T18:14:43Z</time>
      </trkpt>
      <trkpt lat="43.26416" lon="-1.48983">
        <ele>319</ele>
        <time>2023-05-17T18:14:47Z</time>
      </trkpt>
      <trkpt lat="43.26416" lon="-1.48947">
        <ele>322</ele>
        <time>2023-05-17T18:14:52Z</time>
      </trkpt>
      <trkpt lat="43.2643" lon="-1.48818">
        <ele>321</ele>
        <time>2023-05-17T18:15:09Z</time>
      </trkpt>
      <trkpt lat="43.26425" lon="-1.488">
        <ele>322</ele>
        <time>2023-05-17T18:15:12Z</time>
      </trkpt>
      <trkpt lat="43.26413" lon="-1.48797">
        <ele>326</ele>
        <time>2023-05-17T18:15:14Z</time>
      </trkpt>
      <trkpt lat="43.26406" lon="-1.48803">
        <ele>328</ele>
        <time>2023-05-17T18:15:15Z</time>
      </trkpt>
      <trkpt lat="43.26402" lon="-1.48812">
        <ele>329</ele>
        <time>2023-05-17T18:15:17Z</time>
      </trkpt>
      <trkpt lat="43.26394" lon="-1.48869">
        <ele>330</ele>
        <time>2023-05-17T18:15:24Z</time>
      </trkpt>
      <trkpt lat="43.26367" lon="-1.48929">
        <ele>333</ele>
        <time>2023-05-17T18:15:33Z</time>
      </trkpt>
      <trkpt lat="43.26352" lon="-1.48946">
        <ele>335</ele>
        <time>2023-05-17T18:15:37Z</time>
      </trkpt>
      <trkpt lat="43.26342" lon="-1.48953">
        <ele>336</ele>
        <time>2023-05-17T18:15:39Z</time>
      </trkpt>
      <trkpt lat="43.2632" lon="-1.4896">
        <ele>337</ele>
        <time>2023-05-17T18:15:43Z</time>
      </trkpt>
      <trkpt lat="43.26309" lon="-1.48958">
        <ele>337</ele>
        <time>2023-05-17T18:15:45Z</time>
      </trkpt>
      <trkpt lat="43.26288" lon="-1.48948">
        <ele>338</ele>
        <time>2023-05-17T18:15:49Z</time>
      </trkpt>
      <trkpt lat="43.2622" lon="-1.48884">
        <ele>351</ele>
        <time>2023-05-17T18:16:03Z</time>
      </trkpt>
      <trkpt lat="43.26193" lon="-1.4887">
        <ele>355</ele>
        <time>2023-05-17T18:16:08Z</time>
      </trkpt>
      <trkpt lat="43.26158" lon="-1.48866">
        <ele>357</ele>
        <time>2023-05-17T18:16:15Z</time>
      </trkpt>
      <trkpt lat="43.26014" lon="-1.4887">
        <ele>361</ele>
        <time>2023-05-17T18:16:40Z</time>
      </trkpt>
      <trkpt lat="43.2599" lon="-1.48867">
        <ele>361</ele>
        <time>2023-05-17T18:16:45Z</time>
      </trkpt>
      <trkpt lat="43.2597" lon="-1.48857">
        <ele>361</ele>
        <time>2023-05-17T18:16:48Z</time>
      </trkpt>
      <trkpt lat="43.25955" lon="-1.48839">
        <ele>364</ele>
        <time>2023-05-17T18:16:52Z</time>
      </trkpt>
      <trkpt lat="43.25943" lon="-1.48813">
        <ele>368</ele>
        <time>2023-05-17T18:16:56Z</time>
      </trkpt>
      <trkpt lat="43.25927" lon="-1.48761">
        <ele>374</ele>
        <time>2023-05-17T18:17:03Z</time>
      </trkpt>
      <trkpt lat="43.25906" lon="-1.48666">
        <ele>383</ele>
        <time>2023-05-17T18:17:16Z</time>
      </trkpt>
      <trkpt lat="43.25902" lon="-1.48657">
        <ele>384</ele>
        <time>2023-05-17T18:17:17Z</time>
      </trkpt>
      <trkpt lat="43.25889" lon="-1.48641">
        <ele>386</ele>
        <time>2023-05-17T18:17:21Z</time>
      </trkpt>
      <trkpt lat="43.2588" lon="-1.48633">
        <ele>386</ele>
        <time>2023-05-17T18:17:22Z</time>
      </trkpt>
      <trkpt lat="43.25868" lon="-1.48628">
        <ele>386</ele>
        <time>2023-05-17T18:17:25Z</time>
      </trkpt>
      <trkpt lat="43.25791" lon="-1.48611">
        <ele>385</ele>
        <time>2023-05-17T18:17:39Z</time>
      </trkpt>
      <trkpt lat="43.25737" lon="-1.48591">
        <ele>390</ele>
        <time>2023-05-17T18:17:49Z</time>
      </trkpt>
      <trkpt lat="43.25708" lon="-1.48573">
        <ele>390</ele>
        <time>2023-05-17T18:17:54Z</time>
      </trkpt>
      <trkpt lat="43.25693" lon="-1.4856">
        <ele>391</ele>
        <time>2023-05-17T18:17:57Z</time>
      </trkpt>
      <trkpt lat="43.25631" lon="-1.48497">
        <ele>400</ele>
        <time>2023-05-17T18:18:11Z</time>
      </trkpt>
      <trkpt lat="43.25615" lon="-1.48485">
        <ele>399</ele>
        <time>2023-05-17T18:18:14Z</time>
      </trkpt>
      <trkpt lat="43.25537" lon="-1.48441">
        <ele>406</ele>
        <time>2023-05-17T18:18:29Z</time>
      </trkpt>
      <trkpt lat="43.25493" lon="-1.48421">
        <ele>412</ele>
        <time>2023-05-17T18:18:38Z</time>
      </trkpt>
      <trkpt lat="43.2539" lon="-1.4839">
        <ele>417</ele>
        <time>2023-05-17T18:18:56Z</time>
      </trkpt>
      <trkpt lat="43.25366" lon="-1.48374">
        <ele>420</ele>
        <time>2023-05-17T18:19:01Z</time>
      </trkpt>
      <trkpt lat="43.25316" lon="-1.48328">
        <ele>432</ele>
        <time>2023-05-17T18:19:12Z</time>
      </trkpt>
      <trkpt lat="43.25305" lon="-1.48321">
        <ele>433</ele>
        <time>2023-05-17T18:19:14Z</time>
      </trkpt>
      <trkpt lat="43.25281" lon="-1.48313">
        <ele>436</ele>
        <time>2023-05-17T18:19:18Z</time>
      </trkpt>
      <trkpt lat="43.25253" lon="-1.48312">
        <ele>438</ele>
        <time>2023-05-17T18:19:23Z</time>
      </trkpt>
      <trkpt lat="43.2522" lon="-1.48318">
        <ele>441</ele>
        <time>2023-05-17T18:19:29Z</time>
      </trkpt>
      <trkpt lat="43.25143" lon="-1.48347">
        <ele>439</ele>
        <time>2023-05-17T18:19:43Z</time>
      </trkpt>
      <trkpt lat="43.25114" lon="-1.48349">
        <ele>439</ele>
        <time>2023-05-17T18:19:49Z</time>
      </trkpt>
      <trkpt lat="43.25087" lon="-1.48343">
        <ele>442</ele>
        <time>2023-05-17T18:19:53Z</time>
      </trkpt>
      <trkpt lat="43.25061" lon="-1.48331">
        <ele>445</ele>
        <time>2023-05-17T18:19:58Z</time>
      </trkpt>
      <trkpt lat="43.25022" lon="-1.48302">
        <ele>454</ele>
        <time>2023-05-17T18:20:06Z</time>
      </trkpt>
      <trkpt lat="43.24998" lon="-1.48289">
        <ele>460</ele>
        <time>2023-05-17T18:20:11Z</time>
      </trkpt>
      <trkpt lat="43.24987" lon="-1.48284">
        <ele>465</ele>
        <time>2023-05-17T18:20:13Z</time>
      </trkpt>
      <trkpt lat="43.2497" lon="-1.48283">
        <ele>468</ele>
        <time>2023-05-17T18:20:16Z</time>
      </trkpt>
      <trkpt lat="43.24955" lon="-1.48289">
        <ele>469</ele>
        <time>2023-05-17T18:20:19Z</time>
      </trkpt>
      <trkpt lat="43.24922" lon="-1.48331">
        <ele>459</ele>
        <time>2023-05-17T18:20:27Z</time>
      </trkpt>
      <trkpt lat="43.24905" lon="-1.48339">
        <ele>456</ele>
        <time>2023-05-17T18:20:30Z</time>
      </trkpt>
      <trkpt lat="43.24882" lon="-1.48339">
        <ele>455</ele>
        <time>2023-05-17T18:20:34Z</time>
      </trkpt>
      <trkpt lat="43.24861" lon="-1.48334">
        <ele>457</ele>
        <time>2023-05-17T18:20:38Z</time>
      </trkpt>
      <trkpt lat="43.24819" lon="-1.48319">
        <ele>462</ele>
        <time>2023-05-17T18:20:46Z</time>
      </trkpt>
      <trkpt lat="43.24711" lon="-1.48276">
        <ele>472</ele>
        <time>2023-05-17T18:21:06Z</time>
      </trkpt>
      <trkpt lat="43.2459" lon="-1.48238">
        <ele>479</ele>
        <time>2023-05-17T18:21:28Z</time>
      </trkpt>
      <trkpt lat="43.24527" lon="-1.48214">
        <ele>477</ele>
        <time>2023-05-17T18:21:39Z</time>
      </trkpt>
      <trkpt lat="43.24503" lon="-1.48196">
        <ele>479</ele>
        <time>2023-05-17T18:21:44Z</time>
      </trkpt>
      <trkpt lat="43.24484" lon="-1.48174">
        <ele>485</ele>
        <time>2023-05-17T18:21:49Z</time>
      </trkpt>
      <trkpt lat="43.24472" lon="-1.48155">
        <ele>489</ele>
        <time>2023-05-17T18:21:52Z</time>
      </trkpt>
      <trkpt lat="43.24422" lon="-1.48043">
        <ele>501</ele>
        <time>2023-05-17T18:22:09Z</time>
      </trkpt>
      <trkpt lat="43.24404" lon="-1.48022">
        <ele>505</ele>
        <time>2023-05-17T18:22:13Z</time>
      </trkpt>
      <trkpt lat="43.24389" lon="-1.48015">
        <ele>508</ele>
        <time>2023-05-17T18:22:16Z</time>
      </trkpt>
      <trkpt lat="43.24378" lon="-1.48016">
        <ele>509</ele>
        <time>2023-05-17T18:22:18Z</time>
      </trkpt>
      <trkpt lat="43.24363" lon="-1.48025">
        <ele>509</ele>
        <time>2023-05-17T18:22:21Z</time>
      </trkpt>
      <trkpt lat="43.24353" lon="-1.48043">
        <ele>509</ele>
        <time>2023-05-17T18:22:24Z</time>
      </trkpt>
      <trkpt lat="43.24351" lon="-1.48101">
        <ele>503</ele>
        <time>2023-05-17T18:22:31Z</time>
      </trkpt>
      <trkpt lat="43.24346" lon="-1.48133">
        <ele>502</ele>
        <time>2023-05-17T18:22:35Z</time>
      </trkpt>
      <trkpt lat="43.24337" lon="-1.4816">
        <ele>502</ele>
        <time>2023-05-17T18:22:39Z</time>
      </trkpt>
      <trkpt lat="43.24319" lon="-1.48181">
        <ele>502</ele>
        <time>2023-05-17T18:22:43Z</time>
      </trkpt>
      <trkpt lat="43.24308" lon="-1.48188">
        <ele>502</ele>
        <time>2023-05-17T18:22:46Z</time>
      </trkpt>
      <trkpt lat="43.24294" lon="-1.48192">
        <ele>502</ele>
        <time>2023-05-17T18:22:48Z</time>
      </trkpt>
      <trkpt lat="43.24282" lon="-1.48192">
        <ele>503</ele>
        <time>2023-05-17T18:22:50Z</time>
      </trkpt>
      <trkpt lat="43.24217" lon="-1.48171">
        <ele>516</ele>
        <time>2023-05-17T18:23:02Z</time>
      </trkpt>
      <trkpt lat="43.24201" lon="-1.4817">
        <ele>518</ele>
        <time>2023-05-17T18:23:05Z</time>
      </trkpt>
      <trkpt lat="43.24191" lon="-1.48174">
        <ele>520</ele>
        <time>2023-05-17T18:23:07Z</time>
      </trkpt>
      <trkpt lat="43.24183" lon="-1.48184">
        <ele>520</ele>
        <time>2023-05-17T18:23:09Z</time>
      </trkpt>
      <trkpt lat="43.24177" lon="-1.48196">
        <ele>521</ele>
        <time>2023-05-17T18:23:11Z</time>
      </trkpt>
      <trkpt lat="43.24175" lon="-1.48212">
        <ele>520</ele>
        <time>2023-05-17T18:23:13Z</time>
      </trkpt>
      <trkpt lat="43.24173" lon="-1.48304">
        <ele>518</ele>
        <time>2023-05-17T18:23:25Z</time>
      </trkpt>
      <trkpt lat="43.24169" lon="-1.48328">
        <ele>519</ele>
        <time>2023-05-17T18:23:28Z</time>
      </trkpt>
      <trkpt lat="43.24162" lon="-1.48348">
        <ele>519</ele>
        <time>2023-05-17T18:23:31Z</time>
      </trkpt>
      <trkpt lat="43.24144" lon="-1.48376">
        <ele>518</ele>
        <time>2023-05-17T18:23:36Z</time>
      </trkpt>
      <trkpt lat="43.24132" lon="-1.48385">
        <ele>518</ele>
        <time>2023-05-17T18:23:38Z</time>
      </trkpt>
      <trkpt lat="43.24117" lon="-1.48392">
        <ele>520</ele>
        <time>2023-05-17T18:23:41Z</time>
      </trkpt>
      <trkpt lat="43.241" lon="-1.48395">
        <ele>522</ele>
        <time>2023-05-17T18:23:44Z</time>
      </trkpt>
      <trkpt lat="43.24065" lon="-1.48396">
        <ele>526</ele>
        <time>2023-05-17T18:23:50Z</time>
      </trkpt>
      <trkpt lat="43.24033" lon="-1.48387">
        <ele>531</ele>
        <time>2023-05-17T18:23:56Z</time>
      </trkpt>
      <trkpt lat="43.24005" lon="-1.48373">
        <ele>537</ele>
        <time>2023-05-17T18:24:01Z</time>
      </trkpt>
      <trkpt lat="43.23985" lon="-1.4837">
        <ele>543</ele>
        <time>2023-05-17T18:24:05Z</time>
      </trkpt>
      <trkpt lat="43.23968" lon="-1.48378">
        <ele>546</ele>
        <time>2023-05-17T18:24:08Z</time>
      </trkpt>
      <trkpt lat="43.23938" lon="-1.48405">
        <ele>549</ele>
        <time>2023-05-17T18:24:14Z</time>
      </trkpt>
      <trkpt lat="43.23922" lon="-1.48429">
        <ele>549</ele>
        <time>2023-05-17T18:24:19Z</time>
      </trkpt>
      <trkpt lat="43.23903" lon="-1.48479">
        <ele>551</ele>
        <time>2023-05-17T18:24:26Z</time>
      </trkpt>
      <trkpt lat="43.23901" lon="-1.48495">
        <ele>550</ele>
        <time>2023-05-17T18:24:28Z</time>
      </trkpt>
      <trkpt lat="43.23902" lon="-1.4851">
        <ele>548</ele>
        <time>2023-05-17T18:24:30Z</time>
      </trkpt>
      <trkpt lat="43.23912" lon="-1.48546">
        <ele>541</ele>
        <time>2023-05-17T18:24:35Z</time>
      </trkpt>
      <trkpt lat="43.23913" lon="-1.4856">
        <ele>540</ele>
        <time>2023-05-17T18:24:37Z</time>
      </trkpt>
      <trkpt lat="43.23911" lon="-1.48573">
        <ele>540</ele>
        <time>2023-05-17T18:24:39Z</time>
      </trkpt>
      <trkpt lat="43.239" lon="-1.48593">
        <ele>544</ele>
        <time>2023-05-17T18:24:42Z</time>
      </trkpt>
      <trkpt lat="43.23881" lon="-1.48612">
        <ele>552</ele>
        <time>2023-05-17T18:24:46Z</time>
      </trkpt>
      <trkpt lat="43.23869" lon="-1.48635">
        <ele>556</ele>
        <time>2023-05-17T18:24:50Z</time>
      </trkpt>
      <trkpt lat="43.23841" lon="-1.48796">
        <ele>562</ele>
        <time>2023-05-17T18:25:11Z</time>
      </trkpt>
      <trkpt lat="43.23841" lon="-1.4884">
        <ele>561</ele>
        <time>2023-05-17T18:25:17Z</time>
      </trkpt>
      <trkpt lat="43.2385" lon="-1.48881">
        <ele>553</ele>
        <time>2023-05-17T18:25:22Z</time>
      </trkpt>
      <trkpt lat="43.2385" lon="-1.48894">
        <ele>552</ele>
        <time>2023-05-17T18:25:24Z</time>
      </trkpt>
      <trkpt lat="43.23844" lon="-1.48918">
        <ele>553</ele>
        <time>2023-05-17T18:25:27Z</time>
      </trkpt>
      <trkpt lat="43.23828" lon="-1.48942">
        <ele>555</ele>
        <time>2023-05-17T18:25:32Z</time>
      </trkpt>
      <trkpt lat="43.23818" lon="-1.48952">
        <ele>558</ele>
        <time>2023-05-17T18:25:34Z</time>
      </trkpt>
      <trkpt lat="43.23763" lon="-1.48991">
        <ele>574</ele>
        <time>2023-05-17T18:25:45Z</time>
      </trkpt>
      <trkpt lat="43.2375" lon="-1.4901">
        <ele>576</ele>
        <time>2023-05-17T18:25:48Z</time>
      </trkpt>
      <trkpt lat="43.23747" lon="-1.49023">
        <ele>577</ele>
        <time>2023-05-17T18:25:50Z</time>
      </trkpt>
      <trkpt lat="43.23749" lon="-1.49089">
        <ele>571</ele>
        <time>2023-05-17T18:25:58Z</time>
      </trkpt>
      <trkpt lat="43.2376" lon="-1.49188">
        <ele>563</ele>
        <time>2023-05-17T18:26:11Z</time>
      </trkpt>
      <trkpt lat="43.23755" lon="-1.49216">
        <ele>564</ele>
        <time>2023-05-17T18:26:15Z</time>
      </trkpt>
      <trkpt lat="43.23737" lon="-1.49278">
        <ele>568</ele>
        <time>2023-05-17T18:26:24Z</time>
      </trkpt>
      <trkpt lat="43.23727" lon="-1.4937">
        <ele>568</ele>
        <time>2023-05-17T18:26:36Z</time>
      </trkpt>
      <trkpt lat="43.23723" lon="-1.49383">
        <ele>568</ele>
        <time>2023-05-17T18:26:38Z</time>
      </trkpt>
      <trkpt lat="43.23712" lon="-1.49401">
        <ele>569</ele>
        <time>2023-05-17T18:26:41Z</time>
      </trkpt>
      <trkpt lat="43.23697" lon="-1.49413">
        <ele>572</ele>
        <time>2023-05-17T18:26:44Z</time>
      </trkpt>
      <trkpt lat="43.23686" lon="-1.49417">
        <ele>574</ele>
        <time>2023-05-17T18:26:46Z</time>
      </trkpt>
      <trkpt lat="43.23646" lon="-1.49416">
        <ele>573</ele>
        <time>2023-05-17T18:26:53Z</time>
      </trkpt>
      <trkpt lat="43.23622" lon="-1.49421">
        <ele>569</ele>
        <time>2023-05-17T18:26:57Z</time>
      </trkpt>
      <trkpt lat="43.23613" lon="-1.49427">
        <ele>567</ele>
        <time>2023-05-17T18:26:59Z</time>
      </trkpt>
      <trkpt lat="43.23597" lon="-1.49445">
        <ele>565</ele>
        <time>2023-05-17T18:27:03Z</time>
      </trkpt>
      <trkpt lat="43.23586" lon="-1.49466">
        <ele>565</ele>
        <time>2023-05-17T18:27:06Z</time>
      </trkpt>
      <trkpt lat="43.23565" lon="-1.49546">
        <ele>566</ele>
        <time>2023-05-17T18:27:17Z</time>
      </trkpt>
      <trkpt lat="43.23559" lon="-1.49581">
        <ele>568</ele>
        <time>2023-05-17T18:27:22Z</time>
      </trkpt>
      <trkpt lat="43.23553" lon="-1.49663">
        <ele>568</ele>
        <time>2023-05-17T18:27:33Z</time>
      </trkpt>
      <trkpt lat="43.23549" lon="-1.4968">
        <ele>569</ele>
        <time>2023-05-17T18:27:35Z</time>
      </trkpt>
      <trkpt lat="43.23538" lon="-1.49713">
        <ele>571</ele>
        <time>2023-05-17T18:27:40Z</time>
      </trkpt>
      <trkpt lat="43.23529" lon="-1.49725">
        <ele>571</ele>
        <time>2023-05-17T18:27:42Z</time>
      </trkpt>
      <trkpt lat="43.235" lon="-1.49752">
        <ele>568</ele>
        <time>2023-05-17T18:27:48Z</time>
      </trkpt>
      <trkpt lat="43.23462" lon="-1.49769">
        <ele>562</ele>
        <time>2023-05-17T18:27:55Z</time>
      </trkpt>
      <trkpt lat="43.2332" lon="-1.49809">
        <ele>549</ele>
        <time>2023-05-17T18:28:21Z</time>
      </trkpt>
      <trkpt lat="43.2328" lon="-1.49814">
        <ele>550</ele>
        <time>2023-05-17T18:28:28Z</time>
      </trkpt>
      <trkpt lat="43.23259" lon="-1.49809">
        <ele>550</ele>
        <time>2023-05-17T18:28:32Z</time>
      </trkpt>
      <trkpt lat="43.23234" lon="-1.49797">
        <ele>549</ele>
        <time>2023-05-17T18:28:37Z</time>
      </trkpt>
      <trkpt lat="43.2317" lon="-1.49743">
        <ele>544</ele>
        <time>2023-05-17T18:28:50Z</time>
      </trkpt>
      <trkpt lat="43.23133" lon="-1.49722">
        <ele>539</ele>
        <time>2023-05-17T18:28:57Z</time>
      </trkpt>
      <trkpt lat="43.23119" lon="-1.49717">
        <ele>538</ele>
        <time>2023-05-17T18:29:00Z</time>
      </trkpt>
      <trkpt lat="43.23073" lon="-1.49709">
        <ele>537</ele>
        <time>2023-05-17T18:29:08Z</time>
      </trkpt>
      <trkpt lat="43.22996" lon="-1.49703">
        <ele>530</ele>
        <time>2023-05-17T18:29:22Z</time>
      </trkpt>
      <trkpt lat="43.2297" lon="-1.49708">
        <ele>526</ele>
        <time>2023-05-17T18:29:26Z</time>
      </trkpt>
      <trkpt lat="43.22951" lon="-1.4972">
        <ele>524</ele>
        <time>2023-05-17T18:29:30Z</time>
      </trkpt>
      <trkpt lat="43.22937" lon="-1.49739">
        <ele>524</ele>
        <time>2023-05-17T18:29:34Z</time>
      </trkpt>
      <trkpt lat="43.22921" lon="-1.49778">
        <ele>525</ele>
        <time>2023-05-17T18:29:39Z</time>
      </trkpt>
      <trkpt lat="43.22905" lon="-1.49828">
        <ele>526</ele>
        <time>2023-05-17T18:29:46Z</time>
      </trkpt>
      <trkpt lat="43.22909" lon="-1.4991">
        <ele>542</ele>
        <time>2023-05-17T18:29:57Z</time>
      </trkpt>
      <trkpt lat="43.22905" lon="-1.49828">
        <ele>526</ele>
        <time>2023-05-17T18:30:08Z</time>
      </trkpt>
      <trkpt lat="43.22888" lon="-1.49863">
        <ele>528</ele>
        <time>2023-05-17T18:30:13Z</time>
      </trkpt>
      <trkpt lat="43.2288" lon="-1.49872">
        <ele>527</ele>
        <time>2023-05-17T18:30:15Z</time>
      </trkpt>
      <trkpt lat="43.22861" lon="-1.49886">
        <ele>524</ele>
        <time>2023-05-17T18:30:19Z</time>
      </trkpt>
      <trkpt lat="43.22849" lon="-1.4989">
        <ele>522</ele>
        <time>2023-05-17T18:30:21Z</time>
      </trkpt>
      <trkpt lat="43.22798" lon="-1.49892">
        <ele>515</ele>
        <time>2023-05-17T18:30:30Z</time>
      </trkpt>
      <trkpt lat="43.2268" lon="-1.49889">
        <ele>506</ele>
        <time>2023-05-17T18:30:51Z</time>
      </trkpt>
      <trkpt lat="43.22647" lon="-1.49882">
        <ele>507</ele>
        <time>2023-05-17T18:30:57Z</time>
      </trkpt>
      <trkpt lat="43.22629" lon="-1.49872">
        <ele>507</ele>
        <time>2023-05-17T18:31:01Z</time>
      </trkpt>
      <trkpt lat="43.22542" lon="-1.49799">
        <ele>500</ele>
        <time>2023-05-17T18:31:19Z</time>
      </trkpt>
      <trkpt lat="43.22534" lon="-1.49786">
        <ele>499</ele>
        <time>2023-05-17T18:31:21Z</time>
      </trkpt>
      <trkpt lat="43.22524" lon="-1.49757">
        <ele>496</ele>
        <time>2023-05-17T18:31:25Z</time>
      </trkpt>
      <trkpt lat="43.22523" lon="-1.49727">
        <ele>495</ele>
        <time>2023-05-17T18:31:29Z</time>
      </trkpt>
      <trkpt lat="43.22549" lon="-1.4956">
        <ele>487</ele>
        <time>2023-05-17T18:31:51Z</time>
      </trkpt>
      <trkpt lat="43.22578" lon="-1.49325">
        <ele>480</ele>
        <time>2023-05-17T18:32:22Z</time>
      </trkpt>
      <trkpt lat="43.22577" lon="-1.49293">
        <ele>478</ele>
        <time>2023-05-17T18:32:26Z</time>
      </trkpt>
      <trkpt lat="43.22552" lon="-1.49208">
        <ele>473</ele>
        <time>2023-05-17T18:32:38Z</time>
      </trkpt>
      <trkpt lat="43.22533" lon="-1.49163">
        <ele>470</ele>
        <time>2023-05-17T18:32:45Z</time>
      </trkpt>
      <trkpt lat="43.22524" lon="-1.49147">
        <ele>469</ele>
        <time>2023-05-17T18:32:47Z</time>
      </trkpt>
      <trkpt lat="43.22508" lon="-1.49129">
        <ele>468</ele>
        <time>2023-05-17T18:32:51Z</time>
      </trkpt>
      <trkpt lat="43.22489" lon="-1.49118">
        <ele>468</ele>
        <time>2023-05-17T18:32:55Z</time>
      </trkpt>
      <trkpt lat="43.22476" lon="-1.49114">
        <ele>467</ele>
        <time>2023-05-17T18:32:57Z</time>
      </trkpt>
      <trkpt lat="43.22308" lon="-1.49091">
        <ele>454</ele>
        <time>2023-05-17T18:33:27Z</time>
      </trkpt>
      <trkpt lat="43.22294" lon="-1.49088">
        <ele>453</ele>
        <time>2023-05-17T18:33:30Z</time>
      </trkpt>
      <trkpt lat="43.22273" lon="-1.49077">
        <ele>453</ele>
        <time>2023-05-17T18:33:34Z</time>
      </trkpt>
      <trkpt lat="43.2226" lon="-1.49062">
        <ele>452</ele>
        <time>2023-05-17T18:33:37Z</time>
      </trkpt>
      <trkpt lat="43.22248" lon="-1.49038">
        <ele>450</ele>
        <time>2023-05-17T18:33:40Z</time>
      </trkpt>
      <trkpt lat="43.22244" lon="-1.4902">
        <ele>449</ele>
        <time>2023-05-17T18:33:43Z</time>
      </trkpt>
      <trkpt lat="43.22237" lon="-1.48941">
        <ele>440</ele>
        <time>2023-05-17T18:33:53Z</time>
      </trkpt>
      <trkpt lat="43.22234" lon="-1.48924">
        <ele>438</ele>
        <time>2023-05-17T18:33:55Z</time>
      </trkpt>
      <trkpt lat="43.22226" lon="-1.489">
        <ele>434</ele>
        <time>2023-05-17T18:33:59Z</time>
      </trkpt>
      <trkpt lat="43.22211" lon="-1.48876">
        <ele>430</ele>
        <time>2023-05-17T18:34:03Z</time>
      </trkpt>
      <trkpt lat="43.22199" lon="-1.48864">
        <ele>428</ele>
        <time>2023-05-17T18:34:06Z</time>
      </trkpt>
      <trkpt lat="43.22179" lon="-1.48854">
        <ele>427</ele>
        <time>2023-05-17T18:34:09Z</time>
      </trkpt>
      <trkpt lat="43.22156" lon="-1.48853">
        <ele>426</ele>
        <time>2023-05-17T18:34:13Z</time>
      </trkpt>
      <trkpt lat="43.22135" lon="-1.48862">
        <ele>424</ele>
        <time>2023-05-17T18:34:17Z</time>
      </trkpt>
      <trkpt lat="43.22116" lon="-1.48876">
        <ele>422</ele>
        <time>2023-05-17T18:34:21Z</time>
      </trkpt>
      <trkpt lat="43.22102" lon="-1.48892">
        <ele>422</ele>
        <time>2023-05-17T18:34:24Z</time>
      </trkpt>
      <trkpt lat="43.22092" lon="-1.48915">
        <ele>423</ele>
        <time>2023-05-17T18:34:28Z</time>
      </trkpt>
      <trkpt lat="43.22079" lon="-1.48967">
        <ele>423</ele>
        <time>2023-05-17T18:34:35Z</time>
      </trkpt>
      <trkpt lat="43.22066" lon="-1.49007">
        <ele>423</ele>
        <time>2023-05-17T18:34:41Z</time>
      </trkpt>
      <trkpt lat="43.22046" lon="-1.49039">
        <ele>422</ele>
        <time>2023-05-17T18:34:46Z</time>
      </trkpt>
      <trkpt lat="43.22035" lon="-1.49051">
        <ele>420</ele>
        <time>2023-05-17T18:34:49Z</time>
      </trkpt>
      <trkpt lat="43.22002" lon="-1.49078">
        <ele>416</ele>
        <time>2023-05-17T18:34:56Z</time>
      </trkpt>
      <trkpt lat="43.21981" lon="-1.49091">
        <ele>415</ele>
        <time>2023-05-17T18:35:00Z</time>
      </trkpt>
      <trkpt lat="43.21936" lon="-1.49105">
        <ele>410</ele>
        <time>2023-05-17T18:35:08Z</time>
      </trkpt>
      <trkpt lat="43.21909" lon="-1.49119">
        <ele>407</ele>
        <time>2023-05-17T18:35:13Z</time>
      </trkpt>
      <trkpt lat="43.21892" lon="-1.49137">
        <ele>405</ele>
        <time>2023-05-17T18:35:17Z</time>
      </trkpt>
      <trkpt lat="43.21856" lon="-1.49203">
        <ele>402</ele>
        <time>2023-05-17T18:35:28Z</time>
      </trkpt>
      <trkpt lat="43.21839" lon="-1.49229">
        <ele>399</ele>
        <time>2023-05-17T18:35:32Z</time>
      </trkpt>
      <trkpt lat="43.21819" lon="-1.49244">
        <ele>398</ele>
        <time>2023-05-17T18:35:36Z</time>
      </trkpt>
      <trkpt lat="43.2179" lon="-1.49248">
        <ele>399</ele>
        <time>2023-05-17T18:35:41Z</time>
      </trkpt>
      <trkpt lat="43.21769" lon="-1.49242">
        <ele>398</ele>
        <time>2023-05-17T18:35:45Z</time>
      </trkpt>
      <trkpt lat="43.21758" lon="-1.49235">
        <ele>397</ele>
        <time>2023-05-17T18:35:47Z</time>
      </trkpt>
      <trkpt lat="43.21629" lon="-1.49116">
        <ele>398</ele>
        <time>2023-05-17T18:36:15Z</time>
      </trkpt>
      <trkpt lat="43.21603" lon="-1.49101">
        <ele>397</ele>
        <time>2023-05-17T18:36:20Z</time>
      </trkpt>
      <trkpt lat="43.21574" lon="-1.49093">
        <ele>396</ele>
        <time>2023-05-17T18:36:25Z</time>
      </trkpt>
      <trkpt lat="43.21538" lon="-1.49091">
        <ele>396</ele>
        <time>2023-05-17T18:36:32Z</time>
      </trkpt>
      <trkpt lat="43.21507" lon="-1.49084">
        <ele>395</ele>
        <time>2023-05-17T18:36:37Z</time>
      </trkpt>
      <trkpt lat="43.21463" lon="-1.49068">
        <ele>389</ele>
        <time>2023-05-17T18:36:45Z</time>
      </trkpt>
      <trkpt lat="43.21394" lon="-1.49051">
        <ele>385</ele>
        <time>2023-05-17T18:36:58Z</time>
      </trkpt>
      <trkpt lat="43.21311" lon="-1.49024">
        <ele>380</ele>
        <time>2023-05-17T18:37:13Z</time>
      </trkpt>
      <trkpt lat="43.21051" lon="-1.48986">
        <ele>363</ele>
        <time>2023-05-17T18:37:59Z</time>
      </trkpt>
      <trkpt lat="43.20997" lon="-1.48974">
        <ele>361</ele>
        <time>2023-05-17T18:38:09Z</time>
      </trkpt>
      <trkpt lat="43.20972" lon="-1.48965">
        <ele>359</ele>
        <time>2023-05-17T18:38:14Z</time>
      </trkpt>
      <trkpt lat="43.2096" lon="-1.48958">
        <ele>357</ele>
        <time>2023-05-17T18:38:16Z</time>
      </trkpt>
      <trkpt lat="43.20705" lon="-1.4875">
        <ele>336</ele>
        <time>2023-05-17T18:39:09Z</time>
      </trkpt>
      <trkpt lat="43.20662" lon="-1.48722">
        <ele>333</ele>
        <time>2023-05-17T18:39:17Z</time>
      </trkpt>
      <trkpt lat="43.2053" lon="-1.48652">
        <ele>324</ele>
        <time>2023-05-17T18:39:43Z</time>
      </trkpt>
      <trkpt lat="43.20478" lon="-1.48612">
        <ele>321</ele>
        <time>2023-05-17T18:39:53Z</time>
      </trkpt>
      <trkpt lat="43.20463" lon="-1.48602">
        <ele>320</ele>
        <time>2023-05-17T18:39:56Z</time>
      </trkpt>
      <trkpt lat="43.20436" lon="-1.48589">
        <ele>318</ele>
        <time>2023-05-17T18:40:01Z</time>
      </trkpt>
      <trkpt lat="43.20186" lon="-1.48512">
        <ele>312</ele>
        <time>2023-05-17T18:40:47Z</time>
      </trkpt>
      <trkpt lat="43.20153" lon="-1.48509">
        <ele>311</ele>
        <time>2023-05-17T18:40:53Z</time>
      </trkpt>
      <trkpt lat="43.20075" lon="-1.48509">
        <ele>307</ele>
        <time>2023-05-17T18:41:07Z</time>
      </trkpt>
      <trkpt lat="43.20024" lon="-1.48501">
        <ele>309</ele>
        <time>2023-05-17T18:41:16Z</time>
      </trkpt>
      <trkpt lat="43.19937" lon="-1.48467">
        <ele>311</ele>
        <time>2023-05-17T18:41:32Z</time>
      </trkpt>
      <trkpt lat="43.19865" lon="-1.4842">
        <ele>304</ele>
        <time>2023-05-17T18:41:46Z</time>
      </trkpt>
      <trkpt lat="43.19843" lon="-1.48408">
        <ele>303</ele>
        <time>2023-05-17T18:41:50Z</time>
      </trkpt>
      <trkpt lat="43.19796" lon="-1.48391">
        <ele>298</ele>
        <time>2023-05-17T18:41:59Z</time>
      </trkpt>
      <trkpt lat="43.1975" lon="-1.48379">
        <ele>295</ele>
        <time>2023-05-17T18:42:07Z</time>
      </trkpt>
      <trkpt lat="43.19706" lon="-1.48373">
        <ele>292</ele>
        <time>2023-05-17T18:42:15Z</time>
      </trkpt>
      <trkpt lat="43.19488" lon="-1.48364">
        <ele>284</ele>
        <time>2023-05-17T18:42:54Z</time>
      </trkpt>
      <trkpt lat="43.19455" lon="-1.48372">
        <ele>282</ele>
        <time>2023-05-17T18:43:00Z</time>
      </trkpt>
      <trkpt lat="43.19434" lon="-1.48384">
        <ele>282</ele>
        <time>2023-05-17T18:43:04Z</time>
      </trkpt>
      <trkpt lat="43.19409" lon="-1.48411">
        <ele>283</ele>
        <time>2023-05-17T18:43:10Z</time>
      </trkpt>
      <trkpt lat="43.1934" lon="-1.48549">
        <ele>275</ele>
        <time>2023-05-17T18:43:31Z</time>
      </trkpt>
      <trkpt lat="43.1932" lon="-1.48582">
        <ele>275</ele>
        <time>2023-05-17T18:43:37Z</time>
      </trkpt>
      <trkpt lat="43.19302" lon="-1.48601">
        <ele>275</ele>
        <time>2023-05-17T18:43:41Z</time>
      </trkpt>
      <trkpt lat="43.19277" lon="-1.48618">
        <ele>275</ele>
        <time>2023-05-17T18:43:46Z</time>
      </trkpt>
      <trkpt lat="43.19263" lon="-1.48624">
        <ele>275</ele>
        <time>2023-05-17T18:43:48Z</time>
      </trkpt>
      <trkpt lat="43.19113" lon="-1.48663">
        <ele>269</ele>
        <time>2023-05-17T18:44:16Z</time>
      </trkpt>
      <trkpt lat="43.19068" lon="-1.48668">
        <ele>267</ele>
        <time>2023-05-17T18:44:24Z</time>
      </trkpt>
      <trkpt lat="43.19024" lon="-1.48667">
        <ele>266</ele>
        <time>2023-05-17T18:44:31Z</time>
      </trkpt>
      <trkpt lat="43.1876" lon="-1.48639">
        <ele>266</ele>
        <time>2023-05-17T18:45:19Z</time>
      </trkpt>
      <trkpt lat="43.18649" lon="-1.48631">
        <ele>269</ele>
        <time>2023-05-17T18:45:38Z</time>
      </trkpt>
      <trkpt lat="43.18615" lon="-1.48632">
        <ele>269</ele>
        <time>2023-05-17T18:45:44Z</time>
      </trkpt>
      <trkpt lat="43.18546" lon="-1.48641">
        <ele>270</ele>
        <time>2023-05-17T18:45:57Z</time>
      </trkpt>
      <trkpt lat="43.18511" lon="-1.48649">
        <ele>270</ele>
        <time>2023-05-17T18:46:03Z</time>
      </trkpt>
      <trkpt lat="43.18484" lon="-1.4866">
        <ele>269</ele>
        <time>2023-05-17T18:46:08Z</time>
      </trkpt>
      <trkpt lat="43.18455" lon="-1.48678">
        <ele>266</ele>
        <time>2023-05-17T18:46:14Z</time>
      </trkpt>
      <trkpt lat="43.18417" lon="-1.48716">
        <ele>267</ele>
        <time>2023-05-17T18:46:22Z</time>
      </trkpt>
      <trkpt lat="43.18403" lon="-1.48736">
        <ele>267</ele>
        <time>2023-05-17T18:46:26Z</time>
      </trkpt>
      <trkpt lat="43.18371" lon="-1.48798">
        <ele>264</ele>
        <time>2023-05-17T18:46:36Z</time>
      </trkpt>
      <trkpt lat="43.18338" lon="-1.48873">
        <ele>263</ele>
        <time>2023-05-17T18:46:47Z</time>
      </trkpt>
      <trkpt lat="43.18321" lon="-1.489">
        <ele>261</ele>
        <time>2023-05-17T18:46:52Z</time>
      </trkpt>
      <trkpt lat="43.18303" lon="-1.4892">
        <ele>259</ele>
        <time>2023-05-17T18:46:56Z</time>
      </trkpt>
      <trkpt lat="43.18266" lon="-1.48944">
        <ele>256</ele>
        <time>2023-05-17T18:47:03Z</time>
      </trkpt>
      <trkpt lat="43.18071" lon="-1.49041">
        <ele>243</ele>
        <time>2023-05-17T18:47:40Z</time>
      </trkpt>
      <trkpt lat="43.18066" lon="-1.49034">
        <ele>243</ele>
        <time>2023-05-17T18:47:41Z</time>
      </trkpt>
      <trkpt lat="43.18057" lon="-1.49034">
        <ele>243</ele>
        <time>2023-05-17T18:47:43Z</time>
      </trkpt>
      <trkpt lat="43.18036" lon="-1.48929">
        <ele>244</ele>
        <time>2023-05-17T18:47:57Z</time>
      </trkpt>
      <trkpt lat="43.18012" lon="-1.48767">
        <ele>246</ele>
        <time>2023-05-17T18:48:18Z</time>
      </trkpt>
      <trkpt lat="43.18001" lon="-1.48666">
        <ele>248</ele>
        <time>2023-05-17T18:48:32Z</time>
      </trkpt>
      <trkpt lat="43.18003" lon="-1.48621">
        <ele>248</ele>
        <time>2023-05-17T18:48:37Z</time>
      </trkpt>
      <trkpt lat="43.18027" lon="-1.48532">
        <ele>249</ele>
        <time>2023-05-17T18:48:50Z</time>
      </trkpt>
      <trkpt lat="43.18042" lon="-1.4845">
        <ele>250</ele>
        <time>2023-05-17T18:49:01Z</time>
      </trkpt>
      <trkpt lat="43.18046" lon="-1.48413">
        <ele>251</ele>
        <time>2023-05-17T18:49:06Z</time>
      </trkpt>
      <trkpt lat="43.18051" lon="-1.48255">
        <ele>252</ele>
        <time>2023-05-17T18:49:26Z</time>
      </trkpt>
      <trkpt lat="43.18046" lon="-1.48214">
        <ele>252</ele>
        <time>2023-05-17T18:49:31Z</time>
      </trkpt>
      <trkpt lat="43.1801" lon="-1.48019">
        <ele>255</ele>
        <time>2023-05-17T18:49:58Z</time>
      </trkpt>
      <trkpt lat="43.17998" lon="-1.47972">
        <ele>255</ele>
        <time>2023-05-17T18:50:04Z</time>
      </trkpt>
      <trkpt lat="43.17968" lon="-1.47892">
        <ele>255</ele>
        <time>2023-05-17T18:50:16Z</time>
      </trkpt>
      <trkpt lat="43.17962" lon="-1.47862">
        <ele>256</ele>
        <time>2023-05-17T18:50:20Z</time>
      </trkpt>
      <trkpt lat="43.17964" lon="-1.47831">
        <ele>256</ele>
        <time>2023-05-17T18:50:24Z</time>
      </trkpt>
      <trkpt lat="43.17978" lon="-1.47776">
        <ele>260</ele>
        <time>2023-05-17T18:50:31Z</time>
      </trkpt>
      <trkpt lat="43.17995" lon="-1.47731">
        <ele>263</ele>
        <time>2023-05-17T18:50:38Z</time>
      </trkpt>
      <trkpt lat="43.18003" lon="-1.47731">
        <ele>264</ele>
        <time>2023-05-17T18:50:39Z</time>
      </trkpt>
      <trkpt lat="43.18008" lon="-1.47724">
        <ele>264</ele>
        <time>2023-05-17T18:50:41Z</time>
      </trkpt>
      <trkpt lat="43.18009" lon="-1.47715">
        <ele>264</ele>
        <time>2023-05-17T18:50:42Z</time>
      </trkpt>
      <trkpt lat="43.18006" lon="-1.47708">
        <ele>264</ele>
        <time>2023-05-17T18:50:43Z</time>
      </trkpt>
      <trkpt lat="43.18057" lon="-1.47606">
        <ele>264</ele>
        <time>2023-05-17T18:50:59Z</time>
      </trkpt>
      <trkpt lat="43.18073" lon="-1.47564">
        <ele>265</ele>
        <time>2023-05-17T18:51:05Z</time>
      </trkpt>
      <trkpt lat="43.18181" lon="-1.47254">
        <ele>268</ele>
        <time>2023-05-17T18:51:50Z</time>
      </trkpt>
      <trkpt lat="43.18226" lon="-1.47144">
        <ele>270</ele>
        <time>2023-05-17T18:52:06Z</time>
      </trkpt>
      <trkpt lat="43.18254" lon="-1.47095">
        <ele>272</ele>
        <time>2023-05-17T18:52:14Z</time>
      </trkpt>
      <trkpt lat="43.18283" lon="-1.47022">
        <ele>275</ele>
        <time>2023-05-17T18:52:25Z</time>
      </trkpt>
      <trkpt lat="43.18325" lon="-1.46933">
        <ele>276</ele>
        <time>2023-05-17T18:52:39Z</time>
      </trkpt>
      <trkpt lat="43.18406" lon="-1.46713">
        <ele>290</ele>
        <time>2023-05-17T18:53:11Z</time>
      </trkpt>
      <trkpt lat="43.18421" lon="-1.46619">
        <ele>288</ele>
        <time>2023-05-17T18:53:23Z</time>
      </trkpt>
      <trkpt lat="43.18421" lon="-1.4659">
        <ele>287</ele>
        <time>2023-05-17T18:53:27Z</time>
      </trkpt>
      <trkpt lat="43.18418" lon="-1.46566">
        <ele>286</ele>
        <time>2023-05-17T18:53:30Z</time>
      </trkpt>
      <trkpt lat="43.1839" lon="-1.46398">
        <ele>282</ele>
        <time>2023-05-17T18:53:52Z</time>
      </trkpt>
      <trkpt lat="43.18388" lon="-1.46349">
        <ele>283</ele>
        <time>2023-05-17T18:53:59Z</time>
      </trkpt>
      <trkpt lat="43.18395" lon="-1.46277">
        <ele>284</ele>
        <time>2023-05-17T18:54:08Z</time>
      </trkpt>
      <trkpt lat="43.18394" lon="-1.46256">
        <ele>285</ele>
        <time>2023-05-17T18:54:11Z</time>
      </trkpt>
      <trkpt lat="43.18376" lon="-1.46164">
        <ele>287</ele>
        <time>2023-05-17T18:54:23Z</time>
      </trkpt>
      <trkpt lat="43.18365" lon="-1.46089">
        <ele>286</ele>
        <time>2023-05-17T18:54:33Z</time>
      </trkpt>
      <trkpt lat="43.18359" lon="-1.4595">
        <ele>287</ele>
        <time>2023-05-17T18:54:51Z</time>
      </trkpt>
      <trkpt lat="43.18354" lon="-1.45924">
        <ele>286</ele>
        <time>2023-05-17T18:54:55Z</time>
      </trkpt>
      <trkpt lat="43.18344" lon="-1.45905">
        <ele>285</ele>
        <time>2023-05-17T18:54:58Z</time>
      </trkpt>
      <trkpt lat="43.18309" lon="-1.45862">
        <ele>285</ele>
        <time>2023-05-17T18:55:06Z</time>
      </trkpt>
      <trkpt lat="43.18278" lon="-1.45832">
        <ele>286</ele>
        <time>2023-05-17T18:55:13Z</time>
      </trkpt>
      <trkpt lat="43.18256" lon="-1.45816">
        <ele>286</ele>
        <time>2023-05-17T18:55:17Z</time>
      </trkpt>
      <trkpt lat="43.1821" lon="-1.45789">
        <ele>287</ele>
        <time>2023-05-17T18:55:26Z</time>
      </trkpt>
      <trkpt lat="43.1818" lon="-1.45756">
        <ele>289</ele>
        <time>2023-05-17T18:55:33Z</time>
      </trkpt>
      <trkpt lat="43.18146" lon="-1.45685">
        <ele>291</ele>
        <time>2023-05-17T18:55:44Z</time>
      </trkpt>
      <trkpt lat="43.18109" lon="-1.45629">
        <ele>293</ele>
        <time>2023-05-17T18:55:54Z</time>
      </trkpt>
      <trkpt lat="43.181" lon="-1.45605">
        <ele>293</ele>
        <time>2023-05-17T18:55:57Z</time>
      </trkpt>
      <trkpt lat="43.18092" lon="-1.45564">
        <ele>294</ele>
        <time>2023-05-17T18:56:03Z</time>
      </trkpt>
      <trkpt lat="43.18084" lon="-1.45553">
        <ele>294</ele>
        <time>2023-05-17T18:56:05Z</time>
      </trkpt>
      <trkpt lat="43.18066" lon="-1.45541">
        <ele>294</ele>
        <time>2023-05-17T18:56:08Z</time>
      </trkpt>
      <trkpt lat="43.18059" lon="-1.45533">
        <ele>294</ele>
        <time>2023-05-17T18:56:10Z</time>
      </trkpt>
      <trkpt lat="43.18056" lon="-1.45522">
        <ele>294</ele>
        <time>2023-05-17T18:56:12Z</time>
      </trkpt>
      <trkpt lat="43.18056" lon="-1.45481">
        <ele>294</ele>
        <time>2023-05-17T18:56:17Z</time>
      </trkpt>
      <trkpt lat="43.18035" lon="-1.45414">
        <ele>294</ele>
        <time>2023-05-17T18:56:26Z</time>
      </trkpt>
      <trkpt lat="43.1803" lon="-1.45388">
        <ele>294</ele>
        <time>2023-05-17T18:56:30Z</time>
      </trkpt>
      <trkpt lat="43.1803" lon="-1.45378">
        <ele>294</ele>
        <time>2023-05-17T18:56:31Z</time>
      </trkpt>
      <trkpt lat="43.18036" lon="-1.45352">
        <ele>294</ele>
        <time>2023-05-17T18:56:35Z</time>
      </trkpt>
      <trkpt lat="43.18077" lon="-1.45196">
        <ele>297</ele>
        <time>2023-05-17T18:56:56Z</time>
      </trkpt>
      <trkpt lat="43.1809" lon="-1.45108">
        <ele>300</ele>
        <time>2023-05-17T18:57:08Z</time>
      </trkpt>
      <trkpt lat="43.18092" lon="-1.45079">
        <ele>302</ele>
        <time>2023-05-17T18:57:12Z</time>
      </trkpt>
      <trkpt lat="43.18087" lon="-1.44894">
        <ele>313</ele>
        <time>2023-05-17T18:57:36Z</time>
      </trkpt>
      <trkpt lat="43.18083" lon="-1.44853">
        <ele>315</ele>
        <time>2023-05-17T18:57:41Z</time>
      </trkpt>
      <trkpt lat="43.18043" lon="-1.44678">
        <ele>335</ele>
        <time>2023-05-17T18:58:05Z</time>
      </trkpt>
      <trkpt lat="43.18033" lon="-1.44638">
        <ele>337</ele>
        <time>2023-05-17T18:58:10Z</time>
      </trkpt>
      <trkpt lat="43.18021" lon="-1.44603">
        <ele>338</ele>
        <time>2023-05-17T18:58:15Z</time>
      </trkpt>
      <trkpt lat="43.18018" lon="-1.44576">
        <ele>339</ele>
        <time>2023-05-17T18:58:19Z</time>
      </trkpt>
      <trkpt lat="43.1802" lon="-1.44561">
        <ele>339</ele>
        <time>2023-05-17T18:58:21Z</time>
      </trkpt>
      <trkpt lat="43.18028" lon="-1.44543">
        <ele>337</ele>
        <time>2023-05-17T18:58:24Z</time>
      </trkpt>
      <trkpt lat="43.18136" lon="-1.44393">
        <ele>326</ele>
        <time>2023-05-17T18:58:51Z</time>
      </trkpt>
      <trkpt lat="43.18153" lon="-1.44366">
        <ele>325</ele>
        <time>2023-05-17T18:58:56Z</time>
      </trkpt>
      <trkpt lat="43.18163" lon="-1.44343">
        <ele>324</ele>
        <time>2023-05-17T18:58:59Z</time>
      </trkpt>
      <trkpt lat="43.18168" lon="-1.44317">
        <ele>324</ele>
        <time>2023-05-17T18:59:02Z</time>
      </trkpt>
      <trkpt lat="43.18183" lon="-1.4409">
        <ele>330</ele>
        <time>2023-05-17T18:59:32Z</time>
      </trkpt>
      <trkpt lat="43.1818" lon="-1.4404">
        <ele>332</ele>
        <time>2023-05-17T18:59:39Z</time>
      </trkpt>
      <trkpt lat="43.18125" lon="-1.43913">
        <ele>328</ele>
        <time>2023-05-17T18:59:58Z</time>
      </trkpt>
      <trkpt lat="43.18116" lon="-1.43864">
        <ele>329</ele>
        <time>2023-05-17T19:00:04Z</time>
      </trkpt>
      <trkpt lat="43.18118" lon="-1.43758">
        <ele>332</ele>
        <time>2023-05-17T19:00:18Z</time>
      </trkpt>
      <trkpt lat="43.18141" lon="-1.43599">
        <ele>330</ele>
        <time>2023-05-17T19:00:39Z</time>
      </trkpt>
      <trkpt lat="43.18151" lon="-1.43313">
        <ele>337</ele>
        <time>2023-05-17T19:01:16Z</time>
      </trkpt>
      <trkpt lat="43.18151" lon="-1.43247">
        <ele>342</ele>
        <time>2023-05-17T19:01:25Z</time>
      </trkpt>
      <trkpt lat="43.18146" lon="-1.43216">
        <ele>342</ele>
        <time>2023-05-17T19:01:29Z</time>
      </trkpt>
      <trkpt lat="43.18123" lon="-1.43137">
        <ele>341</ele>
        <time>2023-05-17T19:01:40Z</time>
      </trkpt>
      <trkpt lat="43.18113" lon="-1.43094">
        <ele>342</ele>
        <time>2023-05-17T19:01:46Z</time>
      </trkpt>
      <trkpt lat="43.18109" lon="-1.43047">
        <ele>343</ele>
        <time>2023-05-17T19:01:52Z</time>
      </trkpt>
      <trkpt lat="43.1811" lon="-1.43011">
        <ele>345</ele>
        <time>2023-05-17T19:01:57Z</time>
      </trkpt>
      <trkpt lat="43.18118" lon="-1.42962">
        <ele>348</ele>
        <time>2023-05-17T19:02:03Z</time>
      </trkpt>
      <trkpt lat="43.18126" lon="-1.42941">
        <ele>349</ele>
        <time>2023-05-17T19:02:06Z</time>
      </trkpt>
      <trkpt lat="43.18151" lon="-1.42908">
        <ele>351</ele>
        <time>2023-05-17T19:02:12Z</time>
      </trkpt>
      <trkpt lat="43.182" lon="-1.42866">
        <ele>362</ele>
        <time>2023-05-17T19:02:23Z</time>
      </trkpt>
      <trkpt lat="43.18251" lon="-1.42808">
        <ele>368</ele>
        <time>2023-05-17T19:02:34Z</time>
      </trkpt>
      <trkpt lat="43.18263" lon="-1.4279">
        <ele>373</ele>
        <time>2023-05-17T19:02:38Z</time>
      </trkpt>
      <trkpt lat="43.18281" lon="-1.42754">
        <ele>379</ele>
        <time>2023-05-17T19:02:43Z</time>
      </trkpt>
      <trkpt lat="43.18285" lon="-1.42739">
        <ele>380</ele>
        <time>2023-05-17T19:02:45Z</time>
      </trkpt>
      <trkpt lat="43.18288" lon="-1.42709">
        <ele>379</ele>
        <time>2023-05-17T19:02:49Z</time>
      </trkpt>
      <trkpt lat="43.18286" lon="-1.42695">
        <ele>377</ele>
        <time>2023-05-17T19:02:51Z</time>
      </trkpt>
      <trkpt lat="43.18279" lon="-1.42675">
        <ele>373</ele>
        <time>2023-05-17T19:02:54Z</time>
      </trkpt>
      <trkpt lat="43.1822" lon="-1.42571">
        <ele>369</ele>
        <time>2023-05-17T19:03:11Z</time>
      </trkpt>
      <trkpt lat="43.18149" lon="-1.42427">
        <ele>374</ele>
        <time>2023-05-17T19:03:34Z</time>
      </trkpt>
      <trkpt lat="43.18077" lon="-1.42296">
        <ele>385</ele>
        <time>2023-05-17T19:03:55Z</time>
      </trkpt>
      <trkpt lat="43.18067" lon="-1.42276">
        <ele>388</ele>
        <time>2023-05-17T19:03:58Z</time>
      </trkpt>
      <trkpt lat="43.18062" lon="-1.42259">
        <ele>390</ele>
        <time>2023-05-17T19:04:00Z</time>
      </trkpt>
      <trkpt lat="43.18063" lon="-1.42249">
        <ele>391</ele>
        <time>2023-05-17T19:04:02Z</time>
      </trkpt>
      <trkpt lat="43.18068" lon="-1.42245">
        <ele>391</ele>
        <time>2023-05-17T19:04:03Z</time>
      </trkpt>
      <trkpt lat="43.18074" lon="-1.42246">
        <ele>391</ele>
        <time>2023-05-17T19:04:04Z</time>
      </trkpt>
      <trkpt lat="43.18122" lon="-1.42311">
        <ele>390</ele>
        <time>2023-05-17T19:04:16Z</time>
      </trkpt>
      <trkpt lat="43.18127" lon="-1.42312">
        <ele>391</ele>
        <time>2023-05-17T19:04:17Z</time>
      </trkpt>
      <trkpt lat="43.18131" lon="-1.42309">
        <ele>392</ele>
        <time>2023-05-17T19:04:18Z</time>
      </trkpt>
      <trkpt lat="43.18132" lon="-1.42301">
        <ele>395</ele>
        <time>2023-05-17T19:04:19Z</time>
      </trkpt>
      <trkpt lat="43.1813" lon="-1.42296">
        <ele>396</ele>
        <time>2023-05-17T19:04:19Z</time>
      </trkpt>
      <trkpt lat="43.18094" lon="-1.42241">
        <ele>396</ele>
        <time>2023-05-17T19:04:29Z</time>
      </trkpt>
      <trkpt lat="43.18062" lon="-1.42183">
        <ele>402</ele>
        <time>2023-05-17T19:04:38Z</time>
      </trkpt>
      <trkpt lat="43.1804" lon="-1.42136">
        <ele>404</ele>
        <time>2023-05-17T19:04:46Z</time>
      </trkpt>
      <trkpt lat="43.18026" lon="-1.42093">
        <ele>405</ele>
        <time>2023-05-17T19:04:52Z</time>
      </trkpt>
      <trkpt lat="43.18014" lon="-1.42036">
        <ele>403</ele>
        <time>2023-05-17T19:04:59Z</time>
      </trkpt>
      <trkpt lat="43.18007" lon="-1.41938">
        <ele>406</ele>
        <time>2023-05-17T19:05:12Z</time>
      </trkpt>
      <trkpt lat="43.1801" lon="-1.4187">
        <ele>409</ele>
        <time>2023-05-17T19:05:21Z</time>
      </trkpt>
      <trkpt lat="43.18009" lon="-1.41844">
        <ele>409</ele>
        <time>2023-05-17T19:05:24Z</time>
      </trkpt>
      <trkpt lat="43.17994" lon="-1.41788">
        <ele>408</ele>
        <time>2023-05-17T19:05:32Z</time>
      </trkpt>
      <trkpt lat="43.17991" lon="-1.41762">
        <ele>409</ele>
        <time>2023-05-17T19:05:36Z</time>
      </trkpt>
      <trkpt lat="43.17997" lon="-1.41746">
        <ele>411</ele>
        <time>2023-05-17T19:05:38Z</time>
      </trkpt>
      <trkpt lat="43.18036" lon="-1.41709">
        <ele>428</ele>
        <time>2023-05-17T19:05:46Z</time>
      </trkpt>
      <trkpt lat="43.18039" lon="-1.41693">
        <ele>430</ele>
        <time>2023-05-17T19:05:49Z</time>
      </trkpt>
      <trkpt lat="43.18035" lon="-1.41686">
        <ele>430</ele>
        <time>2023-05-17T19:05:50Z</time>
      </trkpt>
      <trkpt lat="43.18022" lon="-1.41682">
        <ele>428</ele>
        <time>2023-05-17T19:05:52Z</time>
      </trkpt>
      <trkpt lat="43.18014" lon="-1.41683">
        <ele>426</ele>
        <time>2023-05-17T19:05:53Z</time>
      </trkpt>
      <trkpt lat="43.17984" lon="-1.41695">
        <ele>419</ele>
        <time>2023-05-17T19:05:59Z</time>
      </trkpt>
      <trkpt lat="43.17959" lon="-1.41699">
        <ele>415</ele>
        <time>2023-05-17T19:06:04Z</time>
      </trkpt>
      <trkpt lat="43.17949" lon="-1.41696">
        <ele>414</ele>
        <time>2023-05-17T19:06:05Z</time>
      </trkpt>
      <trkpt lat="43.17945" lon="-1.41685">
        <ele>415</ele>
        <time>2023-05-17T19:06:07Z</time>
      </trkpt>
      <trkpt lat="43.17947" lon="-1.4168">
        <ele>416</ele>
        <time>2023-05-17T19:06:08Z</time>
      </trkpt>
      <trkpt lat="43.17951" lon="-1.41678">
        <ele>417</ele>
        <time>2023-05-17T19:06:08Z</time>
      </trkpt>
      <trkpt lat="43.1798" lon="-1.41678">
        <ele>422</ele>
        <time>2023-05-17T19:06:14Z</time>
      </trkpt>
      <trkpt lat="43.17995" lon="-1.41671">
        <ele>425</ele>
        <time>2023-05-17T19:06:16Z</time>
      </trkpt>
      <trkpt lat="43.18027" lon="-1.41648">
        <ele>433</ele>
        <time>2023-05-17T19:06:23Z</time>
      </trkpt>
      <trkpt lat="43.18071" lon="-1.41609">
        <ele>439</ele>
        <time>2023-05-17T19:06:32Z</time>
      </trkpt>
      <trkpt lat="43.18096" lon="-1.4159">
        <ele>443</ele>
        <time>2023-05-17T19:06:37Z</time>
      </trkpt>
      <trkpt lat="43.18117" lon="-1.41579">
        <ele>446</ele>
        <time>2023-05-17T19:06:41Z</time>
      </trkpt>
      <trkpt lat="43.18125" lon="-1.41578">
        <ele>448</ele>
        <time>2023-05-17T19:06:43Z</time>
      </trkpt>
      <trkpt lat="43.18131" lon="-1.41581">
        <ele>448</ele>
        <time>2023-05-17T19:06:44Z</time>
      </trkpt>
      <trkpt lat="43.18134" lon="-1.41587">
        <ele>448</ele>
        <time>2023-05-17T19:06:45Z</time>
      </trkpt>
      <trkpt lat="43.18134" lon="-1.41596">
        <ele>449</ele>
        <time>2023-05-17T19:06:46Z</time>
      </trkpt>
      <trkpt lat="43.18121" lon="-1.41648">
        <ele>448</ele>
        <time>2023-05-17T19:06:53Z</time>
      </trkpt>
      <trkpt lat="43.18084" lon="-1.41703">
        <ele>439</ele>
        <time>2023-05-17T19:07:03Z</time>
      </trkpt>
      <trkpt lat="43.18078" lon="-1.41719">
        <ele>439</ele>
        <time>2023-05-17T19:07:05Z</time>
      </trkpt>
      <trkpt lat="43.1808" lon="-1.41732">
        <ele>440</ele>
        <time>2023-05-17T19:07:07Z</time>
      </trkpt>
      <trkpt lat="43.18084" lon="-1.41734">
        <ele>441</ele>
        <time>2023-05-17T19:07:08Z</time>
      </trkpt>
      <trkpt lat="43.18089" lon="-1.41731">
        <ele>443</ele>
        <time>2023-05-17T19:07:09Z</time>
      </trkpt>
      <trkpt lat="43.181" lon="-1.41699">
        <ele>445</ele>
        <time>2023-05-17T19:07:13Z</time>
      </trkpt>
      <trkpt lat="43.18134" lon="-1.41665">
        <ele>453</ele>
        <time>2023-05-17T19:07:21Z</time>
      </trkpt>
      <trkpt lat="43.1814" lon="-1.41653">
        <ele>454</ele>
        <time>2023-05-17T19:07:23Z</time>
      </trkpt>
      <trkpt lat="43.18154" lon="-1.41606">
        <ele>453</ele>
        <time>2023-05-17T19:07:29Z</time>
      </trkpt>
      <trkpt lat="43.1817" lon="-1.4158">
        <ele>454</ele>
        <time>2023-05-17T19:07:34Z</time>
      </trkpt>
      <trkpt lat="43.18196" lon="-1.4155">
        <ele>459</ele>
        <time>2023-05-17T19:07:40Z</time>
      </trkpt>
      <trkpt lat="43.18202" lon="-1.41538">
        <ele>459</ele>
        <time>2023-05-17T19:07:41Z</time>
      </trkpt>
      <trkpt lat="43.18204" lon="-1.41527">
        <ele>459</ele>
        <time>2023-05-17T19:07:43Z</time>
      </trkpt>
      <trkpt lat="43.18202" lon="-1.41517">
        <ele>459</ele>
        <time>2023-05-17T19:07:44Z</time>
      </trkpt>
      <trkpt lat="43.18191" lon="-1.41508">
        <ele>458</ele>
        <time>2023-05-17T19:07:47Z</time>
      </trkpt>
      <trkpt lat="43.18182" lon="-1.41506">
        <ele>457</ele>
        <time>2023-05-17T19:07:48Z</time>
      </trkpt>
      <trkpt lat="43.18092" lon="-1.41514">
        <ele>455</ele>
        <time>2023-05-17T19:08:04Z</time>
      </trkpt>
      <trkpt lat="43.18055" lon="-1.41514">
        <ele>453</ele>
        <time>2023-05-17T19:08:11Z</time>
      </trkpt>
      <trkpt lat="43.18037" lon="-1.41508">
        <ele>453</ele>
        <time>2023-05-17T19:08:14Z</time>
      </trkpt>
      <trkpt lat="43.18031" lon="-1.41502">
        <ele>453</ele>
        <time>2023-05-17T19:08:15Z</time>
      </trkpt>
      <trkpt lat="43.18024" lon="-1.41487">
        <ele>454</ele>
        <time>2023-05-17T19:08:18Z</time>
      </trkpt>
      <trkpt lat="43.18026" lon="-1.41469">
        <ele>455</ele>
        <time>2023-05-17T19:08:20Z</time>
      </trkpt>
      <trkpt lat="43.18084" lon="-1.41369">
        <ele>467</ele>
        <time>2023-05-17T19:08:37Z</time>
      </trkpt>
      <trkpt lat="43.18109" lon="-1.4131">
        <ele>474</ele>
        <time>2023-05-17T19:08:46Z</time>
      </trkpt>
      <trkpt lat="43.18121" lon="-1.41267">
        <ele>480</ele>
        <time>2023-05-17T19:08:51Z</time>
      </trkpt>
      <trkpt lat="43.18123" lon="-1.41236">
        <ele>486</ele>
        <time>2023-05-17T19:08:56Z</time>
      </trkpt>
      <trkpt lat="43.18119" lon="-1.41218">
        <ele>489</ele>
        <time>2023-05-17T19:08:58Z</time>
      </trkpt>
      <trkpt lat="43.1811" lon="-1.41211">
        <ele>489</ele>
        <time>2023-05-17T19:09:00Z</time>
      </trkpt>
      <trkpt lat="43.18103" lon="-1.41209">
        <ele>488</ele>
        <time>2023-05-17T19:09:01Z</time>
      </trkpt>
      <trkpt lat="43.18063" lon="-1.41216">
        <ele>486</ele>
        <time>2023-05-17T19:09:08Z</time>
      </trkpt>
      <trkpt lat="43.1805" lon="-1.41222">
        <ele>486</ele>
        <time>2023-05-17T19:09:11Z</time>
      </trkpt>
      <trkpt lat="43.18013" lon="-1.41251">
        <ele>484</ele>
        <time>2023-05-17T19:09:18Z</time>
      </trkpt>
      <trkpt lat="43.17994" lon="-1.4126">
        <ele>483</ele>
        <time>2023-05-17T19:09:22Z</time>
      </trkpt>
      <trkpt lat="43.17975" lon="-1.41262">
        <ele>482</ele>
        <time>2023-05-17T19:09:25Z</time>
      </trkpt>
      <trkpt lat="43.17959" lon="-1.41257">
        <ele>483</ele>
        <time>2023-05-17T19:09:28Z</time>
      </trkpt>
      <trkpt lat="43.17942" lon="-1.41243">
        <ele>485</ele>
        <time>2023-05-17T19:09:32Z</time>
      </trkpt>
      <trkpt lat="43.17928" lon="-1.41226">
        <ele>488</ele>
        <time>2023-05-17T19:09:35Z</time>
      </trkpt>
      <trkpt lat="43.17895" lon="-1.41178">
        <ele>490</ele>
        <time>2023-05-17T19:09:44Z</time>
      </trkpt>
      <trkpt lat="43.17888" lon="-1.4116">
        <ele>492</ele>
        <time>2023-05-17T19:09:46Z</time>
      </trkpt>
      <trkpt lat="43.17866" lon="-1.41063">
        <ele>512</ele>
        <time>2023-05-17T19:09:59Z</time>
      </trkpt>
      <trkpt lat="43.17858" lon="-1.41039">
        <ele>518</ele>
        <time>2023-05-17T19:10:03Z</time>
      </trkpt>
      <trkpt lat="43.17851" lon="-1.41027">
        <ele>521</ele>
        <time>2023-05-17T19:10:05Z</time>
      </trkpt>
      <trkpt lat="43.17844" lon="-1.4102">
        <ele>523</ele>
        <time>2023-05-17T19:10:06Z</time>
      </trkpt>
      <trkpt lat="43.17838" lon="-1.41019">
        <ele>523</ele>
        <time>2023-05-17T19:10:07Z</time>
      </trkpt>
      <trkpt lat="43.17827" lon="-1.41028">
        <ele>522</ele>
        <time>2023-05-17T19:10:10Z</time>
      </trkpt>
      <trkpt lat="43.17813" lon="-1.41057">
        <ele>516</ele>
        <time>2023-05-17T19:10:14Z</time>
      </trkpt>
      <trkpt lat="43.17805" lon="-1.41067">
        <ele>515</ele>
        <time>2023-05-17T19:10:16Z</time>
      </trkpt>
      <trkpt lat="43.17741" lon="-1.41128">
        <ele>513</ele>
        <time>2023-05-17T19:10:30Z</time>
      </trkpt>
      <trkpt lat="43.17713" lon="-1.41158">
        <ele>511</ele>
        <time>2023-05-17T19:10:36Z</time>
      </trkpt>
      <trkpt lat="43.17691" lon="-1.41175">
        <ele>510</ele>
        <time>2023-05-17T19:10:41Z</time>
      </trkpt>
      <trkpt lat="43.17673" lon="-1.41185">
        <ele>511</ele>
        <time>2023-05-17T19:10:44Z</time>
      </trkpt>
      <trkpt lat="43.17667" lon="-1.41186">
        <ele>511</ele>
        <time>2023-05-17T19:10:45Z</time>
      </trkpt>
      <trkpt lat="43.17662" lon="-1.41184">
        <ele>511</ele>
        <time>2023-05-17T19:10:46Z</time>
      </trkpt>
      <trkpt lat="43.1766" lon="-1.41178">
        <ele>512</ele>
        <time>2023-05-17T19:10:47Z</time>
      </trkpt>
      <trkpt lat="43.17662" lon="-1.41172">
        <ele>514</ele>
        <time>2023-05-17T19:10:48Z</time>
      </trkpt>
      <trkpt lat="43.17668" lon="-1.41166">
        <ele>516</ele>
        <time>2023-05-17T19:10:49Z</time>
      </trkpt>
      <trkpt lat="43.17675" lon="-1.41163">
        <ele>515</ele>
        <time>2023-05-17T19:10:51Z</time>
      </trkpt>
      <trkpt lat="43.17701" lon="-1.41143">
        <ele>515</ele>
        <time>2023-05-17T19:10:56Z</time>
      </trkpt>
      <trkpt lat="43.17765" lon="-1.4107">
        <ele>523</ele>
        <time>2023-05-17T19:11:11Z</time>
      </trkpt>
      <trkpt lat="43.17795" lon="-1.41027">
        <ele>531</ele>
        <time>2023-05-17T19:11:18Z</time>
      </trkpt>
      <trkpt lat="43.17816" lon="-1.40991">
        <ele>536</ele>
        <time>2023-05-17T19:11:24Z</time>
      </trkpt>
      <trkpt lat="43.17835" lon="-1.40965">
        <ele>539</ele>
        <time>2023-05-17T19:11:29Z</time>
      </trkpt>
      <trkpt lat="43.17851" lon="-1.40952">
        <ele>542</ele>
        <time>2023-05-17T19:11:33Z</time>
      </trkpt>
      <trkpt lat="43.17865" lon="-1.40951">
        <ele>543</ele>
        <time>2023-05-17T19:11:35Z</time>
      </trkpt>
      <trkpt lat="43.17876" lon="-1.4096">
        <ele>541</ele>
        <time>2023-05-17T19:11:37Z</time>
      </trkpt>
      <trkpt lat="43.1789" lon="-1.40983">
        <ele>534</ele>
        <time>2023-05-17T19:11:41Z</time>
      </trkpt>
      <trkpt lat="43.17904" lon="-1.40995">
        <ele>531</ele>
        <time>2023-05-17T19:11:44Z</time>
      </trkpt>
      <trkpt lat="43.18001" lon="-1.41025">
        <ele>538</ele>
        <time>2023-05-17T19:12:02Z</time>
      </trkpt>
      <trkpt lat="43.18014" lon="-1.41026">
        <ele>538</ele>
        <time>2023-05-17T19:12:04Z</time>
      </trkpt>
      <trkpt lat="43.1803" lon="-1.41025">
        <ele>538</ele>
        <time>2023-05-17T19:12:07Z</time>
      </trkpt>
      <trkpt lat="43.18053" lon="-1.41018">
        <ele>539</ele>
        <time>2023-05-17T19:12:11Z</time>
      </trkpt>
      <trkpt lat="43.18118" lon="-1.40977">
        <ele>547</ele>
        <time>2023-05-17T19:12:24Z</time>
      </trkpt>
      <trkpt lat="43.18139" lon="-1.40968">
        <ele>547</ele>
        <time>2023-05-17T19:12:28Z</time>
      </trkpt>
      <trkpt lat="43.18153" lon="-1.40966">
        <ele>547</ele>
        <time>2023-05-17T19:12:30Z</time>
      </trkpt>
      <trkpt lat="43.18205" lon="-1.40975">
        <ele>544</ele>
        <time>2023-05-17T19:12:40Z</time>
      </trkpt>
      <trkpt lat="43.18224" lon="-1.40976">
        <ele>544</ele>
        <time>2023-05-17T19:12:43Z</time>
      </trkpt>
      <trkpt lat="43.18231" lon="-1.40972">
        <ele>544</ele>
        <time>2023-05-17T19:12:44Z</time>
      </trkpt>
      <trkpt lat="43.18232" lon="-1.40967">
        <ele>544</ele>
        <time>2023-05-17T19:12:45Z</time>
      </trkpt>
      <trkpt lat="43.18228" lon="-1.40959">
        <ele>545</ele>
        <time>2023-05-17T19:12:46Z</time>
      </trkpt>
      <trkpt lat="43.18206" lon="-1.40957">
        <ele>546</ele>
        <time>2023-05-17T19:12:50Z</time>
      </trkpt>
      <trkpt lat="43.1819" lon="-1.40951">
        <ele>548</ele>
        <time>2023-05-17T19:12:53Z</time>
      </trkpt>
      <trkpt lat="43.18162" lon="-1.40935">
        <ele>553</ele>
        <time>2023-05-17T19:12:59Z</time>
      </trkpt>
      <trkpt lat="43.18146" lon="-1.40931">
        <ele>554</ele>
        <time>2023-05-17T19:13:01Z</time>
      </trkpt>
      <trkpt lat="43.18073" lon="-1.40943">
        <ele>557</ele>
        <time>2023-05-17T19:13:15Z</time>
      </trkpt>
      <trkpt lat="43.18033" lon="-1.40952">
        <ele>558</ele>
        <time>2023-05-17T19:13:22Z</time>
      </trkpt>
      <trkpt lat="43.18021" lon="-1.40952">
        <ele>559</ele>
        <time>2023-05-17T19:13:24Z</time>
      </trkpt>
      <trkpt lat="43.18004" lon="-1.40948">
        <ele>561</ele>
        <time>2023-05-17T19:13:27Z</time>
      </trkpt>
      <trkpt lat="43.17985" lon="-1.40937">
        <ele>562</ele>
        <time>2023-05-17T19:13:31Z</time>
      </trkpt>
      <trkpt lat="43.17946" lon="-1.40905">
        <ele>563</ele>
        <time>2023-05-17T19:13:39Z</time>
      </trkpt>
      <trkpt lat="43.1793" lon="-1.40883">
        <ele>566</ele>
        <time>2023-05-17T19:13:43Z</time>
      </trkpt>
      <trkpt lat="43.17909" lon="-1.40839">
        <ele>576</ele>
        <time>2023-05-17T19:13:50Z</time>
      </trkpt>
      <trkpt lat="43.179" lon="-1.4083">
        <ele>579</ele>
        <time>2023-05-17T19:13:52Z</time>
      </trkpt>
      <trkpt lat="43.17876" lon="-1.40822">
        <ele>581</ele>
        <time>2023-05-17T19:13:56Z</time>
      </trkpt>
      <trkpt lat="43.17845" lon="-1.40821">
        <ele>581</ele>
        <time>2023-05-17T19:14:01Z</time>
      </trkpt>
      <trkpt lat="43.17832" lon="-1.40824">
        <ele>581</ele>
        <time>2023-05-17T19:14:04Z</time>
      </trkpt>
      <trkpt lat="43.17821" lon="-1.4083">
        <ele>582</ele>
        <time>2023-05-17T19:14:06Z</time>
      </trkpt>
      <trkpt lat="43.17797" lon="-1.40851">
        <ele>581</ele>
        <time>2023-05-17T19:14:11Z</time>
      </trkpt>
      <trkpt lat="43.17762" lon="-1.40887">
        <ele>579</ele>
        <time>2023-05-17T19:14:19Z</time>
      </trkpt>
      <trkpt lat="43.17739" lon="-1.40903">
        <ele>578</ele>
        <time>2023-05-17T19:14:23Z</time>
      </trkpt>
      <trkpt lat="43.17714" lon="-1.40915">
        <ele>575</ele>
        <time>2023-05-17T19:14:28Z</time>
      </trkpt>
      <trkpt lat="43.17699" lon="-1.4092">
        <ele>574</ele>
        <time>2023-05-17T19:14:31Z</time>
      </trkpt>
      <trkpt lat="43.17681" lon="-1.4092">
        <ele>575</ele>
        <time>2023-05-17T19:14:34Z</time>
      </trkpt>
      <trkpt lat="43.17668" lon="-1.40908">
        <ele>578</ele>
        <time>2023-05-17T19:14:37Z</time>
      </trkpt>
      <trkpt lat="43.17663" lon="-1.40898">
        <ele>578</ele>
        <time>2023-05-17T19:14:38Z</time>
      </trkpt>
      <trkpt lat="43.1766" lon="-1.40883">
        <ele>579</ele>
        <time>2023-05-17T19:14:40Z</time>
      </trkpt>
      <trkpt lat="43.17659" lon="-1.40817">
        <ele>589</ele>
        <time>2023-05-17T19:14:49Z</time>
      </trkpt>
      <trkpt lat="43.1765" lon="-1.40708">
        <ele>599</ele>
        <time>2023-05-17T19:15:03Z</time>
      </trkpt>
      <trkpt lat="43.1764" lon="-1.40657">
        <ele>603</ele>
        <time>2023-05-17T19:15:10Z</time>
      </trkpt>
      <trkpt lat="43.17626" lon="-1.40625">
        <ele>604</ele>
        <time>2023-05-17T19:15:15Z</time>
      </trkpt>
      <trkpt lat="43.17626" lon="-1.40613">
        <ele>607</ele>
        <time>2023-05-17T19:15:16Z</time>
      </trkpt>
      <trkpt lat="43.1763" lon="-1.4061">
        <ele>609</ele>
        <time>2023-05-17T19:15:17Z</time>
      </trkpt>
      <trkpt lat="43.17635" lon="-1.40611">
        <ele>610</ele>
        <time>2023-05-17T19:15:18Z</time>
      </trkpt>
      <trkpt lat="43.17641" lon="-1.40625">
        <ele>610</ele>
        <time>2023-05-17T19:15:20Z</time>
      </trkpt>
      <trkpt lat="43.17668" lon="-1.40703">
        <ele>608</ele>
        <time>2023-05-17T19:15:32Z</time>
      </trkpt>
      <trkpt lat="43.17676" lon="-1.40733">
        <ele>605</ele>
        <time>2023-05-17T19:15:36Z</time>
      </trkpt>
      <trkpt lat="43.17688" lon="-1.40814">
        <ele>596</ele>
        <time>2023-05-17T19:15:46Z</time>
      </trkpt>
      <trkpt lat="43.17695" lon="-1.40827">
        <ele>594</ele>
        <time>2023-05-17T19:15:48Z</time>
      </trkpt>
      <trkpt lat="43.177" lon="-1.4083">
        <ele>594</ele>
        <time>2023-05-17T19:15:49Z</time>
      </trkpt>
      <trkpt lat="43.17706" lon="-1.4083">
        <ele>595</ele>
        <time>2023-05-17T19:15:51Z</time>
      </trkpt>
      <trkpt lat="43.1772" lon="-1.40821">
        <ele>598</ele>
        <time>2023-05-17T19:15:53Z</time>
      </trkpt>
      <trkpt lat="43.17785" lon="-1.40726">
        <ele>616</ele>
        <time>2023-05-17T19:16:10Z</time>
      </trkpt>
      <trkpt lat="43.17818" lon="-1.40696">
        <ele>619</ele>
        <time>2023-05-17T19:16:17Z</time>
      </trkpt>
      <trkpt lat="43.17849" lon="-1.4068">
        <ele>622</ele>
        <time>2023-05-17T19:16:23Z</time>
      </trkpt>
      <trkpt lat="43.17901" lon="-1.40672">
        <ele>623</ele>
        <time>2023-05-17T19:16:32Z</time>
      </trkpt>
      <trkpt lat="43.17932" lon="-1.4067">
        <ele>623</ele>
        <time>2023-05-17T19:16:38Z</time>
      </trkpt>
      <trkpt lat="43.17945" lon="-1.40671">
        <ele>624</ele>
        <time>2023-05-17T19:16:40Z</time>
      </trkpt>
      <trkpt lat="43.17984" lon="-1.40684">
        <ele>622</ele>
        <time>2023-05-17T19:16:47Z</time>
      </trkpt>
      <trkpt lat="43.18012" lon="-1.40689">
        <ele>620</ele>
        <time>2023-05-17T19:16:52Z</time>
      </trkpt>
      <trkpt lat="43.1803" lon="-1.40686">
        <ele>618</ele>
        <time>2023-05-17T19:16:56Z</time>
      </trkpt>
      <trkpt lat="43.18035" lon="-1.40678">
        <ele>619</ele>
        <time>2023-05-17T19:16:57Z</time>
      </trkpt>
      <trkpt lat="43.18031" lon="-1.4067">
        <ele>621</ele>
        <time>2023-05-17T19:16:58Z</time>
      </trkpt>
      <trkpt lat="43.18003" lon="-1.4067">
        <ele>625</ele>
        <time>2023-05-17T19:17:03Z</time>
      </trkpt>
      <trkpt lat="43.17933" lon="-1.40637">
        <ele>633</ele>
        <time>2023-05-17T19:17:16Z</time>
      </trkpt>
      <trkpt lat="43.17916" lon="-1.40631">
        <ele>635</ele>
        <time>2023-05-17T19:17:20Z</time>
      </trkpt>
      <trkpt lat="43.17894" lon="-1.40627">
        <ele>637</ele>
        <time>2023-05-17T19:17:23Z</time>
      </trkpt>
      <trkpt lat="43.17849" lon="-1.40624">
        <ele>639</ele>
        <time>2023-05-17T19:17:32Z</time>
      </trkpt>
      <trkpt lat="43.17825" lon="-1.40626">
        <ele>639</ele>
        <time>2023-05-17T19:17:36Z</time>
      </trkpt>
      <trkpt lat="43.17757" lon="-1.40643">
        <ele>638</ele>
        <time>2023-05-17T19:17:48Z</time>
      </trkpt>
      <trkpt lat="43.17748" lon="-1.40644">
        <ele>638</ele>
        <time>2023-05-17T19:17:50Z</time>
      </trkpt>
      <trkpt lat="43.17742" lon="-1.40642">
        <ele>637</ele>
        <time>2023-05-17T19:17:51Z</time>
      </trkpt>
      <trkpt lat="43.17733" lon="-1.40625">
        <ele>638</ele>
        <time>2023-05-17T19:17:54Z</time>
      </trkpt>
      <trkpt lat="43.17725" lon="-1.40565">
        <ele>648</ele>
        <time>2023-05-17T19:18:01Z</time>
      </trkpt>
      <trkpt lat="43.17707" lon="-1.40515">
        <ele>654</ele>
        <time>2023-05-17T19:18:09Z</time>
      </trkpt>
      <trkpt lat="43.17616" lon="-1.40354">
        <ele>667</ele>
        <time>2023-05-17T19:18:35Z</time>
      </trkpt>
      <trkpt lat="43.17584" lon="-1.40292">
        <ele>671</ele>
        <time>2023-05-17T19:18:45Z</time>
      </trkpt>
      <trkpt lat="43.17572" lon="-1.40257">
        <ele>676</ele>
        <time>2023-05-17T19:18:50Z</time>
      </trkpt>
      <trkpt lat="43.17569" lon="-1.40224">
        <ele>677</ele>
        <time>2023-05-17T19:18:54Z</time>
      </trkpt>
      <trkpt lat="43.17572" lon="-1.40189">
        <ele>676</ele>
        <time>2023-05-17T19:18:59Z</time>
      </trkpt>
      <trkpt lat="43.17579" lon="-1.4017">
        <ele>676</ele>
        <time>2023-05-17T19:19:02Z</time>
      </trkpt>
      <trkpt lat="43.17596" lon="-1.40152">
        <ele>672</ele>
        <time>2023-05-17T19:19:05Z</time>
      </trkpt>
      <trkpt lat="43.17645" lon="-1.40119">
        <ele>670</ele>
        <time>2023-05-17T19:19:15Z</time>
      </trkpt>
      <trkpt lat="43.17661" lon="-1.40101">
        <ele>668</ele>
        <time>2023-05-17T19:19:19Z</time>
      </trkpt>
      <trkpt lat="43.17673" lon="-1.40074">
        <ele>665</ele>
        <time>2023-05-17T19:19:23Z</time>
      </trkpt>
      <trkpt lat="43.17699" lon="-1.39992">
        <ele>659</ele>
        <time>2023-05-17T19:19:35Z</time>
      </trkpt>
      <trkpt lat="43.17727" lon="-1.39921">
        <ele>653</ele>
        <time>2023-05-17T19:19:45Z</time>
      </trkpt>
      <trkpt lat="43.17761" lon="-1.39848">
        <ele>648</ele>
        <time>2023-05-17T19:19:56Z</time>
      </trkpt>
      <trkpt lat="43.178" lon="-1.39729">
        <ele>633</ele>
        <time>2023-05-17T19:20:13Z</time>
      </trkpt>
      <trkpt lat="43.17822" lon="-1.39677">
        <ele>628</ele>
        <time>2023-05-17T19:20:21Z</time>
      </trkpt>
      <trkpt lat="43.17834" lon="-1.39665">
        <ele>629</ele>
        <time>2023-05-17T19:20:24Z</time>
      </trkpt>
      <trkpt lat="43.17869" lon="-1.39661">
        <ele>634</ele>
        <time>2023-05-17T19:20:30Z</time>
      </trkpt>
      <trkpt lat="43.17908" lon="-1.39641">
        <ele>632</ele>
        <time>2023-05-17T19:20:37Z</time>
      </trkpt>
      <trkpt lat="43.17933" lon="-1.39625">
        <ele>628</ele>
        <time>2023-05-17T19:20:42Z</time>
      </trkpt>
      <trkpt lat="43.17986" lon="-1.39612">
        <ele>632</ele>
        <time>2023-05-17T19:20:52Z</time>
      </trkpt>
      <trkpt lat="43.17996" lon="-1.39608">
        <ele>632</ele>
        <time>2023-05-17T19:20:54Z</time>
      </trkpt>
      <trkpt lat="43.18011" lon="-1.39596">
        <ele>631</ele>
        <time>2023-05-17T19:20:57Z</time>
      </trkpt>
      <trkpt lat="43.18018" lon="-1.39588">
        <ele>631</ele>
        <time>2023-05-17T19:20:58Z</time>
      </trkpt>
      <trkpt lat="43.18035" lon="-1.39537">
        <ele>617</ele>
        <time>2023-05-17T19:21:06Z</time>
      </trkpt>
      <trkpt lat="43.18048" lon="-1.39514">
        <ele>613</ele>
        <time>2023-05-17T19:21:09Z</time>
      </trkpt>
      <trkpt lat="43.18077" lon="-1.39474">
        <ele>610</ele>
        <time>2023-05-17T19:21:17Z</time>
      </trkpt>
      <trkpt lat="43.18103" lon="-1.39458">
        <ele>615</ele>
        <time>2023-05-17T19:21:22Z</time>
      </trkpt>
      <trkpt lat="43.18122" lon="-1.39436">
        <ele>616</ele>
        <time>2023-05-17T19:21:26Z</time>
      </trkpt>
      <trkpt lat="43.18133" lon="-1.39414">
        <ele>615</ele>
        <time>2023-05-17T19:21:30Z</time>
      </trkpt>
      <trkpt lat="43.18139" lon="-1.39379">
        <ele>609</ele>
        <time>2023-05-17T19:21:34Z</time>
      </trkpt>
      <trkpt lat="43.18137" lon="-1.39342">
        <ele>599</ele>
        <time>2023-05-17T19:21:39Z</time>
      </trkpt>
      <trkpt lat="43.1814" lon="-1.39245">
        <ele>591</ele>
        <time>2023-05-17T19:21:52Z</time>
      </trkpt>
      <trkpt lat="43.18143" lon="-1.39222">
        <ele>590</ele>
        <time>2023-05-17T19:21:55Z</time>
      </trkpt>
      <trkpt lat="43.18151" lon="-1.39207">
        <ele>592</ele>
        <time>2023-05-17T19:21:57Z</time>
      </trkpt>
      <trkpt lat="43.18156" lon="-1.39203">
        <ele>593</ele>
        <time>2023-05-17T19:21:58Z</time>
      </trkpt>
      <trkpt lat="43.18184" lon="-1.39195">
        <ele>600</ele>
        <time>2023-05-17T19:22:03Z</time>
      </trkpt>
      <trkpt lat="43.18204" lon="-1.39184">
        <ele>605</ele>
        <time>2023-05-17T19:22:07Z</time>
      </trkpt>
      <trkpt lat="43.18218" lon="-1.39171">
        <ele>606</ele>
        <time>2023-05-17T19:22:10Z</time>
      </trkpt>
      <trkpt lat="43.18225" lon="-1.39153">
        <ele>604</ele>
        <time>2023-05-17T19:22:13Z</time>
      </trkpt>
      <trkpt lat="43.18224" lon="-1.39096">
        <ele>591</ele>
        <time>2023-05-17T19:22:20Z</time>
      </trkpt>
      <trkpt lat="43.18227" lon="-1.39047">
        <ele>586</ele>
        <time>2023-05-17T19:22:27Z</time>
      </trkpt>
      <trkpt lat="43.18224" lon="-1.39029">
        <ele>584</ele>
        <time>2023-05-17T19:22:29Z</time>
      </trkpt>
      <trkpt lat="43.18209" lon="-1.39003">
        <ele>576</ele>
        <time>2023-05-17T19:22:33Z</time>
      </trkpt>
      <trkpt lat="43.18205" lon="-1.38982">
        <ele>570</ele>
        <time>2023-05-17T19:22:36Z</time>
      </trkpt>
      <trkpt lat="43.18209" lon="-1.38969">
        <ele>569</ele>
        <time>2023-05-17T19:22:38Z</time>
      </trkpt>
      <trkpt lat="43.18222" lon="-1.38949">
        <ele>571</ele>
        <time>2023-05-17T19:22:41Z</time>
      </trkpt>
      <trkpt lat="43.18252" lon="-1.38919">
        <ele>579</ele>
        <time>2023-05-17T19:22:48Z</time>
      </trkpt>
      <trkpt lat="43.18264" lon="-1.38901">
        <ele>580</ele>
        <time>2023-05-17T19:22:51Z</time>
      </trkpt>
      <trkpt lat="43.18306" lon="-1.3881">
        <ele>575</ele>
        <time>2023-05-17T19:23:05Z</time>
      </trkpt>
      <trkpt lat="43.18325" lon="-1.3878">
        <ele>581</ele>
        <time>2023-05-17T19:23:10Z</time>
      </trkpt>
      <trkpt lat="43.18327" lon="-1.38763">
        <ele>580</ele>
        <time>2023-05-17T19:23:13Z</time>
      </trkpt>
      <trkpt lat="43.18321" lon="-1.38754">
        <ele>576</ele>
        <time>2023-05-17T19:23:14Z</time>
      </trkpt>
      <trkpt lat="43.1831" lon="-1.38749">
        <ele>573</ele>
        <time>2023-05-17T19:23:16Z</time>
      </trkpt>
      <trkpt lat="43.18215" lon="-1.38728">
        <ele>553</ele>
        <time>2023-05-17T19:23:33Z</time>
      </trkpt>
      <trkpt lat="43.18153" lon="-1.38709">
        <ele>544</ele>
        <time>2023-05-17T19:23:45Z</time>
      </trkpt>
      <trkpt lat="43.18137" lon="-1.38698">
        <ele>543</ele>
        <time>2023-05-17T19:23:48Z</time>
      </trkpt>
      <trkpt lat="43.18124" lon="-1.3868">
        <ele>545</ele>
        <time>2023-05-17T19:23:51Z</time>
      </trkpt>
      <trkpt lat="43.18106" lon="-1.38647">
        <ele>550</ele>
        <time>2023-05-17T19:23:56Z</time>
      </trkpt>
      <trkpt lat="43.1809" lon="-1.38635">
        <ele>549</ele>
        <time>2023-05-17T19:24:00Z</time>
      </trkpt>
      <trkpt lat="43.18083" lon="-1.38633">
        <ele>547</ele>
        <time>2023-05-17T19:24:01Z</time>
      </trkpt>
      <trkpt lat="43.18077" lon="-1.38632">
        <ele>547</ele>
        <time>2023-05-17T19:24:02Z</time>
      </trkpt>
      <trkpt lat="43.18062" lon="-1.38635">
        <ele>546</ele>
        <time>2023-05-17T19:24:05Z</time>
      </trkpt>
      <trkpt lat="43.17993" lon="-1.38665">
        <ele>529</ele>
        <time>2023-05-17T19:24:18Z</time>
      </trkpt>
      <trkpt lat="43.17963" lon="-1.38675">
        <ele>523</ele>
        <time>2023-05-17T19:24:23Z</time>
      </trkpt>
      <trkpt lat="43.17924" lon="-1.38675">
        <ele>520</ele>
        <time>2023-05-17T19:24:30Z</time>
      </trkpt>
      <trkpt lat="43.17904" lon="-1.38663">
        <ele>517</ele>
        <time>2023-05-17T19:24:34Z</time>
      </trkpt>
      <trkpt lat="43.17896" lon="-1.38651">
        <ele>514</ele>
        <time>2023-05-17T19:24:36Z</time>
      </trkpt>
      <trkpt lat="43.17893" lon="-1.38634">
        <ele>514</ele>
        <time>2023-05-17T19:24:38Z</time>
      </trkpt>
      <trkpt lat="43.17894" lon="-1.38625">
        <ele>515</ele>
        <time>2023-05-17T19:24:39Z</time>
      </trkpt>
      <trkpt lat="43.17907" lon="-1.38593">
        <ele>529</ele>
        <time>2023-05-17T19:24:44Z</time>
      </trkpt>
      <trkpt lat="43.17912" lon="-1.38572">
        <ele>534</ele>
        <time>2023-05-17T19:24:47Z</time>
      </trkpt>
      <trkpt lat="43.1791" lon="-1.38518">
        <ele>530</ele>
        <time>2023-05-17T19:24:54Z</time>
      </trkpt>
      <trkpt lat="43.17901" lon="-1.38439">
        <ele>512</ele>
        <time>2023-05-17T19:25:04Z</time>
      </trkpt>
      <trkpt lat="43.17904" lon="-1.38422">
        <ele>511</ele>
        <time>2023-05-17T19:25:07Z</time>
      </trkpt>
      <trkpt lat="43.17912" lon="-1.38411">
        <ele>512</ele>
        <time>2023-05-17T19:25:09Z</time>
      </trkpt>
      <trkpt lat="43.1793" lon="-1.38396">
        <ele>516</ele>
        <time>2023-05-17T19:25:12Z</time>
      </trkpt>
      <trkpt lat="43.17964" lon="-1.38354">
        <ele>510</ele>
        <time>2023-05-17T19:25:21Z</time>
      </trkpt>
      <trkpt lat="43.18011" lon="-1.38316">
        <ele>513</ele>
        <time>2023-05-17T19:25:30Z</time>
      </trkpt>
      <trkpt lat="43.18029" lon="-1.38298">
        <ele>515</ele>
        <time>2023-05-17T19:25:34Z</time>
      </trkpt>
      <trkpt lat="43.18086" lon="-1.38219">
        <ele>502</ele>
        <time>2023-05-17T19:25:49Z</time>
      </trkpt>
      <trkpt lat="43.18107" lon="-1.38177">
        <ele>493</ele>
        <time>2023-05-17T19:25:55Z</time>
      </trkpt>
      <trkpt lat="43.18161" lon="-1.38154">
        <ele>504</ele>
        <time>2023-05-17T19:26:05Z</time>
      </trkpt>
      <trkpt lat="43.18189" lon="-1.38127">
        <ele>502</ele>
        <time>2023-05-17T19:26:11Z</time>
      </trkpt>
      <trkpt lat="43.18202" lon="-1.38108">
        <ele>500</ele>
        <time>2023-05-17T19:26:15Z</time>
      </trkpt>
      <trkpt lat="43.18209" lon="-1.38084">
        <ele>496</ele>
        <time>2023-05-17T19:26:18Z</time>
      </trkpt>
      <trkpt lat="43.18204" lon="-1.38062">
        <ele>496</ele>
        <time>2023-05-17T19:26:21Z</time>
      </trkpt>
      <trkpt lat="43.18195" lon="-1.38038">
        <ele>496</ele>
        <time>2023-05-17T19:26:25Z</time>
      </trkpt>
      <trkpt lat="43.18136" lon="-1.37957">
        <ele>485</ele>
        <time>2023-05-17T19:26:40Z</time>
      </trkpt>
      <trkpt lat="43.18095" lon="-1.37914">
        <ele>479</ele>
        <time>2023-05-17T19:26:49Z</time>
      </trkpt>
      <trkpt lat="43.18073" lon="-1.37899">
        <ele>475</ele>
        <time>2023-05-17T19:26:53Z</time>
      </trkpt>
      <trkpt lat="43.18023" lon="-1.37876">
        <ele>467</ele>
        <time>2023-05-17T19:27:03Z</time>
      </trkpt>
      <trkpt lat="43.17981" lon="-1.3784">
        <ele>466</ele>
        <time>2023-05-17T19:27:11Z</time>
      </trkpt>
      <trkpt lat="43.17949" lon="-1.37821">
        <ele>464</ele>
        <time>2023-05-17T19:27:18Z</time>
      </trkpt>
      <trkpt lat="43.1793" lon="-1.37814">
        <ele>462</ele>
        <time>2023-05-17T19:27:21Z</time>
      </trkpt>
      <trkpt lat="43.1788" lon="-1.37811">
        <ele>451</ele>
        <time>2023-05-17T19:27:30Z</time>
      </trkpt>
      <trkpt lat="43.17857" lon="-1.37806">
        <ele>448</ele>
        <time>2023-05-17T19:27:34Z</time>
      </trkpt>
      <trkpt lat="43.17845" lon="-1.37795">
        <ele>447</ele>
        <time>2023-05-17T19:27:37Z</time>
      </trkpt>
      <trkpt lat="43.17828" lon="-1.37763">
        <ele>448</ele>
        <time>2023-05-17T19:27:42Z</time>
      </trkpt>
      <trkpt lat="43.17816" lon="-1.37723">
        <ele>446</ele>
        <time>2023-05-17T19:27:47Z</time>
      </trkpt>
      <trkpt lat="43.17798" lon="-1.37618">
        <ele>437</ele>
        <time>2023-05-17T19:28:01Z</time>
      </trkpt>
      <trkpt lat="43.17801" lon="-1.37586">
        <ele>435</ele>
        <time>2023-05-17T19:28:06Z</time>
      </trkpt>
      <trkpt lat="43.17809" lon="-1.37574">
        <ele>435</ele>
        <time>2023-05-17T19:28:08Z</time>
      </trkpt>
      <trkpt lat="43.17816" lon="-1.37568">
        <ele>435</ele>
        <time>2023-05-17T19:28:09Z</time>
      </trkpt>
      <trkpt lat="43.17843" lon="-1.37553">
        <ele>436</ele>
        <time>2023-05-17T19:28:14Z</time>
      </trkpt>
      <trkpt lat="43.17863" lon="-1.37535">
        <ele>429</ele>
        <time>2023-05-17T19:28:19Z</time>
      </trkpt>
      <trkpt lat="43.17873" lon="-1.37531">
        <ele>427</ele>
        <time>2023-05-17T19:28:20Z</time>
      </trkpt>
      <trkpt lat="43.17878" lon="-1.37532">
        <ele>428</ele>
        <time>2023-05-17T19:28:21Z</time>
      </trkpt>
      <trkpt lat="43.17932" lon="-1.37586">
        <ele>441</ele>
        <time>2023-05-17T19:28:33Z</time>
      </trkpt>
      <trkpt lat="43.17968" lon="-1.37613">
        <ele>441</ele>
        <time>2023-05-17T19:28:41Z</time>
      </trkpt>
      <trkpt lat="43.17989" lon="-1.37624">
        <ele>440</ele>
        <time>2023-05-17T19:28:45Z</time>
      </trkpt>
      <trkpt lat="43.18031" lon="-1.37635">
        <ele>435</ele>
        <time>2023-05-17T19:28:52Z</time>
      </trkpt>
      <trkpt lat="43.18056" lon="-1.37647">
        <ele>438</ele>
        <time>2023-05-17T19:28:57Z</time>
      </trkpt>
      <trkpt lat="43.18074" lon="-1.37649">
        <ele>436</ele>
        <time>2023-05-17T19:29:00Z</time>
      </trkpt>
      <trkpt lat="43.18102" lon="-1.37641">
        <ele>430</ele>
        <time>2023-05-17T19:29:05Z</time>
      </trkpt>
      <trkpt lat="43.1818" lon="-1.37604">
        <ele>414</ele>
        <time>2023-05-17T19:29:20Z</time>
      </trkpt>
      <trkpt lat="43.18195" lon="-1.37603">
        <ele>414</ele>
        <time>2023-05-17T19:29:23Z</time>
      </trkpt>
      <trkpt lat="43.18259" lon="-1.3762">
        <ele>421</ele>
        <time>2023-05-17T19:29:34Z</time>
      </trkpt>
      <trkpt lat="43.18281" lon="-1.37618">
        <ele>423</ele>
        <time>2023-05-17T19:29:38Z</time>
      </trkpt>
      <trkpt lat="43.18325" lon="-1.37596">
        <ele>421</ele>
        <time>2023-05-17T19:29:46Z</time>
      </trkpt>
      <trkpt lat="43.18338" lon="-1.37583">
        <ele>418</ele>
        <time>2023-05-17T19:29:49Z</time>
      </trkpt>
      <trkpt lat="43.18342" lon="-1.37568">
        <ele>422</ele>
        <time>2023-05-17T19:29:51Z</time>
      </trkpt>
      <trkpt lat="43.18335" lon="-1.37556">
        <ele>423</ele>
        <time>2023-05-17T19:29:53Z</time>
      </trkpt>
      <trkpt lat="43.18304" lon="-1.37551">
        <ele>417</ele>
        <time>2023-05-17T19:29:59Z</time>
      </trkpt>
      <trkpt lat="43.18284" lon="-1.37541">
        <ele>413</ele>
        <time>2023-05-17T19:30:03Z</time>
      </trkpt>
      <trkpt lat="43.18265" lon="-1.37518">
        <ele>408</ele>
        <time>2023-05-17T19:30:07Z</time>
      </trkpt>
      <trkpt lat="43.18233" lon="-1.37486">
        <ele>402</ele>
        <time>2023-05-17T19:30:14Z</time>
      </trkpt>
      <trkpt lat="43.1822" lon="-1.37476">
        <ele>400</ele>
        <time>2023-05-17T19:30:17Z</time>
      </trkpt>
      <trkpt lat="43.18173" lon="-1.37454">
        <ele>390</ele>
        <time>2023-05-17T19:30:26Z</time>
      </trkpt>
      <trkpt lat="43.18141" lon="-1.37444">
        <ele>383</ele>
        <time>2023-05-17T19:30:32Z</time>
      </trkpt>
      <trkpt lat="43.18134" lon="-1.37432">
        <ele>382</ele>
        <time>2023-05-17T19:30:34Z</time>
      </trkpt>
      <trkpt lat="43.18131" lon="-1.37394">
        <ele>388</ele>
        <time>2023-05-17T19:30:38Z</time>
      </trkpt>
      <trkpt lat="43.18126" lon="-1.37381">
        <ele>389</ele>
        <time>2023-05-17T19:30:40Z</time>
      </trkpt>
      <trkpt lat="43.18115" lon="-1.37371">
        <ele>387</ele>
        <time>2023-05-17T19:30:43Z</time>
      </trkpt>
      <trkpt lat="43.18079" lon="-1.37352">
        <ele>378</ele>
        <time>2023-05-17T19:30:50Z</time>
      </trkpt>
      <trkpt lat="43.18067" lon="-1.3734">
        <ele>374</ele>
        <time>2023-05-17T19:30:52Z</time>
      </trkpt>
      <trkpt lat="43.18056" lon="-1.37309">
        <ele>371</ele>
        <time>2023-05-17T19:30:57Z</time>
      </trkpt>
      <trkpt lat="43.18053" lon="-1.3728">
        <ele>371</ele>
        <time>2023-05-17T19:31:01Z</time>
      </trkpt>
      <trkpt lat="43.18054" lon="-1.37154">
        <ele>378</ele>
        <time>2023-05-17T19:31:17Z</time>
      </trkpt>
      <trkpt lat="43.18048" lon="-1.37127">
        <ele>379</ele>
        <time>2023-05-17T19:31:21Z</time>
      </trkpt>
      <trkpt lat="43.18033" lon="-1.37095">
        <ele>375</ele>
        <time>2023-05-17T19:31:25Z</time>
      </trkpt>
      <trkpt lat="43.18006" lon="-1.37062">
        <ele>370</ele>
        <time>2023-05-17T19:31:32Z</time>
      </trkpt>
      <trkpt lat="43.17998" lon="-1.37056">
        <ele>368</ele>
        <time>2023-05-17T19:31:34Z</time>
      </trkpt>
      <trkpt lat="43.17945" lon="-1.3703">
        <ele>363</ele>
        <time>2023-05-17T19:31:44Z</time>
      </trkpt>
      <trkpt lat="43.17902" lon="-1.37028">
        <ele>353</ele>
        <time>2023-05-17T19:31:51Z</time>
      </trkpt>
      <trkpt lat="43.17853" lon="-1.37012">
        <ele>349</ele>
        <time>2023-05-17T19:32:00Z</time>
      </trkpt>
      <trkpt lat="43.17803" lon="-1.37012">
        <ele>341</ele>
        <time>2023-05-17T19:32:09Z</time>
      </trkpt>
      <trkpt lat="43.17773" lon="-1.37006">
        <ele>339</ele>
        <time>2023-05-17T19:32:14Z</time>
      </trkpt>
      <trkpt lat="43.17753" lon="-1.37012">
        <ele>335</ele>
        <time>2023-05-17T19:32:18Z</time>
      </trkpt>
      <trkpt lat="43.17735" lon="-1.37012">
        <ele>330</ele>
        <time>2023-05-17T19:32:21Z</time>
      </trkpt>
      <trkpt lat="43.17727" lon="-1.37004">
        <ele>330</ele>
        <time>2023-05-17T19:32:23Z</time>
      </trkpt>
      <trkpt lat="43.17724" lon="-1.36989">
        <ele>331</ele>
        <time>2023-05-17T19:32:25Z</time>
      </trkpt>
      <trkpt lat="43.17736" lon="-1.36938">
        <ele>339</ele>
        <time>2023-05-17T19:32:32Z</time>
      </trkpt>
      <trkpt lat="43.17739" lon="-1.36915">
        <ele>342</ele>
        <time>2023-05-17T19:32:35Z</time>
      </trkpt>
      <trkpt lat="43.17729" lon="-1.36777">
        <ele>333</ele>
        <time>2023-05-17T19:32:53Z</time>
      </trkpt>
      <trkpt lat="43.17731" lon="-1.36696">
        <ele>327</ele>
        <time>2023-05-17T19:33:04Z</time>
      </trkpt>
      <trkpt lat="43.17733" lon="-1.36683">
        <ele>327</ele>
        <time>2023-05-17T19:33:05Z</time>
      </trkpt>
      <trkpt lat="43.17741" lon="-1.3666">
        <ele>328</ele>
        <time>2023-05-17T19:33:09Z</time>
      </trkpt>
      <trkpt lat="43.17781" lon="-1.36585">
        <ele>333</ele>
        <time>2023-05-17T19:33:21Z</time>
      </trkpt>
      <trkpt lat="43.17791" lon="-1.36561">
        <ele>335</ele>
        <time>2023-05-17T19:33:24Z</time>
      </trkpt>
      <trkpt lat="43.17801" lon="-1.36526">
        <ele>334</ele>
        <time>2023-05-17T19:33:29Z</time>
      </trkpt>
      <trkpt lat="43.17804" lon="-1.3649">
        <ele>330</ele>
        <time>2023-05-17T19:33:34Z</time>
      </trkpt>
      <trkpt lat="43.178" lon="-1.36476">
        <ele>330</ele>
        <time>2023-05-17T19:33:36Z</time>
      </trkpt>
      <trkpt lat="43.17789" lon="-1.36463">
        <ele>326</ele>
        <time>2023-05-17T19:33:38Z</time>
      </trkpt>
      <trkpt lat="43.17722" lon="-1.36437">
        <ele>298</ele>
        <time>2023-05-17T19:33:51Z</time>
      </trkpt>
      <trkpt lat="43.1771" lon="-1.3643">
        <ele>294</ele>
        <time>2023-05-17T19:33:53Z</time>
      </trkpt>
      <trkpt lat="43.17697" lon="-1.36418">
        <ele>290</ele>
        <time>2023-05-17T19:33:56Z</time>
      </trkpt>
      <trkpt lat="43.17694" lon="-1.36412">
        <ele>288</ele>
        <time>2023-05-17T19:33:57Z</time>
      </trkpt>
      <trkpt lat="43.17696" lon="-1.36386">
        <ele>287</ele>
        <time>2023-05-17T19:34:00Z</time>
      </trkpt>
      <trkpt lat="43.17716" lon="-1.36357">
        <ele>297</ele>
        <time>2023-05-17T19:34:05Z</time>
      </trkpt>
      <trkpt lat="43.17719" lon="-1.36349">
        <ele>299</ele>
        <time>2023-05-17T19:34:07Z</time>
      </trkpt>
      <trkpt lat="43.17728" lon="-1.36286">
        <ele>296</ele>
        <time>2023-05-17T19:34:15Z</time>
      </trkpt>
      <trkpt lat="43.1774" lon="-1.36249">
        <ele>297</ele>
        <time>2023-05-17T19:34:20Z</time>
      </trkpt>
      <trkpt lat="43.1775" lon="-1.36228">
        <ele>302</ele>
        <time>2023-05-17T19:34:23Z</time>
      </trkpt>
      <trkpt lat="43.17754" lon="-1.36209">
        <ele>304</ele>
        <time>2023-05-17T19:34:26Z</time>
      </trkpt>
      <trkpt lat="43.17753" lon="-1.36191">
        <ele>302</ele>
        <time>2023-05-17T19:34:28Z</time>
      </trkpt>
      <trkpt lat="43.17735" lon="-1.36139">
        <ele>288</ele>
        <time>2023-05-17T19:34:36Z</time>
      </trkpt>
      <trkpt lat="43.17739" lon="-1.36078">
        <ele>292</ele>
        <time>2023-05-17T19:34:44Z</time>
      </trkpt>
      <trkpt lat="43.17735" lon="-1.36056">
        <ele>290</ele>
        <time>2023-05-17T19:34:47Z</time>
      </trkpt>
      <trkpt lat="43.17724" lon="-1.36022">
        <ele>284</ele>
        <time>2023-05-17T19:34:51Z</time>
      </trkpt>
      <trkpt lat="43.17707" lon="-1.35937">
        <ele>285</ele>
        <time>2023-05-17T19:35:03Z</time>
      </trkpt>
      <trkpt lat="43.17694" lon="-1.35909">
        <ele>283</ele>
        <time>2023-05-17T19:35:07Z</time>
      </trkpt>
      <trkpt lat="43.17671" lon="-1.35881">
        <ele>278</ele>
        <time>2023-05-17T19:35:13Z</time>
      </trkpt>
      <trkpt lat="43.17626" lon="-1.3584">
        <ele>275</ele>
        <time>2023-05-17T19:35:22Z</time>
      </trkpt>
      <trkpt lat="43.17604" lon="-1.35828">
        <ele>272</ele>
        <time>2023-05-17T19:35:26Z</time>
      </trkpt>
      <trkpt lat="43.17567" lon="-1.35819">
        <ele>267</ele>
        <time>2023-05-17T19:35:33Z</time>
      </trkpt>
      <trkpt lat="43.17544" lon="-1.35816">
        <ele>266</ele>
        <time>2023-05-17T19:35:37Z</time>
      </trkpt>
      <trkpt lat="43.17482" lon="-1.35814">
        <ele>259</ele>
        <time>2023-05-17T19:35:48Z</time>
      </trkpt>
      <trkpt lat="43.17421" lon="-1.35819">
        <ele>247</ele>
        <time>2023-05-17T19:35:59Z</time>
      </trkpt>
      <trkpt lat="43.17402" lon="-1.35812">
        <ele>242</ele>
        <time>2023-05-17T19:36:03Z</time>
      </trkpt>
      <trkpt lat="43.17393" lon="-1.35801">
        <ele>241</ele>
        <time>2023-05-17T19:36:05Z</time>
      </trkpt>
      <trkpt lat="43.17386" lon="-1.35779">
        <ele>242</ele>
        <time>2023-05-17T19:36:08Z</time>
      </trkpt>
      <trkpt lat="43.17381" lon="-1.35751">
        <ele>244</ele>
        <time>2023-05-17T19:36:12Z</time>
      </trkpt>
      <trkpt lat="43.1738" lon="-1.35722">
        <ele>242</ele>
        <time>2023-05-17T19:36:15Z</time>
      </trkpt>
      <trkpt lat="43.17385" lon="-1.35696">
        <ele>244</ele>
        <time>2023-05-17T19:36:19Z</time>
      </trkpt>
      <trkpt lat="43.17415" lon="-1.35637">
        <ele>251</ele>
        <time>2023-05-17T19:36:28Z</time>
      </trkpt>
      <trkpt lat="43.1743" lon="-1.35582">
        <ele>248</ele>
        <time>2023-05-17T19:36:36Z</time>
      </trkpt>
      <trkpt lat="43.17444" lon="-1.35545">
        <ele>245</ele>
        <time>2023-05-17T19:36:41Z</time>
      </trkpt>
      <trkpt lat="43.17466" lon="-1.35447">
        <ele>229</ele>
        <time>2023-05-17T19:36:55Z</time>
      </trkpt>
      <trkpt lat="43.17475" lon="-1.35424">
        <ele>226</ele>
        <time>2023-05-17T19:36:58Z</time>
      </trkpt>
      <trkpt lat="43.175" lon="-1.35392">
        <ele>226</ele>
        <time>2023-05-17T19:37:04Z</time>
      </trkpt>
      <trkpt lat="43.17518" lon="-1.35382">
        <ele>228</ele>
        <time>2023-05-17T19:37:08Z</time>
      </trkpt>
      <trkpt lat="43.17566" lon="-1.35371">
        <ele>236</ele>
        <time>2023-05-17T19:37:16Z</time>
      </trkpt>
      <trkpt lat="43.17575" lon="-1.35365">
        <ele>236</ele>
        <time>2023-05-17T19:37:18Z</time>
      </trkpt>
      <trkpt lat="43.17585" lon="-1.3535">
        <ele>233</ele>
        <time>2023-05-17T19:37:21Z</time>
      </trkpt>
      <trkpt lat="43.17588" lon="-1.35333">
        <ele>227</ele>
        <time>2023-05-17T19:37:23Z</time>
      </trkpt>
      <trkpt lat="43.17585" lon="-1.35242">
        <ele>216</ele>
        <time>2023-05-17T19:37:35Z</time>
      </trkpt>
      <trkpt lat="43.17586" lon="-1.35202">
        <ele>213</ele>
        <time>2023-05-17T19:37:40Z</time>
      </trkpt>
      <trkpt lat="43.17592" lon="-1.35172">
        <ele>211</ele>
        <time>2023-05-17T19:37:44Z</time>
      </trkpt>
      <trkpt lat="43.17607" lon="-1.35131">
        <ele>207</ele>
        <time>2023-05-17T19:37:50Z</time>
      </trkpt>
      <trkpt lat="43.17623" lon="-1.3511">
        <ele>205</ele>
        <time>2023-05-17T19:37:54Z</time>
      </trkpt>
      <trkpt lat="43.17672" lon="-1.35071">
        <ele>204</ele>
        <time>2023-05-17T19:38:04Z</time>
      </trkpt>
      <trkpt lat="43.17686" lon="-1.35065">
        <ele>202</ele>
        <time>2023-05-17T19:38:07Z</time>
      </trkpt>
      <trkpt lat="43.17699" lon="-1.35069">
        <ele>202</ele>
        <time>2023-05-17T19:38:09Z</time>
      </trkpt>
      <trkpt lat="43.17739" lon="-1.35104">
        <ele>205</ele>
        <time>2023-05-17T19:38:17Z</time>
      </trkpt>
      <trkpt lat="43.17754" lon="-1.35113">
        <ele>206</ele>
        <time>2023-05-17T19:38:20Z</time>
      </trkpt>
      <trkpt lat="43.17761" lon="-1.35114">
        <ele>207</ele>
        <time>2023-05-17T19:38:22Z</time>
      </trkpt>
      <trkpt lat="43.17772" lon="-1.3511">
        <ele>208</ele>
        <time>2023-05-17T19:38:24Z</time>
      </trkpt>
      <trkpt lat="43.17776" lon="-1.35106">
        <ele>207</ele>
        <time>2023-05-17T19:38:24Z</time>
      </trkpt>
      <trkpt lat="43.17781" lon="-1.35093">
        <ele>206</ele>
        <time>2023-05-17T19:38:26Z</time>
      </trkpt>
      <trkpt lat="43.17777" lon="-1.35069">
        <ele>202</ele>
        <time>2023-05-17T19:38:30Z</time>
      </trkpt>
      <trkpt lat="43.17773" lon="-1.35058">
        <ele>201</ele>
        <time>2023-05-17T19:38:31Z</time>
      </trkpt>
      <trkpt lat="43.17763" lon="-1.35042">
        <ele>198</ele>
        <time>2023-05-17T19:38:34Z</time>
      </trkpt>
      <trkpt lat="43.17749" lon="-1.35032">
        <ele>196</ele>
        <time>2023-05-17T19:38:37Z</time>
      </trkpt>
      <trkpt lat="43.17742" lon="-1.3503">
        <ele>196</ele>
        <time>2023-05-17T19:38:38Z</time>
      </trkpt>
      <trkpt lat="43.17717" lon="-1.35033">
        <ele>197</ele>
        <time>2023-05-17T19:38:42Z</time>
      </trkpt>
      <trkpt lat="43.17707" lon="-1.35028">
        <ele>196</ele>
        <time>2023-05-17T19:38:44Z</time>
      </trkpt>
      <trkpt lat="43.17699" lon="-1.35013">
        <ele>194</ele>
        <time>2023-05-17T19:38:47Z</time>
      </trkpt>
      <trkpt lat="43.1769" lon="-1.34983">
        <ele>190</ele>
        <time>2023-05-17T19:38:51Z</time>
      </trkpt>
      <trkpt lat="43.17678" lon="-1.34955">
        <ele>187</ele>
        <time>2023-05-17T19:38:55Z</time>
      </trkpt>
      <trkpt lat="43.17665" lon="-1.34934">
        <ele>184</ele>
        <time>2023-05-17T19:38:59Z</time>
      </trkpt>
      <trkpt lat="43.17651" lon="-1.34926">
        <ele>182</ele>
        <time>2023-05-17T19:39:01Z</time>
      </trkpt>
      <trkpt lat="43.17635" lon="-1.34927">
        <ele>180</ele>
        <time>2023-05-17T19:39:04Z</time>
      </trkpt>
      <trkpt lat="43.17587" lon="-1.34951">
        <ele>177</ele>
        <time>2023-05-17T19:39:13Z</time>
      </trkpt>
      <trkpt lat="43.17578" lon="-1.34958">
        <ele>176</ele>
        <time>2023-05-17T19:39:15Z</time>
      </trkpt>
      <trkpt lat="43.17547" lon="-1.34997">
        <ele>176</ele>
        <time>2023-05-17T19:39:23Z</time>
      </trkpt>
      <trkpt lat="43.17532" lon="-1.35008">
        <ele>175</ele>
        <time>2023-05-17T19:39:26Z</time>
      </trkpt>
      <trkpt lat="43.17526" lon="-1.35008">
        <ele>174</ele>
        <time>2023-05-17T19:39:27Z</time>
      </trkpt>
      <trkpt lat="43.17518" lon="-1.35003">
        <ele>173</ele>
        <time>2023-05-17T19:39:28Z</time>
      </trkpt>
      <trkpt lat="43.17512" lon="-1.34992">
        <ele>171</ele>
        <time>2023-05-17T19:39:30Z</time>
      </trkpt>
      <trkpt lat="43.17511" lon="-1.34981">
        <ele>169</ele>
        <time>2023-05-17T19:39:32Z</time>
      </trkpt>
      <trkpt lat="43.17514" lon="-1.34971">
        <ele>169</ele>
        <time>2023-05-17T19:39:33Z</time>
      </trkpt>
      <trkpt lat="43.17558" lon="-1.34916">
        <ele>168</ele>
        <time>2023-05-17T19:39:44Z</time>
      </trkpt>
      <trkpt lat="43.17573" lon="-1.34889">
        <ele>167</ele>
        <time>2023-05-17T19:39:48Z</time>
      </trkpt>
      <trkpt lat="43.17583" lon="-1.34863">
        <ele>165</ele>
        <time>2023-05-17T19:39:52Z</time>
      </trkpt>
      <trkpt lat="43.17586" lon="-1.34835">
        <ele>162</ele>
        <time>2023-05-17T19:39:55Z</time>
      </trkpt>
      <trkpt lat="43.17584" lon="-1.34825">
        <ele>161</ele>
        <time>2023-05-17T19:39:57Z</time>
      </trkpt>
      <trkpt lat="43.17572" lon="-1.34805">
        <ele>160</ele>
        <time>2023-05-17T19:40:00Z</time>
      </trkpt>
      <trkpt lat="43.17507" lon="-1.3473">
        <ele>162</ele>
        <time>2023-05-17T19:40:15Z</time>
      </trkpt>
      <trkpt lat="43.17527" lon="-1.34703">
        <ele>162</ele>
        <time>2023-05-17T19:40:20Z</time>
      </trkpt>
      <trkpt lat="43.17542" lon="-1.34677">
        <ele>162</ele>
        <time>2023-05-17T19:40:25Z</time>
      </trkpt>
      <trkpt lat="43.17582" lon="-1.34581">
        <ele>160</ele>
        <time>2023-05-17T19:40:39Z</time>
      </trkpt>
      <trkpt lat="43.17524" lon="-1.34536">
        <ele>162</ele>
        <time>2023-05-17T19:40:51Z</time>
      </trkpt>
      <trkpt lat="43.17485" lon="-1.34539">
        <ele>165</ele>
        <time>2023-05-17T19:40:58Z</time>
      </trkpt>
      <trkpt lat="43.17467" lon="-1.34533">
        <ele>167</ele>
        <time>2023-05-17T19:41:01Z</time>
      </trkpt>
      <trkpt lat="43.17471" lon="-1.34519">
        <ele>167</ele>
        <time>2023-05-17T19:41:03Z</time>
      </trkpt>
      <trkpt lat="43.17464" lon="-1.34506">
        <ele>169</ele>
        <time>2023-05-17T19:41:05Z</time>
      </trkpt>
      <trkpt lat="43.17614" lon="-1.34131">
        <ele>171</ele>
        <time>2023-05-17T19:42:01Z</time>
      </trkpt>
      <trkpt lat="43.17644" lon="-1.34045">
        <ele>166</ele>
        <time>2023-05-17T19:42:13Z</time>
      </trkpt>
      <trkpt lat="43.17705" lon="-1.33855">
        <ele>163</ele>
        <time>2023-05-17T19:42:40Z</time>
      </trkpt>
      <trkpt lat="43.1774" lon="-1.33773">
        <ele>160</ele>
        <time>2023-05-17T19:42:52Z</time>
      </trkpt>
      <trkpt lat="43.17769" lon="-1.33726">
        <ele>159</ele>
        <time>2023-05-17T19:43:00Z</time>
      </trkpt>
      <trkpt lat="43.17805" lon="-1.33686">
        <ele>160</ele>
        <time>2023-05-17T19:43:08Z</time>
      </trkpt>
      <trkpt lat="43.17837" lon="-1.33659">
        <ele>160</ele>
        <time>2023-05-17T19:43:15Z</time>
      </trkpt>
      <trkpt lat="43.17869" lon="-1.33641">
        <ele>160</ele>
        <time>2023-05-17T19:43:21Z</time>
      </trkpt>
      <trkpt lat="43.17906" lon="-1.33627">
        <ele>161</ele>
        <time>2023-05-17T19:43:28Z</time>
      </trkpt>
      <trkpt lat="43.18041" lon="-1.33592">
        <ele>162</ele>
        <time>2023-05-17T19:43:53Z</time>
      </trkpt>
      <trkpt lat="43.18074" lon="-1.33576">
        <ele>162</ele>
        <time>2023-05-17T19:43:59Z</time>
      </trkpt>
      <trkpt lat="43.18103" lon="-1.33554">
        <ele>162</ele>
        <time>2023-05-17T19:44:05Z</time>
      </trkpt>
      <trkpt lat="43.18115" lon="-1.33542">
        <ele>161</ele>
        <time>2023-05-17T19:44:07Z</time>
      </trkpt>
      <trkpt lat="43.18159" lon="-1.33479">
        <ele>160</ele>
        <time>2023-05-17T19:44:19Z</time>
      </trkpt>
      <trkpt lat="43.18165" lon="-1.33481">
        <ele>159</ele>
        <time>2023-05-17T19:44:20Z</time>
      </trkpt>
      <trkpt lat="43.18171" lon="-1.33479">
        <ele>159</ele>
        <time>2023-05-17T19:44:21Z</time>
      </trkpt>
      <trkpt lat="43.18175" lon="-1.33473">
        <ele>159</ele>
        <time>2023-05-17T19:44:22Z</time>
      </trkpt>
      <trkpt lat="43.18187" lon="-1.33494">
        <ele>156</ele>
        <time>2023-05-17T19:44:25Z</time>
      </trkpt>
      <trkpt lat="43.18201" lon="-1.3351">
        <ele>154</ele>
        <time>2023-05-17T19:44:29Z</time>
      </trkpt>
      <trkpt lat="43.18214" lon="-1.33517">
        <ele>153</ele>
        <time>2023-05-17T19:44:31Z</time>
      </trkpt>
      <trkpt lat="43.18242" lon="-1.33525">
        <ele>151</ele>
        <time>2023-05-17T19:44:36Z</time>
      </trkpt>
      <trkpt lat="43.18245" lon="-1.33538">
        <ele>151</ele>
        <time>2023-05-17T19:44:38Z</time>
      </trkpt>
      <trkpt lat="43.18252" lon="-1.33538">
        <ele>151</ele>
        <time>2023-05-17T19:44:39Z</time>
      </trkpt>
      <trkpt lat="43.18256" lon="-1.33526">
        <ele>151</ele>
        <time>2023-05-17T19:44:41Z</time>
      </trkpt>
      <trkpt lat="43.18254" lon="-1.33519">
        <ele>151</ele>
        <time>2023-05-17T19:44:42Z</time>
      </trkpt>
      <trkpt lat="43.18251" lon="-1.33518">
        <ele>151</ele>
        <time>2023-05-17T19:44:42Z</time>
      </trkpt>
      <trkpt lat="43.18258" lon="-1.33501">
        <ele>151</ele>
        <time>2023-05-17T19:44:45Z</time>
      </trkpt>
      <trkpt lat="43.1827" lon="-1.33481">
        <ele>150</ele>
        <time>2023-05-17T19:44:48Z</time>
      </trkpt>
      <trkpt lat="43.18354" lon="-1.33364">
        <ele>148</ele>
        <time>2023-05-17T19:45:10Z</time>
      </trkpt>
      <trkpt lat="43.18371" lon="-1.33334">
        <ele>147</ele>
        <time>2023-05-17T19:45:15Z</time>
      </trkpt>
      <trkpt lat="43.18382" lon="-1.33297">
        <ele>147</ele>
        <time>2023-05-17T19:45:20Z</time>
      </trkpt>
      <trkpt lat="43.18405" lon="-1.33207">
        <ele>148</ele>
        <time>2023-05-17T19:45:32Z</time>
      </trkpt>
      <trkpt lat="43.18407" lon="-1.33167">
        <ele>148</ele>
        <time>2023-05-17T19:45:37Z</time>
      </trkpt>
      <trkpt lat="43.18399" lon="-1.33072">
        <ele>152</ele>
        <time>2023-05-17T19:45:50Z</time>
      </trkpt>
      <trkpt lat="43.18401" lon="-1.3304">
        <ele>154</ele>
        <time>2023-05-17T19:45:54Z</time>
      </trkpt>
      <trkpt lat="43.18406" lon="-1.3302">
        <ele>155</ele>
        <time>2023-05-17T19:45:57Z</time>
      </trkpt>
      <trkpt lat="43.18421" lon="-1.32981">
        <ele>155</ele>
        <time>2023-05-17T19:46:02Z</time>
      </trkpt>
      <trkpt lat="43.18424" lon="-1.32947">
        <ele>157</ele>
        <time>2023-05-17T19:46:07Z</time>
      </trkpt>
      <trkpt lat="43.18406" lon="-1.32879">
        <ele>159</ele>
        <time>2023-05-17T19:46:16Z</time>
      </trkpt>
      <trkpt lat="43.18398" lon="-1.32861">
        <ele>160</ele>
        <time>2023-05-17T19:46:19Z</time>
      </trkpt>
      <trkpt lat="43.18388" lon="-1.32847">
        <ele>161</ele>
        <time>2023-05-17T19:46:21Z</time>
      </trkpt>
      <trkpt lat="43.18224" lon="-1.32698">
        <ele>172</ele>
        <time>2023-05-17T19:46:56Z</time>
      </trkpt>
      <trkpt lat="43.18212" lon="-1.32684">
        <ele>173</ele>
        <time>2023-05-17T19:46:59Z</time>
      </trkpt>
      <trkpt lat="43.182" lon="-1.32659">
        <ele>174</ele>
        <time>2023-05-17T19:47:03Z</time>
      </trkpt>
      <trkpt lat="43.18171" lon="-1.32514">
        <ele>170</ele>
        <time>2023-05-17T19:47:23Z</time>
      </trkpt>
      <trkpt lat="43.18108" lon="-1.32345">
        <ele>169</ele>
        <time>2023-05-17T19:47:47Z</time>
      </trkpt>
      <trkpt lat="43.181" lon="-1.32319">
        <ele>169</ele>
        <time>2023-05-17T19:47:51Z</time>
      </trkpt>
      <trkpt lat="43.18097" lon="-1.32295">
        <ele>168</ele>
        <time>2023-05-17T19:47:54Z</time>
      </trkpt>
      <trkpt lat="43.18099" lon="-1.32267">
        <ele>167</ele>
        <time>2023-05-17T19:47:58Z</time>
      </trkpt>
      <trkpt lat="43.18107" lon="-1.32248">
        <ele>166</ele>
        <time>2023-05-17T19:48:01Z</time>
      </trkpt>
      <trkpt lat="43.18156" lon="-1.32195">
        <ele>169</ele>
        <time>2023-05-17T19:48:12Z</time>
      </trkpt>
      <trkpt lat="43.18163" lon="-1.32185">
        <ele>170</ele>
        <time>2023-05-17T19:48:13Z</time>
      </trkpt>
      <trkpt lat="43.18176" lon="-1.32156">
        <ele>175</ele>
        <time>2023-05-17T19:48:18Z</time>
      </trkpt>
      <trkpt lat="43.18184" lon="-1.32114">
        <ele>182</ele>
        <time>2023-05-17T19:48:24Z</time>
      </trkpt>
      <trkpt lat="43.18183" lon="-1.32085">
        <ele>185</ele>
        <time>2023-05-17T19:48:27Z</time>
      </trkpt>
      <trkpt lat="43.1818" lon="-1.3207">
        <ele>185</ele>
        <time>2023-05-17T19:48:29Z</time>
      </trkpt>
      <trkpt lat="43.18175" lon="-1.32055">
        <ele>184</ele>
        <time>2023-05-17T19:48:31Z</time>
      </trkpt>
      <trkpt lat="43.18162" lon="-1.32032">
        <ele>183</ele>
        <time>2023-05-17T19:48:35Z</time>
      </trkpt>
      <trkpt lat="43.18141" lon="-1.32011">
        <ele>181</ele>
        <time>2023-05-17T19:48:40Z</time>
      </trkpt>
      <trkpt lat="43.18094" lon="-1.31973">
        <ele>179</ele>
        <time>2023-05-17T19:48:50Z</time>
      </trkpt>
      <trkpt lat="43.18078" lon="-1.31954">
        <ele>179</ele>
        <time>2023-05-17T19:48:53Z</time>
      </trkpt>
      <trkpt lat="43.18067" lon="-1.3193">
        <ele>180</ele>
        <time>2023-05-17T19:48:57Z</time>
      </trkpt>
      <trkpt lat="43.18054" lon="-1.31868">
        <ele>183</ele>
        <time>2023-05-17T19:49:05Z</time>
      </trkpt>
      <trkpt lat="43.18045" lon="-1.31853">
        <ele>184</ele>
        <time>2023-05-17T19:49:08Z</time>
      </trkpt>
      <trkpt lat="43.17999" lon="-1.31812">
        <ele>184</ele>
        <time>2023-05-17T19:49:18Z</time>
      </trkpt>
      <trkpt lat="43.1799" lon="-1.318">
        <ele>185</ele>
        <time>2023-05-17T19:49:20Z</time>
      </trkpt>
      <trkpt lat="43.17974" lon="-1.31768">
        <ele>187</ele>
        <time>2023-05-17T19:49:25Z</time>
      </trkpt>
      <trkpt lat="43.17915" lon="-1.31636">
        <ele>202</ele>
        <time>2023-05-17T19:49:45Z</time>
      </trkpt>
      <trkpt lat="43.17907" lon="-1.31609">
        <ele>203</ele>
        <time>2023-05-17T19:49:49Z</time>
      </trkpt>
      <trkpt lat="43.17894" lon="-1.31514">
        <ele>206</ele>
        <time>2023-05-17T19:50:01Z</time>
      </trkpt>
      <trkpt lat="43.17884" lon="-1.31468">
        <ele>208</ele>
        <time>2023-05-17T19:50:08Z</time>
      </trkpt>
      <trkpt lat="43.17843" lon="-1.31356">
        <ele>221</ele>
        <time>2023-05-17T19:50:24Z</time>
      </trkpt>
      <trkpt lat="43.17827" lon="-1.31292">
        <ele>224</ele>
        <time>2023-05-17T19:50:33Z</time>
      </trkpt>
      <trkpt lat="43.17819" lon="-1.3123">
        <ele>225</ele>
        <time>2023-05-17T19:50:41Z</time>
      </trkpt>
      <trkpt lat="43.1782" lon="-1.31153">
        <ele>225</ele>
        <time>2023-05-17T19:50:51Z</time>
      </trkpt>
      <trkpt lat="43.17831" lon="-1.31074">
        <ele>230</ele>
        <time>2023-05-17T19:51:01Z</time>
      </trkpt>
      <trkpt lat="43.17869" lon="-1.30915">
        <ele>243</ele>
        <time>2023-05-17T19:51:23Z</time>
      </trkpt>
      <trkpt lat="43.17886" lon="-1.3081">
        <ele>250</ele>
        <time>2023-05-17T19:51:37Z</time>
      </trkpt>
      <trkpt lat="43.17915" lon="-1.30712">
        <ele>252</ele>
        <time>2023-05-17T19:51:51Z</time>
      </trkpt>
      <trkpt lat="43.1792" lon="-1.3067">
        <ele>253</ele>
        <time>2023-05-17T19:51:56Z</time>
      </trkpt>
      <trkpt lat="43.17916" lon="-1.30619">
        <ele>253</ele>
        <time>2023-05-17T19:52:03Z</time>
      </trkpt>
      <trkpt lat="43.17869" lon="-1.30347">
        <ele>232</ele>
        <time>2023-05-17T19:52:39Z</time>
      </trkpt>
      <trkpt lat="43.17849" lon="-1.30281">
        <ele>229</ele>
        <time>2023-05-17T19:52:48Z</time>
      </trkpt>
      <trkpt lat="43.17812" lon="-1.30192">
        <ele>225</ele>
        <time>2023-05-17T19:53:02Z</time>
      </trkpt>
      <trkpt lat="43.17794" lon="-1.30169">
        <ele>223</ele>
        <time>2023-05-17T19:53:06Z</time>
      </trkpt>
      <trkpt lat="43.1777" lon="-1.30152">
        <ele>222</ele>
        <time>2023-05-17T19:53:11Z</time>
      </trkpt>
      <trkpt lat="43.17756" lon="-1.30145">
        <ele>221</ele>
        <time>2023-05-17T19:53:13Z</time>
      </trkpt>
      <trkpt lat="43.1774" lon="-1.30142">
        <ele>220</ele>
        <time>2023-05-17T19:53:16Z</time>
      </trkpt>
      <trkpt lat="43.17725" lon="-1.30143">
        <ele>219</ele>
        <time>2023-05-17T19:53:19Z</time>
      </trkpt>
      <trkpt lat="43.17691" lon="-1.3015">
        <ele>217</ele>
        <time>2023-05-17T19:53:25Z</time>
      </trkpt>
      <trkpt lat="43.17672" lon="-1.30146">
        <ele>216</ele>
        <time>2023-05-17T19:53:28Z</time>
      </trkpt>
      <trkpt lat="43.17655" lon="-1.30133">
        <ele>215</ele>
        <time>2023-05-17T19:53:32Z</time>
      </trkpt>
      <trkpt lat="43.17642" lon="-1.3011">
        <ele>215</ele>
        <time>2023-05-17T19:53:36Z</time>
      </trkpt>
      <trkpt lat="43.17637" lon="-1.30094">
        <ele>214</ele>
        <time>2023-05-17T19:53:38Z</time>
      </trkpt>
      <trkpt lat="43.17633" lon="-1.30059">
        <ele>213</ele>
        <time>2023-05-17T19:53:43Z</time>
      </trkpt>
      <trkpt lat="43.17637" lon="-1.30008">
        <ele>213</ele>
        <time>2023-05-17T19:53:49Z</time>
      </trkpt>
      <trkpt lat="43.17655" lon="-1.29866">
        <ele>210</ele>
        <time>2023-05-17T19:54:08Z</time>
      </trkpt>
      <trkpt lat="43.17657" lon="-1.29842">
        <ele>209</ele>
        <time>2023-05-17T19:54:11Z</time>
      </trkpt>
      <trkpt lat="43.17656" lon="-1.29803">
        <ele>207</ele>
        <time>2023-05-17T19:54:16Z</time>
      </trkpt>
      <trkpt lat="43.17646" lon="-1.2975">
        <ele>204</ele>
        <time>2023-05-17T19:54:23Z</time>
      </trkpt>
      <trkpt lat="43.17624" lon="-1.29689">
        <ele>201</ele>
        <time>2023-05-17T19:54:32Z</time>
      </trkpt>
      <trkpt lat="43.1761" lon="-1.29624">
        <ele>199</ele>
        <time>2023-05-17T19:54:41Z</time>
      </trkpt>
      <trkpt lat="43.17459" lon="-1.2816">
        <ele>179</ele>
        <time>2023-05-17T19:57:53Z</time>
      </trkpt>
      <trkpt lat="43.17437" lon="-1.27971">
        <ele>179</ele>
        <time>2023-05-17T19:58:18Z</time>
      </trkpt>
      <trkpt lat="43.17426" lon="-1.27921">
        <ele>178</ele>
        <time>2023-05-17T19:58:24Z</time>
      </trkpt>
      <trkpt lat="43.17408" lon="-1.27887">
        <ele>177</ele>
        <time>2023-05-17T19:58:30Z</time>
      </trkpt>
      <trkpt lat="43.17393" lon="-1.27871">
        <ele>177</ele>
        <time>2023-05-17T19:58:33Z</time>
      </trkpt>
      <trkpt lat="43.17376" lon="-1.2786">
        <ele>176</ele>
        <time>2023-05-17T19:58:37Z</time>
      </trkpt>
      <trkpt lat="43.17341" lon="-1.27848">
        <ele>176</ele>
        <time>2023-05-17T19:58:43Z</time>
      </trkpt>
      <trkpt lat="43.17328" lon="-1.27841">
        <ele>177</ele>
        <time>2023-05-17T19:58:45Z</time>
      </trkpt>
      <trkpt lat="43.17318" lon="-1.27832">
        <ele>178</ele>
        <time>2023-05-17T19:58:48Z</time>
      </trkpt>
      <trkpt lat="43.173" lon="-1.27807">
        <ele>181</ele>
        <time>2023-05-17T19:58:52Z</time>
      </trkpt>
      <trkpt lat="43.17291" lon="-1.2778">
        <ele>183</ele>
        <time>2023-05-17T19:58:56Z</time>
      </trkpt>
      <trkpt lat="43.17288" lon="-1.27761">
        <ele>183</ele>
        <time>2023-05-17T19:58:58Z</time>
      </trkpt>
      <trkpt lat="43.17287" lon="-1.2774">
        <ele>183</ele>
        <time>2023-05-17T19:59:01Z</time>
      </trkpt>
      <trkpt lat="43.17307" lon="-1.27002">
        <ele>176</ele>
        <time>2023-05-17T20:00:37Z</time>
      </trkpt>
      <trkpt lat="43.17306" lon="-1.26949">
        <ele>177</ele>
        <time>2023-05-17T20:00:44Z</time>
      </trkpt>
      <trkpt lat="43.17301" lon="-1.26917">
        <ele>178</ele>
        <time>2023-05-17T20:00:48Z</time>
      </trkpt>
      <trkpt lat="43.17292" lon="-1.2689">
        <ele>178</ele>
        <time>2023-05-17T20:00:52Z</time>
      </trkpt>
      <trkpt lat="43.17278" lon="-1.26866">
        <ele>177</ele>
        <time>2023-05-17T20:00:56Z</time>
      </trkpt>
      <trkpt lat="43.17254" lon="-1.26843">
        <ele>177</ele>
        <time>2023-05-17T20:01:01Z</time>
      </trkpt>
      <trkpt lat="43.17219" lon="-1.26821">
        <ele>178</ele>
        <time>2023-05-17T20:01:08Z</time>
      </trkpt>
      <trkpt lat="43.1708" lon="-1.26744">
        <ele>179</ele>
        <time>2023-05-17T20:01:35Z</time>
      </trkpt>
      <trkpt lat="43.17049" lon="-1.26719">
        <ele>179</ele>
        <time>2023-05-17T20:01:41Z</time>
      </trkpt>
      <trkpt lat="43.17038" lon="-1.26704">
        <ele>178</ele>
        <time>2023-05-17T20:01:44Z</time>
      </trkpt>
      <trkpt lat="43.17028" lon="-1.26688">
        <ele>178</ele>
        <time>2023-05-17T20:01:47Z</time>
      </trkpt>
      <trkpt lat="43.17019" lon="-1.26666">
        <ele>178</ele>
        <time>2023-05-17T20:01:50Z</time>
      </trkpt>
      <trkpt lat="43.17011" lon="-1.26615">
        <ele>179</ele>
        <time>2023-05-17T20:01:57Z</time>
      </trkpt>
      <trkpt lat="43.17005" lon="-1.26534">
        <ele>183</ele>
        <time>2023-05-17T20:02:07Z</time>
      </trkpt>
      <trkpt lat="43.16988" lon="-1.26474">
        <ele>186</ele>
        <time>2023-05-17T20:02:16Z</time>
      </trkpt>
      <trkpt lat="43.1687" lon="-1.26271">
        <ele>189</ele>
        <time>2023-05-17T20:02:49Z</time>
      </trkpt>
      <trkpt lat="43.16858" lon="-1.26246">
        <ele>189</ele>
        <time>2023-05-17T20:02:53Z</time>
      </trkpt>
      <trkpt lat="43.16846" lon="-1.26212">
        <ele>190</ele>
        <time>2023-05-17T20:02:58Z</time>
      </trkpt>
      <trkpt lat="43.16812" lon="-1.26055">
        <ele>186</ele>
        <time>2023-05-17T20:03:19Z</time>
      </trkpt>
      <trkpt lat="43.16801" lon="-1.25989">
        <ele>183</ele>
        <time>2023-05-17T20:03:28Z</time>
      </trkpt>
      <trkpt lat="43.168" lon="-1.25943">
        <ele>180</ele>
        <time>2023-05-17T20:03:34Z</time>
      </trkpt>
      <trkpt lat="43.16811" lon="-1.25806">
        <ele>176</ele>
        <time>2023-05-17T20:03:52Z</time>
      </trkpt>
      <trkpt lat="43.16813" lon="-1.25584">
        <ele>173</ele>
        <time>2023-05-17T20:04:21Z</time>
      </trkpt>
      <trkpt lat="43.16811" lon="-1.25428">
        <ele>178</ele>
        <time>2023-05-17T20:04:41Z</time>
      </trkpt>
      <trkpt lat="43.16782" lon="-1.25272">
        <ele>188</ele>
        <time>2023-05-17T20:05:02Z</time>
      </trkpt>
      <trkpt lat="43.16775" lon="-1.2525">
        <ele>189</ele>
        <time>2023-05-17T20:05:05Z</time>
      </trkpt>
      <trkpt lat="43.16752" lon="-1.2521">
        <ele>188</ele>
        <time>2023-05-17T20:05:12Z</time>
      </trkpt>
      <trkpt lat="43.16733" lon="-1.25194">
        <ele>186</ele>
        <time>2023-05-17T20:05:16Z</time>
      </trkpt>
      <trkpt lat="43.16611" lon="-1.25132">
        <ele>175</ele>
        <time>2023-05-17T20:05:39Z</time>
      </trkpt>
      <trkpt lat="43.16507" lon="-1.2509">
        <ele>166</ele>
        <time>2023-05-17T20:05:58Z</time>
      </trkpt>
      <trkpt lat="43.16494" lon="-1.25077">
        <ele>165</ele>
        <time>2023-05-17T20:06:01Z</time>
      </trkpt>
      <trkpt lat="43.16487" lon="-1.25061">
        <ele>164</ele>
        <time>2023-05-17T20:06:03Z</time>
      </trkpt>
      <trkpt lat="43.16487" lon="-1.25038">
        <ele>164</ele>
        <time>2023-05-17T20:06:06Z</time>
      </trkpt>
      <trkpt lat="43.16493" lon="-1.2502">
        <ele>163</ele>
        <time>2023-05-17T20:06:09Z</time>
      </trkpt>
      <trkpt lat="43.16505" lon="-1.25007">
        <ele>163</ele>
        <time>2023-05-17T20:06:12Z</time>
      </trkpt>
      <trkpt lat="43.16514" lon="-1.25002">
        <ele>163</ele>
        <time>2023-05-17T20:06:13Z</time>
      </trkpt>
      <trkpt lat="43.16539" lon="-1.24994">
        <ele>161</ele>
        <time>2023-05-17T20:06:18Z</time>
      </trkpt>
      <trkpt lat="43.16558" lon="-1.24985">
        <ele>161</ele>
        <time>2023-05-17T20:06:21Z</time>
      </trkpt>
      <trkpt lat="43.16575" lon="-1.24964">
        <ele>159</ele>
        <time>2023-05-17T20:06:26Z</time>
      </trkpt>
      <trkpt lat="43.16588" lon="-1.24937">
        <ele>158</ele>
        <time>2023-05-17T20:06:30Z</time>
      </trkpt>
      <trkpt lat="43.16664" lon="-1.24744">
        <ele>157</ele>
        <time>2023-05-17T20:06:58Z</time>
      </trkpt>
      <trkpt lat="43.16676" lon="-1.24705">
        <ele>156</ele>
        <time>2023-05-17T20:07:04Z</time>
      </trkpt>
      <trkpt lat="43.16679" lon="-1.24691">
        <ele>156</ele>
        <time>2023-05-17T20:07:06Z</time>
      </trkpt>
      <trkpt lat="43.16679" lon="-1.24646">
        <ele>156</ele>
        <time>2023-05-17T20:07:11Z</time>
      </trkpt>
      <trkpt lat="43.16675" lon="-1.24604">
        <ele>156</ele>
        <time>2023-05-17T20:07:17Z</time>
      </trkpt>
      <trkpt lat="43.16649" lon="-1.24575">
        <ele>156</ele>
        <time>2023-05-17T20:07:23Z</time>
      </trkpt>
      <trkpt lat="43.16446" lon="-1.24296">
        <ele>164</ele>
        <time>2023-05-17T20:08:14Z</time>
      </trkpt>
      <trkpt lat="43.16411" lon="-1.24243">
        <ele>164</ele>
        <time>2023-05-17T20:08:23Z</time>
      </trkpt>
      <trkpt lat="43.16402" lon="-1.24217">
        <ele>164</ele>
        <time>2023-05-17T20:08:27Z</time>
      </trkpt>
      <trkpt lat="43.16384" lon="-1.24144">
        <ele>164</ele>
        <time>2023-05-17T20:08:37Z</time>
      </trkpt>
      <trkpt lat="43.16355" lon="-1.24094">
        <ele>164</ele>
        <time>2023-05-17T20:08:45Z</time>
      </trkpt>
      <trkpt lat="43.16249" lon="-1.23947">
        <ele>165</ele>
        <time>2023-05-17T20:09:12Z</time>
      </trkpt>
      <trkpt lat="43.16205" lon="-1.23905">
        <ele>167</ele>
        <time>2023-05-17T20:09:22Z</time>
      </trkpt>
      <trkpt lat="43.16195" lon="-1.23892">
        <ele>168</ele>
        <time>2023-05-17T20:09:24Z</time>
      </trkpt>
      <trkpt lat="43.16194" lon="-1.23885">
        <ele>168</ele>
        <time>2023-05-17T20:09:25Z</time>
      </trkpt>
      <trkpt lat="43.162" lon="-1.23875">
        <ele>168</ele>
        <time>2023-05-17T20:09:27Z</time>
      </trkpt>
      <trkpt lat="43.16293" lon="-1.23796">
        <ele>167</ele>
        <time>2023-05-17T20:09:46Z</time>
      </trkpt>
      <trkpt lat="43.16329" lon="-1.23751">
        <ele>170</ele>
        <time>2023-05-17T20:09:55Z</time>
      </trkpt>
      <trkpt lat="43.16381" lon="-1.23677">
        <ele>176</ele>
        <time>2023-05-17T20:10:08Z</time>
      </trkpt>
      <trkpt lat="43.16414" lon="-1.23596">
        <ele>175</ele>
        <time>2023-05-17T20:10:20Z</time>
      </trkpt>
      <trkpt lat="43.16422" lon="-1.23543">
        <ele>174</ele>
        <time>2023-05-17T20:10:27Z</time>
      </trkpt>
      <trkpt lat="43.16426" lon="-1.23481">
        <ele>174</ele>
        <time>2023-05-17T20:10:35Z</time>
      </trkpt>
      <trkpt lat="43.1643" lon="-1.2346">
        <ele>173</ele>
        <time>2023-05-17T20:10:38Z</time>
      </trkpt>
      <trkpt lat="43.16443" lon="-1.23436">
        <ele>171</ele>
        <time>2023-05-17T20:10:42Z</time>
      </trkpt>
      <trkpt lat="43.16454" lon="-1.23426">
        <ele>170</ele>
        <time>2023-05-17T20:10:44Z</time>
      </trkpt>
      <trkpt lat="43.16474" lon="-1.23417">
        <ele>167</ele>
        <time>2023-05-17T20:10:48Z</time>
      </trkpt>
      <trkpt lat="43.16556" lon="-1.23386">
        <ele>162</ele>
        <time>2023-05-17T20:11:03Z</time>
      </trkpt>
      <trkpt lat="43.16561" lon="-1.23392">
        <ele>162</ele>
        <time>2023-05-17T20:11:04Z</time>
      </trkpt>
      <trkpt lat="43.16568" lon="-1.23392">
        <ele>162</ele>
        <time>2023-05-17T20:11:06Z</time>
      </trkpt>
      <trkpt lat="43.16571" lon="-1.23381">
        <ele>162</ele>
        <time>2023-05-17T20:11:07Z</time>
      </trkpt>
      <trkpt lat="43.16636" lon="-1.23353">
        <ele>161</ele>
        <time>2023-05-17T20:11:19Z</time>
      </trkpt>
      <trkpt lat="43.16775" lon="-1.23298">
        <ele>160</ele>
        <time>2023-05-17T20:11:45Z</time>
      </trkpt>
      <trkpt lat="43.16862" lon="-1.23268">
        <ele>163</ele>
        <time>2023-05-17T20:12:01Z</time>
      </trkpt>
      <trkpt lat="43.16872" lon="-1.23261">
        <ele>164</ele>
        <time>2023-05-17T20:12:03Z</time>
      </trkpt>
      <trkpt lat="43.16883" lon="-1.23248">
        <ele>165</ele>
        <time>2023-05-17T20:12:06Z</time>
      </trkpt>
      <trkpt lat="43.1689" lon="-1.23234">
        <ele>165</ele>
        <time>2023-05-17T20:12:08Z</time>
      </trkpt>
      <trkpt lat="43.16894" lon="-1.23218">
        <ele>166</ele>
        <time>2023-05-17T20:12:10Z</time>
      </trkpt>
      <trkpt lat="43.16895" lon="-1.23196">
        <ele>166</ele>
        <time>2023-05-17T20:12:13Z</time>
      </trkpt>
      <trkpt lat="43.16892" lon="-1.22968">
        <ele>169</ele>
        <time>2023-05-17T20:12:43Z</time>
      </trkpt>
      <trkpt lat="43.16911" lon="-1.22968">
        <ele>170</ele>
        <time>2023-05-17T20:12:46Z</time>
      </trkpt>
      <trkpt lat="43.16922" lon="-1.22991">
        <ele>172</ele>
        <time>2023-05-17T20:12:49Z</time>
      </trkpt>
      <trkpt lat="43.16936" lon="-1.23104">
        <ele>174</ele>
        <time>2023-05-17T20:13:04Z</time>
      </trkpt>
      <trkpt lat="43.16949" lon="-1.2313">
        <ele>175</ele>
        <time>2023-05-17T20:13:08Z</time>
      </trkpt>
      <trkpt lat="43.16936" lon="-1.23104">
        <ele>174</ele>
        <time>2023-05-17T20:13:13Z</time>
      </trkpt>
      <trkpt lat="43.16922" lon="-1.22991">
        <ele>172</ele>
        <time>2023-05-17T20:13:27Z</time>
      </trkpt>
      <trkpt lat="43.16911" lon="-1.22968">
        <ele>170</ele>
        <time>2023-05-17T20:13:31Z</time>
      </trkpt>
      <trkpt lat="43.16892" lon="-1.22968">
        <ele>169</ele>
        <time>2023-05-17T20:13:34Z</time>
      </trkpt>
      <trkpt lat="43.16877" lon="-1.2286">
        <ele>169</ele>
        <time>2023-05-17T20:13:49Z</time>
      </trkpt>
      <trkpt lat="43.16829" lon="-1.22433">
        <ele>172</ele>
        <time>2023-05-17T20:14:45Z</time>
      </trkpt>
      <trkpt lat="43.16811" lon="-1.2225">
        <ele>173</ele>
        <time>2023-05-17T20:15:09Z</time>
      </trkpt>
      <trkpt lat="43.16769" lon="-1.21917">
        <ele>176</ele>
        <time>2023-05-17T20:15:53Z</time>
      </trkpt>
      <trkpt lat="43.16602" lon="-1.20394">
        <ele>187</ele>
        <time>2023-05-17T20:19:12Z</time>
      </trkpt>
      <trkpt lat="43.16608" lon="-1.20392">
        <ele>188</ele>
        <time>2023-05-17T20:19:13Z</time>
      </trkpt>
      <trkpt lat="43.16612" lon="-1.20385">
        <ele>188</ele>
        <time>2023-05-17T20:19:15Z</time>
      </trkpt>
      <trkpt lat="43.16614" lon="-1.2037">
        <ele>188</ele>
        <time>2023-05-17T20:19:17Z</time>
      </trkpt>
      <trkpt lat="43.16607" lon="-1.20358">
        <ele>188</ele>
        <time>2023-05-17T20:19:19Z</time>
      </trkpt>
      <trkpt lat="43.16598" lon="-1.20357">
        <ele>188</ele>
        <time>2023-05-17T20:19:20Z</time>
      </trkpt>
      <trkpt lat="43.16566" lon="-1.20068">
        <ele>194</ele>
        <time>2023-05-17T20:19:58Z</time>
      </trkpt>
      <trkpt lat="43.16602" lon="-1.2006">
        <ele>195</ele>
        <time>2023-05-17T20:20:05Z</time>
      </trkpt>
      <trkpt lat="43.16566" lon="-1.20068">
        <ele>194</ele>
        <time>2023-05-17T20:20:11Z</time>
      </trkpt>
      <trkpt lat="43.16513" lon="-1.19612">
        <ele>206</ele>
        <time>2023-05-17T20:21:11Z</time>
      </trkpt>
      <trkpt lat="43.16513" lon="-1.19573">
        <ele>206</ele>
        <time>2023-05-17T20:21:16Z</time>
      </trkpt>
      <trkpt lat="43.16541" lon="-1.19387">
        <ele>204</ele>
        <time>2023-05-17T20:21:41Z</time>
      </trkpt>
      <trkpt lat="43.16487" lon="-1.19362">
        <ele>203</ele>
        <time>2023-05-17T20:21:51Z</time>
      </trkpt>
      <trkpt lat="43.16453" lon="-1.19342">
        <ele>203</ele>
        <time>2023-05-17T20:21:57Z</time>
      </trkpt>
      <trkpt lat="43.16246" lon="-1.19215">
        <ele>209</ele>
        <time>2023-05-17T20:22:38Z</time>
      </trkpt>
      <trkpt lat="43.16222" lon="-1.19196">
        <ele>207</ele>
        <time>2023-05-17T20:22:43Z</time>
      </trkpt>
      <trkpt lat="43.15745" lon="-1.18768">
        <ele>214</ele>
        <time>2023-05-17T20:24:24Z</time>
      </trkpt>
      <trkpt lat="43.15552" lon="-1.18574">
        <ele>221</ele>
        <time>2023-05-17T20:25:07Z</time>
      </trkpt>
      <trkpt lat="43.1553" lon="-1.18547">
        <ele>222</ele>
        <time>2023-05-17T20:25:12Z</time>
      </trkpt>
      <trkpt lat="43.15517" lon="-1.18527">
        <ele>222</ele>
        <time>2023-05-17T20:25:16Z</time>
      </trkpt>
      <trkpt lat="43.15505" lon="-1.185">
        <ele>223</ele>
        <time>2023-05-17T20:25:20Z</time>
      </trkpt>
      <trkpt lat="43.1549" lon="-1.18443">
        <ele>225</ele>
        <time>2023-05-17T20:25:27Z</time>
      </trkpt>
      <trkpt lat="43.15444" lon="-1.18209">
        <ele>231</ele>
        <time>2023-05-17T20:25:59Z</time>
      </trkpt>
      <trkpt lat="43.15424" lon="-1.18088">
        <ele>239</ele>
        <time>2023-05-17T20:26:15Z</time>
      </trkpt>
      <trkpt lat="43.15415" lon="-1.18058">
        <ele>240</ele>
        <time>2023-05-17T20:26:19Z</time>
      </trkpt>
      <trkpt lat="43.1541" lon="-1.18047">
        <ele>240</ele>
        <time>2023-05-17T20:26:21Z</time>
      </trkpt>
      <trkpt lat="43.15394" lon="-1.18024">
        <ele>241</ele>
        <time>2023-05-17T20:26:25Z</time>
      </trkpt>
      <trkpt lat="43.15193" lon="-1.17799">
        <ele>243</ele>
        <time>2023-05-17T20:27:11Z</time>
      </trkpt>
      <trkpt lat="43.15178" lon="-1.17776">
        <ele>243</ele>
        <time>2023-05-17T20:27:15Z</time>
      </trkpt>
      <trkpt lat="43.15166" lon="-1.1774">
        <ele>242</ele>
        <time>2023-05-17T20:27:20Z</time>
      </trkpt>
      <trkpt lat="43.1513" lon="-1.17577">
        <ele>232</ele>
        <time>2023-05-17T20:27:42Z</time>
      </trkpt>
      <trkpt lat="43.15103" lon="-1.17472">
        <ele>231</ele>
        <time>2023-05-17T20:27:57Z</time>
      </trkpt>
      <trkpt lat="43.15074" lon="-1.17397">
        <ele>231</ele>
        <time>2023-05-17T20:28:08Z</time>
      </trkpt>
      <trkpt lat="43.14992" lon="-1.17274">
        <ele>234</ele>
        <time>2023-05-17T20:28:30Z</time>
      </trkpt>
      <trkpt lat="43.14939" lon="-1.17207">
        <ele>238</ele>
        <time>2023-05-17T20:28:42Z</time>
      </trkpt>
      <trkpt lat="43.14905" lon="-1.17174">
        <ele>237</ele>
        <time>2023-05-17T20:28:50Z</time>
      </trkpt>
      <trkpt lat="43.14839" lon="-1.17131">
        <ele>235</ele>
        <time>2023-05-17T20:29:03Z</time>
      </trkpt>
      <trkpt lat="43.14824" lon="-1.17115">
        <ele>234</ele>
        <time>2023-05-17T20:29:06Z</time>
      </trkpt>
      <trkpt lat="43.14771" lon="-1.17008">
        <ele>236</ele>
        <time>2023-05-17T20:29:23Z</time>
      </trkpt>
      <trkpt lat="43.14721" lon="-1.1693">
        <ele>239</ele>
        <time>2023-05-17T20:29:36Z</time>
      </trkpt>
      <trkpt lat="43.14695" lon="-1.16874">
        <ele>239</ele>
        <time>2023-05-17T20:29:45Z</time>
      </trkpt>
      <trkpt lat="43.14676" lon="-1.16815">
        <ele>240</ele>
        <time>2023-05-17T20:29:53Z</time>
      </trkpt>
      <trkpt lat="43.14657" lon="-1.16787">
        <ele>240</ele>
        <time>2023-05-17T20:29:58Z</time>
      </trkpt>
      <trkpt lat="43.14566" lon="-1.16685">
        <ele>244</ele>
        <time>2023-05-17T20:30:19Z</time>
      </trkpt>
      <trkpt lat="43.14547" lon="-1.16672">
        <ele>245</ele>
        <time>2023-05-17T20:30:23Z</time>
      </trkpt>
      <trkpt lat="43.14504" lon="-1.16658">
        <ele>246</ele>
        <time>2023-05-17T20:30:31Z</time>
      </trkpt>
      <trkpt lat="43.14488" lon="-1.16648">
        <ele>247</ele>
        <time>2023-05-17T20:30:34Z</time>
      </trkpt>
      <trkpt lat="43.1448" lon="-1.16632">
        <ele>248</ele>
        <time>2023-05-17T20:30:37Z</time>
      </trkpt>
      <trkpt lat="43.14477" lon="-1.16606">
        <ele>249</ele>
        <time>2023-05-17T20:30:40Z</time>
      </trkpt>
      <trkpt lat="43.1448" lon="-1.16537">
        <ele>253</ele>
        <time>2023-05-17T20:30:49Z</time>
      </trkpt>
      <trkpt lat="43.14487" lon="-1.16494">
        <ele>254</ele>
        <time>2023-05-17T20:30:55Z</time>
      </trkpt>
      <trkpt lat="43.14498" lon="-1.16455">
        <ele>253</ele>
        <time>2023-05-17T20:31:00Z</time>
      </trkpt>
      <trkpt lat="43.14508" lon="-1.16429">
        <ele>253</ele>
        <time>2023-05-17T20:31:04Z</time>
      </trkpt>
      <trkpt lat="43.14512" lon="-1.16404">
        <ele>254</ele>
        <time>2023-05-17T20:31:07Z</time>
      </trkpt>
      <trkpt lat="43.14473" lon="-1.16279">
        <ele>250</ele>
        <time>2023-05-17T20:31:25Z</time>
      </trkpt>
      <trkpt lat="43.14466" lon="-1.1625">
        <ele>250</ele>
        <time>2023-05-17T20:31:29Z</time>
      </trkpt>
      <trkpt lat="43.14465" lon="-1.16215">
        <ele>249</ele>
        <time>2023-05-17T20:31:33Z</time>
      </trkpt>
      <trkpt lat="43.14471" lon="-1.1614">
        <ele>248</ele>
        <time>2023-05-17T20:31:43Z</time>
      </trkpt>
      <trkpt lat="43.14468" lon="-1.16003">
        <ele>249</ele>
        <time>2023-05-17T20:32:01Z</time>
      </trkpt>
      <trkpt lat="43.14472" lon="-1.15935">
        <ele>252</ele>
        <time>2023-05-17T20:32:10Z</time>
      </trkpt>
      <trkpt lat="43.14471" lon="-1.1592">
        <ele>253</ele>
        <time>2023-05-17T20:32:12Z</time>
      </trkpt>
      <trkpt lat="43.14465" lon="-1.15891">
        <ele>253</ele>
        <time>2023-05-17T20:32:16Z</time>
      </trkpt>
      <trkpt lat="43.14442" lon="-1.15838">
        <ele>251</ele>
        <time>2023-05-17T20:32:24Z</time>
      </trkpt>
      <trkpt lat="43.1443" lon="-1.15803">
        <ele>249</ele>
        <time>2023-05-17T20:32:29Z</time>
      </trkpt>
      <trkpt lat="43.14426" lon="-1.15784">
        <ele>249</ele>
        <time>2023-05-17T20:32:31Z</time>
      </trkpt>
      <trkpt lat="43.14417" lon="-1.15703">
        <ele>248</ele>
        <time>2023-05-17T20:32:42Z</time>
      </trkpt>
      <trkpt lat="43.14391" lon="-1.1554">
        <ele>244</ele>
        <time>2023-05-17T20:33:04Z</time>
      </trkpt>
      <trkpt lat="43.14382" lon="-1.1544">
        <ele>246</ele>
        <time>2023-05-17T20:33:17Z</time>
      </trkpt>
      <trkpt lat="43.14374" lon="-1.15406">
        <ele>247</ele>
        <time>2023-05-17T20:33:21Z</time>
      </trkpt>
      <trkpt lat="43.14365" lon="-1.15391">
        <ele>247</ele>
        <time>2023-05-17T20:33:24Z</time>
      </trkpt>
      <trkpt lat="43.14341" lon="-1.15374">
        <ele>246</ele>
        <time>2023-05-17T20:33:29Z</time>
      </trkpt>
      <trkpt lat="43.14314" lon="-1.15362">
        <ele>245</ele>
        <time>2023-05-17T20:33:34Z</time>
      </trkpt>
      <trkpt lat="43.143" lon="-1.15359">
        <ele>244</ele>
        <time>2023-05-17T20:33:36Z</time>
      </trkpt>
      <trkpt lat="43.14269" lon="-1.1536">
        <ele>244</ele>
        <time>2023-05-17T20:33:42Z</time>
      </trkpt>
      <trkpt lat="43.1421" lon="-1.15368">
        <ele>242</ele>
        <time>2023-05-17T20:33:52Z</time>
      </trkpt>
      <trkpt lat="43.14185" lon="-1.15365">
        <ele>242</ele>
        <time>2023-05-17T20:33:57Z</time>
      </trkpt>
      <trkpt lat="43.14114" lon="-1.15336">
        <ele>244</ele>
        <time>2023-05-17T20:34:10Z</time>
      </trkpt>
      <trkpt lat="43.1409" lon="-1.15318">
        <ele>245</ele>
        <time>2023-05-17T20:34:15Z</time>
      </trkpt>
      <trkpt lat="43.14078" lon="-1.15296">
        <ele>246</ele>
        <time>2023-05-17T20:34:18Z</time>
      </trkpt>
      <trkpt lat="43.14039" lon="-1.15206">
        <ele>249</ele>
        <time>2023-05-17T20:34:32Z</time>
      </trkpt>
      <trkpt lat="43.14019" lon="-1.15171">
        <ele>250</ele>
        <time>2023-05-17T20:34:38Z</time>
      </trkpt>
      <trkpt lat="43.13935" lon="-1.15046">
        <ele>252</ele>
        <time>2023-05-17T20:35:00Z</time>
      </trkpt>
      <trkpt lat="43.1373" lon="-1.14715">
        <ele>257</ele>
        <time>2023-05-17T20:35:56Z</time>
      </trkpt>
      <trkpt lat="43.13678" lon="-1.1464">
        <ele>260</ele>
        <time>2023-05-17T20:36:10Z</time>
      </trkpt>
      <trkpt lat="43.13602" lon="-1.14508">
        <ele>263</ele>
        <time>2023-05-17T20:36:31Z</time>
      </trkpt>
      <trkpt lat="43.13543" lon="-1.14437">
        <ele>265</ele>
        <time>2023-05-17T20:36:45Z</time>
      </trkpt>
      <trkpt lat="43.13484" lon="-1.14374">
        <ele>268</ele>
        <time>2023-05-17T20:36:59Z</time>
      </trkpt>
      <trkpt lat="43.13465" lon="-1.14347">
        <ele>269</ele>
        <time>2023-05-17T20:37:04Z</time>
      </trkpt>
      <trkpt lat="43.1344" lon="-1.14302">
        <ele>270</ele>
        <time>2023-05-17T20:37:11Z</time>
      </trkpt>
      <trkpt lat="43.13425" lon="-1.14285">
        <ele>270</ele>
        <time>2023-05-17T20:37:14Z</time>
      </trkpt>
      <trkpt lat="43.13232" lon="-1.14173">
        <ele>271</ele>
        <time>2023-05-17T20:37:52Z</time>
      </trkpt>
      <trkpt lat="43.13185" lon="-1.14143">
        <ele>271</ele>
        <time>2023-05-17T20:38:01Z</time>
      </trkpt>
      <trkpt lat="43.13043" lon="-1.14043">
        <ele>271</ele>
        <time>2023-05-17T20:38:29Z</time>
      </trkpt>
      <trkpt lat="43.13004" lon="-1.1402">
        <ele>272</ele>
        <time>2023-05-17T20:38:37Z</time>
      </trkpt>
      <trkpt lat="43.12961" lon="-1.14">
        <ele>274</ele>
        <time>2023-05-17T20:38:45Z</time>
      </trkpt>
      <trkpt lat="43.12939" lon="-1.13986">
        <ele>276</ele>
        <time>2023-05-17T20:38:49Z</time>
      </trkpt>
      <trkpt lat="43.12895" lon="-1.13954">
        <ele>277</ele>
        <time>2023-05-17T20:38:58Z</time>
      </trkpt>
      <trkpt lat="43.1286" lon="-1.13919">
        <ele>277</ele>
        <time>2023-05-17T20:39:06Z</time>
      </trkpt>
      <trkpt lat="43.12807" lon="-1.13857">
        <ele>280</ele>
        <time>2023-05-17T20:39:18Z</time>
      </trkpt>
      <trkpt lat="43.1279" lon="-1.13844">
        <ele>280</ele>
        <time>2023-05-17T20:39:22Z</time>
      </trkpt>
      <trkpt lat="43.12689" lon="-1.13786">
        <ele>281</ele>
        <time>2023-05-17T20:39:41Z</time>
      </trkpt>
      <trkpt lat="43.12635" lon="-1.13771">
        <ele>282</ele>
        <time>2023-05-17T20:39:51Z</time>
      </trkpt>
      <trkpt lat="43.12599" lon="-1.13753">
        <ele>283</ele>
        <time>2023-05-17T20:39:58Z</time>
      </trkpt>
      <trkpt lat="43.12572" lon="-1.13743">
        <ele>283</ele>
        <time>2023-05-17T20:40:03Z</time>
      </trkpt>
      <trkpt lat="43.12469" lon="-1.13736">
        <ele>283</ele>
        <time>2023-05-17T20:40:21Z</time>
      </trkpt>
      <trkpt lat="43.12421" lon="-1.13739">
        <ele>285</ele>
        <time>2023-05-17T20:40:30Z</time>
      </trkpt>
      <trkpt lat="43.12404" lon="-1.13738">
        <ele>285</ele>
        <time>2023-05-17T20:40:33Z</time>
      </trkpt>
      <trkpt lat="43.12342" lon="-1.13726">
        <ele>285</ele>
        <time>2023-05-17T20:40:44Z</time>
      </trkpt>
      <trkpt lat="43.12324" lon="-1.1372">
        <ele>285</ele>
        <time>2023-05-17T20:40:47Z</time>
      </trkpt>
      <trkpt lat="43.12272" lon="-1.13692">
        <ele>287</ele>
        <time>2023-05-17T20:40:57Z</time>
      </trkpt>
      <trkpt lat="43.12244" lon="-1.13683">
        <ele>288</ele>
        <time>2023-05-17T20:41:02Z</time>
      </trkpt>
      <trkpt lat="43.12169" lon="-1.13683">
        <ele>295</ele>
        <time>2023-05-17T20:41:16Z</time>
      </trkpt>
      <trkpt lat="43.12109" lon="-1.13694">
        <ele>294</ele>
        <time>2023-05-17T20:41:26Z</time>
      </trkpt>
      <trkpt lat="43.12073" lon="-1.1369">
        <ele>294</ele>
        <time>2023-05-17T20:41:33Z</time>
      </trkpt>
      <trkpt lat="43.12063" lon="-1.13691">
        <ele>294</ele>
        <time>2023-05-17T20:41:35Z</time>
      </trkpt>
      <trkpt lat="43.12027" lon="-1.13703">
        <ele>289</ele>
        <time>2023-05-17T20:41:41Z</time>
      </trkpt>
      <trkpt lat="43.12019" lon="-1.13702">
        <ele>289</ele>
        <time>2023-05-17T20:41:43Z</time>
      </trkpt>
      <trkpt lat="43.11965" lon="-1.13668">
        <ele>289</ele>
        <time>2023-05-17T20:41:53Z</time>
      </trkpt>
      <trkpt lat="43.11925" lon="-1.13646">
        <ele>288</ele>
        <time>2023-05-17T20:42:01Z</time>
      </trkpt>
      <trkpt lat="43.11827" lon="-1.13599">
        <ele>289</ele>
        <time>2023-05-17T20:42:19Z</time>
      </trkpt>
      <trkpt lat="43.11804" lon="-1.13582">
        <ele>289</ele>
        <time>2023-05-17T20:42:24Z</time>
      </trkpt>
      <trkpt lat="43.11618" lon="-1.13404">
        <ele>293</ele>
        <time>2023-05-17T20:43:04Z</time>
      </trkpt>
      <trkpt lat="43.11601" lon="-1.13385">
        <ele>294</ele>
        <time>2023-05-17T20:43:08Z</time>
      </trkpt>
      <trkpt lat="43.11572" lon="-1.13341">
        <ele>295</ele>
        <time>2023-05-17T20:43:16Z</time>
      </trkpt>
      <trkpt lat="43.11559" lon="-1.1333">
        <ele>295</ele>
        <time>2023-05-17T20:43:19Z</time>
      </trkpt>
      <trkpt lat="43.11534" lon="-1.1332">
        <ele>295</ele>
        <time>2023-05-17T20:43:23Z</time>
      </trkpt>
      <trkpt lat="43.11484" lon="-1.13312">
        <ele>296</ele>
        <time>2023-05-17T20:43:32Z</time>
      </trkpt>
      <trkpt lat="43.11421" lon="-1.13297">
        <ele>300</ele>
        <time>2023-05-17T20:43:44Z</time>
      </trkpt>
      <trkpt lat="43.11394" lon="-1.1328">
        <ele>302</ele>
        <time>2023-05-17T20:43:49Z</time>
      </trkpt>
      <trkpt lat="43.11308" lon="-1.13203">
        <ele>303</ele>
        <time>2023-05-17T20:44:07Z</time>
      </trkpt>
      <trkpt lat="43.11295" lon="-1.13189">
        <ele>303</ele>
        <time>2023-05-17T20:44:10Z</time>
      </trkpt>
      <trkpt lat="43.11284" lon="-1.13169">
        <ele>301</ele>
        <time>2023-05-17T20:44:13Z</time>
      </trkpt>
      <trkpt lat="43.11271" lon="-1.13133">
        <ele>301</ele>
        <time>2023-05-17T20:44:19Z</time>
      </trkpt>
      <trkpt lat="43.11259" lon="-1.13109">
        <ele>300</ele>
        <time>2023-05-17T20:44:22Z</time>
      </trkpt>
      <trkpt lat="43.11214" lon="-1.13032">
        <ele>304</ele>
        <time>2023-05-17T20:44:35Z</time>
      </trkpt>
      <trkpt lat="43.11185" lon="-1.12989">
        <ele>307</ele>
        <time>2023-05-17T20:44:43Z</time>
      </trkpt>
      <trkpt lat="43.11164" lon="-1.1297">
        <ele>309</ele>
        <time>2023-05-17T20:44:47Z</time>
      </trkpt>
      <trkpt lat="43.11081" lon="-1.12918">
        <ele>310</ele>
        <time>2023-05-17T20:45:04Z</time>
      </trkpt>
      <trkpt lat="43.11058" lon="-1.12901">
        <ele>314</ele>
        <time>2023-05-17T20:45:08Z</time>
      </trkpt>
      <trkpt lat="43.10992" lon="-1.12844">
        <ele>315</ele>
        <time>2023-05-17T20:45:22Z</time>
      </trkpt>
      <trkpt lat="43.10968" lon="-1.12827">
        <ele>314</ele>
        <time>2023-05-17T20:45:27Z</time>
      </trkpt>
      <trkpt lat="43.1095" lon="-1.1282">
        <ele>313</ele>
        <time>2023-05-17T20:45:30Z</time>
      </trkpt>
      <trkpt lat="43.10912" lon="-1.12817">
        <ele>311</ele>
        <time>2023-05-17T20:45:37Z</time>
      </trkpt>
      <trkpt lat="43.10895" lon="-1.12808">
        <ele>314</ele>
        <time>2023-05-17T20:45:40Z</time>
      </trkpt>
      <trkpt lat="43.10875" lon="-1.12786">
        <ele>315</ele>
        <time>2023-05-17T20:45:45Z</time>
      </trkpt>
      <trkpt lat="43.10839" lon="-1.1273">
        <ele>313</ele>
        <time>2023-05-17T20:45:54Z</time>
      </trkpt>
      <trkpt lat="43.10806" lon="-1.12658">
        <ele>315</ele>
        <time>2023-05-17T20:46:06Z</time>
      </trkpt>
      <trkpt lat="43.10794" lon="-1.1262">
        <ele>317</ele>
        <time>2023-05-17T20:46:11Z</time>
      </trkpt>
      <trkpt lat="43.10784" lon="-1.12551">
        <ele>320</ele>
        <time>2023-05-17T20:46:20Z</time>
      </trkpt>
      <trkpt lat="43.10773" lon="-1.12503">
        <ele>321</ele>
        <time>2023-05-17T20:46:27Z</time>
      </trkpt>
      <trkpt lat="43.10761" lon="-1.12465">
        <ele>321</ele>
        <time>2023-05-17T20:46:32Z</time>
      </trkpt>
      <trkpt lat="43.10726" lon="-1.12419">
        <ele>318</ele>
        <time>2023-05-17T20:46:41Z</time>
      </trkpt>
      <trkpt lat="43.1071" lon="-1.12404">
        <ele>319</ele>
        <time>2023-05-17T20:46:44Z</time>
      </trkpt>
      <trkpt lat="43.10679" lon="-1.12381">
        <ele>317</ele>
        <time>2023-05-17T20:46:50Z</time>
      </trkpt>
      <trkpt lat="43.10659" lon="-1.12361">
        <ele>316</ele>
        <time>2023-05-17T20:46:55Z</time>
      </trkpt>
      <trkpt lat="43.10643" lon="-1.12335">
        <ele>317</ele>
        <time>2023-05-17T20:46:59Z</time>
      </trkpt>
      <trkpt lat="43.10633" lon="-1.1231">
        <ele>318</ele>
        <time>2023-05-17T20:47:03Z</time>
      </trkpt>
      <trkpt lat="43.10606" lon="-1.12208">
        <ele>322</ele>
        <time>2023-05-17T20:47:17Z</time>
      </trkpt>
      <trkpt lat="43.10605" lon="-1.12188">
        <ele>323</ele>
        <time>2023-05-17T20:47:20Z</time>
      </trkpt>
      <trkpt lat="43.10614" lon="-1.12142">
        <ele>328</ele>
        <time>2023-05-17T20:47:26Z</time>
      </trkpt>
      <trkpt lat="43.10614" lon="-1.12117">
        <ele>331</ele>
        <time>2023-05-17T20:47:29Z</time>
      </trkpt>
      <trkpt lat="43.10599" lon="-1.12069">
        <ele>329</ele>
        <time>2023-05-17T20:47:36Z</time>
      </trkpt>
      <trkpt lat="43.10576" lon="-1.12018">
        <ele>324</ele>
        <time>2023-05-17T20:47:44Z</time>
      </trkpt>
      <trkpt lat="43.10475" lon="-1.11831">
        <ele>327</ele>
        <time>2023-05-17T20:48:14Z</time>
      </trkpt>
      <trkpt lat="43.1046" lon="-1.11814">
        <ele>329</ele>
        <time>2023-05-17T20:48:17Z</time>
      </trkpt>
      <trkpt lat="43.10443" lon="-1.11802">
        <ele>330</ele>
        <time>2023-05-17T20:48:21Z</time>
      </trkpt>
      <trkpt lat="43.10395" lon="-1.1178">
        <ele>335</ele>
        <time>2023-05-17T20:48:30Z</time>
      </trkpt>
      <trkpt lat="43.10337" lon="-1.11743">
        <ele>343</ele>
        <time>2023-05-17T20:48:41Z</time>
      </trkpt>
      <trkpt lat="43.10301" lon="-1.11703">
        <ele>353</ele>
        <time>2023-05-17T20:48:49Z</time>
      </trkpt>
      <trkpt lat="43.10252" lon="-1.11658">
        <ele>361</ele>
        <time>2023-05-17T20:49:00Z</time>
      </trkpt>
      <trkpt lat="43.10221" lon="-1.11609">
        <ele>359</ele>
        <time>2023-05-17T20:49:08Z</time>
      </trkpt>
      <trkpt lat="43.10211" lon="-1.11598">
        <ele>359</ele>
        <time>2023-05-17T20:49:10Z</time>
      </trkpt>
      <trkpt lat="43.10143" lon="-1.11534">
        <ele>370</ele>
        <time>2023-05-17T20:49:25Z</time>
      </trkpt>
      <trkpt lat="43.10109" lon="-1.11512">
        <ele>379</ele>
        <time>2023-05-17T20:49:32Z</time>
      </trkpt>
      <trkpt lat="43.10084" lon="-1.11492">
        <ele>384</ele>
        <time>2023-05-17T20:49:37Z</time>
      </trkpt>
      <trkpt lat="43.10071" lon="-1.11478">
        <ele>388</ele>
        <time>2023-05-17T20:49:40Z</time>
      </trkpt>
      <trkpt lat="43.10048" lon="-1.11448">
        <ele>395</ele>
        <time>2023-05-17T20:49:46Z</time>
      </trkpt>
      <trkpt lat="43.10022" lon="-1.11405">
        <ele>403</ele>
        <time>2023-05-17T20:49:53Z</time>
      </trkpt>
      <trkpt lat="43.10011" lon="-1.11375">
        <ele>405</ele>
        <time>2023-05-17T20:49:57Z</time>
      </trkpt>
      <trkpt lat="43.09999" lon="-1.11325">
        <ele>406</ele>
        <time>2023-05-17T20:50:04Z</time>
      </trkpt>
      <trkpt lat="43.09987" lon="-1.11289">
        <ele>408</ele>
        <time>2023-05-17T20:50:09Z</time>
      </trkpt>
      <trkpt lat="43.09963" lon="-1.11256">
        <ele>414</ele>
        <time>2023-05-17T20:50:15Z</time>
      </trkpt>
      <trkpt lat="43.09938" lon="-1.11232">
        <ele>422</ele>
        <time>2023-05-17T20:50:21Z</time>
      </trkpt>
      <trkpt lat="43.09915" lon="-1.11201">
        <ele>427</ele>
        <time>2023-05-17T20:50:26Z</time>
      </trkpt>
      <trkpt lat="43.0991" lon="-1.1119">
        <ele>428</ele>
        <time>2023-05-17T20:50:28Z</time>
      </trkpt>
      <trkpt lat="43.099" lon="-1.11147">
        <ele>426</ele>
        <time>2023-05-17T20:50:34Z</time>
      </trkpt>
      <trkpt lat="43.09895" lon="-1.1114">
        <ele>428</ele>
        <time>2023-05-17T20:50:35Z</time>
      </trkpt>
      <trkpt lat="43.09887" lon="-1.11135">
        <ele>430</ele>
        <time>2023-05-17T20:50:37Z</time>
      </trkpt>
      <trkpt lat="43.09856" lon="-1.11125">
        <ele>441</ele>
        <time>2023-05-17T20:50:42Z</time>
      </trkpt>
      <trkpt lat="43.09841" lon="-1.11118">
        <ele>445</ele>
        <time>2023-05-17T20:50:45Z</time>
      </trkpt>
      <trkpt lat="43.09837" lon="-1.11112">
        <ele>446</ele>
        <time>2023-05-17T20:50:46Z</time>
      </trkpt>
      <trkpt lat="43.09835" lon="-1.11099">
        <ele>445</ele>
        <time>2023-05-17T20:50:48Z</time>
      </trkpt>
      <trkpt lat="43.09845" lon="-1.11079">
        <ele>440</ele>
        <time>2023-05-17T20:50:51Z</time>
      </trkpt>
      <trkpt lat="43.09851" lon="-1.11059">
        <ele>437</ele>
        <time>2023-05-17T20:50:54Z</time>
      </trkpt>
      <trkpt lat="43.09848" lon="-1.10994">
        <ele>435</ele>
        <time>2023-05-17T20:51:02Z</time>
      </trkpt>
      <trkpt lat="43.09844" lon="-1.10972">
        <ele>436</ele>
        <time>2023-05-17T20:51:05Z</time>
      </trkpt>
      <trkpt lat="43.09792" lon="-1.10836">
        <ele>456</ele>
        <time>2023-05-17T20:51:25Z</time>
      </trkpt>
      <trkpt lat="43.09783" lon="-1.10805">
        <ele>459</ele>
        <time>2023-05-17T20:51:30Z</time>
      </trkpt>
      <trkpt lat="43.09774" lon="-1.10744">
        <ele>461</ele>
        <time>2023-05-17T20:51:38Z</time>
      </trkpt>
      <trkpt lat="43.09769" lon="-1.10729">
        <ele>463</ele>
        <time>2023-05-17T20:51:40Z</time>
      </trkpt>
      <trkpt lat="43.09753" lon="-1.10694">
        <ele>466</ele>
        <time>2023-05-17T20:51:45Z</time>
      </trkpt>
      <trkpt lat="43.09743" lon="-1.10683">
        <ele>467</ele>
        <time>2023-05-17T20:51:48Z</time>
      </trkpt>
      <trkpt lat="43.09735" lon="-1.10684">
        <ele>468</ele>
        <time>2023-05-17T20:51:49Z</time>
      </trkpt>
      <trkpt lat="43.09732" lon="-1.10689">
        <ele>469</ele>
        <time>2023-05-17T20:51:50Z</time>
      </trkpt>
      <trkpt lat="43.09733" lon="-1.10735">
        <ele>471</ele>
        <time>2023-05-17T20:51:56Z</time>
      </trkpt>
      <trkpt lat="43.0973" lon="-1.10758">
        <ele>473</ele>
        <time>2023-05-17T20:51:59Z</time>
      </trkpt>
      <trkpt lat="43.09703" lon="-1.10827">
        <ele>483</ele>
        <time>2023-05-17T20:52:09Z</time>
      </trkpt>
      <trkpt lat="43.09698" lon="-1.10851">
        <ele>485</ele>
        <time>2023-05-17T20:52:12Z</time>
      </trkpt>
      <trkpt lat="43.09695" lon="-1.10904">
        <ele>489</ele>
        <time>2023-05-17T20:52:19Z</time>
      </trkpt>
      <trkpt lat="43.09689" lon="-1.1095">
        <ele>495</ele>
        <time>2023-05-17T20:52:25Z</time>
      </trkpt>
      <trkpt lat="43.09689" lon="-1.10973">
        <ele>497</ele>
        <time>2023-05-17T20:52:28Z</time>
      </trkpt>
      <trkpt lat="43.09696" lon="-1.11017">
        <ele>499</ele>
        <time>2023-05-17T20:52:34Z</time>
      </trkpt>
      <trkpt lat="43.09698" lon="-1.11049">
        <ele>502</ele>
        <time>2023-05-17T20:52:38Z</time>
      </trkpt>
      <trkpt lat="43.09696" lon="-1.11069">
        <ele>506</ele>
        <time>2023-05-17T20:52:41Z</time>
      </trkpt>
      <trkpt lat="43.09691" lon="-1.11078">
        <ele>509</ele>
        <time>2023-05-17T20:52:42Z</time>
      </trkpt>
      <trkpt lat="43.09688" lon="-1.11079">
        <ele>511</ele>
        <time>2023-05-17T20:52:43Z</time>
      </trkpt>
      <trkpt lat="43.09682" lon="-1.11075">
        <ele>513</ele>
        <time>2023-05-17T20:52:44Z</time>
      </trkpt>
      <trkpt lat="43.09677" lon="-1.11047">
        <ele>512</ele>
        <time>2023-05-17T20:52:48Z</time>
      </trkpt>
      <trkpt lat="43.09672" lon="-1.11034">
        <ele>512</ele>
        <time>2023-05-17T20:52:50Z</time>
      </trkpt>
      <trkpt lat="43.09655" lon="-1.1102">
        <ele>516</ele>
        <time>2023-05-17T20:52:53Z</time>
      </trkpt>
      <trkpt lat="43.0958" lon="-1.10971">
        <ele>531</ele>
        <time>2023-05-17T20:53:08Z</time>
      </trkpt>
      <trkpt lat="43.09562" lon="-1.10949">
        <ele>535</ele>
        <time>2023-05-17T20:53:12Z</time>
      </trkpt>
      <trkpt lat="43.09558" lon="-1.10942">
        <ele>535</ele>
        <time>2023-05-17T20:53:13Z</time>
      </trkpt>
      <trkpt lat="43.0952" lon="-1.10824">
        <ele>540</ele>
        <time>2023-05-17T20:53:30Z</time>
      </trkpt>
      <trkpt lat="43.09505" lon="-1.10795">
        <ele>542</ele>
        <time>2023-05-17T20:53:35Z</time>
      </trkpt>
      <trkpt lat="43.09496" lon="-1.10783">
        <ele>543</ele>
        <time>2023-05-17T20:53:37Z</time>
      </trkpt>
      <trkpt lat="43.09478" lon="-1.10767">
        <ele>547</ele>
        <time>2023-05-17T20:53:41Z</time>
      </trkpt>
      <trkpt lat="43.09462" lon="-1.10757">
        <ele>550</ele>
        <time>2023-05-17T20:53:44Z</time>
      </trkpt>
      <trkpt lat="43.09421" lon="-1.10736">
        <ele>556</ele>
        <time>2023-05-17T20:53:52Z</time>
      </trkpt>
      <trkpt lat="43.09394" lon="-1.10727">
        <ele>559</ele>
        <time>2023-05-17T20:53:57Z</time>
      </trkpt>
      <trkpt lat="43.09378" lon="-1.10724">
        <ele>561</ele>
        <time>2023-05-17T20:54:00Z</time>
      </trkpt>
      <trkpt lat="43.09364" lon="-1.10725">
        <ele>564</ele>
        <time>2023-05-17T20:54:02Z</time>
      </trkpt>
      <trkpt lat="43.09359" lon="-1.10728">
        <ele>566</ele>
        <time>2023-05-17T20:54:03Z</time>
      </trkpt>
      <trkpt lat="43.09354" lon="-1.10739">
        <ele>569</ele>
        <time>2023-05-17T20:54:05Z</time>
      </trkpt>
      <trkpt lat="43.09356" lon="-1.10753">
        <ele>572</ele>
        <time>2023-05-17T20:54:07Z</time>
      </trkpt>
      <trkpt lat="43.0936" lon="-1.10758">
        <ele>573</ele>
        <time>2023-05-17T20:54:08Z</time>
      </trkpt>
      <trkpt lat="43.09392" lon="-1.10773">
        <ele>570</ele>
        <time>2023-05-17T20:54:14Z</time>
      </trkpt>
      <trkpt lat="43.09398" lon="-1.1078">
        <ele>571</ele>
        <time>2023-05-17T20:54:15Z</time>
      </trkpt>
      <trkpt lat="43.09407" lon="-1.108">
        <ele>573</ele>
        <time>2023-05-17T20:54:18Z</time>
      </trkpt>
      <trkpt lat="43.09412" lon="-1.10895">
        <ele>589</ele>
        <time>2023-05-17T20:54:30Z</time>
      </trkpt>
      <trkpt lat="43.09411" lon="-1.11001">
        <ele>603</ele>
        <time>2023-05-17T20:54:44Z</time>
      </trkpt>
      <trkpt lat="43.09421" lon="-1.11063">
        <ele>612</ele>
        <time>2023-05-17T20:54:53Z</time>
      </trkpt>
      <trkpt lat="43.09427" lon="-1.11136">
        <ele>623</ele>
        <time>2023-05-17T20:55:02Z</time>
      </trkpt>
      <trkpt lat="43.0943" lon="-1.11149">
        <ele>624</ele>
        <time>2023-05-17T20:55:04Z</time>
      </trkpt>
      <trkpt lat="43.0944" lon="-1.11173">
        <ele>625</ele>
        <time>2023-05-17T20:55:07Z</time>
      </trkpt>
      <trkpt lat="43.09465" lon="-1.11212">
        <ele>627</ele>
        <time>2023-05-17T20:55:14Z</time>
      </trkpt>
      <trkpt lat="43.09519" lon="-1.11318">
        <ele>632</ele>
        <time>2023-05-17T20:55:31Z</time>
      </trkpt>
      <trkpt lat="43.09528" lon="-1.11376">
        <ele>641</ele>
        <time>2023-05-17T20:55:39Z</time>
      </trkpt>
      <trkpt lat="43.09534" lon="-1.11392">
        <ele>643</ele>
        <time>2023-05-17T20:55:41Z</time>
      </trkpt>
      <trkpt lat="43.09539" lon="-1.11398">
        <ele>643</ele>
        <time>2023-05-17T20:55:42Z</time>
      </trkpt>
      <trkpt lat="43.09551" lon="-1.11404">
        <ele>640</ele>
        <time>2023-05-17T20:55:44Z</time>
      </trkpt>
      <trkpt lat="43.09614" lon="-1.11414">
        <ele>625</ele>
        <time>2023-05-17T20:55:56Z</time>
      </trkpt>
      <trkpt lat="43.09621" lon="-1.11417">
        <ele>625</ele>
        <time>2023-05-17T20:55:57Z</time>
      </trkpt>
      <trkpt lat="43.09632" lon="-1.11427">
        <ele>625</ele>
        <time>2023-05-17T20:55:59Z</time>
      </trkpt>
      <trkpt lat="43.09638" lon="-1.11436">
        <ele>627</ele>
        <time>2023-05-17T20:56:01Z</time>
      </trkpt>
      <trkpt lat="43.09657" lon="-1.11476">
        <ele>633</ele>
        <time>2023-05-17T20:56:07Z</time>
      </trkpt>
      <trkpt lat="43.09669" lon="-1.11524">
        <ele>641</ele>
        <time>2023-05-17T20:56:14Z</time>
      </trkpt>
      <trkpt lat="43.09676" lon="-1.11572">
        <ele>646</ele>
        <time>2023-05-17T20:56:20Z</time>
      </trkpt>
      <trkpt lat="43.09667" lon="-1.1169">
        <ele>658</ele>
        <time>2023-05-17T20:56:36Z</time>
      </trkpt>
      <trkpt lat="43.09666" lon="-1.11697">
        <ele>659</ele>
        <time>2023-05-17T20:56:36Z</time>
      </trkpt>
      <trkpt lat="43.09659" lon="-1.11704">
        <ele>663</ele>
        <time>2023-05-17T20:56:38Z</time>
      </trkpt>
      <trkpt lat="43.09655" lon="-1.11703">
        <ele>666</ele>
        <time>2023-05-17T20:56:39Z</time>
      </trkpt>
      <trkpt lat="43.09652" lon="-1.11699">
        <ele>667</ele>
        <time>2023-05-17T20:56:39Z</time>
      </trkpt>
      <trkpt lat="43.0965" lon="-1.11692">
        <ele>668</ele>
        <time>2023-05-17T20:56:40Z</time>
      </trkpt>
      <trkpt lat="43.09647" lon="-1.11631">
        <ele>666</ele>
        <time>2023-05-17T20:56:48Z</time>
      </trkpt>
      <trkpt lat="43.0964" lon="-1.11595">
        <ele>666</ele>
        <time>2023-05-17T20:56:53Z</time>
      </trkpt>
      <trkpt lat="43.09625" lon="-1.11556">
        <ele>665</ele>
        <time>2023-05-17T20:56:59Z</time>
      </trkpt>
      <trkpt lat="43.09619" lon="-1.11547">
        <ele>665</ele>
        <time>2023-05-17T20:57:01Z</time>
      </trkpt>
      <trkpt lat="43.09606" lon="-1.11535">
        <ele>667</ele>
        <time>2023-05-17T20:57:03Z</time>
      </trkpt>
      <trkpt lat="43.09591" lon="-1.11527">
        <ele>671</ele>
        <time>2023-05-17T20:57:06Z</time>
      </trkpt>
      <trkpt lat="43.09583" lon="-1.11526">
        <ele>674</ele>
        <time>2023-05-17T20:57:08Z</time>
      </trkpt>
      <trkpt lat="43.09543" lon="-1.11534">
        <ele>683</ele>
        <time>2023-05-17T20:57:15Z</time>
      </trkpt>
      <trkpt lat="43.09473" lon="-1.1156">
        <ele>711</ele>
        <time>2023-05-17T20:57:28Z</time>
      </trkpt>
      <trkpt lat="43.09466" lon="-1.11558">
        <ele>713</ele>
        <time>2023-05-17T20:57:29Z</time>
      </trkpt>
      <trkpt lat="43.09456" lon="-1.11551">
        <ele>716</ele>
        <time>2023-05-17T20:57:31Z</time>
      </trkpt>
      <trkpt lat="43.09429" lon="-1.11508">
        <ele>717</ele>
        <time>2023-05-17T20:57:38Z</time>
      </trkpt>
      <trkpt lat="43.094" lon="-1.11478">
        <ele>721</ele>
        <time>2023-05-17T20:57:45Z</time>
      </trkpt>
      <trkpt lat="43.09379" lon="-1.11464">
        <ele>724</ele>
        <time>2023-05-17T20:57:49Z</time>
      </trkpt>
      <trkpt lat="43.09342" lon="-1.11445">
        <ele>730</ele>
        <time>2023-05-17T20:57:56Z</time>
      </trkpt>
      <trkpt lat="43.09318" lon="-1.11427">
        <ele>733</ele>
        <time>2023-05-17T20:58:01Z</time>
      </trkpt>
      <trkpt lat="43.09297" lon="-1.11418">
        <ele>737</ele>
        <time>2023-05-17T20:58:05Z</time>
      </trkpt>
      <trkpt lat="43.09275" lon="-1.11413">
        <ele>742</ele>
        <time>2023-05-17T20:58:09Z</time>
      </trkpt>
      <trkpt lat="43.0926" lon="-1.11405">
        <ele>744</ele>
        <time>2023-05-17T20:58:12Z</time>
      </trkpt>
      <trkpt lat="43.09245" lon="-1.11391">
        <ele>745</ele>
        <time>2023-05-17T20:58:15Z</time>
      </trkpt>
      <trkpt lat="43.09205" lon="-1.11337">
        <ele>747</ele>
        <time>2023-05-17T20:58:25Z</time>
      </trkpt>
      <trkpt lat="43.09157" lon="-1.11266">
        <ele>752</ele>
        <time>2023-05-17T20:58:37Z</time>
      </trkpt>
      <trkpt lat="43.09106" lon="-1.11182">
        <ele>761</ele>
        <time>2023-05-17T20:58:52Z</time>
      </trkpt>
      <trkpt lat="43.09017" lon="-1.11059">
        <ele>773</ele>
        <time>2023-05-17T20:59:14Z</time>
      </trkpt>
      <trkpt lat="43.08968" lon="-1.10978">
        <ele>772</ele>
        <time>2023-05-17T20:59:28Z</time>
      </trkpt>
      <trkpt lat="43.08959" lon="-1.10969">
        <ele>772</ele>
        <time>2023-05-17T20:59:30Z</time>
      </trkpt>
      <trkpt lat="43.08937" lon="-1.10956">
        <ele>774</ele>
        <time>2023-05-17T20:59:34Z</time>
      </trkpt>
      <trkpt lat="43.08862" lon="-1.10932">
        <ele>776</ele>
        <time>2023-05-17T20:59:48Z</time>
      </trkpt>
      <trkpt lat="43.08807" lon="-1.10897">
        <ele>777</ele>
        <time>2023-05-17T20:59:59Z</time>
      </trkpt>
      <trkpt lat="43.08786" lon="-1.1088">
        <ele>776</ele>
        <time>2023-05-17T21:00:03Z</time>
      </trkpt>
      <trkpt lat="43.08762" lon="-1.1085">
        <ele>778</ele>
        <time>2023-05-17T21:00:09Z</time>
      </trkpt>
      <trkpt lat="43.08688" lon="-1.10719">
        <ele>770</ele>
        <time>2023-05-17T21:00:30Z</time>
      </trkpt>
      <trkpt lat="43.08638" lon="-1.10621">
        <ele>771</ele>
        <time>2023-05-17T21:00:46Z</time>
      </trkpt>
      <trkpt lat="43.08613" lon="-1.10589">
        <ele>775</ele>
        <time>2023-05-17T21:00:52Z</time>
      </trkpt>
      <trkpt lat="43.0856" lon="-1.10531">
        <ele>783</ele>
        <time>2023-05-17T21:01:04Z</time>
      </trkpt>
      <trkpt lat="43.08536" lon="-1.1051">
        <ele>788</ele>
        <time>2023-05-17T21:01:09Z</time>
      </trkpt>
      <trkpt lat="43.08487" lon="-1.10478">
        <ele>798</ele>
        <time>2023-05-17T21:01:19Z</time>
      </trkpt>
      <trkpt lat="43.08424" lon="-1.10459">
        <ele>803</ele>
        <time>2023-05-17T21:01:30Z</time>
      </trkpt>
      <trkpt lat="43.08407" lon="-1.10451">
        <ele>804</ele>
        <time>2023-05-17T21:01:33Z</time>
      </trkpt>
      <trkpt lat="43.08392" lon="-1.10436">
        <ele>806</ele>
        <time>2023-05-17T21:01:37Z</time>
      </trkpt>
      <trkpt lat="43.08357" lon="-1.10392">
        <ele>812</ele>
        <time>2023-05-17T21:01:45Z</time>
      </trkpt>
      <trkpt lat="43.08324" lon="-1.10345">
        <ele>817</ele>
        <time>2023-05-17T21:01:53Z</time>
      </trkpt>
      <trkpt lat="43.08309" lon="-1.10319">
        <ele>817</ele>
        <time>2023-05-17T21:01:58Z</time>
      </trkpt>
      <trkpt lat="43.083" lon="-1.1029">
        <ele>820</ele>
        <time>2023-05-17T21:02:02Z</time>
      </trkpt>
      <trkpt lat="43.08297" lon="-1.10255">
        <ele>825</ele>
        <time>2023-05-17T21:02:06Z</time>
      </trkpt>
      <trkpt lat="43.0829" lon="-1.10231">
        <ele>830</ele>
        <time>2023-05-17T21:02:10Z</time>
      </trkpt>
      <trkpt lat="43.08267" lon="-1.10195">
        <ele>833</ele>
        <time>2023-05-17T21:02:16Z</time>
      </trkpt>
      <trkpt lat="43.08208" lon="-1.10129">
        <ele>836</ele>
        <time>2023-05-17T21:02:30Z</time>
      </trkpt>
      <trkpt lat="43.08202" lon="-1.10114">
        <ele>839</ele>
        <time>2023-05-17T21:02:32Z</time>
      </trkpt>
      <trkpt lat="43.08198" lon="-1.1008">
        <ele>849</ele>
        <time>2023-05-17T21:02:36Z</time>
      </trkpt>
      <trkpt lat="43.08193" lon="-1.10066">
        <ele>851</ele>
        <time>2023-05-17T21:02:38Z</time>
      </trkpt>
      <trkpt lat="43.0817" lon="-1.10041">
        <ele>852</ele>
        <time>2023-05-17T21:02:44Z</time>
      </trkpt>
      <trkpt lat="43.08117" lon="-1.09964">
        <ele>866</ele>
        <time>2023-05-17T21:02:57Z</time>
      </trkpt>
      <trkpt lat="43.08062" lon="-1.09901">
        <ele>877</ele>
        <time>2023-05-17T21:03:10Z</time>
      </trkpt>
      <trkpt lat="43.08047" lon="-1.09892">
        <ele>879</ele>
        <time>2023-05-17T21:03:13Z</time>
      </trkpt>
      <trkpt lat="43.08038" lon="-1.0989">
        <ele>880</ele>
        <time>2023-05-17T21:03:15Z</time>
      </trkpt>
      <trkpt lat="43.08028" lon="-1.09891">
        <ele>880</ele>
        <time>2023-05-17T21:03:16Z</time>
      </trkpt>
      <trkpt lat="43.08011" lon="-1.09902">
        <ele>879</ele>
        <time>2023-05-17T21:03:20Z</time>
      </trkpt>
      <trkpt lat="43.0799" lon="-1.09923">
        <ele>876</ele>
        <time>2023-05-17T21:03:24Z</time>
      </trkpt>
      <trkpt lat="43.0797" lon="-1.09932">
        <ele>873</ele>
        <time>2023-05-17T21:03:28Z</time>
      </trkpt>
      <trkpt lat="43.07947" lon="-1.09937">
        <ele>871</ele>
        <time>2023-05-17T21:03:32Z</time>
      </trkpt>
      <trkpt lat="43.07937" lon="-1.09937">
        <ele>871</ele>
        <time>2023-05-17T21:03:34Z</time>
      </trkpt>
      <trkpt lat="43.07907" lon="-1.09927">
        <ele>874</ele>
        <time>2023-05-17T21:03:40Z</time>
      </trkpt>
      <trkpt lat="43.07857" lon="-1.09897">
        <ele>877</ele>
        <time>2023-05-17T21:03:49Z</time>
      </trkpt>
      <trkpt lat="43.07764" lon="-1.09826">
        <ele>887</ele>
        <time>2023-05-17T21:04:08Z</time>
      </trkpt>
      <trkpt lat="43.07736" lon="-1.09811">
        <ele>890</ele>
        <time>2023-05-17T21:04:14Z</time>
      </trkpt>
      <trkpt lat="43.07705" lon="-1.09802">
        <ele>892</ele>
        <time>2023-05-17T21:04:19Z</time>
      </trkpt>
      <trkpt lat="43.07667" lon="-1.09796">
        <ele>895</ele>
        <time>2023-05-17T21:04:26Z</time>
      </trkpt>
      <trkpt lat="43.07651" lon="-1.09791">
        <ele>897</ele>
        <time>2023-05-17T21:04:29Z</time>
      </trkpt>
      <trkpt lat="43.07622" lon="-1.09776">
        <ele>901</ele>
        <time>2023-05-17T21:04:34Z</time>
      </trkpt>
      <trkpt lat="43.07596" lon="-1.09759">
        <ele>905</ele>
        <time>2023-05-17T21:04:40Z</time>
      </trkpt>
      <trkpt lat="43.07583" lon="-1.09749">
        <ele>907</ele>
        <time>2023-05-17T21:04:42Z</time>
      </trkpt>
      <trkpt lat="43.07555" lon="-1.0972">
        <ele>909</ele>
        <time>2023-05-17T21:04:48Z</time>
      </trkpt>
      <trkpt lat="43.07464" lon="-1.09614">
        <ele>923</ele>
        <time>2023-05-17T21:05:10Z</time>
      </trkpt>
      <trkpt lat="43.07378" lon="-1.09552">
        <ele>941</ele>
        <time>2023-05-17T21:05:27Z</time>
      </trkpt>
      <trkpt lat="43.07362" lon="-1.09535">
        <ele>945</ele>
        <time>2023-05-17T21:05:31Z</time>
      </trkpt>
      <trkpt lat="43.07335" lon="-1.09495">
        <ele>953</ele>
        <time>2023-05-17T21:05:38Z</time>
      </trkpt>
      <trkpt lat="43.07289" lon="-1.09394">
        <ele>961</ele>
        <time>2023-05-17T21:05:53Z</time>
      </trkpt>
      <trkpt lat="43.07251" lon="-1.09324">
        <ele>965</ele>
        <time>2023-05-17T21:06:04Z</time>
      </trkpt>
      <trkpt lat="43.07229" lon="-1.09294">
        <ele>967</ele>
        <time>2023-05-17T21:06:10Z</time>
      </trkpt>
      <trkpt lat="43.07191" lon="-1.09259">
        <ele>975</ele>
        <time>2023-05-17T21:06:18Z</time>
      </trkpt>
      <trkpt lat="43.07136" lon="-1.09195">
        <ele>987</ele>
        <time>2023-05-17T21:06:31Z</time>
      </trkpt>
      <trkpt lat="43.07102" lon="-1.09167">
        <ele>996</ele>
        <time>2023-05-17T21:06:38Z</time>
      </trkpt>
      <trkpt lat="43.07091" lon="-1.09156">
        <ele>1000</ele>
        <time>2023-05-17T21:06:40Z</time>
      </trkpt>
      <trkpt lat="43.07089" lon="-1.09151">
        <ele>1001</ele>
        <time>2023-05-17T21:06:41Z</time>
      </trkpt>
      <trkpt lat="43.07089" lon="-1.09137">
        <ele>1001</ele>
        <time>2023-05-17T21:06:43Z</time>
      </trkpt>
      <trkpt lat="43.07092" lon="-1.09131">
        <ele>1000</ele>
        <time>2023-05-17T21:06:44Z</time>
      </trkpt>
      <trkpt lat="43.07104" lon="-1.09116">
        <ele>997</ele>
        <time>2023-05-17T21:06:47Z</time>
      </trkpt>
      <trkpt lat="43.0714" lon="-1.09057">
        <ele>987</ele>
        <time>2023-05-17T21:06:57Z</time>
      </trkpt>
      <trkpt lat="43.07147" lon="-1.09047">
        <ele>986</ele>
        <time>2023-05-17T21:06:59Z</time>
      </trkpt>
      <trkpt lat="43.07172" lon="-1.09024">
        <ele>981</ele>
        <time>2023-05-17T21:07:04Z</time>
      </trkpt>
      <trkpt lat="43.07174" lon="-1.09013">
        <ele>981</ele>
        <time>2023-05-17T21:07:06Z</time>
      </trkpt>
      <trkpt lat="43.0717" lon="-1.09007">
        <ele>982</ele>
        <time>2023-05-17T21:07:07Z</time>
      </trkpt>
      <trkpt lat="43.07163" lon="-1.09007">
        <ele>983</ele>
        <time>2023-05-17T21:07:08Z</time>
      </trkpt>
      <trkpt lat="43.07152" lon="-1.09016">
        <ele>985</ele>
        <time>2023-05-17T21:07:10Z</time>
      </trkpt>
      <trkpt lat="43.07102" lon="-1.09069">
        <ele>998</ele>
        <time>2023-05-17T21:07:21Z</time>
      </trkpt>
      <trkpt lat="43.07034" lon="-1.09126">
        <ele>1020</ele>
        <time>2023-05-17T21:07:36Z</time>
      </trkpt>
      <trkpt lat="43.07026" lon="-1.09138">
        <ele>1023</ele>
        <time>2023-05-17T21:07:38Z</time>
      </trkpt>
      <trkpt lat="43.07025" lon="-1.09152">
        <ele>1023</ele>
        <time>2023-05-17T21:07:39Z</time>
      </trkpt>
      <trkpt lat="43.07027" lon="-1.09161">
        <ele>1022</ele>
        <time>2023-05-17T21:07:41Z</time>
      </trkpt>
      <trkpt lat="43.07048" lon="-1.09219">
        <ele>1022</ele>
        <time>2023-05-17T21:07:49Z</time>
      </trkpt>
      <trkpt lat="43.0709" lon="-1.09287">
        <ele>1020</ele>
        <time>2023-05-17T21:08:01Z</time>
      </trkpt>
      <trkpt lat="43.0709" lon="-1.09297">
        <ele>1021</ele>
        <time>2023-05-17T21:08:02Z</time>
      </trkpt>
      <trkpt lat="43.07085" lon="-1.09302">
        <ele>1024</ele>
        <time>2023-05-17T21:08:03Z</time>
      </trkpt>
      <trkpt lat="43.07082" lon="-1.09302">
        <ele>1025</ele>
        <time>2023-05-17T21:08:04Z</time>
      </trkpt>
      <trkpt lat="43.07051" lon="-1.09272">
        <ele>1028</ele>
        <time>2023-05-17T21:08:10Z</time>
      </trkpt>
      <trkpt lat="43.06981" lon="-1.09219">
        <ele>1042</ele>
        <time>2023-05-17T21:08:25Z</time>
      </trkpt>
      <trkpt lat="43.06921" lon="-1.09162">
        <ele>1055</ele>
        <time>2023-05-17T21:08:38Z</time>
      </trkpt>
      <trkpt lat="43.06909" lon="-1.09146">
        <ele>1057</ele>
        <time>2023-05-17T21:08:41Z</time>
      </trkpt>
      <trkpt lat="43.06905" lon="-1.09124">
        <ele>1058</ele>
        <time>2023-05-17T21:08:44Z</time>
      </trkpt>
      <trkpt lat="43.06909" lon="-1.09099">
        <ele>1056</ele>
        <time>2023-05-17T21:08:47Z</time>
      </trkpt>
      <trkpt lat="43.0692" lon="-1.09068">
        <ele>1053</ele>
        <time>2023-05-17T21:08:51Z</time>
      </trkpt>
      <trkpt lat="43.06948" lon="-1.09015">
        <ele>1045</ele>
        <time>2023-05-17T21:09:00Z</time>
      </trkpt>
      <trkpt lat="43.06949" lon="-1.09002">
        <ele>1045</ele>
        <time>2023-05-17T21:09:02Z</time>
      </trkpt>
      <trkpt lat="43.06945" lon="-1.08993">
        <ele>1044</ele>
        <time>2023-05-17T21:09:03Z</time>
      </trkpt>
      <trkpt lat="43.06942" lon="-1.08992">
        <ele>1044</ele>
        <time>2023-05-17T21:09:03Z</time>
      </trkpt>
      <trkpt lat="43.06934" lon="-1.08995">
        <ele>1047</ele>
        <time>2023-05-17T21:09:05Z</time>
      </trkpt>
      <trkpt lat="43.06869" lon="-1.09066">
        <ele>1067</ele>
        <time>2023-05-17T21:09:20Z</time>
      </trkpt>
      <trkpt lat="43.06839" lon="-1.09107">
        <ele>1074</ele>
        <time>2023-05-17T21:09:27Z</time>
      </trkpt>
      <trkpt lat="43.06816" lon="-1.09152">
        <ele>1079</ele>
        <time>2023-05-17T21:09:34Z</time>
      </trkpt>
      <trkpt lat="43.06806" lon="-1.09155">
        <ele>1082</ele>
        <time>2023-05-17T21:09:36Z</time>
      </trkpt>
      <trkpt lat="43.06802" lon="-1.09153">
        <ele>1084</ele>
        <time>2023-05-17T21:09:37Z</time>
      </trkpt>
      <trkpt lat="43.06795" lon="-1.09141">
        <ele>1087</ele>
        <time>2023-05-17T21:09:39Z</time>
      </trkpt>
      <trkpt lat="43.06795" lon="-1.09125">
        <ele>1088</ele>
        <time>2023-05-17T21:09:41Z</time>
      </trkpt>
      <trkpt lat="43.06798" lon="-1.09113">
        <ele>1088</ele>
        <time>2023-05-17T21:09:43Z</time>
      </trkpt>
      <trkpt lat="43.06825" lon="-1.0905">
        <ele>1079</ele>
        <time>2023-05-17T21:09:52Z</time>
      </trkpt>
      <trkpt lat="43.0683" lon="-1.09031">
        <ele>1078</ele>
        <time>2023-05-17T21:09:55Z</time>
      </trkpt>
      <trkpt lat="43.06826" lon="-1.09013">
        <ele>1079</ele>
        <time>2023-05-17T21:09:57Z</time>
      </trkpt>
      <trkpt lat="43.06813" lon="-1.08999">
        <ele>1082</ele>
        <time>2023-05-17T21:10:00Z</time>
      </trkpt>
      <trkpt lat="43.06789" lon="-1.08986">
        <ele>1081</ele>
        <time>2023-05-17T21:10:05Z</time>
      </trkpt>
      <trkpt lat="43.06772" lon="-1.08982">
        <ele>1083</ele>
        <time>2023-05-17T21:10:08Z</time>
      </trkpt>
      <trkpt lat="43.06755" lon="-1.08987">
        <ele>1090</ele>
        <time>2023-05-17T21:10:11Z</time>
      </trkpt>
      <trkpt lat="43.06737" lon="-1.08998">
        <ele>1099</ele>
        <time>2023-05-17T21:10:14Z</time>
      </trkpt>
      <trkpt lat="43.06719" lon="-1.09002">
        <ele>1104</ele>
        <time>2023-05-17T21:10:18Z</time>
      </trkpt>
      <trkpt lat="43.06657" lon="-1.08989">
        <ele>1112</ele>
        <time>2023-05-17T21:10:29Z</time>
      </trkpt>
      <trkpt lat="43.06601" lon="-1.08955">
        <ele>1123</ele>
        <time>2023-05-17T21:10:40Z</time>
      </trkpt>
      <trkpt lat="43.06583" lon="-1.08941">
        <ele>1125</ele>
        <time>2023-05-17T21:10:43Z</time>
      </trkpt>
      <trkpt lat="43.0657" lon="-1.08923">
        <ele>1121</ele>
        <time>2023-05-17T21:10:47Z</time>
      </trkpt>
      <trkpt lat="43.06551" lon="-1.08875">
        <ele>1113</ele>
        <time>2023-05-17T21:10:54Z</time>
      </trkpt>
      <trkpt lat="43.06538" lon="-1.08866">
        <ele>1112</ele>
        <time>2023-05-17T21:10:56Z</time>
      </trkpt>
      <trkpt lat="43.06522" lon="-1.08867">
        <ele>1115</ele>
        <time>2023-05-17T21:10:59Z</time>
      </trkpt>
      <trkpt lat="43.06466" lon="-1.0889">
        <ele>1127</ele>
        <time>2023-05-17T21:11:10Z</time>
      </trkpt>
      <trkpt lat="43.06457" lon="-1.08891">
        <ele>1127</ele>
        <time>2023-05-17T21:11:11Z</time>
      </trkpt>
      <trkpt lat="43.06422" lon="-1.08883">
        <ele>1124</ele>
        <time>2023-05-17T21:11:18Z</time>
      </trkpt>
      <trkpt lat="43.06378" lon="-1.08887">
        <ele>1134</ele>
        <time>2023-05-17T21:11:25Z</time>
      </trkpt>
      <trkpt lat="43.06368" lon="-1.08886">
        <ele>1136</ele>
        <time>2023-05-17T21:11:27Z</time>
      </trkpt>
      <trkpt lat="43.0635" lon="-1.08877">
        <ele>1136</ele>
        <time>2023-05-17T21:11:31Z</time>
      </trkpt>
      <trkpt lat="43.06305" lon="-1.08841">
        <ele>1132</ele>
        <time>2023-05-17T21:11:40Z</time>
      </trkpt>
      <trkpt lat="43.06298" lon="-1.08832">
        <ele>1130</ele>
        <time>2023-05-17T21:11:42Z</time>
      </trkpt>
      <trkpt lat="43.06289" lon="-1.08813">
        <ele>1129</ele>
        <time>2023-05-17T21:11:45Z</time>
      </trkpt>
      <trkpt lat="43.06276" lon="-1.0875">
        <ele>1122</ele>
        <time>2023-05-17T21:11:53Z</time>
      </trkpt>
      <trkpt lat="43.06245" lon="-1.08667">
        <ele>1128</ele>
        <time>2023-05-17T21:12:05Z</time>
      </trkpt>
      <trkpt lat="43.0622" lon="-1.08574">
        <ele>1124</ele>
        <time>2023-05-17T21:12:18Z</time>
      </trkpt>
      <trkpt lat="43.06208" lon="-1.08544">
        <ele>1120</ele>
        <time>2023-05-17T21:12:23Z</time>
      </trkpt>
      <trkpt lat="43.06193" lon="-1.08518">
        <ele>1118</ele>
        <time>2023-05-17T21:12:27Z</time>
      </trkpt>
      <trkpt lat="43.06172" lon="-1.0849">
        <ele>1118</ele>
        <time>2023-05-17T21:12:32Z</time>
      </trkpt>
      <trkpt lat="43.06151" lon="-1.0847">
        <ele>1119</ele>
        <time>2023-05-17T21:12:37Z</time>
      </trkpt>
      <trkpt lat="43.06109" lon="-1.08439">
        <ele>1117</ele>
        <time>2023-05-17T21:12:45Z</time>
      </trkpt>
      <trkpt lat="43.06089" lon="-1.08416">
        <ele>1117</ele>
        <time>2023-05-17T21:12:50Z</time>
      </trkpt>
      <trkpt lat="43.06065" lon="-1.08395">
        <ele>1117</ele>
        <time>2023-05-17T21:12:55Z</time>
      </trkpt>
      <trkpt lat="43.06053" lon="-1.08388">
        <ele>1116</ele>
        <time>2023-05-17T21:12:57Z</time>
      </trkpt>
      <trkpt lat="43.06033" lon="-1.08369">
        <ele>1114</ele>
        <time>2023-05-17T21:13:01Z</time>
      </trkpt>
      <trkpt lat="43.06024" lon="-1.08356">
        <ele>1113</ele>
        <time>2023-05-17T21:13:04Z</time>
      </trkpt>
      <trkpt lat="43.05984" lon="-1.0828">
        <ele>1112</ele>
        <time>2023-05-17T21:13:16Z</time>
      </trkpt>
      <trkpt lat="43.05972" lon="-1.08262">
        <ele>1110</ele>
        <time>2023-05-17T21:13:19Z</time>
      </trkpt>
      <trkpt lat="43.05941" lon="-1.08223">
        <ele>1108</ele>
        <time>2023-05-17T21:13:27Z</time>
      </trkpt>
      <trkpt lat="43.05863" lon="-1.08148">
        <ele>1097</ele>
        <time>2023-05-17T21:13:44Z</time>
      </trkpt>
      <trkpt lat="43.05833" lon="-1.08094">
        <ele>1095</ele>
        <time>2023-05-17T21:13:52Z</time>
      </trkpt>
      <trkpt lat="43.0582" lon="-1.08087">
        <ele>1094</ele>
        <time>2023-05-17T21:13:55Z</time>
      </trkpt>
      <trkpt lat="43.05802" lon="-1.08084">
        <ele>1091</ele>
        <time>2023-05-17T21:13:58Z</time>
      </trkpt>
      <trkpt lat="43.05789" lon="-1.08077">
        <ele>1089</ele>
        <time>2023-05-17T21:14:01Z</time>
      </trkpt>
      <trkpt lat="43.05702" lon="-1.07988">
        <ele>1083</ele>
        <time>2023-05-17T21:14:20Z</time>
      </trkpt>
      <trkpt lat="43.05685" lon="-1.07968">
        <ele>1080</ele>
        <time>2023-05-17T21:14:24Z</time>
      </trkpt>
      <trkpt lat="43.05647" lon="-1.07898">
        <ele>1072</ele>
        <time>2023-05-17T21:14:35Z</time>
      </trkpt>
      <trkpt lat="43.05641" lon="-1.07881">
        <ele>1070</ele>
        <time>2023-05-17T21:14:38Z</time>
      </trkpt>
      <trkpt lat="43.05641" lon="-1.07855">
        <ele>1070</ele>
        <time>2023-05-17T21:14:41Z</time>
      </trkpt>
      <trkpt lat="43.0565" lon="-1.07808">
        <ele>1076</ele>
        <time>2023-05-17T21:14:47Z</time>
      </trkpt>
      <trkpt lat="43.05647" lon="-1.07796">
        <ele>1077</ele>
        <time>2023-05-17T21:14:49Z</time>
      </trkpt>
      <trkpt lat="43.05641" lon="-1.07787">
        <ele>1078</ele>
        <time>2023-05-17T21:14:51Z</time>
      </trkpt>
      <trkpt lat="43.05633" lon="-1.07784">
        <ele>1077</ele>
        <time>2023-05-17T21:14:52Z</time>
      </trkpt>
      <trkpt lat="43.05621" lon="-1.07786">
        <ele>1076</ele>
        <time>2023-05-17T21:14:54Z</time>
      </trkpt>
      <trkpt lat="43.05591" lon="-1.07808">
        <ele>1066</ele>
        <time>2023-05-17T21:15:00Z</time>
      </trkpt>
      <trkpt lat="43.05569" lon="-1.07816">
        <ele>1061</ele>
        <time>2023-05-17T21:15:04Z</time>
      </trkpt>
      <trkpt lat="43.05557" lon="-1.07815">
        <ele>1059</ele>
        <time>2023-05-17T21:15:07Z</time>
      </trkpt>
      <trkpt lat="43.05536" lon="-1.07808">
        <ele>1058</ele>
        <time>2023-05-17T21:15:10Z</time>
      </trkpt>
      <trkpt lat="43.055" lon="-1.07789">
        <ele>1057</ele>
        <time>2023-05-17T21:15:17Z</time>
      </trkpt>
      <trkpt lat="43.05478" lon="-1.07769">
        <ele>1058</ele>
        <time>2023-05-17T21:15:22Z</time>
      </trkpt>
      <trkpt lat="43.05451" lon="-1.07732">
        <ele>1055</ele>
        <time>2023-05-17T21:15:29Z</time>
      </trkpt>
      <trkpt lat="43.05448" lon="-1.0771">
        <ele>1056</ele>
        <time>2023-05-17T21:15:32Z</time>
      </trkpt>
      <trkpt lat="43.05453" lon="-1.0768">
        <ele>1060</ele>
        <time>2023-05-17T21:15:36Z</time>
      </trkpt>
      <trkpt lat="43.05449" lon="-1.07666">
        <ele>1059</ele>
        <time>2023-05-17T21:15:38Z</time>
      </trkpt>
      <trkpt lat="43.05445" lon="-1.07662">
        <ele>1059</ele>
        <time>2023-05-17T21:15:38Z</time>
      </trkpt>
      <trkpt lat="43.05437" lon="-1.07659">
        <ele>1057</ele>
        <time>2023-05-17T21:15:40Z</time>
      </trkpt>
      <trkpt lat="43.05408" lon="-1.07659">
        <ele>1049</ele>
        <time>2023-05-17T21:15:45Z</time>
      </trkpt>
      <trkpt lat="43.05392" lon="-1.0765">
        <ele>1049</ele>
        <time>2023-05-17T21:15:48Z</time>
      </trkpt>
      <trkpt lat="43.05285" lon="-1.07551">
        <ele>1046</ele>
        <time>2023-05-17T21:16:11Z</time>
      </trkpt>
      <trkpt lat="43.0527" lon="-1.07544">
        <ele>1044</ele>
        <time>2023-05-17T21:16:14Z</time>
      </trkpt>
      <trkpt lat="43.05183" lon="-1.0752">
        <ele>1037</ele>
        <time>2023-05-17T21:16:30Z</time>
      </trkpt>
      <trkpt lat="43.05169" lon="-1.07523">
        <ele>1035</ele>
        <time>2023-05-17T21:16:32Z</time>
      </trkpt>
      <trkpt lat="43.05135" lon="-1.07546">
        <ele>1029</ele>
        <time>2023-05-17T21:16:39Z</time>
      </trkpt>
      <trkpt lat="43.05123" lon="-1.07548">
        <ele>1027</ele>
        <time>2023-05-17T21:16:41Z</time>
      </trkpt>
      <trkpt lat="43.05114" lon="-1.07545">
        <ele>1027</ele>
        <time>2023-05-17T21:16:43Z</time>
      </trkpt>
      <trkpt lat="43.05081" lon="-1.07516">
        <ele>1026</ele>
        <time>2023-05-17T21:16:50Z</time>
      </trkpt>
      <trkpt lat="43.05061" lon="-1.07504">
        <ele>1025</ele>
        <time>2023-05-17T21:16:54Z</time>
      </trkpt>
      <trkpt lat="43.05025" lon="-1.07485">
        <ele>1024</ele>
        <time>2023-05-17T21:17:01Z</time>
      </trkpt>
      <trkpt lat="43.04978" lon="-1.07467">
        <ele>1024</ele>
        <time>2023-05-17T21:17:09Z</time>
      </trkpt>
      <trkpt lat="43.04956" lon="-1.07451">
        <ele>1025</ele>
        <time>2023-05-17T21:17:14Z</time>
      </trkpt>
      <trkpt lat="43.04937" lon="-1.07433">
        <ele>1024</ele>
        <time>2023-05-17T21:17:18Z</time>
      </trkpt>
      <trkpt lat="43.04902" lon="-1.0739">
        <ele>1023</ele>
        <time>2023-05-17T21:17:26Z</time>
      </trkpt>
      <trkpt lat="43.04841" lon="-1.07324">
        <ele>1014</ele>
        <time>2023-05-17T21:17:40Z</time>
      </trkpt>
      <trkpt lat="43.0482" lon="-1.07309">
        <ele>1013</ele>
        <time>2023-05-17T21:17:44Z</time>
      </trkpt>
      <trkpt lat="43.04802" lon="-1.07303">
        <ele>1013</ele>
        <time>2023-05-17T21:17:48Z</time>
      </trkpt>
      <trkpt lat="43.04791" lon="-1.07304">
        <ele>1013</ele>
        <time>2023-05-17T21:17:49Z</time>
      </trkpt>
      <trkpt lat="43.04749" lon="-1.07328">
        <ele>1010</ele>
        <time>2023-05-17T21:17:58Z</time>
      </trkpt>
      <trkpt lat="43.04726" lon="-1.07335">
        <ele>1009</ele>
        <time>2023-05-17T21:18:02Z</time>
      </trkpt>
      <trkpt lat="43.04709" lon="-1.07326">
        <ele>1009</ele>
        <time>2023-05-17T21:18:05Z</time>
      </trkpt>
      <trkpt lat="43.04682" lon="-1.0732">
        <ele>1010</ele>
        <time>2023-05-17T21:18:10Z</time>
      </trkpt>
      <trkpt lat="43.04696" lon="-1.07307">
        <ele>1012</ele>
        <time>2023-05-17T21:18:13Z</time>
      </trkpt>
      <trkpt lat="43.04709" lon="-1.07304">
        <ele>1012</ele>
        <time>2023-05-17T21:18:15Z</time>
      </trkpt>
      <trkpt lat="43.04738" lon="-1.07304">
        <ele>1012</ele>
        <time>2023-05-17T21:18:20Z</time>
      </trkpt>
      <trkpt lat="43.04755" lon="-1.07298">
        <ele>1013</ele>
        <time>2023-05-17T21:18:24Z</time>
      </trkpt>
      <trkpt lat="43.04829" lon="-1.07217">
        <ele>1024</ele>
        <time>2023-05-17T21:18:40Z</time>
      </trkpt>
      <trkpt lat="43.04849" lon="-1.07202">
        <ele>1027</ele>
        <time>2023-05-17T21:18:44Z</time>
      </trkpt>
      <trkpt lat="43.04902" lon="-1.07169">
        <ele>1032</ele>
        <time>2023-05-17T21:18:55Z</time>
      </trkpt>
      <trkpt lat="43.04929" lon="-1.07148">
        <ele>1037</ele>
        <time>2023-05-17T21:19:00Z</time>
      </trkpt>
      <trkpt lat="43.04961" lon="-1.07116">
        <ele>1042</ele>
        <time>2023-05-17T21:19:07Z</time>
      </trkpt>
      <trkpt lat="43.04984" lon="-1.07086">
        <ele>1046</ele>
        <time>2023-05-17T21:19:13Z</time>
      </trkpt>
      <trkpt lat="43.05032" lon="-1.07006">
        <ele>1046</ele>
        <time>2023-05-17T21:19:26Z</time>
      </trkpt>
      <trkpt lat="43.05049" lon="-1.06973">
        <ele>1042</ele>
        <time>2023-05-17T21:19:32Z</time>
      </trkpt>
      <trkpt lat="43.05051" lon="-1.06952">
        <ele>1042</ele>
        <time>2023-05-17T21:19:34Z</time>
      </trkpt>
      <trkpt lat="43.05049" lon="-1.0693">
        <ele>1044</ele>
        <time>2023-05-17T21:19:37Z</time>
      </trkpt>
      <trkpt lat="43.05031" lon="-1.06879">
        <ele>1054</ele>
        <time>2023-05-17T21:19:45Z</time>
      </trkpt>
      <trkpt lat="43.05029" lon="-1.06865">
        <ele>1055</ele>
        <time>2023-05-17T21:19:47Z</time>
      </trkpt>
      <trkpt lat="43.05028" lon="-1.06851">
        <ele>1056</ele>
        <time>2023-05-17T21:19:48Z</time>
      </trkpt>
      <trkpt lat="43.05031" lon="-1.06826">
        <ele>1055</ele>
        <time>2023-05-17T21:19:52Z</time>
      </trkpt>
      <trkpt lat="43.0504" lon="-1.06807">
        <ele>1052</ele>
        <time>2023-05-17T21:19:55Z</time>
      </trkpt>
      <trkpt lat="43.05066" lon="-1.06769">
        <ele>1042</ele>
        <time>2023-05-17T21:20:01Z</time>
      </trkpt>
      <trkpt lat="43.05111" lon="-1.0671">
        <ele>1037</ele>
        <time>2023-05-17T21:20:13Z</time>
      </trkpt>
      <trkpt lat="43.05119" lon="-1.06696">
        <ele>1037</ele>
        <time>2023-05-17T21:20:15Z</time>
      </trkpt>
      <trkpt lat="43.05126" lon="-1.06672">
        <ele>1037</ele>
        <time>2023-05-17T21:20:18Z</time>
      </trkpt>
      <trkpt lat="43.05125" lon="-1.06645">
        <ele>1037</ele>
        <time>2023-05-17T21:20:22Z</time>
      </trkpt>
      <trkpt lat="43.0512" lon="-1.06632">
        <ele>1037</ele>
        <time>2023-05-17T21:20:24Z</time>
      </trkpt>
      <trkpt lat="43.0508" lon="-1.06569">
        <ele>1036</ele>
        <time>2023-05-17T21:20:34Z</time>
      </trkpt>
      <trkpt lat="43.05068" lon="-1.06532">
        <ele>1039</ele>
        <time>2023-05-17T21:20:40Z</time>
      </trkpt>
      <trkpt lat="43.05061" lon="-1.06499">
        <ele>1039</ele>
        <time>2023-05-17T21:20:44Z</time>
      </trkpt>
      <trkpt lat="43.05035" lon="-1.06417">
        <ele>1041</ele>
        <time>2023-05-17T21:20:56Z</time>
      </trkpt>
      <trkpt lat="43.05026" lon="-1.06379">
        <ele>1047</ele>
        <time>2023-05-17T21:21:01Z</time>
      </trkpt>
      <trkpt lat="43.05015" lon="-1.06354">
        <ele>1050</ele>
        <time>2023-05-17T21:21:05Z</time>
      </trkpt>
      <trkpt lat="43.05005" lon="-1.0634">
        <ele>1051</ele>
        <time>2023-05-17T21:21:07Z</time>
      </trkpt>
      <trkpt lat="43.04983" lon="-1.06321">
        <ele>1056</ele>
        <time>2023-05-17T21:21:12Z</time>
      </trkpt>
      <trkpt lat="43.04962" lon="-1.0631">
        <ele>1059</ele>
        <time>2023-05-17T21:21:16Z</time>
      </trkpt>
      <trkpt lat="43.04937" lon="-1.06306">
        <ele>1061</ele>
        <time>2023-05-17T21:21:20Z</time>
      </trkpt>
      <trkpt lat="43.04907" lon="-1.06307">
        <ele>1062</ele>
        <time>2023-05-17T21:21:26Z</time>
      </trkpt>
      <trkpt lat="43.0489" lon="-1.06305">
        <ele>1062</ele>
        <time>2023-05-17T21:21:29Z</time>
      </trkpt>
      <trkpt lat="43.0488" lon="-1.06301">
        <ele>1062</ele>
        <time>2023-05-17T21:21:31Z</time>
      </trkpt>
      <trkpt lat="43.04873" lon="-1.06293">
        <ele>1063</ele>
        <time>2023-05-17T21:21:32Z</time>
      </trkpt>
      <trkpt lat="43.0487" lon="-1.0628">
        <ele>1064</ele>
        <time>2023-05-17T21:21:34Z</time>
      </trkpt>
      <trkpt lat="43.04883" lon="-1.0622">
        <ele>1066</ele>
        <time>2023-05-17T21:21:42Z</time>
      </trkpt>
      <trkpt lat="43.04874" lon="-1.06115">
        <ele>1067</ele>
        <time>2023-05-17T21:21:56Z</time>
      </trkpt>
      <trkpt lat="43.04877" lon="-1.0609">
        <ele>1069</ele>
        <time>2023-05-17T21:21:59Z</time>
      </trkpt>
      <trkpt lat="43.04889" lon="-1.06037">
        <ele>1074</ele>
        <time>2023-05-17T21:22:06Z</time>
      </trkpt>
      <trkpt lat="43.0489" lon="-1.06006">
        <ele>1077</ele>
        <time>2023-05-17T21:22:11Z</time>
      </trkpt>
      <trkpt lat="43.04885" lon="-1.05958">
        <ele>1084</ele>
        <time>2023-05-17T21:22:17Z</time>
      </trkpt>
      <trkpt lat="43.04873" lon="-1.05918">
        <ele>1087</ele>
        <time>2023-05-17T21:22:22Z</time>
      </trkpt>
      <trkpt lat="43.04843" lon="-1.05886">
        <ele>1087</ele>
        <time>2023-05-17T21:22:29Z</time>
      </trkpt>
      <trkpt lat="43.04819" lon="-1.05878">
        <ele>1085</ele>
        <time>2023-05-17T21:22:34Z</time>
      </trkpt>
      <trkpt lat="43.04808" lon="-1.05871">
        <ele>1085</ele>
        <time>2023-05-17T21:22:36Z</time>
      </trkpt>
      <trkpt lat="43.04785" lon="-1.05848">
        <ele>1084</ele>
        <time>2023-05-17T21:22:41Z</time>
      </trkpt>
      <trkpt lat="43.04765" lon="-1.05796">
        <ele>1085</ele>
        <time>2023-05-17T21:22:48Z</time>
      </trkpt>
      <trkpt lat="43.04724" lon="-1.05657">
        <ele>1097</ele>
        <time>2023-05-17T21:23:08Z</time>
      </trkpt>
      <trkpt lat="43.04709" lon="-1.0563">
        <ele>1099</ele>
        <time>2023-05-17T21:23:12Z</time>
      </trkpt>
      <trkpt lat="43.04684" lon="-1.05603">
        <ele>1095</ele>
        <time>2023-05-17T21:23:18Z</time>
      </trkpt>
      <trkpt lat="43.04652" lon="-1.0558">
        <ele>1092</ele>
        <time>2023-05-17T21:23:24Z</time>
      </trkpt>
      <trkpt lat="43.04572" lon="-1.05483">
        <ele>1088</ele>
        <time>2023-05-17T21:23:43Z</time>
      </trkpt>
      <trkpt lat="43.0456" lon="-1.05477">
        <ele>1090</ele>
        <time>2023-05-17T21:23:46Z</time>
      </trkpt>
      <trkpt lat="43.04549" lon="-1.05478">
        <ele>1091</ele>
        <time>2023-05-17T21:23:48Z</time>
      </trkpt>
      <trkpt lat="43.04464" lon="-1.0551">
        <ele>1102</ele>
        <time>2023-05-17T21:24:03Z</time>
      </trkpt>
      <trkpt lat="43.04441" lon="-1.0551">
        <ele>1105</ele>
        <time>2023-05-17T21:24:08Z</time>
      </trkpt>
      <trkpt lat="43.04423" lon="-1.05503">
        <ele>1105</ele>
        <time>2023-05-17T21:24:11Z</time>
      </trkpt>
      <trkpt lat="43.04417" lon="-1.05503">
        <ele>1106</ele>
        <time>2023-05-17T21:24:12Z</time>
      </trkpt>
      <trkpt lat="43.04332" lon="-1.05549">
        <ele>1123</ele>
        <time>2023-05-17T21:24:28Z</time>
      </trkpt>
      <trkpt lat="43.04323" lon="-1.05556">
        <ele>1125</ele>
        <time>2023-05-17T21:24:30Z</time>
      </trkpt>
      <trkpt lat="43.04315" lon="-1.05571">
        <ele>1125</ele>
        <time>2023-05-17T21:24:32Z</time>
      </trkpt>
      <trkpt lat="43.04308" lon="-1.05598">
        <ele>1125</ele>
        <time>2023-05-17T21:24:36Z</time>
      </trkpt>
      <trkpt lat="43.04293" lon="-1.05634">
        <ele>1127</ele>
        <time>2023-05-17T21:24:42Z</time>
      </trkpt>
      <trkpt lat="43.0425" lon="-1.05723">
        <ele>1125</ele>
        <time>2023-05-17T21:24:55Z</time>
      </trkpt>
      <trkpt lat="43.0421" lon="-1.05797">
        <ele>1132</ele>
        <time>2023-05-17T21:25:07Z</time>
      </trkpt>
      <trkpt lat="43.04192" lon="-1.05819">
        <ele>1132</ele>
        <time>2023-05-17T21:25:12Z</time>
      </trkpt>
      <trkpt lat="43.04171" lon="-1.05834">
        <ele>1128</ele>
        <time>2023-05-17T21:25:16Z</time>
      </trkpt>
      <trkpt lat="43.04151" lon="-1.05845">
        <ele>1131</ele>
        <time>2023-05-17T21:25:20Z</time>
      </trkpt>
      <trkpt lat="43.04124" lon="-1.05852">
        <ele>1135</ele>
        <time>2023-05-17T21:25:25Z</time>
      </trkpt>
      <trkpt lat="43.04099" lon="-1.05852">
        <ele>1138</ele>
        <time>2023-05-17T21:25:29Z</time>
      </trkpt>
      <trkpt lat="43.04078" lon="-1.05846">
        <ele>1139</ele>
        <time>2023-05-17T21:25:33Z</time>
      </trkpt>
      <trkpt lat="43.04054" lon="-1.05831">
        <ele>1139</ele>
        <time>2023-05-17T21:25:38Z</time>
      </trkpt>
      <trkpt lat="43.0404" lon="-1.05816">
        <ele>1138</ele>
        <time>2023-05-17T21:25:41Z</time>
      </trkpt>
      <trkpt lat="43.03977" lon="-1.05724">
        <ele>1132</ele>
        <time>2023-05-17T21:25:57Z</time>
      </trkpt>
      <trkpt lat="43.03956" lon="-1.05702">
        <ele>1135</ele>
        <time>2023-05-17T21:26:02Z</time>
      </trkpt>
      <trkpt lat="43.03918" lon="-1.05684">
        <ele>1136</ele>
        <time>2023-05-17T21:26:09Z</time>
      </trkpt>
      <trkpt lat="43.03879" lon="-1.05649">
        <ele>1142</ele>
        <time>2023-05-17T21:26:17Z</time>
      </trkpt>
      <trkpt lat="43.03838" lon="-1.05627">
        <ele>1146</ele>
        <time>2023-05-17T21:26:25Z</time>
      </trkpt>
      <trkpt lat="43.03831" lon="-1.05621">
        <ele>1146</ele>
        <time>2023-05-17T21:26:27Z</time>
      </trkpt>
      <trkpt lat="43.03817" lon="-1.05606">
        <ele>1148</ele>
        <time>2023-05-17T21:26:30Z</time>
      </trkpt>
      <trkpt lat="43.03799" lon="-1.05579">
        <ele>1151</ele>
        <time>2023-05-17T21:26:35Z</time>
      </trkpt>
      <trkpt lat="43.03793" lon="-1.05566">
        <ele>1152</ele>
        <time>2023-05-17T21:26:37Z</time>
      </trkpt>
      <trkpt lat="43.0379" lon="-1.05549">
        <ele>1153</ele>
        <time>2023-05-17T21:26:39Z</time>
      </trkpt>
      <trkpt lat="43.03798" lon="-1.05486">
        <ele>1152</ele>
        <time>2023-05-17T21:26:47Z</time>
      </trkpt>
      <trkpt lat="43.03774" lon="-1.05362">
        <ele>1151</ele>
        <time>2023-05-17T21:27:04Z</time>
      </trkpt>
      <trkpt lat="43.03764" lon="-1.05233">
        <ele>1159</ele>
        <time>2023-05-17T21:27:21Z</time>
      </trkpt>
      <trkpt lat="43.03763" lon="-1.05174">
        <ele>1160</ele>
        <time>2023-05-17T21:27:28Z</time>
      </trkpt>
      <trkpt lat="43.03769" lon="-1.05113">
        <ele>1160</ele>
        <time>2023-05-17T21:27:36Z</time>
      </trkpt>
      <trkpt lat="43.03765" lon="-1.0505">
        <ele>1162</ele>
        <time>2023-05-17T21:27:45Z</time>
      </trkpt>
      <trkpt lat="43.03759" lon="-1.05028">
        <ele>1162</ele>
        <time>2023-05-17T21:27:48Z</time>
      </trkpt>
      <trkpt lat="43.03744" lon="-1.04995">
        <ele>1163</ele>
        <time>2023-05-17T21:27:53Z</time>
      </trkpt>
      <trkpt lat="43.0374" lon="-1.04981">
        <ele>1165</ele>
        <time>2023-05-17T21:27:55Z</time>
      </trkpt>
      <trkpt lat="43.03717" lon="-1.04854">
        <ele>1177</ele>
        <time>2023-05-17T21:28:12Z</time>
      </trkpt>
      <trkpt lat="43.03708" lon="-1.04782">
        <ele>1183</ele>
        <time>2023-05-17T21:28:21Z</time>
      </trkpt>
      <trkpt lat="43.03695" lon="-1.0475">
        <ele>1186</ele>
        <time>2023-05-17T21:28:26Z</time>
      </trkpt>
      <trkpt lat="43.03631" lon="-1.04642">
        <ele>1189</ele>
        <time>2023-05-17T21:28:44Z</time>
      </trkpt>
      <trkpt lat="43.03592" lon="-1.04568">
        <ele>1190</ele>
        <time>2023-05-17T21:28:56Z</time>
      </trkpt>
      <trkpt lat="43.03566" lon="-1.04525">
        <ele>1193</ele>
        <time>2023-05-17T21:29:03Z</time>
      </trkpt>
      <trkpt lat="43.03563" lon="-1.0451">
        <ele>1193</ele>
        <time>2023-05-17T21:29:05Z</time>
      </trkpt>
      <trkpt lat="43.03564" lon="-1.04499">
        <ele>1193</ele>
        <time>2023-05-17T21:29:07Z</time>
      </trkpt>
      <trkpt lat="43.03581" lon="-1.0442">
        <ele>1198</ele>
        <time>2023-05-17T21:29:17Z</time>
      </trkpt>
      <trkpt lat="43.0358" lon="-1.04405">
        <ele>1200</ele>
        <time>2023-05-17T21:29:19Z</time>
      </trkpt>
      <trkpt lat="43.03577" lon="-1.04398">
        <ele>1202</ele>
        <time>2023-05-17T21:29:20Z</time>
      </trkpt>
      <trkpt lat="43.03573" lon="-1.04395">
        <ele>1203</ele>
        <time>2023-05-17T21:29:21Z</time>
      </trkpt>
      <trkpt lat="43.03568" lon="-1.04395">
        <ele>1203</ele>
        <time>2023-05-17T21:29:22Z</time>
      </trkpt>
      <trkpt lat="43.03523" lon="-1.04431">
        <ele>1204</ele>
        <time>2023-05-17T21:29:31Z</time>
      </trkpt>
      <trkpt lat="43.03504" lon="-1.04438">
        <ele>1206</ele>
        <time>2023-05-17T21:29:35Z</time>
      </trkpt>
      <trkpt lat="43.03466" lon="-1.04435">
        <ele>1208</ele>
        <time>2023-05-17T21:29:42Z</time>
      </trkpt>
      <trkpt lat="43.03457" lon="-1.04425">
        <ele>1209</ele>
        <time>2023-05-17T21:29:44Z</time>
      </trkpt>
      <trkpt lat="43.03457" lon="-1.04421">
        <ele>1210</ele>
        <time>2023-05-17T21:29:44Z</time>
      </trkpt>
      <trkpt lat="43.03462" lon="-1.04413">
        <ele>1211</ele>
        <time>2023-05-17T21:29:45Z</time>
      </trkpt>
      <trkpt lat="43.03485" lon="-1.04406">
        <ele>1211</ele>
        <time>2023-05-17T21:29:50Z</time>
      </trkpt>
      <trkpt lat="43.03497" lon="-1.04391">
        <ele>1214</ele>
        <time>2023-05-17T21:29:53Z</time>
      </trkpt>
      <trkpt lat="43.03521" lon="-1.04317">
        <ele>1228</ele>
        <time>2023-05-17T21:30:03Z</time>
      </trkpt>
      <trkpt lat="43.03546" lon="-1.04266">
        <ele>1233</ele>
        <time>2023-05-17T21:30:11Z</time>
      </trkpt>
      <trkpt lat="43.0356" lon="-1.04218">
        <ele>1237</ele>
        <time>2023-05-17T21:30:18Z</time>
      </trkpt>
      <trkpt lat="43.03597" lon="-1.04038">
        <ele>1259</ele>
        <time>2023-05-17T21:30:42Z</time>
      </trkpt>
      <trkpt lat="43.03601" lon="-1.04026">
        <ele>1260</ele>
        <time>2023-05-17T21:30:44Z</time>
      </trkpt>
      <trkpt lat="43.03633" lon="-1.03969">
        <ele>1262</ele>
        <time>2023-05-17T21:30:53Z</time>
      </trkpt>
      <trkpt lat="43.03648" lon="-1.03909">
        <ele>1267</ele>
        <time>2023-05-17T21:31:01Z</time>
      </trkpt>
      <trkpt lat="43.03647" lon="-1.03898">
        <ele>1269</ele>
        <time>2023-05-17T21:31:03Z</time>
      </trkpt>
      <trkpt lat="43.03644" lon="-1.03894">
        <ele>1271</ele>
        <time>2023-05-17T21:31:04Z</time>
      </trkpt>
      <trkpt lat="43.0364" lon="-1.03893">
        <ele>1273</ele>
        <time>2023-05-17T21:31:04Z</time>
      </trkpt>
      <trkpt lat="43.03632" lon="-1.03897">
        <ele>1275</ele>
        <time>2023-05-17T21:31:06Z</time>
      </trkpt>
      <trkpt lat="43.03608" lon="-1.03932">
        <ele>1276</ele>
        <time>2023-05-17T21:31:12Z</time>
      </trkpt>
      <trkpt lat="43.03562" lon="-1.03979">
        <ele>1283</ele>
        <time>2023-05-17T21:31:22Z</time>
      </trkpt>
      <trkpt lat="43.03558" lon="-1.03979">
        <ele>1285</ele>
        <time>2023-05-17T21:31:23Z</time>
      </trkpt>
      <trkpt lat="43.03555" lon="-1.03976">
        <ele>1287</ele>
        <time>2023-05-17T21:31:24Z</time>
      </trkpt>
      <trkpt lat="43.03553" lon="-1.03966">
        <ele>1290</ele>
        <time>2023-05-17T21:31:25Z</time>
      </trkpt>
      <trkpt lat="43.03584" lon="-1.03911">
        <ele>1288</ele>
        <time>2023-05-17T21:31:34Z</time>
      </trkpt>
      <trkpt lat="43.03607" lon="-1.03853">
        <ele>1291</ele>
        <time>2023-05-17T21:31:43Z</time>
      </trkpt>
      <trkpt lat="43.03646" lon="-1.03779">
        <ele>1293</ele>
        <time>2023-05-17T21:31:55Z</time>
      </trkpt>
      <trkpt lat="43.03666" lon="-1.0373">
        <ele>1297</ele>
        <time>2023-05-17T21:32:02Z</time>
      </trkpt>
      <trkpt lat="43.03675" lon="-1.0372">
        <ele>1299</ele>
        <time>2023-05-17T21:32:04Z</time>
      </trkpt>
      <trkpt lat="43.03684" lon="-1.03716">
        <ele>1301</ele>
        <time>2023-05-17T21:32:06Z</time>
      </trkpt>
      <trkpt lat="43.03688" lon="-1.03704">
        <ele>1303</ele>
        <time>2023-05-17T21:32:07Z</time>
      </trkpt>
      <trkpt lat="43.03687" lon="-1.03697">
        <ele>1304</ele>
        <time>2023-05-17T21:32:08Z</time>
      </trkpt>
      <trkpt lat="43.0368" lon="-1.03691">
        <ele>1304</ele>
        <time>2023-05-17T21:32:10Z</time>
      </trkpt>
      <trkpt lat="43.03668" lon="-1.03692">
        <ele>1303</ele>
        <time>2023-05-17T21:32:12Z</time>
      </trkpt>
      <trkpt lat="43.03646" lon="-1.03714">
        <ele>1304</ele>
        <time>2023-05-17T21:32:17Z</time>
      </trkpt>
      <trkpt lat="43.03597" lon="-1.03744">
        <ele>1309</ele>
        <time>2023-05-17T21:32:26Z</time>
      </trkpt>
      <trkpt lat="43.03581" lon="-1.03764">
        <ele>1310</ele>
        <time>2023-05-17T21:32:30Z</time>
      </trkpt>
      <trkpt lat="43.03577" lon="-1.03765">
        <ele>1312</ele>
        <time>2023-05-17T21:32:31Z</time>
      </trkpt>
      <trkpt lat="43.03572" lon="-1.03762">
        <ele>1314</ele>
        <time>2023-05-17T21:32:32Z</time>
      </trkpt>
      <trkpt lat="43.03572" lon="-1.03749">
        <ele>1316</ele>
        <time>2023-05-17T21:32:33Z</time>
      </trkpt>
      <trkpt lat="43.03599" lon="-1.037">
        <ele>1317</ele>
        <time>2023-05-17T21:32:41Z</time>
      </trkpt>
      <trkpt lat="43.03646" lon="-1.03581">
        <ele>1320</ele>
        <time>2023-05-17T21:32:59Z</time>
      </trkpt>
      <trkpt lat="43.03651" lon="-1.03564">
        <ele>1321</ele>
        <time>2023-05-17T21:33:01Z</time>
      </trkpt>
      <trkpt lat="43.03654" lon="-1.03535">
        <ele>1323</ele>
        <time>2023-05-17T21:33:05Z</time>
      </trkpt>
      <trkpt lat="43.03651" lon="-1.03496">
        <ele>1327</ele>
        <time>2023-05-17T21:33:10Z</time>
      </trkpt>
      <trkpt lat="43.03647" lon="-1.03487">
        <ele>1327</ele>
        <time>2023-05-17T21:33:12Z</time>
      </trkpt>
      <trkpt lat="43.03628" lon="-1.03455">
        <ele>1328</ele>
        <time>2023-05-17T21:33:17Z</time>
      </trkpt>
      <trkpt lat="43.03593" lon="-1.03414">
        <ele>1332</ele>
        <time>2023-05-17T21:33:25Z</time>
      </trkpt>
      <trkpt lat="43.03584" lon="-1.0339">
        <ele>1333</ele>
        <time>2023-05-17T21:33:29Z</time>
      </trkpt>
      <trkpt lat="43.0358" lon="-1.03356">
        <ele>1333</ele>
        <time>2023-05-17T21:33:33Z</time>
      </trkpt>
      <trkpt lat="43.03577" lon="-1.03261">
        <ele>1335</ele>
        <time>2023-05-17T21:33:46Z</time>
      </trkpt>
      <trkpt lat="43.03581" lon="-1.03223">
        <ele>1337</ele>
        <time>2023-05-17T21:33:51Z</time>
      </trkpt>
      <trkpt lat="43.03595" lon="-1.03186">
        <ele>1337</ele>
        <time>2023-05-17T21:33:56Z</time>
      </trkpt>
      <trkpt lat="43.03636" lon="-1.03106">
        <ele>1337</ele>
        <time>2023-05-17T21:34:09Z</time>
      </trkpt>
      <trkpt lat="43.03663" lon="-1.03044">
        <ele>1335</ele>
        <time>2023-05-17T21:34:18Z</time>
      </trkpt>
      <trkpt lat="43.03672" lon="-1.03013">
        <ele>1335</ele>
        <time>2023-05-17T21:34:22Z</time>
      </trkpt>
      <trkpt lat="43.0368" lon="-1.02973">
        <ele>1338</ele>
        <time>2023-05-17T21:34:28Z</time>
      </trkpt>
      <trkpt lat="43.03689" lon="-1.02951">
        <ele>1338</ele>
        <time>2023-05-17T21:34:31Z</time>
      </trkpt>
      <trkpt lat="43.03743" lon="-1.02862">
        <ele>1332</ele>
        <time>2023-05-17T21:34:46Z</time>
      </trkpt>
      <trkpt lat="43.03777" lon="-1.02796">
        <ele>1331</ele>
        <time>2023-05-17T21:34:57Z</time>
      </trkpt>
      <trkpt lat="43.03811" lon="-1.02711">
        <ele>1330</ele>
        <time>2023-05-17T21:35:09Z</time>
      </trkpt>
      <trkpt lat="43.03816" lon="-1.0269">
        <ele>1330</ele>
        <time>2023-05-17T21:35:12Z</time>
      </trkpt>
      <trkpt lat="43.03816" lon="-1.0268">
        <ele>1330</ele>
        <time>2023-05-17T21:35:13Z</time>
      </trkpt>
      <trkpt lat="43.03811" lon="-1.02665">
        <ele>1330</ele>
        <time>2023-05-17T21:35:16Z</time>
      </trkpt>
      <trkpt lat="43.0376" lon="-1.02625">
        <ele>1327</ele>
        <time>2023-05-17T21:35:26Z</time>
      </trkpt>
      <trkpt lat="43.03699" lon="-1.02553">
        <ele>1317</ele>
        <time>2023-05-17T21:35:40Z</time>
      </trkpt>
      <trkpt lat="43.03683" lon="-1.0254">
        <ele>1315</ele>
        <time>2023-05-17T21:35:44Z</time>
      </trkpt>
      <trkpt lat="43.03652" lon="-1.02522">
        <ele>1314</ele>
        <time>2023-05-17T21:35:50Z</time>
      </trkpt>
      <trkpt lat="43.03621" lon="-1.02475">
        <ele>1304</ele>
        <time>2023-05-17T21:35:58Z</time>
      </trkpt>
      <trkpt lat="43.0358" lon="-1.02445">
        <ele>1302</ele>
        <time>2023-05-17T21:36:06Z</time>
      </trkpt>
      <trkpt lat="43.03567" lon="-1.02431">
        <ele>1300</ele>
        <time>2023-05-17T21:36:09Z</time>
      </trkpt>
      <trkpt lat="43.03556" lon="-1.02404">
        <ele>1295</ele>
        <time>2023-05-17T21:36:13Z</time>
      </trkpt>
      <trkpt lat="43.03551" lon="-1.02379">
        <ele>1290</ele>
        <time>2023-05-17T21:36:17Z</time>
      </trkpt>
      <trkpt lat="43.03544" lon="-1.02317">
        <ele>1280</ele>
        <time>2023-05-17T21:36:25Z</time>
      </trkpt>
      <trkpt lat="43.03538" lon="-1.02302">
        <ele>1278</ele>
        <time>2023-05-17T21:36:27Z</time>
      </trkpt>
      <trkpt lat="43.0353" lon="-1.02294">
        <ele>1277</ele>
        <time>2023-05-17T21:36:29Z</time>
      </trkpt>
      <trkpt lat="43.03525" lon="-1.02292">
        <ele>1277</ele>
        <time>2023-05-17T21:36:30Z</time>
      </trkpt>
      <trkpt lat="43.03518" lon="-1.02295">
        <ele>1277</ele>
        <time>2023-05-17T21:36:31Z</time>
      </trkpt>
      <trkpt lat="43.03482" lon="-1.0234">
        <ele>1280</ele>
        <time>2023-05-17T21:36:40Z</time>
      </trkpt>
      <trkpt lat="43.03461" lon="-1.0236">
        <ele>1281</ele>
        <time>2023-05-17T21:36:44Z</time>
      </trkpt>
      <trkpt lat="43.03449" lon="-1.02363">
        <ele>1279</ele>
        <time>2023-05-17T21:36:46Z</time>
      </trkpt>
      <trkpt lat="43.03418" lon="-1.02362">
        <ele>1270</ele>
        <time>2023-05-17T21:36:52Z</time>
      </trkpt>
      <trkpt lat="43.03378" lon="-1.02378">
        <ele>1265</ele>
        <time>2023-05-17T21:36:59Z</time>
      </trkpt>
      <trkpt lat="43.03357" lon="-1.02391">
        <ele>1264</ele>
        <time>2023-05-17T21:37:03Z</time>
      </trkpt>
      <trkpt lat="43.03343" lon="-1.02406">
        <ele>1264</ele>
        <time>2023-05-17T21:37:07Z</time>
      </trkpt>
      <trkpt lat="43.03329" lon="-1.02426">
        <ele>1265</ele>
        <time>2023-05-17T21:37:10Z</time>
      </trkpt>
      <trkpt lat="43.03318" lon="-1.0245">
        <ele>1264</ele>
        <time>2023-05-17T21:37:14Z</time>
      </trkpt>
      <trkpt lat="43.03312" lon="-1.02453">
        <ele>1262</ele>
        <time>2023-05-17T21:37:15Z</time>
      </trkpt>
      <trkpt lat="43.03308" lon="-1.02452">
        <ele>1260</ele>
        <time>2023-05-17T21:37:16Z</time>
      </trkpt>
      <trkpt lat="43.03303" lon="-1.02448">
        <ele>1258</ele>
        <time>2023-05-17T21:37:17Z</time>
      </trkpt>
      <trkpt lat="43.03301" lon="-1.02441">
        <ele>1257</ele>
        <time>2023-05-17T21:37:18Z</time>
      </trkpt>
      <trkpt lat="43.03304" lon="-1.0242">
        <ele>1256</ele>
        <time>2023-05-17T21:37:20Z</time>
      </trkpt>
      <trkpt lat="43.03315" lon="-1.02402">
        <ele>1255</ele>
        <time>2023-05-17T21:37:23Z</time>
      </trkpt>
      <trkpt lat="43.03332" lon="-1.02382">
        <ele>1253</ele>
        <time>2023-05-17T21:37:27Z</time>
      </trkpt>
      <trkpt lat="43.03405" lon="-1.02316">
        <ele>1251</ele>
        <time>2023-05-17T21:37:43Z</time>
      </trkpt>
      <trkpt lat="43.03437" lon="-1.023">
        <ele>1257</ele>
        <time>2023-05-17T21:37:49Z</time>
      </trkpt>
      <trkpt lat="43.03445" lon="-1.02282">
        <ele>1256</ele>
        <time>2023-05-17T21:37:52Z</time>
      </trkpt>
      <trkpt lat="43.03445" lon="-1.02254">
        <ele>1250</ele>
        <time>2023-05-17T21:37:55Z</time>
      </trkpt>
      <trkpt lat="43.03439" lon="-1.02233">
        <ele>1247</ele>
        <time>2023-05-17T21:37:58Z</time>
      </trkpt>
      <trkpt lat="43.03423" lon="-1.02197">
        <ele>1242</ele>
        <time>2023-05-17T21:38:04Z</time>
      </trkpt>
      <trkpt lat="43.03377" lon="-1.02124">
        <ele>1226</ele>
        <time>2023-05-17T21:38:16Z</time>
      </trkpt>
      <trkpt lat="43.03371" lon="-1.02109">
        <ele>1225</ele>
        <time>2023-05-17T21:38:19Z</time>
      </trkpt>
      <trkpt lat="43.03369" lon="-1.02092">
        <ele>1225</ele>
        <time>2023-05-17T21:38:21Z</time>
      </trkpt>
      <trkpt lat="43.03371" lon="-1.02075">
        <ele>1224</ele>
        <time>2023-05-17T21:38:23Z</time>
      </trkpt>
      <trkpt lat="43.03379" lon="-1.0206">
        <ele>1223</ele>
        <time>2023-05-17T21:38:26Z</time>
      </trkpt>
      <trkpt lat="43.0342" lon="-1.02033">
        <ele>1228</ele>
        <time>2023-05-17T21:38:34Z</time>
      </trkpt>
      <trkpt lat="43.03436" lon="-1.02008">
        <ele>1228</ele>
        <time>2023-05-17T21:38:38Z</time>
      </trkpt>
      <trkpt lat="43.03443" lon="-1.01982">
        <ele>1225</ele>
        <time>2023-05-17T21:38:42Z</time>
      </trkpt>
      <trkpt lat="43.0345" lon="-1.0192">
        <ele>1214</ele>
        <time>2023-05-17T21:38:50Z</time>
      </trkpt>
      <trkpt lat="43.03459" lon="-1.01884">
        <ele>1208</ele>
        <time>2023-05-17T21:38:55Z</time>
      </trkpt>
      <trkpt lat="43.03463" lon="-1.01871">
        <ele>1207</ele>
        <time>2023-05-17T21:38:57Z</time>
      </trkpt>
      <trkpt lat="43.03508" lon="-1.01778">
        <ele>1205</ele>
        <time>2023-05-17T21:39:11Z</time>
      </trkpt>
      <trkpt lat="43.03514" lon="-1.01748">
        <ele>1202</ele>
        <time>2023-05-17T21:39:15Z</time>
      </trkpt>
      <trkpt lat="43.03479" lon="-1.01573">
        <ele>1176</ele>
        <time>2023-05-17T21:39:39Z</time>
      </trkpt>
      <trkpt lat="43.03459" lon="-1.01449">
        <ele>1164</ele>
        <time>2023-05-17T21:39:55Z</time>
      </trkpt>
      <trkpt lat="43.03427" lon="-1.01321">
        <ele>1151</ele>
        <time>2023-05-17T21:40:13Z</time>
      </trkpt>
      <trkpt lat="43.03415" lon="-1.01285">
        <ele>1149</ele>
        <time>2023-05-17T21:40:18Z</time>
      </trkpt>
      <trkpt lat="43.03369" lon="-1.01196">
        <ele>1131</ele>
        <time>2023-05-17T21:40:32Z</time>
      </trkpt>
      <trkpt lat="43.0336" lon="-1.0117">
        <ele>1129</ele>
        <time>2023-05-17T21:40:36Z</time>
      </trkpt>
      <trkpt lat="43.03352" lon="-1.01133">
        <ele>1125</ele>
        <time>2023-05-17T21:40:41Z</time>
      </trkpt>
      <trkpt lat="43.03348" lon="-1.0106">
        <ele>1121</ele>
        <time>2023-05-17T21:40:50Z</time>
      </trkpt>
      <trkpt lat="43.03342" lon="-1.01022">
        <ele>1115</ele>
        <time>2023-05-17T21:40:55Z</time>
      </trkpt>
      <trkpt lat="43.03342" lon="-1.01001">
        <ele>1113</ele>
        <time>2023-05-17T21:40:58Z</time>
      </trkpt>
      <trkpt lat="43.03347" lon="-1.00976">
        <ele>1111</ele>
        <time>2023-05-17T21:41:02Z</time>
      </trkpt>
      <trkpt lat="43.03358" lon="-1.00954">
        <ele>1110</ele>
        <time>2023-05-17T21:41:05Z</time>
      </trkpt>
      <trkpt lat="43.03384" lon="-1.00934">
        <ele>1108</ele>
        <time>2023-05-17T21:41:10Z</time>
      </trkpt>
      <trkpt lat="43.03393" lon="-1.00917">
        <ele>1105</ele>
        <time>2023-05-17T21:41:13Z</time>
      </trkpt>
      <trkpt lat="43.03392" lon="-1.00902">
        <ele>1100</ele>
        <time>2023-05-17T21:41:15Z</time>
      </trkpt>
      <trkpt lat="43.0338" lon="-1.00869">
        <ele>1092</ele>
        <time>2023-05-17T21:41:20Z</time>
      </trkpt>
      <trkpt lat="43.03362" lon="-1.00838">
        <ele>1087</ele>
        <time>2023-05-17T21:41:25Z</time>
      </trkpt>
      <trkpt lat="43.03327" lon="-1.008">
        <ele>1084</ele>
        <time>2023-05-17T21:41:33Z</time>
      </trkpt>
      <trkpt lat="43.03317" lon="-1.00797">
        <ele>1081</ele>
        <time>2023-05-17T21:41:35Z</time>
      </trkpt>
      <trkpt lat="43.03309" lon="-1.00801">
        <ele>1080</ele>
        <time>2023-05-17T21:41:36Z</time>
      </trkpt>
      <trkpt lat="43.03301" lon="-1.00811">
        <ele>1078</ele>
        <time>2023-05-17T21:41:38Z</time>
      </trkpt>
      <trkpt lat="43.03273" lon="-1.0086">
        <ele>1074</ele>
        <time>2023-05-17T21:41:46Z</time>
      </trkpt>
      <trkpt lat="43.03259" lon="-1.00905">
        <ele>1074</ele>
        <time>2023-05-17T21:41:53Z</time>
      </trkpt>
      <trkpt lat="43.03202" lon="-1.01038">
        <ele>1056</ele>
        <time>2023-05-17T21:42:13Z</time>
      </trkpt>
      <trkpt lat="43.03199" lon="-1.01065">
        <ele>1055</ele>
        <time>2023-05-17T21:42:16Z</time>
      </trkpt>
      <trkpt lat="43.03204" lon="-1.01117">
        <ele>1052</ele>
        <time>2023-05-17T21:42:23Z</time>
      </trkpt>
      <trkpt lat="43.03211" lon="-1.01145">
        <ele>1051</ele>
        <time>2023-05-17T21:42:27Z</time>
      </trkpt>
      <trkpt lat="43.03228" lon="-1.01185">
        <ele>1051</ele>
        <time>2023-05-17T21:42:33Z</time>
      </trkpt>
      <trkpt lat="43.03224" lon="-1.01198">
        <ele>1047</ele>
        <time>2023-05-17T21:42:35Z</time>
      </trkpt>
      <trkpt lat="43.03216" lon="-1.01199">
        <ele>1043</ele>
        <time>2023-05-17T21:42:36Z</time>
      </trkpt>
      <trkpt lat="43.03212" lon="-1.01197">
        <ele>1042</ele>
        <time>2023-05-17T21:42:37Z</time>
      </trkpt>
      <trkpt lat="43.03145" lon="-1.0112">
        <ele>1030</ele>
        <time>2023-05-17T21:42:52Z</time>
      </trkpt>
      <trkpt lat="43.03128" lon="-1.01087">
        <ele>1028</ele>
        <time>2023-05-17T21:42:58Z</time>
      </trkpt>
      <trkpt lat="43.03122" lon="-1.01067">
        <ele>1025</ele>
        <time>2023-05-17T21:43:01Z</time>
      </trkpt>
      <trkpt lat="43.03117" lon="-1.01012">
        <ele>1020</ele>
        <time>2023-05-17T21:43:08Z</time>
      </trkpt>
      <trkpt lat="43.03104" lon="-1.00925">
        <ele>1011</ele>
        <time>2023-05-17T21:43:19Z</time>
      </trkpt>
      <trkpt lat="43.03098" lon="-1.00909">
        <ele>1008</ele>
        <time>2023-05-17T21:43:22Z</time>
      </trkpt>
      <trkpt lat="43.03071" lon="-1.00861">
        <ele>1001</ele>
        <time>2023-05-17T21:43:30Z</time>
      </trkpt>
      <trkpt lat="43.03062" lon="-1.0084">
        <ele>998</ele>
        <time>2023-05-17T21:43:33Z</time>
      </trkpt>
      <trkpt lat="43.03052" lon="-1.00799">
        <ele>993</ele>
        <time>2023-05-17T21:43:38Z</time>
      </trkpt>
      <trkpt lat="43.03044" lon="-1.00742">
        <ele>988</ele>
        <time>2023-05-17T21:43:46Z</time>
      </trkpt>
      <trkpt lat="43.03031" lon="-1.00678">
        <ele>978</ele>
        <time>2023-05-17T21:43:55Z</time>
      </trkpt>
      <trkpt lat="43.03028" lon="-1.00641">
        <ele>974</ele>
        <time>2023-05-17T21:43:59Z</time>
      </trkpt>
      <trkpt lat="43.0304" lon="-1.00546">
        <ele>973</ele>
        <time>2023-05-17T21:44:12Z</time>
      </trkpt>
      <trkpt lat="43.03039" lon="-1.00529">
        <ele>973</ele>
        <time>2023-05-17T21:44:14Z</time>
      </trkpt>
      <trkpt lat="43.03033" lon="-1.0051">
        <ele>970</ele>
        <time>2023-05-17T21:44:17Z</time>
      </trkpt>
      <trkpt lat="43.03013" lon="-1.0047">
        <ele>964</ele>
        <time>2023-05-17T21:44:23Z</time>
      </trkpt>
      <trkpt lat="43.02992" lon="-1.00432">
        <ele>959</ele>
        <time>2023-05-17T21:44:29Z</time>
      </trkpt>
      <trkpt lat="43.02962" lon="-1.00389">
        <ele>950</ele>
        <time>2023-05-17T21:44:37Z</time>
      </trkpt>
      <trkpt lat="43.02952" lon="-1.00368">
        <ele>948</ele>
        <time>2023-05-17T21:44:40Z</time>
      </trkpt>
      <trkpt lat="43.02949" lon="-1.00334">
        <ele>949</ele>
        <time>2023-05-17T21:44:45Z</time>
      </trkpt>
      <trkpt lat="43.0294" lon="-1.00289">
        <ele>942</ele>
        <time>2023-05-17T21:44:51Z</time>
      </trkpt>
      <trkpt lat="43.02929" lon="-1.00128">
        <ele>927</ele>
        <time>2023-05-17T21:45:12Z</time>
      </trkpt>
      <trkpt lat="43.02922" lon="-1.00108">
        <ele>924</ele>
        <time>2023-05-17T21:45:15Z</time>
      </trkpt>
      <trkpt lat="43.02911" lon="-1.00088">
        <ele>919</ele>
        <time>2023-05-17T21:45:18Z</time>
      </trkpt>
      <trkpt lat="43.02875" lon="-1.00044">
        <ele>910</ele>
        <time>2023-05-17T21:45:27Z</time>
      </trkpt>
      <trkpt lat="43.02848" lon="-0.99997">
        <ele>911</ele>
        <time>2023-05-17T21:45:34Z</time>
      </trkpt>
      <trkpt lat="43.02837" lon="-0.99991">
        <ele>909</ele>
        <time>2023-05-17T21:45:36Z</time>
      </trkpt>
      <trkpt lat="43.02823" lon="-0.99989">
        <ele>906</ele>
        <time>2023-05-17T21:45:39Z</time>
      </trkpt>
      <trkpt lat="43.02786" lon="-0.99996">
        <ele>894</ele>
        <time>2023-05-17T21:45:46Z</time>
      </trkpt>
      <trkpt lat="43.02777" lon="-0.99996">
        <ele>891</ele>
        <time>2023-05-17T21:45:47Z</time>
      </trkpt>
      <trkpt lat="43.02753" lon="-0.9999">
        <ele>886</ele>
        <time>2023-05-17T21:45:52Z</time>
      </trkpt>
      <trkpt lat="43.02718" lon="-0.99967">
        <ele>877</ele>
        <time>2023-05-17T21:45:58Z</time>
      </trkpt>
      <trkpt lat="43.02674" lon="-0.99928">
        <ele>869</ele>
        <time>2023-05-17T21:46:08Z</time>
      </trkpt>
      <trkpt lat="43.02662" lon="-0.99913">
        <ele>866</ele>
        <time>2023-05-17T21:46:11Z</time>
      </trkpt>
      <trkpt lat="43.02654" lon="-0.99894">
        <ele>861</ele>
        <time>2023-05-17T21:46:14Z</time>
      </trkpt>
      <trkpt lat="43.0265" lon="-0.99872">
        <ele>859</ele>
        <time>2023-05-17T21:46:16Z</time>
      </trkpt>
      <trkpt lat="43.0265" lon="-0.99839">
        <ele>858</ele>
        <time>2023-05-17T21:46:21Z</time>
      </trkpt>
      <trkpt lat="43.02668" lon="-0.99798">
        <ele>864</ele>
        <time>2023-05-17T21:46:27Z</time>
      </trkpt>
      <trkpt lat="43.0267" lon="-0.99775">
        <ele>862</ele>
        <time>2023-05-17T21:46:30Z</time>
      </trkpt>
      <trkpt lat="43.02665" lon="-0.99752">
        <ele>856</ele>
        <time>2023-05-17T21:46:33Z</time>
      </trkpt>
      <trkpt lat="43.0263" lon="-0.99693">
        <ele>840</ele>
        <time>2023-05-17T21:46:43Z</time>
      </trkpt>
      <trkpt lat="43.02623" lon="-0.99673">
        <ele>838</ele>
        <time>2023-05-17T21:46:46Z</time>
      </trkpt>
      <trkpt lat="43.0262" lon="-0.99649">
        <ele>835</ele>
        <time>2023-05-17T21:46:49Z</time>
      </trkpt>
      <trkpt lat="43.02638" lon="-0.99518">
        <ele>818</ele>
        <time>2023-05-17T21:47:06Z</time>
      </trkpt>
      <trkpt lat="43.02637" lon="-0.99509">
        <ele>816</ele>
        <time>2023-05-17T21:47:08Z</time>
      </trkpt>
      <trkpt lat="43.02629" lon="-0.99506">
        <ele>813</ele>
        <time>2023-05-17T21:47:09Z</time>
      </trkpt>
      <trkpt lat="43.02623" lon="-0.9951">
        <ele>813</ele>
        <time>2023-05-17T21:47:10Z</time>
      </trkpt>
      <trkpt lat="43.0261" lon="-0.99533">
        <ele>814</ele>
        <time>2023-05-17T21:47:14Z</time>
      </trkpt>
      <trkpt lat="43.02597" lon="-0.99567">
        <ele>817</ele>
        <time>2023-05-17T21:47:19Z</time>
      </trkpt>
      <trkpt lat="43.02586" lon="-0.99588">
        <ele>816</ele>
        <time>2023-05-17T21:47:22Z</time>
      </trkpt>
      <trkpt lat="43.02555" lon="-0.99627">
        <ele>803</ele>
        <time>2023-05-17T21:47:30Z</time>
      </trkpt>
      <trkpt lat="43.02548" lon="-0.99644">
        <ele>801</ele>
        <time>2023-05-17T21:47:32Z</time>
      </trkpt>
      <trkpt lat="43.02545" lon="-0.99675">
        <ele>800</ele>
        <time>2023-05-17T21:47:36Z</time>
      </trkpt>
      <trkpt lat="43.02548" lon="-0.99698">
        <ele>799</ele>
        <time>2023-05-17T21:47:40Z</time>
      </trkpt>
      <trkpt lat="43.02567" lon="-0.99749">
        <ele>804</ele>
        <time>2023-05-17T21:47:47Z</time>
      </trkpt>
      <trkpt lat="43.02568" lon="-0.99764">
        <ele>806</ele>
        <time>2023-05-17T21:47:49Z</time>
      </trkpt>
      <trkpt lat="43.02562" lon="-0.99783">
        <ele>803</ele>
        <time>2023-05-17T21:47:52Z</time>
      </trkpt>
      <trkpt lat="43.02548" lon="-0.99803">
        <ele>796</ele>
        <time>2023-05-17T21:47:55Z</time>
      </trkpt>
      <trkpt lat="43.02542" lon="-0.99821">
        <ele>793</ele>
        <time>2023-05-17T21:47:58Z</time>
      </trkpt>
      <trkpt lat="43.0252" lon="-0.99908">
        <ele>781</ele>
        <time>2023-05-17T21:48:10Z</time>
      </trkpt>
      <trkpt lat="43.02517" lon="-0.99941">
        <ele>775</ele>
        <time>2023-05-17T21:48:14Z</time>
      </trkpt>
      <trkpt lat="43.02523" lon="-0.99975">
        <ele>772</ele>
        <time>2023-05-17T21:48:19Z</time>
      </trkpt>
      <trkpt lat="43.02567" lon="-1.00052">
        <ele>777</ele>
        <time>2023-05-17T21:48:31Z</time>
      </trkpt>
      <trkpt lat="43.02584" lon="-1.00101">
        <ele>778</ele>
        <time>2023-05-17T21:48:38Z</time>
      </trkpt>
      <trkpt lat="43.02586" lon="-1.00117">
        <ele>779</ele>
        <time>2023-05-17T21:48:41Z</time>
      </trkpt>
      <trkpt lat="43.02578" lon="-1.00133">
        <ele>776</ele>
        <time>2023-05-17T21:48:43Z</time>
      </trkpt>
      <trkpt lat="43.02521" lon="-1.0017">
        <ele>749</ele>
        <time>2023-05-17T21:48:54Z</time>
      </trkpt>
      <trkpt lat="43.02513" lon="-1.00166">
        <ele>745</ele>
        <time>2023-05-17T21:48:56Z</time>
      </trkpt>
      <trkpt lat="43.02511" lon="-1.00159">
        <ele>743</ele>
        <time>2023-05-17T21:48:57Z</time>
      </trkpt>
      <trkpt lat="43.02512" lon="-1.00149">
        <ele>744</ele>
        <time>2023-05-17T21:48:58Z</time>
      </trkpt>
      <trkpt lat="43.02537" lon="-1.00124">
        <ele>755</ele>
        <time>2023-05-17T21:49:04Z</time>
      </trkpt>
      <trkpt lat="43.0254" lon="-1.00112">
        <ele>757</ele>
        <time>2023-05-17T21:49:05Z</time>
      </trkpt>
      <trkpt lat="43.02539" lon="-1.00099">
        <ele>756</ele>
        <time>2023-05-17T21:49:07Z</time>
      </trkpt>
      <trkpt lat="43.02528" lon="-1.00076">
        <ele>752</ele>
        <time>2023-05-17T21:49:11Z</time>
      </trkpt>
      <trkpt lat="43.0252" lon="-1.00066">
        <ele>750</ele>
        <time>2023-05-17T21:49:12Z</time>
      </trkpt>
      <trkpt lat="43.02452" lon="-1.00004">
        <ele>733</ele>
        <time>2023-05-17T21:49:27Z</time>
      </trkpt>
      <trkpt lat="43.02435" lon="-0.99968">
        <ele>727</ele>
        <time>2023-05-17T21:49:33Z</time>
      </trkpt>
      <trkpt lat="43.02432" lon="-0.99947">
        <ele>727</ele>
        <time>2023-05-17T21:49:35Z</time>
      </trkpt>
      <trkpt lat="43.02431" lon="-0.99905">
        <ele>727</ele>
        <time>2023-05-17T21:49:41Z</time>
      </trkpt>
      <trkpt lat="43.02432" lon="-0.99821">
        <ele>723</ele>
        <time>2023-05-17T21:49:52Z</time>
      </trkpt>
      <trkpt lat="43.02427" lon="-0.99802">
        <ele>721</ele>
        <time>2023-05-17T21:49:54Z</time>
      </trkpt>
      <trkpt lat="43.024" lon="-0.99739">
        <ele>711</ele>
        <time>2023-05-17T21:50:04Z</time>
      </trkpt>
      <trkpt lat="43.02393" lon="-0.99705">
        <ele>711</ele>
        <time>2023-05-17T21:50:08Z</time>
      </trkpt>
      <trkpt lat="43.02385" lon="-0.99636">
        <ele>712</ele>
        <time>2023-05-17T21:50:18Z</time>
      </trkpt>
      <trkpt lat="43.02379" lon="-0.9963">
        <ele>710</ele>
        <time>2023-05-17T21:50:19Z</time>
      </trkpt>
      <trkpt lat="43.02373" lon="-0.99631">
        <ele>708</ele>
        <time>2023-05-17T21:50:20Z</time>
      </trkpt>
      <trkpt lat="43.02371" lon="-0.99634">
        <ele>707</ele>
        <time>2023-05-17T21:50:20Z</time>
      </trkpt>
      <trkpt lat="43.0237" lon="-0.99643">
        <ele>706</ele>
        <time>2023-05-17T21:50:22Z</time>
      </trkpt>
      <trkpt lat="43.02375" lon="-0.99676">
        <ele>706</ele>
        <time>2023-05-17T21:50:26Z</time>
      </trkpt>
      <trkpt lat="43.02383" lon="-0.99788">
        <ele>700</ele>
        <time>2023-05-17T21:50:41Z</time>
      </trkpt>
      <trkpt lat="43.02376" lon="-0.99869">
        <ele>696</ele>
        <time>2023-05-17T21:50:51Z</time>
      </trkpt>
      <trkpt lat="43.02357" lon="-0.99914">
        <ele>688</ele>
        <time>2023-05-17T21:50:58Z</time>
      </trkpt>
      <trkpt lat="43.02349" lon="-0.99947">
        <ele>682</ele>
        <time>2023-05-17T21:51:03Z</time>
      </trkpt>
      <trkpt lat="43.02347" lon="-0.99999">
        <ele>679</ele>
        <time>2023-05-17T21:51:09Z</time>
      </trkpt>
      <trkpt lat="43.02349" lon="-1.00056">
        <ele>675</ele>
        <time>2023-05-17T21:51:17Z</time>
      </trkpt>
      <trkpt lat="43.02356" lon="-1.00093">
        <ele>675</ele>
        <time>2023-05-17T21:51:22Z</time>
      </trkpt>
      <trkpt lat="43.02363" lon="-1.00107">
        <ele>677</ele>
        <time>2023-05-17T21:51:24Z</time>
      </trkpt>
      <trkpt lat="43.02375" lon="-1.0012">
        <ele>681</ele>
        <time>2023-05-17T21:51:27Z</time>
      </trkpt>
      <trkpt lat="43.0238" lon="-1.00132">
        <ele>682</ele>
        <time>2023-05-17T21:51:28Z</time>
      </trkpt>
      <trkpt lat="43.02381" lon="-1.00166">
        <ele>679</ele>
        <time>2023-05-17T21:51:33Z</time>
      </trkpt>
      <trkpt lat="43.02386" lon="-1.00197">
        <ele>680</ele>
        <time>2023-05-17T21:51:37Z</time>
      </trkpt>
      <trkpt lat="43.02414" lon="-1.00266">
        <ele>684</ele>
        <time>2023-05-17T21:51:47Z</time>
      </trkpt>
      <trkpt lat="43.02414" lon="-1.00301">
        <ele>684</ele>
        <time>2023-05-17T21:51:52Z</time>
      </trkpt>
      <trkpt lat="43.02408" lon="-1.00338">
        <ele>685</ele>
        <time>2023-05-17T21:51:57Z</time>
      </trkpt>
      <trkpt lat="43.02405" lon="-1.00379">
        <ele>689</ele>
        <time>2023-05-17T21:52:02Z</time>
      </trkpt>
      <trkpt lat="43.02398" lon="-1.00406">
        <ele>691</ele>
        <time>2023-05-17T21:52:06Z</time>
      </trkpt>
      <trkpt lat="43.0238" lon="-1.0044">
        <ele>692</ele>
        <time>2023-05-17T21:52:11Z</time>
      </trkpt>
      <trkpt lat="43.02368" lon="-1.00449">
        <ele>693</ele>
        <time>2023-05-17T21:52:14Z</time>
      </trkpt>
      <trkpt lat="43.02362" lon="-1.00446">
        <ele>692</ele>
        <time>2023-05-17T21:52:15Z</time>
      </trkpt>
      <trkpt lat="43.02358" lon="-1.00432">
        <ele>691</ele>
        <time>2023-05-17T21:52:17Z</time>
      </trkpt>
      <trkpt lat="43.02356" lon="-1.0038">
        <ele>688</ele>
        <time>2023-05-17T21:52:24Z</time>
      </trkpt>
      <trkpt lat="43.02359" lon="-1.00361">
        <ele>687</ele>
        <time>2023-05-17T21:52:26Z</time>
      </trkpt>
      <trkpt lat="43.02356" lon="-1.00345">
        <ele>686</ele>
        <time>2023-05-17T21:52:28Z</time>
      </trkpt>
      <trkpt lat="43.02337" lon="-1.00302">
        <ele>680</ele>
        <time>2023-05-17T21:52:35Z</time>
      </trkpt>
      <trkpt lat="43.02312" lon="-1.00254">
        <ele>682</ele>
        <time>2023-05-17T21:52:42Z</time>
      </trkpt>
      <trkpt lat="43.02301" lon="-1.00222">
        <ele>681</ele>
        <time>2023-05-17T21:52:47Z</time>
      </trkpt>
      <trkpt lat="43.02268" lon="-1.00176">
        <ele>680</ele>
        <time>2023-05-17T21:52:55Z</time>
      </trkpt>
      <trkpt lat="43.02261" lon="-1.00162">
        <ele>678</ele>
        <time>2023-05-17T21:52:58Z</time>
      </trkpt>
      <trkpt lat="43.02247" lon="-1.0011">
        <ele>670</ele>
        <time>2023-05-17T21:53:05Z</time>
      </trkpt>
      <trkpt lat="43.02246" lon="-1.00063">
        <ele>662</ele>
        <time>2023-05-17T21:53:11Z</time>
      </trkpt>
      <trkpt lat="43.02242" lon="-1.00048">
        <ele>663</ele>
        <time>2023-05-17T21:53:13Z</time>
      </trkpt>
      <trkpt lat="43.02208" lon="-0.99969">
        <ele>671</ele>
        <time>2023-05-17T21:53:25Z</time>
      </trkpt>
      <trkpt lat="43.02197" lon="-0.99933">
        <ele>670</ele>
        <time>2023-05-17T21:53:30Z</time>
      </trkpt>
      <trkpt lat="43.02189" lon="-0.99869">
        <ele>663</ele>
        <time>2023-05-17T21:53:39Z</time>
      </trkpt>
      <trkpt lat="43.02177" lon="-0.99822">
        <ele>656</ele>
        <time>2023-05-17T21:53:45Z</time>
      </trkpt>
      <trkpt lat="43.02164" lon="-0.99789">
        <ele>651</ele>
        <time>2023-05-17T21:53:50Z</time>
      </trkpt>
      <trkpt lat="43.02149" lon="-0.9976">
        <ele>651</ele>
        <time>2023-05-17T21:53:54Z</time>
      </trkpt>
      <trkpt lat="43.02115" lon="-0.99666">
        <ele>642</ele>
        <time>2023-05-17T21:54:08Z</time>
      </trkpt>
      <trkpt lat="43.02097" lon="-0.99626">
        <ele>636</ele>
        <time>2023-05-17T21:54:14Z</time>
      </trkpt>
      <trkpt lat="43.02067" lon="-0.99577">
        <ele>635</ele>
        <time>2023-05-17T21:54:23Z</time>
      </trkpt>
      <trkpt lat="43.02055" lon="-0.99544">
        <ele>637</ele>
        <time>2023-05-17T21:54:27Z</time>
      </trkpt>
      <trkpt lat="43.02053" lon="-0.99533">
        <ele>637</ele>
        <time>2023-05-17T21:54:29Z</time>
      </trkpt>
      <trkpt lat="43.02054" lon="-0.99514">
        <ele>634</ele>
        <time>2023-05-17T21:54:31Z</time>
      </trkpt>
      <trkpt lat="43.02073" lon="-0.99451">
        <ele>620</ele>
        <time>2023-05-17T21:54:40Z</time>
      </trkpt>
      <trkpt lat="43.02081" lon="-0.99391">
        <ele>613</ele>
        <time>2023-05-17T21:54:48Z</time>
      </trkpt>
      <trkpt lat="43.021" lon="-0.99325">
        <ele>611</ele>
        <time>2023-05-17T21:54:57Z</time>
      </trkpt>
      <trkpt lat="43.02105" lon="-0.99283">
        <ele>609</ele>
        <time>2023-05-17T21:55:03Z</time>
      </trkpt>
      <trkpt lat="43.02105" lon="-0.99263">
        <ele>607</ele>
        <time>2023-05-17T21:55:05Z</time>
      </trkpt>
      <trkpt lat="43.0211" lon="-0.99243">
        <ele>605</ele>
        <time>2023-05-17T21:55:08Z</time>
      </trkpt>
      <trkpt lat="43.02122" lon="-0.99218">
        <ele>601</ele>
        <time>2023-05-17T21:55:12Z</time>
      </trkpt>
      <trkpt lat="43.02172" lon="-0.99151">
        <ele>591</ele>
        <time>2023-05-17T21:55:25Z</time>
      </trkpt>
      <trkpt lat="43.02195" lon="-0.99109">
        <ele>590</ele>
        <time>2023-05-17T21:55:31Z</time>
      </trkpt>
      <trkpt lat="43.02214" lon="-0.99096">
        <ele>587</ele>
        <time>2023-05-17T21:55:35Z</time>
      </trkpt>
      <trkpt lat="43.02246" lon="-0.9908">
        <ele>582</ele>
        <time>2023-05-17T21:55:41Z</time>
      </trkpt>
      <trkpt lat="43.02252" lon="-0.99074">
        <ele>583</ele>
        <time>2023-05-17T21:55:43Z</time>
      </trkpt>
      <trkpt lat="43.02263" lon="-0.99055">
        <ele>587</ele>
        <time>2023-05-17T21:55:46Z</time>
      </trkpt>
      <trkpt lat="43.02289" lon="-0.9898">
        <ele>592</ele>
        <time>2023-05-17T21:55:57Z</time>
      </trkpt>
      <trkpt lat="43.02297" lon="-0.98903">
        <ele>595</ele>
        <time>2023-05-17T21:56:07Z</time>
      </trkpt>
      <trkpt lat="43.02307" lon="-0.98871">
        <ele>591</ele>
        <time>2023-05-17T21:56:11Z</time>
      </trkpt>
      <trkpt lat="43.02322" lon="-0.98799">
        <ele>583</ele>
        <time>2023-05-17T21:56:21Z</time>
      </trkpt>
      <trkpt lat="43.02334" lon="-0.98769">
        <ele>576</ele>
        <time>2023-05-17T21:56:25Z</time>
      </trkpt>
      <trkpt lat="43.02356" lon="-0.98733">
        <ele>576</ele>
        <time>2023-05-17T21:56:31Z</time>
      </trkpt>
      <trkpt lat="43.02362" lon="-0.98718">
        <ele>575</ele>
        <time>2023-05-17T21:56:34Z</time>
      </trkpt>
      <trkpt lat="43.02363" lon="-0.98703">
        <ele>573</ele>
        <time>2023-05-17T21:56:36Z</time>
      </trkpt>
      <trkpt lat="43.02356" lon="-0.98683">
        <ele>570</ele>
        <time>2023-05-17T21:56:39Z</time>
      </trkpt>
      <trkpt lat="43.02314" lon="-0.98637">
        <ele>575</ele>
        <time>2023-05-17T21:56:48Z</time>
      </trkpt>
      <trkpt lat="43.02301" lon="-0.98611">
        <ele>578</ele>
        <time>2023-05-17T21:56:52Z</time>
      </trkpt>
      <trkpt lat="43.02293" lon="-0.98549">
        <ele>577</ele>
        <time>2023-05-17T21:57:00Z</time>
      </trkpt>
      <trkpt lat="43.02294" lon="-0.98522">
        <ele>576</ele>
        <time>2023-05-17T21:57:04Z</time>
      </trkpt>
      <trkpt lat="43.02299" lon="-0.98503">
        <ele>572</ele>
        <time>2023-05-17T21:57:07Z</time>
      </trkpt>
      <trkpt lat="43.02317" lon="-0.98463">
        <ele>566</ele>
        <time>2023-05-17T21:57:13Z</time>
      </trkpt>
      <trkpt lat="43.02359" lon="-0.98389">
        <ele>561</ele>
        <time>2023-05-17T21:57:25Z</time>
      </trkpt>
      <trkpt lat="43.02414" lon="-0.98324">
        <ele>548</ele>
        <time>2023-05-17T21:57:38Z</time>
      </trkpt>
      <trkpt lat="43.02456" lon="-0.98255">
        <ele>545</ele>
        <time>2023-05-17T21:57:49Z</time>
      </trkpt>
      <trkpt lat="43.02485" lon="-0.98215">
        <ele>540</ele>
        <time>2023-05-17T21:57:57Z</time>
      </trkpt>
      <trkpt lat="43.02523" lon="-0.98149">
        <ele>539</ele>
        <time>2023-05-17T21:58:08Z</time>
      </trkpt>
      <trkpt lat="43.02539" lon="-0.98059">
        <ele>540</ele>
        <time>2023-05-17T21:58:20Z</time>
      </trkpt>
      <trkpt lat="43.02541" lon="-0.97997">
        <ele>538</ele>
        <time>2023-05-17T21:58:28Z</time>
      </trkpt>
      <trkpt lat="43.0255" lon="-0.97961">
        <ele>540</ele>
        <time>2023-05-17T21:58:33Z</time>
      </trkpt>
      <trkpt lat="43.02561" lon="-0.97938">
        <ele>539</ele>
        <time>2023-05-17T21:58:36Z</time>
      </trkpt>
      <trkpt lat="43.0257" lon="-0.97922">
        <ele>537</ele>
        <time>2023-05-17T21:58:39Z</time>
      </trkpt>
      <trkpt lat="43.02594" lon="-0.97896">
        <ele>539</ele>
        <time>2023-05-17T21:58:44Z</time>
      </trkpt>
      <trkpt lat="43.02638" lon="-0.9787">
        <ele>539</ele>
        <time>2023-05-17T21:58:53Z</time>
      </trkpt>
      <trkpt lat="43.02666" lon="-0.97835">
        <ele>529</ele>
        <time>2023-05-17T21:59:00Z</time>
      </trkpt>
      <trkpt lat="43.02709" lon="-0.97763">
        <ele>528</ele>
        <time>2023-05-17T21:59:12Z</time>
      </trkpt>
      <trkpt lat="43.02719" lon="-0.97735">
        <ele>526</ele>
        <time>2023-05-17T21:59:16Z</time>
      </trkpt>
      <trkpt lat="43.02721" lon="-0.97718">
        <ele>526</ele>
        <time>2023-05-17T21:59:18Z</time>
      </trkpt>
      <trkpt lat="43.02718" lon="-0.97616">
        <ele>527</ele>
        <time>2023-05-17T21:59:31Z</time>
      </trkpt>
      <trkpt lat="43.02715" lon="-0.97598">
        <ele>527</ele>
        <time>2023-05-17T21:59:34Z</time>
      </trkpt>
      <trkpt lat="43.02704" lon="-0.97564">
        <ele>527</ele>
        <time>2023-05-17T21:59:39Z</time>
      </trkpt>
      <trkpt lat="43.02689" lon="-0.97535">
        <ele>523</ele>
        <time>2023-05-17T21:59:43Z</time>
      </trkpt>
      <trkpt lat="43.02665" lon="-0.97505">
        <ele>512</ele>
        <time>2023-05-17T21:59:49Z</time>
      </trkpt>
      <trkpt lat="43.02614" lon="-0.97472">
        <ele>520</ele>
        <time>2023-05-17T21:59:59Z</time>
      </trkpt>
      <trkpt lat="43.02592" lon="-0.97438">
        <ele>514</ele>
        <time>2023-05-17T22:00:05Z</time>
      </trkpt>
      <trkpt lat="43.02549" lon="-0.9733">
        <ele>502</ele>
        <time>2023-05-17T22:00:21Z</time>
      </trkpt>
      <trkpt lat="43.02535" lon="-0.97289">
        <ele>502</ele>
        <time>2023-05-17T22:00:27Z</time>
      </trkpt>
      <trkpt lat="43.02515" lon="-0.97212">
        <ele>501</ele>
        <time>2023-05-17T22:00:37Z</time>
      </trkpt>
      <trkpt lat="43.02509" lon="-0.97197">
        <ele>501</ele>
        <time>2023-05-17T22:00:40Z</time>
      </trkpt>
      <trkpt lat="43.02497" lon="-0.97182">
        <ele>503</ele>
        <time>2023-05-17T22:00:43Z</time>
      </trkpt>
      <trkpt lat="43.02457" lon="-0.9716">
        <ele>517</ele>
        <time>2023-05-17T22:00:50Z</time>
      </trkpt>
      <trkpt lat="43.02441" lon="-0.97144">
        <ele>521</ele>
        <time>2023-05-17T22:00:54Z</time>
      </trkpt>
      <trkpt lat="43.02429" lon="-0.97124">
        <ele>523</ele>
        <time>2023-05-17T22:00:57Z</time>
      </trkpt>
      <trkpt lat="43.02414" lon="-0.97083">
        <ele>521</ele>
        <time>2023-05-17T22:01:03Z</time>
      </trkpt>
      <trkpt lat="43.02405" lon="-0.97067">
        <ele>523</ele>
        <time>2023-05-17T22:01:06Z</time>
      </trkpt>
      <trkpt lat="43.02356" lon="-0.96992">
        <ele>528</ele>
        <time>2023-05-17T22:01:19Z</time>
      </trkpt>
      <trkpt lat="43.02335" lon="-0.96972">
        <ele>532</ele>
        <time>2023-05-17T22:01:23Z</time>
      </trkpt>
      <trkpt lat="43.02309" lon="-0.96958">
        <ele>534</ele>
        <time>2023-05-17T22:01:28Z</time>
      </trkpt>
      <trkpt lat="43.02293" lon="-0.96952">
        <ele>537</ele>
        <time>2023-05-17T22:01:31Z</time>
      </trkpt>
      <trkpt lat="43.02286" lon="-0.96952">
        <ele>539</ele>
        <time>2023-05-17T22:01:33Z</time>
      </trkpt>
      <trkpt lat="43.02252" lon="-0.96972">
        <ele>551</ele>
        <time>2023-05-17T22:01:39Z</time>
      </trkpt>
      <trkpt lat="43.02206" lon="-0.96987">
        <ele>561</ele>
        <time>2023-05-17T22:01:48Z</time>
      </trkpt>
      <trkpt lat="43.0219" lon="-0.96998">
        <ele>563</ele>
        <time>2023-05-17T22:01:51Z</time>
      </trkpt>
      <trkpt lat="43.02184" lon="-0.96996">
        <ele>563</ele>
        <time>2023-05-17T22:01:52Z</time>
      </trkpt>
      <trkpt lat="43.02181" lon="-0.96987">
        <ele>564</ele>
        <time>2023-05-17T22:01:53Z</time>
      </trkpt>
      <trkpt lat="43.02183" lon="-0.96973">
        <ele>565</ele>
        <time>2023-05-17T22:01:55Z</time>
      </trkpt>
      <trkpt lat="43.02194" lon="-0.96943">
        <ele>564</ele>
        <time>2023-05-17T22:01:59Z</time>
      </trkpt>
      <trkpt lat="43.02223" lon="-0.96904">
        <ele>554</ele>
        <time>2023-05-17T22:02:07Z</time>
      </trkpt>
      <trkpt lat="43.02243" lon="-0.96862">
        <ele>549</ele>
        <time>2023-05-17T22:02:13Z</time>
      </trkpt>
      <trkpt lat="43.02252" lon="-0.96837">
        <ele>549</ele>
        <time>2023-05-17T22:02:17Z</time>
      </trkpt>
      <trkpt lat="43.02252" lon="-0.96799">
        <ele>547</ele>
        <time>2023-05-17T22:02:22Z</time>
      </trkpt>
      <trkpt lat="43.02238" lon="-0.96771">
        <ele>548</ele>
        <time>2023-05-17T22:02:26Z</time>
      </trkpt>
      <trkpt lat="43.0223" lon="-0.96766">
        <ele>549</ele>
        <time>2023-05-17T22:02:28Z</time>
      </trkpt>
      <trkpt lat="43.02214" lon="-0.96763">
        <ele>551</ele>
        <time>2023-05-17T22:02:30Z</time>
      </trkpt>
      <trkpt lat="43.02175" lon="-0.9677">
        <ele>558</ele>
        <time>2023-05-17T22:02:37Z</time>
      </trkpt>
      <trkpt lat="43.02155" lon="-0.9677">
        <ele>562</ele>
        <time>2023-05-17T22:02:41Z</time>
      </trkpt>
      <trkpt lat="43.02138" lon="-0.96766">
        <ele>566</ele>
        <time>2023-05-17T22:02:44Z</time>
      </trkpt>
      <trkpt lat="43.02121" lon="-0.96753">
        <ele>569</ele>
        <time>2023-05-17T22:02:48Z</time>
      </trkpt>
      <trkpt lat="43.02085" lon="-0.96708">
        <ele>572</ele>
        <time>2023-05-17T22:02:56Z</time>
      </trkpt>
      <trkpt lat="43.02043" lon="-0.96663">
        <ele>581</ele>
        <time>2023-05-17T22:03:06Z</time>
      </trkpt>
      <trkpt lat="43.02022" lon="-0.96625">
        <ele>583</ele>
        <time>2023-05-17T22:03:12Z</time>
      </trkpt>
      <trkpt lat="43.02011" lon="-0.96612">
        <ele>585</ele>
        <time>2023-05-17T22:03:15Z</time>
      </trkpt>
      <trkpt lat="43.01983" lon="-0.96596">
        <ele>591</ele>
        <time>2023-05-17T22:03:20Z</time>
      </trkpt>
      <trkpt lat="43.01962" lon="-0.96575">
        <ele>593</ele>
        <time>2023-05-17T22:03:25Z</time>
      </trkpt>
      <trkpt lat="43.01948" lon="-0.96556">
        <ele>595</ele>
        <time>2023-05-17T22:03:28Z</time>
      </trkpt>
      <trkpt lat="43.01938" lon="-0.96535">
        <ele>596</ele>
        <time>2023-05-17T22:03:31Z</time>
      </trkpt>
      <trkpt lat="43.01919" lon="-0.96473">
        <ele>598</ele>
        <time>2023-05-17T22:03:40Z</time>
      </trkpt>
      <trkpt lat="43.01918" lon="-0.96457">
        <ele>599</ele>
        <time>2023-05-17T22:03:42Z</time>
      </trkpt>
      <trkpt lat="43.01919" lon="-0.96447">
        <ele>599</ele>
        <time>2023-05-17T22:03:43Z</time>
      </trkpt>
      <trkpt lat="43.01932" lon="-0.96405">
        <ele>597</ele>
        <time>2023-05-17T22:03:49Z</time>
      </trkpt>
      <trkpt lat="43.01958" lon="-0.96335">
        <ele>597</ele>
        <time>2023-05-17T22:04:00Z</time>
      </trkpt>
      <trkpt lat="43.01961" lon="-0.96303">
        <ele>598</ele>
        <time>2023-05-17T22:04:04Z</time>
      </trkpt>
      <trkpt lat="43.01958" lon="-0.96271">
        <ele>599</ele>
        <time>2023-05-17T22:04:08Z</time>
      </trkpt>
      <trkpt lat="43.01939" lon="-0.96231">
        <ele>603</ele>
        <time>2023-05-17T22:04:14Z</time>
      </trkpt>
      <trkpt lat="43.01912" lon="-0.96198">
        <ele>607</ele>
        <time>2023-05-17T22:04:21Z</time>
      </trkpt>
      <trkpt lat="43.01888" lon="-0.96177">
        <ele>615</ele>
        <time>2023-05-17T22:04:26Z</time>
      </trkpt>
      <trkpt lat="43.01885" lon="-0.96166">
        <ele>616</ele>
        <time>2023-05-17T22:04:27Z</time>
      </trkpt>
      <trkpt lat="43.01885" lon="-0.9616">
        <ele>617</ele>
        <time>2023-05-17T22:04:28Z</time>
      </trkpt>
      <trkpt lat="43.01891" lon="-0.96149">
        <ele>617</ele>
        <time>2023-05-17T22:04:30Z</time>
      </trkpt>
      <trkpt lat="43.01941" lon="-0.96106">
        <ele>611</ele>
        <time>2023-05-17T22:04:40Z</time>
      </trkpt>
      <trkpt lat="43.01955" lon="-0.9609">
        <ele>611</ele>
        <time>2023-05-17T22:04:44Z</time>
      </trkpt>
      <trkpt lat="43.01963" lon="-0.96074">
        <ele>612</ele>
        <time>2023-05-17T22:04:46Z</time>
      </trkpt>
      <trkpt lat="43.01968" lon="-0.96048">
        <ele>615</ele>
        <time>2023-05-17T22:04:50Z</time>
      </trkpt>
      <trkpt lat="43.01967" lon="-0.96025">
        <ele>618</ele>
        <time>2023-05-17T22:04:53Z</time>
      </trkpt>
      <trkpt lat="43.01958" lon="-0.95991">
        <ele>623</ele>
        <time>2023-05-17T22:04:57Z</time>
      </trkpt>
      <trkpt lat="43.01914" lon="-0.95897">
        <ele>630</ele>
        <time>2023-05-17T22:05:12Z</time>
      </trkpt>
      <trkpt lat="43.01907" lon="-0.95876">
        <ele>631</ele>
        <time>2023-05-17T22:05:15Z</time>
      </trkpt>
      <trkpt lat="43.01884" lon="-0.95773">
        <ele>634</ele>
        <time>2023-05-17T22:05:29Z</time>
      </trkpt>
      <trkpt lat="43.01891" lon="-0.95745">
        <ele>632</ele>
        <time>2023-05-17T22:05:33Z</time>
      </trkpt>
      <trkpt lat="43.01929" lon="-0.95664">
        <ele>630</ele>
        <time>2023-05-17T22:05:45Z</time>
      </trkpt>
      <trkpt lat="43.01934" lon="-0.95635">
        <ele>629</ele>
        <time>2023-05-17T22:05:49Z</time>
      </trkpt>
      <trkpt lat="43.01933" lon="-0.95617">
        <ele>630</ele>
        <time>2023-05-17T22:05:51Z</time>
      </trkpt>
      <trkpt lat="43.01924" lon="-0.95576">
        <ele>633</ele>
        <time>2023-05-17T22:05:57Z</time>
      </trkpt>
      <trkpt lat="43.01912" lon="-0.95542">
        <ele>633</ele>
        <time>2023-05-17T22:06:02Z</time>
      </trkpt>
      <trkpt lat="43.01899" lon="-0.95518">
        <ele>632</ele>
        <time>2023-05-17T22:06:06Z</time>
      </trkpt>
      <trkpt lat="43.01887" lon="-0.95505">
        <ele>631</ele>
        <time>2023-05-17T22:06:09Z</time>
      </trkpt>
      <trkpt lat="43.01877" lon="-0.955">
        <ele>631</ele>
        <time>2023-05-17T22:06:10Z</time>
      </trkpt>
      <trkpt lat="43.01833" lon="-0.95489">
        <ele>631</ele>
        <time>2023-05-17T22:06:18Z</time>
      </trkpt>
      <trkpt lat="43.01798" lon="-0.95492">
        <ele>635</ele>
        <time>2023-05-17T22:06:25Z</time>
      </trkpt>
      <trkpt lat="43.0177" lon="-0.95476">
        <ele>637</ele>
        <time>2023-05-17T22:06:30Z</time>
      </trkpt>
      <trkpt lat="43.01763" lon="-0.95466">
        <ele>637</ele>
        <time>2023-05-17T22:06:32Z</time>
      </trkpt>
      <trkpt lat="43.01761" lon="-0.95456">
        <ele>636</ele>
        <time>2023-05-17T22:06:33Z</time>
      </trkpt>
      <trkpt lat="43.01762" lon="-0.95443">
        <ele>636</ele>
        <time>2023-05-17T22:06:35Z</time>
      </trkpt>
      <trkpt lat="43.01771" lon="-0.95426">
        <ele>633</ele>
        <time>2023-05-17T22:06:38Z</time>
      </trkpt>
      <trkpt lat="43.01794" lon="-0.95399">
        <ele>629</ele>
        <time>2023-05-17T22:06:43Z</time>
      </trkpt>
      <trkpt lat="43.01802" lon="-0.95385">
        <ele>628</ele>
        <time>2023-05-17T22:06:45Z</time>
      </trkpt>
      <trkpt lat="43.01807" lon="-0.9536">
        <ele>627</ele>
        <time>2023-05-17T22:06:49Z</time>
      </trkpt>
      <trkpt lat="43.01807" lon="-0.95344">
        <ele>627</ele>
        <time>2023-05-17T22:06:51Z</time>
      </trkpt>
      <trkpt lat="43.01804" lon="-0.95325">
        <ele>627</ele>
        <time>2023-05-17T22:06:53Z</time>
      </trkpt>
      <trkpt lat="43.0176" lon="-0.95193">
        <ele>615</ele>
        <time>2023-05-17T22:07:12Z</time>
      </trkpt>
      <trkpt lat="43.01756" lon="-0.95171">
        <ele>611</ele>
        <time>2023-05-17T22:07:15Z</time>
      </trkpt>
      <trkpt lat="43.01757" lon="-0.95157">
        <ele>610</ele>
        <time>2023-05-17T22:07:17Z</time>
      </trkpt>
      <trkpt lat="43.01761" lon="-0.95142">
        <ele>608</ele>
        <time>2023-05-17T22:07:19Z</time>
      </trkpt>
      <trkpt lat="43.01774" lon="-0.95123">
        <ele>605</ele>
        <time>2023-05-17T22:07:22Z</time>
      </trkpt>
      <trkpt lat="43.01781" lon="-0.95118">
        <ele>604</ele>
        <time>2023-05-17T22:07:24Z</time>
      </trkpt>
      <trkpt lat="43.01823" lon="-0.95106">
        <ele>599</ele>
        <time>2023-05-17T22:07:31Z</time>
      </trkpt>
      <trkpt lat="43.01835" lon="-0.95098">
        <ele>598</ele>
        <time>2023-05-17T22:07:34Z</time>
      </trkpt>
      <trkpt lat="43.01844" lon="-0.95088">
        <ele>596</ele>
        <time>2023-05-17T22:07:36Z</time>
      </trkpt>
      <trkpt lat="43.01849" lon="-0.95073">
        <ele>594</ele>
        <time>2023-05-17T22:07:38Z</time>
      </trkpt>
      <trkpt lat="43.01851" lon="-0.95056">
        <ele>593</ele>
        <time>2023-05-17T22:07:40Z</time>
      </trkpt>
      <trkpt lat="43.0185" lon="-0.95038">
        <ele>591</ele>
        <time>2023-05-17T22:07:43Z</time>
      </trkpt>
      <trkpt lat="43.01826" lon="-0.94955">
        <ele>588</ele>
        <time>2023-05-17T22:07:54Z</time>
      </trkpt>
      <trkpt lat="43.01816" lon="-0.94907">
        <ele>587</ele>
        <time>2023-05-17T22:08:01Z</time>
      </trkpt>
      <trkpt lat="43.01815" lon="-0.94884">
        <ele>586</ele>
        <time>2023-05-17T22:08:04Z</time>
      </trkpt>
      <trkpt lat="43.01818" lon="-0.94861">
        <ele>583</ele>
        <time>2023-05-17T22:08:07Z</time>
      </trkpt>
      <trkpt lat="43.01843" lon="-0.94764">
        <ele>570</ele>
        <time>2023-05-17T22:08:20Z</time>
      </trkpt>
      <trkpt lat="43.0187" lon="-0.94685">
        <ele>560</ele>
        <time>2023-05-17T22:08:31Z</time>
      </trkpt>
      <trkpt lat="43.01871" lon="-0.94667">
        <ele>559</ele>
        <time>2023-05-17T22:08:34Z</time>
      </trkpt>
      <trkpt lat="43.01868" lon="-0.94647">
        <ele>557</ele>
        <time>2023-05-17T22:08:36Z</time>
      </trkpt>
      <trkpt lat="43.01852" lon="-0.94569">
        <ele>550</ele>
        <time>2023-05-17T22:08:47Z</time>
      </trkpt>
      <trkpt lat="43.01855" lon="-0.94543">
        <ele>548</ele>
        <time>2023-05-17T22:08:50Z</time>
      </trkpt>
      <trkpt lat="43.01861" lon="-0.94532">
        <ele>546</ele>
        <time>2023-05-17T22:08:52Z</time>
      </trkpt>
      <trkpt lat="43.01871" lon="-0.94523">
        <ele>544</ele>
        <time>2023-05-17T22:08:54Z</time>
      </trkpt>
      <trkpt lat="43.01887" lon="-0.94515">
        <ele>540</ele>
        <time>2023-05-17T22:08:57Z</time>
      </trkpt>
      <trkpt lat="43.01914" lon="-0.94506">
        <ele>534</ele>
        <time>2023-05-17T22:09:02Z</time>
      </trkpt>
      <trkpt lat="43.01924" lon="-0.94499">
        <ele>530</ele>
        <time>2023-05-17T22:09:04Z</time>
      </trkpt>
      <trkpt lat="43.01933" lon="-0.94482">
        <ele>525</ele>
        <time>2023-05-17T22:09:07Z</time>
      </trkpt>
      <trkpt lat="43.01939" lon="-0.94451">
        <ele>520</ele>
        <time>2023-05-17T22:09:11Z</time>
      </trkpt>
      <trkpt lat="43.01939" lon="-0.94436">
        <ele>519</ele>
        <time>2023-05-17T22:09:13Z</time>
      </trkpt>
      <trkpt lat="43.01936" lon="-0.94422">
        <ele>519</ele>
        <time>2023-05-17T22:09:15Z</time>
      </trkpt>
      <trkpt lat="43.01929" lon="-0.9441">
        <ele>520</ele>
        <time>2023-05-17T22:09:17Z</time>
      </trkpt>
      <trkpt lat="43.0191" lon="-0.94394">
        <ele>523</ele>
        <time>2023-05-17T22:09:21Z</time>
      </trkpt>
      <trkpt lat="43.019" lon="-0.94382">
        <ele>524</ele>
        <time>2023-05-17T22:09:23Z</time>
      </trkpt>
      <trkpt lat="43.01892" lon="-0.94352">
        <ele>523</ele>
        <time>2023-05-17T22:09:28Z</time>
      </trkpt>
      <trkpt lat="43.01886" lon="-0.94272">
        <ele>516</ele>
        <time>2023-05-17T22:09:38Z</time>
      </trkpt>
      <trkpt lat="43.01889" lon="-0.94252">
        <ele>512</ele>
        <time>2023-05-17T22:09:41Z</time>
      </trkpt>
      <trkpt lat="43.01899" lon="-0.94219">
        <ele>505</ele>
        <time>2023-05-17T22:09:45Z</time>
      </trkpt>
      <trkpt lat="43.019" lon="-0.94197">
        <ele>502</ele>
        <time>2023-05-17T22:09:48Z</time>
      </trkpt>
      <trkpt lat="43.01895" lon="-0.94178">
        <ele>502</ele>
        <time>2023-05-17T22:09:51Z</time>
      </trkpt>
      <trkpt lat="43.01885" lon="-0.94155">
        <ele>504</ele>
        <time>2023-05-17T22:09:54Z</time>
      </trkpt>
      <trkpt lat="43.01882" lon="-0.94128">
        <ele>506</ele>
        <time>2023-05-17T22:09:58Z</time>
      </trkpt>
      <trkpt lat="43.01886" lon="-0.9411">
        <ele>506</ele>
        <time>2023-05-17T22:10:00Z</time>
      </trkpt>
      <trkpt lat="43.01892" lon="-0.94097">
        <ele>505</ele>
        <time>2023-05-17T22:10:02Z</time>
      </trkpt>
      <trkpt lat="43.01932" lon="-0.94043">
        <ele>497</ele>
        <time>2023-05-17T22:10:12Z</time>
      </trkpt>
      <trkpt lat="43.01943" lon="-0.94024">
        <ele>493</ele>
        <time>2023-05-17T22:10:15Z</time>
      </trkpt>
      <trkpt lat="43.01947" lon="-0.9401">
        <ele>492</ele>
        <time>2023-05-17T22:10:17Z</time>
      </trkpt>
      <trkpt lat="43.0195" lon="-0.93984">
        <ele>490</ele>
        <time>2023-05-17T22:10:21Z</time>
      </trkpt>
      <trkpt lat="43.01947" lon="-0.93882">
        <ele>480</ele>
        <time>2023-05-17T22:10:34Z</time>
      </trkpt>
      <trkpt lat="43.0194" lon="-0.93829">
        <ele>471</ele>
        <time>2023-05-17T22:10:41Z</time>
      </trkpt>
      <trkpt lat="43.01933" lon="-0.93809">
        <ele>467</ele>
        <time>2023-05-17T22:10:44Z</time>
      </trkpt>
      <trkpt lat="43.01923" lon="-0.93798">
        <ele>467</ele>
        <time>2023-05-17T22:10:46Z</time>
      </trkpt>
      <trkpt lat="43.01915" lon="-0.93793">
        <ele>468</ele>
        <time>2023-05-17T22:10:48Z</time>
      </trkpt>
      <trkpt lat="43.01845" lon="-0.93777">
        <ele>486</ele>
        <time>2023-05-17T22:11:00Z</time>
      </trkpt>
      <trkpt lat="43.01841" lon="-0.93773">
        <ele>486</ele>
        <time>2023-05-17T22:11:01Z</time>
      </trkpt>
      <trkpt lat="43.01835" lon="-0.93759">
        <ele>483</ele>
        <time>2023-05-17T22:11:03Z</time>
      </trkpt>
      <trkpt lat="43.01836" lon="-0.93748">
        <ele>479</ele>
        <time>2023-05-17T22:11:05Z</time>
      </trkpt>
      <trkpt lat="43.01841" lon="-0.93735">
        <ele>475</ele>
        <time>2023-05-17T22:11:07Z</time>
      </trkpt>
      <trkpt lat="43.01855" lon="-0.93715">
        <ele>466</ele>
        <time>2023-05-17T22:11:10Z</time>
      </trkpt>
      <trkpt lat="43.0186" lon="-0.93695">
        <ele>461</ele>
        <time>2023-05-17T22:11:13Z</time>
      </trkpt>
      <trkpt lat="43.01859" lon="-0.93682">
        <ele>459</ele>
        <time>2023-05-17T22:11:15Z</time>
      </trkpt>
      <trkpt lat="43.0184" lon="-0.93613">
        <ele>461</ele>
        <time>2023-05-17T22:11:24Z</time>
      </trkpt>
      <trkpt lat="43.0184" lon="-0.93573">
        <ele>458</ele>
        <time>2023-05-17T22:11:30Z</time>
      </trkpt>
      <trkpt lat="43.01857" lon="-0.93381">
        <ele>456</ele>
        <time>2023-05-17T22:11:55Z</time>
      </trkpt>
      <trkpt lat="43.01873" lon="-0.93331">
        <ele>445</ele>
        <time>2023-05-17T22:12:02Z</time>
      </trkpt>
      <trkpt lat="43.01884" lon="-0.93308">
        <ele>435</ele>
        <time>2023-05-17T22:12:05Z</time>
      </trkpt>
      <trkpt lat="43.0189" lon="-0.93286">
        <ele>429</ele>
        <time>2023-05-17T22:12:09Z</time>
      </trkpt>
      <trkpt lat="43.01891" lon="-0.93266">
        <ele>426</ele>
        <time>2023-05-17T22:12:11Z</time>
      </trkpt>
      <trkpt lat="43.01888" lon="-0.93249">
        <ele>426</ele>
        <time>2023-05-17T22:12:13Z</time>
      </trkpt>
      <trkpt lat="43.01882" lon="-0.93237">
        <ele>429</ele>
        <time>2023-05-17T22:12:15Z</time>
      </trkpt>
      <trkpt lat="43.01858" lon="-0.93208">
        <ele>438</ele>
        <time>2023-05-17T22:12:21Z</time>
      </trkpt>
      <trkpt lat="43.01841" lon="-0.93177">
        <ele>440</ele>
        <time>2023-05-17T22:12:26Z</time>
      </trkpt>
      <trkpt lat="43.01838" lon="-0.93161">
        <ele>438</ele>
        <time>2023-05-17T22:12:28Z</time>
      </trkpt>
      <trkpt lat="43.01856" lon="-0.93093">
        <ele>424</ele>
        <time>2023-05-17T22:12:38Z</time>
      </trkpt>
      <trkpt lat="43.01855" lon="-0.93076">
        <ele>423</ele>
        <time>2023-05-17T22:12:40Z</time>
      </trkpt>
      <trkpt lat="43.0185" lon="-0.9306">
        <ele>423</ele>
        <time>2023-05-17T22:12:42Z</time>
      </trkpt>
      <trkpt lat="43.01828" lon="-0.93027">
        <ele>423</ele>
        <time>2023-05-17T22:12:48Z</time>
      </trkpt>
      <trkpt lat="43.0182" lon="-0.93009">
        <ele>426</ele>
        <time>2023-05-17T22:12:51Z</time>
      </trkpt>
      <trkpt lat="43.01815" lon="-0.92992">
        <ele>427</ele>
        <time>2023-05-17T22:12:53Z</time>
      </trkpt>
      <trkpt lat="43.01815" lon="-0.92983">
        <ele>425</ele>
        <time>2023-05-17T22:12:54Z</time>
      </trkpt>
      <trkpt lat="43.01818" lon="-0.92964">
        <ele>421</ele>
        <time>2023-05-17T22:12:57Z</time>
      </trkpt>
      <trkpt lat="43.0185" lon="-0.92894">
        <ele>412</ele>
        <time>2023-05-17T22:13:07Z</time>
      </trkpt>
      <trkpt lat="43.01861" lon="-0.92856">
        <ele>412</ele>
        <time>2023-05-17T22:13:13Z</time>
      </trkpt>
      <trkpt lat="43.01857" lon="-0.92837">
        <ele>409</ele>
        <time>2023-05-17T22:13:15Z</time>
      </trkpt>
      <trkpt lat="43.01832" lon="-0.92793">
        <ele>396</ele>
        <time>2023-05-17T22:13:23Z</time>
      </trkpt>
      <trkpt lat="43.01829" lon="-0.92774">
        <ele>393</ele>
        <time>2023-05-17T22:13:25Z</time>
      </trkpt>
      <trkpt lat="43.01831" lon="-0.92767">
        <ele>392</ele>
        <time>2023-05-17T22:13:26Z</time>
      </trkpt>
      <trkpt lat="43.01841" lon="-0.92754">
        <ele>391</ele>
        <time>2023-05-17T22:13:29Z</time>
      </trkpt>
      <trkpt lat="43.01866" lon="-0.92744">
        <ele>396</ele>
        <time>2023-05-17T22:13:33Z</time>
      </trkpt>
      <trkpt lat="43.01879" lon="-0.92735">
        <ele>398</ele>
        <time>2023-05-17T22:13:36Z</time>
      </trkpt>
      <trkpt lat="43.01901" lon="-0.92715">
        <ele>399</ele>
        <time>2023-05-17T22:13:41Z</time>
      </trkpt>
      <trkpt lat="43.01922" lon="-0.92688">
        <ele>398</ele>
        <time>2023-05-17T22:13:46Z</time>
      </trkpt>
      <trkpt lat="43.01929" lon="-0.92662">
        <ele>396</ele>
        <time>2023-05-17T22:13:49Z</time>
      </trkpt>
      <trkpt lat="43.01936" lon="-0.92528">
        <ele>390</ele>
        <time>2023-05-17T22:14:07Z</time>
      </trkpt>
      <trkpt lat="43.01939" lon="-0.92512">
        <ele>389</ele>
        <time>2023-05-17T22:14:09Z</time>
      </trkpt>
      <trkpt lat="43.01945" lon="-0.92497">
        <ele>388</ele>
        <time>2023-05-17T22:14:11Z</time>
      </trkpt>
      <trkpt lat="43.0196" lon="-0.92482">
        <ele>389</ele>
        <time>2023-05-17T22:14:14Z</time>
      </trkpt>
      <trkpt lat="43.01977" lon="-0.92479">
        <ele>386</ele>
        <time>2023-05-17T22:14:17Z</time>
      </trkpt>
      <trkpt lat="43.01991" lon="-0.92483">
        <ele>383</ele>
        <time>2023-05-17T22:14:20Z</time>
      </trkpt>
      <trkpt lat="43.02041" lon="-0.92505">
        <ele>381</ele>
        <time>2023-05-17T22:14:29Z</time>
      </trkpt>
      <trkpt lat="43.02061" lon="-0.92511">
        <ele>384</ele>
        <time>2023-05-17T22:14:33Z</time>
      </trkpt>
      <trkpt lat="43.02078" lon="-0.92512">
        <ele>385</ele>
        <time>2023-05-17T22:14:36Z</time>
      </trkpt>
      <trkpt lat="43.02124" lon="-0.92497">
        <ele>383</ele>
        <time>2023-05-17T22:14:44Z</time>
      </trkpt>
      <trkpt lat="43.02149" lon="-0.92479">
        <ele>383</ele>
        <time>2023-05-17T22:14:49Z</time>
      </trkpt>
      <trkpt lat="43.02164" lon="-0.92463">
        <ele>381</ele>
        <time>2023-05-17T22:14:53Z</time>
      </trkpt>
      <trkpt lat="43.02199" lon="-0.92406">
        <ele>378</ele>
        <time>2023-05-17T22:15:03Z</time>
      </trkpt>
      <trkpt lat="43.02218" lon="-0.9238">
        <ele>381</ele>
        <time>2023-05-17T22:15:07Z</time>
      </trkpt>
      <trkpt lat="43.02238" lon="-0.92364">
        <ele>381</ele>
        <time>2023-05-17T22:15:11Z</time>
      </trkpt>
      <trkpt lat="43.02252" lon="-0.92359">
        <ele>380</ele>
        <time>2023-05-17T22:15:14Z</time>
      </trkpt>
      <trkpt lat="43.02269" lon="-0.9236">
        <ele>381</ele>
        <time>2023-05-17T22:15:17Z</time>
      </trkpt>
      <trkpt lat="43.02289" lon="-0.92368">
        <ele>382</ele>
        <time>2023-05-17T22:15:21Z</time>
      </trkpt>
      <trkpt lat="43.02308" lon="-0.92381">
        <ele>383</ele>
        <time>2023-05-17T22:15:25Z</time>
      </trkpt>
      <trkpt lat="43.02414" lon="-0.92471">
        <ele>385</ele>
        <time>2023-05-17T22:15:47Z</time>
      </trkpt>
      <trkpt lat="43.02431" lon="-0.92478">
        <ele>385</ele>
        <time>2023-05-17T22:15:50Z</time>
      </trkpt>
      <trkpt lat="43.02441" lon="-0.92479">
        <ele>385</ele>
        <time>2023-05-17T22:15:52Z</time>
      </trkpt>
      <trkpt lat="43.02459" lon="-0.92476">
        <ele>385</ele>
        <time>2023-05-17T22:15:55Z</time>
      </trkpt>
      <trkpt lat="43.02483" lon="-0.92468">
        <ele>384</ele>
        <time>2023-05-17T22:15:59Z</time>
      </trkpt>
      <trkpt lat="43.025" lon="-0.92468">
        <ele>384</ele>
        <time>2023-05-17T22:16:02Z</time>
      </trkpt>
      <trkpt lat="43.02511" lon="-0.92475">
        <ele>383</ele>
        <time>2023-05-17T22:16:04Z</time>
      </trkpt>
      <trkpt lat="43.02545" lon="-0.92511">
        <ele>382</ele>
        <time>2023-05-17T22:16:12Z</time>
      </trkpt>
      <trkpt lat="43.02567" lon="-0.92522">
        <ele>384</ele>
        <time>2023-05-17T22:16:16Z</time>
      </trkpt>
      <trkpt lat="43.02586" lon="-0.92524">
        <ele>384</ele>
        <time>2023-05-17T22:16:20Z</time>
      </trkpt>
      <trkpt lat="43.02609" lon="-0.92517">
        <ele>386</ele>
        <time>2023-05-17T22:16:24Z</time>
      </trkpt>
      <trkpt lat="43.02626" lon="-0.92506">
        <ele>385</ele>
        <time>2023-05-17T22:16:27Z</time>
      </trkpt>
      <trkpt lat="43.02655" lon="-0.92477">
        <ele>383</ele>
        <time>2023-05-17T22:16:34Z</time>
      </trkpt>
      <trkpt lat="43.02673" lon="-0.92445">
        <ele>381</ele>
        <time>2023-05-17T22:16:39Z</time>
      </trkpt>
      <trkpt lat="43.02748" lon="-0.92285">
        <ele>378</ele>
        <time>2023-05-17T22:17:04Z</time>
      </trkpt>
      <trkpt lat="43.0277" lon="-0.92244">
        <ele>378</ele>
        <time>2023-05-17T22:17:10Z</time>
      </trkpt>
      <trkpt lat="43.02807" lon="-0.92189">
        <ele>377</ele>
        <time>2023-05-17T22:17:20Z</time>
      </trkpt>
      <trkpt lat="43.02853" lon="-0.9214">
        <ele>376</ele>
        <time>2023-05-17T22:17:30Z</time>
      </trkpt>
      <trkpt lat="43.02866" lon="-0.92121">
        <ele>379</ele>
        <time>2023-05-17T22:17:34Z</time>
      </trkpt>
      <trkpt lat="43.02895" lon="-0.92056">
        <ele>377</ele>
        <time>2023-05-17T22:17:44Z</time>
      </trkpt>
      <trkpt lat="43.02944" lon="-0.91968">
        <ele>375</ele>
        <time>2023-05-17T22:17:58Z</time>
      </trkpt>
      <trkpt lat="43.02955" lon="-0.91934">
        <ele>375</ele>
        <time>2023-05-17T22:18:03Z</time>
      </trkpt>
      <trkpt lat="43.02962" lon="-0.91903">
        <ele>375</ele>
        <time>2023-05-17T22:18:07Z</time>
      </trkpt>
      <trkpt lat="43.02971" lon="-0.91836">
        <ele>372</ele>
        <time>2023-05-17T22:18:16Z</time>
      </trkpt>
      <trkpt lat="43.02972" lon="-0.91797">
        <ele>371</ele>
        <time>2023-05-17T22:18:21Z</time>
      </trkpt>
      <trkpt lat="43.02968" lon="-0.91694">
        <ele>371</ele>
        <time>2023-05-17T22:18:34Z</time>
      </trkpt>
      <trkpt lat="43.0297" lon="-0.91666">
        <ele>371</ele>
        <time>2023-05-17T22:18:38Z</time>
      </trkpt>
      <trkpt lat="43.02977" lon="-0.91641">
        <ele>372</ele>
        <time>2023-05-17T22:18:42Z</time>
      </trkpt>
      <trkpt lat="43.02982" lon="-0.91632">
        <ele>370</ele>
        <time>2023-05-17T22:18:43Z</time>
      </trkpt>
      <trkpt lat="43.02998" lon="-0.91616">
        <ele>364</ele>
        <time>2023-05-17T22:18:46Z</time>
      </trkpt>
      <trkpt lat="43.03018" lon="-0.91602">
        <ele>366</ele>
        <time>2023-05-17T22:18:50Z</time>
      </trkpt>
      <trkpt lat="43.03033" lon="-0.91588">
        <ele>367</ele>
        <time>2023-05-17T22:18:54Z</time>
      </trkpt>
      <trkpt lat="43.03047" lon="-0.91569">
        <ele>369</ele>
        <time>2023-05-17T22:18:57Z</time>
      </trkpt>
      <trkpt lat="43.03058" lon="-0.9153">
        <ele>370</ele>
        <time>2023-05-17T22:19:03Z</time>
      </trkpt>
      <trkpt lat="43.0306" lon="-0.91514">
        <ele>370</ele>
        <time>2023-05-17T22:19:05Z</time>
      </trkpt>
      <trkpt lat="43.03055" lon="-0.9144">
        <ele>373</ele>
        <time>2023-05-17T22:19:14Z</time>
      </trkpt>
      <trkpt lat="43.03059" lon="-0.91409">
        <ele>372</ele>
        <time>2023-05-17T22:19:19Z</time>
      </trkpt>
      <trkpt lat="43.03065" lon="-0.91394">
        <ele>369</ele>
        <time>2023-05-17T22:19:21Z</time>
      </trkpt>
      <trkpt lat="43.03079" lon="-0.91373">
        <ele>361</ele>
        <time>2023-05-17T22:19:24Z</time>
      </trkpt>
      <trkpt lat="43.03087" lon="-0.91366">
        <ele>359</ele>
        <time>2023-05-17T22:19:26Z</time>
      </trkpt>
      <trkpt lat="43.03128" lon="-0.91344">
        <ele>369</ele>
        <time>2023-05-17T22:19:34Z</time>
      </trkpt>
      <trkpt lat="43.0315" lon="-0.91319">
        <ele>370</ele>
        <time>2023-05-17T22:19:39Z</time>
      </trkpt>
      <trkpt lat="43.03165" lon="-0.91247">
        <ele>356</ele>
        <time>2023-05-17T22:19:49Z</time>
      </trkpt>
      <trkpt lat="43.0317" lon="-0.91236">
        <ele>358</ele>
        <time>2023-05-17T22:19:51Z</time>
      </trkpt>
      <trkpt lat="43.03184" lon="-0.9122">
        <ele>364</ele>
        <time>2023-05-17T22:19:54Z</time>
      </trkpt>
      <trkpt lat="43.03204" lon="-0.91204">
        <ele>368</ele>
        <time>2023-05-17T22:19:58Z</time>
      </trkpt>
      <trkpt lat="43.03235" lon="-0.91184">
        <ele>366</ele>
        <time>2023-05-17T22:20:04Z</time>
      </trkpt>
      <trkpt lat="43.03263" lon="-0.91157">
        <ele>365</ele>
        <time>2023-05-17T22:20:10Z</time>
      </trkpt>
      <trkpt lat="43.03277" lon="-0.91135">
        <ele>371</ele>
        <time>2023-05-17T22:20:14Z</time>
      </trkpt>
      <trkpt lat="43.03288" lon="-0.91107">
        <ele>371</ele>
        <time>2023-05-17T22:20:18Z</time>
      </trkpt>
      <trkpt lat="43.0331" lon="-0.91017">
        <ele>368</ele>
        <time>2023-05-17T22:20:30Z</time>
      </trkpt>
      <trkpt lat="43.03323" lon="-0.90987">
        <ele>362</ele>
        <time>2023-05-17T22:20:35Z</time>
      </trkpt>
      <trkpt lat="43.03346" lon="-0.90953">
        <ele>361</ele>
        <time>2023-05-17T22:20:41Z</time>
      </trkpt>
      <trkpt lat="43.03474" lon="-0.90804">
        <ele>361</ele>
        <time>2023-05-17T22:21:11Z</time>
      </trkpt>
      <trkpt lat="43.03489" lon="-0.9078">
        <ele>357</ele>
        <time>2023-05-17T22:21:15Z</time>
      </trkpt>
      <trkpt lat="43.03504" lon="-0.90739">
        <ele>350</ele>
        <time>2023-05-17T22:21:21Z</time>
      </trkpt>
      <trkpt lat="43.03526" lon="-0.90647">
        <ele>349</ele>
        <time>2023-05-17T22:21:33Z</time>
      </trkpt>
      <trkpt lat="43.03535" lon="-0.90583">
        <ele>348</ele>
        <time>2023-05-17T22:21:42Z</time>
      </trkpt>
      <trkpt lat="43.0354" lon="-0.90503">
        <ele>343</ele>
        <time>2023-05-17T22:21:52Z</time>
      </trkpt>
      <trkpt lat="43.03543" lon="-0.90484">
        <ele>344</ele>
        <time>2023-05-17T22:21:55Z</time>
      </trkpt>
      <trkpt lat="43.03552" lon="-0.90453">
        <ele>343</ele>
        <time>2023-05-17T22:21:59Z</time>
      </trkpt>
      <trkpt lat="43.03569" lon="-0.90428">
        <ele>336</ele>
        <time>2023-05-17T22:22:04Z</time>
      </trkpt>
      <trkpt lat="43.0359" lon="-0.90414">
        <ele>329</ele>
        <time>2023-05-17T22:22:08Z</time>
      </trkpt>
      <trkpt lat="43.0364" lon="-0.90398">
        <ele>330</ele>
        <time>2023-05-17T22:22:17Z</time>
      </trkpt>
      <trkpt lat="43.03684" lon="-0.90389">
        <ele>331</ele>
        <time>2023-05-17T22:22:25Z</time>
      </trkpt>
      <trkpt lat="43.03725" lon="-0.90386">
        <ele>336</ele>
        <time>2023-05-17T22:22:32Z</time>
      </trkpt>
      <trkpt lat="43.03742" lon="-0.90382">
        <ele>337</ele>
        <time>2023-05-17T22:22:35Z</time>
      </trkpt>
      <trkpt lat="43.03763" lon="-0.9037">
        <ele>339</ele>
        <time>2023-05-17T22:22:39Z</time>
      </trkpt>
      <trkpt lat="43.03779" lon="-0.90354">
        <ele>341</ele>
        <time>2023-05-17T22:22:43Z</time>
      </trkpt>
      <trkpt lat="43.03796" lon="-0.90324">
        <ele>340</ele>
        <time>2023-05-17T22:22:48Z</time>
      </trkpt>
      <trkpt lat="43.03804" lon="-0.90299">
        <ele>338</ele>
        <time>2023-05-17T22:22:51Z</time>
      </trkpt>
      <trkpt lat="43.03806" lon="-0.90285">
        <ele>336</ele>
        <time>2023-05-17T22:22:53Z</time>
      </trkpt>
      <trkpt lat="43.03808" lon="-0.90218">
        <ele>330</ele>
        <time>2023-05-17T22:23:02Z</time>
      </trkpt>
      <trkpt lat="43.03801" lon="-0.90133">
        <ele>331</ele>
        <time>2023-05-17T22:23:13Z</time>
      </trkpt>
      <trkpt lat="43.03804" lon="-0.90101">
        <ele>331</ele>
        <time>2023-05-17T22:23:17Z</time>
      </trkpt>
      <trkpt lat="43.03813" lon="-0.90084">
        <ele>329</ele>
        <time>2023-05-17T22:23:20Z</time>
      </trkpt>
      <trkpt lat="43.03855" lon="-0.90041">
        <ele>326</ele>
        <time>2023-05-17T22:23:29Z</time>
      </trkpt>
      <trkpt lat="43.03868" lon="-0.90022">
        <ele>329</ele>
        <time>2023-05-17T22:23:33Z</time>
      </trkpt>
      <trkpt lat="43.03879" lon="-0.89987">
        <ele>329</ele>
        <time>2023-05-17T22:23:38Z</time>
      </trkpt>
      <trkpt lat="43.03884" lon="-0.89943">
        <ele>328</ele>
        <time>2023-05-17T22:23:43Z</time>
      </trkpt>
      <trkpt lat="43.03891" lon="-0.89921">
        <ele>326</ele>
        <time>2023-05-17T22:23:47Z</time>
      </trkpt>
      <trkpt lat="43.03908" lon="-0.89897">
        <ele>323</ele>
        <time>2023-05-17T22:23:51Z</time>
      </trkpt>
      <trkpt lat="43.03922" lon="-0.89887">
        <ele>322</ele>
        <time>2023-05-17T22:23:54Z</time>
      </trkpt>
      <trkpt lat="43.03938" lon="-0.89885">
        <ele>325</ele>
        <time>2023-05-17T22:23:57Z</time>
      </trkpt>
      <trkpt lat="43.03965" lon="-0.89891">
        <ele>331</ele>
        <time>2023-05-17T22:24:01Z</time>
      </trkpt>
      <trkpt lat="43.03985" lon="-0.89891">
        <ele>335</ele>
        <time>2023-05-17T22:24:05Z</time>
      </trkpt>
      <trkpt lat="43.04017" lon="-0.89872">
        <ele>335</ele>
        <time>2023-05-17T22:24:11Z</time>
      </trkpt>
      <trkpt lat="43.04035" lon="-0.89857">
        <ele>333</ele>
        <time>2023-05-17T22:24:15Z</time>
      </trkpt>
      <trkpt lat="43.04042" lon="-0.89848">
        <ele>331</ele>
        <time>2023-05-17T22:24:17Z</time>
      </trkpt>
      <trkpt lat="43.04066" lon="-0.89799">
        <ele>325</ele>
        <time>2023-05-17T22:24:24Z</time>
      </trkpt>
      <trkpt lat="43.04072" lon="-0.89791">
        <ele>324</ele>
        <time>2023-05-17T22:24:26Z</time>
      </trkpt>
      <trkpt lat="43.04087" lon="-0.89777">
        <ele>323</ele>
        <time>2023-05-17T22:24:29Z</time>
      </trkpt>
      <trkpt lat="43.04113" lon="-0.89759">
        <ele>330</ele>
        <time>2023-05-17T22:24:34Z</time>
      </trkpt>
      <trkpt lat="43.04132" lon="-0.89735">
        <ele>333</ele>
        <time>2023-05-17T22:24:39Z</time>
      </trkpt>
      <trkpt lat="43.04145" lon="-0.89713">
        <ele>332</ele>
        <time>2023-05-17T22:24:42Z</time>
      </trkpt>
      <trkpt lat="43.04187" lon="-0.89618">
        <ele>326</ele>
        <time>2023-05-17T22:24:57Z</time>
      </trkpt>
      <trkpt lat="43.04304" lon="-0.89406">
        <ele>313</ele>
        <time>2023-05-17T22:25:31Z</time>
      </trkpt>
      <trkpt lat="43.04323" lon="-0.89381">
        <ele>312</ele>
        <time>2023-05-17T22:25:36Z</time>
      </trkpt>
      <trkpt lat="43.04343" lon="-0.89364">
        <ele>311</ele>
        <time>2023-05-17T22:25:40Z</time>
      </trkpt>
      <trkpt lat="43.04407" lon="-0.89346">
        <ele>320</ele>
        <time>2023-05-17T22:25:52Z</time>
      </trkpt>
      <trkpt lat="43.04424" lon="-0.8933">
        <ele>321</ele>
        <time>2023-05-17T22:25:56Z</time>
      </trkpt>
      <trkpt lat="43.0444" lon="-0.89306">
        <ele>325</ele>
        <time>2023-05-17T22:26:00Z</time>
      </trkpt>
      <trkpt lat="43.04446" lon="-0.89294">
        <ele>325</ele>
        <time>2023-05-17T22:26:02Z</time>
      </trkpt>
      <trkpt lat="43.04452" lon="-0.8926">
        <ele>322</ele>
        <time>2023-05-17T22:26:06Z</time>
      </trkpt>
      <trkpt lat="43.04465" lon="-0.89069">
        <ele>322</ele>
        <time>2023-05-17T22:26:31Z</time>
      </trkpt>
      <trkpt lat="43.04468" lon="-0.89054">
        <ele>321</ele>
        <time>2023-05-17T22:26:33Z</time>
      </trkpt>
      <trkpt lat="43.04476" lon="-0.89033">
        <ele>320</ele>
        <time>2023-05-17T22:26:36Z</time>
      </trkpt>
      <trkpt lat="43.04491" lon="-0.89012">
        <ele>313</ele>
        <time>2023-05-17T22:26:40Z</time>
      </trkpt>
      <trkpt lat="43.04517" lon="-0.88997">
        <ele>311</ele>
        <time>2023-05-17T22:26:45Z</time>
      </trkpt>
      <trkpt lat="43.04667" lon="-0.88962">
        <ele>328</ele>
        <time>2023-05-17T22:27:12Z</time>
      </trkpt>
      <trkpt lat="43.04689" lon="-0.88949">
        <ele>329</ele>
        <time>2023-05-17T22:27:17Z</time>
      </trkpt>
      <trkpt lat="43.04702" lon="-0.88931">
        <ele>326</ele>
        <time>2023-05-17T22:27:20Z</time>
      </trkpt>
      <trkpt lat="43.04756" lon="-0.88798">
        <ele>304</ele>
        <time>2023-05-17T22:27:40Z</time>
      </trkpt>
      <trkpt lat="43.04797" lon="-0.88719">
        <ele>307</ele>
        <time>2023-05-17T22:27:52Z</time>
      </trkpt>
      <trkpt lat="43.04807" lon="-0.88687">
        <ele>303</ele>
        <time>2023-05-17T22:27:57Z</time>
      </trkpt>
      <trkpt lat="43.04804" lon="-0.88642">
        <ele>297</ele>
        <time>2023-05-17T22:28:03Z</time>
      </trkpt>
      <trkpt lat="43.04808" lon="-0.88627">
        <ele>295</ele>
        <time>2023-05-17T22:28:05Z</time>
      </trkpt>
      <trkpt lat="43.04816" lon="-0.88615">
        <ele>294</ele>
        <time>2023-05-17T22:28:07Z</time>
      </trkpt>
      <trkpt lat="43.04829" lon="-0.88606">
        <ele>292</ele>
        <time>2023-05-17T22:28:09Z</time>
      </trkpt>
      <trkpt lat="43.04889" lon="-0.88576">
        <ele>291</ele>
        <time>2023-05-17T22:28:21Z</time>
      </trkpt>
      <trkpt lat="43.04902" lon="-0.88564">
        <ele>291</ele>
        <time>2023-05-17T22:28:24Z</time>
      </trkpt>
      <trkpt lat="43.04907" lon="-0.88543">
        <ele>291</ele>
        <time>2023-05-17T22:28:26Z</time>
      </trkpt>
      <trkpt lat="43.04907" lon="-0.885">
        <ele>290</ele>
        <time>2023-05-17T22:28:32Z</time>
      </trkpt>
      <trkpt lat="43.0491" lon="-0.8849">
        <ele>292</ele>
        <time>2023-05-17T22:28:33Z</time>
      </trkpt>
      <trkpt lat="43.04917" lon="-0.88479">
        <ele>294</ele>
        <time>2023-05-17T22:28:35Z</time>
      </trkpt>
      <trkpt lat="43.04941" lon="-0.8846">
        <ele>295</ele>
        <time>2023-05-17T22:28:40Z</time>
      </trkpt>
      <trkpt lat="43.04957" lon="-0.88443">
        <ele>295</ele>
        <time>2023-05-17T22:28:44Z</time>
      </trkpt>
      <trkpt lat="43.04972" lon="-0.88406">
        <ele>297</ele>
        <time>2023-05-17T22:28:49Z</time>
      </trkpt>
      <trkpt lat="43.04999" lon="-0.88304">
        <ele>304</ele>
        <time>2023-05-17T22:29:03Z</time>
      </trkpt>
      <trkpt lat="43.0502" lon="-0.8826">
        <ele>312</ele>
        <time>2023-05-17T22:29:10Z</time>
      </trkpt>
      <trkpt lat="43.05038" lon="-0.88206">
        <ele>321</ele>
        <time>2023-05-17T22:29:18Z</time>
      </trkpt>
      <trkpt lat="43.05052" lon="-0.88191">
        <ele>319</ele>
        <time>2023-05-17T22:29:21Z</time>
      </trkpt>
      <trkpt lat="43.05079" lon="-0.88178">
        <ele>312</ele>
        <time>2023-05-17T22:29:26Z</time>
      </trkpt>
      <trkpt lat="43.0513" lon="-0.88161">
        <ele>305</ele>
        <time>2023-05-17T22:29:36Z</time>
      </trkpt>
      <trkpt lat="43.05208" lon="-0.88149">
        <ele>297</ele>
        <time>2023-05-17T22:29:50Z</time>
      </trkpt>
      <trkpt lat="43.05279" lon="-0.88115">
        <ele>304</ele>
        <time>2023-05-17T22:30:03Z</time>
      </trkpt>
      <trkpt lat="43.05326" lon="-0.881">
        <ele>304</ele>
        <time>2023-05-17T22:30:12Z</time>
      </trkpt>
      <trkpt lat="43.05358" lon="-0.88098">
        <ele>305</ele>
        <time>2023-05-17T22:30:17Z</time>
      </trkpt>
      <trkpt lat="43.05403" lon="-0.88101">
        <ele>307</ele>
        <time>2023-05-17T22:30:25Z</time>
      </trkpt>
      <trkpt lat="43.0544" lon="-0.88097">
        <ele>308</ele>
        <time>2023-05-17T22:30:32Z</time>
      </trkpt>
      <trkpt lat="43.05498" lon="-0.88102">
        <ele>306</ele>
        <time>2023-05-17T22:30:42Z</time>
      </trkpt>
      <trkpt lat="43.0552" lon="-0.88099">
        <ele>302</ele>
        <time>2023-05-17T22:30:46Z</time>
      </trkpt>
      <trkpt lat="43.05543" lon="-0.88091">
        <ele>297</ele>
        <time>2023-05-17T22:30:50Z</time>
      </trkpt>
      <trkpt lat="43.05562" lon="-0.88078">
        <ele>295</ele>
        <time>2023-05-17T22:30:54Z</time>
      </trkpt>
      <trkpt lat="43.05587" lon="-0.88051">
        <ele>297</ele>
        <time>2023-05-17T22:31:00Z</time>
      </trkpt>
      <trkpt lat="43.05598" lon="-0.88031">
        <ele>300</ele>
        <time>2023-05-17T22:31:03Z</time>
      </trkpt>
      <trkpt lat="43.0563" lon="-0.87956">
        <ele>310</ele>
        <time>2023-05-17T22:31:14Z</time>
      </trkpt>
      <trkpt lat="43.05643" lon="-0.87935">
        <ele>309</ele>
        <time>2023-05-17T22:31:18Z</time>
      </trkpt>
      <trkpt lat="43.05695" lon="-0.87867">
        <ele>308</ele>
        <time>2023-05-17T22:31:31Z</time>
      </trkpt>
      <trkpt lat="43.05712" lon="-0.87851">
        <ele>306</ele>
        <time>2023-05-17T22:31:34Z</time>
      </trkpt>
      <trkpt lat="43.05742" lon="-0.87835">
        <ele>297</ele>
        <time>2023-05-17T22:31:40Z</time>
      </trkpt>
      <trkpt lat="43.05752" lon="-0.87832">
        <ele>294</ele>
        <time>2023-05-17T22:31:42Z</time>
      </trkpt>
      <trkpt lat="43.05781" lon="-0.8783">
        <ele>290</ele>
        <time>2023-05-17T22:31:47Z</time>
      </trkpt>
      <trkpt lat="43.05807" lon="-0.87817">
        <ele>289</ele>
        <time>2023-05-17T22:31:52Z</time>
      </trkpt>
      <trkpt lat="43.05943" lon="-0.87674">
        <ele>296</ele>
        <time>2023-05-17T22:32:23Z</time>
      </trkpt>
      <trkpt lat="43.05958" lon="-0.87663">
        <ele>297</ele>
        <time>2023-05-17T22:32:26Z</time>
      </trkpt>
      <trkpt lat="43.05966" lon="-0.8766">
        <ele>297</ele>
        <time>2023-05-17T22:32:27Z</time>
      </trkpt>
      <trkpt lat="43.05988" lon="-0.8766">
        <ele>292</ele>
        <time>2023-05-17T22:32:31Z</time>
      </trkpt>
      <trkpt lat="43.06033" lon="-0.87674">
        <ele>292</ele>
        <time>2023-05-17T22:32:39Z</time>
      </trkpt>
      <trkpt lat="43.06052" lon="-0.87685">
        <ele>294</ele>
        <time>2023-05-17T22:32:43Z</time>
      </trkpt>
      <trkpt lat="43.06103" lon="-0.87724">
        <ele>290</ele>
        <time>2023-05-17T22:32:53Z</time>
      </trkpt>
      <trkpt lat="43.06132" lon="-0.8774">
        <ele>288</ele>
        <time>2023-05-17T22:32:59Z</time>
      </trkpt>
      <trkpt lat="43.06154" lon="-0.87745">
        <ele>289</ele>
        <time>2023-05-17T22:33:03Z</time>
      </trkpt>
      <trkpt lat="43.06192" lon="-0.87745">
        <ele>289</ele>
        <time>2023-05-17T22:33:10Z</time>
      </trkpt>
      <trkpt lat="43.06224" lon="-0.8774">
        <ele>290</ele>
        <time>2023-05-17T22:33:15Z</time>
      </trkpt>
      <trkpt lat="43.06236" lon="-0.87736">
        <ele>291</ele>
        <time>2023-05-17T22:33:17Z</time>
      </trkpt>
      <trkpt lat="43.06259" lon="-0.87724">
        <ele>292</ele>
        <time>2023-05-17T22:33:22Z</time>
      </trkpt>
      <trkpt lat="43.06271" lon="-0.87715">
        <ele>292</ele>
        <time>2023-05-17T22:33:24Z</time>
      </trkpt>
      <trkpt lat="43.06304" lon="-0.87681">
        <ele>289</ele>
        <time>2023-05-17T22:33:32Z</time>
      </trkpt>
      <trkpt lat="43.06323" lon="-0.87629">
        <ele>285</ele>
        <time>2023-05-17T22:33:39Z</time>
      </trkpt>
      <trkpt lat="43.06334" lon="-0.87618">
        <ele>281</ele>
        <time>2023-05-17T22:33:42Z</time>
      </trkpt>
      <trkpt lat="43.06345" lon="-0.87615">
        <ele>283</ele>
        <time>2023-05-17T22:33:44Z</time>
      </trkpt>
      <trkpt lat="43.06355" lon="-0.87616">
        <ele>284</ele>
        <time>2023-05-17T22:33:45Z</time>
      </trkpt>
      <trkpt lat="43.06367" lon="-0.87625">
        <ele>285</ele>
        <time>2023-05-17T22:33:48Z</time>
      </trkpt>
      <trkpt lat="43.0639" lon="-0.87656">
        <ele>282</ele>
        <time>2023-05-17T22:33:54Z</time>
      </trkpt>
      <trkpt lat="43.06399" lon="-0.87664">
        <ele>281</ele>
        <time>2023-05-17T22:33:55Z</time>
      </trkpt>
      <trkpt lat="43.06409" lon="-0.87668">
        <ele>281</ele>
        <time>2023-05-17T22:33:57Z</time>
      </trkpt>
      <trkpt lat="43.06414" lon="-0.87668">
        <ele>281</ele>
        <time>2023-05-17T22:33:58Z</time>
      </trkpt>
      <trkpt lat="43.06427" lon="-0.87661">
        <ele>282</ele>
        <time>2023-05-17T22:34:01Z</time>
      </trkpt>
      <trkpt lat="43.0648" lon="-0.87622">
        <ele>292</ele>
        <time>2023-05-17T22:34:11Z</time>
      </trkpt>
      <trkpt lat="43.06496" lon="-0.87614">
        <ele>295</ele>
        <time>2023-05-17T22:34:14Z</time>
      </trkpt>
      <trkpt lat="43.06529" lon="-0.87609">
        <ele>292</ele>
        <time>2023-05-17T22:34:20Z</time>
      </trkpt>
      <trkpt lat="43.06601" lon="-0.87613">
        <ele>279</ele>
        <time>2023-05-17T22:34:33Z</time>
      </trkpt>
      <trkpt lat="43.0668" lon="-0.87651">
        <ele>266</ele>
        <time>2023-05-17T22:34:48Z</time>
      </trkpt>
      <trkpt lat="43.06699" lon="-0.87656">
        <ele>265</ele>
        <time>2023-05-17T22:34:52Z</time>
      </trkpt>
      <trkpt lat="43.06738" lon="-0.87656">
        <ele>263</ele>
        <time>2023-05-17T22:34:58Z</time>
      </trkpt>
      <trkpt lat="43.06788" lon="-0.8764">
        <ele>264</ele>
        <time>2023-05-17T22:35:08Z</time>
      </trkpt>
      <trkpt lat="43.06837" lon="-0.8763">
        <ele>264</ele>
        <time>2023-05-17T22:35:16Z</time>
      </trkpt>
      <trkpt lat="43.06889" lon="-0.87616">
        <ele>262</ele>
        <time>2023-05-17T22:35:26Z</time>
      </trkpt>
      <trkpt lat="43.06909" lon="-0.87606">
        <ele>261</ele>
        <time>2023-05-17T22:35:30Z</time>
      </trkpt>
      <trkpt lat="43.06999" lon="-0.87543">
        <ele>264</ele>
        <time>2023-05-17T22:35:48Z</time>
      </trkpt>
      <trkpt lat="43.07012" lon="-0.87537">
        <ele>265</ele>
        <time>2023-05-17T22:35:50Z</time>
      </trkpt>
      <trkpt lat="43.07036" lon="-0.87531">
        <ele>266</ele>
        <time>2023-05-17T22:35:54Z</time>
      </trkpt>
      <trkpt lat="43.07066" lon="-0.87536">
        <ele>266</ele>
        <time>2023-05-17T22:36:00Z</time>
      </trkpt>
      <trkpt lat="43.07091" lon="-0.87548">
        <ele>265</ele>
        <time>2023-05-17T22:36:04Z</time>
      </trkpt>
      <trkpt lat="43.07108" lon="-0.87563">
        <ele>265</ele>
        <time>2023-05-17T22:36:08Z</time>
      </trkpt>
      <trkpt lat="43.07144" lon="-0.87606">
        <ele>264</ele>
        <time>2023-05-17T22:36:17Z</time>
      </trkpt>
      <trkpt lat="43.0716" lon="-0.87615">
        <ele>265</ele>
        <time>2023-05-17T22:36:20Z</time>
      </trkpt>
      <trkpt lat="43.07189" lon="-0.8762">
        <ele>266</ele>
        <time>2023-05-17T22:36:25Z</time>
      </trkpt>
      <trkpt lat="43.07209" lon="-0.8762">
        <ele>266</ele>
        <time>2023-05-17T22:36:28Z</time>
      </trkpt>
      <trkpt lat="43.07225" lon="-0.87618">
        <ele>266</ele>
        <time>2023-05-17T22:36:31Z</time>
      </trkpt>
      <trkpt lat="43.07261" lon="-0.87607">
        <ele>267</ele>
        <time>2023-05-17T22:36:38Z</time>
      </trkpt>
      <trkpt lat="43.07299" lon="-0.87589">
        <ele>264</ele>
        <time>2023-05-17T22:36:45Z</time>
      </trkpt>
      <trkpt lat="43.07355" lon="-0.87538">
        <ele>267</ele>
        <time>2023-05-17T22:36:57Z</time>
      </trkpt>
      <trkpt lat="43.07431" lon="-0.87502">
        <ele>261</ele>
        <time>2023-05-17T22:37:11Z</time>
      </trkpt>
      <trkpt lat="43.07458" lon="-0.87497">
        <ele>260</ele>
        <time>2023-05-17T22:37:16Z</time>
      </trkpt>
      <trkpt lat="43.07472" lon="-0.8749">
        <ele>260</ele>
        <time>2023-05-17T22:37:19Z</time>
      </trkpt>
      <trkpt lat="43.0749" lon="-0.87471">
        <ele>261</ele>
        <time>2023-05-17T22:37:23Z</time>
      </trkpt>
      <trkpt lat="43.07511" lon="-0.87438">
        <ele>264</ele>
        <time>2023-05-17T22:37:29Z</time>
      </trkpt>
      <trkpt lat="43.07532" lon="-0.87415">
        <ele>264</ele>
        <time>2023-05-17T22:37:33Z</time>
      </trkpt>
      <trkpt lat="43.07576" lon="-0.87374">
        <ele>264</ele>
        <time>2023-05-17T22:37:43Z</time>
      </trkpt>
      <trkpt lat="43.07663" lon="-0.87272">
        <ele>270</ele>
        <time>2023-05-17T22:38:03Z</time>
      </trkpt>
      <trkpt lat="43.07676" lon="-0.87259">
        <ele>270</ele>
        <time>2023-05-17T22:38:06Z</time>
      </trkpt>
      <trkpt lat="43.07737" lon="-0.87215">
        <ele>260</ele>
        <time>2023-05-17T22:38:18Z</time>
      </trkpt>
      <trkpt lat="43.07751" lon="-0.87195">
        <ele>257</ele>
        <time>2023-05-17T22:38:22Z</time>
      </trkpt>
      <trkpt lat="43.07791" lon="-0.8712">
        <ele>256</ele>
        <time>2023-05-17T22:38:34Z</time>
      </trkpt>
      <trkpt lat="43.07808" lon="-0.87099">
        <ele>256</ele>
        <time>2023-05-17T22:38:38Z</time>
      </trkpt>
      <trkpt lat="43.07825" lon="-0.8709">
        <ele>255</ele>
        <time>2023-05-17T22:38:41Z</time>
      </trkpt>
      <trkpt lat="43.0784" lon="-0.8709">
        <ele>256</ele>
        <time>2023-05-17T22:38:44Z</time>
      </trkpt>
      <trkpt lat="43.07887" lon="-0.87107">
        <ele>259</ele>
        <time>2023-05-17T22:38:53Z</time>
      </trkpt>
      <trkpt lat="43.07907" lon="-0.87111">
        <ele>260</ele>
        <time>2023-05-17T22:38:56Z</time>
      </trkpt>
      <trkpt lat="43.07987" lon="-0.8711">
        <ele>266</ele>
        <time>2023-05-17T22:39:10Z</time>
      </trkpt>
      <trkpt lat="43.08064" lon="-0.87147">
        <ele>257</ele>
        <time>2023-05-17T22:39:25Z</time>
      </trkpt>
      <trkpt lat="43.08121" lon="-0.87145">
        <ele>255</ele>
        <time>2023-05-17T22:39:35Z</time>
      </trkpt>
      <trkpt lat="43.08204" lon="-0.87153">
        <ele>250</ele>
        <time>2023-05-17T22:39:50Z</time>
      </trkpt>
      <trkpt lat="43.08231" lon="-0.87156">
        <ele>249</ele>
        <time>2023-05-17T22:39:55Z</time>
      </trkpt>
      <trkpt lat="43.08291" lon="-0.87171">
        <ele>248</ele>
        <time>2023-05-17T22:40:06Z</time>
      </trkpt>
      <trkpt lat="43.0838" lon="-0.8716">
        <ele>254</ele>
        <time>2023-05-17T22:40:21Z</time>
      </trkpt>
      <trkpt lat="43.08447" lon="-0.87159">
        <ele>254</ele>
        <time>2023-05-17T22:40:33Z</time>
      </trkpt>
      <trkpt lat="43.08485" lon="-0.87154">
        <ele>255</ele>
        <time>2023-05-17T22:40:40Z</time>
      </trkpt>
      <trkpt lat="43.08585" lon="-0.87149">
        <ele>257</ele>
        <time>2023-05-17T22:40:58Z</time>
      </trkpt>
      <trkpt lat="43.08609" lon="-0.87146">
        <ele>259</ele>
        <time>2023-05-17T22:41:02Z</time>
      </trkpt>
      <trkpt lat="43.08648" lon="-0.87134">
        <ele>262</ele>
        <time>2023-05-17T22:41:09Z</time>
      </trkpt>
      <trkpt lat="43.08716" lon="-0.87103">
        <ele>265</ele>
        <time>2023-05-17T22:41:22Z</time>
      </trkpt>
      <trkpt lat="43.08871" lon="-0.87043">
        <ele>264</ele>
        <time>2023-05-17T22:41:51Z</time>
      </trkpt>
      <trkpt lat="43.08973" lon="-0.86988">
        <ele>256</ele>
        <time>2023-05-17T22:42:10Z</time>
      </trkpt>
      <trkpt lat="43.09259" lon="-0.8679">
        <ele>242</ele>
        <time>2023-05-17T22:43:07Z</time>
      </trkpt>
      <trkpt lat="43.09445" lon="-0.86682">
        <ele>237</ele>
        <time>2023-05-17T22:43:43Z</time>
      </trkpt>
      <trkpt lat="43.0949" lon="-0.8665">
        <ele>237</ele>
        <time>2023-05-17T22:43:52Z</time>
      </trkpt>
      <trkpt lat="43.09518" lon="-0.86624">
        <ele>237</ele>
        <time>2023-05-17T22:43:58Z</time>
      </trkpt>
      <trkpt lat="43.09548" lon="-0.86585">
        <ele>237</ele>
        <time>2023-05-17T22:44:06Z</time>
      </trkpt>
      <trkpt lat="43.09562" lon="-0.86562">
        <ele>237</ele>
        <time>2023-05-17T22:44:10Z</time>
      </trkpt>
      <trkpt lat="43.09682" lon="-0.86322">
        <ele>239</ele>
        <time>2023-05-17T22:44:47Z</time>
      </trkpt>
      <trkpt lat="43.0971" lon="-0.86286">
        <ele>240</ele>
        <time>2023-05-17T22:44:54Z</time>
      </trkpt>
      <trkpt lat="43.0973" lon="-0.86271">
        <ele>241</ele>
        <time>2023-05-17T22:44:58Z</time>
      </trkpt>
      <trkpt lat="43.09749" lon="-0.8626">
        <ele>242</ele>
        <time>2023-05-17T22:45:02Z</time>
      </trkpt>
      <trkpt lat="43.09765" lon="-0.86255">
        <ele>242</ele>
        <time>2023-05-17T22:45:05Z</time>
      </trkpt>
      <trkpt lat="43.09796" lon="-0.86252">
        <ele>243</ele>
        <time>2023-05-17T22:45:10Z</time>
      </trkpt>
      <trkpt lat="43.09843" lon="-0.86255">
        <ele>243</ele>
        <time>2023-05-17T22:45:19Z</time>
      </trkpt>
      <trkpt lat="43.09872" lon="-0.8625">
        <ele>241</ele>
        <time>2023-05-17T22:45:24Z</time>
      </trkpt>
      <trkpt lat="43.09886" lon="-0.86244">
        <ele>241</ele>
        <time>2023-05-17T22:45:27Z</time>
      </trkpt>
      <trkpt lat="43.09904" lon="-0.86229">
        <ele>243</ele>
        <time>2023-05-17T22:45:30Z</time>
      </trkpt>
      <trkpt lat="43.09942" lon="-0.86179">
        <ele>246</ele>
        <time>2023-05-17T22:45:40Z</time>
      </trkpt>
      <trkpt lat="43.09971" lon="-0.86148">
        <ele>244</ele>
        <time>2023-05-17T22:45:46Z</time>
      </trkpt>
      <trkpt lat="43.10003" lon="-0.86123">
        <ele>242</ele>
        <time>2023-05-17T22:45:53Z</time>
      </trkpt>
      <trkpt lat="43.10037" lon="-0.86104">
        <ele>241</ele>
        <time>2023-05-17T22:45:59Z</time>
      </trkpt>
      <trkpt lat="43.10319" lon="-0.86005">
        <ele>241</ele>
        <time>2023-05-17T22:46:51Z</time>
      </trkpt>
      <trkpt lat="43.10358" lon="-0.85994">
        <ele>239</ele>
        <time>2023-05-17T22:46:58Z</time>
      </trkpt>
      <trkpt lat="43.10441" lon="-0.85976">
        <ele>235</ele>
        <time>2023-05-17T22:47:13Z</time>
      </trkpt>
      <trkpt lat="43.10491" lon="-0.85952">
        <ele>232</ele>
        <time>2023-05-17T22:47:23Z</time>
      </trkpt>
      <trkpt lat="43.10561" lon="-0.85926">
        <ele>230</ele>
        <time>2023-05-17T22:47:35Z</time>
      </trkpt>
      <trkpt lat="43.10579" lon="-0.85917">
        <ele>229</ele>
        <time>2023-05-17T22:47:39Z</time>
      </trkpt>
      <trkpt lat="43.10594" lon="-0.85905">
        <ele>229</ele>
        <time>2023-05-17T22:47:42Z</time>
      </trkpt>
      <trkpt lat="43.1066" lon="-0.8584">
        <ele>226</ele>
        <time>2023-05-17T22:47:56Z</time>
      </trkpt>
      <trkpt lat="43.10706" lon="-0.85803">
        <ele>230</ele>
        <time>2023-05-17T22:48:06Z</time>
      </trkpt>
      <trkpt lat="43.10712" lon="-0.85801">
        <ele>231</ele>
        <time>2023-05-17T22:48:07Z</time>
      </trkpt>
      <trkpt lat="43.10726" lon="-0.85803">
        <ele>232</ele>
        <time>2023-05-17T22:48:10Z</time>
      </trkpt>
      <trkpt lat="43.10765" lon="-0.85839">
        <ele>231</ele>
        <time>2023-05-17T22:48:18Z</time>
      </trkpt>
      <trkpt lat="43.10781" lon="-0.85849">
        <ele>233</ele>
        <time>2023-05-17T22:48:21Z</time>
      </trkpt>
      <trkpt lat="43.10797" lon="-0.85853">
        <ele>235</ele>
        <time>2023-05-17T22:48:24Z</time>
      </trkpt>
      <trkpt lat="43.10812" lon="-0.85851">
        <ele>238</ele>
        <time>2023-05-17T22:48:27Z</time>
      </trkpt>
      <trkpt lat="43.10786" lon="-0.85802">
        <ele>242</ele>
        <time>2023-05-17T22:48:34Z</time>
      </trkpt>
      <trkpt lat="43.1077" lon="-0.85777">
        <ele>243</ele>
        <time>2023-05-17T22:48:39Z</time>
      </trkpt>
      <trkpt lat="43.10738" lon="-0.85741">
        <ele>244</ele>
        <time>2023-05-17T22:48:46Z</time>
      </trkpt>
      <trkpt lat="43.10702" lon="-0.85718">
        <ele>245</ele>
        <time>2023-05-17T22:48:53Z</time>
      </trkpt>
      <trkpt lat="43.1064" lon="-0.85696">
        <ele>240</ele>
        <time>2023-05-17T22:49:05Z</time>
      </trkpt>
      <trkpt lat="43.1062" lon="-0.85677">
        <ele>240</ele>
        <time>2023-05-17T22:49:09Z</time>
      </trkpt>
      <trkpt lat="43.10602" lon="-0.85646">
        <ele>241</ele>
        <time>2023-05-17T22:49:14Z</time>
      </trkpt>
      <trkpt lat="43.10563" lon="-0.85548">
        <ele>246</ele>
        <time>2023-05-17T22:49:29Z</time>
      </trkpt>
      <trkpt lat="43.10547" lon="-0.85515">
        <ele>247</ele>
        <time>2023-05-17T22:49:34Z</time>
      </trkpt>
      <trkpt lat="43.1045" lon="-0.85357">
        <ele>248</ele>
        <time>2023-05-17T22:50:01Z</time>
      </trkpt>
      <trkpt lat="43.10433" lon="-0.85333">
        <ele>246</ele>
        <time>2023-05-17T22:50:05Z</time>
      </trkpt>
      <trkpt lat="43.10365" lon="-0.85254">
        <ele>244</ele>
        <time>2023-05-17T22:50:21Z</time>
      </trkpt>
      <trkpt lat="43.10243" lon="-0.85118">
        <ele>245</ele>
        <time>2023-05-17T22:50:49Z</time>
      </trkpt>
      <trkpt lat="43.1022" lon="-0.85082">
        <ele>245</ele>
        <time>2023-05-17T22:50:55Z</time>
      </trkpt>
      <trkpt lat="43.10207" lon="-0.85053">
        <ele>244</ele>
        <time>2023-05-17T22:50:59Z</time>
      </trkpt>
      <trkpt lat="43.10192" lon="-0.85002">
        <ele>243</ele>
        <time>2023-05-17T22:51:07Z</time>
      </trkpt>
      <trkpt lat="43.10177" lon="-0.84899">
        <ele>241</ele>
        <time>2023-05-17T22:51:20Z</time>
      </trkpt>
      <trkpt lat="43.10143" lon="-0.84626">
        <ele>243</ele>
        <time>2023-05-17T22:51:56Z</time>
      </trkpt>
      <trkpt lat="43.10136" lon="-0.84554">
        <ele>243</ele>
        <time>2023-05-17T22:52:06Z</time>
      </trkpt>
      <trkpt lat="43.10134" lon="-0.84448">
        <ele>247</ele>
        <time>2023-05-17T22:52:19Z</time>
      </trkpt>
      <trkpt lat="43.10137" lon="-0.84358">
        <ele>245</ele>
        <time>2023-05-17T22:52:31Z</time>
      </trkpt>
      <trkpt lat="43.10136" lon="-0.84298">
        <ele>244</ele>
        <time>2023-05-17T22:52:39Z</time>
      </trkpt>
      <trkpt lat="43.10133" lon="-0.8427">
        <ele>244</ele>
        <time>2023-05-17T22:52:43Z</time>
      </trkpt>
      <trkpt lat="43.10115" lon="-0.84176">
        <ele>245</ele>
        <time>2023-05-17T22:52:55Z</time>
      </trkpt>
      <trkpt lat="43.10105" lon="-0.84094">
        <ele>247</ele>
        <time>2023-05-17T22:53:06Z</time>
      </trkpt>
      <trkpt lat="43.10107" lon="-0.84051">
        <ele>249</ele>
        <time>2023-05-17T22:53:12Z</time>
      </trkpt>
      <trkpt lat="43.10126" lon="-0.83923">
        <ele>255</ele>
        <time>2023-05-17T22:53:29Z</time>
      </trkpt>
      <trkpt lat="43.10128" lon="-0.83856">
        <ele>251</ele>
        <time>2023-05-17T22:53:37Z</time>
      </trkpt>
      <trkpt lat="43.10084" lon="-0.83436">
        <ele>253</ele>
        <time>2023-05-17T22:54:32Z</time>
      </trkpt>
      <trkpt lat="43.10066" lon="-0.83299">
        <ele>253</ele>
        <time>2023-05-17T22:54:50Z</time>
      </trkpt>
      <trkpt lat="43.10043" lon="-0.83135">
        <ele>252</ele>
        <time>2023-05-17T22:55:12Z</time>
      </trkpt>
      <trkpt lat="43.09998" lon="-0.82895">
        <ele>251</ele>
        <time>2023-05-17T22:55:44Z</time>
      </trkpt>
      <trkpt lat="43.09987" lon="-0.82831">
        <ele>257</ele>
        <time>2023-05-17T22:55:53Z</time>
      </trkpt>
      <trkpt lat="43.09985" lon="-0.82802">
        <ele>260</ele>
        <time>2023-05-17T22:55:57Z</time>
      </trkpt>
      <trkpt lat="43.09987" lon="-0.82769">
        <ele>261</ele>
        <time>2023-05-17T22:56:01Z</time>
      </trkpt>
      <trkpt lat="43.09997" lon="-0.82727">
        <ele>261</ele>
        <time>2023-05-17T22:56:07Z</time>
      </trkpt>
      <trkpt lat="43.10022" lon="-0.82658">
        <ele>263</ele>
        <time>2023-05-17T22:56:17Z</time>
      </trkpt>
      <trkpt lat="43.10028" lon="-0.82617">
        <ele>264</ele>
        <time>2023-05-17T22:56:22Z</time>
      </trkpt>
      <trkpt lat="43.10026" lon="-0.82585">
        <ele>265</ele>
        <time>2023-05-17T22:56:26Z</time>
      </trkpt>
      <trkpt lat="43.10019" lon="-0.82554">
        <ele>264</ele>
        <time>2023-05-17T22:56:31Z</time>
      </trkpt>
      <trkpt lat="43.09969" lon="-0.82436">
        <ele>264</ele>
        <time>2023-05-17T22:56:48Z</time>
      </trkpt>
      <trkpt lat="43.09807" lon="-0.81979">
        <ele>268</ele>
        <time>2023-05-17T22:57:54Z</time>
      </trkpt>
      <trkpt lat="43.09797" lon="-0.81949">
        <ele>268</ele>
        <time>2023-05-17T22:57:59Z</time>
      </trkpt>
      <trkpt lat="43.09796" lon="-0.81923">
        <ele>268</ele>
        <time>2023-05-17T22:58:02Z</time>
      </trkpt>
      <trkpt lat="43.09834" lon="-0.81741">
        <ele>263</ele>
        <time>2023-05-17T22:58:27Z</time>
      </trkpt>
      <trkpt lat="43.09845" lon="-0.81716">
        <ele>262</ele>
        <time>2023-05-17T22:58:30Z</time>
      </trkpt>
      <trkpt lat="43.0988" lon="-0.81658">
        <ele>263</ele>
        <time>2023-05-17T22:58:40Z</time>
      </trkpt>
      <trkpt lat="43.09931" lon="-0.81576">
        <ele>270</ele>
        <time>2023-05-17T22:58:54Z</time>
      </trkpt>
      <trkpt lat="43.09943" lon="-0.81561">
        <ele>273</ele>
        <time>2023-05-17T22:58:57Z</time>
      </trkpt>
      <trkpt lat="43.09961" lon="-0.81547">
        <ele>278</ele>
        <time>2023-05-17T22:59:01Z</time>
      </trkpt>
      <trkpt lat="43.10038" lon="-0.81515">
        <ele>290</ele>
        <time>2023-05-17T22:59:15Z</time>
      </trkpt>
      <trkpt lat="43.10072" lon="-0.81484">
        <ele>293</ele>
        <time>2023-05-17T22:59:22Z</time>
      </trkpt>
      <trkpt lat="43.10091" lon="-0.81457">
        <ele>292</ele>
        <time>2023-05-17T22:59:27Z</time>
      </trkpt>
      <trkpt lat="43.10113" lon="-0.81399">
        <ele>287</ele>
        <time>2023-05-17T22:59:36Z</time>
      </trkpt>
      <trkpt lat="43.10135" lon="-0.81299">
        <ele>281</ele>
        <time>2023-05-17T22:59:49Z</time>
      </trkpt>
      <trkpt lat="43.10141" lon="-0.81261">
        <ele>279</ele>
        <time>2023-05-17T22:59:54Z</time>
      </trkpt>
      <trkpt lat="43.10144" lon="-0.81212">
        <ele>278</ele>
        <time>2023-05-17T23:00:01Z</time>
      </trkpt>
      <trkpt lat="43.10143" lon="-0.81162">
        <ele>279</ele>
        <time>2023-05-17T23:00:07Z</time>
      </trkpt>
      <trkpt lat="43.10138" lon="-0.81134">
        <ele>281</ele>
        <time>2023-05-17T23:00:11Z</time>
      </trkpt>
      <trkpt lat="43.10118" lon="-0.81065">
        <ele>288</ele>
        <time>2023-05-17T23:00:21Z</time>
      </trkpt>
      <trkpt lat="43.10103" lon="-0.81031">
        <ele>292</ele>
        <time>2023-05-17T23:00:26Z</time>
      </trkpt>
      <trkpt lat="43.10074" lon="-0.80978">
        <ele>297</ele>
        <time>2023-05-17T23:00:34Z</time>
      </trkpt>
      <trkpt lat="43.10057" lon="-0.80935">
        <ele>302</ele>
        <time>2023-05-17T23:00:41Z</time>
      </trkpt>
      <trkpt lat="43.10052" lon="-0.80902">
        <ele>305</ele>
        <time>2023-05-17T23:00:45Z</time>
      </trkpt>
      <trkpt lat="43.10052" lon="-0.80879">
        <ele>305</ele>
        <time>2023-05-17T23:00:48Z</time>
      </trkpt>
      <trkpt lat="43.10059" lon="-0.80847">
        <ele>307</ele>
        <time>2023-05-17T23:00:52Z</time>
      </trkpt>
      <trkpt lat="43.1007" lon="-0.80825">
        <ele>309</ele>
        <time>2023-05-17T23:00:56Z</time>
      </trkpt>
      <trkpt lat="43.10091" lon="-0.80801">
        <ele>310</ele>
        <time>2023-05-17T23:01:01Z</time>
      </trkpt>
      <trkpt lat="43.10233" lon="-0.80691">
        <ele>330</ele>
        <time>2023-05-17T23:01:30Z</time>
      </trkpt>
      <trkpt lat="43.10258" lon="-0.80664">
        <ele>332</ele>
        <time>2023-05-17T23:01:35Z</time>
      </trkpt>
      <trkpt lat="43.10284" lon="-0.80618">
        <ele>335</ele>
        <time>2023-05-17T23:01:43Z</time>
      </trkpt>
      <trkpt lat="43.10307" lon="-0.80555">
        <ele>341</ele>
        <time>2023-05-17T23:01:52Z</time>
      </trkpt>
      <trkpt lat="43.10317" lon="-0.80514">
        <ele>345</ele>
        <time>2023-05-17T23:01:58Z</time>
      </trkpt>
      <trkpt lat="43.10319" lon="-0.80466">
        <ele>348</ele>
        <time>2023-05-17T23:02:04Z</time>
      </trkpt>
      <trkpt lat="43.10313" lon="-0.80446">
        <ele>348</ele>
        <time>2023-05-17T23:02:07Z</time>
      </trkpt>
      <trkpt lat="43.1029" lon="-0.80393">
        <ele>346</ele>
        <time>2023-05-17T23:02:15Z</time>
      </trkpt>
      <trkpt lat="43.10285" lon="-0.80368">
        <ele>346</ele>
        <time>2023-05-17T23:02:18Z</time>
      </trkpt>
      <trkpt lat="43.10285" lon="-0.80353">
        <ele>348</ele>
        <time>2023-05-17T23:02:20Z</time>
      </trkpt>
      <trkpt lat="43.10296" lon="-0.80286">
        <ele>358</ele>
        <time>2023-05-17T23:02:29Z</time>
      </trkpt>
      <trkpt lat="43.10297" lon="-0.80268">
        <ele>360</ele>
        <time>2023-05-17T23:02:31Z</time>
      </trkpt>
      <trkpt lat="43.10288" lon="-0.80108">
        <ele>374</ele>
        <time>2023-05-17T23:02:52Z</time>
      </trkpt>
      <trkpt lat="43.1029" lon="-0.80065">
        <ele>375</ele>
        <time>2023-05-17T23:02:58Z</time>
      </trkpt>
      <trkpt lat="43.10294" lon="-0.80046">
        <ele>375</ele>
        <time>2023-05-17T23:03:00Z</time>
      </trkpt>
      <trkpt lat="43.10307" lon="-0.80009">
        <ele>374</ele>
        <time>2023-05-17T23:03:06Z</time>
      </trkpt>
      <trkpt lat="43.10376" lon="-0.79847">
        <ele>365</ele>
        <time>2023-05-17T23:03:30Z</time>
      </trkpt>
      <trkpt lat="43.10434" lon="-0.79698">
        <ele>362</ele>
        <time>2023-05-17T23:03:52Z</time>
      </trkpt>
      <trkpt lat="43.10471" lon="-0.79593">
        <ele>359</ele>
        <time>2023-05-17T23:04:07Z</time>
      </trkpt>
      <trkpt lat="43.10518" lon="-0.79484">
        <ele>357</ele>
        <time>2023-05-17T23:04:24Z</time>
      </trkpt>
      <trkpt lat="43.10573" lon="-0.79347">
        <ele>353</ele>
        <time>2023-05-17T23:04:44Z</time>
      </trkpt>
      <trkpt lat="43.10606" lon="-0.79298">
        <ele>355</ele>
        <time>2023-05-17T23:04:53Z</time>
      </trkpt>
      <trkpt lat="43.10699" lon="-0.79186">
        <ele>358</ele>
        <time>2023-05-17T23:05:15Z</time>
      </trkpt>
      <trkpt lat="43.10776" lon="-0.79045">
        <ele>347</ele>
        <time>2023-05-17T23:05:37Z</time>
      </trkpt>
      <trkpt lat="43.10786" lon="-0.79032">
        <ele>347</ele>
        <time>2023-05-17T23:05:40Z</time>
      </trkpt>
      <trkpt lat="43.10866" lon="-0.78954">
        <ele>340</ele>
        <time>2023-05-17T23:05:57Z</time>
      </trkpt>
      <trkpt lat="43.10949" lon="-0.78897">
        <ele>340</ele>
        <time>2023-05-17T23:06:14Z</time>
      </trkpt>
      <trkpt lat="43.10982" lon="-0.78861">
        <ele>342</ele>
        <time>2023-05-17T23:06:21Z</time>
      </trkpt>
      <trkpt lat="43.11021" lon="-0.788">
        <ele>343</ele>
        <time>2023-05-17T23:06:32Z</time>
      </trkpt>
      <trkpt lat="43.11036" lon="-0.78767">
        <ele>342</ele>
        <time>2023-05-17T23:06:37Z</time>
      </trkpt>
      <trkpt lat="43.11079" lon="-0.78632">
        <ele>337</ele>
        <time>2023-05-17T23:06:56Z</time>
      </trkpt>
      <trkpt lat="43.11085" lon="-0.78596">
        <ele>335</ele>
        <time>2023-05-17T23:07:01Z</time>
      </trkpt>
      <trkpt lat="43.11091" lon="-0.78518">
        <ele>328</ele>
        <time>2023-05-17T23:07:11Z</time>
      </trkpt>
      <trkpt lat="43.11099" lon="-0.78492">
        <ele>327</ele>
        <time>2023-05-17T23:07:15Z</time>
      </trkpt>
      <trkpt lat="43.11108" lon="-0.78473">
        <ele>327</ele>
        <time>2023-05-17T23:07:18Z</time>
      </trkpt>
      <trkpt lat="43.1114" lon="-0.78424">
        <ele>325</ele>
        <time>2023-05-17T23:07:26Z</time>
      </trkpt>
      <trkpt lat="43.1115" lon="-0.78391">
        <ele>325</ele>
        <time>2023-05-17T23:07:31Z</time>
      </trkpt>
      <trkpt lat="43.11153" lon="-0.78363">
        <ele>326</ele>
        <time>2023-05-17T23:07:35Z</time>
      </trkpt>
      <trkpt lat="43.11158" lon="-0.78228">
        <ele>338</ele>
        <time>2023-05-17T23:07:52Z</time>
      </trkpt>
      <trkpt lat="43.11156" lon="-0.78173">
        <ele>338</ele>
        <time>2023-05-17T23:07:59Z</time>
      </trkpt>
      <trkpt lat="43.11144" lon="-0.78109">
        <ele>339</ele>
        <time>2023-05-17T23:08:08Z</time>
      </trkpt>
      <trkpt lat="43.11055" lon="-0.77842">
        <ele>332</ele>
        <time>2023-05-17T23:08:46Z</time>
      </trkpt>
      <trkpt lat="43.11048" lon="-0.77801">
        <ele>330</ele>
        <time>2023-05-17T23:08:51Z</time>
      </trkpt>
      <trkpt lat="43.11026" lon="-0.77087">
        <ele>319</ele>
        <time>2023-05-17T23:10:24Z</time>
      </trkpt>
      <trkpt lat="43.11035" lon="-0.77063">
        <ele>320</ele>
        <time>2023-05-17T23:10:28Z</time>
      </trkpt>
      <trkpt lat="43.11055" lon="-0.77045">
        <ele>321</ele>
        <time>2023-05-17T23:10:32Z</time>
      </trkpt>
      <trkpt lat="43.11109" lon="-0.77023">
        <ele>320</ele>
        <time>2023-05-17T23:10:42Z</time>
      </trkpt>
      <trkpt lat="43.11131" lon="-0.77006">
        <ele>320</ele>
        <time>2023-05-17T23:10:47Z</time>
      </trkpt>
      <trkpt lat="43.11152" lon="-0.76976">
        <ele>321</ele>
        <time>2023-05-17T23:10:52Z</time>
      </trkpt>
      <trkpt lat="43.11166" lon="-0.76945">
        <ele>322</ele>
        <time>2023-05-17T23:10:57Z</time>
      </trkpt>
      <trkpt lat="43.11186" lon="-0.76881">
        <ele>322</ele>
        <time>2023-05-17T23:11:06Z</time>
      </trkpt>
      <trkpt lat="43.11219" lon="-0.76718">
        <ele>323</ele>
        <time>2023-05-17T23:11:28Z</time>
      </trkpt>
      <trkpt lat="43.11305" lon="-0.76418">
        <ele>322</ele>
        <time>2023-05-17T23:12:10Z</time>
      </trkpt>
      <trkpt lat="43.11312" lon="-0.76418">
        <ele>322</ele>
        <time>2023-05-17T23:12:11Z</time>
      </trkpt>
      <trkpt lat="43.11317" lon="-0.76411">
        <ele>322</ele>
        <time>2023-05-17T23:12:12Z</time>
      </trkpt>
      <trkpt lat="43.11318" lon="-0.76405">
        <ele>322</ele>
        <time>2023-05-17T23:12:13Z</time>
      </trkpt>
      <trkpt lat="43.11317" lon="-0.76399">
        <ele>322</ele>
        <time>2023-05-17T23:12:14Z</time>
      </trkpt>
      <trkpt lat="43.1131" lon="-0.76392">
        <ele>322</ele>
        <time>2023-05-17T23:12:15Z</time>
      </trkpt>
      <trkpt lat="43.11327" lon="-0.76257">
        <ele>324</ele>
        <time>2023-05-17T23:12:33Z</time>
      </trkpt>
      <trkpt lat="43.11324" lon="-0.76073">
        <ele>322</ele>
        <time>2023-05-17T23:12:57Z</time>
      </trkpt>
      <trkpt lat="43.11327" lon="-0.7603">
        <ele>322</ele>
        <time>2023-05-17T23:13:03Z</time>
      </trkpt>
      <trkpt lat="43.11335" lon="-0.75989">
        <ele>321</ele>
        <time>2023-05-17T23:13:08Z</time>
      </trkpt>
      <trkpt lat="43.11335" lon="-0.75948">
        <ele>320</ele>
        <time>2023-05-17T23:13:13Z</time>
      </trkpt>
      <trkpt lat="43.11329" lon="-0.75932">
        <ele>320</ele>
        <time>2023-05-17T23:13:16Z</time>
      </trkpt>
      <trkpt lat="43.1132" lon="-0.75917">
        <ele>321</ele>
        <time>2023-05-17T23:13:18Z</time>
      </trkpt>
      <trkpt lat="43.11263" lon="-0.75863">
        <ele>323</ele>
        <time>2023-05-17T23:13:31Z</time>
      </trkpt>
      <trkpt lat="43.11251" lon="-0.75846">
        <ele>323</ele>
        <time>2023-05-17T23:13:34Z</time>
      </trkpt>
      <trkpt lat="43.1124" lon="-0.75819">
        <ele>323</ele>
        <time>2023-05-17T23:13:38Z</time>
      </trkpt>
      <trkpt lat="43.11235" lon="-0.75783">
        <ele>322</ele>
        <time>2023-05-17T23:13:42Z</time>
      </trkpt>
      <trkpt lat="43.11236" lon="-0.75755">
        <ele>321</ele>
        <time>2023-05-17T23:13:46Z</time>
      </trkpt>
      <trkpt lat="43.11265" lon="-0.7561">
        <ele>316</ele>
        <time>2023-05-17T23:14:06Z</time>
      </trkpt>
      <trkpt lat="43.11271" lon="-0.75559">
        <ele>314</ele>
        <time>2023-05-17T23:14:12Z</time>
      </trkpt>
      <trkpt lat="43.11276" lon="-0.7501">
        <ele>288</ele>
        <time>2023-05-17T23:15:24Z</time>
      </trkpt>
      <trkpt lat="43.1127" lon="-0.7495">
        <ele>288</ele>
        <time>2023-05-17T23:15:31Z</time>
      </trkpt>
      <trkpt lat="43.11233" lon="-0.74768">
        <ele>299</ele>
        <time>2023-05-17T23:15:56Z</time>
      </trkpt>
      <trkpt lat="43.11232" lon="-0.74691">
        <ele>306</ele>
        <time>2023-05-17T23:16:06Z</time>
      </trkpt>
      <trkpt lat="43.11238" lon="-0.74651">
        <ele>307</ele>
        <time>2023-05-17T23:16:11Z</time>
      </trkpt>
      <trkpt lat="43.11259" lon="-0.74579">
        <ele>309</ele>
        <time>2023-05-17T23:16:21Z</time>
      </trkpt>
      <trkpt lat="43.11291" lon="-0.74435">
        <ele>315</ele>
        <time>2023-05-17T23:16:41Z</time>
      </trkpt>
      <trkpt lat="43.11341" lon="-0.74279">
        <ele>311</ele>
        <time>2023-05-17T23:17:03Z</time>
      </trkpt>
      <trkpt lat="43.11368" lon="-0.74176">
        <ele>309</ele>
        <time>2023-05-17T23:17:17Z</time>
      </trkpt>
      <trkpt lat="43.1137" lon="-0.74136">
        <ele>310</ele>
        <time>2023-05-17T23:17:22Z</time>
      </trkpt>
      <trkpt lat="43.11365" lon="-0.74103">
        <ele>311</ele>
        <time>2023-05-17T23:17:27Z</time>
      </trkpt>
      <trkpt lat="43.11352" lon="-0.74046">
        <ele>312</ele>
        <time>2023-05-17T23:17:35Z</time>
      </trkpt>
      <trkpt lat="43.11343" lon="-0.73963">
        <ele>312</ele>
        <time>2023-05-17T23:17:46Z</time>
      </trkpt>
      <trkpt lat="43.11336" lon="-0.73841">
        <ele>311</ele>
        <time>2023-05-17T23:18:01Z</time>
      </trkpt>
      <trkpt lat="43.11337" lon="-0.7381">
        <ele>311</ele>
        <time>2023-05-17T23:18:05Z</time>
      </trkpt>
      <trkpt lat="43.11344" lon="-0.73788">
        <ele>311</ele>
        <time>2023-05-17T23:18:09Z</time>
      </trkpt>
      <trkpt lat="43.11355" lon="-0.73768">
        <ele>311</ele>
        <time>2023-05-17T23:18:12Z</time>
      </trkpt>
      <trkpt lat="43.11244" lon="-0.73616">
        <ele>313</ele>
        <time>2023-05-17T23:18:40Z</time>
      </trkpt>
      <trkpt lat="43.11222" lon="-0.73595">
        <ele>311</ele>
        <time>2023-05-17T23:18:45Z</time>
      </trkpt>
      <trkpt lat="43.11203" lon="-0.73583">
        <ele>310</ele>
        <time>2023-05-17T23:18:48Z</time>
      </trkpt>
      <trkpt lat="43.11155" lon="-0.73574">
        <ele>309</ele>
        <time>2023-05-17T23:18:57Z</time>
      </trkpt>
      <trkpt lat="43.10881" lon="-0.73556">
        <ele>299</ele>
        <time>2023-05-17T23:19:46Z</time>
      </trkpt>
      <trkpt lat="43.10845" lon="-0.73548">
        <ele>298</ele>
        <time>2023-05-17T23:19:52Z</time>
      </trkpt>
      <trkpt lat="43.10757" lon="-0.73515">
        <ele>298</ele>
        <time>2023-05-17T23:20:08Z</time>
      </trkpt>
      <trkpt lat="43.10736" lon="-0.73505">
        <ele>298</ele>
        <time>2023-05-17T23:20:12Z</time>
      </trkpt>
      <trkpt lat="43.10674" lon="-0.73469">
        <ele>300</ele>
        <time>2023-05-17T23:20:24Z</time>
      </trkpt>
      <trkpt lat="43.10632" lon="-0.73438">
        <ele>301</ele>
        <time>2023-05-17T23:20:33Z</time>
      </trkpt>
      <trkpt lat="43.1059" lon="-0.73396">
        <ele>302</ele>
        <time>2023-05-17T23:20:42Z</time>
      </trkpt>
      <trkpt lat="43.1049" lon="-0.73269">
        <ele>303</ele>
        <time>2023-05-17T23:21:06Z</time>
      </trkpt>
      <trkpt lat="43.10447" lon="-0.73226">
        <ele>303</ele>
        <time>2023-05-17T23:21:16Z</time>
      </trkpt>
      <trkpt lat="43.10408" lon="-0.73173">
        <ele>302</ele>
        <time>2023-05-17T23:21:26Z</time>
      </trkpt>
      <trkpt lat="43.10351" lon="-0.73114">
        <ele>303</ele>
        <time>2023-05-17T23:21:38Z</time>
      </trkpt>
      <trkpt lat="43.10325" lon="-0.73075">
        <ele>303</ele>
        <time>2023-05-17T23:21:45Z</time>
      </trkpt>
      <trkpt lat="43.1026" lon="-0.72957">
        <ele>303</ele>
        <time>2023-05-17T23:22:04Z</time>
      </trkpt>
      <trkpt lat="43.10246" lon="-0.72919">
        <ele>303</ele>
        <time>2023-05-17T23:22:10Z</time>
      </trkpt>
      <trkpt lat="43.10227" lon="-0.72849">
        <ele>305</ele>
        <time>2023-05-17T23:22:20Z</time>
      </trkpt>
      <trkpt lat="43.10214" lon="-0.72815">
        <ele>306</ele>
        <time>2023-05-17T23:22:25Z</time>
      </trkpt>
      <trkpt lat="43.10176" lon="-0.72752">
        <ele>307</ele>
        <time>2023-05-17T23:22:35Z</time>
      </trkpt>
      <trkpt lat="43.10146" lon="-0.72694">
        <ele>307</ele>
        <time>2023-05-17T23:22:44Z</time>
      </trkpt>
      <trkpt lat="43.1007" lon="-0.72514">
        <ele>310</ele>
        <time>2023-05-17T23:23:11Z</time>
      </trkpt>
      <trkpt lat="43.10058" lon="-0.72477">
        <ele>310</ele>
        <time>2023-05-17T23:23:17Z</time>
      </trkpt>
      <trkpt lat="43.10045" lon="-0.7245">
        <ele>310</ele>
        <time>2023-05-17T23:23:21Z</time>
      </trkpt>
      <trkpt lat="43.1001" lon="-0.72411">
        <ele>310</ele>
        <time>2023-05-17T23:23:29Z</time>
      </trkpt>
      <trkpt lat="43.09964" lon="-0.7234">
        <ele>310</ele>
        <time>2023-05-17T23:23:41Z</time>
      </trkpt>
      <trkpt lat="43.09934" lon="-0.72309">
        <ele>312</ele>
        <time>2023-05-17T23:23:48Z</time>
      </trkpt>
      <trkpt lat="43.09892" lon="-0.72271">
        <ele>314</ele>
        <time>2023-05-17T23:23:57Z</time>
      </trkpt>
      <trkpt lat="43.09832" lon="-0.72222">
        <ele>316</ele>
        <time>2023-05-17T23:24:09Z</time>
      </trkpt>
      <trkpt lat="43.09786" lon="-0.72201">
        <ele>316</ele>
        <time>2023-05-17T23:24:18Z</time>
      </trkpt>
      <trkpt lat="43.09762" lon="-0.72195">
        <ele>316</ele>
        <time>2023-05-17T23:24:22Z</time>
      </trkpt>
      <trkpt lat="43.09745" lon="-0.72183">
        <ele>316</ele>
        <time>2023-05-17T23:24:26Z</time>
      </trkpt>
      <trkpt lat="43.09738" lon="-0.72168">
        <ele>316</ele>
        <time>2023-05-17T23:24:28Z</time>
      </trkpt>
      <trkpt lat="43.09735" lon="-0.72143">
        <ele>316</ele>
        <time>2023-05-17T23:24:31Z</time>
      </trkpt>
      <trkpt lat="43.09736" lon="-0.7208">
        <ele>316</ele>
        <time>2023-05-17T23:24:39Z</time>
      </trkpt>
      <trkpt lat="43.09734" lon="-0.72069">
        <ele>317</ele>
        <time>2023-05-17T23:24:41Z</time>
      </trkpt>
      <trkpt lat="43.09726" lon="-0.7205">
        <ele>317</ele>
        <time>2023-05-17T23:24:44Z</time>
      </trkpt>
      <trkpt lat="43.09698" lon="-0.72007">
        <ele>318</ele>
        <time>2023-05-17T23:24:51Z</time>
      </trkpt>
      <trkpt lat="43.09681" lon="-0.71988">
        <ele>318</ele>
        <time>2023-05-17T23:24:55Z</time>
      </trkpt>
      <trkpt lat="43.09642" lon="-0.71962">
        <ele>318</ele>
        <time>2023-05-17T23:25:03Z</time>
      </trkpt>
      <trkpt lat="43.09592" lon="-0.71918">
        <ele>320</ele>
        <time>2023-05-17T23:25:13Z</time>
      </trkpt>
      <trkpt lat="43.09556" lon="-0.71847">
        <ele>322</ele>
        <time>2023-05-17T23:25:25Z</time>
      </trkpt>
      <trkpt lat="43.09539" lon="-0.71797">
        <ele>323</ele>
        <time>2023-05-17T23:25:32Z</time>
      </trkpt>
      <trkpt lat="43.09539" lon="-0.71779">
        <ele>323</ele>
        <time>2023-05-17T23:25:34Z</time>
      </trkpt>
      <trkpt lat="43.0954" lon="-0.7177">
        <ele>323</ele>
        <time>2023-05-17T23:25:35Z</time>
      </trkpt>
      <trkpt lat="43.09555" lon="-0.71724">
        <ele>323</ele>
        <time>2023-05-17T23:25:42Z</time>
      </trkpt>
      <trkpt lat="43.09557" lon="-0.71702">
        <ele>324</ele>
        <time>2023-05-17T23:25:45Z</time>
      </trkpt>
      <trkpt lat="43.09543" lon="-0.71661">
        <ele>325</ele>
        <time>2023-05-17T23:25:51Z</time>
      </trkpt>
      <trkpt lat="43.09535" lon="-0.71652">
        <ele>325</ele>
        <time>2023-05-17T23:25:53Z</time>
      </trkpt>
      <trkpt lat="43.09515" lon="-0.71645">
        <ele>325</ele>
        <time>2023-05-17T23:25:56Z</time>
      </trkpt>
      <trkpt lat="43.09508" lon="-0.7164">
        <ele>326</ele>
        <time>2023-05-17T23:25:58Z</time>
      </trkpt>
      <trkpt lat="43.09506" lon="-0.7163">
        <ele>325</ele>
        <time>2023-05-17T23:25:59Z</time>
      </trkpt>
      <trkpt lat="43.09506" lon="-0.71597">
        <ele>325</ele>
        <time>2023-05-17T23:26:03Z</time>
      </trkpt>
      <trkpt lat="43.09521" lon="-0.71489">
        <ele>327</ele>
        <time>2023-05-17T23:26:18Z</time>
      </trkpt>
      <trkpt lat="43.09524" lon="-0.71446">
        <ele>332</ele>
        <time>2023-05-17T23:26:23Z</time>
      </trkpt>
      <trkpt lat="43.09517" lon="-0.71412">
        <ele>333</ele>
        <time>2023-05-17T23:26:28Z</time>
      </trkpt>
      <trkpt lat="43.09496" lon="-0.71369">
        <ele>332</ele>
        <time>2023-05-17T23:26:34Z</time>
      </trkpt>
      <trkpt lat="43.09496" lon="-0.71335">
        <ele>335</ele>
        <time>2023-05-17T23:26:39Z</time>
      </trkpt>
      <trkpt lat="43.09513" lon="-0.71295">
        <ele>341</ele>
        <time>2023-05-17T23:26:45Z</time>
      </trkpt>
      <trkpt lat="43.09551" lon="-0.71232">
        <ele>351</ele>
        <time>2023-05-17T23:26:56Z</time>
      </trkpt>
      <trkpt lat="43.09561" lon="-0.71205">
        <ele>354</ele>
        <time>2023-05-17T23:26:59Z</time>
      </trkpt>
      <trkpt lat="43.09568" lon="-0.71175">
        <ele>354</ele>
        <time>2023-05-17T23:27:04Z</time>
      </trkpt>
      <trkpt lat="43.09575" lon="-0.71062">
        <ele>359</ele>
        <time>2023-05-17T23:27:18Z</time>
      </trkpt>
      <trkpt lat="43.09574" lon="-0.71037">
        <ele>360</ele>
        <time>2023-05-17T23:27:22Z</time>
      </trkpt>
      <trkpt lat="43.09566" lon="-0.71005">
        <ele>362</ele>
        <time>2023-05-17T23:27:26Z</time>
      </trkpt>
      <trkpt lat="43.09549" lon="-0.70962">
        <ele>366</ele>
        <time>2023-05-17T23:27:32Z</time>
      </trkpt>
      <trkpt lat="43.09539" lon="-0.70946">
        <ele>367</ele>
        <time>2023-05-17T23:27:35Z</time>
      </trkpt>
      <trkpt lat="43.09532" lon="-0.70941">
        <ele>366</ele>
        <time>2023-05-17T23:27:36Z</time>
      </trkpt>
      <trkpt lat="43.09524" lon="-0.70941">
        <ele>366</ele>
        <time>2023-05-17T23:27:38Z</time>
      </trkpt>
      <trkpt lat="43.09519" lon="-0.70946">
        <ele>365</ele>
        <time>2023-05-17T23:27:39Z</time>
      </trkpt>
      <trkpt lat="43.09516" lon="-0.70957">
        <ele>365</ele>
        <time>2023-05-17T23:27:40Z</time>
      </trkpt>
      <trkpt lat="43.09519" lon="-0.70996">
        <ele>364</ele>
        <time>2023-05-17T23:27:46Z</time>
      </trkpt>
      <trkpt lat="43.09532" lon="-0.71045">
        <ele>363</ele>
        <time>2023-05-17T23:27:52Z</time>
      </trkpt>
      <trkpt lat="43.09533" lon="-0.71061">
        <ele>363</ele>
        <time>2023-05-17T23:27:54Z</time>
      </trkpt>
      <trkpt lat="43.09531" lon="-0.71079">
        <ele>363</ele>
        <time>2023-05-17T23:27:57Z</time>
      </trkpt>
      <trkpt lat="43.09527" lon="-0.71091">
        <ele>362</ele>
        <time>2023-05-17T23:27:59Z</time>
      </trkpt>
      <trkpt lat="43.09521" lon="-0.71103">
        <ele>362</ele>
        <time>2023-05-17T23:28:00Z</time>
      </trkpt>
      <trkpt lat="43.09498" lon="-0.71129">
        <ele>361</ele>
        <time>2023-05-17T23:28:06Z</time>
      </trkpt>
      <trkpt lat="43.09473" lon="-0.71177">
        <ele>360</ele>
        <time>2023-05-17T23:28:13Z</time>
      </trkpt>
      <trkpt lat="43.09465" lon="-0.71187">
        <ele>360</ele>
        <time>2023-05-17T23:28:15Z</time>
      </trkpt>
      <trkpt lat="43.09453" lon="-0.71196">
        <ele>360</ele>
        <time>2023-05-17T23:28:18Z</time>
      </trkpt>
      <trkpt lat="43.09401" lon="-0.71217">
        <ele>363</ele>
        <time>2023-05-17T23:28:27Z</time>
      </trkpt>
      <trkpt lat="43.09372" lon="-0.71221">
        <ele>362</ele>
        <time>2023-05-17T23:28:33Z</time>
      </trkpt>
      <trkpt lat="43.09351" lon="-0.71219">
        <ele>362</ele>
        <time>2023-05-17T23:28:36Z</time>
      </trkpt>
      <trkpt lat="43.09323" lon="-0.71209">
        <ele>364</ele>
        <time>2023-05-17T23:28:41Z</time>
      </trkpt>
      <trkpt lat="43.09268" lon="-0.71168">
        <ele>369</ele>
        <time>2023-05-17T23:28:53Z</time>
      </trkpt>
      <trkpt lat="43.09215" lon="-0.71148">
        <ele>365</ele>
        <time>2023-05-17T23:29:02Z</time>
      </trkpt>
      <trkpt lat="43.09204" lon="-0.71137">
        <ele>365</ele>
        <time>2023-05-17T23:29:05Z</time>
      </trkpt>
      <trkpt lat="43.09203" lon="-0.71131">
        <ele>365</ele>
        <time>2023-05-17T23:29:06Z</time>
      </trkpt>
      <trkpt lat="43.09206" lon="-0.7112">
        <ele>367</ele>
        <time>2023-05-17T23:29:07Z</time>
      </trkpt>
      <trkpt lat="43.09242" lon="-0.71064">
        <ele>382</ele>
        <time>2023-05-17T23:29:17Z</time>
      </trkpt>
      <trkpt lat="43.09251" lon="-0.71035">
        <ele>387</ele>
        <time>2023-05-17T23:29:21Z</time>
      </trkpt>
      <trkpt lat="43.09251" lon="-0.71014">
        <ele>390</ele>
        <time>2023-05-17T23:29:24Z</time>
      </trkpt>
      <trkpt lat="43.09249" lon="-0.71008">
        <ele>390</ele>
        <time>2023-05-17T23:29:25Z</time>
      </trkpt>
      <trkpt lat="43.09237" lon="-0.70996">
        <ele>389</ele>
        <time>2023-05-17T23:29:27Z</time>
      </trkpt>
      <trkpt lat="43.09197" lon="-0.70988">
        <ele>383</ele>
        <time>2023-05-17T23:29:34Z</time>
      </trkpt>
      <trkpt lat="43.09189" lon="-0.70984">
        <ele>382</ele>
        <time>2023-05-17T23:29:36Z</time>
      </trkpt>
      <trkpt lat="43.09177" lon="-0.70971">
        <ele>382</ele>
        <time>2023-05-17T23:29:39Z</time>
      </trkpt>
      <trkpt lat="43.09173" lon="-0.70963">
        <ele>382</ele>
        <time>2023-05-17T23:29:40Z</time>
      </trkpt>
      <trkpt lat="43.09169" lon="-0.70938">
        <ele>384</ele>
        <time>2023-05-17T23:29:43Z</time>
      </trkpt>
      <trkpt lat="43.09172" lon="-0.70894">
        <ele>387</ele>
        <time>2023-05-17T23:29:49Z</time>
      </trkpt>
      <trkpt lat="43.09177" lon="-0.70878">
        <ele>388</ele>
        <time>2023-05-17T23:29:51Z</time>
      </trkpt>
      <trkpt lat="43.09181" lon="-0.70873">
        <ele>389</ele>
        <time>2023-05-17T23:29:52Z</time>
      </trkpt>
      <trkpt lat="43.09192" lon="-0.70866">
        <ele>391</ele>
        <time>2023-05-17T23:29:54Z</time>
      </trkpt>
      <trkpt lat="43.09227" lon="-0.70852">
        <ele>398</ele>
        <time>2023-05-17T23:30:01Z</time>
      </trkpt>
      <trkpt lat="43.09247" lon="-0.70835">
        <ele>401</ele>
        <time>2023-05-17T23:30:05Z</time>
      </trkpt>
      <trkpt lat="43.09259" lon="-0.70814">
        <ele>403</ele>
        <time>2023-05-17T23:30:08Z</time>
      </trkpt>
      <trkpt lat="43.09259" lon="-0.7078">
        <ele>404</ele>
        <time>2023-05-17T23:30:13Z</time>
      </trkpt>
      <trkpt lat="43.09246" lon="-0.70761">
        <ele>404</ele>
        <time>2023-05-17T23:30:16Z</time>
      </trkpt>
      <trkpt lat="43.09169" lon="-0.70721">
        <ele>396</ele>
        <time>2023-05-17T23:30:31Z</time>
      </trkpt>
      <trkpt lat="43.0916" lon="-0.70712">
        <ele>396</ele>
        <time>2023-05-17T23:30:33Z</time>
      </trkpt>
      <trkpt lat="43.09156" lon="-0.70699">
        <ele>396</ele>
        <time>2023-05-17T23:30:35Z</time>
      </trkpt>
      <trkpt lat="43.09159" lon="-0.70682">
        <ele>399</ele>
        <time>2023-05-17T23:30:37Z</time>
      </trkpt>
      <trkpt lat="43.09175" lon="-0.70645">
        <ele>404</ele>
        <time>2023-05-17T23:30:43Z</time>
      </trkpt>
      <trkpt lat="43.09183" lon="-0.70631">
        <ele>406</ele>
        <time>2023-05-17T23:30:45Z</time>
      </trkpt>
      <trkpt lat="43.09208" lon="-0.706">
        <ele>412</ele>
        <time>2023-05-17T23:30:51Z</time>
      </trkpt>
      <trkpt lat="43.09215" lon="-0.70585">
        <ele>414</ele>
        <time>2023-05-17T23:30:53Z</time>
      </trkpt>
      <trkpt lat="43.09216" lon="-0.70576">
        <ele>415</ele>
        <time>2023-05-17T23:30:54Z</time>
      </trkpt>
      <trkpt lat="43.09213" lon="-0.70556">
        <ele>415</ele>
        <time>2023-05-17T23:30:57Z</time>
      </trkpt>
      <trkpt lat="43.09203" lon="-0.70525">
        <ele>416</ele>
        <time>2023-05-17T23:31:01Z</time>
      </trkpt>
      <trkpt lat="43.09202" lon="-0.70493">
        <ele>418</ele>
        <time>2023-05-17T23:31:06Z</time>
      </trkpt>
      <trkpt lat="43.09207" lon="-0.70464">
        <ele>420</ele>
        <time>2023-05-17T23:31:09Z</time>
      </trkpt>
      <trkpt lat="43.09213" lon="-0.70448">
        <ele>421</ele>
        <time>2023-05-17T23:31:12Z</time>
      </trkpt>
      <trkpt lat="43.09235" lon="-0.7042">
        <ele>422</ele>
        <time>2023-05-17T23:31:17Z</time>
      </trkpt>
      <trkpt lat="43.09242" lon="-0.70401">
        <ele>421</ele>
        <time>2023-05-17T23:31:20Z</time>
      </trkpt>
      <trkpt lat="43.09245" lon="-0.7032">
        <ele>419</ele>
        <time>2023-05-17T23:31:30Z</time>
      </trkpt>
      <trkpt lat="43.09254" lon="-0.7027">
        <ele>415</ele>
        <time>2023-05-17T23:31:37Z</time>
      </trkpt>
      <trkpt lat="43.09256" lon="-0.70245">
        <ele>413</ele>
        <time>2023-05-17T23:31:40Z</time>
      </trkpt>
      <trkpt lat="43.09251" lon="-0.70229">
        <ele>412</ele>
        <time>2023-05-17T23:31:43Z</time>
      </trkpt>
      <trkpt lat="43.09238" lon="-0.70217">
        <ele>411</ele>
        <time>2023-05-17T23:31:45Z</time>
      </trkpt>
      <trkpt lat="43.09219" lon="-0.70219">
        <ele>412</ele>
        <time>2023-05-17T23:31:49Z</time>
      </trkpt>
      <trkpt lat="43.09166" lon="-0.7024">
        <ele>416</ele>
        <time>2023-05-17T23:31:59Z</time>
      </trkpt>
      <trkpt lat="43.09149" lon="-0.70243">
        <ele>419</ele>
        <time>2023-05-17T23:32:02Z</time>
      </trkpt>
      <trkpt lat="43.09135" lon="-0.7024">
        <ele>420</ele>
        <time>2023-05-17T23:32:04Z</time>
      </trkpt>
      <trkpt lat="43.09128" lon="-0.70222">
        <ele>420</ele>
        <time>2023-05-17T23:32:07Z</time>
      </trkpt>
      <trkpt lat="43.09129" lon="-0.70212">
        <ele>420</ele>
        <time>2023-05-17T23:32:08Z</time>
      </trkpt>
      <trkpt lat="43.09135" lon="-0.70201">
        <ele>418</ele>
        <time>2023-05-17T23:32:10Z</time>
      </trkpt>
      <trkpt lat="43.09201" lon="-0.70137">
        <ele>406</ele>
        <time>2023-05-17T23:32:24Z</time>
      </trkpt>
      <trkpt lat="43.09217" lon="-0.70114">
        <ele>403</ele>
        <time>2023-05-17T23:32:28Z</time>
      </trkpt>
      <trkpt lat="43.0923" lon="-0.7009">
        <ele>400</ele>
        <time>2023-05-17T23:32:32Z</time>
      </trkpt>
      <trkpt lat="43.09235" lon="-0.70066">
        <ele>397</ele>
        <time>2023-05-17T23:32:36Z</time>
      </trkpt>
      <trkpt lat="43.09233" lon="-0.70054">
        <ele>397</ele>
        <time>2023-05-17T23:32:37Z</time>
      </trkpt>
      <trkpt lat="43.09225" lon="-0.70043">
        <ele>398</ele>
        <time>2023-05-17T23:32:39Z</time>
      </trkpt>
      <trkpt lat="43.09218" lon="-0.70041">
        <ele>399</ele>
        <time>2023-05-17T23:32:41Z</time>
      </trkpt>
      <trkpt lat="43.09167" lon="-0.70042">
        <ele>410</ele>
        <time>2023-05-17T23:32:50Z</time>
      </trkpt>
      <trkpt lat="43.09161" lon="-0.70037">
        <ele>411</ele>
        <time>2023-05-17T23:32:51Z</time>
      </trkpt>
      <trkpt lat="43.09158" lon="-0.70029">
        <ele>411</ele>
        <time>2023-05-17T23:32:52Z</time>
      </trkpt>
      <trkpt lat="43.09159" lon="-0.70019">
        <ele>411</ele>
        <time>2023-05-17T23:32:53Z</time>
      </trkpt>
      <trkpt lat="43.09167" lon="-0.70005">
        <ele>408</ele>
        <time>2023-05-17T23:32:56Z</time>
      </trkpt>
      <trkpt lat="43.09206" lon="-0.69975">
        <ele>400</ele>
        <time>2023-05-17T23:33:04Z</time>
      </trkpt>
      <trkpt lat="43.09225" lon="-0.69945">
        <ele>396</ele>
        <time>2023-05-17T23:33:09Z</time>
      </trkpt>
      <trkpt lat="43.09231" lon="-0.69901">
        <ele>394</ele>
        <time>2023-05-17T23:33:15Z</time>
      </trkpt>
      <trkpt lat="43.0923" lon="-0.69851">
        <ele>393</ele>
        <time>2023-05-17T23:33:21Z</time>
      </trkpt>
      <trkpt lat="43.09221" lon="-0.69835">
        <ele>395</ele>
        <time>2023-05-17T23:33:24Z</time>
      </trkpt>
      <trkpt lat="43.09215" lon="-0.69829">
        <ele>397</ele>
        <time>2023-05-17T23:33:25Z</time>
      </trkpt>
      <trkpt lat="43.09202" lon="-0.69822">
        <ele>400</ele>
        <time>2023-05-17T23:33:27Z</time>
      </trkpt>
      <trkpt lat="43.09197" lon="-0.69812">
        <ele>402</ele>
        <time>2023-05-17T23:33:29Z</time>
      </trkpt>
      <trkpt lat="43.09197" lon="-0.69805">
        <ele>401</ele>
        <time>2023-05-17T23:33:30Z</time>
      </trkpt>
      <trkpt lat="43.09198" lon="-0.69798">
        <ele>401</ele>
        <time>2023-05-17T23:33:31Z</time>
      </trkpt>
      <trkpt lat="43.09203" lon="-0.69791">
        <ele>399</ele>
        <time>2023-05-17T23:33:32Z</time>
      </trkpt>
      <trkpt lat="43.09218" lon="-0.69779">
        <ele>395</ele>
        <time>2023-05-17T23:33:35Z</time>
      </trkpt>
      <trkpt lat="43.0923" lon="-0.69763">
        <ele>390</ele>
        <time>2023-05-17T23:33:38Z</time>
      </trkpt>
      <trkpt lat="43.09254" lon="-0.69659">
        <ele>386</ele>
        <time>2023-05-17T23:33:52Z</time>
      </trkpt>
      <trkpt lat="43.09261" lon="-0.69607">
        <ele>382</ele>
        <time>2023-05-17T23:33:59Z</time>
      </trkpt>
      <trkpt lat="43.09257" lon="-0.69584">
        <ele>381</ele>
        <time>2023-05-17T23:34:02Z</time>
      </trkpt>
      <trkpt lat="43.09245" lon="-0.69553">
        <ele>379</ele>
        <time>2023-05-17T23:34:07Z</time>
      </trkpt>
      <trkpt lat="43.09246" lon="-0.69506">
        <ele>373</ele>
        <time>2023-05-17T23:34:13Z</time>
      </trkpt>
      <trkpt lat="43.0924" lon="-0.69426">
        <ele>370</ele>
        <time>2023-05-17T23:34:23Z</time>
      </trkpt>
      <trkpt lat="43.09235" lon="-0.69401">
        <ele>370</ele>
        <time>2023-05-17T23:34:27Z</time>
      </trkpt>
      <trkpt lat="43.09217" lon="-0.69345">
        <ele>375</ele>
        <time>2023-05-17T23:34:35Z</time>
      </trkpt>
      <trkpt lat="43.09203" lon="-0.69279">
        <ele>376</ele>
        <time>2023-05-17T23:34:44Z</time>
      </trkpt>
      <trkpt lat="43.09198" lon="-0.69212">
        <ele>371</ele>
        <time>2023-05-17T23:34:52Z</time>
      </trkpt>
      <trkpt lat="43.09203" lon="-0.69166">
        <ele>366</ele>
        <time>2023-05-17T23:34:59Z</time>
      </trkpt>
      <trkpt lat="43.09247" lon="-0.6901">
        <ele>360</ele>
        <time>2023-05-17T23:35:20Z</time>
      </trkpt>
      <trkpt lat="43.09253" lon="-0.68993">
        <ele>361</ele>
        <time>2023-05-17T23:35:23Z</time>
      </trkpt>
      <trkpt lat="43.09275" lon="-0.68954">
        <ele>365</ele>
        <time>2023-05-17T23:35:29Z</time>
      </trkpt>
      <trkpt lat="43.09287" lon="-0.68917">
        <ele>365</ele>
        <time>2023-05-17T23:35:34Z</time>
      </trkpt>
      <trkpt lat="43.09295" lon="-0.68849">
        <ele>356</ele>
        <time>2023-05-17T23:35:43Z</time>
      </trkpt>
      <trkpt lat="43.09294" lon="-0.68802">
        <ele>353</ele>
        <time>2023-05-17T23:35:49Z</time>
      </trkpt>
      <trkpt lat="43.09297" lon="-0.68757">
        <ele>351</ele>
        <time>2023-05-17T23:35:55Z</time>
      </trkpt>
      <trkpt lat="43.09307" lon="-0.68717">
        <ele>351</ele>
        <time>2023-05-17T23:36:01Z</time>
      </trkpt>
      <trkpt lat="43.0933" lon="-0.68667">
        <ele>350</ele>
        <time>2023-05-17T23:36:08Z</time>
      </trkpt>
      <trkpt lat="43.09377" lon="-0.68584">
        <ele>351</ele>
        <time>2023-05-17T23:36:22Z</time>
      </trkpt>
      <trkpt lat="43.09393" lon="-0.68474">
        <ele>349</ele>
        <time>2023-05-17T23:36:37Z</time>
      </trkpt>
      <trkpt lat="43.094" lon="-0.6846">
        <ele>349</ele>
        <time>2023-05-17T23:36:39Z</time>
      </trkpt>
      <trkpt lat="43.09411" lon="-0.68449">
        <ele>348</ele>
        <time>2023-05-17T23:36:41Z</time>
      </trkpt>
      <trkpt lat="43.09459" lon="-0.68431">
        <ele>349</ele>
        <time>2023-05-17T23:36:50Z</time>
      </trkpt>
      <trkpt lat="43.09478" lon="-0.68416">
        <ele>348</ele>
        <time>2023-05-17T23:36:54Z</time>
      </trkpt>
      <trkpt lat="43.09492" lon="-0.68394">
        <ele>348</ele>
        <time>2023-05-17T23:36:58Z</time>
      </trkpt>
      <trkpt lat="43.09513" lon="-0.68353">
        <ele>349</ele>
        <time>2023-05-17T23:37:04Z</time>
      </trkpt>
      <trkpt lat="43.09532" lon="-0.68302">
        <ele>354</ele>
        <time>2023-05-17T23:37:12Z</time>
      </trkpt>
      <trkpt lat="43.09539" lon="-0.68276">
        <ele>356</ele>
        <time>2023-05-17T23:37:15Z</time>
      </trkpt>
      <trkpt lat="43.0955" lon="-0.68085">
        <ele>354</ele>
        <time>2023-05-17T23:37:40Z</time>
      </trkpt>
      <trkpt lat="43.09579" lon="-0.67305">
        <ele>348</ele>
        <time>2023-05-17T23:39:22Z</time>
      </trkpt>
      <trkpt lat="43.09584" lon="-0.6726">
        <ele>350</ele>
        <time>2023-05-17T23:39:28Z</time>
      </trkpt>
      <trkpt lat="43.09589" lon="-0.67244">
        <ele>350</ele>
        <time>2023-05-17T23:39:30Z</time>
      </trkpt>
      <trkpt lat="43.09602" lon="-0.67222">
        <ele>350</ele>
        <time>2023-05-17T23:39:34Z</time>
      </trkpt>
      <trkpt lat="43.09616" lon="-0.67207">
        <ele>347</ele>
        <time>2023-05-17T23:39:37Z</time>
      </trkpt>
      <trkpt lat="43.09657" lon="-0.67173">
        <ele>338</ele>
        <time>2023-05-17T23:39:45Z</time>
      </trkpt>
      <trkpt lat="43.09669" lon="-0.67152">
        <ele>335</ele>
        <time>2023-05-17T23:39:49Z</time>
      </trkpt>
      <trkpt lat="43.09674" lon="-0.67134">
        <ele>336</ele>
        <time>2023-05-17T23:39:51Z</time>
      </trkpt>
      <trkpt lat="43.09677" lon="-0.67107">
        <ele>336</ele>
        <time>2023-05-17T23:39:55Z</time>
      </trkpt>
      <trkpt lat="43.09672" lon="-0.6706">
        <ele>338</ele>
        <time>2023-05-17T23:40:01Z</time>
      </trkpt>
      <trkpt lat="43.09672" lon="-0.6703">
        <ele>340</ele>
        <time>2023-05-17T23:40:05Z</time>
      </trkpt>
      <trkpt lat="43.09647" lon="-0.67032">
        <ele>341</ele>
        <time>2023-05-17T23:40:09Z</time>
      </trkpt>
      <trkpt lat="43.09574" lon="-0.67016">
        <ele>341</ele>
        <time>2023-05-17T23:40:23Z</time>
      </trkpt>
      <trkpt lat="43.09529" lon="-0.67016">
        <ele>338</ele>
        <time>2023-05-17T23:40:31Z</time>
      </trkpt>
      <trkpt lat="43.09487" lon="-0.67022">
        <ele>337</ele>
        <time>2023-05-17T23:40:38Z</time>
      </trkpt>
      <trkpt lat="43.09457" lon="-0.6703">
        <ele>337</ele>
        <time>2023-05-17T23:40:43Z</time>
      </trkpt>
      <trkpt lat="43.09436" lon="-0.67032">
        <ele>336</ele>
        <time>2023-05-17T23:40:47Z</time>
      </trkpt>
      <trkpt lat="43.09409" lon="-0.67028">
        <ele>332</ele>
        <time>2023-05-17T23:40:52Z</time>
      </trkpt>
      <trkpt lat="43.09321" lon="-0.67007">
        <ele>321</ele>
        <time>2023-05-17T23:41:08Z</time>
      </trkpt>
      <trkpt lat="43.09257" lon="-0.66977">
        <ele>322</ele>
        <time>2023-05-17T23:41:20Z</time>
      </trkpt>
      <trkpt lat="43.09171" lon="-0.66945">
        <ele>324</ele>
        <time>2023-05-17T23:41:36Z</time>
      </trkpt>
      <trkpt lat="43.09077" lon="-0.6693">
        <ele>326</ele>
        <time>2023-05-17T23:41:53Z</time>
      </trkpt>
      <trkpt lat="43.09035" lon="-0.66931">
        <ele>328</ele>
        <time>2023-05-17T23:42:00Z</time>
      </trkpt>
      <trkpt lat="43.08913" lon="-0.66949">
        <ele>335</ele>
        <time>2023-05-17T23:42:22Z</time>
      </trkpt>
      <trkpt lat="43.08845" lon="-0.66956">
        <ele>336</ele>
        <time>2023-05-17T23:42:34Z</time>
      </trkpt>
      <trkpt lat="43.08795" lon="-0.6695">
        <ele>333</ele>
        <time>2023-05-17T23:42:43Z</time>
      </trkpt>
      <trkpt lat="43.08739" lon="-0.66935">
        <ele>329</ele>
        <time>2023-05-17T23:42:53Z</time>
      </trkpt>
      <trkpt lat="43.08727" lon="-0.66935">
        <ele>329</ele>
        <time>2023-05-17T23:42:55Z</time>
      </trkpt>
      <trkpt lat="43.08675" lon="-0.66951">
        <ele>332</ele>
        <time>2023-05-17T23:43:05Z</time>
      </trkpt>
      <trkpt lat="43.0862" lon="-0.6696">
        <ele>331</ele>
        <time>2023-05-17T23:43:15Z</time>
      </trkpt>
      <trkpt lat="43.08613" lon="-0.66959">
        <ele>331</ele>
        <time>2023-05-17T23:43:16Z</time>
      </trkpt>
      <trkpt lat="43.08598" lon="-0.6695">
        <ele>329</ele>
        <time>2023-05-17T23:43:19Z</time>
      </trkpt>
      <trkpt lat="43.08589" lon="-0.66936">
        <ele>328</ele>
        <time>2023-05-17T23:43:21Z</time>
      </trkpt>
      <trkpt lat="43.08555" lon="-0.6685">
        <ele>325</ele>
        <time>2023-05-17T23:43:34Z</time>
      </trkpt>
      <trkpt lat="43.08547" lon="-0.66835">
        <ele>324</ele>
        <time>2023-05-17T23:43:36Z</time>
      </trkpt>
      <trkpt lat="43.0853" lon="-0.66812">
        <ele>326</ele>
        <time>2023-05-17T23:43:41Z</time>
      </trkpt>
      <trkpt lat="43.08513" lon="-0.66797">
        <ele>328</ele>
        <time>2023-05-17T23:43:44Z</time>
      </trkpt>
      <trkpt lat="43.08498" lon="-0.66789">
        <ele>329</ele>
        <time>2023-05-17T23:43:47Z</time>
      </trkpt>
      <trkpt lat="43.08483" lon="-0.66786">
        <ele>330</ele>
        <time>2023-05-17T23:43:50Z</time>
      </trkpt>
      <trkpt lat="43.08465" lon="-0.66787">
        <ele>332</ele>
        <time>2023-05-17T23:43:53Z</time>
      </trkpt>
      <trkpt lat="43.08389" lon="-0.66813">
        <ele>332</ele>
        <time>2023-05-17T23:44:07Z</time>
      </trkpt>
      <trkpt lat="43.08338" lon="-0.66845">
        <ele>330</ele>
        <time>2023-05-17T23:44:17Z</time>
      </trkpt>
      <trkpt lat="43.0831" lon="-0.66869">
        <ele>332</ele>
        <time>2023-05-17T23:44:23Z</time>
      </trkpt>
      <trkpt lat="43.08285" lon="-0.669">
        <ele>331</ele>
        <time>2023-05-17T23:44:29Z</time>
      </trkpt>
      <trkpt lat="43.08225" lon="-0.67009">
        <ele>332</ele>
        <time>2023-05-17T23:44:47Z</time>
      </trkpt>
      <trkpt lat="43.08156" lon="-0.67112">
        <ele>337</ele>
        <time>2023-05-17T23:45:05Z</time>
      </trkpt>
      <trkpt lat="43.08133" lon="-0.67165">
        <ele>340</ele>
        <time>2023-05-17T23:45:13Z</time>
      </trkpt>
      <trkpt lat="43.08112" lon="-0.67201">
        <ele>342</ele>
        <time>2023-05-17T23:45:19Z</time>
      </trkpt>
      <trkpt lat="43.08093" lon="-0.67222">
        <ele>341</ele>
        <time>2023-05-17T23:45:23Z</time>
      </trkpt>
      <trkpt lat="43.08045" lon="-0.67261">
        <ele>347</ele>
        <time>2023-05-17T23:45:33Z</time>
      </trkpt>
      <trkpt lat="43.08019" lon="-0.67278">
        <ele>355</ele>
        <time>2023-05-17T23:45:38Z</time>
      </trkpt>
      <trkpt lat="43.07999" lon="-0.67286">
        <ele>360</ele>
        <time>2023-05-17T23:45:42Z</time>
      </trkpt>
      <trkpt lat="43.07979" lon="-0.67286">
        <ele>364</ele>
        <time>2023-05-17T23:45:45Z</time>
      </trkpt>
      <trkpt lat="43.07956" lon="-0.67278">
        <ele>365</ele>
        <time>2023-05-17T23:45:50Z</time>
      </trkpt>
      <trkpt lat="43.07936" lon="-0.67261">
        <ele>361</ele>
        <time>2023-05-17T23:45:54Z</time>
      </trkpt>
      <trkpt lat="43.07927" lon="-0.67248">
        <ele>358</ele>
        <time>2023-05-17T23:45:56Z</time>
      </trkpt>
      <trkpt lat="43.07853" lon="-0.67108">
        <ele>356</ele>
        <time>2023-05-17T23:46:19Z</time>
      </trkpt>
      <trkpt lat="43.07843" lon="-0.67095">
        <ele>355</ele>
        <time>2023-05-17T23:46:21Z</time>
      </trkpt>
      <trkpt lat="43.07824" lon="-0.67079">
        <ele>355</ele>
        <time>2023-05-17T23:46:25Z</time>
      </trkpt>
      <trkpt lat="43.078" lon="-0.6707">
        <ele>360</ele>
        <time>2023-05-17T23:46:29Z</time>
      </trkpt>
      <trkpt lat="43.07784" lon="-0.67069">
        <ele>361</ele>
        <time>2023-05-17T23:46:32Z</time>
      </trkpt>
      <trkpt lat="43.07736" lon="-0.67075">
        <ele>366</ele>
        <time>2023-05-17T23:46:41Z</time>
      </trkpt>
      <trkpt lat="43.07696" lon="-0.67074">
        <ele>373</ele>
        <time>2023-05-17T23:46:48Z</time>
      </trkpt>
      <trkpt lat="43.07663" lon="-0.67065">
        <ele>380</ele>
        <time>2023-05-17T23:46:54Z</time>
      </trkpt>
      <trkpt lat="43.07635" lon="-0.67049">
        <ele>382</ele>
        <time>2023-05-17T23:46:59Z</time>
      </trkpt>
      <trkpt lat="43.07615" lon="-0.67043">
        <ele>383</ele>
        <time>2023-05-17T23:47:03Z</time>
      </trkpt>
      <trkpt lat="43.07598" lon="-0.67047">
        <ele>383</ele>
        <time>2023-05-17T23:47:06Z</time>
      </trkpt>
      <trkpt lat="43.07584" lon="-0.67054">
        <ele>381</ele>
        <time>2023-05-17T23:47:09Z</time>
      </trkpt>
      <trkpt lat="43.0757" lon="-0.67063">
        <ele>379</ele>
        <time>2023-05-17T23:47:11Z</time>
      </trkpt>
      <trkpt lat="43.07525" lon="-0.67101">
        <ele>381</ele>
        <time>2023-05-17T23:47:21Z</time>
      </trkpt>
      <trkpt lat="43.07519" lon="-0.67104">
        <ele>382</ele>
        <time>2023-05-17T23:47:22Z</time>
      </trkpt>
      <trkpt lat="43.07508" lon="-0.67105">
        <ele>382</ele>
        <time>2023-05-17T23:47:24Z</time>
      </trkpt>
      <trkpt lat="43.075" lon="-0.67104">
        <ele>382</ele>
        <time>2023-05-17T23:47:25Z</time>
      </trkpt>
      <trkpt lat="43.07481" lon="-0.67091">
        <ele>377</ele>
        <time>2023-05-17T23:47:29Z</time>
      </trkpt>
      <trkpt lat="43.0745" lon="-0.67063">
        <ele>379</ele>
        <time>2023-05-17T23:47:36Z</time>
      </trkpt>
      <trkpt lat="43.07434" lon="-0.67056">
        <ele>380</ele>
        <time>2023-05-17T23:47:39Z</time>
      </trkpt>
      <trkpt lat="43.07416" lon="-0.6706">
        <ele>380</ele>
        <time>2023-05-17T23:47:42Z</time>
      </trkpt>
      <trkpt lat="43.0739" lon="-0.6707">
        <ele>378</ele>
        <time>2023-05-17T23:47:47Z</time>
      </trkpt>
      <trkpt lat="43.07352" lon="-0.67076">
        <ele>376</ele>
        <time>2023-05-17T23:47:54Z</time>
      </trkpt>
      <trkpt lat="43.07305" lon="-0.67074">
        <ele>376</ele>
        <time>2023-05-17T23:48:02Z</time>
      </trkpt>
      <trkpt lat="43.07293" lon="-0.6707">
        <ele>376</ele>
        <time>2023-05-17T23:48:04Z</time>
      </trkpt>
      <trkpt lat="43.07273" lon="-0.67057">
        <ele>375</ele>
        <time>2023-05-17T23:48:08Z</time>
      </trkpt>
      <trkpt lat="43.07241" lon="-0.67018">
        <ele>367</ele>
        <time>2023-05-17T23:48:16Z</time>
      </trkpt>
      <trkpt lat="43.07226" lon="-0.67007">
        <ele>366</ele>
        <time>2023-05-17T23:48:19Z</time>
      </trkpt>
      <trkpt lat="43.07219" lon="-0.67005">
        <ele>366</ele>
        <time>2023-05-17T23:48:20Z</time>
      </trkpt>
      <trkpt lat="43.07205" lon="-0.67006">
        <ele>367</ele>
        <time>2023-05-17T23:48:23Z</time>
      </trkpt>
      <trkpt lat="43.07196" lon="-0.6701">
        <ele>368</ele>
        <time>2023-05-17T23:48:24Z</time>
      </trkpt>
      <trkpt lat="43.07155" lon="-0.67043">
        <ele>378</ele>
        <time>2023-05-17T23:48:33Z</time>
      </trkpt>
      <trkpt lat="43.07137" lon="-0.67054">
        <ele>382</ele>
        <time>2023-05-17T23:48:36Z</time>
      </trkpt>
      <trkpt lat="43.07117" lon="-0.6706">
        <ele>384</ele>
        <time>2023-05-17T23:48:40Z</time>
      </trkpt>
      <trkpt lat="43.07093" lon="-0.67055">
        <ele>385</ele>
        <time>2023-05-17T23:48:44Z</time>
      </trkpt>
      <trkpt lat="43.07066" lon="-0.67043">
        <ele>384</ele>
        <time>2023-05-17T23:48:49Z</time>
      </trkpt>
      <trkpt lat="43.07041" lon="-0.67026">
        <ele>380</ele>
        <time>2023-05-17T23:48:54Z</time>
      </trkpt>
      <trkpt lat="43.07007" lon="-0.66997">
        <ele>373</ele>
        <time>2023-05-17T23:49:01Z</time>
      </trkpt>
      <trkpt lat="43.06992" lon="-0.66993">
        <ele>375</ele>
        <time>2023-05-17T23:49:04Z</time>
      </trkpt>
      <trkpt lat="43.06984" lon="-0.66994">
        <ele>376</ele>
        <time>2023-05-17T23:49:05Z</time>
      </trkpt>
      <trkpt lat="43.06969" lon="-0.67005">
        <ele>376</ele>
        <time>2023-05-17T23:49:08Z</time>
      </trkpt>
      <trkpt lat="43.06937" lon="-0.67075">
        <ele>378</ele>
        <time>2023-05-17T23:49:19Z</time>
      </trkpt>
      <trkpt lat="43.0693" lon="-0.67085">
        <ele>377</ele>
        <time>2023-05-17T23:49:21Z</time>
      </trkpt>
      <trkpt lat="43.06916" lon="-0.67098">
        <ele>381</ele>
        <time>2023-05-17T23:49:24Z</time>
      </trkpt>
      <trkpt lat="43.06898" lon="-0.67104">
        <ele>382</ele>
        <time>2023-05-17T23:49:27Z</time>
      </trkpt>
      <trkpt lat="43.06858" lon="-0.67099">
        <ele>377</ele>
        <time>2023-05-17T23:49:34Z</time>
      </trkpt>
      <trkpt lat="43.06845" lon="-0.67105">
        <ele>378</ele>
        <time>2023-05-17T23:49:37Z</time>
      </trkpt>
      <trkpt lat="43.06827" lon="-0.67119">
        <ele>379</ele>
        <time>2023-05-17T23:49:41Z</time>
      </trkpt>
      <trkpt lat="43.06777" lon="-0.67171">
        <ele>380</ele>
        <time>2023-05-17T23:49:52Z</time>
      </trkpt>
      <trkpt lat="43.06751" lon="-0.6719">
        <ele>385</ele>
        <time>2023-05-17T23:49:57Z</time>
      </trkpt>
      <trkpt lat="43.06734" lon="-0.67194">
        <ele>385</ele>
        <time>2023-05-17T23:50:00Z</time>
      </trkpt>
      <trkpt lat="43.06719" lon="-0.6719">
        <ele>382</ele>
        <time>2023-05-17T23:50:03Z</time>
      </trkpt>
      <trkpt lat="43.06703" lon="-0.67178">
        <ele>376</ele>
        <time>2023-05-17T23:50:06Z</time>
      </trkpt>
      <trkpt lat="43.06663" lon="-0.6713">
        <ele>371</ele>
        <time>2023-05-17T23:50:16Z</time>
      </trkpt>
      <trkpt lat="43.06654" lon="-0.67124">
        <ele>371</ele>
        <time>2023-05-17T23:50:17Z</time>
      </trkpt>
      <trkpt lat="43.06641" lon="-0.67123">
        <ele>372</ele>
        <time>2023-05-17T23:50:20Z</time>
      </trkpt>
      <trkpt lat="43.06625" lon="-0.67134">
        <ele>372</ele>
        <time>2023-05-17T23:50:23Z</time>
      </trkpt>
      <trkpt lat="43.06562" lon="-0.67222">
        <ele>379</ele>
        <time>2023-05-17T23:50:39Z</time>
      </trkpt>
      <trkpt lat="43.0653" lon="-0.67248">
        <ele>379</ele>
        <time>2023-05-17T23:50:45Z</time>
      </trkpt>
      <trkpt lat="43.06499" lon="-0.67266">
        <ele>382</ele>
        <time>2023-05-17T23:50:51Z</time>
      </trkpt>
      <trkpt lat="43.06465" lon="-0.67277">
        <ele>388</ele>
        <time>2023-05-17T23:50:58Z</time>
      </trkpt>
      <trkpt lat="43.06423" lon="-0.67286">
        <ele>392</ele>
        <time>2023-05-17T23:51:05Z</time>
      </trkpt>
      <trkpt lat="43.06405" lon="-0.67287">
        <ele>392</ele>
        <time>2023-05-17T23:51:08Z</time>
      </trkpt>
      <trkpt lat="43.06351" lon="-0.67282">
        <ele>389</ele>
        <time>2023-05-17T23:51:18Z</time>
      </trkpt>
      <trkpt lat="43.06328" lon="-0.67283">
        <ele>389</ele>
        <time>2023-05-17T23:51:22Z</time>
      </trkpt>
      <trkpt lat="43.06319" lon="-0.67285">
        <ele>390</ele>
        <time>2023-05-17T23:51:24Z</time>
      </trkpt>
      <trkpt lat="43.06293" lon="-0.67298">
        <ele>392</ele>
        <time>2023-05-17T23:51:29Z</time>
      </trkpt>
      <trkpt lat="43.06274" lon="-0.67314">
        <ele>391</ele>
        <time>2023-05-17T23:51:33Z</time>
      </trkpt>
      <trkpt lat="43.06252" lon="-0.6734">
        <ele>387</ele>
        <time>2023-05-17T23:51:38Z</time>
      </trkpt>
      <trkpt lat="43.06203" lon="-0.67418">
        <ele>395</ele>
        <time>2023-05-17T23:51:51Z</time>
      </trkpt>
      <trkpt lat="43.0615" lon="-0.67484">
        <ele>390</ele>
        <time>2023-05-17T23:52:04Z</time>
      </trkpt>
      <trkpt lat="43.06113" lon="-0.67519">
        <ele>387</ele>
        <time>2023-05-17T23:52:12Z</time>
      </trkpt>
      <trkpt lat="43.06052" lon="-0.67563">
        <ele>381</ele>
        <time>2023-05-17T23:52:24Z</time>
      </trkpt>
      <trkpt lat="43.06021" lon="-0.67591">
        <ele>377</ele>
        <time>2023-05-17T23:52:31Z</time>
      </trkpt>
      <trkpt lat="43.06006" lon="-0.6761">
        <ele>377</ele>
        <time>2023-05-17T23:52:34Z</time>
      </trkpt>
      <trkpt lat="43.05994" lon="-0.67634">
        <ele>378</ele>
        <time>2023-05-17T23:52:38Z</time>
      </trkpt>
      <trkpt lat="43.05957" lon="-0.6772">
        <ele>390</ele>
        <time>2023-05-17T23:52:51Z</time>
      </trkpt>
      <trkpt lat="43.05947" lon="-0.67734">
        <ele>392</ele>
        <time>2023-05-17T23:52:54Z</time>
      </trkpt>
      <trkpt lat="43.0594" lon="-0.67737">
        <ele>392</ele>
        <time>2023-05-17T23:52:55Z</time>
      </trkpt>
      <trkpt lat="43.05925" lon="-0.67734">
        <ele>389</ele>
        <time>2023-05-17T23:52:58Z</time>
      </trkpt>
      <trkpt lat="43.05877" lon="-0.67698">
        <ele>388</ele>
        <time>2023-05-17T23:53:08Z</time>
      </trkpt>
      <trkpt lat="43.05819" lon="-0.67667">
        <ele>389</ele>
        <time>2023-05-17T23:53:19Z</time>
      </trkpt>
      <trkpt lat="43.05809" lon="-0.67663">
        <ele>389</ele>
        <time>2023-05-17T23:53:20Z</time>
      </trkpt>
      <trkpt lat="43.0578" lon="-0.67659">
        <ele>388</ele>
        <time>2023-05-17T23:53:26Z</time>
      </trkpt>
      <trkpt lat="43.05775" lon="-0.67656">
        <ele>388</ele>
        <time>2023-05-17T23:53:27Z</time>
      </trkpt>
      <trkpt lat="43.05746" lon="-0.67614">
        <ele>389</ele>
        <time>2023-05-17T23:53:34Z</time>
      </trkpt>
      <trkpt lat="43.05731" lon="-0.67602">
        <ele>391</ele>
        <time>2023-05-17T23:53:37Z</time>
      </trkpt>
      <trkpt lat="43.05722" lon="-0.67601">
        <ele>392</ele>
        <time>2023-05-17T23:53:39Z</time>
      </trkpt>
      <trkpt lat="43.05706" lon="-0.67609">
        <ele>392</ele>
        <time>2023-05-17T23:53:42Z</time>
      </trkpt>
      <trkpt lat="43.05698" lon="-0.67619">
        <ele>391</ele>
        <time>2023-05-17T23:53:44Z</time>
      </trkpt>
      <trkpt lat="43.05686" lon="-0.67639">
        <ele>389</ele>
        <time>2023-05-17T23:53:47Z</time>
      </trkpt>
      <trkpt lat="43.05668" lon="-0.67679">
        <ele>388</ele>
        <time>2023-05-17T23:53:53Z</time>
      </trkpt>
      <trkpt lat="43.05661" lon="-0.67689">
        <ele>390</ele>
        <time>2023-05-17T23:53:55Z</time>
      </trkpt>
      <trkpt lat="43.05641" lon="-0.67708">
        <ele>396</ele>
        <time>2023-05-17T23:53:59Z</time>
      </trkpt>
      <trkpt lat="43.05616" lon="-0.67722">
        <ele>401</ele>
        <time>2023-05-17T23:54:04Z</time>
      </trkpt>
      <trkpt lat="43.056" lon="-0.67722">
        <ele>402</ele>
        <time>2023-05-17T23:54:07Z</time>
      </trkpt>
      <trkpt lat="43.05584" lon="-0.67711">
        <ele>400</ele>
        <time>2023-05-17T23:54:10Z</time>
      </trkpt>
      <trkpt lat="43.05553" lon="-0.67674">
        <ele>390</ele>
        <time>2023-05-17T23:54:18Z</time>
      </trkpt>
      <trkpt lat="43.05539" lon="-0.67649">
        <ele>391</ele>
        <time>2023-05-17T23:54:22Z</time>
      </trkpt>
      <trkpt lat="43.05527" lon="-0.67638">
        <ele>394</ele>
        <time>2023-05-17T23:54:24Z</time>
      </trkpt>
      <trkpt lat="43.05521" lon="-0.67637">
        <ele>394</ele>
        <time>2023-05-17T23:54:25Z</time>
      </trkpt>
      <trkpt lat="43.0551" lon="-0.67641">
        <ele>394</ele>
        <time>2023-05-17T23:54:27Z</time>
      </trkpt>
      <trkpt lat="43.05499" lon="-0.67653">
        <ele>392</ele>
        <time>2023-05-17T23:54:30Z</time>
      </trkpt>
      <trkpt lat="43.05471" lon="-0.67702">
        <ele>399</ele>
        <time>2023-05-17T23:54:38Z</time>
      </trkpt>
      <trkpt lat="43.05459" lon="-0.67717">
        <ele>403</ele>
        <time>2023-05-17T23:54:41Z</time>
      </trkpt>
      <trkpt lat="43.05448" lon="-0.67726">
        <ele>404</ele>
        <time>2023-05-17T23:54:43Z</time>
      </trkpt>
      <trkpt lat="43.05427" lon="-0.67737">
        <ele>405</ele>
        <time>2023-05-17T23:54:47Z</time>
      </trkpt>
      <trkpt lat="43.05417" lon="-0.67738">
        <ele>405</ele>
        <time>2023-05-17T23:54:49Z</time>
      </trkpt>
      <trkpt lat="43.05407" lon="-0.67737">
        <ele>405</ele>
        <time>2023-05-17T23:54:51Z</time>
      </trkpt>
      <trkpt lat="43.05391" lon="-0.67726">
        <ele>403</ele>
        <time>2023-05-17T23:54:54Z</time>
      </trkpt>
      <trkpt lat="43.05382" lon="-0.67708">
        <ele>400</ele>
        <time>2023-05-17T23:54:57Z</time>
      </trkpt>
      <trkpt lat="43.05378" lon="-0.67667">
        <ele>393</ele>
        <time>2023-05-17T23:55:02Z</time>
      </trkpt>
      <trkpt lat="43.05371" lon="-0.67649">
        <ele>396</ele>
        <time>2023-05-17T23:55:05Z</time>
      </trkpt>
      <trkpt lat="43.05358" lon="-0.6764">
        <ele>398</ele>
        <time>2023-05-17T23:55:07Z</time>
      </trkpt>
      <trkpt lat="43.05329" lon="-0.67637">
        <ele>398</ele>
        <time>2023-05-17T23:55:12Z</time>
      </trkpt>
      <trkpt lat="43.05319" lon="-0.67639">
        <ele>397</ele>
        <time>2023-05-17T23:55:14Z</time>
      </trkpt>
      <trkpt lat="43.05267" lon="-0.67664">
        <ele>393</ele>
        <time>2023-05-17T23:55:24Z</time>
      </trkpt>
      <trkpt lat="43.05245" lon="-0.67671">
        <ele>393</ele>
        <time>2023-05-17T23:55:28Z</time>
      </trkpt>
      <trkpt lat="43.05186" lon="-0.67675">
        <ele>395</ele>
        <time>2023-05-17T23:55:39Z</time>
      </trkpt>
      <trkpt lat="43.05162" lon="-0.6768">
        <ele>396</ele>
        <time>2023-05-17T23:55:43Z</time>
      </trkpt>
      <trkpt lat="43.05132" lon="-0.67693">
        <ele>398</ele>
        <time>2023-05-17T23:55:48Z</time>
      </trkpt>
      <trkpt lat="43.05123" lon="-0.67694">
        <ele>399</ele>
        <time>2023-05-17T23:55:50Z</time>
      </trkpt>
      <trkpt lat="43.05115" lon="-0.67693">
        <ele>399</ele>
        <time>2023-05-17T23:55:52Z</time>
      </trkpt>
      <trkpt lat="43.05096" lon="-0.67682">
        <ele>398</ele>
        <time>2023-05-17T23:55:55Z</time>
      </trkpt>
      <trkpt lat="43.05057" lon="-0.67653">
        <ele>397</ele>
        <time>2023-05-17T23:56:03Z</time>
      </trkpt>
      <trkpt lat="43.05049" lon="-0.67649">
        <ele>398</ele>
        <time>2023-05-17T23:56:05Z</time>
      </trkpt>
      <trkpt lat="43.05023" lon="-0.67643">
        <ele>399</ele>
        <time>2023-05-17T23:56:09Z</time>
      </trkpt>
      <trkpt lat="43.05015" lon="-0.67634">
        <ele>400</ele>
        <time>2023-05-17T23:56:11Z</time>
      </trkpt>
      <trkpt lat="43.05005" lon="-0.67584">
        <ele>400</ele>
        <time>2023-05-17T23:56:18Z</time>
      </trkpt>
      <trkpt lat="43.05038" lon="-0.67536">
        <ele>404</ele>
        <time>2023-05-17T23:56:26Z</time>
      </trkpt>
      <trkpt lat="43.05064" lon="-0.67514">
        <ele>402</ele>
        <time>2023-05-17T23:56:32Z</time>
      </trkpt>
      <trkpt lat="43.05079" lon="-0.67497">
        <ele>401</ele>
        <time>2023-05-17T23:56:35Z</time>
      </trkpt>
      <trkpt lat="43.05093" lon="-0.67463">
        <ele>404</ele>
        <time>2023-05-17T23:56:40Z</time>
      </trkpt>
      <trkpt lat="43.05097" lon="-0.67436">
        <ele>407</ele>
        <time>2023-05-17T23:56:44Z</time>
      </trkpt>
      <trkpt lat="43.05094" lon="-0.6736">
        <ele>412</ele>
        <time>2023-05-17T23:56:54Z</time>
      </trkpt>
      <trkpt lat="43.05084" lon="-0.67317">
        <ele>413</ele>
        <time>2023-05-17T23:57:00Z</time>
      </trkpt>
      <trkpt lat="43.0506" lon="-0.67258">
        <ele>419</ele>
        <time>2023-05-17T23:57:09Z</time>
      </trkpt>
      <trkpt lat="43.05008" lon="-0.67185">
        <ele>424</ele>
        <time>2023-05-17T23:57:22Z</time>
      </trkpt>
      <trkpt lat="43.04998" lon="-0.67164">
        <ele>425</ele>
        <time>2023-05-17T23:57:25Z</time>
      </trkpt>
      <trkpt lat="43.0499" lon="-0.67137">
        <ele>428</ele>
        <time>2023-05-17T23:57:29Z</time>
      </trkpt>
      <trkpt lat="43.04977" lon="-0.67119">
        <ele>432</ele>
        <time>2023-05-17T23:57:32Z</time>
      </trkpt>
      <trkpt lat="43.04977" lon="-0.67105">
        <ele>433</ele>
        <time>2023-05-17T23:57:34Z</time>
      </trkpt>
      <trkpt lat="43.04998" lon="-0.67067">
        <ele>429</ele>
        <time>2023-05-17T23:57:40Z</time>
      </trkpt>
      <trkpt lat="43.05002" lon="-0.67042">
        <ele>430</ele>
        <time>2023-05-17T23:57:43Z</time>
      </trkpt>
      <trkpt lat="43.04999" lon="-0.67016">
        <ele>431</ele>
        <time>2023-05-17T23:57:47Z</time>
      </trkpt>
      <trkpt lat="43.04983" lon="-0.66983">
        <ele>435</ele>
        <time>2023-05-17T23:57:52Z</time>
      </trkpt>
      <trkpt lat="43.04978" lon="-0.66964">
        <ele>436</ele>
        <time>2023-05-17T23:57:55Z</time>
      </trkpt>
      <trkpt lat="43.04977" lon="-0.66937">
        <ele>435</ele>
        <time>2023-05-17T23:57:58Z</time>
      </trkpt>
      <trkpt lat="43.04983" lon="-0.66859">
        <ele>437</ele>
        <time>2023-05-17T23:58:08Z</time>
      </trkpt>
      <trkpt lat="43.04977" lon="-0.66829">
        <ele>440</ele>
        <time>2023-05-17T23:58:12Z</time>
      </trkpt>
      <trkpt lat="43.04972" lon="-0.66818">
        <ele>441</ele>
        <time>2023-05-17T23:58:14Z</time>
      </trkpt>
      <trkpt lat="43.04956" lon="-0.66796">
        <ele>443</ele>
        <time>2023-05-17T23:58:18Z</time>
      </trkpt>
      <trkpt lat="43.04937" lon="-0.6678">
        <ele>444</ele>
        <time>2023-05-17T23:58:22Z</time>
      </trkpt>
      <trkpt lat="43.04912" lon="-0.66766">
        <ele>445</ele>
        <time>2023-05-17T23:58:27Z</time>
      </trkpt>
      <trkpt lat="43.04902" lon="-0.66753">
        <ele>448</ele>
        <time>2023-05-17T23:58:29Z</time>
      </trkpt>
      <trkpt lat="43.04894" lon="-0.66734">
        <ele>449</ele>
        <time>2023-05-17T23:58:32Z</time>
      </trkpt>
      <trkpt lat="43.04878" lon="-0.66677">
        <ele>450</ele>
        <time>2023-05-17T23:58:40Z</time>
      </trkpt>
      <trkpt lat="43.04873" lon="-0.6664">
        <ele>452</ele>
        <time>2023-05-17T23:58:45Z</time>
      </trkpt>
      <trkpt lat="43.04873" lon="-0.66604">
        <ele>453</ele>
        <time>2023-05-17T23:58:50Z</time>
      </trkpt>
      <trkpt lat="43.0488" lon="-0.6656">
        <ele>455</ele>
        <time>2023-05-17T23:58:56Z</time>
      </trkpt>
      <trkpt lat="43.04892" lon="-0.66535">
        <ele>454</ele>
        <time>2023-05-17T23:59:00Z</time>
      </trkpt>
      <trkpt lat="43.04921" lon="-0.6651">
        <ele>452</ele>
        <time>2023-05-17T23:59:06Z</time>
      </trkpt>
      <trkpt lat="43.04929" lon="-0.665">
        <ele>454</ele>
        <time>2023-05-17T23:59:08Z</time>
      </trkpt>
      <trkpt lat="43.04946" lon="-0.66461">
        <ele>459</ele>
        <time>2023-05-17T23:59:13Z</time>
      </trkpt>
      <trkpt lat="43.04978" lon="-0.66298">
        <ele>470</ele>
        <time>2023-05-17T23:59:35Z</time>
      </trkpt>
      <trkpt lat="43.04996" lon="-0.66261">
        <ele>468</ele>
        <time>2023-05-17T23:59:41Z</time>
      </trkpt>
      <trkpt lat="43.05002" lon="-0.6624">
        <ele>468</ele>
        <time>2023-05-17T23:59:44Z</time>
      </trkpt>
      <trkpt lat="43.05" lon="-0.66207">
        <ele>469</ele>
        <time>2023-05-17T23:59:48Z</time>
      </trkpt>
      <trkpt lat="43.04964" lon="-0.6611">
        <ele>480</ele>
        <time>2023-05-18T00:00:03Z</time>
      </trkpt>
      <trkpt lat="43.04956" lon="-0.66079">
        <ele>481</ele>
        <time>2023-05-18T00:00:07Z</time>
      </trkpt>
      <trkpt lat="43.04953" lon="-0.66047">
        <ele>483</ele>
        <time>2023-05-18T00:00:11Z</time>
      </trkpt>
      <trkpt lat="43.04953" lon="-0.66011">
        <ele>486</ele>
        <time>2023-05-18T00:00:16Z</time>
      </trkpt>
      <trkpt lat="43.04949" lon="-0.65987">
        <ele>486</ele>
        <time>2023-05-18T00:00:19Z</time>
      </trkpt>
      <trkpt lat="43.04946" lon="-0.65978">
        <ele>486</ele>
        <time>2023-05-18T00:00:20Z</time>
      </trkpt>
      <trkpt lat="43.0492" lon="-0.65942">
        <ele>481</ele>
        <time>2023-05-18T00:00:27Z</time>
      </trkpt>
      <trkpt lat="43.04903" lon="-0.65906">
        <ele>484</ele>
        <time>2023-05-18T00:00:32Z</time>
      </trkpt>
      <trkpt lat="43.049" lon="-0.65877">
        <ele>486</ele>
        <time>2023-05-18T00:00:36Z</time>
      </trkpt>
      <trkpt lat="43.04909" lon="-0.65817">
        <ele>488</ele>
        <time>2023-05-18T00:00:44Z</time>
      </trkpt>
      <trkpt lat="43.04905" lon="-0.65789">
        <ele>489</ele>
        <time>2023-05-18T00:00:48Z</time>
      </trkpt>
      <trkpt lat="43.04894" lon="-0.65769">
        <ele>490</ele>
        <time>2023-05-18T00:00:51Z</time>
      </trkpt>
      <trkpt lat="43.04875" lon="-0.65753">
        <ele>491</ele>
        <time>2023-05-18T00:00:55Z</time>
      </trkpt>
      <trkpt lat="43.04867" lon="-0.6575">
        <ele>491</ele>
        <time>2023-05-18T00:00:57Z</time>
      </trkpt>
      <trkpt lat="43.04805" lon="-0.65741">
        <ele>500</ele>
        <time>2023-05-18T00:01:08Z</time>
      </trkpt>
      <trkpt lat="43.0479" lon="-0.65733">
        <ele>503</ele>
        <time>2023-05-18T00:01:10Z</time>
      </trkpt>
      <trkpt lat="43.04776" lon="-0.65716">
        <ele>507</ele>
        <time>2023-05-18T00:01:14Z</time>
      </trkpt>
      <trkpt lat="43.04747" lon="-0.65661">
        <ele>512</ele>
        <time>2023-05-18T00:01:23Z</time>
      </trkpt>
      <trkpt lat="43.04742" lon="-0.65637">
        <ele>515</ele>
        <time>2023-05-18T00:01:26Z</time>
      </trkpt>
      <trkpt lat="43.04744" lon="-0.65549">
        <ele>516</ele>
        <time>2023-05-18T00:01:37Z</time>
      </trkpt>
      <trkpt lat="43.04748" lon="-0.65509">
        <ele>516</ele>
        <time>2023-05-18T00:01:43Z</time>
      </trkpt>
      <trkpt lat="43.04744" lon="-0.65486">
        <ele>518</ele>
        <time>2023-05-18T00:01:46Z</time>
      </trkpt>
      <trkpt lat="43.0474" lon="-0.65475">
        <ele>520</ele>
        <time>2023-05-18T00:01:47Z</time>
      </trkpt>
      <trkpt lat="43.04689" lon="-0.65394">
        <ele>527</ele>
        <time>2023-05-18T00:02:01Z</time>
      </trkpt>
      <trkpt lat="43.04684" lon="-0.65379">
        <ele>528</ele>
        <time>2023-05-18T00:02:03Z</time>
      </trkpt>
      <trkpt lat="43.04662" lon="-0.65293">
        <ele>530</ele>
        <time>2023-05-18T00:02:15Z</time>
      </trkpt>
      <trkpt lat="43.04657" lon="-0.65257">
        <ele>534</ele>
        <time>2023-05-18T00:02:20Z</time>
      </trkpt>
      <trkpt lat="43.04655" lon="-0.65181">
        <ele>537</ele>
        <time>2023-05-18T00:02:30Z</time>
      </trkpt>
      <trkpt lat="43.04646" lon="-0.65127">
        <ele>540</ele>
        <time>2023-05-18T00:02:37Z</time>
      </trkpt>
      <trkpt lat="43.04637" lon="-0.65089">
        <ele>541</ele>
        <time>2023-05-18T00:02:42Z</time>
      </trkpt>
      <trkpt lat="43.04622" lon="-0.65067">
        <ele>543</ele>
        <time>2023-05-18T00:02:46Z</time>
      </trkpt>
      <trkpt lat="43.04602" lon="-0.65048">
        <ele>543</ele>
        <time>2023-05-18T00:02:50Z</time>
      </trkpt>
      <trkpt lat="43.04594" lon="-0.65043">
        <ele>543</ele>
        <time>2023-05-18T00:02:52Z</time>
      </trkpt>
      <trkpt lat="43.0455" lon="-0.65031">
        <ele>551</ele>
        <time>2023-05-18T00:03:00Z</time>
      </trkpt>
      <trkpt lat="43.04534" lon="-0.65017">
        <ele>553</ele>
        <time>2023-05-18T00:03:03Z</time>
      </trkpt>
      <trkpt lat="43.04519" lon="-0.64994">
        <ele>553</ele>
        <time>2023-05-18T00:03:07Z</time>
      </trkpt>
      <trkpt lat="43.04492" lon="-0.64926">
        <ele>555</ele>
        <time>2023-05-18T00:03:17Z</time>
      </trkpt>
      <trkpt lat="43.04454" lon="-0.64888">
        <ele>563</ele>
        <time>2023-05-18T00:03:26Z</time>
      </trkpt>
      <trkpt lat="43.04421" lon="-0.64849">
        <ele>565</ele>
        <time>2023-05-18T00:03:34Z</time>
      </trkpt>
      <trkpt lat="43.04387" lon="-0.64796">
        <ele>572</ele>
        <time>2023-05-18T00:03:43Z</time>
      </trkpt>
      <trkpt lat="43.04378" lon="-0.64774">
        <ele>574</ele>
        <time>2023-05-18T00:03:46Z</time>
      </trkpt>
      <trkpt lat="43.04372" lon="-0.64746">
        <ele>576</ele>
        <time>2023-05-18T00:03:50Z</time>
      </trkpt>
      <trkpt lat="43.04367" lon="-0.64735">
        <ele>577</ele>
        <time>2023-05-18T00:03:51Z</time>
      </trkpt>
      <trkpt lat="43.04344" lon="-0.64701">
        <ele>577</ele>
        <time>2023-05-18T00:03:58Z</time>
      </trkpt>
      <trkpt lat="43.04308" lon="-0.64631">
        <ele>582</ele>
        <time>2023-05-18T00:04:09Z</time>
      </trkpt>
      <trkpt lat="43.04295" lon="-0.64595">
        <ele>583</ele>
        <time>2023-05-18T00:04:14Z</time>
      </trkpt>
      <trkpt lat="43.04285" lon="-0.64577">
        <ele>584</ele>
        <time>2023-05-18T00:04:17Z</time>
      </trkpt>
      <trkpt lat="43.04269" lon="-0.64557">
        <ele>585</ele>
        <time>2023-05-18T00:04:21Z</time>
      </trkpt>
      <trkpt lat="43.04257" lon="-0.64534">
        <ele>586</ele>
        <time>2023-05-18T00:04:24Z</time>
      </trkpt>
      <trkpt lat="43.0425" lon="-0.64509">
        <ele>586</ele>
        <time>2023-05-18T00:04:28Z</time>
      </trkpt>
      <trkpt lat="43.04241" lon="-0.64446">
        <ele>593</ele>
        <time>2023-05-18T00:04:36Z</time>
      </trkpt>
      <trkpt lat="43.04225" lon="-0.64386">
        <ele>601</ele>
        <time>2023-05-18T00:04:44Z</time>
      </trkpt>
      <trkpt lat="43.04207" lon="-0.64333">
        <ele>608</ele>
        <time>2023-05-18T00:04:52Z</time>
      </trkpt>
      <trkpt lat="43.04207" lon="-0.64315">
        <ele>610</ele>
        <time>2023-05-18T00:04:54Z</time>
      </trkpt>
      <trkpt lat="43.04218" lon="-0.64301">
        <ele>609</ele>
        <time>2023-05-18T00:04:57Z</time>
      </trkpt>
      <trkpt lat="43.0423" lon="-0.64299">
        <ele>607</ele>
        <time>2023-05-18T00:04:59Z</time>
      </trkpt>
      <trkpt lat="43.04236" lon="-0.64302">
        <ele>605</ele>
        <time>2023-05-18T00:05:00Z</time>
      </trkpt>
      <trkpt lat="43.04257" lon="-0.64326">
        <ele>602</ele>
        <time>2023-05-18T00:05:05Z</time>
      </trkpt>
      <trkpt lat="43.04295" lon="-0.64357">
        <ele>607</ele>
        <time>2023-05-18T00:05:13Z</time>
      </trkpt>
      <trkpt lat="43.04379" lon="-0.6448">
        <ele>608</ele>
        <time>2023-05-18T00:05:35Z</time>
      </trkpt>
      <trkpt lat="43.04388" lon="-0.64487">
        <ele>609</ele>
        <time>2023-05-18T00:05:37Z</time>
      </trkpt>
      <trkpt lat="43.04392" lon="-0.64487">
        <ele>610</ele>
        <time>2023-05-18T00:05:38Z</time>
      </trkpt>
      <trkpt lat="43.04398" lon="-0.64479">
        <ele>613</ele>
        <time>2023-05-18T00:05:39Z</time>
      </trkpt>
      <trkpt lat="43.04397" lon="-0.64467">
        <ele>615</ele>
        <time>2023-05-18T00:05:41Z</time>
      </trkpt>
      <trkpt lat="43.04372" lon="-0.6443">
        <ele>614</ele>
        <time>2023-05-18T00:05:47Z</time>
      </trkpt>
      <trkpt lat="43.04363" lon="-0.64389">
        <ele>619</ele>
        <time>2023-05-18T00:05:53Z</time>
      </trkpt>
      <trkpt lat="43.04348" lon="-0.64351">
        <ele>621</ele>
        <time>2023-05-18T00:05:58Z</time>
      </trkpt>
      <trkpt lat="43.0433" lon="-0.64273">
        <ele>628</ele>
        <time>2023-05-18T00:06:09Z</time>
      </trkpt>
      <trkpt lat="43.04326" lon="-0.64219">
        <ele>632</ele>
        <time>2023-05-18T00:06:16Z</time>
      </trkpt>
      <trkpt lat="43.0433" lon="-0.64143">
        <ele>637</ele>
        <time>2023-05-18T00:06:26Z</time>
      </trkpt>
      <trkpt lat="43.04341" lon="-0.64107">
        <ele>641</ele>
        <time>2023-05-18T00:06:31Z</time>
      </trkpt>
      <trkpt lat="43.04372" lon="-0.64064">
        <ele>654</ele>
        <time>2023-05-18T00:06:39Z</time>
      </trkpt>
      <trkpt lat="43.04376" lon="-0.64055">
        <ele>656</ele>
        <time>2023-05-18T00:06:40Z</time>
      </trkpt>
      <trkpt lat="43.0438" lon="-0.64035">
        <ele>657</ele>
        <time>2023-05-18T00:06:43Z</time>
      </trkpt>
      <trkpt lat="43.04376" lon="-0.6401">
        <ele>655</ele>
        <time>2023-05-18T00:06:46Z</time>
      </trkpt>
      <trkpt lat="43.04366" lon="-0.63991">
        <ele>654</ele>
        <time>2023-05-18T00:06:49Z</time>
      </trkpt>
      <trkpt lat="43.04343" lon="-0.63965">
        <ele>652</ele>
        <time>2023-05-18T00:06:55Z</time>
      </trkpt>
      <trkpt lat="43.04331" lon="-0.63943">
        <ele>653</ele>
        <time>2023-05-18T00:06:58Z</time>
      </trkpt>
      <trkpt lat="43.04322" lon="-0.63919">
        <ele>656</ele>
        <time>2023-05-18T00:07:02Z</time>
      </trkpt>
      <trkpt lat="43.04304" lon="-0.63848">
        <ele>666</ele>
        <time>2023-05-18T00:07:11Z</time>
      </trkpt>
      <trkpt lat="43.04297" lon="-0.63793">
        <ele>674</ele>
        <time>2023-05-18T00:07:19Z</time>
      </trkpt>
      <trkpt lat="43.04289" lon="-0.63778">
        <ele>675</ele>
        <time>2023-05-18T00:07:21Z</time>
      </trkpt>
      <trkpt lat="43.04284" lon="-0.63772">
        <ele>675</ele>
        <time>2023-05-18T00:07:22Z</time>
      </trkpt>
      <trkpt lat="43.04277" lon="-0.63769">
        <ele>674</ele>
        <time>2023-05-18T00:07:24Z</time>
      </trkpt>
      <trkpt lat="43.04263" lon="-0.63767">
        <ele>672</ele>
        <time>2023-05-18T00:07:26Z</time>
      </trkpt>
      <trkpt lat="43.04245" lon="-0.6377">
        <ele>669</ele>
        <time>2023-05-18T00:07:29Z</time>
      </trkpt>
      <trkpt lat="43.04205" lon="-0.63782">
        <ele>667</ele>
        <time>2023-05-18T00:07:37Z</time>
      </trkpt>
      <trkpt lat="43.04197" lon="-0.63782">
        <ele>667</ele>
        <time>2023-05-18T00:07:38Z</time>
      </trkpt>
      <trkpt lat="43.04184" lon="-0.63777">
        <ele>668</ele>
        <time>2023-05-18T00:07:40Z</time>
      </trkpt>
      <trkpt lat="43.04179" lon="-0.6377">
        <ele>668</ele>
        <time>2023-05-18T00:07:42Z</time>
      </trkpt>
      <trkpt lat="43.04172" lon="-0.63749">
        <ele>671</ele>
        <time>2023-05-18T00:07:45Z</time>
      </trkpt>
      <trkpt lat="43.04158" lon="-0.63655">
        <ele>678</ele>
        <time>2023-05-18T00:07:57Z</time>
      </trkpt>
      <trkpt lat="43.04144" lon="-0.63595">
        <ele>680</ele>
        <time>2023-05-18T00:08:05Z</time>
      </trkpt>
      <trkpt lat="43.04137" lon="-0.63576">
        <ele>680</ele>
        <time>2023-05-18T00:08:08Z</time>
      </trkpt>
      <trkpt lat="43.04117" lon="-0.63553">
        <ele>678</ele>
        <time>2023-05-18T00:08:13Z</time>
      </trkpt>
      <trkpt lat="43.04107" lon="-0.63536">
        <ele>676</ele>
        <time>2023-05-18T00:08:16Z</time>
      </trkpt>
      <trkpt lat="43.04094" lon="-0.63486">
        <ele>672</ele>
        <time>2023-05-18T00:08:23Z</time>
      </trkpt>
      <trkpt lat="43.0409" lon="-0.6346">
        <ele>669</ele>
        <time>2023-05-18T00:08:26Z</time>
      </trkpt>
      <trkpt lat="43.04091" lon="-0.63446">
        <ele>668</ele>
        <time>2023-05-18T00:08:28Z</time>
      </trkpt>
      <trkpt lat="43.04116" lon="-0.63278">
        <ele>669</ele>
        <time>2023-05-18T00:08:50Z</time>
      </trkpt>
      <trkpt lat="43.04123" lon="-0.63256">
        <ele>670</ele>
        <time>2023-05-18T00:08:53Z</time>
      </trkpt>
      <trkpt lat="43.04127" lon="-0.63249">
        <ele>670</ele>
        <time>2023-05-18T00:08:54Z</time>
      </trkpt>
      <trkpt lat="43.04151" lon="-0.63224">
        <ele>675</ele>
        <time>2023-05-18T00:09:00Z</time>
      </trkpt>
      <trkpt lat="43.04157" lon="-0.63204">
        <ele>677</ele>
        <time>2023-05-18T00:09:03Z</time>
      </trkpt>
      <trkpt lat="43.04151" lon="-0.63177">
        <ele>675</ele>
        <time>2023-05-18T00:09:06Z</time>
      </trkpt>
      <trkpt lat="43.04101" lon="-0.63027">
        <ele>667</ele>
        <time>2023-05-18T00:09:28Z</time>
      </trkpt>
      <trkpt lat="43.04103" lon="-0.63005">
        <ele>668</ele>
        <time>2023-05-18T00:09:31Z</time>
      </trkpt>
      <trkpt lat="43.04122" lon="-0.6294">
        <ele>678</ele>
        <time>2023-05-18T00:09:40Z</time>
      </trkpt>
      <trkpt lat="43.04117" lon="-0.62914">
        <ele>678</ele>
        <time>2023-05-18T00:09:43Z</time>
      </trkpt>
      <trkpt lat="43.04113" lon="-0.62909">
        <ele>678</ele>
        <time>2023-05-18T00:09:44Z</time>
      </trkpt>
      <trkpt lat="43.04102" lon="-0.62904">
        <ele>676</ele>
        <time>2023-05-18T00:09:46Z</time>
      </trkpt>
      <trkpt lat="43.04054" lon="-0.62912">
        <ele>665</ele>
        <time>2023-05-18T00:09:55Z</time>
      </trkpt>
      <trkpt lat="43.0404" lon="-0.62904">
        <ele>665</ele>
        <time>2023-05-18T00:09:58Z</time>
      </trkpt>
      <trkpt lat="43.04008" lon="-0.62872">
        <ele>667</ele>
        <time>2023-05-18T00:10:05Z</time>
      </trkpt>
      <trkpt lat="43.03991" lon="-0.62849">
        <ele>668</ele>
        <time>2023-05-18T00:10:09Z</time>
      </trkpt>
      <trkpt lat="43.03967" lon="-0.62807">
        <ele>667</ele>
        <time>2023-05-18T00:10:16Z</time>
      </trkpt>
      <trkpt lat="43.03946" lon="-0.62783">
        <ele>664</ele>
        <time>2023-05-18T00:10:21Z</time>
      </trkpt>
      <trkpt lat="43.03883" lon="-0.62677">
        <ele>664</ele>
        <time>2023-05-18T00:10:38Z</time>
      </trkpt>
      <trkpt lat="43.0385" lon="-0.62629">
        <ele>662</ele>
        <time>2023-05-18T00:10:47Z</time>
      </trkpt>
      <trkpt lat="43.0384" lon="-0.62608">
        <ele>662</ele>
        <time>2023-05-18T00:10:50Z</time>
      </trkpt>
      <trkpt lat="43.03837" lon="-0.6259">
        <ele>664</ele>
        <time>2023-05-18T00:10:53Z</time>
      </trkpt>
      <trkpt lat="43.03848" lon="-0.62521">
        <ele>669</ele>
        <time>2023-05-18T00:11:02Z</time>
      </trkpt>
      <trkpt lat="43.03847" lon="-0.62433">
        <ele>675</ele>
        <time>2023-05-18T00:11:13Z</time>
      </trkpt>
      <trkpt lat="43.03852" lon="-0.62356">
        <ele>680</ele>
        <time>2023-05-18T00:11:23Z</time>
      </trkpt>
      <trkpt lat="43.03858" lon="-0.62308">
        <ele>678</ele>
        <time>2023-05-18T00:11:30Z</time>
      </trkpt>
      <trkpt lat="43.03866" lon="-0.62271">
        <ele>675</ele>
        <time>2023-05-18T00:11:35Z</time>
      </trkpt>
      <trkpt lat="43.03877" lon="-0.62246">
        <ele>674</ele>
        <time>2023-05-18T00:11:38Z</time>
      </trkpt>
      <trkpt lat="43.03883" lon="-0.62238">
        <ele>673</ele>
        <time>2023-05-18T00:11:40Z</time>
      </trkpt>
      <trkpt lat="43.0389" lon="-0.62233">
        <ele>673</ele>
        <time>2023-05-18T00:11:41Z</time>
      </trkpt>
      <trkpt lat="43.03932" lon="-0.6222">
        <ele>683</ele>
        <time>2023-05-18T00:11:49Z</time>
      </trkpt>
      <trkpt lat="43.03958" lon="-0.62207">
        <ele>686</ele>
        <time>2023-05-18T00:11:54Z</time>
      </trkpt>
      <trkpt lat="43.03975" lon="-0.62189">
        <ele>687</ele>
        <time>2023-05-18T00:11:58Z</time>
      </trkpt>
      <trkpt lat="43.0398" lon="-0.6217">
        <ele>684</ele>
        <time>2023-05-18T00:12:00Z</time>
      </trkpt>
      <trkpt lat="43.0398" lon="-0.62155">
        <ele>683</ele>
        <time>2023-05-18T00:12:02Z</time>
      </trkpt>
      <trkpt lat="43.03973" lon="-0.62129">
        <ele>680</ele>
        <time>2023-05-18T00:12:06Z</time>
      </trkpt>
      <trkpt lat="43.0392" lon="-0.62002">
        <ele>656</ele>
        <time>2023-05-18T00:12:25Z</time>
      </trkpt>
      <trkpt lat="43.03908" lon="-0.61957">
        <ele>649</ele>
        <time>2023-05-18T00:12:31Z</time>
      </trkpt>
      <trkpt lat="43.03906" lon="-0.61937">
        <ele>648</ele>
        <time>2023-05-18T00:12:34Z</time>
      </trkpt>
      <trkpt lat="43.03906" lon="-0.6191">
        <ele>648</ele>
        <time>2023-05-18T00:12:37Z</time>
      </trkpt>
      <trkpt lat="43.03912" lon="-0.61852">
        <ele>644</ele>
        <time>2023-05-18T00:12:45Z</time>
      </trkpt>
      <trkpt lat="43.03936" lon="-0.61748">
        <ele>633</ele>
        <time>2023-05-18T00:12:59Z</time>
      </trkpt>
      <trkpt lat="43.0396" lon="-0.61662">
        <ele>627</ele>
        <time>2023-05-18T00:13:11Z</time>
      </trkpt>
      <trkpt lat="43.03969" lon="-0.61571">
        <ele>611</ele>
        <time>2023-05-18T00:13:23Z</time>
      </trkpt>
      <trkpt lat="43.03976" lon="-0.61554">
        <ele>610</ele>
        <time>2023-05-18T00:13:26Z</time>
      </trkpt>
      <trkpt lat="43.03983" lon="-0.61546">
        <ele>611</ele>
        <time>2023-05-18T00:13:27Z</time>
      </trkpt>
      <trkpt lat="43.04029" lon="-0.61512">
        <ele>609</ele>
        <time>2023-05-18T00:13:37Z</time>
      </trkpt>
      <trkpt lat="43.04066" lon="-0.61496">
        <ele>605</ele>
        <time>2023-05-18T00:13:43Z</time>
      </trkpt>
      <trkpt lat="43.04129" lon="-0.6149">
        <ele>613</ele>
        <time>2023-05-18T00:13:55Z</time>
      </trkpt>
      <trkpt lat="43.04134" lon="-0.61487">
        <ele>613</ele>
        <time>2023-05-18T00:13:56Z</time>
      </trkpt>
      <trkpt lat="43.04141" lon="-0.61476">
        <ele>613</ele>
        <time>2023-05-18T00:13:58Z</time>
      </trkpt>
      <trkpt lat="43.04142" lon="-0.6146">
        <ele>610</ele>
        <time>2023-05-18T00:14:00Z</time>
      </trkpt>
      <trkpt lat="43.04138" lon="-0.61389">
        <ele>595</ele>
        <time>2023-05-18T00:14:09Z</time>
      </trkpt>
      <trkpt lat="43.04141" lon="-0.61352">
        <ele>590</ele>
        <time>2023-05-18T00:14:14Z</time>
      </trkpt>
      <trkpt lat="43.04151" lon="-0.61284">
        <ele>584</ele>
        <time>2023-05-18T00:14:23Z</time>
      </trkpt>
      <trkpt lat="43.04149" lon="-0.61155">
        <ele>565</ele>
        <time>2023-05-18T00:14:40Z</time>
      </trkpt>
      <trkpt lat="43.04153" lon="-0.61128">
        <ele>564</ele>
        <time>2023-05-18T00:14:43Z</time>
      </trkpt>
      <trkpt lat="43.04178" lon="-0.61059">
        <ele>563</ele>
        <time>2023-05-18T00:14:53Z</time>
      </trkpt>
      <trkpt lat="43.04183" lon="-0.61034">
        <ele>561</ele>
        <time>2023-05-18T00:14:56Z</time>
      </trkpt>
      <trkpt lat="43.04181" lon="-0.60977">
        <ele>557</ele>
        <time>2023-05-18T00:15:04Z</time>
      </trkpt>
      <trkpt lat="43.04184" lon="-0.60966">
        <ele>557</ele>
        <time>2023-05-18T00:15:05Z</time>
      </trkpt>
      <trkpt lat="43.04196" lon="-0.60945">
        <ele>555</ele>
        <time>2023-05-18T00:15:09Z</time>
      </trkpt>
      <trkpt lat="43.0422" lon="-0.60913">
        <ele>550</ele>
        <time>2023-05-18T00:15:15Z</time>
      </trkpt>
      <trkpt lat="43.04233" lon="-0.60886">
        <ele>548</ele>
        <time>2023-05-18T00:15:19Z</time>
      </trkpt>
      <trkpt lat="43.0424" lon="-0.6086">
        <ele>546</ele>
        <time>2023-05-18T00:15:23Z</time>
      </trkpt>
      <trkpt lat="43.04238" lon="-0.60796">
        <ele>537</ele>
        <time>2023-05-18T00:15:31Z</time>
      </trkpt>
      <trkpt lat="43.04231" lon="-0.60778">
        <ele>534</ele>
        <time>2023-05-18T00:15:34Z</time>
      </trkpt>
      <trkpt lat="43.0422" lon="-0.60766">
        <ele>532</ele>
        <time>2023-05-18T00:15:36Z</time>
      </trkpt>
      <trkpt lat="43.04206" lon="-0.6076">
        <ele>531</ele>
        <time>2023-05-18T00:15:39Z</time>
      </trkpt>
      <trkpt lat="43.04131" lon="-0.60767">
        <ele>531</ele>
        <time>2023-05-18T00:15:52Z</time>
      </trkpt>
      <trkpt lat="43.04111" lon="-0.60772">
        <ele>530</ele>
        <time>2023-05-18T00:15:56Z</time>
      </trkpt>
      <trkpt lat="43.04091" lon="-0.60782">
        <ele>531</ele>
        <time>2023-05-18T00:16:00Z</time>
      </trkpt>
      <trkpt lat="43.04075" lon="-0.60786">
        <ele>530</ele>
        <time>2023-05-18T00:16:02Z</time>
      </trkpt>
      <trkpt lat="43.04029" lon="-0.60772">
        <ele>518</ele>
        <time>2023-05-18T00:16:11Z</time>
      </trkpt>
      <trkpt lat="43.04014" lon="-0.60769">
        <ele>514</ele>
        <time>2023-05-18T00:16:14Z</time>
      </trkpt>
      <trkpt lat="43.04007" lon="-0.6077">
        <ele>513</ele>
        <time>2023-05-18T00:16:15Z</time>
      </trkpt>
      <trkpt lat="43.03993" lon="-0.60776">
        <ele>511</ele>
        <time>2023-05-18T00:16:17Z</time>
      </trkpt>
      <trkpt lat="43.03975" lon="-0.60791">
        <ele>509</ele>
        <time>2023-05-18T00:16:21Z</time>
      </trkpt>
      <trkpt lat="43.03946" lon="-0.60824">
        <ele>504</ele>
        <time>2023-05-18T00:16:28Z</time>
      </trkpt>
      <trkpt lat="43.0394" lon="-0.60851">
        <ele>501</ele>
        <time>2023-05-18T00:16:32Z</time>
      </trkpt>
      <trkpt lat="43.03941" lon="-0.60863">
        <ele>500</ele>
        <time>2023-05-18T00:16:33Z</time>
      </trkpt>
      <trkpt lat="43.03946" lon="-0.60881">
        <ele>501</ele>
        <time>2023-05-18T00:16:36Z</time>
      </trkpt>
      <trkpt lat="43.03973" lon="-0.60945">
        <ele>506</ele>
        <time>2023-05-18T00:16:45Z</time>
      </trkpt>
      <trkpt lat="43.03989" lon="-0.60998">
        <ele>503</ele>
        <time>2023-05-18T00:16:53Z</time>
      </trkpt>
      <trkpt lat="43.03993" lon="-0.61026">
        <ele>506</ele>
        <time>2023-05-18T00:16:56Z</time>
      </trkpt>
      <trkpt lat="43.03987" lon="-0.61041">
        <ele>506</ele>
        <time>2023-05-18T00:16:59Z</time>
      </trkpt>
      <trkpt lat="43.03982" lon="-0.61043">
        <ele>505</ele>
        <time>2023-05-18T00:17:00Z</time>
      </trkpt>
      <trkpt lat="43.03971" lon="-0.61042">
        <ele>504</ele>
        <time>2023-05-18T00:17:01Z</time>
      </trkpt>
      <trkpt lat="43.0395" lon="-0.61029">
        <ele>500</ele>
        <time>2023-05-18T00:17:06Z</time>
      </trkpt>
      <trkpt lat="43.03918" lon="-0.60981">
        <ele>489</ele>
        <time>2023-05-18T00:17:14Z</time>
      </trkpt>
      <trkpt lat="43.03901" lon="-0.60966">
        <ele>483</ele>
        <time>2023-05-18T00:17:18Z</time>
      </trkpt>
      <trkpt lat="43.0386" lon="-0.60951">
        <ele>470</ele>
        <time>2023-05-18T00:17:25Z</time>
      </trkpt>
      <trkpt lat="43.03848" lon="-0.60949">
        <ele>466</ele>
        <time>2023-05-18T00:17:27Z</time>
      </trkpt>
      <trkpt lat="43.03843" lon="-0.60952">
        <ele>465</ele>
        <time>2023-05-18T00:17:28Z</time>
      </trkpt>
      <trkpt lat="43.03836" lon="-0.60966">
        <ele>464</ele>
        <time>2023-05-18T00:17:31Z</time>
      </trkpt>
      <trkpt lat="43.03824" lon="-0.61054">
        <ele>467</ele>
        <time>2023-05-18T00:17:42Z</time>
      </trkpt>
      <trkpt lat="43.03811" lon="-0.61093">
        <ele>464</ele>
        <time>2023-05-18T00:17:48Z</time>
      </trkpt>
      <trkpt lat="43.03785" lon="-0.61133">
        <ele>453</ele>
        <time>2023-05-18T00:17:55Z</time>
      </trkpt>
      <trkpt lat="43.03781" lon="-0.61144">
        <ele>452</ele>
        <time>2023-05-18T00:17:56Z</time>
      </trkpt>
      <trkpt lat="43.03764" lon="-0.6123">
        <ele>451</ele>
        <time>2023-05-18T00:18:08Z</time>
      </trkpt>
      <trkpt lat="43.0374" lon="-0.613">
        <ele>444</ele>
        <time>2023-05-18T00:18:18Z</time>
      </trkpt>
      <trkpt lat="43.03719" lon="-0.614">
        <ele>442</ele>
        <time>2023-05-18T00:18:31Z</time>
      </trkpt>
      <trkpt lat="43.03707" lon="-0.61445">
        <ele>441</ele>
        <time>2023-05-18T00:18:38Z</time>
      </trkpt>
      <trkpt lat="43.03683" lon="-0.61514">
        <ele>437</ele>
        <time>2023-05-18T00:18:48Z</time>
      </trkpt>
      <trkpt lat="43.03676" lon="-0.61541">
        <ele>438</ele>
        <time>2023-05-18T00:18:51Z</time>
      </trkpt>
      <trkpt lat="43.03668" lon="-0.61564">
        <ele>437</ele>
        <time>2023-05-18T00:18:55Z</time>
      </trkpt>
      <trkpt lat="43.03651" lon="-0.61594">
        <ele>445</ele>
        <time>2023-05-18T00:19:00Z</time>
      </trkpt>
      <trkpt lat="43.0364" lon="-0.61598">
        <ele>448</ele>
        <time>2023-05-18T00:19:02Z</time>
      </trkpt>
      <trkpt lat="43.03632" lon="-0.61584">
        <ele>450</ele>
        <time>2023-05-18T00:19:04Z</time>
      </trkpt>
      <trkpt lat="43.03629" lon="-0.6156">
        <ele>450</ele>
        <time>2023-05-18T00:19:07Z</time>
      </trkpt>
      <trkpt lat="43.0363" lon="-0.61469">
        <ele>445</ele>
        <time>2023-05-18T00:19:19Z</time>
      </trkpt>
      <trkpt lat="43.03636" lon="-0.61441">
        <ele>440</ele>
        <time>2023-05-18T00:19:23Z</time>
      </trkpt>
      <trkpt lat="43.03642" lon="-0.61427">
        <ele>436</ele>
        <time>2023-05-18T00:19:25Z</time>
      </trkpt>
      <trkpt lat="43.03668" lon="-0.6139">
        <ele>421</ele>
        <time>2023-05-18T00:19:32Z</time>
      </trkpt>
      <trkpt lat="43.03675" lon="-0.61371">
        <ele>423</ele>
        <time>2023-05-18T00:19:34Z</time>
      </trkpt>
      <trkpt lat="43.03676" lon="-0.61361">
        <ele>423</ele>
        <time>2023-05-18T00:19:36Z</time>
      </trkpt>
      <trkpt lat="43.03672" lon="-0.61319">
        <ele>419</ele>
        <time>2023-05-18T00:19:41Z</time>
      </trkpt>
      <trkpt lat="43.03656" lon="-0.61284">
        <ele>418</ele>
        <time>2023-05-18T00:19:46Z</time>
      </trkpt>
      <trkpt lat="43.03655" lon="-0.61276">
        <ele>418</ele>
        <time>2023-05-18T00:19:48Z</time>
      </trkpt>
      <trkpt lat="43.03655" lon="-0.61267">
        <ele>417</ele>
        <time>2023-05-18T00:19:49Z</time>
      </trkpt>
      <trkpt lat="43.03665" lon="-0.61218">
        <ele>409</ele>
        <time>2023-05-18T00:19:55Z</time>
      </trkpt>
      <trkpt lat="43.03665" lon="-0.61153">
        <ele>406</ele>
        <time>2023-05-18T00:20:04Z</time>
      </trkpt>
      <trkpt lat="43.03661" lon="-0.61121">
        <ele>406</ele>
        <time>2023-05-18T00:20:08Z</time>
      </trkpt>
      <trkpt lat="43.03641" lon="-0.6102">
        <ele>408</ele>
        <time>2023-05-18T00:20:22Z</time>
      </trkpt>
      <trkpt lat="43.03642" lon="-0.61001">
        <ele>406</ele>
        <time>2023-05-18T00:20:24Z</time>
      </trkpt>
      <trkpt lat="43.03663" lon="-0.60907">
        <ele>395</ele>
        <time>2023-05-18T00:20:37Z</time>
      </trkpt>
      <trkpt lat="43.03665" lon="-0.60864">
        <ele>395</ele>
        <time>2023-05-18T00:20:42Z</time>
      </trkpt>
      <trkpt lat="43.03657" lon="-0.60743">
        <ele>387</ele>
        <time>2023-05-18T00:20:58Z</time>
      </trkpt>
      <trkpt lat="43.03648" lon="-0.6071">
        <ele>382</ele>
        <time>2023-05-18T00:21:03Z</time>
      </trkpt>
      <trkpt lat="43.03639" lon="-0.60701">
        <ele>381</ele>
        <time>2023-05-18T00:21:05Z</time>
      </trkpt>
      <trkpt lat="43.03625" lon="-0.607">
        <ele>382</ele>
        <time>2023-05-18T00:21:07Z</time>
      </trkpt>
      <trkpt lat="43.03604" lon="-0.60713">
        <ele>387</ele>
        <time>2023-05-18T00:21:11Z</time>
      </trkpt>
      <trkpt lat="43.0359" lon="-0.60715">
        <ele>389</ele>
        <time>2023-05-18T00:21:14Z</time>
      </trkpt>
      <trkpt lat="43.03583" lon="-0.60704">
        <ele>386</ele>
        <time>2023-05-18T00:21:16Z</time>
      </trkpt>
      <trkpt lat="43.03586" lon="-0.60688">
        <ele>381</ele>
        <time>2023-05-18T00:21:18Z</time>
      </trkpt>
      <trkpt lat="43.03597" lon="-0.6068">
        <ele>378</ele>
        <time>2023-05-18T00:21:20Z</time>
      </trkpt>
      <trkpt lat="43.03658" lon="-0.6068">
        <ele>376</ele>
        <time>2023-05-18T00:21:31Z</time>
      </trkpt>
      <trkpt lat="43.03666" lon="-0.60671">
        <ele>375</ele>
        <time>2023-05-18T00:21:33Z</time>
      </trkpt>
      <trkpt lat="43.03666" lon="-0.60648">
        <ele>371</ele>
        <time>2023-05-18T00:21:36Z</time>
      </trkpt>
      <trkpt lat="43.03662" lon="-0.60635">
        <ele>368</ele>
        <time>2023-05-18T00:21:38Z</time>
      </trkpt>
      <trkpt lat="43.03764" lon="-0.6061">
        <ele>380</ele>
        <time>2023-05-18T00:21:56Z</time>
      </trkpt>
      <trkpt lat="43.03806" lon="-0.60597">
        <ele>382</ele>
        <time>2023-05-18T00:22:04Z</time>
      </trkpt>
      <trkpt lat="43.03822" lon="-0.60589">
        <ele>380</ele>
        <time>2023-05-18T00:22:07Z</time>
      </trkpt>
      <trkpt lat="43.03881" lon="-0.6055">
        <ele>382</ele>
        <time>2023-05-18T00:22:18Z</time>
      </trkpt>
      <trkpt lat="43.03939" lon="-0.60496">
        <ele>373</ele>
        <time>2023-05-18T00:22:31Z</time>
      </trkpt>
      <trkpt lat="43.03965" lon="-0.60463">
        <ele>375</ele>
        <time>2023-05-18T00:22:37Z</time>
      </trkpt>
      <trkpt lat="43.03986" lon="-0.60424">
        <ele>371</ele>
        <time>2023-05-18T00:22:44Z</time>
      </trkpt>
      <trkpt lat="43.03995" lon="-0.60402">
        <ele>368</ele>
        <time>2023-05-18T00:22:47Z</time>
      </trkpt>
      <trkpt lat="43.04006" lon="-0.60362">
        <ele>370</ele>
        <time>2023-05-18T00:22:52Z</time>
      </trkpt>
      <trkpt lat="43.0402" lon="-0.6027">
        <ele>374</ele>
        <time>2023-05-18T00:23:05Z</time>
      </trkpt>
      <trkpt lat="43.04025" lon="-0.6025">
        <ele>376</ele>
        <time>2023-05-18T00:23:07Z</time>
      </trkpt>
      <trkpt lat="43.04041" lon="-0.60207">
        <ele>375</ele>
        <time>2023-05-18T00:23:14Z</time>
      </trkpt>
      <trkpt lat="43.04075" lon="-0.60159">
        <ele>373</ele>
        <time>2023-05-18T00:23:22Z</time>
      </trkpt>
      <trkpt lat="43.04107" lon="-0.60134">
        <ele>372</ele>
        <time>2023-05-18T00:23:29Z</time>
      </trkpt>
      <trkpt lat="43.04122" lon="-0.60129">
        <ele>373</ele>
        <time>2023-05-18T00:23:32Z</time>
      </trkpt>
      <trkpt lat="43.04137" lon="-0.60128">
        <ele>374</ele>
        <time>2023-05-18T00:23:34Z</time>
      </trkpt>
      <trkpt lat="43.04164" lon="-0.60132">
        <ele>378</ele>
        <time>2023-05-18T00:23:39Z</time>
      </trkpt>
      <trkpt lat="43.04179" lon="-0.60131">
        <ele>381</ele>
        <time>2023-05-18T00:23:42Z</time>
      </trkpt>
      <trkpt lat="43.04196" lon="-0.60126">
        <ele>383</ele>
        <time>2023-05-18T00:23:45Z</time>
      </trkpt>
      <trkpt lat="43.04258" lon="-0.60073">
        <ele>377</ele>
        <time>2023-05-18T00:23:58Z</time>
      </trkpt>
      <trkpt lat="43.04288" lon="-0.60056">
        <ele>377</ele>
        <time>2023-05-18T00:24:04Z</time>
      </trkpt>
      <trkpt lat="43.04328" lon="-0.60049">
        <ele>379</ele>
        <time>2023-05-18T00:24:11Z</time>
      </trkpt>
      <trkpt lat="43.04387" lon="-0.60045">
        <ele>374</ele>
        <time>2023-05-18T00:24:21Z</time>
      </trkpt>
      <trkpt lat="43.04433" lon="-0.60047">
        <ele>370</ele>
        <time>2023-05-18T00:24:30Z</time>
      </trkpt>
      <trkpt lat="43.04461" lon="-0.60059">
        <ele>368</ele>
        <time>2023-05-18T00:24:35Z</time>
      </trkpt>
      <trkpt lat="43.04495" lon="-0.60085">
        <ele>363</ele>
        <time>2023-05-18T00:24:42Z</time>
      </trkpt>
      <trkpt lat="43.04534" lon="-0.60124">
        <ele>368</ele>
        <time>2023-05-18T00:24:50Z</time>
      </trkpt>
      <trkpt lat="43.04563" lon="-0.60141">
        <ele>374</ele>
        <time>2023-05-18T00:24:56Z</time>
      </trkpt>
      <trkpt lat="43.04578" lon="-0.60144">
        <ele>376</ele>
        <time>2023-05-18T00:24:59Z</time>
      </trkpt>
      <trkpt lat="43.04643" lon="-0.60146">
        <ele>367</ele>
        <time>2023-05-18T00:25:10Z</time>
      </trkpt>
      <trkpt lat="43.04788" lon="-0.60138">
        <ele>346</ele>
        <time>2023-05-18T00:25:36Z</time>
      </trkpt>
      <trkpt lat="43.0494" lon="-0.60126">
        <ele>345</ele>
        <time>2023-05-18T00:26:03Z</time>
      </trkpt>
      <trkpt lat="43.05" lon="-0.60129">
        <ele>346</ele>
        <time>2023-05-18T00:26:14Z</time>
      </trkpt>
      <trkpt lat="43.05026" lon="-0.60137">
        <ele>346</ele>
        <time>2023-05-18T00:26:19Z</time>
      </trkpt>
      <trkpt lat="43.05043" lon="-0.60139">
        <ele>346</ele>
        <time>2023-05-18T00:26:22Z</time>
      </trkpt>
      <trkpt lat="43.05059" lon="-0.60138">
        <ele>345</ele>
        <time>2023-05-18T00:26:24Z</time>
      </trkpt>
      <trkpt lat="43.05073" lon="-0.60134">
        <ele>345</ele>
        <time>2023-05-18T00:26:27Z</time>
      </trkpt>
      <trkpt lat="43.05091" lon="-0.60126">
        <ele>345</ele>
        <time>2023-05-18T00:26:30Z</time>
      </trkpt>
      <trkpt lat="43.05115" lon="-0.60107">
        <ele>345</ele>
        <time>2023-05-18T00:26:35Z</time>
      </trkpt>
      <trkpt lat="43.05136" lon="-0.60077">
        <ele>344</ele>
        <time>2023-05-18T00:26:41Z</time>
      </trkpt>
      <trkpt lat="43.0518" lon="-0.59987">
        <ele>344</ele>
        <time>2023-05-18T00:26:55Z</time>
      </trkpt>
      <trkpt lat="43.0519" lon="-0.59972">
        <ele>346</ele>
        <time>2023-05-18T00:26:57Z</time>
      </trkpt>
      <trkpt lat="43.05217" lon="-0.59942">
        <ele>349</ele>
        <time>2023-05-18T00:27:04Z</time>
      </trkpt>
      <trkpt lat="43.05267" lon="-0.59906">
        <ele>353</ele>
        <time>2023-05-18T00:27:14Z</time>
      </trkpt>
      <trkpt lat="43.05447" lon="-0.59785">
        <ele>349</ele>
        <time>2023-05-18T00:27:49Z</time>
      </trkpt>
      <trkpt lat="43.05474" lon="-0.59751">
        <ele>344</ele>
        <time>2023-05-18T00:27:56Z</time>
      </trkpt>
      <trkpt lat="43.05498" lon="-0.59708">
        <ele>352</ele>
        <time>2023-05-18T00:28:03Z</time>
      </trkpt>
      <trkpt lat="43.05521" lon="-0.59685">
        <ele>355</ele>
        <time>2023-05-18T00:28:08Z</time>
      </trkpt>
      <trkpt lat="43.05533" lon="-0.5968">
        <ele>355</ele>
        <time>2023-05-18T00:28:10Z</time>
      </trkpt>
      <trkpt lat="43.05595" lon="-0.59677">
        <ele>352</ele>
        <time>2023-05-18T00:28:21Z</time>
      </trkpt>
      <trkpt lat="43.05625" lon="-0.59679">
        <ele>351</ele>
        <time>2023-05-18T00:28:27Z</time>
      </trkpt>
      <trkpt lat="43.05665" lon="-0.59687">
        <ele>349</ele>
        <time>2023-05-18T00:28:34Z</time>
      </trkpt>
      <trkpt lat="43.05732" lon="-0.59708">
        <ele>349</ele>
        <time>2023-05-18T00:28:46Z</time>
      </trkpt>
      <trkpt lat="43.06127" lon="-0.59887">
        <ele>346</ele>
        <time>2023-05-18T00:30:00Z</time>
      </trkpt>
      <trkpt lat="43.06169" lon="-0.59899">
        <ele>345</ele>
        <time>2023-05-18T00:30:08Z</time>
      </trkpt>
      <trkpt lat="43.06313" lon="-0.59916">
        <ele>331</ele>
        <time>2023-05-18T00:30:33Z</time>
      </trkpt>
      <trkpt lat="43.06334" lon="-0.59922">
        <ele>329</ele>
        <time>2023-05-18T00:30:37Z</time>
      </trkpt>
      <trkpt lat="43.06362" lon="-0.59936">
        <ele>334</ele>
        <time>2023-05-18T00:30:43Z</time>
      </trkpt>
      <trkpt lat="43.06389" lon="-0.59959">
        <ele>336</ele>
        <time>2023-05-18T00:30:48Z</time>
      </trkpt>
      <trkpt lat="43.06418" lon="-0.59994">
        <ele>332</ele>
        <time>2023-05-18T00:30:55Z</time>
      </trkpt>
      <trkpt lat="43.06496" lon="-0.60104">
        <ele>335</ele>
        <time>2023-05-18T00:31:15Z</time>
      </trkpt>
      <trkpt lat="43.06526" lon="-0.60134">
        <ele>340</ele>
        <time>2023-05-18T00:31:22Z</time>
      </trkpt>
      <trkpt lat="43.06585" lon="-0.60176">
        <ele>351</ele>
        <time>2023-05-18T00:31:33Z</time>
      </trkpt>
      <trkpt lat="43.06759" lon="-0.60281">
        <ele>328</ele>
        <time>2023-05-18T00:32:07Z</time>
      </trkpt>
      <trkpt lat="43.06792" lon="-0.60313">
        <ele>328</ele>
        <time>2023-05-18T00:32:14Z</time>
      </trkpt>
      <trkpt lat="43.06818" lon="-0.60354">
        <ele>324</ele>
        <time>2023-05-18T00:32:22Z</time>
      </trkpt>
      <trkpt lat="43.06884" lon="-0.60491">
        <ele>327</ele>
        <time>2023-05-18T00:32:43Z</time>
      </trkpt>
      <trkpt lat="43.06902" lon="-0.60526">
        <ele>325</ele>
        <time>2023-05-18T00:32:48Z</time>
      </trkpt>
      <trkpt lat="43.06919" lon="-0.60553">
        <ele>322</ele>
        <time>2023-05-18T00:32:53Z</time>
      </trkpt>
      <trkpt lat="43.06935" lon="-0.60571">
        <ele>320</ele>
        <time>2023-05-18T00:32:57Z</time>
      </trkpt>
      <trkpt lat="43.06951" lon="-0.60583">
        <ele>319</ele>
        <time>2023-05-18T00:33:00Z</time>
      </trkpt>
      <trkpt lat="43.06972" lon="-0.60593">
        <ele>322</ele>
        <time>2023-05-18T00:33:04Z</time>
      </trkpt>
      <trkpt lat="43.0699" lon="-0.60598">
        <ele>324</ele>
        <time>2023-05-18T00:33:07Z</time>
      </trkpt>
      <trkpt lat="43.07007" lon="-0.60597">
        <ele>325</ele>
        <time>2023-05-18T00:33:10Z</time>
      </trkpt>
      <trkpt lat="43.07047" lon="-0.60584">
        <ele>327</ele>
        <time>2023-05-18T00:33:18Z</time>
      </trkpt>
      <trkpt lat="43.07085" lon="-0.60576">
        <ele>335</ele>
        <time>2023-05-18T00:33:24Z</time>
      </trkpt>
      <trkpt lat="43.07106" lon="-0.60578">
        <ele>333</ele>
        <time>2023-05-18T00:33:28Z</time>
      </trkpt>
      <trkpt lat="43.07128" lon="-0.60585">
        <ele>328</ele>
        <time>2023-05-18T00:33:32Z</time>
      </trkpt>
      <trkpt lat="43.07157" lon="-0.606">
        <ele>327</ele>
        <time>2023-05-18T00:33:38Z</time>
      </trkpt>
      <trkpt lat="43.07178" lon="-0.60617">
        <ele>328</ele>
        <time>2023-05-18T00:33:42Z</time>
      </trkpt>
      <trkpt lat="43.07189" lon="-0.60629">
        <ele>328</ele>
        <time>2023-05-18T00:33:44Z</time>
      </trkpt>
      <trkpt lat="43.07196" lon="-0.60622">
        <ele>328</ele>
        <time>2023-05-18T00:33:46Z</time>
      </trkpt>
      <trkpt lat="43.07208" lon="-0.6062">
        <ele>329</ele>
        <time>2023-05-18T00:33:48Z</time>
      </trkpt>
      <trkpt lat="43.07247" lon="-0.6062">
        <ele>329</ele>
        <time>2023-05-18T00:33:55Z</time>
      </trkpt>
      <trkpt lat="43.07316" lon="-0.60614">
        <ele>336</ele>
        <time>2023-05-18T00:34:07Z</time>
      </trkpt>
      <trkpt lat="43.07331" lon="-0.60616">
        <ele>337</ele>
        <time>2023-05-18T00:34:10Z</time>
      </trkpt>
      <trkpt lat="43.07375" lon="-0.60631">
        <ele>337</ele>
        <time>2023-05-18T00:34:18Z</time>
      </trkpt>
      <trkpt lat="43.07464" lon="-0.60679">
        <ele>325</ele>
        <time>2023-05-18T00:34:35Z</time>
      </trkpt>
      <trkpt lat="43.07487" lon="-0.60686">
        <ele>326</ele>
        <time>2023-05-18T00:34:39Z</time>
      </trkpt>
      <trkpt lat="43.07511" lon="-0.60678">
        <ele>328</ele>
        <time>2023-05-18T00:34:44Z</time>
      </trkpt>
      <trkpt lat="43.07518" lon="-0.60669">
        <ele>329</ele>
        <time>2023-05-18T00:34:45Z</time>
      </trkpt>
      <trkpt lat="43.07533" lon="-0.60622">
        <ele>339</ele>
        <time>2023-05-18T00:34:52Z</time>
      </trkpt>
      <trkpt lat="43.07541" lon="-0.6058">
        <ele>345</ele>
        <time>2023-05-18T00:34:58Z</time>
      </trkpt>
      <trkpt lat="43.07552" lon="-0.60554">
        <ele>345</ele>
        <time>2023-05-18T00:35:02Z</time>
      </trkpt>
      <trkpt lat="43.07588" lon="-0.60518">
        <ele>336</ele>
        <time>2023-05-18T00:35:10Z</time>
      </trkpt>
      <trkpt lat="43.07599" lon="-0.60516">
        <ele>336</ele>
        <time>2023-05-18T00:35:12Z</time>
      </trkpt>
      <trkpt lat="43.07621" lon="-0.60531">
        <ele>334</ele>
        <time>2023-05-18T00:35:16Z</time>
      </trkpt>
      <trkpt lat="43.07637" lon="-0.6055">
        <ele>333</ele>
        <time>2023-05-18T00:35:20Z</time>
      </trkpt>
      <trkpt lat="43.07667" lon="-0.60614">
        <ele>332</ele>
        <time>2023-05-18T00:35:30Z</time>
      </trkpt>
      <trkpt lat="43.07678" lon="-0.6059">
        <ele>336</ele>
        <time>2023-05-18T00:35:33Z</time>
      </trkpt>
      <trkpt lat="43.07681" lon="-0.60578">
        <ele>337</ele>
        <time>2023-05-18T00:35:35Z</time>
      </trkpt>
      <trkpt lat="43.07689" lon="-0.60511">
        <ele>343</ele>
        <time>2023-05-18T00:35:44Z</time>
      </trkpt>
      <trkpt lat="43.07686" lon="-0.60415">
        <ele>344</ele>
        <time>2023-05-18T00:35:56Z</time>
      </trkpt>
      <trkpt lat="43.07694" lon="-0.60307">
        <ele>344</ele>
        <time>2023-05-18T00:36:10Z</time>
      </trkpt>
      <trkpt lat="43.07691" lon="-0.60239">
        <ele>343</ele>
        <time>2023-05-18T00:36:19Z</time>
      </trkpt>
      <trkpt lat="43.07705" lon="-0.60083">
        <ele>356</ele>
        <time>2023-05-18T00:36:40Z</time>
      </trkpt>
      <trkpt lat="43.07699" lon="-0.59992">
        <ele>353</ele>
        <time>2023-05-18T00:36:52Z</time>
      </trkpt>
      <trkpt lat="43.07702" lon="-0.5996">
        <ele>353</ele>
        <time>2023-05-18T00:36:56Z</time>
      </trkpt>
      <trkpt lat="43.07722" lon="-0.59861">
        <ele>355</ele>
        <time>2023-05-18T00:37:09Z</time>
      </trkpt>
      <trkpt lat="43.07723" lon="-0.59745">
        <ele>358</ele>
        <time>2023-05-18T00:37:24Z</time>
      </trkpt>
      <trkpt lat="43.0773" lon="-0.59706">
        <ele>358</ele>
        <time>2023-05-18T00:37:29Z</time>
      </trkpt>
      <trkpt lat="43.07745" lon="-0.59676">
        <ele>353</ele>
        <time>2023-05-18T00:37:34Z</time>
      </trkpt>
      <trkpt lat="43.07773" lon="-0.59634">
        <ele>361</ele>
        <time>2023-05-18T00:37:41Z</time>
      </trkpt>
      <trkpt lat="43.07784" lon="-0.59607">
        <ele>365</ele>
        <time>2023-05-18T00:37:46Z</time>
      </trkpt>
      <trkpt lat="43.07791" lon="-0.5958">
        <ele>367</ele>
        <time>2023-05-18T00:37:49Z</time>
      </trkpt>
      <trkpt lat="43.07793" lon="-0.59549">
        <ele>369</ele>
        <time>2023-05-18T00:37:53Z</time>
      </trkpt>
      <trkpt lat="43.0779" lon="-0.59491">
        <ele>370</ele>
        <time>2023-05-18T00:38:01Z</time>
      </trkpt>
      <trkpt lat="43.07793" lon="-0.59456">
        <ele>373</ele>
        <time>2023-05-18T00:38:05Z</time>
      </trkpt>
      <trkpt lat="43.07805" lon="-0.59409">
        <ele>374</ele>
        <time>2023-05-18T00:38:12Z</time>
      </trkpt>
      <trkpt lat="43.07829" lon="-0.59342">
        <ele>367</ele>
        <time>2023-05-18T00:38:22Z</time>
      </trkpt>
      <trkpt lat="43.07839" lon="-0.59283">
        <ele>367</ele>
        <time>2023-05-18T00:38:29Z</time>
      </trkpt>
      <trkpt lat="43.07851" lon="-0.59134">
        <ele>375</ele>
        <time>2023-05-18T00:38:49Z</time>
      </trkpt>
      <trkpt lat="43.07852" lon="-0.59087">
        <ele>378</ele>
        <time>2023-05-18T00:38:55Z</time>
      </trkpt>
      <trkpt lat="43.07847" lon="-0.59017">
        <ele>379</ele>
        <time>2023-05-18T00:39:04Z</time>
      </trkpt>
      <trkpt lat="43.07848" lon="-0.589">
        <ele>383</ele>
        <time>2023-05-18T00:39:19Z</time>
      </trkpt>
      <trkpt lat="43.07852" lon="-0.58839">
        <ele>386</ele>
        <time>2023-05-18T00:39:27Z</time>
      </trkpt>
      <trkpt lat="43.0787" lon="-0.58759">
        <ele>395</ele>
        <time>2023-05-18T00:39:38Z</time>
      </trkpt>
      <trkpt lat="43.07887" lon="-0.58699">
        <ele>398</ele>
        <time>2023-05-18T00:39:47Z</time>
      </trkpt>
      <trkpt lat="43.07903" lon="-0.58621">
        <ele>399</ele>
        <time>2023-05-18T00:39:57Z</time>
      </trkpt>
      <trkpt lat="43.07906" lon="-0.58566">
        <ele>399</ele>
        <time>2023-05-18T00:40:04Z</time>
      </trkpt>
      <trkpt lat="43.07905" lon="-0.58538">
        <ele>400</ele>
        <time>2023-05-18T00:40:08Z</time>
      </trkpt>
      <trkpt lat="43.07895" lon="-0.58469">
        <ele>405</ele>
        <time>2023-05-18T00:40:17Z</time>
      </trkpt>
      <trkpt lat="43.07872" lon="-0.58381">
        <ele>410</ele>
        <time>2023-05-18T00:40:29Z</time>
      </trkpt>
      <trkpt lat="43.07868" lon="-0.58331">
        <ele>412</ele>
        <time>2023-05-18T00:40:36Z</time>
      </trkpt>
      <trkpt lat="43.07866" lon="-0.58252">
        <ele>420</ele>
        <time>2023-05-18T00:40:46Z</time>
      </trkpt>
      <trkpt lat="43.07869" lon="-0.58219">
        <ele>420</ele>
        <time>2023-05-18T00:40:50Z</time>
      </trkpt>
      <trkpt lat="43.07885" lon="-0.58159">
        <ele>420</ele>
        <time>2023-05-18T00:40:59Z</time>
      </trkpt>
      <trkpt lat="43.07892" lon="-0.58085">
        <ele>423</ele>
        <time>2023-05-18T00:41:08Z</time>
      </trkpt>
      <trkpt lat="43.07908" lon="-0.58002">
        <ele>430</ele>
        <time>2023-05-18T00:41:20Z</time>
      </trkpt>
      <trkpt lat="43.07913" lon="-0.57914">
        <ele>431</ele>
        <time>2023-05-18T00:41:31Z</time>
      </trkpt>
      <trkpt lat="43.0792" lon="-0.57895">
        <ele>432</ele>
        <time>2023-05-18T00:41:34Z</time>
      </trkpt>
      <trkpt lat="43.07961" lon="-0.57831">
        <ele>438</ele>
        <time>2023-05-18T00:41:45Z</time>
      </trkpt>
      <trkpt lat="43.07972" lon="-0.57817">
        <ele>441</ele>
        <time>2023-05-18T00:41:47Z</time>
      </trkpt>
      <trkpt lat="43.07981" lon="-0.57811">
        <ele>442</ele>
        <time>2023-05-18T00:41:49Z</time>
      </trkpt>
      <trkpt lat="43.07991" lon="-0.57813">
        <ele>440</ele>
        <time>2023-05-18T00:41:51Z</time>
      </trkpt>
      <trkpt lat="43.07995" lon="-0.57817">
        <ele>439</ele>
        <time>2023-05-18T00:41:52Z</time>
      </trkpt>
      <trkpt lat="43.08017" lon="-0.57876">
        <ele>442</ele>
        <time>2023-05-18T00:42:01Z</time>
      </trkpt>
      <trkpt lat="43.08026" lon="-0.57889">
        <ele>444</ele>
        <time>2023-05-18T00:42:03Z</time>
      </trkpt>
      <trkpt lat="43.08038" lon="-0.57895">
        <ele>445</ele>
        <time>2023-05-18T00:42:05Z</time>
      </trkpt>
      <trkpt lat="43.08058" lon="-0.57898">
        <ele>445</ele>
        <time>2023-05-18T00:42:09Z</time>
      </trkpt>
      <trkpt lat="43.08073" lon="-0.57895">
        <ele>445</ele>
        <time>2023-05-18T00:42:11Z</time>
      </trkpt>
      <trkpt lat="43.08085" lon="-0.57887">
        <ele>444</ele>
        <time>2023-05-18T00:42:14Z</time>
      </trkpt>
      <trkpt lat="43.08097" lon="-0.57867">
        <ele>444</ele>
        <time>2023-05-18T00:42:17Z</time>
      </trkpt>
      <trkpt lat="43.08101" lon="-0.57845">
        <ele>441</ele>
        <time>2023-05-18T00:42:20Z</time>
      </trkpt>
      <trkpt lat="43.08112" lon="-0.57725">
        <ele>444</ele>
        <time>2023-05-18T00:42:36Z</time>
      </trkpt>
      <trkpt lat="43.08111" lon="-0.57674">
        <ele>444</ele>
        <time>2023-05-18T00:42:42Z</time>
      </trkpt>
      <trkpt lat="43.08092" lon="-0.57614">
        <ele>447</ele>
        <time>2023-05-18T00:42:51Z</time>
      </trkpt>
      <trkpt lat="43.08058" lon="-0.57558">
        <ele>464</ele>
        <time>2023-05-18T00:43:00Z</time>
      </trkpt>
      <trkpt lat="43.08054" lon="-0.57548">
        <ele>466</ele>
        <time>2023-05-18T00:43:02Z</time>
      </trkpt>
      <trkpt lat="43.08052" lon="-0.57519">
        <ele>468</ele>
        <time>2023-05-18T00:43:06Z</time>
      </trkpt>
      <trkpt lat="43.08069" lon="-0.57426">
        <ele>464</ele>
        <time>2023-05-18T00:43:18Z</time>
      </trkpt>
      <trkpt lat="43.08075" lon="-0.57409">
        <ele>463</ele>
        <time>2023-05-18T00:43:21Z</time>
      </trkpt>
      <trkpt lat="43.08105" lon="-0.57346">
        <ele>463</ele>
        <time>2023-05-18T00:43:30Z</time>
      </trkpt>
      <trkpt lat="43.08119" lon="-0.57309">
        <ele>465</ele>
        <time>2023-05-18T00:43:36Z</time>
      </trkpt>
      <trkpt lat="43.08122" lon="-0.5729">
        <ele>465</ele>
        <time>2023-05-18T00:43:38Z</time>
      </trkpt>
      <trkpt lat="43.0812" lon="-0.57215">
        <ele>466</ele>
        <time>2023-05-18T00:43:48Z</time>
      </trkpt>
      <trkpt lat="43.08115" lon="-0.5718">
        <ele>468</ele>
        <time>2023-05-18T00:43:53Z</time>
      </trkpt>
      <trkpt lat="43.08107" lon="-0.57149">
        <ele>468</ele>
        <time>2023-05-18T00:43:57Z</time>
      </trkpt>
      <trkpt lat="43.08097" lon="-0.57125">
        <ele>468</ele>
        <time>2023-05-18T00:44:01Z</time>
      </trkpt>
      <trkpt lat="43.08068" lon="-0.57084">
        <ele>475</ele>
        <time>2023-05-18T00:44:08Z</time>
      </trkpt>
      <trkpt lat="43.08056" lon="-0.57052">
        <ele>482</ele>
        <time>2023-05-18T00:44:13Z</time>
      </trkpt>
      <trkpt lat="43.08052" lon="-0.57027">
        <ele>483</ele>
        <time>2023-05-18T00:44:16Z</time>
      </trkpt>
      <trkpt lat="43.08052" lon="-0.56989">
        <ele>482</ele>
        <time>2023-05-18T00:44:21Z</time>
      </trkpt>
      <trkpt lat="43.08056" lon="-0.56947">
        <ele>481</ele>
        <time>2023-05-18T00:44:26Z</time>
      </trkpt>
      <trkpt lat="43.08052" lon="-0.56885">
        <ele>484</ele>
        <time>2023-05-18T00:44:35Z</time>
      </trkpt>
      <trkpt lat="43.08015" lon="-0.56771">
        <ele>489</ele>
        <time>2023-05-18T00:44:51Z</time>
      </trkpt>
      <trkpt lat="43.0801" lon="-0.56748">
        <ele>490</ele>
        <time>2023-05-18T00:44:54Z</time>
      </trkpt>
      <trkpt lat="43.0801" lon="-0.56712">
        <ele>491</ele>
        <time>2023-05-18T00:44:59Z</time>
      </trkpt>
      <trkpt lat="43.08027" lon="-0.56629">
        <ele>497</ele>
        <time>2023-05-18T00:45:10Z</time>
      </trkpt>
      <trkpt lat="43.0803" lon="-0.56591">
        <ele>501</ele>
        <time>2023-05-18T00:45:15Z</time>
      </trkpt>
      <trkpt lat="43.08027" lon="-0.56557">
        <ele>502</ele>
        <time>2023-05-18T00:45:19Z</time>
      </trkpt>
      <trkpt lat="43.07999" lon="-0.56392">
        <ele>496</ele>
        <time>2023-05-18T00:45:41Z</time>
      </trkpt>
      <trkpt lat="43.07991" lon="-0.5637">
        <ele>499</ele>
        <time>2023-05-18T00:45:44Z</time>
      </trkpt>
      <trkpt lat="43.07979" lon="-0.56355">
        <ele>501</ele>
        <time>2023-05-18T00:45:47Z</time>
      </trkpt>
      <trkpt lat="43.07964" lon="-0.56344">
        <ele>504</ele>
        <time>2023-05-18T00:45:50Z</time>
      </trkpt>
      <trkpt lat="43.07942" lon="-0.56338">
        <ele>509</ele>
        <time>2023-05-18T00:45:54Z</time>
      </trkpt>
      <trkpt lat="43.07899" lon="-0.56337">
        <ele>518</ele>
        <time>2023-05-18T00:46:02Z</time>
      </trkpt>
      <trkpt lat="43.07876" lon="-0.56328">
        <ele>521</ele>
        <time>2023-05-18T00:46:06Z</time>
      </trkpt>
      <trkpt lat="43.07848" lon="-0.563">
        <ele>523</ele>
        <time>2023-05-18T00:46:12Z</time>
      </trkpt>
      <trkpt lat="43.07836" lon="-0.56282">
        <ele>521</ele>
        <time>2023-05-18T00:46:16Z</time>
      </trkpt>
      <trkpt lat="43.07827" lon="-0.5626">
        <ele>520</ele>
        <time>2023-05-18T00:46:19Z</time>
      </trkpt>
      <trkpt lat="43.07822" lon="-0.56234">
        <ele>521</ele>
        <time>2023-05-18T00:46:22Z</time>
      </trkpt>
      <trkpt lat="43.07806" lon="-0.56093">
        <ele>532</ele>
        <time>2023-05-18T00:46:41Z</time>
      </trkpt>
      <trkpt lat="43.07798" lon="-0.56057">
        <ele>535</ele>
        <time>2023-05-18T00:46:46Z</time>
      </trkpt>
      <trkpt lat="43.07784" lon="-0.56023">
        <ele>536</ele>
        <time>2023-05-18T00:46:51Z</time>
      </trkpt>
      <trkpt lat="43.07745" lon="-0.55968">
        <ele>532</ele>
        <time>2023-05-18T00:47:01Z</time>
      </trkpt>
      <trkpt lat="43.07733" lon="-0.55937">
        <ele>537</ele>
        <time>2023-05-18T00:47:05Z</time>
      </trkpt>
      <trkpt lat="43.07701" lon="-0.55825">
        <ele>544</ele>
        <time>2023-05-18T00:47:21Z</time>
      </trkpt>
      <trkpt lat="43.07692" lon="-0.55779">
        <ele>548</ele>
        <time>2023-05-18T00:47:27Z</time>
      </trkpt>
      <trkpt lat="43.07687" lon="-0.55697">
        <ele>553</ele>
        <time>2023-05-18T00:47:38Z</time>
      </trkpt>
      <trkpt lat="43.07652" lon="-0.55516">
        <ele>556</ele>
        <time>2023-05-18T00:48:02Z</time>
      </trkpt>
      <trkpt lat="43.07635" lon="-0.55443">
        <ele>564</ele>
        <time>2023-05-18T00:48:12Z</time>
      </trkpt>
      <trkpt lat="43.07621" lon="-0.55395">
        <ele>568</ele>
        <time>2023-05-18T00:48:19Z</time>
      </trkpt>
      <trkpt lat="43.07607" lon="-0.55366">
        <ele>568</ele>
        <time>2023-05-18T00:48:23Z</time>
      </trkpt>
      <trkpt lat="43.07568" lon="-0.55314">
        <ele>571</ele>
        <time>2023-05-18T00:48:33Z</time>
      </trkpt>
      <trkpt lat="43.07555" lon="-0.55291">
        <ele>575</ele>
        <time>2023-05-18T00:48:37Z</time>
      </trkpt>
      <trkpt lat="43.07539" lon="-0.55246">
        <ele>576</ele>
        <time>2023-05-18T00:48:43Z</time>
      </trkpt>
      <trkpt lat="43.07532" lon="-0.55216">
        <ele>579</ele>
        <time>2023-05-18T00:48:47Z</time>
      </trkpt>
      <trkpt lat="43.07529" lon="-0.55176">
        <ele>579</ele>
        <time>2023-05-18T00:48:53Z</time>
      </trkpt>
      <trkpt lat="43.07535" lon="-0.55125">
        <ele>581</ele>
        <time>2023-05-18T00:48:59Z</time>
      </trkpt>
      <trkpt lat="43.07537" lon="-0.55078">
        <ele>585</ele>
        <time>2023-05-18T00:49:05Z</time>
      </trkpt>
      <trkpt lat="43.07509" lon="-0.54868">
        <ele>601</ele>
        <time>2023-05-18T00:49:33Z</time>
      </trkpt>
      <trkpt lat="43.07487" lon="-0.54643">
        <ele>619</ele>
        <time>2023-05-18T00:50:03Z</time>
      </trkpt>
      <trkpt lat="43.0746" lon="-0.54527">
        <ele>637</ele>
        <time>2023-05-18T00:50:19Z</time>
      </trkpt>
      <trkpt lat="43.07464" lon="-0.54479">
        <ele>638</ele>
        <time>2023-05-18T00:50:25Z</time>
      </trkpt>
      <trkpt lat="43.07474" lon="-0.5443">
        <ele>637</ele>
        <time>2023-05-18T00:50:31Z</time>
      </trkpt>
      <trkpt lat="43.07476" lon="-0.544">
        <ele>637</ele>
        <time>2023-05-18T00:50:35Z</time>
      </trkpt>
      <trkpt lat="43.07471" lon="-0.54371">
        <ele>641</ele>
        <time>2023-05-18T00:50:39Z</time>
      </trkpt>
      <trkpt lat="43.07457" lon="-0.54324">
        <ele>651</ele>
        <time>2023-05-18T00:50:46Z</time>
      </trkpt>
      <trkpt lat="43.07453" lon="-0.54297">
        <ele>653</ele>
        <time>2023-05-18T00:50:49Z</time>
      </trkpt>
      <trkpt lat="43.0746" lon="-0.54194">
        <ele>649</ele>
        <time>2023-05-18T00:51:03Z</time>
      </trkpt>
      <trkpt lat="43.07459" lon="-0.54168">
        <ele>649</ele>
        <time>2023-05-18T00:51:06Z</time>
      </trkpt>
      <trkpt lat="43.07449" lon="-0.54124">
        <ele>654</ele>
        <time>2023-05-18T00:51:12Z</time>
      </trkpt>
      <trkpt lat="43.07434" lon="-0.54084">
        <ele>660</ele>
        <time>2023-05-18T00:51:18Z</time>
      </trkpt>
      <trkpt lat="43.07364" lon="-0.53953">
        <ele>675</ele>
        <time>2023-05-18T00:51:39Z</time>
      </trkpt>
      <trkpt lat="43.0735" lon="-0.53922">
        <ele>679</ele>
        <time>2023-05-18T00:51:44Z</time>
      </trkpt>
      <trkpt lat="43.0734" lon="-0.53889">
        <ele>684</ele>
        <time>2023-05-18T00:51:49Z</time>
      </trkpt>
      <trkpt lat="43.07326" lon="-0.53811">
        <ele>694</ele>
        <time>2023-05-18T00:51:59Z</time>
      </trkpt>
      <trkpt lat="43.07323" lon="-0.53735">
        <ele>700</ele>
        <time>2023-05-18T00:52:09Z</time>
      </trkpt>
      <trkpt lat="43.07325" lon="-0.53711">
        <ele>702</ele>
        <time>2023-05-18T00:52:12Z</time>
      </trkpt>
      <trkpt lat="43.07339" lon="-0.53631">
        <ele>704</ele>
        <time>2023-05-18T00:52:23Z</time>
      </trkpt>
      <trkpt lat="43.0734" lon="-0.53583">
        <ele>709</ele>
        <time>2023-05-18T00:52:29Z</time>
      </trkpt>
      <trkpt lat="43.07338" lon="-0.53551">
        <ele>713</ele>
        <time>2023-05-18T00:52:33Z</time>
      </trkpt>
      <trkpt lat="43.07331" lon="-0.53483">
        <ele>719</ele>
        <time>2023-05-18T00:52:42Z</time>
      </trkpt>
      <trkpt lat="43.07306" lon="-0.5342">
        <ele>731</ele>
        <time>2023-05-18T00:52:51Z</time>
      </trkpt>
      <trkpt lat="43.07293" lon="-0.53379">
        <ele>742</ele>
        <time>2023-05-18T00:52:57Z</time>
      </trkpt>
      <trkpt lat="43.07287" lon="-0.53338">
        <ele>750</ele>
        <time>2023-05-18T00:53:03Z</time>
      </trkpt>
      <trkpt lat="43.07285" lon="-0.53297">
        <ele>761</ele>
        <time>2023-05-18T00:53:08Z</time>
      </trkpt>
      <trkpt lat="43.07288" lon="-0.53268">
        <ele>766</ele>
        <time>2023-05-18T00:53:12Z</time>
      </trkpt>
      <trkpt lat="43.07296" lon="-0.5324">
        <ele>768</ele>
        <time>2023-05-18T00:53:16Z</time>
      </trkpt>
      <trkpt lat="43.07334" lon="-0.5317">
        <ele>765</ele>
        <time>2023-05-18T00:53:27Z</time>
      </trkpt>
      <trkpt lat="43.07344" lon="-0.53144">
        <ele>764</ele>
        <time>2023-05-18T00:53:31Z</time>
      </trkpt>
      <trkpt lat="43.0735" lon="-0.53105">
        <ele>767</ele>
        <time>2023-05-18T00:53:36Z</time>
      </trkpt>
      <trkpt lat="43.0735" lon="-0.53083">
        <ele>771</ele>
        <time>2023-05-18T00:53:39Z</time>
      </trkpt>
      <trkpt lat="43.07344" lon="-0.53033">
        <ele>771</ele>
        <time>2023-05-18T00:53:45Z</time>
      </trkpt>
      <trkpt lat="43.07331" lon="-0.53009">
        <ele>777</ele>
        <time>2023-05-18T00:53:49Z</time>
      </trkpt>
      <trkpt lat="43.07295" lon="-0.52977">
        <ele>795</ele>
        <time>2023-05-18T00:53:57Z</time>
      </trkpt>
      <trkpt lat="43.07261" lon="-0.52929">
        <ele>803</ele>
        <time>2023-05-18T00:54:06Z</time>
      </trkpt>
      <trkpt lat="43.07246" lon="-0.52892">
        <ele>802</ele>
        <time>2023-05-18T00:54:11Z</time>
      </trkpt>
      <trkpt lat="43.07233" lon="-0.52844">
        <ele>797</ele>
        <time>2023-05-18T00:54:18Z</time>
      </trkpt>
      <trkpt lat="43.07222" lon="-0.52825">
        <ele>799</ele>
        <time>2023-05-18T00:54:21Z</time>
      </trkpt>
      <trkpt lat="43.07215" lon="-0.52817">
        <ele>801</ele>
        <time>2023-05-18T00:54:23Z</time>
      </trkpt>
      <trkpt lat="43.07205" lon="-0.52811">
        <ele>805</ele>
        <time>2023-05-18T00:54:25Z</time>
      </trkpt>
      <trkpt lat="43.07171" lon="-0.52803">
        <ele>822</ele>
        <time>2023-05-18T00:54:31Z</time>
      </trkpt>
      <trkpt lat="43.0716" lon="-0.52796">
        <ele>825</ele>
        <time>2023-05-18T00:54:33Z</time>
      </trkpt>
      <trkpt lat="43.07156" lon="-0.52789">
        <ele>825</ele>
        <time>2023-05-18T00:54:34Z</time>
      </trkpt>
      <trkpt lat="43.07125" lon="-0.52648">
        <ele>822</ele>
        <time>2023-05-18T00:54:53Z</time>
      </trkpt>
      <trkpt lat="43.07087" lon="-0.52535">
        <ele>841</ele>
        <time>2023-05-18T00:55:09Z</time>
      </trkpt>
      <trkpt lat="43.07028" lon="-0.5234">
        <ele>871</ele>
        <time>2023-05-18T00:55:37Z</time>
      </trkpt>
      <trkpt lat="43.0701" lon="-0.52257">
        <ele>883</ele>
        <time>2023-05-18T00:55:48Z</time>
      </trkpt>
      <trkpt lat="43.07001" lon="-0.52155">
        <ele>893</ele>
        <time>2023-05-18T00:56:01Z</time>
      </trkpt>
      <trkpt lat="43.07007" lon="-0.52112">
        <ele>894</ele>
        <time>2023-05-18T00:56:07Z</time>
      </trkpt>
      <trkpt lat="43.07013" lon="-0.52035">
        <ele>898</ele>
        <time>2023-05-18T00:56:17Z</time>
      </trkpt>
      <trkpt lat="43.07004" lon="-0.51966">
        <ele>911</ele>
        <time>2023-05-18T00:56:26Z</time>
      </trkpt>
      <trkpt lat="43.07003" lon="-0.5194">
        <ele>915</ele>
        <time>2023-05-18T00:56:30Z</time>
      </trkpt>
      <trkpt lat="43.07009" lon="-0.51909">
        <ele>917</ele>
        <time>2023-05-18T00:56:34Z</time>
      </trkpt>
      <trkpt lat="43.07042" lon="-0.51795">
        <ele>922</ele>
        <time>2023-05-18T00:56:50Z</time>
      </trkpt>
      <trkpt lat="43.07049" lon="-0.51754">
        <ele>925</ele>
        <time>2023-05-18T00:56:55Z</time>
      </trkpt>
      <trkpt lat="43.07055" lon="-0.5166">
        <ele>934</ele>
        <time>2023-05-18T00:57:07Z</time>
      </trkpt>
      <trkpt lat="43.07048" lon="-0.51605">
        <ele>942</ele>
        <time>2023-05-18T00:57:15Z</time>
      </trkpt>
      <trkpt lat="43.07058" lon="-0.51533">
        <ele>943</ele>
        <time>2023-05-18T00:57:24Z</time>
      </trkpt>
      <trkpt lat="43.07059" lon="-0.51452">
        <ele>957</ele>
        <time>2023-05-18T00:57:35Z</time>
      </trkpt>
      <trkpt lat="43.07076" lon="-0.51357">
        <ele>960</ele>
        <time>2023-05-18T00:57:47Z</time>
      </trkpt>
      <trkpt lat="43.07077" lon="-0.51339">
        <ele>962</ele>
        <time>2023-05-18T00:57:50Z</time>
      </trkpt>
      <trkpt lat="43.07074" lon="-0.51295">
        <ele>965</ele>
        <time>2023-05-18T00:57:56Z</time>
      </trkpt>
      <trkpt lat="43.07062" lon="-0.51267">
        <ele>972</ele>
        <time>2023-05-18T00:58:00Z</time>
      </trkpt>
      <trkpt lat="43.0704" lon="-0.51235">
        <ele>985</ele>
        <time>2023-05-18T00:58:05Z</time>
      </trkpt>
      <trkpt lat="43.07034" lon="-0.51222">
        <ele>988</ele>
        <time>2023-05-18T00:58:07Z</time>
      </trkpt>
      <trkpt lat="43.07034" lon="-0.51178">
        <ele>987</ele>
        <time>2023-05-18T00:58:13Z</time>
      </trkpt>
      <trkpt lat="43.0703" lon="-0.51149">
        <ele>989</ele>
        <time>2023-05-18T00:58:17Z</time>
      </trkpt>
      <trkpt lat="43.07012" lon="-0.51097">
        <ele>994</ele>
        <time>2023-05-18T00:58:25Z</time>
      </trkpt>
      <trkpt lat="43.07001" lon="-0.51074">
        <ele>996</ele>
        <time>2023-05-18T00:58:28Z</time>
      </trkpt>
      <trkpt lat="43.06988" lon="-0.5106">
        <ele>1001</ele>
        <time>2023-05-18T00:58:31Z</time>
      </trkpt>
      <trkpt lat="43.06968" lon="-0.51046">
        <ele>1007</ele>
        <time>2023-05-18T00:58:35Z</time>
      </trkpt>
      <trkpt lat="43.06939" lon="-0.51031">
        <ele>1012</ele>
        <time>2023-05-18T00:58:41Z</time>
      </trkpt>
      <trkpt lat="43.06877" lon="-0.51014">
        <ele>1022</ele>
        <time>2023-05-18T00:58:52Z</time>
      </trkpt>
      <trkpt lat="43.06862" lon="-0.51007">
        <ele>1024</ele>
        <time>2023-05-18T00:58:55Z</time>
      </trkpt>
      <trkpt lat="43.06852" lon="-0.50997">
        <ele>1025</ele>
        <time>2023-05-18T00:58:57Z</time>
      </trkpt>
      <trkpt lat="43.06853" lon="-0.50987">
        <ele>1027</ele>
        <time>2023-05-18T00:58:58Z</time>
      </trkpt>
      <trkpt lat="43.06861" lon="-0.50976">
        <ele>1027</ele>
        <time>2023-05-18T00:59:00Z</time>
      </trkpt>
      <trkpt lat="43.06898" lon="-0.50951">
        <ele>1026</ele>
        <time>2023-05-18T00:59:07Z</time>
      </trkpt>
      <trkpt lat="43.06965" lon="-0.50897">
        <ele>1030</ele>
        <time>2023-05-18T00:59:21Z</time>
      </trkpt>
      <trkpt lat="43.07013" lon="-0.50838">
        <ele>1035</ele>
        <time>2023-05-18T00:59:33Z</time>
      </trkpt>
      <trkpt lat="43.0704" lon="-0.50801">
        <ele>1039</ele>
        <time>2023-05-18T00:59:40Z</time>
      </trkpt>
      <trkpt lat="43.07047" lon="-0.50786">
        <ele>1039</ele>
        <time>2023-05-18T00:59:42Z</time>
      </trkpt>
      <trkpt lat="43.07049" lon="-0.50762">
        <ele>1041</ele>
        <time>2023-05-18T00:59:45Z</time>
      </trkpt>
      <trkpt lat="43.07044" lon="-0.50716">
        <ele>1041</ele>
        <time>2023-05-18T00:59:51Z</time>
      </trkpt>
      <trkpt lat="43.07037" lon="-0.5069">
        <ele>1040</ele>
        <time>2023-05-18T00:59:55Z</time>
      </trkpt>
      <trkpt lat="43.07018" lon="-0.50644">
        <ele>1040</ele>
        <time>2023-05-18T01:00:02Z</time>
      </trkpt>
      <trkpt lat="43.07007" lon="-0.50629">
        <ele>1040</ele>
        <time>2023-05-18T01:00:04Z</time>
      </trkpt>
      <trkpt lat="43.06979" lon="-0.50615">
        <ele>1046</ele>
        <time>2023-05-18T01:00:10Z</time>
      </trkpt>
      <trkpt lat="43.06969" lon="-0.506">
        <ele>1046</ele>
        <time>2023-05-18T01:00:12Z</time>
      </trkpt>
      <trkpt lat="43.06959" lon="-0.50577">
        <ele>1045</ele>
        <time>2023-05-18T01:00:16Z</time>
      </trkpt>
      <trkpt lat="43.06937" lon="-0.50537">
        <ele>1044</ele>
        <time>2023-05-18T01:00:22Z</time>
      </trkpt>
      <trkpt lat="43.06927" lon="-0.50512">
        <ele>1043</ele>
        <time>2023-05-18T01:00:26Z</time>
      </trkpt>
      <trkpt lat="43.06921" lon="-0.50489">
        <ele>1042</ele>
        <time>2023-05-18T01:00:29Z</time>
      </trkpt>
      <trkpt lat="43.06921" lon="-0.50459">
        <ele>1040</ele>
        <time>2023-05-18T01:00:33Z</time>
      </trkpt>
      <trkpt lat="43.06931" lon="-0.50426">
        <ele>1033</ele>
        <time>2023-05-18T01:00:38Z</time>
      </trkpt>
      <trkpt lat="43.06944" lon="-0.50361">
        <ele>1028</ele>
        <time>2023-05-18T01:00:46Z</time>
      </trkpt>
      <trkpt lat="43.06948" lon="-0.50311">
        <ele>1027</ele>
        <time>2023-05-18T01:00:53Z</time>
      </trkpt>
      <trkpt lat="43.06942" lon="-0.50242">
        <ele>1026</ele>
        <time>2023-05-18T01:01:02Z</time>
      </trkpt>
      <trkpt lat="43.06935" lon="-0.50212">
        <ele>1023</ele>
        <time>2023-05-18T01:01:06Z</time>
      </trkpt>
      <trkpt lat="43.06919" lon="-0.50182">
        <ele>1023</ele>
        <time>2023-05-18T01:01:11Z</time>
      </trkpt>
      <trkpt lat="43.06891" lon="-0.50154">
        <ele>1026</ele>
        <time>2023-05-18T01:01:17Z</time>
      </trkpt>
      <trkpt lat="43.06854" lon="-0.50102">
        <ele>1019</ele>
        <time>2023-05-18T01:01:27Z</time>
      </trkpt>
      <trkpt lat="43.06837" lon="-0.50087">
        <ele>1018</ele>
        <time>2023-05-18T01:01:30Z</time>
      </trkpt>
      <trkpt lat="43.06817" lon="-0.50077">
        <ele>1016</ele>
        <time>2023-05-18T01:01:34Z</time>
      </trkpt>
      <trkpt lat="43.06792" lon="-0.50059">
        <ele>1012</ele>
        <time>2023-05-18T01:01:39Z</time>
      </trkpt>
      <trkpt lat="43.06783" lon="-0.50055">
        <ele>1012</ele>
        <time>2023-05-18T01:01:41Z</time>
      </trkpt>
      <trkpt lat="43.06749" lon="-0.50052">
        <ele>1013</ele>
        <time>2023-05-18T01:01:47Z</time>
      </trkpt>
      <trkpt lat="43.06722" lon="-0.50044">
        <ele>1008</ele>
        <time>2023-05-18T01:01:52Z</time>
      </trkpt>
      <trkpt lat="43.06704" lon="-0.50046">
        <ele>1006</ele>
        <time>2023-05-18T01:01:55Z</time>
      </trkpt>
      <trkpt lat="43.06641" lon="-0.50087">
        <ele>1012</ele>
        <time>2023-05-18T01:02:07Z</time>
      </trkpt>
      <trkpt lat="43.06612" lon="-0.5011">
        <ele>1016</ele>
        <time>2023-05-18T01:02:13Z</time>
      </trkpt>
      <trkpt lat="43.06572" lon="-0.50147">
        <ele>1022</ele>
        <time>2023-05-18T01:02:22Z</time>
      </trkpt>
      <trkpt lat="43.06534" lon="-0.50188">
        <ele>1026</ele>
        <time>2023-05-18T01:02:30Z</time>
      </trkpt>
      <trkpt lat="43.06518" lon="-0.50198">
        <ele>1025</ele>
        <time>2023-05-18T01:02:34Z</time>
      </trkpt>
      <trkpt lat="43.0651" lon="-0.50196">
        <ele>1023</ele>
        <time>2023-05-18T01:02:35Z</time>
      </trkpt>
      <trkpt lat="43.06505" lon="-0.5019">
        <ele>1021</ele>
        <time>2023-05-18T01:02:36Z</time>
      </trkpt>
      <trkpt lat="43.06499" lon="-0.50124">
        <ele>1016</ele>
        <time>2023-05-18T01:02:45Z</time>
      </trkpt>
      <trkpt lat="43.065" lon="-0.50107">
        <ele>1015</ele>
        <time>2023-05-18T01:02:47Z</time>
      </trkpt>
      <trkpt lat="43.06519" lon="-0.50013">
        <ele>1014</ele>
        <time>2023-05-18T01:03:00Z</time>
      </trkpt>
      <trkpt lat="43.06527" lon="-0.49955">
        <ele>1011</ele>
        <time>2023-05-18T01:03:07Z</time>
      </trkpt>
      <trkpt lat="43.06527" lon="-0.49936">
        <ele>1010</ele>
        <time>2023-05-18T01:03:10Z</time>
      </trkpt>
      <trkpt lat="43.06524" lon="-0.49911">
        <ele>1010</ele>
        <time>2023-05-18T01:03:13Z</time>
      </trkpt>
      <trkpt lat="43.06511" lon="-0.49856">
        <ele>1007</ele>
        <time>2023-05-18T01:03:21Z</time>
      </trkpt>
      <trkpt lat="43.06499" lon="-0.49827">
        <ele>1006</ele>
        <time>2023-05-18T01:03:25Z</time>
      </trkpt>
      <trkpt lat="43.0649" lon="-0.4982">
        <ele>1005</ele>
        <time>2023-05-18T01:03:27Z</time>
      </trkpt>
      <trkpt lat="43.06477" lon="-0.4982">
        <ele>1006</ele>
        <time>2023-05-18T01:03:29Z</time>
      </trkpt>
      <trkpt lat="43.0644" lon="-0.49853">
        <ele>1013</ele>
        <time>2023-05-18T01:03:37Z</time>
      </trkpt>
      <trkpt lat="43.06421" lon="-0.49866">
        <ele>1017</ele>
        <time>2023-05-18T01:03:41Z</time>
      </trkpt>
      <trkpt lat="43.06405" lon="-0.49868">
        <ele>1020</ele>
        <time>2023-05-18T01:03:44Z</time>
      </trkpt>
      <trkpt lat="43.06391" lon="-0.49866">
        <ele>1021</ele>
        <time>2023-05-18T01:03:46Z</time>
      </trkpt>
      <trkpt lat="43.06376" lon="-0.49852">
        <ele>1021</ele>
        <time>2023-05-18T01:03:49Z</time>
      </trkpt>
      <trkpt lat="43.06315" lon="-0.49764">
        <ele>1014</ele>
        <time>2023-05-18T01:04:05Z</time>
      </trkpt>
      <trkpt lat="43.06271" lon="-0.49715">
        <ele>1013</ele>
        <time>2023-05-18T01:04:15Z</time>
      </trkpt>
      <trkpt lat="43.06229" lon="-0.4969">
        <ele>1015</ele>
        <time>2023-05-18T01:04:23Z</time>
      </trkpt>
      <trkpt lat="43.06213" lon="-0.49675">
        <ele>1014</ele>
        <time>2023-05-18T01:04:27Z</time>
      </trkpt>
      <trkpt lat="43.06198" lon="-0.49656">
        <ele>1013</ele>
        <time>2023-05-18T01:04:30Z</time>
      </trkpt>
      <trkpt lat="43.06183" lon="-0.49646">
        <ele>1014</ele>
        <time>2023-05-18T01:04:33Z</time>
      </trkpt>
      <trkpt lat="43.06164" lon="-0.4964">
        <ele>1015</ele>
        <time>2023-05-18T01:04:37Z</time>
      </trkpt>
      <trkpt lat="43.06109" lon="-0.49635">
        <ele>1018</ele>
        <time>2023-05-18T01:04:47Z</time>
      </trkpt>
      <trkpt lat="43.06077" lon="-0.4962">
        <ele>1019</ele>
        <time>2023-05-18T01:04:53Z</time>
      </trkpt>
      <trkpt lat="43.06055" lon="-0.49613">
        <ele>1026</ele>
        <time>2023-05-18T01:04:57Z</time>
      </trkpt>
      <trkpt lat="43.0605" lon="-0.49608">
        <ele>1027</ele>
        <time>2023-05-18T01:04:58Z</time>
      </trkpt>
      <trkpt lat="43.06043" lon="-0.49594">
        <ele>1026</ele>
        <time>2023-05-18T01:05:00Z</time>
      </trkpt>
      <trkpt lat="43.06033" lon="-0.4955">
        <ele>1023</ele>
        <time>2023-05-18T01:05:06Z</time>
      </trkpt>
      <trkpt lat="43.06007" lon="-0.49466">
        <ele>1022</ele>
        <time>2023-05-18T01:05:18Z</time>
      </trkpt>
      <trkpt lat="43.06004" lon="-0.49439">
        <ele>1021</ele>
        <time>2023-05-18T01:05:21Z</time>
      </trkpt>
      <trkpt lat="43.06011" lon="-0.49398">
        <ele>1016</ele>
        <time>2023-05-18T01:05:27Z</time>
      </trkpt>
      <trkpt lat="43.06025" lon="-0.4936">
        <ele>1012</ele>
        <time>2023-05-18T01:05:32Z</time>
      </trkpt>
      <trkpt lat="43.06048" lon="-0.49316">
        <ele>1007</ele>
        <time>2023-05-18T01:05:39Z</time>
      </trkpt>
      <trkpt lat="43.06058" lon="-0.49289">
        <ele>1005</ele>
        <time>2023-05-18T01:05:43Z</time>
      </trkpt>
      <trkpt lat="43.0606" lon="-0.49258">
        <ele>1006</ele>
        <time>2023-05-18T01:05:47Z</time>
      </trkpt>
      <trkpt lat="43.06055" lon="-0.49221">
        <ele>1005</ele>
        <time>2023-05-18T01:05:52Z</time>
      </trkpt>
      <trkpt lat="43.06045" lon="-0.49186">
        <ele>1006</ele>
        <time>2023-05-18T01:05:57Z</time>
      </trkpt>
      <trkpt lat="43.06017" lon="-0.4911">
        <ele>1006</ele>
        <time>2023-05-18T01:06:08Z</time>
      </trkpt>
      <trkpt lat="43.06004" lon="-0.49086">
        <ele>1007</ele>
        <time>2023-05-18T01:06:12Z</time>
      </trkpt>
      <trkpt lat="43.05996" lon="-0.49084">
        <ele>1007</ele>
        <time>2023-05-18T01:06:14Z</time>
      </trkpt>
      <trkpt lat="43.05989" lon="-0.49087">
        <ele>1006</ele>
        <time>2023-05-18T01:06:15Z</time>
      </trkpt>
      <trkpt lat="43.05953" lon="-0.49145">
        <ele>1008</ele>
        <time>2023-05-18T01:06:25Z</time>
      </trkpt>
      <trkpt lat="43.05947" lon="-0.49168">
        <ele>1011</ele>
        <time>2023-05-18T01:06:28Z</time>
      </trkpt>
      <trkpt lat="43.05939" lon="-0.49252">
        <ele>1014</ele>
        <time>2023-05-18T01:06:39Z</time>
      </trkpt>
      <trkpt lat="43.0593" lon="-0.49298">
        <ele>1017</ele>
        <time>2023-05-18T01:06:45Z</time>
      </trkpt>
      <trkpt lat="43.05926" lon="-0.49311">
        <ele>1018</ele>
        <time>2023-05-18T01:06:47Z</time>
      </trkpt>
      <trkpt lat="43.05915" lon="-0.4933">
        <ele>1019</ele>
        <time>2023-05-18T01:06:50Z</time>
      </trkpt>
      <trkpt lat="43.05893" lon="-0.49345">
        <ele>1022</ele>
        <time>2023-05-18T01:06:55Z</time>
      </trkpt>
      <trkpt lat="43.05879" lon="-0.49345">
        <ele>1021</ele>
        <time>2023-05-18T01:06:57Z</time>
      </trkpt>
      <trkpt lat="43.0586" lon="-0.49333">
        <ele>1015</ele>
        <time>2023-05-18T01:07:01Z</time>
      </trkpt>
      <trkpt lat="43.05845" lon="-0.49318">
        <ele>1012</ele>
        <time>2023-05-18T01:07:04Z</time>
      </trkpt>
      <trkpt lat="43.05838" lon="-0.49307">
        <ele>1010</ele>
        <time>2023-05-18T01:07:06Z</time>
      </trkpt>
      <trkpt lat="43.05837" lon="-0.49301">
        <ele>1009</ele>
        <time>2023-05-18T01:07:07Z</time>
      </trkpt>
      <trkpt lat="43.05838" lon="-0.4929">
        <ele>1008</ele>
        <time>2023-05-18T01:07:08Z</time>
      </trkpt>
      <trkpt lat="43.05844" lon="-0.49277">
        <ele>1007</ele>
        <time>2023-05-18T01:07:10Z</time>
      </trkpt>
      <trkpt lat="43.05869" lon="-0.49242">
        <ele>1005</ele>
        <time>2023-05-18T01:07:17Z</time>
      </trkpt>
      <trkpt lat="43.05888" lon="-0.49207">
        <ele>1004</ele>
        <time>2023-05-18T01:07:22Z</time>
      </trkpt>
      <trkpt lat="43.05908" lon="-0.49126">
        <ele>997</ele>
        <time>2023-05-18T01:07:33Z</time>
      </trkpt>
      <trkpt lat="43.05919" lon="-0.49104">
        <ele>995</ele>
        <time>2023-05-18T01:07:37Z</time>
      </trkpt>
      <trkpt lat="43.05944" lon="-0.49065">
        <ele>992</ele>
        <time>2023-05-18T01:07:44Z</time>
      </trkpt>
      <trkpt lat="43.05965" lon="-0.49013">
        <ele>984</ele>
        <time>2023-05-18T01:07:51Z</time>
      </trkpt>
      <trkpt lat="43.06006" lon="-0.48925">
        <ele>970</ele>
        <time>2023-05-18T01:08:05Z</time>
      </trkpt>
      <trkpt lat="43.06024" lon="-0.4887">
        <ele>956</ele>
        <time>2023-05-18T01:08:13Z</time>
      </trkpt>
      <trkpt lat="43.0605" lon="-0.48839">
        <ele>950</ele>
        <time>2023-05-18T01:08:19Z</time>
      </trkpt>
      <trkpt lat="43.06048" lon="-0.48826">
        <ele>947</ele>
        <time>2023-05-18T01:08:21Z</time>
      </trkpt>
      <trkpt lat="43.06043" lon="-0.48823">
        <ele>947</ele>
        <time>2023-05-18T01:08:22Z</time>
      </trkpt>
      <trkpt lat="43.06036" lon="-0.48825">
        <ele>947</ele>
        <time>2023-05-18T01:08:23Z</time>
      </trkpt>
      <trkpt lat="43.06001" lon="-0.48861">
        <ele>955</ele>
        <time>2023-05-18T01:08:31Z</time>
      </trkpt>
      <trkpt lat="43.05975" lon="-0.48882">
        <ele>956</ele>
        <time>2023-05-18T01:08:36Z</time>
      </trkpt>
      <trkpt lat="43.05958" lon="-0.48902">
        <ele>956</ele>
        <time>2023-05-18T01:08:40Z</time>
      </trkpt>
      <trkpt lat="43.05933" lon="-0.48919">
        <ele>954</ele>
        <time>2023-05-18T01:08:45Z</time>
      </trkpt>
      <trkpt lat="43.05911" lon="-0.48924">
        <ele>953</ele>
        <time>2023-05-18T01:08:49Z</time>
      </trkpt>
      <trkpt lat="43.05903" lon="-0.4892">
        <ele>955</ele>
        <time>2023-05-18T01:08:50Z</time>
      </trkpt>
      <trkpt lat="43.05897" lon="-0.48912">
        <ele>955</ele>
        <time>2023-05-18T01:08:52Z</time>
      </trkpt>
      <trkpt lat="43.05897" lon="-0.48896">
        <ele>953</ele>
        <time>2023-05-18T01:08:54Z</time>
      </trkpt>
      <trkpt lat="43.05933" lon="-0.48792">
        <ele>936</ele>
        <time>2023-05-18T01:09:09Z</time>
      </trkpt>
      <trkpt lat="43.05971" lon="-0.48655">
        <ele>919</ele>
        <time>2023-05-18T01:09:28Z</time>
      </trkpt>
      <trkpt lat="43.06004" lon="-0.48553">
        <ele>907</ele>
        <time>2023-05-18T01:09:43Z</time>
      </trkpt>
      <trkpt lat="43.0606" lon="-0.48188">
        <ele>887</ele>
        <time>2023-05-18T01:10:31Z</time>
      </trkpt>
      <trkpt lat="43.06077" lon="-0.48031">
        <ele>883</ele>
        <time>2023-05-18T01:10:52Z</time>
      </trkpt>
      <trkpt lat="43.06103" lon="-0.47912">
        <ele>880</ele>
        <time>2023-05-18T01:11:08Z</time>
      </trkpt>
      <trkpt lat="43.06114" lon="-0.47872">
        <ele>879</ele>
        <time>2023-05-18T01:11:13Z</time>
      </trkpt>
      <trkpt lat="43.06163" lon="-0.47761">
        <ele>879</ele>
        <time>2023-05-18T01:11:30Z</time>
      </trkpt>
      <trkpt lat="43.0618" lon="-0.47713">
        <ele>880</ele>
        <time>2023-05-18T01:11:37Z</time>
      </trkpt>
      <trkpt lat="43.06225" lon="-0.47555">
        <ele>879</ele>
        <time>2023-05-18T01:11:59Z</time>
      </trkpt>
      <trkpt lat="43.06264" lon="-0.47437">
        <ele>879</ele>
        <time>2023-05-18T01:12:16Z</time>
      </trkpt>
      <trkpt lat="43.06278" lon="-0.47418">
        <ele>878</ele>
        <time>2023-05-18T01:12:20Z</time>
      </trkpt>
      <trkpt lat="43.06324" lon="-0.47399">
        <ele>878</ele>
        <time>2023-05-18T01:12:28Z</time>
      </trkpt>
      <trkpt lat="43.06337" lon="-0.4739">
        <ele>878</ele>
        <time>2023-05-18T01:12:31Z</time>
      </trkpt>
      <trkpt lat="43.06347" lon="-0.47379">
        <ele>878</ele>
        <time>2023-05-18T01:12:33Z</time>
      </trkpt>
      <trkpt lat="43.06368" lon="-0.47334">
        <ele>879</ele>
        <time>2023-05-18T01:12:40Z</time>
      </trkpt>
      <trkpt lat="43.06383" lon="-0.4729">
        <ele>878</ele>
        <time>2023-05-18T01:12:46Z</time>
      </trkpt>
      <trkpt lat="43.06425" lon="-0.47143">
        <ele>879</ele>
        <time>2023-05-18T01:13:07Z</time>
      </trkpt>
      <trkpt lat="43.06437" lon="-0.47126">
        <ele>878</ele>
        <time>2023-05-18T01:13:10Z</time>
      </trkpt>
      <trkpt lat="43.06492" lon="-0.47071">
        <ele>877</ele>
        <time>2023-05-18T01:13:22Z</time>
      </trkpt>
      <trkpt lat="43.06505" lon="-0.47047">
        <ele>876</ele>
        <time>2023-05-18T01:13:26Z</time>
      </trkpt>
      <trkpt lat="43.06507" lon="-0.46971">
        <ele>876</ele>
        <time>2023-05-18T01:13:36Z</time>
      </trkpt>
      <trkpt lat="43.06511" lon="-0.46943">
        <ele>876</ele>
        <time>2023-05-18T01:13:39Z</time>
      </trkpt>
      <trkpt lat="43.06536" lon="-0.46828">
        <ele>881</ele>
        <time>2023-05-18T01:13:55Z</time>
      </trkpt>
      <trkpt lat="43.06546" lon="-0.46603">
        <ele>885</ele>
        <time>2023-05-18T01:14:24Z</time>
      </trkpt>
      <trkpt lat="43.06545" lon="-0.46563">
        <ele>884</ele>
        <time>2023-05-18T01:14:29Z</time>
      </trkpt>
      <trkpt lat="43.06534" lon="-0.46499">
        <ele>883</ele>
        <time>2023-05-18T01:14:38Z</time>
      </trkpt>
      <trkpt lat="43.06537" lon="-0.46418">
        <ele>876</ele>
        <time>2023-05-18T01:14:49Z</time>
      </trkpt>
      <trkpt lat="43.06542" lon="-0.46394">
        <ele>874</ele>
        <time>2023-05-18T01:14:52Z</time>
      </trkpt>
      <trkpt lat="43.06557" lon="-0.46348">
        <ele>873</ele>
        <time>2023-05-18T01:14:58Z</time>
      </trkpt>
      <trkpt lat="43.0661" lon="-0.46206">
        <ele>872</ele>
        <time>2023-05-18T01:15:19Z</time>
      </trkpt>
      <trkpt lat="43.06631" lon="-0.46134">
        <ele>873</ele>
        <time>2023-05-18T01:15:29Z</time>
      </trkpt>
      <trkpt lat="43.06632" lon="-0.46119">
        <ele>872</ele>
        <time>2023-05-18T01:15:31Z</time>
      </trkpt>
      <trkpt lat="43.0663" lon="-0.46035">
        <ele>869</ele>
        <time>2023-05-18T01:15:42Z</time>
      </trkpt>
      <trkpt lat="43.06627" lon="-0.46006">
        <ele>868</ele>
        <time>2023-05-18T01:15:46Z</time>
      </trkpt>
      <trkpt lat="43.06624" lon="-0.45997">
        <ele>868</ele>
        <time>2023-05-18T01:15:47Z</time>
      </trkpt>
      <trkpt lat="43.06612" lon="-0.4598">
        <ele>866</ele>
        <time>2023-05-18T01:15:50Z</time>
      </trkpt>
      <trkpt lat="43.06583" lon="-0.4596">
        <ele>858</ele>
        <time>2023-05-18T01:15:56Z</time>
      </trkpt>
      <trkpt lat="43.06567" lon="-0.45942">
        <ele>857</ele>
        <time>2023-05-18T01:16:00Z</time>
      </trkpt>
      <trkpt lat="43.06558" lon="-0.45924">
        <ele>857</ele>
        <time>2023-05-18T01:16:03Z</time>
      </trkpt>
      <trkpt lat="43.06551" lon="-0.45901">
        <ele>857</ele>
        <time>2023-05-18T01:16:06Z</time>
      </trkpt>
      <trkpt lat="43.06534" lon="-0.45884">
        <ele>855</ele>
        <time>2023-05-18T01:16:10Z</time>
      </trkpt>
      <trkpt lat="43.06513" lon="-0.45872">
        <ele>852</ele>
        <time>2023-05-18T01:16:14Z</time>
      </trkpt>
      <trkpt lat="43.0646" lon="-0.45829">
        <ele>848</ele>
        <time>2023-05-18T01:16:25Z</time>
      </trkpt>
      <trkpt lat="43.06438" lon="-0.45819">
        <ele>845</ele>
        <time>2023-05-18T01:16:29Z</time>
      </trkpt>
      <trkpt lat="43.06404" lon="-0.45811">
        <ele>841</ele>
        <time>2023-05-18T01:16:35Z</time>
      </trkpt>
      <trkpt lat="43.06376" lon="-0.458">
        <ele>840</ele>
        <time>2023-05-18T01:16:40Z</time>
      </trkpt>
      <trkpt lat="43.06346" lon="-0.45776">
        <ele>837</ele>
        <time>2023-05-18T01:16:46Z</time>
      </trkpt>
      <trkpt lat="43.06335" lon="-0.45775">
        <ele>836</ele>
        <time>2023-05-18T01:16:48Z</time>
      </trkpt>
      <trkpt lat="43.06301" lon="-0.45788">
        <ele>837</ele>
        <time>2023-05-18T01:16:54Z</time>
      </trkpt>
      <trkpt lat="43.06293" lon="-0.45788">
        <ele>837</ele>
        <time>2023-05-18T01:16:56Z</time>
      </trkpt>
      <trkpt lat="43.06243" lon="-0.45763">
        <ele>834</ele>
        <time>2023-05-18T01:17:05Z</time>
      </trkpt>
      <trkpt lat="43.06199" lon="-0.45759">
        <ele>833</ele>
        <time>2023-05-18T01:17:13Z</time>
      </trkpt>
      <trkpt lat="43.06191" lon="-0.45756">
        <ele>832</ele>
        <time>2023-05-18T01:17:15Z</time>
      </trkpt>
      <trkpt lat="43.06174" lon="-0.45745">
        <ele>831</ele>
        <time>2023-05-18T01:17:18Z</time>
      </trkpt>
      <trkpt lat="43.0616" lon="-0.4573">
        <ele>830</ele>
        <time>2023-05-18T01:17:21Z</time>
      </trkpt>
      <trkpt lat="43.06153" lon="-0.45715">
        <ele>830</ele>
        <time>2023-05-18T01:17:23Z</time>
      </trkpt>
      <trkpt lat="43.06155" lon="-0.45702">
        <ele>828</ele>
        <time>2023-05-18T01:17:25Z</time>
      </trkpt>
      <trkpt lat="43.06163" lon="-0.45692">
        <ele>827</ele>
        <time>2023-05-18T01:17:27Z</time>
      </trkpt>
      <trkpt lat="43.0619" lon="-0.45671">
        <ele>824</ele>
        <time>2023-05-18T01:17:33Z</time>
      </trkpt>
      <trkpt lat="43.06204" lon="-0.45654">
        <ele>821</ele>
        <time>2023-05-18T01:17:36Z</time>
      </trkpt>
      <trkpt lat="43.06216" lon="-0.45626">
        <ele>818</ele>
        <time>2023-05-18T01:17:40Z</time>
      </trkpt>
      <trkpt lat="43.06217" lon="-0.45612">
        <ele>816</ele>
        <time>2023-05-18T01:17:42Z</time>
      </trkpt>
      <trkpt lat="43.06212" lon="-0.45589">
        <ele>814</ele>
        <time>2023-05-18T01:17:45Z</time>
      </trkpt>
      <trkpt lat="43.06202" lon="-0.45577">
        <ele>812</ele>
        <time>2023-05-18T01:17:47Z</time>
      </trkpt>
      <trkpt lat="43.06195" lon="-0.45573">
        <ele>811</ele>
        <time>2023-05-18T01:17:49Z</time>
      </trkpt>
      <trkpt lat="43.06177" lon="-0.45569">
        <ele>810</ele>
        <time>2023-05-18T01:17:52Z</time>
      </trkpt>
      <trkpt lat="43.06087" lon="-0.45559">
        <ele>803</ele>
        <time>2023-05-18T01:18:08Z</time>
      </trkpt>
      <trkpt lat="43.06068" lon="-0.45554">
        <ele>801</ele>
        <time>2023-05-18T01:18:12Z</time>
      </trkpt>
      <trkpt lat="43.05982" lon="-0.45514">
        <ele>785</ele>
        <time>2023-05-18T01:18:28Z</time>
      </trkpt>
      <trkpt lat="43.05891" lon="-0.45479">
        <ele>772</ele>
        <time>2023-05-18T01:18:45Z</time>
      </trkpt>
      <trkpt lat="43.05867" lon="-0.45473">
        <ele>767</ele>
        <time>2023-05-18T01:18:49Z</time>
      </trkpt>
      <trkpt lat="43.0586" lon="-0.45468">
        <ele>766</ele>
        <time>2023-05-18T01:18:50Z</time>
      </trkpt>
      <trkpt lat="43.05857" lon="-0.45461">
        <ele>764</ele>
        <time>2023-05-18T01:18:51Z</time>
      </trkpt>
      <trkpt lat="43.05856" lon="-0.4545">
        <ele>762</ele>
        <time>2023-05-18T01:18:53Z</time>
      </trkpt>
      <trkpt lat="43.05859" lon="-0.4544">
        <ele>761</ele>
        <time>2023-05-18T01:18:54Z</time>
      </trkpt>
      <trkpt lat="43.05862" lon="-0.45436">
        <ele>761</ele>
        <time>2023-05-18T01:18:55Z</time>
      </trkpt>
      <trkpt lat="43.05877" lon="-0.45428">
        <ele>761</ele>
        <time>2023-05-18T01:18:58Z</time>
      </trkpt>
      <trkpt lat="43.05892" lon="-0.45426">
        <ele>761</ele>
        <time>2023-05-18T01:19:01Z</time>
      </trkpt>
      <trkpt lat="43.05944" lon="-0.45432">
        <ele>765</ele>
        <time>2023-05-18T01:19:10Z</time>
      </trkpt>
      <trkpt lat="43.05957" lon="-0.45431">
        <ele>765</ele>
        <time>2023-05-18T01:19:12Z</time>
      </trkpt>
      <trkpt lat="43.05969" lon="-0.45426">
        <ele>764</ele>
        <time>2023-05-18T01:19:14Z</time>
      </trkpt>
      <trkpt lat="43.05987" lon="-0.45406">
        <ele>761</ele>
        <time>2023-05-18T01:19:18Z</time>
      </trkpt>
      <trkpt lat="43.05999" lon="-0.45381">
        <ele>756</ele>
        <time>2023-05-18T01:19:22Z</time>
      </trkpt>
      <trkpt lat="43.06017" lon="-0.45356">
        <ele>752</ele>
        <time>2023-05-18T01:19:27Z</time>
      </trkpt>
      <trkpt lat="43.06071" lon="-0.45329">
        <ele>748</ele>
        <time>2023-05-18T01:19:37Z</time>
      </trkpt>
      <trkpt lat="43.06098" lon="-0.45312">
        <ele>745</ele>
        <time>2023-05-18T01:19:42Z</time>
      </trkpt>
      <trkpt lat="43.06183" lon="-0.4525">
        <ele>738</ele>
        <time>2023-05-18T01:20:00Z</time>
      </trkpt>
      <trkpt lat="43.06192" lon="-0.45241">
        <ele>737</ele>
        <time>2023-05-18T01:20:02Z</time>
      </trkpt>
      <trkpt lat="43.06209" lon="-0.4522">
        <ele>735</ele>
        <time>2023-05-18T01:20:06Z</time>
      </trkpt>
      <trkpt lat="43.06223" lon="-0.45197">
        <ele>732</ele>
        <time>2023-05-18T01:20:10Z</time>
      </trkpt>
      <trkpt lat="43.0628" lon="-0.45082">
        <ele>724</ele>
        <time>2023-05-18T01:20:28Z</time>
      </trkpt>
      <trkpt lat="43.06293" lon="-0.4504">
        <ele>724</ele>
        <time>2023-05-18T01:20:34Z</time>
      </trkpt>
      <trkpt lat="43.063" lon="-0.44965">
        <ele>722</ele>
        <time>2023-05-18T01:20:43Z</time>
      </trkpt>
      <trkpt lat="43.06301" lon="-0.44932">
        <ele>721</ele>
        <time>2023-05-18T01:20:48Z</time>
      </trkpt>
      <trkpt lat="43.06292" lon="-0.44794">
        <ele>713</ele>
        <time>2023-05-18T01:21:06Z</time>
      </trkpt>
      <trkpt lat="43.06271" lon="-0.44687">
        <ele>706</ele>
        <time>2023-05-18T01:21:20Z</time>
      </trkpt>
      <trkpt lat="43.06259" lon="-0.44602">
        <ele>698</ele>
        <time>2023-05-18T01:21:31Z</time>
      </trkpt>
      <trkpt lat="43.06258" lon="-0.44581">
        <ele>696</ele>
        <time>2023-05-18T01:21:34Z</time>
      </trkpt>
      <trkpt lat="43.06264" lon="-0.44424">
        <ele>687</ele>
        <time>2023-05-18T01:21:54Z</time>
      </trkpt>
      <trkpt lat="43.0626" lon="-0.44177">
        <ele>668</ele>
        <time>2023-05-18T01:22:27Z</time>
      </trkpt>
      <trkpt lat="43.06256" lon="-0.44096">
        <ele>660</ele>
        <time>2023-05-18T01:22:37Z</time>
      </trkpt>
      <trkpt lat="43.06265" lon="-0.44055">
        <ele>660</ele>
        <time>2023-05-18T01:22:43Z</time>
      </trkpt>
      <trkpt lat="43.06259" lon="-0.44039">
        <ele>656</ele>
        <time>2023-05-18T01:22:45Z</time>
      </trkpt>
      <trkpt lat="43.06251" lon="-0.44035">
        <ele>651</ele>
        <time>2023-05-18T01:22:47Z</time>
      </trkpt>
      <trkpt lat="43.06243" lon="-0.44038">
        <ele>648</ele>
        <time>2023-05-18T01:22:48Z</time>
      </trkpt>
      <trkpt lat="43.06235" lon="-0.44052">
        <ele>647</ele>
        <time>2023-05-18T01:22:50Z</time>
      </trkpt>
      <trkpt lat="43.06234" lon="-0.44105">
        <ele>651</ele>
        <time>2023-05-18T01:22:57Z</time>
      </trkpt>
      <trkpt lat="43.0623" lon="-0.4413">
        <ele>651</ele>
        <time>2023-05-18T01:23:01Z</time>
      </trkpt>
      <trkpt lat="43.06176" lon="-0.44321">
        <ele>638</ele>
        <time>2023-05-18T01:23:27Z</time>
      </trkpt>
      <trkpt lat="43.06153" lon="-0.44376">
        <ele>636</ele>
        <time>2023-05-18T01:23:35Z</time>
      </trkpt>
      <trkpt lat="43.06139" lon="-0.44399">
        <ele>635</ele>
        <time>2023-05-18T01:23:39Z</time>
      </trkpt>
      <trkpt lat="43.0611" lon="-0.44438">
        <ele>630</ele>
        <time>2023-05-18T01:23:47Z</time>
      </trkpt>
      <trkpt lat="43.06101" lon="-0.44454">
        <ele>630</ele>
        <time>2023-05-18T01:23:49Z</time>
      </trkpt>
      <trkpt lat="43.0608" lon="-0.44504">
        <ele>629</ele>
        <time>2023-05-18T01:23:57Z</time>
      </trkpt>
      <trkpt lat="43.06076" lon="-0.44508">
        <ele>628</ele>
        <time>2023-05-18T01:23:58Z</time>
      </trkpt>
      <trkpt lat="43.06066" lon="-0.44509">
        <ele>626</ele>
        <time>2023-05-18T01:23:59Z</time>
      </trkpt>
      <trkpt lat="43.06063" lon="-0.44508">
        <ele>625</ele>
        <time>2023-05-18T01:24:00Z</time>
      </trkpt>
      <trkpt lat="43.0606" lon="-0.44498">
        <ele>624</ele>
        <time>2023-05-18T01:24:01Z</time>
      </trkpt>
      <trkpt lat="43.06063" lon="-0.44466">
        <ele>621</ele>
        <time>2023-05-18T01:24:05Z</time>
      </trkpt>
      <trkpt lat="43.06062" lon="-0.44363">
        <ele>611</ele>
        <time>2023-05-18T01:24:19Z</time>
      </trkpt>
      <trkpt lat="43.06059" lon="-0.44338">
        <ele>607</ele>
        <time>2023-05-18T01:24:22Z</time>
      </trkpt>
      <trkpt lat="43.0605" lon="-0.44306">
        <ele>603</ele>
        <time>2023-05-18T01:24:27Z</time>
      </trkpt>
      <trkpt lat="43.06047" lon="-0.44276">
        <ele>601</ele>
        <time>2023-05-18T01:24:31Z</time>
      </trkpt>
      <trkpt lat="43.06055" lon="-0.44204">
        <ele>597</ele>
        <time>2023-05-18T01:24:40Z</time>
      </trkpt>
      <trkpt lat="43.06055" lon="-0.44123">
        <ele>589</ele>
        <time>2023-05-18T01:24:51Z</time>
      </trkpt>
      <trkpt lat="43.06052" lon="-0.44096">
        <ele>586</ele>
        <time>2023-05-18T01:24:54Z</time>
      </trkpt>
      <trkpt lat="43.06038" lon="-0.44025">
        <ele>578</ele>
        <time>2023-05-18T01:25:04Z</time>
      </trkpt>
      <trkpt lat="43.06043" lon="-0.43954">
        <ele>575</ele>
        <time>2023-05-18T01:25:13Z</time>
      </trkpt>
      <trkpt lat="43.06046" lon="-0.43941">
        <ele>575</ele>
        <time>2023-05-18T01:25:15Z</time>
      </trkpt>
      <trkpt lat="43.06054" lon="-0.43923">
        <ele>575</ele>
        <time>2023-05-18T01:25:17Z</time>
      </trkpt>
      <trkpt lat="43.06071" lon="-0.43901">
        <ele>574</ele>
        <time>2023-05-18T01:25:22Z</time>
      </trkpt>
      <trkpt lat="43.06118" lon="-0.43851">
        <ele>572</ele>
        <time>2023-05-18T01:25:32Z</time>
      </trkpt>
      <trkpt lat="43.06168" lon="-0.43787">
        <ele>568</ele>
        <time>2023-05-18T01:25:44Z</time>
      </trkpt>
      <trkpt lat="43.06172" lon="-0.43769">
        <ele>565</ele>
        <time>2023-05-18T01:25:47Z</time>
      </trkpt>
      <trkpt lat="43.06168" lon="-0.4376">
        <ele>562</ele>
        <time>2023-05-18T01:25:48Z</time>
      </trkpt>
      <trkpt lat="43.06162" lon="-0.43757">
        <ele>561</ele>
        <time>2023-05-18T01:25:49Z</time>
      </trkpt>
      <trkpt lat="43.06154" lon="-0.43758">
        <ele>559</ele>
        <time>2023-05-18T01:25:51Z</time>
      </trkpt>
      <trkpt lat="43.06121" lon="-0.43782">
        <ele>558</ele>
        <time>2023-05-18T01:25:57Z</time>
      </trkpt>
      <trkpt lat="43.06101" lon="-0.4379">
        <ele>556</ele>
        <time>2023-05-18T01:26:01Z</time>
      </trkpt>
      <trkpt lat="43.06024" lon="-0.43797">
        <ele>545</ele>
        <time>2023-05-18T01:26:15Z</time>
      </trkpt>
      <trkpt lat="43.0598" lon="-0.43804">
        <ele>539</ele>
        <time>2023-05-18T01:26:23Z</time>
      </trkpt>
      <trkpt lat="43.05947" lon="-0.4381">
        <ele>533</ele>
        <time>2023-05-18T01:26:29Z</time>
      </trkpt>
      <trkpt lat="43.0592" lon="-0.43819">
        <ele>528</ele>
        <time>2023-05-18T01:26:34Z</time>
      </trkpt>
      <trkpt lat="43.05903" lon="-0.43834">
        <ele>526</ele>
        <time>2023-05-18T01:26:37Z</time>
      </trkpt>
      <trkpt lat="43.05867" lon="-0.43905">
        <ele>524</ele>
        <time>2023-05-18T01:26:48Z</time>
      </trkpt>
      <trkpt lat="43.05841" lon="-0.43942">
        <ele>519</ele>
        <time>2023-05-18T01:26:55Z</time>
      </trkpt>
      <trkpt lat="43.05809" lon="-0.43979">
        <ele>517</ele>
        <time>2023-05-18T01:27:03Z</time>
      </trkpt>
      <trkpt lat="43.05797" lon="-0.43988">
        <ele>516</ele>
        <time>2023-05-18T01:27:05Z</time>
      </trkpt>
      <trkpt lat="43.05785" lon="-0.43993">
        <ele>514</ele>
        <time>2023-05-18T01:27:07Z</time>
      </trkpt>
      <trkpt lat="43.05772" lon="-0.43988">
        <ele>511</ele>
        <time>2023-05-18T01:27:10Z</time>
      </trkpt>
      <trkpt lat="43.05761" lon="-0.43976">
        <ele>508</ele>
        <time>2023-05-18T01:27:12Z</time>
      </trkpt>
      <trkpt lat="43.05752" lon="-0.43948">
        <ele>502</ele>
        <time>2023-05-18T01:27:16Z</time>
      </trkpt>
      <trkpt lat="43.05741" lon="-0.43856">
        <ele>494</ele>
        <time>2023-05-18T01:27:28Z</time>
      </trkpt>
      <trkpt lat="43.05726" lon="-0.43787">
        <ele>489</ele>
        <time>2023-05-18T01:27:38Z</time>
      </trkpt>
      <trkpt lat="43.05721" lon="-0.43748">
        <ele>486</ele>
        <time>2023-05-18T01:27:43Z</time>
      </trkpt>
      <trkpt lat="43.05721" lon="-0.43726">
        <ele>487</ele>
        <time>2023-05-18T01:27:46Z</time>
      </trkpt>
      <trkpt lat="43.05727" lon="-0.43688">
        <ele>490</ele>
        <time>2023-05-18T01:27:51Z</time>
      </trkpt>
      <trkpt lat="43.05738" lon="-0.43654">
        <ele>492</ele>
        <time>2023-05-18T01:27:56Z</time>
      </trkpt>
      <trkpt lat="43.0578" lon="-0.43554">
        <ele>477</ele>
        <time>2023-05-18T01:28:10Z</time>
      </trkpt>
      <trkpt lat="43.05791" lon="-0.43522">
        <ele>471</ele>
        <time>2023-05-18T01:28:15Z</time>
      </trkpt>
      <trkpt lat="43.05798" lon="-0.43489">
        <ele>467</ele>
        <time>2023-05-18T01:28:20Z</time>
      </trkpt>
      <trkpt lat="43.0581" lon="-0.43326">
        <ele>460</ele>
        <time>2023-05-18T01:28:41Z</time>
      </trkpt>
      <trkpt lat="43.05812" lon="-0.43234">
        <ele>457</ele>
        <time>2023-05-18T01:28:53Z</time>
      </trkpt>
      <trkpt lat="43.05803" lon="-0.4308">
        <ele>452</ele>
        <time>2023-05-18T01:29:13Z</time>
      </trkpt>
      <trkpt lat="43.05798" lon="-0.43052">
        <ele>451</ele>
        <time>2023-05-18T01:29:17Z</time>
      </trkpt>
      <trkpt lat="43.05766" lon="-0.42977">
        <ele>450</ele>
        <time>2023-05-18T01:29:28Z</time>
      </trkpt>
      <trkpt lat="43.05945" lon="-0.42808">
        <ele>443</ele>
        <time>2023-05-18T01:30:07Z</time>
      </trkpt>
      <trkpt lat="43.0596" lon="-0.42791">
        <ele>442</ele>
        <time>2023-05-18T01:30:10Z</time>
      </trkpt>
      <trkpt lat="43.05991" lon="-0.42742">
        <ele>440</ele>
        <time>2023-05-18T01:30:19Z</time>
      </trkpt>
      <trkpt lat="43.05993" lon="-0.4273">
        <ele>440</ele>
        <time>2023-05-18T01:30:20Z</time>
      </trkpt>
      <trkpt lat="43.06003" lon="-0.42727">
        <ele>439</ele>
        <time>2023-05-18T01:30:22Z</time>
      </trkpt>
      <trkpt lat="43.06012" lon="-0.42712">
        <ele>439</ele>
        <time>2023-05-18T01:30:24Z</time>
      </trkpt>
      <trkpt lat="43.06012" lon="-0.42692">
        <ele>438</ele>
        <time>2023-05-18T01:30:27Z</time>
      </trkpt>
      <trkpt lat="43.06006" lon="-0.42679">
        <ele>438</ele>
        <time>2023-05-18T01:30:29Z</time>
      </trkpt>
      <trkpt lat="43.05999" lon="-0.42675">
        <ele>438</ele>
        <time>2023-05-18T01:30:30Z</time>
      </trkpt>
      <trkpt lat="43.05987" lon="-0.42675">
        <ele>439</ele>
        <time>2023-05-18T01:30:33Z</time>
      </trkpt>
      <trkpt lat="43.0598" lon="-0.42679">
        <ele>439</ele>
        <time>2023-05-18T01:30:34Z</time>
      </trkpt>
      <trkpt lat="43.05956" lon="-0.42684">
        <ele>440</ele>
        <time>2023-05-18T01:30:38Z</time>
      </trkpt>
      <trkpt lat="43.05889" lon="-0.42657">
        <ele>440</ele>
        <time>2023-05-18T01:30:51Z</time>
      </trkpt>
      <trkpt lat="43.05853" lon="-0.42646">
        <ele>439</ele>
        <time>2023-05-18T01:30:57Z</time>
      </trkpt>
      <trkpt lat="43.05817" lon="-0.42639">
        <ele>439</ele>
        <time>2023-05-18T01:31:04Z</time>
      </trkpt>
      <trkpt lat="43.05762" lon="-0.42635">
        <ele>439</ele>
        <time>2023-05-18T01:31:13Z</time>
      </trkpt>
      <trkpt lat="43.05129" lon="-0.42684">
        <ele>439</ele>
        <time>2023-05-18T01:33:06Z</time>
      </trkpt>
      <trkpt lat="43.04923" lon="-0.42712">
        <ele>436</ele>
        <time>2023-05-18T01:33:43Z</time>
      </trkpt>
      <trkpt lat="43.04863" lon="-0.42712">
        <ele>436</ele>
        <time>2023-05-18T01:33:54Z</time>
      </trkpt>
      <trkpt lat="43.04819" lon="-0.42707">
        <ele>436</ele>
        <time>2023-05-18T01:34:02Z</time>
      </trkpt>
      <trkpt lat="43.0476" lon="-0.42693">
        <ele>436</ele>
        <time>2023-05-18T01:34:12Z</time>
      </trkpt>
      <trkpt lat="43.04693" lon="-0.42671">
        <ele>437</ele>
        <time>2023-05-18T01:34:25Z</time>
      </trkpt>
      <trkpt lat="43.03813" lon="-0.42361">
        <ele>447</ele>
        <time>2023-05-18T01:37:06Z</time>
      </trkpt>
      <trkpt lat="43.03743" lon="-0.42342">
        <ele>449</ele>
        <time>2023-05-18T01:37:19Z</time>
      </trkpt>
      <trkpt lat="43.03728" lon="-0.42335">
        <ele>450</ele>
        <time>2023-05-18T01:37:22Z</time>
      </trkpt>
      <trkpt lat="43.03723" lon="-0.42325">
        <ele>450</ele>
        <time>2023-05-18T01:37:23Z</time>
      </trkpt>
      <trkpt lat="43.03714" lon="-0.42318">
        <ele>450</ele>
        <time>2023-05-18T01:37:25Z</time>
      </trkpt>
      <trkpt lat="43.03704" lon="-0.42317">
        <ele>450</ele>
        <time>2023-05-18T01:37:27Z</time>
      </trkpt>
      <trkpt lat="43.03695" lon="-0.42322">
        <ele>450</ele>
        <time>2023-05-18T01:37:29Z</time>
      </trkpt>
      <trkpt lat="43.03668" lon="-0.42314">
        <ele>451</ele>
        <time>2023-05-18T01:37:34Z</time>
      </trkpt>
      <trkpt lat="43.03605" lon="-0.42288">
        <ele>451</ele>
        <time>2023-05-18T01:37:45Z</time>
      </trkpt>
      <trkpt lat="43.03381" lon="-0.42211">
        <ele>454</ele>
        <time>2023-05-18T01:38:26Z</time>
      </trkpt>
      <trkpt lat="43.03323" lon="-0.42193">
        <ele>453</ele>
        <time>2023-05-18T01:38:37Z</time>
      </trkpt>
      <trkpt lat="43.0327" lon="-0.42184">
        <ele>453</ele>
        <time>2023-05-18T01:38:47Z</time>
      </trkpt>
      <trkpt lat="43.02578" lon="-0.42154">
        <ele>461</ele>
        <time>2023-05-18T01:40:50Z</time>
      </trkpt>
      <trkpt lat="43.02426" lon="-0.42154">
        <ele>462</ele>
        <time>2023-05-18T01:41:17Z</time>
      </trkpt>
      <trkpt lat="43.02414" lon="-0.42153">
        <ele>462</ele>
        <time>2023-05-18T01:41:19Z</time>
      </trkpt>
      <trkpt lat="43.02406" lon="-0.42145">
        <ele>462</ele>
        <time>2023-05-18T01:41:21Z</time>
      </trkpt>
      <trkpt lat="43.02393" lon="-0.42142">
        <ele>462</ele>
        <time>2023-05-18T01:41:23Z</time>
      </trkpt>
      <trkpt lat="43.02388" lon="-0.42144">
        <ele>461</ele>
        <time>2023-05-18T01:41:24Z</time>
      </trkpt>
      <trkpt lat="43.02379" lon="-0.42155">
        <ele>461</ele>
        <time>2023-05-18T01:41:26Z</time>
      </trkpt>
      <trkpt lat="43.02376" lon="-0.42169">
        <ele>461</ele>
        <time>2023-05-18T01:41:28Z</time>
      </trkpt>
      <trkpt lat="43.02377" lon="-0.42178">
        <ele>461</ele>
        <time>2023-05-18T01:41:29Z</time>
      </trkpt>
      <trkpt lat="43.02356" lon="-0.42184">
        <ele>461</ele>
        <time>2023-05-18T01:41:33Z</time>
      </trkpt>
      <trkpt lat="43.02299" lon="-0.42191">
        <ele>460</ele>
        <time>2023-05-18T01:41:43Z</time>
      </trkpt>
      <trkpt lat="43.02267" lon="-0.422">
        <ele>459</ele>
        <time>2023-05-18T01:41:49Z</time>
      </trkpt>
      <trkpt lat="43.02087" lon="-0.42268">
        <ele>462</ele>
        <time>2023-05-18T01:42:22Z</time>
      </trkpt>
      <trkpt lat="43.02015" lon="-0.42291">
        <ele>463</ele>
        <time>2023-05-18T01:42:35Z</time>
      </trkpt>
      <trkpt lat="43.01897" lon="-0.42311">
        <ele>467</ele>
        <time>2023-05-18T01:42:57Z</time>
      </trkpt>
      <trkpt lat="43.01868" lon="-0.42315">
        <ele>468</ele>
        <time>2023-05-18T01:43:02Z</time>
      </trkpt>
      <trkpt lat="43.01783" lon="-0.42314">
        <ele>471</ele>
        <time>2023-05-18T01:43:17Z</time>
      </trkpt>
      <trkpt lat="43.01551" lon="-0.42297">
        <ele>478</ele>
        <time>2023-05-18T01:43:58Z</time>
      </trkpt>
      <trkpt lat="43.01404" lon="-0.42307">
        <ele>475</ele>
        <time>2023-05-18T01:44:24Z</time>
      </trkpt>
      <trkpt lat="43.01287" lon="-0.42305">
        <ele>474</ele>
        <time>2023-05-18T01:44:45Z</time>
      </trkpt>
      <trkpt lat="43.01218" lon="-0.42297">
        <ele>476</ele>
        <time>2023-05-18T01:44:57Z</time>
      </trkpt>
      <trkpt lat="43.01153" lon="-0.42275">
        <ele>475</ele>
        <time>2023-05-18T01:45:09Z</time>
      </trkpt>
      <trkpt lat="43.0101" lon="-0.42207">
        <ele>476</ele>
        <time>2023-05-18T01:45:36Z</time>
      </trkpt>
      <trkpt lat="43.00865" lon="-0.4212">
        <ele>486</ele>
        <time>2023-05-18T01:46:05Z</time>
      </trkpt>
      <trkpt lat="43.00806" lon="-0.42095">
        <ele>486</ele>
        <time>2023-05-18T01:46:15Z</time>
      </trkpt>
      <trkpt lat="43.00751" lon="-0.42084">
        <ele>487</ele>
        <time>2023-05-18T01:46:25Z</time>
      </trkpt>
      <trkpt lat="43.00718" lon="-0.42085">
        <ele>487</ele>
        <time>2023-05-18T01:46:31Z</time>
      </trkpt>
      <trkpt lat="43.00699" lon="-0.42088">
        <ele>488</ele>
        <time>2023-05-18T01:46:35Z</time>
      </trkpt>
      <trkpt lat="43.00663" lon="-0.42098">
        <ele>492</ele>
        <time>2023-05-18T01:46:41Z</time>
      </trkpt>
      <trkpt lat="43.00628" lon="-0.42114">
        <ele>495</ele>
        <time>2023-05-18T01:46:48Z</time>
      </trkpt>
      <trkpt lat="43.00582" lon="-0.42139">
        <ele>494</ele>
        <time>2023-05-18T01:46:57Z</time>
      </trkpt>
      <trkpt lat="43.00554" lon="-0.42149">
        <ele>494</ele>
        <time>2023-05-18T01:47:02Z</time>
      </trkpt>
      <trkpt lat="43.00524" lon="-0.42154">
        <ele>492</ele>
        <time>2023-05-18T01:47:07Z</time>
      </trkpt>
      <trkpt lat="43.00486" lon="-0.42152">
        <ele>488</ele>
        <time>2023-05-18T01:47:14Z</time>
      </trkpt>
      <trkpt lat="43.00438" lon="-0.42133">
        <ele>482</ele>
        <time>2023-05-18T01:47:23Z</time>
      </trkpt>
      <trkpt lat="43.00277" lon="-0.42043">
        <ele>483</ele>
        <time>2023-05-18T01:47:54Z</time>
      </trkpt>
      <trkpt lat="43.00237" lon="-0.42024">
        <ele>484</ele>
        <time>2023-05-18T01:48:01Z</time>
      </trkpt>
      <trkpt lat="43.00193" lon="-0.42011">
        <ele>487</ele>
        <time>2023-05-18T01:48:09Z</time>
      </trkpt>
      <trkpt lat="43.00156" lon="-0.42009">
        <ele>489</ele>
        <time>2023-05-18T01:48:16Z</time>
      </trkpt>
      <trkpt lat="43.00097" lon="-0.42022">
        <ele>486</ele>
        <time>2023-05-18T01:48:26Z</time>
      </trkpt>
      <trkpt lat="42.99765" lon="-0.42163">
        <ele>486</ele>
        <time>2023-05-18T01:49:28Z</time>
      </trkpt>
      <trkpt lat="42.99716" lon="-0.4218">
        <ele>487</ele>
        <time>2023-05-18T01:49:37Z</time>
      </trkpt>
      <trkpt lat="42.99641" lon="-0.42197">
        <ele>491</ele>
        <time>2023-05-18T01:49:51Z</time>
      </trkpt>
      <trkpt lat="42.99341" lon="-0.4223">
        <ele>497</ele>
        <time>2023-05-18T01:50:44Z</time>
      </trkpt>
      <trkpt lat="42.99238" lon="-0.42245">
        <ele>499</ele>
        <time>2023-05-18T01:51:03Z</time>
      </trkpt>
      <trkpt lat="42.99195" lon="-0.42241">
        <ele>501</ele>
        <time>2023-05-18T01:51:10Z</time>
      </trkpt>
      <trkpt lat="42.99087" lon="-0.42216">
        <ele>503</ele>
        <time>2023-05-18T01:51:30Z</time>
      </trkpt>
      <trkpt lat="42.99065" lon="-0.42214">
        <ele>503</ele>
        <time>2023-05-18T01:51:34Z</time>
      </trkpt>
      <trkpt lat="42.99051" lon="-0.42217">
        <ele>503</ele>
        <time>2023-05-18T01:51:36Z</time>
      </trkpt>
      <trkpt lat="42.98999" lon="-0.42253">
        <ele>504</ele>
        <time>2023-05-18T01:51:47Z</time>
      </trkpt>
      <trkpt lat="42.98972" lon="-0.4226">
        <ele>505</ele>
        <time>2023-05-18T01:51:52Z</time>
      </trkpt>
      <trkpt lat="42.9894" lon="-0.42256">
        <ele>506</ele>
        <time>2023-05-18T01:51:57Z</time>
      </trkpt>
      <trkpt lat="42.98843" lon="-0.42236">
        <ele>508</ele>
        <time>2023-05-18T01:52:15Z</time>
      </trkpt>
      <trkpt lat="42.98831" lon="-0.42237">
        <ele>509</ele>
        <time>2023-05-18T01:52:17Z</time>
      </trkpt>
      <trkpt lat="42.98824" lon="-0.42244">
        <ele>509</ele>
        <time>2023-05-18T01:52:19Z</time>
      </trkpt>
      <trkpt lat="42.9882" lon="-0.42252">
        <ele>509</ele>
        <time>2023-05-18T01:52:20Z</time>
      </trkpt>
      <trkpt lat="42.98817" lon="-0.42286">
        <ele>511</ele>
        <time>2023-05-18T01:52:24Z</time>
      </trkpt>
      <trkpt lat="42.98808" lon="-0.42621">
        <ele>525</ele>
        <time>2023-05-18T01:53:08Z</time>
      </trkpt>
      <trkpt lat="42.98801" lon="-0.42624">
        <ele>525</ele>
        <time>2023-05-18T01:53:09Z</time>
      </trkpt>
      <trkpt lat="42.98796" lon="-0.42638">
        <ele>526</ele>
        <time>2023-05-18T01:53:11Z</time>
      </trkpt>
      <trkpt lat="42.98783" lon="-0.42644">
        <ele>527</ele>
        <time>2023-05-18T01:53:14Z</time>
      </trkpt>
      <trkpt lat="42.98747" lon="-0.42648">
        <ele>527</ele>
        <time>2023-05-18T01:53:20Z</time>
      </trkpt>
      <trkpt lat="42.9871" lon="-0.42659">
        <ele>528</ele>
        <time>2023-05-18T01:53:27Z</time>
      </trkpt>
      <trkpt lat="42.98632" lon="-0.42695">
        <ele>528</ele>
        <time>2023-05-18T01:53:41Z</time>
      </trkpt>
      <trkpt lat="42.98606" lon="-0.42706">
        <ele>527</ele>
        <time>2023-05-18T01:53:46Z</time>
      </trkpt>
      <trkpt lat="42.98585" lon="-0.42712">
        <ele>527</ele>
        <time>2023-05-18T01:53:50Z</time>
      </trkpt>
      <trkpt lat="42.98404" lon="-0.42789">
        <ele>522</ele>
        <time>2023-05-18T01:54:24Z</time>
      </trkpt>
      <trkpt lat="42.98385" lon="-0.42795">
        <ele>522</ele>
        <time>2023-05-18T01:54:27Z</time>
      </trkpt>
      <trkpt lat="42.98373" lon="-0.42796">
        <ele>522</ele>
        <time>2023-05-18T01:54:29Z</time>
      </trkpt>
      <trkpt lat="42.98352" lon="-0.42789">
        <ele>522</ele>
        <time>2023-05-18T01:54:33Z</time>
      </trkpt>
      <trkpt lat="42.9834" lon="-0.42779">
        <ele>522</ele>
        <time>2023-05-18T01:54:36Z</time>
      </trkpt>
      <trkpt lat="42.98274" lon="-0.427">
        <ele>526</ele>
        <time>2023-05-18T01:54:51Z</time>
      </trkpt>
      <trkpt lat="42.98253" lon="-0.4266">
        <ele>524</ele>
        <time>2023-05-18T01:54:58Z</time>
      </trkpt>
      <trkpt lat="42.9822" lon="-0.42583">
        <ele>524</ele>
        <time>2023-05-18T01:55:09Z</time>
      </trkpt>
      <trkpt lat="42.98207" lon="-0.42538">
        <ele>523</ele>
        <time>2023-05-18T01:55:16Z</time>
      </trkpt>
      <trkpt lat="42.98173" lon="-0.42282">
        <ele>516</ele>
        <time>2023-05-18T01:55:50Z</time>
      </trkpt>
      <trkpt lat="42.98143" lon="-0.42149">
        <ele>512</ele>
        <time>2023-05-18T01:56:08Z</time>
      </trkpt>
      <trkpt lat="42.98136" lon="-0.42123">
        <ele>511</ele>
        <time>2023-05-18T01:56:11Z</time>
      </trkpt>
      <trkpt lat="42.98125" lon="-0.42099">
        <ele>510</ele>
        <time>2023-05-18T01:56:15Z</time>
      </trkpt>
      <trkpt lat="42.98114" lon="-0.42088">
        <ele>509</ele>
        <time>2023-05-18T01:56:17Z</time>
      </trkpt>
      <trkpt lat="42.98101" lon="-0.42082">
        <ele>509</ele>
        <time>2023-05-18T01:56:20Z</time>
      </trkpt>
      <trkpt lat="42.97955" lon="-0.4206">
        <ele>511</ele>
        <time>2023-05-18T01:56:46Z</time>
      </trkpt>
      <trkpt lat="42.97946" lon="-0.42057">
        <ele>512</ele>
        <time>2023-05-18T01:56:48Z</time>
      </trkpt>
      <trkpt lat="42.97933" lon="-0.42048">
        <ele>512</ele>
        <time>2023-05-18T01:56:50Z</time>
      </trkpt>
      <trkpt lat="42.97927" lon="-0.42042">
        <ele>512</ele>
        <time>2023-05-18T01:56:52Z</time>
      </trkpt>
      <trkpt lat="42.97912" lon="-0.42015">
        <ele>513</ele>
        <time>2023-05-18T01:56:56Z</time>
      </trkpt>
      <trkpt lat="42.97903" lon="-0.41988">
        <ele>514</ele>
        <time>2023-05-18T01:57:00Z</time>
      </trkpt>
      <trkpt lat="42.97896" lon="-0.41951">
        <ele>517</ele>
        <time>2023-05-18T01:57:05Z</time>
      </trkpt>
      <trkpt lat="42.97895" lon="-0.41922">
        <ele>518</ele>
        <time>2023-05-18T01:57:09Z</time>
      </trkpt>
      <trkpt lat="42.97887" lon="-0.41895">
        <ele>522</ele>
        <time>2023-05-18T01:57:12Z</time>
      </trkpt>
      <trkpt lat="42.97878" lon="-0.41884">
        <ele>525</ele>
        <time>2023-05-18T01:57:15Z</time>
      </trkpt>
      <trkpt lat="42.97866" lon="-0.41879">
        <ele>529</ele>
        <time>2023-05-18T01:57:17Z</time>
      </trkpt>
      <trkpt lat="42.97851" lon="-0.41882">
        <ele>531</ele>
        <time>2023-05-18T01:57:19Z</time>
      </trkpt>
      <trkpt lat="42.97841" lon="-0.41892">
        <ele>532</ele>
        <time>2023-05-18T01:57:22Z</time>
      </trkpt>
      <trkpt lat="42.97837" lon="-0.419">
        <ele>532</ele>
        <time>2023-05-18T01:57:23Z</time>
      </trkpt>
      <trkpt lat="42.97809" lon="-0.42042">
        <ele>541</ele>
        <time>2023-05-18T01:57:42Z</time>
      </trkpt>
      <trkpt lat="42.97807" lon="-0.42067">
        <ele>544</ele>
        <time>2023-05-18T01:57:45Z</time>
      </trkpt>
      <trkpt lat="42.97789" lon="-0.42068">
        <ele>549</ele>
        <time>2023-05-18T01:57:49Z</time>
      </trkpt>
      <trkpt lat="42.97779" lon="-0.42062">
        <ele>551</ele>
        <time>2023-05-18T01:57:51Z</time>
      </trkpt>
      <trkpt lat="42.97777" lon="-0.42056">
        <ele>551</ele>
        <time>2023-05-18T01:57:51Z</time>
      </trkpt>
      <trkpt lat="42.97775" lon="-0.42041">
        <ele>550</ele>
        <time>2023-05-18T01:57:53Z</time>
      </trkpt>
      <trkpt lat="42.97797" lon="-0.41962">
        <ele>540</ele>
        <time>2023-05-18T01:58:04Z</time>
      </trkpt>
      <trkpt lat="42.978" lon="-0.41908">
        <ele>542</ele>
        <time>2023-05-18T01:58:11Z</time>
      </trkpt>
      <trkpt lat="42.97805" lon="-0.41881">
        <ele>545</ele>
        <time>2023-05-18T01:58:15Z</time>
      </trkpt>
      <trkpt lat="42.97843" lon="-0.41793">
        <ele>548</ele>
        <time>2023-05-18T01:58:28Z</time>
      </trkpt>
      <trkpt lat="42.97861" lon="-0.41727">
        <ele>555</ele>
        <time>2023-05-18T01:58:38Z</time>
      </trkpt>
      <trkpt lat="42.97883" lon="-0.41686">
        <ele>558</ele>
        <time>2023-05-18T01:58:44Z</time>
      </trkpt>
      <trkpt lat="42.97946" lon="-0.41616">
        <ele>552</ele>
        <time>2023-05-18T01:58:59Z</time>
      </trkpt>
      <trkpt lat="42.97962" lon="-0.4159">
        <ele>552</ele>
        <time>2023-05-18T01:59:03Z</time>
      </trkpt>
      <trkpt lat="42.98004" lon="-0.41509">
        <ele>553</ele>
        <time>2023-05-18T01:59:16Z</time>
      </trkpt>
      <trkpt lat="42.98008" lon="-0.415">
        <ele>553</ele>
        <time>2023-05-18T01:59:17Z</time>
      </trkpt>
      <trkpt lat="42.9801" lon="-0.4148">
        <ele>555</ele>
        <time>2023-05-18T01:59:20Z</time>
      </trkpt>
      <trkpt lat="42.98007" lon="-0.41471">
        <ele>556</ele>
        <time>2023-05-18T01:59:21Z</time>
      </trkpt>
      <trkpt lat="42.97998" lon="-0.41461">
        <ele>559</ele>
        <time>2023-05-18T01:59:23Z</time>
      </trkpt>
      <trkpt lat="42.97988" lon="-0.41458">
        <ele>561</ele>
        <time>2023-05-18T01:59:25Z</time>
      </trkpt>
      <trkpt lat="42.97978" lon="-0.41462">
        <ele>562</ele>
        <time>2023-05-18T01:59:27Z</time>
      </trkpt>
      <trkpt lat="42.97969" lon="-0.41475">
        <ele>563</ele>
        <time>2023-05-18T01:59:29Z</time>
      </trkpt>
      <trkpt lat="42.97951" lon="-0.41536">
        <ele>561</ele>
        <time>2023-05-18T01:59:38Z</time>
      </trkpt>
      <trkpt lat="42.97941" lon="-0.41559">
        <ele>562</ele>
        <time>2023-05-18T01:59:41Z</time>
      </trkpt>
      <trkpt lat="42.97927" lon="-0.41581">
        <ele>565</ele>
        <time>2023-05-18T01:59:45Z</time>
      </trkpt>
      <trkpt lat="42.9791" lon="-0.41599">
        <ele>567</ele>
        <time>2023-05-18T01:59:49Z</time>
      </trkpt>
      <trkpt lat="42.97873" lon="-0.41624">
        <ele>572</ele>
        <time>2023-05-18T01:59:56Z</time>
      </trkpt>
      <trkpt lat="42.97843" lon="-0.4165">
        <ele>577</ele>
        <time>2023-05-18T02:00:03Z</time>
      </trkpt>
      <trkpt lat="42.97823" lon="-0.41676">
        <ele>580</ele>
        <time>2023-05-18T02:00:08Z</time>
      </trkpt>
      <trkpt lat="42.97775" lon="-0.41752">
        <ele>580</ele>
        <time>2023-05-18T02:00:21Z</time>
      </trkpt>
      <trkpt lat="42.97735" lon="-0.41802">
        <ele>584</ele>
        <time>2023-05-18T02:00:30Z</time>
      </trkpt>
      <trkpt lat="42.97693" lon="-0.4186">
        <ele>590</ele>
        <time>2023-05-18T02:00:41Z</time>
      </trkpt>
      <trkpt lat="42.97651" lon="-0.41938">
        <ele>592</ele>
        <time>2023-05-18T02:00:53Z</time>
      </trkpt>
      <trkpt lat="42.97636" lon="-0.41973">
        <ele>591</ele>
        <time>2023-05-18T02:00:59Z</time>
      </trkpt>
      <trkpt lat="42.97609" lon="-0.42053">
        <ele>592</ele>
        <time>2023-05-18T02:01:10Z</time>
      </trkpt>
      <trkpt lat="42.97597" lon="-0.42076">
        <ele>594</ele>
        <time>2023-05-18T02:01:14Z</time>
      </trkpt>
      <trkpt lat="42.97584" lon="-0.42084">
        <ele>596</ele>
        <time>2023-05-18T02:01:16Z</time>
      </trkpt>
      <trkpt lat="42.97574" lon="-0.42082">
        <ele>600</ele>
        <time>2023-05-18T02:01:18Z</time>
      </trkpt>
      <trkpt lat="42.97566" lon="-0.42073">
        <ele>604</ele>
        <time>2023-05-18T02:01:20Z</time>
      </trkpt>
      <trkpt lat="42.97563" lon="-0.42065">
        <ele>606</ele>
        <time>2023-05-18T02:01:21Z</time>
      </trkpt>
      <trkpt lat="42.97562" lon="-0.42056">
        <ele>607</ele>
        <time>2023-05-18T02:01:22Z</time>
      </trkpt>
      <trkpt lat="42.97566" lon="-0.42038">
        <ele>608</ele>
        <time>2023-05-18T02:01:25Z</time>
      </trkpt>
      <trkpt lat="42.97595" lon="-0.41999">
        <ele>600</ele>
        <time>2023-05-18T02:01:32Z</time>
      </trkpt>
      <trkpt lat="42.97613" lon="-0.41968">
        <ele>601</ele>
        <time>2023-05-18T02:01:37Z</time>
      </trkpt>
      <trkpt lat="42.97649" lon="-0.41851">
        <ele>612</ele>
        <time>2023-05-18T02:01:54Z</time>
      </trkpt>
      <trkpt lat="42.97663" lon="-0.41821">
        <ele>612</ele>
        <time>2023-05-18T02:01:58Z</time>
      </trkpt>
      <trkpt lat="42.97713" lon="-0.4174">
        <ele>610</ele>
        <time>2023-05-18T02:02:12Z</time>
      </trkpt>
      <trkpt lat="42.97738" lon="-0.41688">
        <ele>612</ele>
        <time>2023-05-18T02:02:20Z</time>
      </trkpt>
      <trkpt lat="42.97748" lon="-0.4164">
        <ele>615</ele>
        <time>2023-05-18T02:02:27Z</time>
      </trkpt>
      <trkpt lat="42.97748" lon="-0.41583">
        <ele>619</ele>
        <time>2023-05-18T02:02:34Z</time>
      </trkpt>
      <trkpt lat="42.97741" lon="-0.41517">
        <ele>625</ele>
        <time>2023-05-18T02:02:43Z</time>
      </trkpt>
      <trkpt lat="42.97741" lon="-0.41497">
        <ele>627</ele>
        <time>2023-05-18T02:02:46Z</time>
      </trkpt>
      <trkpt lat="42.97746" lon="-0.41462">
        <ele>629</ele>
        <time>2023-05-18T02:02:50Z</time>
      </trkpt>
      <trkpt lat="42.97763" lon="-0.41413">
        <ele>627</ele>
        <time>2023-05-18T02:02:57Z</time>
      </trkpt>
      <trkpt lat="42.9777" lon="-0.41384">
        <ele>628</ele>
        <time>2023-05-18T02:03:01Z</time>
      </trkpt>
      <trkpt lat="42.97783" lon="-0.41289">
        <ele>637</ele>
        <time>2023-05-18T02:03:14Z</time>
      </trkpt>
      <trkpt lat="42.97807" lon="-0.41221">
        <ele>633</ele>
        <time>2023-05-18T02:03:24Z</time>
      </trkpt>
      <trkpt lat="42.97813" lon="-0.41193">
        <ele>634</ele>
        <time>2023-05-18T02:03:27Z</time>
      </trkpt>
      <trkpt lat="42.97822" lon="-0.41127">
        <ele>636</ele>
        <time>2023-05-18T02:03:36Z</time>
      </trkpt>
      <trkpt lat="42.97834" lon="-0.41076">
        <ele>635</ele>
        <time>2023-05-18T02:03:43Z</time>
      </trkpt>
      <trkpt lat="42.97837" lon="-0.41053">
        <ele>635</ele>
        <time>2023-05-18T02:03:46Z</time>
      </trkpt>
      <trkpt lat="42.97836" lon="-0.4103">
        <ele>636</ele>
        <time>2023-05-18T02:03:49Z</time>
      </trkpt>
      <trkpt lat="42.97829" lon="-0.41006">
        <ele>639</ele>
        <time>2023-05-18T02:03:53Z</time>
      </trkpt>
      <trkpt lat="42.97811" lon="-0.40969">
        <ele>642</ele>
        <time>2023-05-18T02:03:58Z</time>
      </trkpt>
      <trkpt lat="42.97798" lon="-0.40929">
        <ele>644</ele>
        <time>2023-05-18T02:04:04Z</time>
      </trkpt>
      <trkpt lat="42.97795" lon="-0.40899">
        <ele>645</ele>
        <time>2023-05-18T02:04:08Z</time>
      </trkpt>
      <trkpt lat="42.97794" lon="-0.40831">
        <ele>646</ele>
        <time>2023-05-18T02:04:17Z</time>
      </trkpt>
      <trkpt lat="42.97785" lon="-0.40788">
        <ele>642</ele>
        <time>2023-05-18T02:04:23Z</time>
      </trkpt>
      <trkpt lat="42.97772" lon="-0.4076">
        <ele>643</ele>
        <time>2023-05-18T02:04:27Z</time>
      </trkpt>
      <trkpt lat="42.97744" lon="-0.40732">
        <ele>647</ele>
        <time>2023-05-18T02:04:33Z</time>
      </trkpt>
      <trkpt lat="42.97721" lon="-0.40718">
        <ele>651</ele>
        <time>2023-05-18T02:04:38Z</time>
      </trkpt>
      <trkpt lat="42.97706" lon="-0.40705">
        <ele>654</ele>
        <time>2023-05-18T02:04:41Z</time>
      </trkpt>
      <trkpt lat="42.97697" lon="-0.40693">
        <ele>655</ele>
        <time>2023-05-18T02:04:43Z</time>
      </trkpt>
      <trkpt lat="42.97685" lon="-0.40664">
        <ele>658</ele>
        <time>2023-05-18T02:04:47Z</time>
      </trkpt>
      <trkpt lat="42.97667" lon="-0.40589">
        <ele>658</ele>
        <time>2023-05-18T02:04:58Z</time>
      </trkpt>
      <trkpt lat="42.97645" lon="-0.40552">
        <ele>657</ele>
        <time>2023-05-18T02:05:04Z</time>
      </trkpt>
      <trkpt lat="42.97628" lon="-0.40538">
        <ele>660</ele>
        <time>2023-05-18T02:05:07Z</time>
      </trkpt>
      <trkpt lat="42.97579" lon="-0.40515">
        <ele>670</ele>
        <time>2023-05-18T02:05:17Z</time>
      </trkpt>
      <trkpt lat="42.9756" lon="-0.40498">
        <ele>673</ele>
        <time>2023-05-18T02:05:21Z</time>
      </trkpt>
      <trkpt lat="42.97514" lon="-0.40438">
        <ele>679</ele>
        <time>2023-05-18T02:05:32Z</time>
      </trkpt>
      <trkpt lat="42.97495" lon="-0.40401">
        <ele>682</ele>
        <time>2023-05-18T02:05:38Z</time>
      </trkpt>
      <trkpt lat="42.97487" lon="-0.40353">
        <ele>682</ele>
        <time>2023-05-18T02:05:44Z</time>
      </trkpt>
      <trkpt lat="42.97473" lon="-0.4031">
        <ele>687</ele>
        <time>2023-05-18T02:05:50Z</time>
      </trkpt>
      <trkpt lat="42.97468" lon="-0.40283">
        <ele>689</ele>
        <time>2023-05-18T02:05:54Z</time>
      </trkpt>
      <trkpt lat="42.97466" lon="-0.40202">
        <ele>689</ele>
        <time>2023-05-18T02:06:05Z</time>
      </trkpt>
      <trkpt lat="42.97445" lon="-0.40065">
        <ele>695</ele>
        <time>2023-05-18T02:06:23Z</time>
      </trkpt>
      <trkpt lat="42.97444" lon="-0.40018">
        <ele>696</ele>
        <time>2023-05-18T02:06:29Z</time>
      </trkpt>
      <trkpt lat="42.97448" lon="-0.39951">
        <ele>696</ele>
        <time>2023-05-18T02:06:38Z</time>
      </trkpt>
      <trkpt lat="42.97444" lon="-0.39917">
        <ele>701</ele>
        <time>2023-05-18T02:06:42Z</time>
      </trkpt>
      <trkpt lat="42.97435" lon="-0.39875">
        <ele>703</ele>
        <time>2023-05-18T02:06:48Z</time>
      </trkpt>
      <trkpt lat="42.97424" lon="-0.39804">
        <ele>701</ele>
        <time>2023-05-18T02:06:57Z</time>
      </trkpt>
      <trkpt lat="42.97389" lon="-0.39754">
        <ele>713</ele>
        <time>2023-05-18T02:07:06Z</time>
      </trkpt>
      <trkpt lat="42.97383" lon="-0.39727">
        <ele>718</ele>
        <time>2023-05-18T02:07:10Z</time>
      </trkpt>
      <trkpt lat="42.97388" lon="-0.39701">
        <ele>717</ele>
        <time>2023-05-18T02:07:13Z</time>
      </trkpt>
      <trkpt lat="42.97399" lon="-0.39668">
        <ele>712</ele>
        <time>2023-05-18T02:07:18Z</time>
      </trkpt>
      <trkpt lat="42.97403" lon="-0.39618">
        <ele>715</ele>
        <time>2023-05-18T02:07:25Z</time>
      </trkpt>
      <trkpt lat="42.97419" lon="-0.39558">
        <ele>711</ele>
        <time>2023-05-18T02:07:33Z</time>
      </trkpt>
      <trkpt lat="42.97416" lon="-0.39537">
        <ele>714</ele>
        <time>2023-05-18T02:07:36Z</time>
      </trkpt>
      <trkpt lat="42.97406" lon="-0.39498">
        <ele>723</ele>
        <time>2023-05-18T02:07:41Z</time>
      </trkpt>
      <trkpt lat="42.97398" lon="-0.39411">
        <ele>715</ele>
        <time>2023-05-18T02:07:53Z</time>
      </trkpt>
      <trkpt lat="42.97392" lon="-0.39392">
        <ele>714</ele>
        <time>2023-05-18T02:07:55Z</time>
      </trkpt>
      <trkpt lat="42.97366" lon="-0.39356">
        <ele>718</ele>
        <time>2023-05-18T02:08:02Z</time>
      </trkpt>
      <trkpt lat="42.97336" lon="-0.39304">
        <ele>724</ele>
        <time>2023-05-18T02:08:10Z</time>
      </trkpt>
      <trkpt lat="42.97271" lon="-0.39206">
        <ele>738</ele>
        <time>2023-05-18T02:08:28Z</time>
      </trkpt>
      <trkpt lat="42.97308" lon="-0.39164">
        <ele>735</ele>
        <time>2023-05-18T02:08:36Z</time>
      </trkpt>
      <trkpt lat="42.97318" lon="-0.39149">
        <ele>734</ele>
        <time>2023-05-18T02:08:39Z</time>
      </trkpt>
      <trkpt lat="42.97322" lon="-0.39129">
        <ele>732</ele>
        <time>2023-05-18T02:08:42Z</time>
      </trkpt>
      <trkpt lat="42.97321" lon="-0.3912">
        <ele>732</ele>
        <time>2023-05-18T02:08:43Z</time>
      </trkpt>
      <trkpt lat="42.97319" lon="-0.39111">
        <ele>732</ele>
        <time>2023-05-18T02:08:44Z</time>
      </trkpt>
      <trkpt lat="42.97296" lon="-0.39061">
        <ele>739</ele>
        <time>2023-05-18T02:08:52Z</time>
      </trkpt>
      <trkpt lat="42.97257" lon="-0.38931">
        <ele>756</ele>
        <time>2023-05-18T02:09:10Z</time>
      </trkpt>
      <trkpt lat="42.97225" lon="-0.38855">
        <ele>768</ele>
        <time>2023-05-18T02:09:21Z</time>
      </trkpt>
      <trkpt lat="42.97211" lon="-0.38789">
        <ele>776</ele>
        <time>2023-05-18T02:09:30Z</time>
      </trkpt>
      <trkpt lat="42.97174" lon="-0.38647">
        <ele>793</ele>
        <time>2023-05-18T02:09:50Z</time>
      </trkpt>
      <trkpt lat="42.97172" lon="-0.3862">
        <ele>793</ele>
        <time>2023-05-18T02:09:54Z</time>
      </trkpt>
      <trkpt lat="42.97189" lon="-0.38526">
        <ele>791</ele>
        <time>2023-05-18T02:10:06Z</time>
      </trkpt>
      <trkpt lat="42.97189" lon="-0.38512">
        <ele>793</ele>
        <time>2023-05-18T02:10:08Z</time>
      </trkpt>
      <trkpt lat="42.97183" lon="-0.3848">
        <ele>794</ele>
        <time>2023-05-18T02:10:12Z</time>
      </trkpt>
      <trkpt lat="42.97145" lon="-0.38388">
        <ele>801</ele>
        <time>2023-05-18T02:10:26Z</time>
      </trkpt>
      <trkpt lat="42.97108" lon="-0.38285">
        <ele>809</ele>
        <time>2023-05-18T02:10:41Z</time>
      </trkpt>
      <trkpt lat="42.97095" lon="-0.38269">
        <ele>809</ele>
        <time>2023-05-18T02:10:44Z</time>
      </trkpt>
      <trkpt lat="42.97047" lon="-0.38237">
        <ele>814</ele>
        <time>2023-05-18T02:10:54Z</time>
      </trkpt>
      <trkpt lat="42.97035" lon="-0.38222">
        <ele>816</ele>
        <time>2023-05-18T02:10:56Z</time>
      </trkpt>
      <trkpt lat="42.9703" lon="-0.3821">
        <ele>817</ele>
        <time>2023-05-18T02:10:58Z</time>
      </trkpt>
      <trkpt lat="42.97008" lon="-0.38116">
        <ele>814</ele>
        <time>2023-05-18T02:11:11Z</time>
      </trkpt>
      <trkpt lat="42.96992" lon="-0.38079">
        <ele>812</ele>
        <time>2023-05-18T02:11:17Z</time>
      </trkpt>
      <trkpt lat="42.96981" lon="-0.38064">
        <ele>814</ele>
        <time>2023-05-18T02:11:19Z</time>
      </trkpt>
      <trkpt lat="42.96977" lon="-0.38061">
        <ele>815</ele>
        <time>2023-05-18T02:11:20Z</time>
      </trkpt>
      <trkpt lat="42.9697" lon="-0.38062">
        <ele>816</ele>
        <time>2023-05-18T02:11:22Z</time>
      </trkpt>
      <trkpt lat="42.96968" lon="-0.38066">
        <ele>817</ele>
        <time>2023-05-18T02:11:22Z</time>
      </trkpt>
      <trkpt lat="42.96968" lon="-0.38079">
        <ele>817</ele>
        <time>2023-05-18T02:11:24Z</time>
      </trkpt>
      <trkpt lat="42.96975" lon="-0.3811">
        <ele>818</ele>
        <time>2023-05-18T02:11:28Z</time>
      </trkpt>
      <trkpt lat="42.96993" lon="-0.38149">
        <ele>819</ele>
        <time>2023-05-18T02:11:34Z</time>
      </trkpt>
      <trkpt lat="42.96995" lon="-0.3816">
        <ele>820</ele>
        <time>2023-05-18T02:11:36Z</time>
      </trkpt>
      <trkpt lat="42.96997" lon="-0.38217">
        <ele>824</ele>
        <time>2023-05-18T02:11:43Z</time>
      </trkpt>
      <trkpt lat="42.97" lon="-0.38237">
        <ele>825</ele>
        <time>2023-05-18T02:11:46Z</time>
      </trkpt>
      <trkpt lat="42.96998" lon="-0.38252">
        <ele>827</ele>
        <time>2023-05-18T02:11:48Z</time>
      </trkpt>
      <trkpt lat="42.9699" lon="-0.38252">
        <ele>828</ele>
        <time>2023-05-18T02:11:49Z</time>
      </trkpt>
      <trkpt lat="42.96985" lon="-0.38243">
        <ele>829</ele>
        <time>2023-05-18T02:11:51Z</time>
      </trkpt>
      <trkpt lat="42.96981" lon="-0.38176">
        <ele>825</ele>
        <time>2023-05-18T02:11:59Z</time>
      </trkpt>
      <trkpt lat="42.96976" lon="-0.38158">
        <ele>824</ele>
        <time>2023-05-18T02:12:02Z</time>
      </trkpt>
      <trkpt lat="42.96949" lon="-0.3813">
        <ele>826</ele>
        <time>2023-05-18T02:12:08Z</time>
      </trkpt>
      <trkpt lat="42.96934" lon="-0.38097">
        <ele>825</ele>
        <time>2023-05-18T02:12:13Z</time>
      </trkpt>
      <trkpt lat="42.96929" lon="-0.38093">
        <ele>826</ele>
        <time>2023-05-18T02:12:14Z</time>
      </trkpt>
      <trkpt lat="42.96918" lon="-0.3809">
        <ele>828</ele>
        <time>2023-05-18T02:12:16Z</time>
      </trkpt>
      <trkpt lat="42.969" lon="-0.38094">
        <ele>835</ele>
        <time>2023-05-18T02:12:19Z</time>
      </trkpt>
      <trkpt lat="42.9689" lon="-0.38093">
        <ele>839</ele>
        <time>2023-05-18T02:12:21Z</time>
      </trkpt>
      <trkpt lat="42.96881" lon="-0.38087">
        <ele>841</ele>
        <time>2023-05-18T02:12:23Z</time>
      </trkpt>
      <trkpt lat="42.96866" lon="-0.38067">
        <ele>845</ele>
        <time>2023-05-18T02:12:26Z</time>
      </trkpt>
      <trkpt lat="42.96862" lon="-0.38055">
        <ele>846</ele>
        <time>2023-05-18T02:12:28Z</time>
      </trkpt>
      <trkpt lat="42.96865" lon="-0.38036">
        <ele>843</ele>
        <time>2023-05-18T02:12:31Z</time>
      </trkpt>
      <trkpt lat="42.9688" lon="-0.38012">
        <ele>836</ele>
        <time>2023-05-18T02:12:35Z</time>
      </trkpt>
      <trkpt lat="42.96885" lon="-0.37998">
        <ele>833</ele>
        <time>2023-05-18T02:12:37Z</time>
      </trkpt>
      <trkpt lat="42.96882" lon="-0.37972">
        <ele>833</ele>
        <time>2023-05-18T02:12:40Z</time>
      </trkpt>
      <trkpt lat="42.96874" lon="-0.37957">
        <ele>835</ele>
        <time>2023-05-18T02:12:43Z</time>
      </trkpt>
      <trkpt lat="42.96865" lon="-0.37948">
        <ele>837</ele>
        <time>2023-05-18T02:12:45Z</time>
      </trkpt>
      <trkpt lat="42.96835" lon="-0.37943">
        <ele>846</ele>
        <time>2023-05-18T02:12:50Z</time>
      </trkpt>
      <trkpt lat="42.96822" lon="-0.37933">
        <ele>852</ele>
        <time>2023-05-18T02:12:53Z</time>
      </trkpt>
      <trkpt lat="42.96816" lon="-0.37913">
        <ele>853</ele>
        <time>2023-05-18T02:12:55Z</time>
      </trkpt>
      <trkpt lat="42.96817" lon="-0.37863">
        <ele>848</ele>
        <time>2023-05-18T02:13:02Z</time>
      </trkpt>
      <trkpt lat="42.96797" lon="-0.37805">
        <ele>855</ele>
        <time>2023-05-18T02:13:10Z</time>
      </trkpt>
      <trkpt lat="42.96794" lon="-0.37756">
        <ele>853</ele>
        <time>2023-05-18T02:13:17Z</time>
      </trkpt>
      <trkpt lat="42.96789" lon="-0.3774">
        <ele>855</ele>
        <time>2023-05-18T02:13:19Z</time>
      </trkpt>
      <trkpt lat="42.96762" lon="-0.37702">
        <ele>863</ele>
        <time>2023-05-18T02:13:26Z</time>
      </trkpt>
      <trkpt lat="42.96752" lon="-0.37678">
        <ele>863</ele>
        <time>2023-05-18T02:13:29Z</time>
      </trkpt>
      <trkpt lat="42.96751" lon="-0.37659">
        <ele>862</ele>
        <time>2023-05-18T02:13:32Z</time>
      </trkpt>
      <trkpt lat="42.96754" lon="-0.37646">
        <ele>861</ele>
        <time>2023-05-18T02:13:34Z</time>
      </trkpt>
      <trkpt lat="42.96796" lon="-0.37599">
        <ele>854</ele>
        <time>2023-05-18T02:13:43Z</time>
      </trkpt>
      <trkpt lat="42.96798" lon="-0.37585">
        <ele>855</ele>
        <time>2023-05-18T02:13:45Z</time>
      </trkpt>
      <trkpt lat="42.96791" lon="-0.37567">
        <ele>857</ele>
        <time>2023-05-18T02:13:48Z</time>
      </trkpt>
      <trkpt lat="42.9677" lon="-0.37543">
        <ele>860</ele>
        <time>2023-05-18T02:13:53Z</time>
      </trkpt>
      <trkpt lat="42.96763" lon="-0.37521">
        <ele>861</ele>
        <time>2023-05-18T02:13:56Z</time>
      </trkpt>
      <trkpt lat="42.96752" lon="-0.37432">
        <ele>868</ele>
        <time>2023-05-18T02:14:08Z</time>
      </trkpt>
      <trkpt lat="42.96753" lon="-0.37366">
        <ele>869</ele>
        <time>2023-05-18T02:14:16Z</time>
      </trkpt>
      <trkpt lat="42.96738" lon="-0.3721">
        <ele>877</ele>
        <time>2023-05-18T02:14:37Z</time>
      </trkpt>
      <trkpt lat="42.96741" lon="-0.3719">
        <ele>877</ele>
        <time>2023-05-18T02:14:39Z</time>
      </trkpt>
      <trkpt lat="42.96748" lon="-0.37175">
        <ele>877</ele>
        <time>2023-05-18T02:14:42Z</time>
      </trkpt>
      <trkpt lat="42.96758" lon="-0.37166">
        <ele>879</ele>
        <time>2023-05-18T02:14:44Z</time>
      </trkpt>
      <trkpt lat="42.96771" lon="-0.37165">
        <ele>881</ele>
        <time>2023-05-18T02:14:46Z</time>
      </trkpt>
      <trkpt lat="42.96777" lon="-0.37167">
        <ele>882</ele>
        <time>2023-05-18T02:14:47Z</time>
      </trkpt>
      <trkpt lat="42.96788" lon="-0.37178">
        <ele>883</ele>
        <time>2023-05-18T02:14:50Z</time>
      </trkpt>
      <trkpt lat="42.96807" lon="-0.37217">
        <ele>885</ele>
        <time>2023-05-18T02:14:56Z</time>
      </trkpt>
      <trkpt lat="42.96826" lon="-0.37245">
        <ele>887</ele>
        <time>2023-05-18T02:15:01Z</time>
      </trkpt>
      <trkpt lat="42.96848" lon="-0.3726">
        <ele>889</ele>
        <time>2023-05-18T02:15:05Z</time>
      </trkpt>
      <trkpt lat="42.96865" lon="-0.37263">
        <ele>891</ele>
        <time>2023-05-18T02:15:08Z</time>
      </trkpt>
      <trkpt lat="42.96882" lon="-0.37258">
        <ele>894</ele>
        <time>2023-05-18T02:15:11Z</time>
      </trkpt>
      <trkpt lat="42.96896" lon="-0.37248">
        <ele>896</ele>
        <time>2023-05-18T02:15:14Z</time>
      </trkpt>
      <trkpt lat="42.96904" lon="-0.37236">
        <ele>898</ele>
        <time>2023-05-18T02:15:16Z</time>
      </trkpt>
      <trkpt lat="42.96907" lon="-0.37208">
        <ele>901</ele>
        <time>2023-05-18T02:15:20Z</time>
      </trkpt>
      <trkpt lat="42.96905" lon="-0.37196">
        <ele>902</ele>
        <time>2023-05-18T02:15:21Z</time>
      </trkpt>
      <trkpt lat="42.96891" lon="-0.37162">
        <ele>902</ele>
        <time>2023-05-18T02:15:27Z</time>
      </trkpt>
      <trkpt lat="42.96886" lon="-0.37142">
        <ele>903</ele>
        <time>2023-05-18T02:15:29Z</time>
      </trkpt>
      <trkpt lat="42.96892" lon="-0.37085">
        <ele>909</ele>
        <time>2023-05-18T02:15:37Z</time>
      </trkpt>
      <trkpt lat="42.96887" lon="-0.37061">
        <ele>913</ele>
        <time>2023-05-18T02:15:40Z</time>
      </trkpt>
      <trkpt lat="42.96863" lon="-0.3701">
        <ele>917</ele>
        <time>2023-05-18T02:15:48Z</time>
      </trkpt>
      <trkpt lat="42.96835" lon="-0.36962">
        <ele>918</ele>
        <time>2023-05-18T02:15:56Z</time>
      </trkpt>
      <trkpt lat="42.96815" lon="-0.369">
        <ele>925</ele>
        <time>2023-05-18T02:16:05Z</time>
      </trkpt>
      <trkpt lat="42.96785" lon="-0.36821">
        <ele>931</ele>
        <time>2023-05-18T02:16:16Z</time>
      </trkpt>
      <trkpt lat="42.96776" lon="-0.36784">
        <ele>933</ele>
        <time>2023-05-18T02:16:21Z</time>
      </trkpt>
      <trkpt lat="42.96768" lon="-0.36709">
        <ele>940</ele>
        <time>2023-05-18T02:16:31Z</time>
      </trkpt>
      <trkpt lat="42.96758" lon="-0.3665">
        <ele>942</ele>
        <time>2023-05-18T02:16:39Z</time>
      </trkpt>
      <trkpt lat="42.96726" lon="-0.36552">
        <ele>947</ele>
        <time>2023-05-18T02:16:53Z</time>
      </trkpt>
      <trkpt lat="42.96715" lon="-0.36463">
        <ele>955</ele>
        <time>2023-05-18T02:17:05Z</time>
      </trkpt>
      <trkpt lat="42.96701" lon="-0.36416">
        <ele>957</ele>
        <time>2023-05-18T02:17:12Z</time>
      </trkpt>
      <trkpt lat="42.96698" lon="-0.36398">
        <ele>958</ele>
        <time>2023-05-18T02:17:14Z</time>
      </trkpt>
      <trkpt lat="42.96694" lon="-0.36351">
        <ele>964</ele>
        <time>2023-05-18T02:17:20Z</time>
      </trkpt>
      <trkpt lat="42.96685" lon="-0.36296">
        <ele>968</ele>
        <time>2023-05-18T02:17:27Z</time>
      </trkpt>
      <trkpt lat="42.96649" lon="-0.3614">
        <ele>977</ele>
        <time>2023-05-18T02:17:49Z</time>
      </trkpt>
      <trkpt lat="42.96644" lon="-0.36073">
        <ele>982</ele>
        <time>2023-05-18T02:17:57Z</time>
      </trkpt>
      <trkpt lat="42.96632" lon="-0.36014">
        <ele>986</ele>
        <time>2023-05-18T02:18:05Z</time>
      </trkpt>
      <trkpt lat="42.96629" lon="-0.35986">
        <ele>989</ele>
        <time>2023-05-18T02:18:09Z</time>
      </trkpt>
      <trkpt lat="42.96625" lon="-0.35888">
        <ele>996</ele>
        <time>2023-05-18T02:18:22Z</time>
      </trkpt>
      <trkpt lat="42.96619" lon="-0.35828">
        <ele>1003</ele>
        <time>2023-05-18T02:18:30Z</time>
      </trkpt>
      <trkpt lat="42.96614" lon="-0.35798">
        <ele>1007</ele>
        <time>2023-05-18T02:18:34Z</time>
      </trkpt>
      <trkpt lat="42.96576" lon="-0.35649">
        <ele>1016</ele>
        <time>2023-05-18T02:18:54Z</time>
      </trkpt>
      <trkpt lat="42.96565" lon="-0.3562">
        <ele>1020</ele>
        <time>2023-05-18T02:18:59Z</time>
      </trkpt>
      <trkpt lat="42.96556" lon="-0.35606">
        <ele>1021</ele>
        <time>2023-05-18T02:19:01Z</time>
      </trkpt>
      <trkpt lat="42.96517" lon="-0.35566">
        <ele>1024</ele>
        <time>2023-05-18T02:19:10Z</time>
      </trkpt>
      <trkpt lat="42.96468" lon="-0.35507">
        <ele>1025</ele>
        <time>2023-05-18T02:19:21Z</time>
      </trkpt>
      <trkpt lat="42.96441" lon="-0.3547">
        <ele>1027</ele>
        <time>2023-05-18T02:19:28Z</time>
      </trkpt>
      <trkpt lat="42.96427" lon="-0.35446">
        <ele>1029</ele>
        <time>2023-05-18T02:19:32Z</time>
      </trkpt>
      <trkpt lat="42.96411" lon="-0.35411">
        <ele>1033</ele>
        <time>2023-05-18T02:19:38Z</time>
      </trkpt>
      <trkpt lat="42.96396" lon="-0.35361">
        <ele>1039</ele>
        <time>2023-05-18T02:19:45Z</time>
      </trkpt>
      <trkpt lat="42.96364" lon="-0.35311">
        <ele>1044</ele>
        <time>2023-05-18T02:19:53Z</time>
      </trkpt>
      <trkpt lat="42.96351" lon="-0.35281">
        <ele>1046</ele>
        <time>2023-05-18T02:19:58Z</time>
      </trkpt>
      <trkpt lat="42.96344" lon="-0.35245">
        <ele>1050</ele>
        <time>2023-05-18T02:20:03Z</time>
      </trkpt>
      <trkpt lat="42.9634" lon="-0.35171">
        <ele>1055</ele>
        <time>2023-05-18T02:20:12Z</time>
      </trkpt>
      <trkpt lat="42.96342" lon="-0.35136">
        <ele>1058</ele>
        <time>2023-05-18T02:20:17Z</time>
      </trkpt>
      <trkpt lat="42.96352" lon="-0.35108">
        <ele>1063</ele>
        <time>2023-05-18T02:20:21Z</time>
      </trkpt>
      <trkpt lat="42.96374" lon="-0.35072">
        <ele>1072</ele>
        <time>2023-05-18T02:20:27Z</time>
      </trkpt>
      <trkpt lat="42.96379" lon="-0.3506">
        <ele>1074</ele>
        <time>2023-05-18T02:20:29Z</time>
      </trkpt>
      <trkpt lat="42.96385" lon="-0.34973">
        <ele>1078</ele>
        <time>2023-05-18T02:20:40Z</time>
      </trkpt>
      <trkpt lat="42.96392" lon="-0.3493">
        <ele>1082</ele>
        <time>2023-05-18T02:20:46Z</time>
      </trkpt>
      <trkpt lat="42.96398" lon="-0.34914">
        <ele>1083</ele>
        <time>2023-05-18T02:20:48Z</time>
      </trkpt>
      <trkpt lat="42.96426" lon="-0.34874">
        <ele>1089</ele>
        <time>2023-05-18T02:20:55Z</time>
      </trkpt>
      <trkpt lat="42.9643" lon="-0.34855">
        <ele>1092</ele>
        <time>2023-05-18T02:20:58Z</time>
      </trkpt>
      <trkpt lat="42.96429" lon="-0.34828">
        <ele>1093</ele>
        <time>2023-05-18T02:21:02Z</time>
      </trkpt>
      <trkpt lat="42.96423" lon="-0.34795">
        <ele>1095</ele>
        <time>2023-05-18T02:21:06Z</time>
      </trkpt>
      <trkpt lat="42.96404" lon="-0.34753">
        <ele>1099</ele>
        <time>2023-05-18T02:21:12Z</time>
      </trkpt>
      <trkpt lat="42.96403" lon="-0.34727">
        <ele>1103</ele>
        <time>2023-05-18T02:21:16Z</time>
      </trkpt>
      <trkpt lat="42.96408" lon="-0.3464">
        <ele>1116</ele>
        <time>2023-05-18T02:21:27Z</time>
      </trkpt>
      <trkpt lat="42.96403" lon="-0.34622">
        <ele>1120</ele>
        <time>2023-05-18T02:21:30Z</time>
      </trkpt>
      <trkpt lat="42.96399" lon="-0.34617">
        <ele>1121</ele>
        <time>2023-05-18T02:21:31Z</time>
      </trkpt>
      <trkpt lat="42.96388" lon="-0.34613">
        <ele>1124</ele>
        <time>2023-05-18T02:21:33Z</time>
      </trkpt>
      <trkpt lat="42.96383" lon="-0.34614">
        <ele>1125</ele>
        <time>2023-05-18T02:21:34Z</time>
      </trkpt>
      <trkpt lat="42.96374" lon="-0.34622">
        <ele>1124</ele>
        <time>2023-05-18T02:21:35Z</time>
      </trkpt>
      <trkpt lat="42.96368" lon="-0.3464">
        <ele>1122</ele>
        <time>2023-05-18T02:21:38Z</time>
      </trkpt>
      <trkpt lat="42.9636" lon="-0.34681">
        <ele>1116</ele>
        <time>2023-05-18T02:21:44Z</time>
      </trkpt>
      <trkpt lat="42.96348" lon="-0.34706">
        <ele>1113</ele>
        <time>2023-05-18T02:21:47Z</time>
      </trkpt>
      <trkpt lat="42.96312" lon="-0.34748">
        <ele>1118</ele>
        <time>2023-05-18T02:21:56Z</time>
      </trkpt>
      <trkpt lat="42.96281" lon="-0.34774">
        <ele>1128</ele>
        <time>2023-05-18T02:22:02Z</time>
      </trkpt>
      <trkpt lat="42.96265" lon="-0.348">
        <ele>1130</ele>
        <time>2023-05-18T02:22:07Z</time>
      </trkpt>
      <trkpt lat="42.96248" lon="-0.34848">
        <ele>1129</ele>
        <time>2023-05-18T02:22:14Z</time>
      </trkpt>
      <trkpt lat="42.96242" lon="-0.34874">
        <ele>1130</ele>
        <time>2023-05-18T02:22:17Z</time>
      </trkpt>
      <trkpt lat="42.96238" lon="-0.34899">
        <ele>1129</ele>
        <time>2023-05-18T02:22:21Z</time>
      </trkpt>
      <trkpt lat="42.96235" lon="-0.34952">
        <ele>1123</ele>
        <time>2023-05-18T02:22:28Z</time>
      </trkpt>
      <trkpt lat="42.96227" lon="-0.34959">
        <ele>1128</ele>
        <time>2023-05-18T02:22:29Z</time>
      </trkpt>
      <trkpt lat="42.96224" lon="-0.34958">
        <ele>1130</ele>
        <time>2023-05-18T02:22:30Z</time>
      </trkpt>
      <trkpt lat="42.96221" lon="-0.3495">
        <ele>1133</ele>
        <time>2023-05-18T02:22:31Z</time>
      </trkpt>
      <trkpt lat="42.96233" lon="-0.34819">
        <ele>1147</ele>
        <time>2023-05-18T02:22:48Z</time>
      </trkpt>
      <trkpt lat="42.96251" lon="-0.34737">
        <ele>1150</ele>
        <time>2023-05-18T02:22:59Z</time>
      </trkpt>
      <trkpt lat="42.96256" lon="-0.34701">
        <ele>1154</ele>
        <time>2023-05-18T02:23:04Z</time>
      </trkpt>
      <trkpt lat="42.96257" lon="-0.34686">
        <ele>1157</ele>
        <time>2023-05-18T02:23:06Z</time>
      </trkpt>
      <trkpt lat="42.96252" lon="-0.34623">
        <ele>1170</ele>
        <time>2023-05-18T02:23:14Z</time>
      </trkpt>
      <trkpt lat="42.96254" lon="-0.34595">
        <ele>1173</ele>
        <time>2023-05-18T02:23:18Z</time>
      </trkpt>
      <trkpt lat="42.96261" lon="-0.34574">
        <ele>1173</ele>
        <time>2023-05-18T02:23:21Z</time>
      </trkpt>
      <trkpt lat="42.96267" lon="-0.34567">
        <ele>1170</ele>
        <time>2023-05-18T02:23:22Z</time>
      </trkpt>
      <trkpt lat="42.96298" lon="-0.34554">
        <ele>1157</ele>
        <time>2023-05-18T02:23:28Z</time>
      </trkpt>
      <trkpt lat="42.96306" lon="-0.34538">
        <ele>1155</ele>
        <time>2023-05-18T02:23:31Z</time>
      </trkpt>
      <trkpt lat="42.96312" lon="-0.3449">
        <ele>1158</ele>
        <time>2023-05-18T02:23:37Z</time>
      </trkpt>
      <trkpt lat="42.9631" lon="-0.34427">
        <ele>1168</ele>
        <time>2023-05-18T02:23:45Z</time>
      </trkpt>
      <trkpt lat="42.96318" lon="-0.34397">
        <ele>1170</ele>
        <time>2023-05-18T02:23:49Z</time>
      </trkpt>
      <trkpt lat="42.96326" lon="-0.34309">
        <ele>1180</ele>
        <time>2023-05-18T02:24:01Z</time>
      </trkpt>
      <trkpt lat="42.9635" lon="-0.34171">
        <ele>1189</ele>
        <time>2023-05-18T02:24:19Z</time>
      </trkpt>
      <trkpt lat="42.9635" lon="-0.34124">
        <ele>1190</ele>
        <time>2023-05-18T02:24:25Z</time>
      </trkpt>
      <trkpt lat="42.96335" lon="-0.34073">
        <ele>1186</ele>
        <time>2023-05-18T02:24:33Z</time>
      </trkpt>
      <trkpt lat="42.96305" lon="-0.33997">
        <ele>1185</ele>
        <time>2023-05-18T02:24:44Z</time>
      </trkpt>
      <trkpt lat="42.96302" lon="-0.33984">
        <ele>1186</ele>
        <time>2023-05-18T02:24:46Z</time>
      </trkpt>
      <trkpt lat="42.96301" lon="-0.33973">
        <ele>1187</ele>
        <time>2023-05-18T02:24:47Z</time>
      </trkpt>
      <trkpt lat="42.96305" lon="-0.33953">
        <ele>1189</ele>
        <time>2023-05-18T02:24:50Z</time>
      </trkpt>
      <trkpt lat="42.96316" lon="-0.33939">
        <ele>1192</ele>
        <time>2023-05-18T02:24:52Z</time>
      </trkpt>
      <trkpt lat="42.96362" lon="-0.33931">
        <ele>1207</ele>
        <time>2023-05-18T02:25:01Z</time>
      </trkpt>
      <trkpt lat="42.96369" lon="-0.33932">
        <ele>1209</ele>
        <time>2023-05-18T02:25:02Z</time>
      </trkpt>
      <trkpt lat="42.96384" lon="-0.33939">
        <ele>1213</ele>
        <time>2023-05-18T02:25:05Z</time>
      </trkpt>
      <trkpt lat="42.96397" lon="-0.33955">
        <ele>1216</ele>
        <time>2023-05-18T02:25:08Z</time>
      </trkpt>
      <trkpt lat="42.96402" lon="-0.33966">
        <ele>1216</ele>
        <time>2023-05-18T02:25:10Z</time>
      </trkpt>
      <trkpt lat="42.96408" lon="-0.33995">
        <ele>1215</ele>
        <time>2023-05-18T02:25:13Z</time>
      </trkpt>
      <trkpt lat="42.96413" lon="-0.34096">
        <ele>1211</ele>
        <time>2023-05-18T02:25:27Z</time>
      </trkpt>
      <trkpt lat="42.96418" lon="-0.34137">
        <ele>1212</ele>
        <time>2023-05-18T02:25:32Z</time>
      </trkpt>
      <trkpt lat="42.96427" lon="-0.34177">
        <ele>1214</ele>
        <time>2023-05-18T02:25:38Z</time>
      </trkpt>
      <trkpt lat="42.96469" lon="-0.34328">
        <ele>1212</ele>
        <time>2023-05-18T02:25:59Z</time>
      </trkpt>
      <trkpt lat="42.9648" lon="-0.34342">
        <ele>1215</ele>
        <time>2023-05-18T02:26:01Z</time>
      </trkpt>
      <trkpt lat="42.96492" lon="-0.34343">
        <ele>1221</ele>
        <time>2023-05-18T02:26:03Z</time>
      </trkpt>
      <trkpt lat="42.96503" lon="-0.34332">
        <ele>1227</ele>
        <time>2023-05-18T02:26:06Z</time>
      </trkpt>
      <trkpt lat="42.96509" lon="-0.34313">
        <ele>1232</ele>
        <time>2023-05-18T02:26:09Z</time>
      </trkpt>
      <trkpt lat="42.96511" lon="-0.34267">
        <ele>1238</ele>
        <time>2023-05-18T02:26:15Z</time>
      </trkpt>
      <trkpt lat="42.96494" lon="-0.34089">
        <ele>1258</ele>
        <time>2023-05-18T02:26:38Z</time>
      </trkpt>
      <trkpt lat="42.96482" lon="-0.3403">
        <ele>1255</ele>
        <time>2023-05-18T02:26:46Z</time>
      </trkpt>
      <trkpt lat="42.96472" lon="-0.33944">
        <ele>1255</ele>
        <time>2023-05-18T02:26:57Z</time>
      </trkpt>
      <trkpt lat="42.96467" lon="-0.33921">
        <ele>1255</ele>
        <time>2023-05-18T02:27:00Z</time>
      </trkpt>
      <trkpt lat="42.96464" lon="-0.33894">
        <ele>1256</ele>
        <time>2023-05-18T02:27:04Z</time>
      </trkpt>
      <trkpt lat="42.96467" lon="-0.33855">
        <ele>1262</ele>
        <time>2023-05-18T02:27:09Z</time>
      </trkpt>
      <trkpt lat="42.96449" lon="-0.33782">
        <ele>1268</ele>
        <time>2023-05-18T02:27:19Z</time>
      </trkpt>
      <trkpt lat="42.96447" lon="-0.33699">
        <ele>1288</ele>
        <time>2023-05-18T02:27:30Z</time>
      </trkpt>
      <trkpt lat="42.96429" lon="-0.33571">
        <ele>1304</ele>
        <time>2023-05-18T02:27:47Z</time>
      </trkpt>
      <trkpt lat="42.96415" lon="-0.33532">
        <ele>1302</ele>
        <time>2023-05-18T02:27:52Z</time>
      </trkpt>
      <trkpt lat="42.96374" lon="-0.33436">
        <ele>1313</ele>
        <time>2023-05-18T02:28:07Z</time>
      </trkpt>
      <trkpt lat="42.96347" lon="-0.33381">
        <ele>1316</ele>
        <time>2023-05-18T02:28:16Z</time>
      </trkpt>
      <trkpt lat="42.96316" lon="-0.33336">
        <ele>1320</ele>
        <time>2023-05-18T02:28:24Z</time>
      </trkpt>
      <trkpt lat="42.96261" lon="-0.33284">
        <ele>1325</ele>
        <time>2023-05-18T02:28:35Z</time>
      </trkpt>
      <trkpt lat="42.96238" lon="-0.33268">
        <ele>1328</ele>
        <time>2023-05-18T02:28:40Z</time>
      </trkpt>
      <trkpt lat="42.96217" lon="-0.33262">
        <ele>1332</ele>
        <time>2023-05-18T02:28:44Z</time>
      </trkpt>
      <trkpt lat="42.96173" lon="-0.33262">
        <ele>1334</ele>
        <time>2023-05-18T02:28:52Z</time>
      </trkpt>
      <trkpt lat="42.96162" lon="-0.33264">
        <ele>1335</ele>
        <time>2023-05-18T02:28:54Z</time>
      </trkpt>
      <trkpt lat="42.96143" lon="-0.33276">
        <ele>1334</ele>
        <time>2023-05-18T02:28:57Z</time>
      </trkpt>
      <trkpt lat="42.9612" lon="-0.33299">
        <ele>1330</ele>
        <time>2023-05-18T02:29:02Z</time>
      </trkpt>
      <trkpt lat="42.96108" lon="-0.33305">
        <ele>1330</ele>
        <time>2023-05-18T02:29:05Z</time>
      </trkpt>
      <trkpt lat="42.96071" lon="-0.33283">
        <ele>1345</ele>
        <time>2023-05-18T02:29:12Z</time>
      </trkpt>
      <trkpt lat="42.96056" lon="-0.33279">
        <ele>1349</ele>
        <time>2023-05-18T02:29:15Z</time>
      </trkpt>
      <trkpt lat="42.96042" lon="-0.33282">
        <ele>1350</ele>
        <time>2023-05-18T02:29:17Z</time>
      </trkpt>
      <trkpt lat="42.96007" lon="-0.333">
        <ele>1353</ele>
        <time>2023-05-18T02:29:24Z</time>
      </trkpt>
      <trkpt lat="42.95997" lon="-0.33303">
        <ele>1354</ele>
        <time>2023-05-18T02:29:26Z</time>
      </trkpt>
      <trkpt lat="42.95973" lon="-0.33305">
        <ele>1355</ele>
        <time>2023-05-18T02:29:30Z</time>
      </trkpt>
      <trkpt lat="42.95935" lon="-0.33296">
        <ele>1359</ele>
        <time>2023-05-18T02:29:37Z</time>
      </trkpt>
      <trkpt lat="42.9591" lon="-0.33293">
        <ele>1360</ele>
        <time>2023-05-18T02:29:41Z</time>
      </trkpt>
      <trkpt lat="42.95864" lon="-0.333">
        <ele>1359</ele>
        <time>2023-05-18T02:29:50Z</time>
      </trkpt>
      <trkpt lat="42.95853" lon="-0.33299">
        <ele>1359</ele>
        <time>2023-05-18T02:29:51Z</time>
      </trkpt>
      <trkpt lat="42.95834" lon="-0.33291">
        <ele>1359</ele>
        <time>2023-05-18T02:29:55Z</time>
      </trkpt>
      <trkpt lat="42.95816" lon="-0.33276">
        <ele>1359</ele>
        <time>2023-05-18T02:29:59Z</time>
      </trkpt>
      <trkpt lat="42.95808" lon="-0.33261">
        <ele>1360</ele>
        <time>2023-05-18T02:30:01Z</time>
      </trkpt>
      <trkpt lat="42.95807" lon="-0.33252">
        <ele>1360</ele>
        <time>2023-05-18T02:30:02Z</time>
      </trkpt>
      <trkpt lat="42.9581" lon="-0.33245">
        <ele>1361</ele>
        <time>2023-05-18T02:30:03Z</time>
      </trkpt>
      <trkpt lat="42.95817" lon="-0.33236">
        <ele>1362</ele>
        <time>2023-05-18T02:30:05Z</time>
      </trkpt>
      <trkpt lat="42.95823" lon="-0.33234">
        <ele>1362</ele>
        <time>2023-05-18T02:30:06Z</time>
      </trkpt>
      <trkpt lat="42.95836" lon="-0.33235">
        <ele>1362</ele>
        <time>2023-05-18T02:30:09Z</time>
      </trkpt>
      <trkpt lat="42.95843" lon="-0.33239">
        <ele>1362</ele>
        <time>2023-05-18T02:30:10Z</time>
      </trkpt>
      <trkpt lat="42.95864" lon="-0.33261">
        <ele>1361</ele>
        <time>2023-05-18T02:30:15Z</time>
      </trkpt>
      <trkpt lat="42.95881" lon="-0.33267">
        <ele>1361</ele>
        <time>2023-05-18T02:30:18Z</time>
      </trkpt>
      <trkpt lat="42.95924" lon="-0.33261">
        <ele>1364</ele>
        <time>2023-05-18T02:30:25Z</time>
      </trkpt>
      <trkpt lat="42.95954" lon="-0.33261">
        <ele>1363</ele>
        <time>2023-05-18T02:30:31Z</time>
      </trkpt>
      <trkpt lat="42.95962" lon="-0.33257">
        <ele>1364</ele>
        <time>2023-05-18T02:30:32Z</time>
      </trkpt>
      <trkpt lat="42.95976" lon="-0.33244">
        <ele>1366</ele>
        <time>2023-05-18T02:30:35Z</time>
      </trkpt>
      <trkpt lat="42.9599" lon="-0.33197">
        <ele>1372</ele>
        <time>2023-05-18T02:30:42Z</time>
      </trkpt>
      <trkpt lat="42.95999" lon="-0.3318">
        <ele>1374</ele>
        <time>2023-05-18T02:30:45Z</time>
      </trkpt>
      <trkpt lat="42.9604" lon="-0.33133">
        <ele>1383</ele>
        <time>2023-05-18T02:30:54Z</time>
      </trkpt>
      <trkpt lat="42.96055" lon="-0.33125">
        <ele>1385</ele>
        <time>2023-05-18T02:30:57Z</time>
      </trkpt>
      <trkpt lat="42.96077" lon="-0.3312">
        <ele>1386</ele>
        <time>2023-05-18T02:31:01Z</time>
      </trkpt>
      <trkpt lat="42.96106" lon="-0.33108">
        <ele>1390</ele>
        <time>2023-05-18T02:31:06Z</time>
      </trkpt>
      <trkpt lat="42.96134" lon="-0.33109">
        <ele>1390</ele>
        <time>2023-05-18T02:31:11Z</time>
      </trkpt>
      <trkpt lat="42.96164" lon="-0.331">
        <ele>1394</ele>
        <time>2023-05-18T02:31:17Z</time>
      </trkpt>
      <trkpt lat="42.96226" lon="-0.33061">
        <ele>1407</ele>
        <time>2023-05-18T02:31:29Z</time>
      </trkpt>
      <trkpt lat="42.96268" lon="-0.33043">
        <ele>1418</ele>
        <time>2023-05-18T02:31:37Z</time>
      </trkpt>
      <trkpt lat="42.96278" lon="-0.33041">
        <ele>1422</ele>
        <time>2023-05-18T02:31:39Z</time>
      </trkpt>
      <trkpt lat="42.96301" lon="-0.33043">
        <ele>1427</ele>
        <time>2023-05-18T02:31:43Z</time>
      </trkpt>
      <trkpt lat="42.9632" lon="-0.33056">
        <ele>1428</ele>
        <time>2023-05-18T02:31:46Z</time>
      </trkpt>
      <trkpt lat="42.96327" lon="-0.33065">
        <ele>1427</ele>
        <time>2023-05-18T02:31:48Z</time>
      </trkpt>
      <trkpt lat="42.96343" lon="-0.33102">
        <ele>1422</ele>
        <time>2023-05-18T02:31:54Z</time>
      </trkpt>
      <trkpt lat="42.96354" lon="-0.33118">
        <ele>1421</ele>
        <time>2023-05-18T02:31:57Z</time>
      </trkpt>
      <trkpt lat="42.96367" lon="-0.33126">
        <ele>1423</ele>
        <time>2023-05-18T02:31:59Z</time>
      </trkpt>
      <trkpt lat="42.96433" lon="-0.33156">
        <ele>1434</ele>
        <time>2023-05-18T02:32:12Z</time>
      </trkpt>
      <trkpt lat="42.96446" lon="-0.33167">
        <ele>1436</ele>
        <time>2023-05-18T02:32:14Z</time>
      </trkpt>
      <trkpt lat="42.96477" lon="-0.33203">
        <ele>1440</ele>
        <time>2023-05-18T02:32:22Z</time>
      </trkpt>
      <trkpt lat="42.96495" lon="-0.33233">
        <ele>1439</ele>
        <time>2023-05-18T02:32:27Z</time>
      </trkpt>
      <trkpt lat="42.96513" lon="-0.33343">
        <ele>1435</ele>
        <time>2023-05-18T02:32:41Z</time>
      </trkpt>
      <trkpt lat="42.9653" lon="-0.33407">
        <ele>1437</ele>
        <time>2023-05-18T02:32:50Z</time>
      </trkpt>
      <trkpt lat="42.96542" lon="-0.33431">
        <ele>1437</ele>
        <time>2023-05-18T02:32:54Z</time>
      </trkpt>
      <trkpt lat="42.96557" lon="-0.33446">
        <ele>1440</ele>
        <time>2023-05-18T02:32:57Z</time>
      </trkpt>
      <trkpt lat="42.96566" lon="-0.33448">
        <ele>1444</ele>
        <time>2023-05-18T02:32:59Z</time>
      </trkpt>
      <trkpt lat="42.96604" lon="-0.3344">
        <ele>1466</ele>
        <time>2023-05-18T02:33:06Z</time>
      </trkpt>
      <trkpt lat="42.96612" lon="-0.3344">
        <ele>1470</ele>
        <time>2023-05-18T02:33:07Z</time>
      </trkpt>
      <trkpt lat="42.96623" lon="-0.33445">
        <ele>1473</ele>
        <time>2023-05-18T02:33:09Z</time>
      </trkpt>
      <trkpt lat="42.96632" lon="-0.33457">
        <ele>1473</ele>
        <time>2023-05-18T02:33:11Z</time>
      </trkpt>
      <trkpt lat="42.9664" lon="-0.33504">
        <ele>1460</ele>
        <time>2023-05-18T02:33:18Z</time>
      </trkpt>
      <trkpt lat="42.96646" lon="-0.33524">
        <ele>1459</ele>
        <time>2023-05-18T02:33:20Z</time>
      </trkpt>
      <trkpt lat="42.96661" lon="-0.33541">
        <ele>1462</ele>
        <time>2023-05-18T02:33:24Z</time>
      </trkpt>
      <trkpt lat="42.96682" lon="-0.33553">
        <ele>1467</ele>
        <time>2023-05-18T02:33:28Z</time>
      </trkpt>
      <trkpt lat="42.96727" lon="-0.33563">
        <ele>1479</ele>
        <time>2023-05-18T02:33:36Z</time>
      </trkpt>
      <trkpt lat="42.96744" lon="-0.33573">
        <ele>1480</ele>
        <time>2023-05-18T02:33:39Z</time>
      </trkpt>
      <trkpt lat="42.96764" lon="-0.33589">
        <ele>1480</ele>
        <time>2023-05-18T02:33:44Z</time>
      </trkpt>
      <trkpt lat="42.96789" lon="-0.336">
        <ele>1482</ele>
        <time>2023-05-18T02:33:48Z</time>
      </trkpt>
      <trkpt lat="42.96814" lon="-0.33637">
        <ele>1476</ele>
        <time>2023-05-18T02:33:55Z</time>
      </trkpt>
      <trkpt lat="42.96824" lon="-0.33646">
        <ele>1476</ele>
        <time>2023-05-18T02:33:57Z</time>
      </trkpt>
      <trkpt lat="42.96845" lon="-0.33657">
        <ele>1480</ele>
        <time>2023-05-18T02:34:01Z</time>
      </trkpt>
      <trkpt lat="42.96875" lon="-0.33664">
        <ele>1493</ele>
        <time>2023-05-18T02:34:06Z</time>
      </trkpt>
      <trkpt lat="42.96884" lon="-0.33671">
        <ele>1497</ele>
        <time>2023-05-18T02:34:08Z</time>
      </trkpt>
      <trkpt lat="42.96887" lon="-0.33677">
        <ele>1498</ele>
        <time>2023-05-18T02:34:09Z</time>
      </trkpt>
      <trkpt lat="42.96888" lon="-0.33684">
        <ele>1498</ele>
        <time>2023-05-18T02:34:10Z</time>
      </trkpt>
      <trkpt lat="42.96883" lon="-0.33721">
        <ele>1492</ele>
        <time>2023-05-18T02:34:15Z</time>
      </trkpt>
      <trkpt lat="42.96891" lon="-0.33748">
        <ele>1494</ele>
        <time>2023-05-18T02:34:19Z</time>
      </trkpt>
      <trkpt lat="42.96891" lon="-0.33757">
        <ele>1495</ele>
        <time>2023-05-18T02:34:20Z</time>
      </trkpt>
      <trkpt lat="42.96884" lon="-0.33794">
        <ele>1494</ele>
        <time>2023-05-18T02:34:25Z</time>
      </trkpt>
      <trkpt lat="42.96886" lon="-0.33822">
        <ele>1497</ele>
        <time>2023-05-18T02:34:29Z</time>
      </trkpt>
      <trkpt lat="42.96898" lon="-0.33887">
        <ele>1503</ele>
        <time>2023-05-18T02:34:37Z</time>
      </trkpt>
      <trkpt lat="42.96904" lon="-0.33934">
        <ele>1504</ele>
        <time>2023-05-18T02:34:43Z</time>
      </trkpt>
      <trkpt lat="42.96926" lon="-0.34022">
        <ele>1512</ele>
        <time>2023-05-18T02:34:56Z</time>
      </trkpt>
      <trkpt lat="42.96944" lon="-0.34068">
        <ele>1524</ele>
        <time>2023-05-18T02:35:02Z</time>
      </trkpt>
      <trkpt lat="42.96943" lon="-0.34077">
        <ele>1523</ele>
        <time>2023-05-18T02:35:04Z</time>
      </trkpt>
      <trkpt lat="42.96926" lon="-0.34123">
        <ele>1511</ele>
        <time>2023-05-18T02:35:10Z</time>
      </trkpt>
      <trkpt lat="42.96927" lon="-0.34139">
        <ele>1511</ele>
        <time>2023-05-18T02:35:12Z</time>
      </trkpt>
      <trkpt lat="42.96966" lon="-0.34221">
        <ele>1531</ele>
        <time>2023-05-18T02:35:25Z</time>
      </trkpt>
      <trkpt lat="42.96986" lon="-0.34273">
        <ele>1540</ele>
        <time>2023-05-18T02:35:33Z</time>
      </trkpt>
      <trkpt lat="42.96988" lon="-0.34299">
        <ele>1539</ele>
        <time>2023-05-18T02:35:36Z</time>
      </trkpt>
      <trkpt lat="42.96983" lon="-0.34342">
        <ele>1530</ele>
        <time>2023-05-18T02:35:42Z</time>
      </trkpt>
      <trkpt lat="42.96983" lon="-0.34361">
        <ele>1526</ele>
        <time>2023-05-18T02:35:44Z</time>
      </trkpt>
      <trkpt lat="42.96992" lon="-0.34377">
        <ele>1528</ele>
        <time>2023-05-18T02:35:47Z</time>
      </trkpt>
      <trkpt lat="42.97015" lon="-0.34398">
        <ele>1537</ele>
        <time>2023-05-18T02:35:52Z</time>
      </trkpt>
      <trkpt lat="42.97031" lon="-0.34419">
        <ele>1542</ele>
        <time>2023-05-18T02:35:56Z</time>
      </trkpt>
      <trkpt lat="42.97071" lon="-0.345">
        <ele>1548</ele>
        <time>2023-05-18T02:36:08Z</time>
      </trkpt>
      <trkpt lat="42.97077" lon="-0.34518">
        <ele>1548</ele>
        <time>2023-05-18T02:36:11Z</time>
      </trkpt>
      <trkpt lat="42.97088" lon="-0.34537">
        <ele>1551</ele>
        <time>2023-05-18T02:36:14Z</time>
      </trkpt>
      <trkpt lat="42.97105" lon="-0.34552">
        <ele>1556</ele>
        <time>2023-05-18T02:36:18Z</time>
      </trkpt>
      <trkpt lat="42.97137" lon="-0.34572">
        <ele>1566</ele>
        <time>2023-05-18T02:36:24Z</time>
      </trkpt>
      <trkpt lat="42.97144" lon="-0.34579">
        <ele>1568</ele>
        <time>2023-05-18T02:36:26Z</time>
      </trkpt>
      <trkpt lat="42.97155" lon="-0.34619">
        <ele>1561</ele>
        <time>2023-05-18T02:36:31Z</time>
      </trkpt>
      <trkpt lat="42.9716" lon="-0.34666">
        <ele>1551</ele>
        <time>2023-05-18T02:36:37Z</time>
      </trkpt>
      <trkpt lat="42.97167" lon="-0.34678">
        <ele>1553</ele>
        <time>2023-05-18T02:36:39Z</time>
      </trkpt>
      <trkpt lat="42.97172" lon="-0.3468">
        <ele>1553</ele>
        <time>2023-05-18T02:36:40Z</time>
      </trkpt>
      <trkpt lat="42.97181" lon="-0.34674">
        <ele>1555</ele>
        <time>2023-05-18T02:36:42Z</time>
      </trkpt>
      <trkpt lat="42.97184" lon="-0.34666">
        <ele>1556</ele>
        <time>2023-05-18T02:36:43Z</time>
      </trkpt>
      <trkpt lat="42.97185" lon="-0.34611">
        <ele>1570</ele>
        <time>2023-05-18T02:36:50Z</time>
      </trkpt>
      <trkpt lat="42.97189" lon="-0.34591">
        <ele>1576</ele>
        <time>2023-05-18T02:36:53Z</time>
      </trkpt>
      <trkpt lat="42.97193" lon="-0.34584">
        <ele>1578</ele>
        <time>2023-05-18T02:36:54Z</time>
      </trkpt>
      <trkpt lat="42.97206" lon="-0.34578">
        <ele>1581</ele>
        <time>2023-05-18T02:36:57Z</time>
      </trkpt>
      <trkpt lat="42.97233" lon="-0.34577">
        <ele>1583</ele>
        <time>2023-05-18T02:37:02Z</time>
      </trkpt>
      <trkpt lat="42.9725" lon="-0.34582">
        <ele>1583</ele>
        <time>2023-05-18T02:37:05Z</time>
      </trkpt>
      <trkpt lat="42.97257" lon="-0.34592">
        <ele>1583</ele>
        <time>2023-05-18T02:37:06Z</time>
      </trkpt>
      <trkpt lat="42.97266" lon="-0.34626">
        <ele>1577</ele>
        <time>2023-05-18T02:37:11Z</time>
      </trkpt>
      <trkpt lat="42.97274" lon="-0.34638">
        <ele>1576</ele>
        <time>2023-05-18T02:37:13Z</time>
      </trkpt>
      <trkpt lat="42.97287" lon="-0.34645">
        <ele>1578</ele>
        <time>2023-05-18T02:37:16Z</time>
      </trkpt>
      <trkpt lat="42.97333" lon="-0.34651">
        <ele>1587</ele>
        <time>2023-05-18T02:37:24Z</time>
      </trkpt>
      <trkpt lat="42.97351" lon="-0.34648">
        <ele>1588</ele>
        <time>2023-05-18T02:37:27Z</time>
      </trkpt>
      <trkpt lat="42.97358" lon="-0.34643">
        <ele>1588</ele>
        <time>2023-05-18T02:37:29Z</time>
      </trkpt>
      <trkpt lat="42.97363" lon="-0.34637">
        <ele>1590</ele>
        <time>2023-05-18T02:37:30Z</time>
      </trkpt>
      <trkpt lat="42.97368" lon="-0.34621">
        <ele>1593</ele>
        <time>2023-05-18T02:37:32Z</time>
      </trkpt>
      <trkpt lat="42.97365" lon="-0.34564">
        <ele>1603</ele>
        <time>2023-05-18T02:37:39Z</time>
      </trkpt>
      <trkpt lat="42.9737" lon="-0.34544">
        <ele>1605</ele>
        <time>2023-05-18T02:37:42Z</time>
      </trkpt>
      <trkpt lat="42.97382" lon="-0.34533">
        <ele>1606</ele>
        <time>2023-05-18T02:37:45Z</time>
      </trkpt>
      <trkpt lat="42.97397" lon="-0.34528">
        <ele>1607</ele>
        <time>2023-05-18T02:37:48Z</time>
      </trkpt>
      <trkpt lat="42.97404" lon="-0.34522">
        <ele>1607</ele>
        <time>2023-05-18T02:37:49Z</time>
      </trkpt>
      <trkpt lat="42.97415" lon="-0.34505">
        <ele>1609</ele>
        <time>2023-05-18T02:37:52Z</time>
      </trkpt>
      <trkpt lat="42.9743" lon="-0.34459">
        <ele>1616</ele>
        <time>2023-05-18T02:37:59Z</time>
      </trkpt>
      <trkpt lat="42.97444" lon="-0.34446">
        <ele>1618</ele>
        <time>2023-05-18T02:38:02Z</time>
      </trkpt>
      <trkpt lat="42.97454" lon="-0.34443">
        <ele>1619</ele>
        <time>2023-05-18T02:38:03Z</time>
      </trkpt>
      <trkpt lat="42.97464" lon="-0.34444">
        <ele>1620</ele>
        <time>2023-05-18T02:38:05Z</time>
      </trkpt>
      <trkpt lat="42.97488" lon="-0.34457">
        <ele>1621</ele>
        <time>2023-05-18T02:38:10Z</time>
      </trkpt>
      <trkpt lat="42.97512" lon="-0.34477">
        <ele>1622</ele>
        <time>2023-05-18T02:38:15Z</time>
      </trkpt>
      <trkpt lat="42.97539" lon="-0.34519">
        <ele>1623</ele>
        <time>2023-05-18T02:38:22Z</time>
      </trkpt>
      <trkpt lat="42.97553" lon="-0.3453">
        <ele>1623</ele>
        <time>2023-05-18T02:38:25Z</time>
      </trkpt>
      <trkpt lat="42.97561" lon="-0.34532">
        <ele>1624</ele>
        <time>2023-05-18T02:38:26Z</time>
      </trkpt>
      <trkpt lat="42.97578" lon="-0.34528">
        <ele>1627</ele>
        <time>2023-05-18T02:38:29Z</time>
      </trkpt>
      <trkpt lat="42.97586" lon="-0.34521">
        <ele>1629</ele>
        <time>2023-05-18T02:38:31Z</time>
      </trkpt>
      <trkpt lat="42.97606" lon="-0.34489">
        <ele>1637</ele>
        <time>2023-05-18T02:38:37Z</time>
      </trkpt>
      <trkpt lat="42.97618" lon="-0.34484">
        <ele>1639</ele>
        <time>2023-05-18T02:38:39Z</time>
      </trkpt>
      <trkpt lat="42.97624" lon="-0.34486">
        <ele>1640</ele>
        <time>2023-05-18T02:38:40Z</time>
      </trkpt>
      <trkpt lat="42.97646" lon="-0.34511">
        <ele>1638</ele>
        <time>2023-05-18T02:38:45Z</time>
      </trkpt>
      <trkpt lat="42.97663" lon="-0.34525">
        <ele>1637</ele>
        <time>2023-05-18T02:38:49Z</time>
      </trkpt>
      <trkpt lat="42.97684" lon="-0.34532">
        <ele>1635</ele>
        <time>2023-05-18T02:38:52Z</time>
      </trkpt>
      <trkpt lat="42.97694" lon="-0.34532">
        <ele>1635</ele>
        <time>2023-05-18T02:38:54Z</time>
      </trkpt>
      <trkpt lat="42.97713" lon="-0.34524">
        <ele>1637</ele>
        <time>2023-05-18T02:38:58Z</time>
      </trkpt>
      <trkpt lat="42.97727" lon="-0.34508">
        <ele>1641</ele>
        <time>2023-05-18T02:39:01Z</time>
      </trkpt>
      <trkpt lat="42.97752" lon="-0.34458">
        <ele>1652</ele>
        <time>2023-05-18T02:39:09Z</time>
      </trkpt>
      <trkpt lat="42.97777" lon="-0.34421">
        <ele>1654</ele>
        <time>2023-05-18T02:39:15Z</time>
      </trkpt>
      <trkpt lat="42.97804" lon="-0.34365">
        <ele>1659</ele>
        <time>2023-05-18T02:39:24Z</time>
      </trkpt>
      <trkpt lat="42.97815" lon="-0.34325">
        <ele>1666</ele>
        <time>2023-05-18T02:39:30Z</time>
      </trkpt>
      <trkpt lat="42.97822" lon="-0.34311">
        <ele>1670</ele>
        <time>2023-05-18T02:39:32Z</time>
      </trkpt>
      <trkpt lat="42.97836" lon="-0.34303">
        <ele>1670</ele>
        <time>2023-05-18T02:39:35Z</time>
      </trkpt>
      <trkpt lat="42.97844" lon="-0.34302">
        <ele>1671</ele>
        <time>2023-05-18T02:39:36Z</time>
      </trkpt>
      <trkpt lat="42.97853" lon="-0.34302">
        <ele>1670</ele>
        <time>2023-05-18T02:39:38Z</time>
      </trkpt>
      <trkpt lat="42.97881" lon="-0.34309">
        <ele>1667</ele>
        <time>2023-05-18T02:39:43Z</time>
      </trkpt>
      <trkpt lat="42.97893" lon="-0.34305">
        <ele>1668</ele>
        <time>2023-05-18T02:39:45Z</time>
      </trkpt>
      <trkpt lat="42.97897" lon="-0.34289">
        <ele>1673</ele>
        <time>2023-05-18T02:39:47Z</time>
      </trkpt>
      <trkpt lat="42.97892" lon="-0.34279">
        <ele>1676</ele>
        <time>2023-05-18T02:39:49Z</time>
      </trkpt>
      <trkpt lat="42.97881" lon="-0.34274">
        <ele>1678</ele>
        <time>2023-05-18T02:39:51Z</time>
      </trkpt>
      <trkpt lat="42.97858" lon="-0.34278">
        <ele>1678</ele>
        <time>2023-05-18T02:39:55Z</time>
      </trkpt>
      <trkpt lat="42.97819" lon="-0.34277">
        <ele>1682</ele>
        <time>2023-05-18T02:40:02Z</time>
      </trkpt>
      <trkpt lat="42.9781" lon="-0.34281">
        <ele>1682</ele>
        <time>2023-05-18T02:40:03Z</time>
      </trkpt>
      <trkpt lat="42.97779" lon="-0.3431">
        <ele>1678</ele>
        <time>2023-05-18T02:40:10Z</time>
      </trkpt>
      <trkpt lat="42.97761" lon="-0.34319">
        <ele>1679</ele>
        <time>2023-05-18T02:40:14Z</time>
      </trkpt>
      <trkpt lat="42.97739" lon="-0.34321">
        <ele>1679</ele>
        <time>2023-05-18T02:40:17Z</time>
      </trkpt>
      <trkpt lat="42.9773" lon="-0.34319">
        <ele>1679</ele>
        <time>2023-05-18T02:40:19Z</time>
      </trkpt>
      <trkpt lat="42.97722" lon="-0.34314">
        <ele>1679</ele>
        <time>2023-05-18T02:40:21Z</time>
      </trkpt>
      <trkpt lat="42.97715" lon="-0.34305">
        <ele>1681</ele>
        <time>2023-05-18T02:40:22Z</time>
      </trkpt>
      <trkpt lat="42.977" lon="-0.3424">
        <ele>1692</ele>
        <time>2023-05-18T02:40:31Z</time>
      </trkpt>
      <trkpt lat="42.97691" lon="-0.34211">
        <ele>1695</ele>
        <time>2023-05-18T02:40:35Z</time>
      </trkpt>
      <trkpt lat="42.97685" lon="-0.34199">
        <ele>1696</ele>
        <time>2023-05-18T02:40:37Z</time>
      </trkpt>
      <trkpt lat="42.97651" lon="-0.34151">
        <ele>1696</ele>
        <time>2023-05-18T02:40:46Z</time>
      </trkpt>
      <trkpt lat="42.97637" lon="-0.34121">
        <ele>1697</ele>
        <time>2023-05-18T02:40:51Z</time>
      </trkpt>
      <trkpt lat="42.97632" lon="-0.34103">
        <ele>1699</ele>
        <time>2023-05-18T02:40:53Z</time>
      </trkpt>
      <trkpt lat="42.97628" lon="-0.34065">
        <ele>1702</ele>
        <time>2023-05-18T02:40:58Z</time>
      </trkpt>
      <trkpt lat="42.97632" lon="-0.3403">
        <ele>1706</ele>
        <time>2023-05-18T02:41:03Z</time>
      </trkpt>
      <trkpt lat="42.97636" lon="-0.34017">
        <ele>1707</ele>
        <time>2023-05-18T02:41:04Z</time>
      </trkpt>
      <trkpt lat="42.9766" lon="-0.33975">
        <ele>1709</ele>
        <time>2023-05-18T02:41:11Z</time>
      </trkpt>
      <trkpt lat="42.97663" lon="-0.33959">
        <ele>1708</ele>
        <time>2023-05-18T02:41:14Z</time>
      </trkpt>
      <trkpt lat="42.9766" lon="-0.33939">
        <ele>1706</ele>
        <time>2023-05-18T02:41:16Z</time>
      </trkpt>
      <trkpt lat="42.97638" lon="-0.33889">
        <ele>1703</ele>
        <time>2023-05-18T02:41:24Z</time>
      </trkpt>
      <trkpt lat="42.97621" lon="-0.33817">
        <ele>1695</ele>
        <time>2023-05-18T02:41:34Z</time>
      </trkpt>
      <trkpt lat="42.97609" lon="-0.33796">
        <ele>1694</ele>
        <time>2023-05-18T02:41:37Z</time>
      </trkpt>
      <trkpt lat="42.97594" lon="-0.33781">
        <ele>1693</ele>
        <time>2023-05-18T02:41:40Z</time>
      </trkpt>
      <trkpt lat="42.97559" lon="-0.33754">
        <ele>1693</ele>
        <time>2023-05-18T02:41:48Z</time>
      </trkpt>
      <trkpt lat="42.97531" lon="-0.33727">
        <ele>1693</ele>
        <time>2023-05-18T02:41:54Z</time>
      </trkpt>
      <trkpt lat="42.97521" lon="-0.33708">
        <ele>1691</ele>
        <time>2023-05-18T02:41:57Z</time>
      </trkpt>
      <trkpt lat="42.97516" lon="-0.33685">
        <ele>1686</ele>
        <time>2023-05-18T02:42:00Z</time>
      </trkpt>
      <trkpt lat="42.97512" lon="-0.33593">
        <ele>1677</ele>
        <time>2023-05-18T02:42:12Z</time>
      </trkpt>
      <trkpt lat="42.97498" lon="-0.33504">
        <ele>1667</ele>
        <time>2023-05-18T02:42:24Z</time>
      </trkpt>
      <trkpt lat="42.97483" lon="-0.33459">
        <ele>1665</ele>
        <time>2023-05-18T02:42:30Z</time>
      </trkpt>
      <trkpt lat="42.97446" lon="-0.33413">
        <ele>1669</ele>
        <time>2023-05-18T02:42:39Z</time>
      </trkpt>
      <trkpt lat="42.97439" lon="-0.334">
        <ele>1668</ele>
        <time>2023-05-18T02:42:41Z</time>
      </trkpt>
      <trkpt lat="42.9741" lon="-0.33313">
        <ele>1659</ele>
        <time>2023-05-18T02:42:54Z</time>
      </trkpt>
      <trkpt lat="42.97395" lon="-0.33278">
        <ele>1656</ele>
        <time>2023-05-18T02:42:59Z</time>
      </trkpt>
      <trkpt lat="42.97361" lon="-0.33235">
        <ele>1652</ele>
        <time>2023-05-18T02:43:07Z</time>
      </trkpt>
      <trkpt lat="42.9735" lon="-0.33224">
        <ele>1651</ele>
        <time>2023-05-18T02:43:10Z</time>
      </trkpt>
      <trkpt lat="42.97324" lon="-0.33207">
        <ele>1648</ele>
        <time>2023-05-18T02:43:15Z</time>
      </trkpt>
      <trkpt lat="42.97298" lon="-0.33197">
        <ele>1645</ele>
        <time>2023-05-18T02:43:19Z</time>
      </trkpt>
      <trkpt lat="42.97272" lon="-0.33196">
        <ele>1644</ele>
        <time>2023-05-18T02:43:24Z</time>
      </trkpt>
      <trkpt lat="42.97243" lon="-0.33203">
        <ele>1647</ele>
        <time>2023-05-18T02:43:29Z</time>
      </trkpt>
      <trkpt lat="42.97229" lon="-0.33203">
        <ele>1650</ele>
        <time>2023-05-18T02:43:32Z</time>
      </trkpt>
      <trkpt lat="42.97219" lon="-0.33191">
        <ele>1649</ele>
        <time>2023-05-18T02:43:34Z</time>
      </trkpt>
      <trkpt lat="42.97216" lon="-0.3317">
        <ele>1645</ele>
        <time>2023-05-18T02:43:37Z</time>
      </trkpt>
      <trkpt lat="42.97223" lon="-0.33125">
        <ele>1635</ele>
        <time>2023-05-18T02:43:43Z</time>
      </trkpt>
      <trkpt lat="42.97223" lon="-0.33102">
        <ele>1630</ele>
        <time>2023-05-18T02:43:46Z</time>
      </trkpt>
      <trkpt lat="42.97176" lon="-0.33009">
        <ele>1626</ele>
        <time>2023-05-18T02:44:01Z</time>
      </trkpt>
      <trkpt lat="42.9716" lon="-0.32947">
        <ele>1624</ele>
        <time>2023-05-18T02:44:09Z</time>
      </trkpt>
      <trkpt lat="42.97149" lon="-0.3288">
        <ele>1620</ele>
        <time>2023-05-18T02:44:18Z</time>
      </trkpt>
      <trkpt lat="42.97149" lon="-0.32867">
        <ele>1619</ele>
        <time>2023-05-18T02:44:20Z</time>
      </trkpt>
      <trkpt lat="42.97156" lon="-0.32831">
        <ele>1615</ele>
        <time>2023-05-18T02:44:25Z</time>
      </trkpt>
      <trkpt lat="42.97155" lon="-0.32817">
        <ele>1613</ele>
        <time>2023-05-18T02:44:27Z</time>
      </trkpt>
      <trkpt lat="42.97148" lon="-0.32802">
        <ele>1613</ele>
        <time>2023-05-18T02:44:29Z</time>
      </trkpt>
      <trkpt lat="42.97133" lon="-0.32785">
        <ele>1614</ele>
        <time>2023-05-18T02:44:32Z</time>
      </trkpt>
      <trkpt lat="42.97122" lon="-0.32768">
        <ele>1614</ele>
        <time>2023-05-18T02:44:35Z</time>
      </trkpt>
      <trkpt lat="42.97119" lon="-0.32759">
        <ele>1614</ele>
        <time>2023-05-18T02:44:37Z</time>
      </trkpt>
      <trkpt lat="42.97118" lon="-0.32748">
        <ele>1613</ele>
        <time>2023-05-18T02:44:38Z</time>
      </trkpt>
      <trkpt lat="42.97122" lon="-0.32726">
        <ele>1613</ele>
        <time>2023-05-18T02:44:41Z</time>
      </trkpt>
      <trkpt lat="42.97132" lon="-0.32698">
        <ele>1613</ele>
        <time>2023-05-18T02:44:45Z</time>
      </trkpt>
      <trkpt lat="42.97148" lon="-0.32669">
        <ele>1612</ele>
        <time>2023-05-18T02:44:50Z</time>
      </trkpt>
      <trkpt lat="42.97175" lon="-0.32626">
        <ele>1609</ele>
        <time>2023-05-18T02:44:57Z</time>
      </trkpt>
      <trkpt lat="42.97196" lon="-0.32604">
        <ele>1606</ele>
        <time>2023-05-18T02:45:02Z</time>
      </trkpt>
      <trkpt lat="42.97231" lon="-0.32573">
        <ele>1600</ele>
        <time>2023-05-18T02:45:09Z</time>
      </trkpt>
      <trkpt lat="42.97242" lon="-0.32555">
        <ele>1596</ele>
        <time>2023-05-18T02:45:12Z</time>
      </trkpt>
      <trkpt lat="42.97247" lon="-0.32542">
        <ele>1593</ele>
        <time>2023-05-18T02:45:14Z</time>
      </trkpt>
      <trkpt lat="42.97249" lon="-0.32518">
        <ele>1590</ele>
        <time>2023-05-18T02:45:17Z</time>
      </trkpt>
      <trkpt lat="42.97245" lon="-0.32496">
        <ele>1587</ele>
        <time>2023-05-18T02:45:20Z</time>
      </trkpt>
      <trkpt lat="42.97241" lon="-0.32486">
        <ele>1585</ele>
        <time>2023-05-18T02:45:22Z</time>
      </trkpt>
      <trkpt lat="42.9723" lon="-0.32472">
        <ele>1582</ele>
        <time>2023-05-18T02:45:25Z</time>
      </trkpt>
      <trkpt lat="42.97223" lon="-0.32468">
        <ele>1582</ele>
        <time>2023-05-18T02:45:26Z</time>
      </trkpt>
      <trkpt lat="42.97203" lon="-0.32467">
        <ele>1583</ele>
        <time>2023-05-18T02:45:29Z</time>
      </trkpt>
      <trkpt lat="42.97193" lon="-0.32469">
        <ele>1584</ele>
        <time>2023-05-18T02:45:31Z</time>
      </trkpt>
      <trkpt lat="42.97128" lon="-0.32457">
        <ele>1591</ele>
        <time>2023-05-18T02:45:43Z</time>
      </trkpt>
      <trkpt lat="42.97094" lon="-0.32432">
        <ele>1594</ele>
        <time>2023-05-18T02:45:50Z</time>
      </trkpt>
      <trkpt lat="42.9709" lon="-0.32427">
        <ele>1594</ele>
        <time>2023-05-18T02:45:51Z</time>
      </trkpt>
      <trkpt lat="42.97088" lon="-0.32411">
        <ele>1593</ele>
        <time>2023-05-18T02:45:53Z</time>
      </trkpt>
      <trkpt lat="42.97094" lon="-0.32397">
        <ele>1592</ele>
        <time>2023-05-18T02:45:55Z</time>
      </trkpt>
      <trkpt lat="42.9713" lon="-0.32368">
        <ele>1577</ele>
        <time>2023-05-18T02:46:02Z</time>
      </trkpt>
      <trkpt lat="42.97136" lon="-0.32358">
        <ele>1574</ele>
        <time>2023-05-18T02:46:04Z</time>
      </trkpt>
      <trkpt lat="42.97145" lon="-0.32325">
        <ele>1567</ele>
        <time>2023-05-18T02:46:09Z</time>
      </trkpt>
      <trkpt lat="42.97144" lon="-0.32307">
        <ele>1569</ele>
        <time>2023-05-18T02:46:11Z</time>
      </trkpt>
      <trkpt lat="42.97136" lon="-0.32286">
        <ele>1576</ele>
        <time>2023-05-18T02:46:14Z</time>
      </trkpt>
      <trkpt lat="42.97135" lon="-0.32275">
        <ele>1578</ele>
        <time>2023-05-18T02:46:16Z</time>
      </trkpt>
      <trkpt lat="42.97138" lon="-0.32252">
        <ele>1578</ele>
        <time>2023-05-18T02:46:19Z</time>
      </trkpt>
      <trkpt lat="42.97148" lon="-0.32232">
        <ele>1575</ele>
        <time>2023-05-18T02:46:22Z</time>
      </trkpt>
      <trkpt lat="42.97174" lon="-0.32216">
        <ele>1563</ele>
        <time>2023-05-18T02:46:27Z</time>
      </trkpt>
      <trkpt lat="42.97184" lon="-0.32201">
        <ele>1560</ele>
        <time>2023-05-18T02:46:29Z</time>
      </trkpt>
      <trkpt lat="42.97197" lon="-0.32168">
        <ele>1559</ele>
        <time>2023-05-18T02:46:34Z</time>
      </trkpt>
      <trkpt lat="42.97214" lon="-0.32136">
        <ele>1552</ele>
        <time>2023-05-18T02:46:39Z</time>
      </trkpt>
      <trkpt lat="42.97223" lon="-0.3211">
        <ele>1549</ele>
        <time>2023-05-18T02:46:43Z</time>
      </trkpt>
      <trkpt lat="42.97227" lon="-0.3208">
        <ele>1548</ele>
        <time>2023-05-18T02:46:47Z</time>
      </trkpt>
      <trkpt lat="42.97226" lon="-0.32028">
        <ele>1550</ele>
        <time>2023-05-18T02:46:54Z</time>
      </trkpt>
      <trkpt lat="42.97254" lon="-0.31822">
        <ele>1552</ele>
        <time>2023-05-18T02:47:21Z</time>
      </trkpt>
      <trkpt lat="42.97265" lon="-0.31809">
        <ele>1554</ele>
        <time>2023-05-18T02:47:24Z</time>
      </trkpt>
      <trkpt lat="42.97272" lon="-0.31806">
        <ele>1554</ele>
        <time>2023-05-18T02:47:25Z</time>
      </trkpt>
      <trkpt lat="42.97281" lon="-0.31804">
        <ele>1553</ele>
        <time>2023-05-18T02:47:27Z</time>
      </trkpt>
      <trkpt lat="42.97323" lon="-0.31804">
        <ele>1545</ele>
        <time>2023-05-18T02:47:34Z</time>
      </trkpt>
      <trkpt lat="42.9735" lon="-0.31808">
        <ele>1537</ele>
        <time>2023-05-18T02:47:39Z</time>
      </trkpt>
      <trkpt lat="42.9743" lon="-0.3183">
        <ele>1506</ele>
        <time>2023-05-18T02:47:54Z</time>
      </trkpt>
      <trkpt lat="42.97444" lon="-0.31829">
        <ele>1504</ele>
        <time>2023-05-18T02:47:56Z</time>
      </trkpt>
      <trkpt lat="42.97469" lon="-0.31806">
        <ele>1514</ele>
        <time>2023-05-18T02:48:01Z</time>
      </trkpt>
      <trkpt lat="42.97521" lon="-0.31777">
        <ele>1515</ele>
        <time>2023-05-18T02:48:11Z</time>
      </trkpt>
      <trkpt lat="42.97542" lon="-0.31756">
        <ele>1514</ele>
        <time>2023-05-18T02:48:16Z</time>
      </trkpt>
      <trkpt lat="42.97557" lon="-0.31728">
        <ele>1511</ele>
        <time>2023-05-18T02:48:21Z</time>
      </trkpt>
      <trkpt lat="42.97571" lon="-0.3166">
        <ele>1506</ele>
        <time>2023-05-18T02:48:30Z</time>
      </trkpt>
      <trkpt lat="42.97564" lon="-0.31558">
        <ele>1507</ele>
        <time>2023-05-18T02:48:43Z</time>
      </trkpt>
      <trkpt lat="42.97564" lon="-0.31511">
        <ele>1504</ele>
        <time>2023-05-18T02:48:49Z</time>
      </trkpt>
      <trkpt lat="42.97557" lon="-0.31458">
        <ele>1508</ele>
        <time>2023-05-18T02:48:56Z</time>
      </trkpt>
      <trkpt lat="42.97571" lon="-0.31402">
        <ele>1493</ele>
        <time>2023-05-18T02:49:04Z</time>
      </trkpt>
      <trkpt lat="42.97572" lon="-0.31357">
        <ele>1492</ele>
        <time>2023-05-18T02:49:10Z</time>
      </trkpt>
      <trkpt lat="42.97571" lon="-0.31345">
        <ele>1493</ele>
        <time>2023-05-18T02:49:11Z</time>
      </trkpt>
      <trkpt lat="42.97562" lon="-0.31314">
        <ele>1499</ele>
        <time>2023-05-18T02:49:16Z</time>
      </trkpt>
      <trkpt lat="42.97561" lon="-0.31291">
        <ele>1500</ele>
        <time>2023-05-18T02:49:19Z</time>
      </trkpt>
      <trkpt lat="42.97563" lon="-0.31279">
        <ele>1499</ele>
        <time>2023-05-18T02:49:20Z</time>
      </trkpt>
      <trkpt lat="42.97582" lon="-0.31233">
        <ele>1488</ele>
        <time>2023-05-18T02:49:27Z</time>
      </trkpt>
      <trkpt lat="42.97608" lon="-0.31123">
        <ele>1476</ele>
        <time>2023-05-18T02:49:42Z</time>
      </trkpt>
      <trkpt lat="42.97615" lon="-0.31084">
        <ele>1472</ele>
        <time>2023-05-18T02:49:47Z</time>
      </trkpt>
      <trkpt lat="42.97615" lon="-0.31048">
        <ele>1465</ele>
        <time>2023-05-18T02:49:52Z</time>
      </trkpt>
      <trkpt lat="42.97604" lon="-0.31029">
        <ele>1467</ele>
        <time>2023-05-18T02:49:55Z</time>
      </trkpt>
      <trkpt lat="42.97577" lon="-0.31001">
        <ele>1475</ele>
        <time>2023-05-18T02:50:01Z</time>
      </trkpt>
      <trkpt lat="42.97559" lon="-0.30975">
        <ele>1474</ele>
        <time>2023-05-18T02:50:06Z</time>
      </trkpt>
      <trkpt lat="42.97523" lon="-0.30914">
        <ele>1465</ele>
        <time>2023-05-18T02:50:16Z</time>
      </trkpt>
      <trkpt lat="42.97488" lon="-0.30877">
        <ele>1469</ele>
        <time>2023-05-18T02:50:24Z</time>
      </trkpt>
      <trkpt lat="42.97473" lon="-0.30857">
        <ele>1468</ele>
        <time>2023-05-18T02:50:28Z</time>
      </trkpt>
      <trkpt lat="42.97448" lon="-0.30801">
        <ele>1465</ele>
        <time>2023-05-18T02:50:36Z</time>
      </trkpt>
      <trkpt lat="42.97448" lon="-0.30781">
        <ele>1462</ele>
        <time>2023-05-18T02:50:39Z</time>
      </trkpt>
      <trkpt lat="42.97461" lon="-0.30747">
        <ele>1451</ele>
        <time>2023-05-18T02:50:44Z</time>
      </trkpt>
      <trkpt lat="42.97464" lon="-0.30733">
        <ele>1450</ele>
        <time>2023-05-18T02:50:46Z</time>
      </trkpt>
      <trkpt lat="42.9748" lon="-0.30603">
        <ele>1445</ele>
        <time>2023-05-18T02:51:03Z</time>
      </trkpt>
      <trkpt lat="42.97478" lon="-0.30577">
        <ele>1444</ele>
        <time>2023-05-18T02:51:06Z</time>
      </trkpt>
      <trkpt lat="42.97474" lon="-0.30567">
        <ele>1443</ele>
        <time>2023-05-18T02:51:08Z</time>
      </trkpt>
      <trkpt lat="42.97461" lon="-0.3055">
        <ele>1442</ele>
        <time>2023-05-18T02:51:11Z</time>
      </trkpt>
      <trkpt lat="42.97428" lon="-0.30524">
        <ele>1445</ele>
        <time>2023-05-18T02:51:18Z</time>
      </trkpt>
      <trkpt lat="42.97416" lon="-0.30511">
        <ele>1446</ele>
        <time>2023-05-18T02:51:21Z</time>
      </trkpt>
      <trkpt lat="42.97395" lon="-0.30479">
        <ele>1439</ele>
        <time>2023-05-18T02:51:26Z</time>
      </trkpt>
      <trkpt lat="42.97381" lon="-0.30467">
        <ele>1438</ele>
        <time>2023-05-18T02:51:29Z</time>
      </trkpt>
      <trkpt lat="42.97354" lon="-0.30465">
        <ele>1443</ele>
        <time>2023-05-18T02:51:34Z</time>
      </trkpt>
      <trkpt lat="42.97317" lon="-0.30446">
        <ele>1442</ele>
        <time>2023-05-18T02:51:41Z</time>
      </trkpt>
      <trkpt lat="42.97289" lon="-0.30446">
        <ele>1448</ele>
        <time>2023-05-18T02:51:46Z</time>
      </trkpt>
      <trkpt lat="42.9728" lon="-0.30443">
        <ele>1448</ele>
        <time>2023-05-18T02:51:48Z</time>
      </trkpt>
      <trkpt lat="42.97263" lon="-0.30428">
        <ele>1445</ele>
        <time>2023-05-18T02:51:51Z</time>
      </trkpt>
      <trkpt lat="42.9724" lon="-0.30394">
        <ele>1439</ele>
        <time>2023-05-18T02:51:57Z</time>
      </trkpt>
      <trkpt lat="42.97227" lon="-0.30369">
        <ele>1438</ele>
        <time>2023-05-18T02:52:01Z</time>
      </trkpt>
      <trkpt lat="42.9718" lon="-0.303">
        <ele>1438</ele>
        <time>2023-05-18T02:52:13Z</time>
      </trkpt>
      <trkpt lat="42.9714" lon="-0.30224">
        <ele>1434</ele>
        <time>2023-05-18T02:52:26Z</time>
      </trkpt>
      <trkpt lat="42.97111" lon="-0.30189">
        <ele>1433</ele>
        <time>2023-05-18T02:52:33Z</time>
      </trkpt>
      <trkpt lat="42.97073" lon="-0.30159">
        <ele>1434</ele>
        <time>2023-05-18T02:52:40Z</time>
      </trkpt>
      <trkpt lat="42.97037" lon="-0.30126">
        <ele>1434</ele>
        <time>2023-05-18T02:52:48Z</time>
      </trkpt>
      <trkpt lat="42.97028" lon="-0.30112">
        <ele>1432</ele>
        <time>2023-05-18T02:52:51Z</time>
      </trkpt>
      <trkpt lat="42.9701" lon="-0.3006">
        <ele>1420</ele>
        <time>2023-05-18T02:52:58Z</time>
      </trkpt>
      <trkpt lat="42.97003" lon="-0.30053">
        <ele>1420</ele>
        <time>2023-05-18T02:53:00Z</time>
      </trkpt>
      <trkpt lat="42.96993" lon="-0.30053">
        <ele>1420</ele>
        <time>2023-05-18T02:53:01Z</time>
      </trkpt>
      <trkpt lat="42.96987" lon="-0.30056">
        <ele>1419</ele>
        <time>2023-05-18T02:53:02Z</time>
      </trkpt>
      <trkpt lat="42.96873" lon="-0.30146">
        <ele>1428</ele>
        <time>2023-05-18T02:53:26Z</time>
      </trkpt>
      <trkpt lat="42.96862" lon="-0.30158">
        <ele>1429</ele>
        <time>2023-05-18T02:53:28Z</time>
      </trkpt>
      <trkpt lat="42.96836" lon="-0.30198">
        <ele>1434</ele>
        <time>2023-05-18T02:53:35Z</time>
      </trkpt>
      <trkpt lat="42.96822" lon="-0.30204">
        <ele>1432</ele>
        <time>2023-05-18T02:53:38Z</time>
      </trkpt>
      <trkpt lat="42.96801" lon="-0.302">
        <ele>1424</ele>
        <time>2023-05-18T02:53:42Z</time>
      </trkpt>
      <trkpt lat="42.96782" lon="-0.302">
        <ele>1418</ele>
        <time>2023-05-18T02:53:45Z</time>
      </trkpt>
      <trkpt lat="42.96773" lon="-0.30204">
        <ele>1417</ele>
        <time>2023-05-18T02:53:47Z</time>
      </trkpt>
      <trkpt lat="42.96755" lon="-0.30218">
        <ele>1418</ele>
        <time>2023-05-18T02:53:50Z</time>
      </trkpt>
      <trkpt lat="42.96714" lon="-0.30259">
        <ele>1427</ele>
        <time>2023-05-18T02:54:00Z</time>
      </trkpt>
      <trkpt lat="42.96693" lon="-0.30273">
        <ele>1428</ele>
        <time>2023-05-18T02:54:04Z</time>
      </trkpt>
      <trkpt lat="42.96673" lon="-0.30276">
        <ele>1426</ele>
        <time>2023-05-18T02:54:07Z</time>
      </trkpt>
      <trkpt lat="42.96661" lon="-0.30273">
        <ele>1424</ele>
        <time>2023-05-18T02:54:09Z</time>
      </trkpt>
      <trkpt lat="42.96651" lon="-0.30267">
        <ele>1421</ele>
        <time>2023-05-18T02:54:11Z</time>
      </trkpt>
      <trkpt lat="42.96644" lon="-0.30259">
        <ele>1418</ele>
        <time>2023-05-18T02:54:13Z</time>
      </trkpt>
      <trkpt lat="42.9661" lon="-0.30197">
        <ele>1402</ele>
        <time>2023-05-18T02:54:23Z</time>
      </trkpt>
      <trkpt lat="42.966" lon="-0.30187">
        <ele>1401</ele>
        <time>2023-05-18T02:54:25Z</time>
      </trkpt>
      <trkpt lat="42.96593" lon="-0.30186">
        <ele>1401</ele>
        <time>2023-05-18T02:54:27Z</time>
      </trkpt>
      <trkpt lat="42.96557" lon="-0.30205">
        <ele>1399</ele>
        <time>2023-05-18T02:54:33Z</time>
      </trkpt>
      <trkpt lat="42.96511" lon="-0.30237">
        <ele>1396</ele>
        <time>2023-05-18T02:54:43Z</time>
      </trkpt>
      <trkpt lat="42.9644" lon="-0.30297">
        <ele>1389</ele>
        <time>2023-05-18T02:54:57Z</time>
      </trkpt>
      <trkpt lat="42.96423" lon="-0.30321">
        <ele>1391</ele>
        <time>2023-05-18T02:55:02Z</time>
      </trkpt>
      <trkpt lat="42.96389" lon="-0.30332">
        <ele>1409</ele>
        <time>2023-05-18T02:55:08Z</time>
      </trkpt>
      <trkpt lat="42.96377" lon="-0.30329">
        <ele>1414</ele>
        <time>2023-05-18T02:55:10Z</time>
      </trkpt>
      <trkpt lat="42.96372" lon="-0.30324">
        <ele>1415</ele>
        <time>2023-05-18T02:55:11Z</time>
      </trkpt>
      <trkpt lat="42.96364" lon="-0.30307">
        <ele>1414</ele>
        <time>2023-05-18T02:55:14Z</time>
      </trkpt>
      <trkpt lat="42.96335" lon="-0.30189">
        <ele>1385</ele>
        <time>2023-05-18T02:55:30Z</time>
      </trkpt>
      <trkpt lat="42.963" lon="-0.30084">
        <ele>1388</ele>
        <time>2023-05-18T02:55:45Z</time>
      </trkpt>
      <trkpt lat="42.96279" lon="-0.30033">
        <ele>1391</ele>
        <time>2023-05-18T02:55:53Z</time>
      </trkpt>
      <trkpt lat="42.96264" lon="-0.29968">
        <ele>1380</ele>
        <time>2023-05-18T02:56:02Z</time>
      </trkpt>
      <trkpt lat="42.96257" lon="-0.29947">
        <ele>1378</ele>
        <time>2023-05-18T02:56:05Z</time>
      </trkpt>
      <trkpt lat="42.96227" lon="-0.29895">
        <ele>1378</ele>
        <time>2023-05-18T02:56:13Z</time>
      </trkpt>
      <trkpt lat="42.96203" lon="-0.29859">
        <ele>1376</ele>
        <time>2023-05-18T02:56:20Z</time>
      </trkpt>
      <trkpt lat="42.96173" lon="-0.298">
        <ele>1363</ele>
        <time>2023-05-18T02:56:29Z</time>
      </trkpt>
      <trkpt lat="42.96132" lon="-0.29773">
        <ele>1377</ele>
        <time>2023-05-18T02:56:37Z</time>
      </trkpt>
      <trkpt lat="42.96099" lon="-0.29743">
        <ele>1385</ele>
        <time>2023-05-18T02:56:44Z</time>
      </trkpt>
      <trkpt lat="42.96086" lon="-0.29721">
        <ele>1383</ele>
        <time>2023-05-18T02:56:48Z</time>
      </trkpt>
      <trkpt lat="42.96051" lon="-0.29637">
        <ele>1368</ele>
        <time>2023-05-18T02:57:00Z</time>
      </trkpt>
      <trkpt lat="42.9604" lon="-0.29613">
        <ele>1364</ele>
        <time>2023-05-18T02:57:04Z</time>
      </trkpt>
      <trkpt lat="42.96033" lon="-0.29603">
        <ele>1365</ele>
        <time>2023-05-18T02:57:06Z</time>
      </trkpt>
      <trkpt lat="42.96019" lon="-0.29586">
        <ele>1368</ele>
        <time>2023-05-18T02:57:09Z</time>
      </trkpt>
      <trkpt lat="42.95974" lon="-0.29561">
        <ele>1396</ele>
        <time>2023-05-18T02:57:18Z</time>
      </trkpt>
      <trkpt lat="42.95956" lon="-0.29538">
        <ele>1399</ele>
        <time>2023-05-18T02:57:22Z</time>
      </trkpt>
      <trkpt lat="42.95944" lon="-0.29509">
        <ele>1394</ele>
        <time>2023-05-18T02:57:27Z</time>
      </trkpt>
      <trkpt lat="42.95937" lon="-0.29464">
        <ele>1375</ele>
        <time>2023-05-18T02:57:33Z</time>
      </trkpt>
      <trkpt lat="42.95929" lon="-0.29442">
        <ele>1369</ele>
        <time>2023-05-18T02:57:36Z</time>
      </trkpt>
      <trkpt lat="42.9588" lon="-0.29377">
        <ele>1369</ele>
        <time>2023-05-18T02:57:48Z</time>
      </trkpt>
      <trkpt lat="42.95859" lon="-0.29337">
        <ele>1367</ele>
        <time>2023-05-18T02:57:54Z</time>
      </trkpt>
      <trkpt lat="42.9583" lon="-0.29299">
        <ele>1381</ele>
        <time>2023-05-18T02:58:01Z</time>
      </trkpt>
      <trkpt lat="42.95826" lon="-0.2928">
        <ele>1380</ele>
        <time>2023-05-18T02:58:04Z</time>
      </trkpt>
      <trkpt lat="42.95829" lon="-0.29229">
        <ele>1366</ele>
        <time>2023-05-18T02:58:11Z</time>
      </trkpt>
      <trkpt lat="42.95823" lon="-0.29208">
        <ele>1365</ele>
        <time>2023-05-18T02:58:14Z</time>
      </trkpt>
      <trkpt lat="42.95805" lon="-0.29173">
        <ele>1372</ele>
        <time>2023-05-18T02:58:19Z</time>
      </trkpt>
      <trkpt lat="42.95803" lon="-0.29154">
        <ele>1365</ele>
        <time>2023-05-18T02:58:22Z</time>
      </trkpt>
      <trkpt lat="42.95805" lon="-0.29127">
        <ele>1346</ele>
        <time>2023-05-18T02:58:25Z</time>
      </trkpt>
      <trkpt lat="42.95798" lon="-0.29112">
        <ele>1344</ele>
        <time>2023-05-18T02:58:28Z</time>
      </trkpt>
      <trkpt lat="42.95765" lon="-0.29096">
        <ele>1368</ele>
        <time>2023-05-18T02:58:34Z</time>
      </trkpt>
      <trkpt lat="42.95746" lon="-0.29068">
        <ele>1367</ele>
        <time>2023-05-18T02:58:39Z</time>
      </trkpt>
      <trkpt lat="42.95734" lon="-0.2906">
        <ele>1373</ele>
        <time>2023-05-18T02:58:41Z</time>
      </trkpt>
      <trkpt lat="42.95659" lon="-0.29072">
        <ele>1453</ele>
        <time>2023-05-18T02:58:55Z</time>
      </trkpt>
      <trkpt lat="42.95619" lon="-0.29075">
        <ele>1484</ele>
        <time>2023-05-18T02:59:02Z</time>
      </trkpt>
      <trkpt lat="42.95607" lon="-0.29073">
        <ele>1491</ele>
        <time>2023-05-18T02:59:04Z</time>
      </trkpt>
      <trkpt lat="42.95596" lon="-0.29068">
        <ele>1495</ele>
        <time>2023-05-18T02:59:06Z</time>
      </trkpt>
      <trkpt lat="42.95584" lon="-0.29058">
        <ele>1494</ele>
        <time>2023-05-18T02:59:08Z</time>
      </trkpt>
      <trkpt lat="42.9551" lon="-0.2898">
        <ele>1435</ele>
        <time>2023-05-18T02:59:25Z</time>
      </trkpt>
      <trkpt lat="42.955" lon="-0.28963">
        <ele>1415</ele>
        <time>2023-05-18T02:59:28Z</time>
      </trkpt>
      <trkpt lat="42.95492" lon="-0.28929">
        <ele>1377</ele>
        <time>2023-05-18T02:59:33Z</time>
      </trkpt>
      <trkpt lat="42.95487" lon="-0.28919">
        <ele>1368</ele>
        <time>2023-05-18T02:59:34Z</time>
      </trkpt>
      <trkpt lat="42.95481" lon="-0.2891">
        <ele>1367</ele>
        <time>2023-05-18T02:59:36Z</time>
      </trkpt>
      <trkpt lat="42.95457" lon="-0.28886">
        <ele>1376</ele>
        <time>2023-05-18T02:59:41Z</time>
      </trkpt>
      <trkpt lat="42.95442" lon="-0.28862">
        <ele>1379</ele>
        <time>2023-05-18T02:59:45Z</time>
      </trkpt>
      <trkpt lat="42.9542" lon="-0.28769">
        <ele>1367</ele>
        <time>2023-05-18T02:59:58Z</time>
      </trkpt>
      <trkpt lat="42.95393" lon="-0.28698">
        <ele>1379</ele>
        <time>2023-05-18T03:00:08Z</time>
      </trkpt>
      <trkpt lat="42.95391" lon="-0.28676">
        <ele>1377</ele>
        <time>2023-05-18T03:00:11Z</time>
      </trkpt>
      <trkpt lat="42.95396" lon="-0.28659">
        <ele>1374</ele>
        <time>2023-05-18T03:00:14Z</time>
      </trkpt>
      <trkpt lat="42.95408" lon="-0.28637">
        <ele>1368</ele>
        <time>2023-05-18T03:00:17Z</time>
      </trkpt>
      <trkpt lat="42.9543" lon="-0.28583">
        <ele>1363</ele>
        <time>2023-05-18T03:00:25Z</time>
      </trkpt>
      <trkpt lat="42.95493" lon="-0.28455">
        <ele>1360</ele>
        <time>2023-05-18T03:00:45Z</time>
      </trkpt>
      <trkpt lat="42.95505" lon="-0.28405">
        <ele>1356</ele>
        <time>2023-05-18T03:00:52Z</time>
      </trkpt>
      <trkpt lat="42.95504" lon="-0.28383">
        <ele>1355</ele>
        <time>2023-05-18T03:00:55Z</time>
      </trkpt>
      <trkpt lat="42.9549" lon="-0.28338">
        <ele>1364</ele>
        <time>2023-05-18T03:01:01Z</time>
      </trkpt>
      <trkpt lat="42.95496" lon="-0.28307">
        <ele>1362</ele>
        <time>2023-05-18T03:01:06Z</time>
      </trkpt>
      <trkpt lat="42.95496" lon="-0.28274">
        <ele>1366</ele>
        <time>2023-05-18T03:01:10Z</time>
      </trkpt>
      <trkpt lat="42.95502" lon="-0.2819">
        <ele>1365</ele>
        <time>2023-05-18T03:01:21Z</time>
      </trkpt>
      <trkpt lat="42.95499" lon="-0.28159">
        <ele>1369</ele>
        <time>2023-05-18T03:01:25Z</time>
      </trkpt>
      <trkpt lat="42.95488" lon="-0.28122">
        <ele>1388</ele>
        <time>2023-05-18T03:01:30Z</time>
      </trkpt>
      <trkpt lat="42.95487" lon="-0.28111">
        <ele>1390</ele>
        <time>2023-05-18T03:01:32Z</time>
      </trkpt>
      <trkpt lat="42.95488" lon="-0.28103">
        <ele>1390</ele>
        <time>2023-05-18T03:01:33Z</time>
      </trkpt>
      <trkpt lat="42.95511" lon="-0.28056">
        <ele>1381</ele>
        <time>2023-05-18T03:01:40Z</time>
      </trkpt>
      <trkpt lat="42.95518" lon="-0.28034">
        <ele>1383</ele>
        <time>2023-05-18T03:01:43Z</time>
      </trkpt>
      <trkpt lat="42.95534" lon="-0.27944">
        <ele>1389</ele>
        <time>2023-05-18T03:01:55Z</time>
      </trkpt>
      <trkpt lat="42.95541" lon="-0.27804">
        <ele>1395</ele>
        <time>2023-05-18T03:02:13Z</time>
      </trkpt>
      <trkpt lat="42.95532" lon="-0.27752">
        <ele>1400</ele>
        <time>2023-05-18T03:02:20Z</time>
      </trkpt>
      <trkpt lat="42.95533" lon="-0.27737">
        <ele>1402</ele>
        <time>2023-05-18T03:02:22Z</time>
      </trkpt>
      <trkpt lat="42.95542" lon="-0.27718">
        <ele>1402</ele>
        <time>2023-05-18T03:02:25Z</time>
      </trkpt>
      <trkpt lat="42.9559" lon="-0.27668">
        <ele>1402</ele>
        <time>2023-05-18T03:02:36Z</time>
      </trkpt>
      <trkpt lat="42.95603" lon="-0.27656">
        <ele>1404</ele>
        <time>2023-05-18T03:02:39Z</time>
      </trkpt>
      <trkpt lat="42.95644" lon="-0.27627">
        <ele>1410</ele>
        <time>2023-05-18T03:02:47Z</time>
      </trkpt>
      <trkpt lat="42.95658" lon="-0.27625">
        <ele>1411</ele>
        <time>2023-05-18T03:02:50Z</time>
      </trkpt>
      <trkpt lat="42.95689" lon="-0.27634">
        <ele>1411</ele>
        <time>2023-05-18T03:02:55Z</time>
      </trkpt>
      <trkpt lat="42.95722" lon="-0.27638">
        <ele>1414</ele>
        <time>2023-05-18T03:03:01Z</time>
      </trkpt>
      <trkpt lat="42.95734" lon="-0.27643">
        <ele>1413</ele>
        <time>2023-05-18T03:03:03Z</time>
      </trkpt>
      <trkpt lat="42.95763" lon="-0.27662">
        <ele>1405</ele>
        <time>2023-05-18T03:03:09Z</time>
      </trkpt>
      <trkpt lat="42.95768" lon="-0.27663">
        <ele>1403</ele>
        <time>2023-05-18T03:03:10Z</time>
      </trkpt>
      <trkpt lat="42.95775" lon="-0.27662">
        <ele>1402</ele>
        <time>2023-05-18T03:03:11Z</time>
      </trkpt>
      <trkpt lat="42.95779" lon="-0.27658">
        <ele>1402</ele>
        <time>2023-05-18T03:03:12Z</time>
      </trkpt>
      <trkpt lat="42.95788" lon="-0.27642">
        <ele>1405</ele>
        <time>2023-05-18T03:03:15Z</time>
      </trkpt>
      <trkpt lat="42.95815" lon="-0.27546">
        <ele>1427</ele>
        <time>2023-05-18T03:03:28Z</time>
      </trkpt>
      <trkpt lat="42.95823" lon="-0.27497">
        <ele>1439</ele>
        <time>2023-05-18T03:03:35Z</time>
      </trkpt>
      <trkpt lat="42.95841" lon="-0.27457">
        <ele>1434</ele>
        <time>2023-05-18T03:03:41Z</time>
      </trkpt>
      <trkpt lat="42.95844" lon="-0.27442">
        <ele>1433</ele>
        <time>2023-05-18T03:03:43Z</time>
      </trkpt>
      <trkpt lat="42.95842" lon="-0.27425">
        <ele>1434</ele>
        <time>2023-05-18T03:03:45Z</time>
      </trkpt>
      <trkpt lat="42.95822" lon="-0.27378">
        <ele>1440</ele>
        <time>2023-05-18T03:03:52Z</time>
      </trkpt>
      <trkpt lat="42.95814" lon="-0.27351">
        <ele>1443</ele>
        <time>2023-05-18T03:03:56Z</time>
      </trkpt>
      <trkpt lat="42.95806" lon="-0.27296">
        <ele>1448</ele>
        <time>2023-05-18T03:04:03Z</time>
      </trkpt>
      <trkpt lat="42.95809" lon="-0.27259">
        <ele>1446</ele>
        <time>2023-05-18T03:04:08Z</time>
      </trkpt>
      <trkpt lat="42.95834" lon="-0.27177">
        <ele>1441</ele>
        <time>2023-05-18T03:04:20Z</time>
      </trkpt>
      <trkpt lat="42.95835" lon="-0.27148">
        <ele>1441</ele>
        <time>2023-05-18T03:04:23Z</time>
      </trkpt>
      <trkpt lat="42.95828" lon="-0.27082">
        <ele>1444</ele>
        <time>2023-05-18T03:04:32Z</time>
      </trkpt>
      <trkpt lat="42.95829" lon="-0.27065">
        <ele>1446</ele>
        <time>2023-05-18T03:04:34Z</time>
      </trkpt>
      <trkpt lat="42.95835" lon="-0.27049">
        <ele>1445</ele>
        <time>2023-05-18T03:04:37Z</time>
      </trkpt>
      <trkpt lat="42.9586" lon="-0.27006">
        <ele>1441</ele>
        <time>2023-05-18T03:04:44Z</time>
      </trkpt>
      <trkpt lat="42.95882" lon="-0.26934">
        <ele>1445</ele>
        <time>2023-05-18T03:04:54Z</time>
      </trkpt>
      <trkpt lat="42.95889" lon="-0.26921">
        <ele>1445</ele>
        <time>2023-05-18T03:04:56Z</time>
      </trkpt>
      <trkpt lat="42.95905" lon="-0.26902">
        <ele>1443</ele>
        <time>2023-05-18T03:05:00Z</time>
      </trkpt>
      <trkpt lat="42.95918" lon="-0.26882">
        <ele>1442</ele>
        <time>2023-05-18T03:05:03Z</time>
      </trkpt>
      <trkpt lat="42.95934" lon="-0.26848">
        <ele>1445</ele>
        <time>2023-05-18T03:05:09Z</time>
      </trkpt>
      <trkpt lat="42.95939" lon="-0.2682">
        <ele>1446</ele>
        <time>2023-05-18T03:05:12Z</time>
      </trkpt>
      <trkpt lat="42.95943" lon="-0.2677">
        <ele>1446</ele>
        <time>2023-05-18T03:05:19Z</time>
      </trkpt>
      <trkpt lat="42.95977" lon="-0.26595">
        <ele>1448</ele>
        <time>2023-05-18T03:05:42Z</time>
      </trkpt>
      <trkpt lat="42.95992" lon="-0.26502">
        <ele>1453</ele>
        <time>2023-05-18T03:05:55Z</time>
      </trkpt>
      <trkpt lat="42.95999" lon="-0.26479">
        <ele>1455</ele>
        <time>2023-05-18T03:05:58Z</time>
      </trkpt>
      <trkpt lat="42.96026" lon="-0.26424">
        <ele>1459</ele>
        <time>2023-05-18T03:06:07Z</time>
      </trkpt>
      <trkpt lat="42.96037" lon="-0.2639">
        <ele>1461</ele>
        <time>2023-05-18T03:06:11Z</time>
      </trkpt>
      <trkpt lat="42.96049" lon="-0.26331">
        <ele>1466</ele>
        <time>2023-05-18T03:06:19Z</time>
      </trkpt>
      <trkpt lat="42.96065" lon="-0.26183">
        <ele>1470</ele>
        <time>2023-05-18T03:06:39Z</time>
      </trkpt>
      <trkpt lat="42.9606" lon="-0.26082">
        <ele>1470</ele>
        <time>2023-05-18T03:06:52Z</time>
      </trkpt>
      <trkpt lat="42.96061" lon="-0.26044">
        <ele>1468</ele>
        <time>2023-05-18T03:06:57Z</time>
      </trkpt>
      <trkpt lat="42.96058" lon="-0.26022">
        <ele>1465</ele>
        <time>2023-05-18T03:07:00Z</time>
      </trkpt>
      <trkpt lat="42.9604" lon="-0.25989">
        <ele>1459</ele>
        <time>2023-05-18T03:07:05Z</time>
      </trkpt>
      <trkpt lat="42.96035" lon="-0.25971">
        <ele>1457</ele>
        <time>2023-05-18T03:07:08Z</time>
      </trkpt>
      <trkpt lat="42.96033" lon="-0.2595">
        <ele>1454</ele>
        <time>2023-05-18T03:07:11Z</time>
      </trkpt>
      <trkpt lat="42.96035" lon="-0.25923">
        <ele>1452</ele>
        <time>2023-05-18T03:07:14Z</time>
      </trkpt>
      <trkpt lat="42.96042" lon="-0.25898">
        <ele>1451</ele>
        <time>2023-05-18T03:07:18Z</time>
      </trkpt>
      <trkpt lat="42.96055" lon="-0.25867">
        <ele>1450</ele>
        <time>2023-05-18T03:07:22Z</time>
      </trkpt>
      <trkpt lat="42.96077" lon="-0.25761">
        <ele>1445</ele>
        <time>2023-05-18T03:07:37Z</time>
      </trkpt>
      <trkpt lat="42.96082" lon="-0.25685">
        <ele>1442</ele>
        <time>2023-05-18T03:07:47Z</time>
      </trkpt>
      <trkpt lat="42.96079" lon="-0.25634">
        <ele>1438</ele>
        <time>2023-05-18T03:07:53Z</time>
      </trkpt>
      <trkpt lat="42.96067" lon="-0.25612">
        <ele>1433</ele>
        <time>2023-05-18T03:07:57Z</time>
      </trkpt>
      <trkpt lat="42.96044" lon="-0.25593">
        <ele>1427</ele>
        <time>2023-05-18T03:08:02Z</time>
      </trkpt>
      <trkpt lat="42.96035" lon="-0.25581">
        <ele>1425</ele>
        <time>2023-05-18T03:08:04Z</time>
      </trkpt>
      <trkpt lat="42.96026" lon="-0.25545">
        <ele>1423</ele>
        <time>2023-05-18T03:08:09Z</time>
      </trkpt>
      <trkpt lat="42.96026" lon="-0.25516">
        <ele>1423</ele>
        <time>2023-05-18T03:08:13Z</time>
      </trkpt>
      <trkpt lat="42.96035" lon="-0.25476">
        <ele>1421</ele>
        <time>2023-05-18T03:08:18Z</time>
      </trkpt>
      <trkpt lat="42.96056" lon="-0.2544">
        <ele>1421</ele>
        <time>2023-05-18T03:08:24Z</time>
      </trkpt>
      <trkpt lat="42.96076" lon="-0.25418">
        <ele>1421</ele>
        <time>2023-05-18T03:08:29Z</time>
      </trkpt>
      <trkpt lat="42.96107" lon="-0.25398">
        <ele>1420</ele>
        <time>2023-05-18T03:08:35Z</time>
      </trkpt>
      <trkpt lat="42.96111" lon="-0.25392">
        <ele>1420</ele>
        <time>2023-05-18T03:08:36Z</time>
      </trkpt>
      <trkpt lat="42.96116" lon="-0.25375">
        <ele>1417</ele>
        <time>2023-05-18T03:08:38Z</time>
      </trkpt>
      <trkpt lat="42.96117" lon="-0.25361">
        <ele>1415</ele>
        <time>2023-05-18T03:08:40Z</time>
      </trkpt>
      <trkpt lat="42.96117" lon="-0.25286">
        <ele>1406</ele>
        <time>2023-05-18T03:08:50Z</time>
      </trkpt>
      <trkpt lat="42.96125" lon="-0.25243">
        <ele>1405</ele>
        <time>2023-05-18T03:08:55Z</time>
      </trkpt>
      <trkpt lat="42.96121" lon="-0.25224">
        <ele>1404</ele>
        <time>2023-05-18T03:08:58Z</time>
      </trkpt>
      <trkpt lat="42.96099" lon="-0.25191">
        <ele>1397</ele>
        <time>2023-05-18T03:09:04Z</time>
      </trkpt>
      <trkpt lat="42.96095" lon="-0.25174">
        <ele>1396</ele>
        <time>2023-05-18T03:09:06Z</time>
      </trkpt>
      <trkpt lat="42.96099" lon="-0.25146">
        <ele>1396</ele>
        <time>2023-05-18T03:09:10Z</time>
      </trkpt>
      <trkpt lat="42.96116" lon="-0.25089">
        <ele>1398</ele>
        <time>2023-05-18T03:09:18Z</time>
      </trkpt>
      <trkpt lat="42.96114" lon="-0.25063">
        <ele>1397</ele>
        <time>2023-05-18T03:09:21Z</time>
      </trkpt>
      <trkpt lat="42.96104" lon="-0.25048">
        <ele>1394</ele>
        <time>2023-05-18T03:09:24Z</time>
      </trkpt>
      <trkpt lat="42.9609" lon="-0.25039">
        <ele>1390</ele>
        <time>2023-05-18T03:09:27Z</time>
      </trkpt>
      <trkpt lat="42.96034" lon="-0.25031">
        <ele>1376</ele>
        <time>2023-05-18T03:09:37Z</time>
      </trkpt>
      <trkpt lat="42.96028" lon="-0.25028">
        <ele>1374</ele>
        <time>2023-05-18T03:09:38Z</time>
      </trkpt>
      <trkpt lat="42.96019" lon="-0.25018">
        <ele>1372</ele>
        <time>2023-05-18T03:09:40Z</time>
      </trkpt>
      <trkpt lat="42.96011" lon="-0.24999">
        <ele>1370</ele>
        <time>2023-05-18T03:09:43Z</time>
      </trkpt>
      <trkpt lat="42.96005" lon="-0.24963">
        <ele>1367</ele>
        <time>2023-05-18T03:09:48Z</time>
      </trkpt>
      <trkpt lat="42.96007" lon="-0.24936">
        <ele>1367</ele>
        <time>2023-05-18T03:09:51Z</time>
      </trkpt>
      <trkpt lat="42.96031" lon="-0.24861">
        <ele>1364</ele>
        <time>2023-05-18T03:10:02Z</time>
      </trkpt>
      <trkpt lat="42.96055" lon="-0.2483">
        <ele>1366</ele>
        <time>2023-05-18T03:10:08Z</time>
      </trkpt>
      <trkpt lat="42.9607" lon="-0.24802">
        <ele>1365</ele>
        <time>2023-05-18T03:10:12Z</time>
      </trkpt>
      <trkpt lat="42.96079" lon="-0.24778">
        <ele>1363</ele>
        <time>2023-05-18T03:10:16Z</time>
      </trkpt>
      <trkpt lat="42.96093" lon="-0.24712">
        <ele>1356</ele>
        <time>2023-05-18T03:10:25Z</time>
      </trkpt>
      <trkpt lat="42.96129" lon="-0.24601">
        <ele>1345</ele>
        <time>2023-05-18T03:10:40Z</time>
      </trkpt>
      <trkpt lat="42.96149" lon="-0.24576">
        <ele>1346</ele>
        <time>2023-05-18T03:10:45Z</time>
      </trkpt>
      <trkpt lat="42.9625" lon="-0.24474">
        <ele>1339</ele>
        <time>2023-05-18T03:11:08Z</time>
      </trkpt>
      <trkpt lat="42.96262" lon="-0.24452">
        <ele>1335</ele>
        <time>2023-05-18T03:11:11Z</time>
      </trkpt>
      <trkpt lat="42.96307" lon="-0.24345">
        <ele>1319</ele>
        <time>2023-05-18T03:11:27Z</time>
      </trkpt>
      <trkpt lat="42.96339" lon="-0.24299">
        <ele>1319</ele>
        <time>2023-05-18T03:11:36Z</time>
      </trkpt>
      <trkpt lat="42.96346" lon="-0.24283">
        <ele>1319</ele>
        <time>2023-05-18T03:11:38Z</time>
      </trkpt>
      <trkpt lat="42.96346" lon="-0.2426">
        <ele>1316</ele>
        <time>2023-05-18T03:11:41Z</time>
      </trkpt>
      <trkpt lat="42.96337" lon="-0.24243">
        <ele>1314</ele>
        <time>2023-05-18T03:11:44Z</time>
      </trkpt>
      <trkpt lat="42.96331" lon="-0.24239">
        <ele>1312</ele>
        <time>2023-05-18T03:11:45Z</time>
      </trkpt>
      <trkpt lat="42.96298" lon="-0.24233">
        <ele>1305</ele>
        <time>2023-05-18T03:11:51Z</time>
      </trkpt>
      <trkpt lat="42.96286" lon="-0.24223">
        <ele>1302</ele>
        <time>2023-05-18T03:11:53Z</time>
      </trkpt>
      <trkpt lat="42.96278" lon="-0.24208">
        <ele>1300</ele>
        <time>2023-05-18T03:11:56Z</time>
      </trkpt>
      <trkpt lat="42.96271" lon="-0.24179">
        <ele>1297</ele>
        <time>2023-05-18T03:12:00Z</time>
      </trkpt>
      <trkpt lat="42.96271" lon="-0.24167">
        <ele>1297</ele>
        <time>2023-05-18T03:12:01Z</time>
      </trkpt>
      <trkpt lat="42.96272" lon="-0.24157">
        <ele>1295</ele>
        <time>2023-05-18T03:12:03Z</time>
      </trkpt>
      <trkpt lat="42.96279" lon="-0.24139">
        <ele>1294</ele>
        <time>2023-05-18T03:12:05Z</time>
      </trkpt>
      <trkpt lat="42.96292" lon="-0.24123">
        <ele>1292</ele>
        <time>2023-05-18T03:12:08Z</time>
      </trkpt>
      <trkpt lat="42.96307" lon="-0.24111">
        <ele>1291</ele>
        <time>2023-05-18T03:12:11Z</time>
      </trkpt>
      <trkpt lat="42.96324" lon="-0.24106">
        <ele>1291</ele>
        <time>2023-05-18T03:12:15Z</time>
      </trkpt>
      <trkpt lat="42.96357" lon="-0.24105">
        <ele>1294</ele>
        <time>2023-05-18T03:12:20Z</time>
      </trkpt>
      <trkpt lat="42.9637" lon="-0.24097">
        <ele>1294</ele>
        <time>2023-05-18T03:12:23Z</time>
      </trkpt>
      <trkpt lat="42.96376" lon="-0.24091">
        <ele>1293</ele>
        <time>2023-05-18T03:12:24Z</time>
      </trkpt>
      <trkpt lat="42.96408" lon="-0.24036">
        <ele>1289</ele>
        <time>2023-05-18T03:12:33Z</time>
      </trkpt>
      <trkpt lat="42.96416" lon="-0.24011">
        <ele>1288</ele>
        <time>2023-05-18T03:12:37Z</time>
      </trkpt>
      <trkpt lat="42.96416" lon="-0.2399">
        <ele>1286</ele>
        <time>2023-05-18T03:12:40Z</time>
      </trkpt>
      <trkpt lat="42.96395" lon="-0.23943">
        <ele>1278</ele>
        <time>2023-05-18T03:12:47Z</time>
      </trkpt>
      <trkpt lat="42.9639" lon="-0.23918">
        <ele>1275</ele>
        <time>2023-05-18T03:12:50Z</time>
      </trkpt>
      <trkpt lat="42.9639" lon="-0.23895">
        <ele>1274</ele>
        <time>2023-05-18T03:12:53Z</time>
      </trkpt>
      <trkpt lat="42.96401" lon="-0.23857">
        <ele>1276</ele>
        <time>2023-05-18T03:12:59Z</time>
      </trkpt>
      <trkpt lat="42.964" lon="-0.23836">
        <ele>1274</ele>
        <time>2023-05-18T03:13:01Z</time>
      </trkpt>
      <trkpt lat="42.96392" lon="-0.23805">
        <ele>1273</ele>
        <time>2023-05-18T03:13:06Z</time>
      </trkpt>
      <trkpt lat="42.9636" lon="-0.23711">
        <ele>1264</ele>
        <time>2023-05-18T03:13:19Z</time>
      </trkpt>
      <trkpt lat="42.96344" lon="-0.23674">
        <ele>1258</ele>
        <time>2023-05-18T03:13:25Z</time>
      </trkpt>
      <trkpt lat="42.96321" lon="-0.23631">
        <ele>1252</ele>
        <time>2023-05-18T03:13:32Z</time>
      </trkpt>
      <trkpt lat="42.96307" lon="-0.23593">
        <ele>1249</ele>
        <time>2023-05-18T03:13:37Z</time>
      </trkpt>
      <trkpt lat="42.96269" lon="-0.23457">
        <ele>1240</ele>
        <time>2023-05-18T03:13:56Z</time>
      </trkpt>
      <trkpt lat="42.96237" lon="-0.23356">
        <ele>1229</ele>
        <time>2023-05-18T03:14:10Z</time>
      </trkpt>
      <trkpt lat="42.96234" lon="-0.23325">
        <ele>1227</ele>
        <time>2023-05-18T03:14:15Z</time>
      </trkpt>
      <trkpt lat="42.96237" lon="-0.23297">
        <ele>1226</ele>
        <time>2023-05-18T03:14:18Z</time>
      </trkpt>
      <trkpt lat="42.96266" lon="-0.23189">
        <ele>1219</ele>
        <time>2023-05-18T03:14:33Z</time>
      </trkpt>
      <trkpt lat="42.96276" lon="-0.23165">
        <ele>1216</ele>
        <time>2023-05-18T03:14:37Z</time>
      </trkpt>
      <trkpt lat="42.96293" lon="-0.23141">
        <ele>1214</ele>
        <time>2023-05-18T03:14:41Z</time>
      </trkpt>
      <trkpt lat="42.96346" lon="-0.2309">
        <ele>1210</ele>
        <time>2023-05-18T03:14:53Z</time>
      </trkpt>
      <trkpt lat="42.96359" lon="-0.23086">
        <ele>1209</ele>
        <time>2023-05-18T03:14:55Z</time>
      </trkpt>
      <trkpt lat="42.96372" lon="-0.23086">
        <ele>1209</ele>
        <time>2023-05-18T03:14:57Z</time>
      </trkpt>
      <trkpt lat="42.96387" lon="-0.2309">
        <ele>1211</ele>
        <time>2023-05-18T03:15:00Z</time>
      </trkpt>
      <trkpt lat="42.96394" lon="-0.23089">
        <ele>1210</ele>
        <time>2023-05-18T03:15:01Z</time>
      </trkpt>
      <trkpt lat="42.96413" lon="-0.23076">
        <ele>1209</ele>
        <time>2023-05-18T03:15:05Z</time>
      </trkpt>
      <trkpt lat="42.96421" lon="-0.23055">
        <ele>1207</ele>
        <time>2023-05-18T03:15:08Z</time>
      </trkpt>
      <trkpt lat="42.96425" lon="-0.23026">
        <ele>1203</ele>
        <time>2023-05-18T03:15:12Z</time>
      </trkpt>
      <trkpt lat="42.96431" lon="-0.23004">
        <ele>1201</ele>
        <time>2023-05-18T03:15:15Z</time>
      </trkpt>
      <trkpt lat="42.96441" lon="-0.22987">
        <ele>1199</ele>
        <time>2023-05-18T03:15:18Z</time>
      </trkpt>
      <trkpt lat="42.9648" lon="-0.22951">
        <ele>1197</ele>
        <time>2023-05-18T03:15:26Z</time>
      </trkpt>
      <trkpt lat="42.96498" lon="-0.22925">
        <ele>1195</ele>
        <time>2023-05-18T03:15:31Z</time>
      </trkpt>
      <trkpt lat="42.96506" lon="-0.22905">
        <ele>1192</ele>
        <time>2023-05-18T03:15:34Z</time>
      </trkpt>
      <trkpt lat="42.96542" lon="-0.22788">
        <ele>1175</ele>
        <time>2023-05-18T03:15:50Z</time>
      </trkpt>
      <trkpt lat="42.96552" lon="-0.22769">
        <ele>1173</ele>
        <time>2023-05-18T03:15:53Z</time>
      </trkpt>
      <trkpt lat="42.96568" lon="-0.22757">
        <ele>1174</ele>
        <time>2023-05-18T03:15:57Z</time>
      </trkpt>
      <trkpt lat="42.96577" lon="-0.22755">
        <ele>1175</ele>
        <time>2023-05-18T03:15:58Z</time>
      </trkpt>
      <trkpt lat="42.96595" lon="-0.22757">
        <ele>1175</ele>
        <time>2023-05-18T03:16:02Z</time>
      </trkpt>
      <trkpt lat="42.96636" lon="-0.22789">
        <ele>1177</ele>
        <time>2023-05-18T03:16:10Z</time>
      </trkpt>
      <trkpt lat="42.9665" lon="-0.22795">
        <ele>1177</ele>
        <time>2023-05-18T03:16:13Z</time>
      </trkpt>
      <trkpt lat="42.96665" lon="-0.22791">
        <ele>1176</ele>
        <time>2023-05-18T03:16:15Z</time>
      </trkpt>
      <trkpt lat="42.96673" lon="-0.22786">
        <ele>1176</ele>
        <time>2023-05-18T03:16:17Z</time>
      </trkpt>
      <trkpt lat="42.96698" lon="-0.22766">
        <ele>1174</ele>
        <time>2023-05-18T03:16:22Z</time>
      </trkpt>
      <trkpt lat="42.9671" lon="-0.22751">
        <ele>1171</ele>
        <time>2023-05-18T03:16:25Z</time>
      </trkpt>
      <trkpt lat="42.96718" lon="-0.22734">
        <ele>1170</ele>
        <time>2023-05-18T03:16:28Z</time>
      </trkpt>
      <trkpt lat="42.9672" lon="-0.22711">
        <ele>1169</ele>
        <time>2023-05-18T03:16:31Z</time>
      </trkpt>
      <trkpt lat="42.96717" lon="-0.22684">
        <ele>1166</ele>
        <time>2023-05-18T03:16:34Z</time>
      </trkpt>
      <trkpt lat="42.9671" lon="-0.22659">
        <ele>1164</ele>
        <time>2023-05-18T03:16:38Z</time>
      </trkpt>
      <trkpt lat="42.96709" lon="-0.22641">
        <ele>1162</ele>
        <time>2023-05-18T03:16:40Z</time>
      </trkpt>
      <trkpt lat="42.9673" lon="-0.22507">
        <ele>1150</ele>
        <time>2023-05-18T03:16:58Z</time>
      </trkpt>
      <trkpt lat="42.96726" lon="-0.22483">
        <ele>1148</ele>
        <time>2023-05-18T03:17:01Z</time>
      </trkpt>
      <trkpt lat="42.96715" lon="-0.2246">
        <ele>1147</ele>
        <time>2023-05-18T03:17:05Z</time>
      </trkpt>
      <trkpt lat="42.96681" lon="-0.22413">
        <ele>1145</ele>
        <time>2023-05-18T03:17:13Z</time>
      </trkpt>
      <trkpt lat="42.96669" lon="-0.22401">
        <ele>1145</ele>
        <time>2023-05-18T03:17:16Z</time>
      </trkpt>
      <trkpt lat="42.96644" lon="-0.22388">
        <ele>1145</ele>
        <time>2023-05-18T03:17:21Z</time>
      </trkpt>
      <trkpt lat="42.96625" lon="-0.22386">
        <ele>1145</ele>
        <time>2023-05-18T03:17:24Z</time>
      </trkpt>
      <trkpt lat="42.96608" lon="-0.2239">
        <ele>1144</ele>
        <time>2023-05-18T03:17:27Z</time>
      </trkpt>
      <trkpt lat="42.96592" lon="-0.22398">
        <ele>1144</ele>
        <time>2023-05-18T03:17:30Z</time>
      </trkpt>
      <trkpt lat="42.96573" lon="-0.22402">
        <ele>1142</ele>
        <time>2023-05-18T03:17:33Z</time>
      </trkpt>
      <trkpt lat="42.96542" lon="-0.22401">
        <ele>1137</ele>
        <time>2023-05-18T03:17:39Z</time>
      </trkpt>
      <trkpt lat="42.96519" lon="-0.2239">
        <ele>1133</ele>
        <time>2023-05-18T03:17:43Z</time>
      </trkpt>
      <trkpt lat="42.96514" lon="-0.22383">
        <ele>1131</ele>
        <time>2023-05-18T03:17:45Z</time>
      </trkpt>
      <trkpt lat="42.96509" lon="-0.22365">
        <ele>1128</ele>
        <time>2023-05-18T03:17:47Z</time>
      </trkpt>
      <trkpt lat="42.96514" lon="-0.22332">
        <ele>1125</ele>
        <time>2023-05-18T03:17:52Z</time>
      </trkpt>
      <trkpt lat="42.96556" lon="-0.22221">
        <ele>1123</ele>
        <time>2023-05-18T03:18:08Z</time>
      </trkpt>
      <trkpt lat="42.96563" lon="-0.22195">
        <ele>1123</ele>
        <time>2023-05-18T03:18:11Z</time>
      </trkpt>
      <trkpt lat="42.96564" lon="-0.22174">
        <ele>1121</ele>
        <time>2023-05-18T03:18:14Z</time>
      </trkpt>
      <trkpt lat="42.9655" lon="-0.22115">
        <ele>1112</ele>
        <time>2023-05-18T03:18:22Z</time>
      </trkpt>
      <trkpt lat="42.96551" lon="-0.22089">
        <ele>1110</ele>
        <time>2023-05-18T03:18:26Z</time>
      </trkpt>
      <trkpt lat="42.96556" lon="-0.2205">
        <ele>1108</ele>
        <time>2023-05-18T03:18:31Z</time>
      </trkpt>
      <trkpt lat="42.96561" lon="-0.2203">
        <ele>1107</ele>
        <time>2023-05-18T03:18:34Z</time>
      </trkpt>
      <trkpt lat="42.96582" lon="-0.21989">
        <ele>1110</ele>
        <time>2023-05-18T03:18:40Z</time>
      </trkpt>
      <trkpt lat="42.9659" lon="-0.21962">
        <ele>1110</ele>
        <time>2023-05-18T03:18:44Z</time>
      </trkpt>
      <trkpt lat="42.96593" lon="-0.21901">
        <ele>1103</ele>
        <time>2023-05-18T03:18:52Z</time>
      </trkpt>
      <trkpt lat="42.96607" lon="-0.21824">
        <ele>1097</ele>
        <time>2023-05-18T03:19:02Z</time>
      </trkpt>
      <trkpt lat="42.9661" lon="-0.21785">
        <ele>1092</ele>
        <time>2023-05-18T03:19:07Z</time>
      </trkpt>
      <trkpt lat="42.96615" lon="-0.21762">
        <ele>1091</ele>
        <time>2023-05-18T03:19:10Z</time>
      </trkpt>
      <trkpt lat="42.96627" lon="-0.21728">
        <ele>1090</ele>
        <time>2023-05-18T03:19:15Z</time>
      </trkpt>
      <trkpt lat="42.96639" lon="-0.21655">
        <ele>1081</ele>
        <time>2023-05-18T03:19:25Z</time>
      </trkpt>
      <trkpt lat="42.96639" lon="-0.21598">
        <ele>1074</ele>
        <time>2023-05-18T03:19:32Z</time>
      </trkpt>
      <trkpt lat="42.96649" lon="-0.2155">
        <ele>1069</ele>
        <time>2023-05-18T03:19:39Z</time>
      </trkpt>
      <trkpt lat="42.96648" lon="-0.21537">
        <ele>1067</ele>
        <time>2023-05-18T03:19:41Z</time>
      </trkpt>
      <trkpt lat="42.96644" lon="-0.21527">
        <ele>1065</ele>
        <time>2023-05-18T03:19:42Z</time>
      </trkpt>
      <trkpt lat="42.9663" lon="-0.21521">
        <ele>1062</ele>
        <time>2023-05-18T03:19:45Z</time>
      </trkpt>
      <trkpt lat="42.96626" lon="-0.21522">
        <ele>1061</ele>
        <time>2023-05-18T03:19:45Z</time>
      </trkpt>
      <trkpt lat="42.96618" lon="-0.2153">
        <ele>1061</ele>
        <time>2023-05-18T03:19:47Z</time>
      </trkpt>
      <trkpt lat="42.96594" lon="-0.21599">
        <ele>1065</ele>
        <time>2023-05-18T03:19:57Z</time>
      </trkpt>
      <trkpt lat="42.96585" lon="-0.21612">
        <ele>1064</ele>
        <time>2023-05-18T03:19:59Z</time>
      </trkpt>
      <trkpt lat="42.96579" lon="-0.21618">
        <ele>1063</ele>
        <time>2023-05-18T03:20:01Z</time>
      </trkpt>
      <trkpt lat="42.96543" lon="-0.21635">
        <ele>1057</ele>
        <time>2023-05-18T03:20:08Z</time>
      </trkpt>
      <trkpt lat="42.9648" lon="-0.21712">
        <ele>1050</ele>
        <time>2023-05-18T03:20:23Z</time>
      </trkpt>
      <trkpt lat="42.96441" lon="-0.21752">
        <ele>1045</ele>
        <time>2023-05-18T03:20:31Z</time>
      </trkpt>
      <trkpt lat="42.96344" lon="-0.2186">
        <ele>1034</ele>
        <time>2023-05-18T03:20:54Z</time>
      </trkpt>
      <trkpt lat="42.96328" lon="-0.21874">
        <ele>1033</ele>
        <time>2023-05-18T03:20:57Z</time>
      </trkpt>
      <trkpt lat="42.96315" lon="-0.21878">
        <ele>1031</ele>
        <time>2023-05-18T03:20:59Z</time>
      </trkpt>
      <trkpt lat="42.96309" lon="-0.21877">
        <ele>1030</ele>
        <time>2023-05-18T03:21:00Z</time>
      </trkpt>
      <trkpt lat="42.96299" lon="-0.21871">
        <ele>1028</ele>
        <time>2023-05-18T03:21:02Z</time>
      </trkpt>
      <trkpt lat="42.96295" lon="-0.21865">
        <ele>1027</ele>
        <time>2023-05-18T03:21:03Z</time>
      </trkpt>
      <trkpt lat="42.96289" lon="-0.21842">
        <ele>1024</ele>
        <time>2023-05-18T03:21:07Z</time>
      </trkpt>
      <trkpt lat="42.96288" lon="-0.21812">
        <ele>1021</ele>
        <time>2023-05-18T03:21:10Z</time>
      </trkpt>
      <trkpt lat="42.9628" lon="-0.21797">
        <ele>1019</ele>
        <time>2023-05-18T03:21:13Z</time>
      </trkpt>
      <trkpt lat="42.96269" lon="-0.2179">
        <ele>1017</ele>
        <time>2023-05-18T03:21:15Z</time>
      </trkpt>
      <trkpt lat="42.96263" lon="-0.21789">
        <ele>1016</ele>
        <time>2023-05-18T03:21:16Z</time>
      </trkpt>
      <trkpt lat="42.96253" lon="-0.2179">
        <ele>1015</ele>
        <time>2023-05-18T03:21:18Z</time>
      </trkpt>
      <trkpt lat="42.96247" lon="-0.21794">
        <ele>1014</ele>
        <time>2023-05-18T03:21:19Z</time>
      </trkpt>
      <trkpt lat="42.96234" lon="-0.2181">
        <ele>1012</ele>
        <time>2023-05-18T03:21:22Z</time>
      </trkpt>
      <trkpt lat="42.96222" lon="-0.21844">
        <ele>1011</ele>
        <time>2023-05-18T03:21:27Z</time>
      </trkpt>
      <trkpt lat="42.96221" lon="-0.21865">
        <ele>1012</ele>
        <time>2023-05-18T03:21:30Z</time>
      </trkpt>
      <trkpt lat="42.96232" lon="-0.21903">
        <ele>1017</ele>
        <time>2023-05-18T03:21:35Z</time>
      </trkpt>
      <trkpt lat="42.96232" lon="-0.21916">
        <ele>1017</ele>
        <time>2023-05-18T03:21:37Z</time>
      </trkpt>
      <trkpt lat="42.96229" lon="-0.21923">
        <ele>1017</ele>
        <time>2023-05-18T03:21:38Z</time>
      </trkpt>
      <trkpt lat="42.96222" lon="-0.21933">
        <ele>1015</ele>
        <time>2023-05-18T03:21:40Z</time>
      </trkpt>
      <trkpt lat="42.96212" lon="-0.21937">
        <ele>1013</ele>
        <time>2023-05-18T03:21:42Z</time>
      </trkpt>
      <trkpt lat="42.96199" lon="-0.21936">
        <ele>1009</ele>
        <time>2023-05-18T03:21:44Z</time>
      </trkpt>
      <trkpt lat="42.96152" lon="-0.21924">
        <ele>996</ele>
        <time>2023-05-18T03:21:52Z</time>
      </trkpt>
      <trkpt lat="42.96145" lon="-0.21924">
        <ele>994</ele>
        <time>2023-05-18T03:21:54Z</time>
      </trkpt>
      <trkpt lat="42.96133" lon="-0.21929">
        <ele>992</ele>
        <time>2023-05-18T03:21:56Z</time>
      </trkpt>
      <trkpt lat="42.96121" lon="-0.21948">
        <ele>990</ele>
        <time>2023-05-18T03:21:59Z</time>
      </trkpt>
      <trkpt lat="42.96118" lon="-0.21967">
        <ele>990</ele>
        <time>2023-05-18T03:22:02Z</time>
      </trkpt>
      <trkpt lat="42.96118" lon="-0.21979">
        <ele>990</ele>
        <time>2023-05-18T03:22:03Z</time>
      </trkpt>
      <trkpt lat="42.96126" lon="-0.22028">
        <ele>995</ele>
        <time>2023-05-18T03:22:10Z</time>
      </trkpt>
      <trkpt lat="42.96121" lon="-0.22044">
        <ele>994</ele>
        <time>2023-05-18T03:22:12Z</time>
      </trkpt>
      <trkpt lat="42.96114" lon="-0.22051">
        <ele>993</ele>
        <time>2023-05-18T03:22:14Z</time>
      </trkpt>
      <trkpt lat="42.96103" lon="-0.22052">
        <ele>990</ele>
        <time>2023-05-18T03:22:16Z</time>
      </trkpt>
      <trkpt lat="42.96092" lon="-0.22045">
        <ele>986</ele>
        <time>2023-05-18T03:22:18Z</time>
      </trkpt>
      <trkpt lat="42.96087" lon="-0.22031">
        <ele>984</ele>
        <time>2023-05-18T03:22:20Z</time>
      </trkpt>
      <trkpt lat="42.96083" lon="-0.21991">
        <ele>981</ele>
        <time>2023-05-18T03:22:25Z</time>
      </trkpt>
      <trkpt lat="42.96066" lon="-0.21913">
        <ele>976</ele>
        <time>2023-05-18T03:22:36Z</time>
      </trkpt>
      <trkpt lat="42.96067" lon="-0.21897">
        <ele>976</ele>
        <time>2023-05-18T03:22:38Z</time>
      </trkpt>
      <trkpt lat="42.96085" lon="-0.21838">
        <ele>978</ele>
        <time>2023-05-18T03:22:46Z</time>
      </trkpt>
      <trkpt lat="42.96079" lon="-0.21779">
        <ele>973</ele>
        <time>2023-05-18T03:22:54Z</time>
      </trkpt>
      <trkpt lat="42.96091" lon="-0.21701">
        <ele>970</ele>
        <time>2023-05-18T03:23:04Z</time>
      </trkpt>
      <trkpt lat="42.96088" lon="-0.21648">
        <ele>965</ele>
        <time>2023-05-18T03:23:11Z</time>
      </trkpt>
      <trkpt lat="42.96097" lon="-0.21545">
        <ele>961</ele>
        <time>2023-05-18T03:23:25Z</time>
      </trkpt>
      <trkpt lat="42.96099" lon="-0.21474">
        <ele>957</ele>
        <time>2023-05-18T03:23:34Z</time>
      </trkpt>
      <trkpt lat="42.96091" lon="-0.21448">
        <ele>954</ele>
        <time>2023-05-18T03:23:37Z</time>
      </trkpt>
      <trkpt lat="42.96062" lon="-0.21406">
        <ele>947</ele>
        <time>2023-05-18T03:23:45Z</time>
      </trkpt>
      <trkpt lat="42.96055" lon="-0.2139">
        <ele>946</ele>
        <time>2023-05-18T03:23:47Z</time>
      </trkpt>
      <trkpt lat="42.96052" lon="-0.2137">
        <ele>944</ele>
        <time>2023-05-18T03:23:50Z</time>
      </trkpt>
      <trkpt lat="42.96063" lon="-0.21286">
        <ele>941</ele>
        <time>2023-05-18T03:24:01Z</time>
      </trkpt>
      <trkpt lat="42.96063" lon="-0.21152">
        <ele>928</ele>
        <time>2023-05-18T03:24:19Z</time>
      </trkpt>
      <trkpt lat="42.9606" lon="-0.21136">
        <ele>926</ele>
        <time>2023-05-18T03:24:21Z</time>
      </trkpt>
      <trkpt lat="42.96053" lon="-0.21125">
        <ele>924</ele>
        <time>2023-05-18T03:24:23Z</time>
      </trkpt>
      <trkpt lat="42.96042" lon="-0.21121">
        <ele>922</ele>
        <time>2023-05-18T03:24:25Z</time>
      </trkpt>
      <trkpt lat="42.96036" lon="-0.21122">
        <ele>921</ele>
        <time>2023-05-18T03:24:26Z</time>
      </trkpt>
      <trkpt lat="42.96027" lon="-0.21129">
        <ele>920</ele>
        <time>2023-05-18T03:24:28Z</time>
      </trkpt>
      <trkpt lat="42.96019" lon="-0.21144">
        <ele>920</ele>
        <time>2023-05-18T03:24:30Z</time>
      </trkpt>
      <trkpt lat="42.96011" lon="-0.21169">
        <ele>921</ele>
        <time>2023-05-18T03:24:34Z</time>
      </trkpt>
      <trkpt lat="42.96" lon="-0.21187">
        <ele>921</ele>
        <time>2023-05-18T03:24:37Z</time>
      </trkpt>
      <trkpt lat="42.95941" lon="-0.21253">
        <ele>914</ele>
        <time>2023-05-18T03:24:50Z</time>
      </trkpt>
      <trkpt lat="42.95891" lon="-0.21331">
        <ele>909</ele>
        <time>2023-05-18T03:25:04Z</time>
      </trkpt>
      <trkpt lat="42.95865" lon="-0.21354">
        <ele>904</ele>
        <time>2023-05-18T03:25:09Z</time>
      </trkpt>
      <trkpt lat="42.95857" lon="-0.21367">
        <ele>903</ele>
        <time>2023-05-18T03:25:11Z</time>
      </trkpt>
      <trkpt lat="42.95854" lon="-0.21377">
        <ele>902</ele>
        <time>2023-05-18T03:25:13Z</time>
      </trkpt>
      <trkpt lat="42.95844" lon="-0.21438">
        <ele>905</ele>
        <time>2023-05-18T03:25:21Z</time>
      </trkpt>
      <trkpt lat="42.95815" lon="-0.21497">
        <ele>902</ele>
        <time>2023-05-18T03:25:30Z</time>
      </trkpt>
      <trkpt lat="42.958" lon="-0.21515">
        <ele>899</ele>
        <time>2023-05-18T03:25:34Z</time>
      </trkpt>
      <trkpt lat="42.95771" lon="-0.21533">
        <ele>892</ele>
        <time>2023-05-18T03:25:39Z</time>
      </trkpt>
      <trkpt lat="42.9574" lon="-0.2156">
        <ele>888</ele>
        <time>2023-05-18T03:25:46Z</time>
      </trkpt>
      <trkpt lat="42.95721" lon="-0.21564">
        <ele>887</ele>
        <time>2023-05-18T03:25:49Z</time>
      </trkpt>
      <trkpt lat="42.95692" lon="-0.21555">
        <ele>884</ele>
        <time>2023-05-18T03:25:55Z</time>
      </trkpt>
      <trkpt lat="42.95669" lon="-0.21539">
        <ele>883</ele>
        <time>2023-05-18T03:25:59Z</time>
      </trkpt>
      <trkpt lat="42.95646" lon="-0.21515">
        <ele>882</ele>
        <time>2023-05-18T03:26:04Z</time>
      </trkpt>
      <trkpt lat="42.95617" lon="-0.21435">
        <ele>880</ele>
        <time>2023-05-18T03:26:16Z</time>
      </trkpt>
      <trkpt lat="42.95617" lon="-0.21379">
        <ele>878</ele>
        <time>2023-05-18T03:26:23Z</time>
      </trkpt>
      <trkpt lat="42.95622" lon="-0.21363">
        <ele>878</ele>
        <time>2023-05-18T03:26:26Z</time>
      </trkpt>
      <trkpt lat="42.95649" lon="-0.21321">
        <ele>877</ele>
        <time>2023-05-18T03:26:33Z</time>
      </trkpt>
      <trkpt lat="42.95654" lon="-0.21309">
        <ele>877</ele>
        <time>2023-05-18T03:26:35Z</time>
      </trkpt>
      <trkpt lat="42.95663" lon="-0.21279">
        <ele>876</ele>
        <time>2023-05-18T03:26:39Z</time>
      </trkpt>
      <trkpt lat="42.95667" lon="-0.21235">
        <ele>874</ele>
        <time>2023-05-18T03:26:45Z</time>
      </trkpt>
      <trkpt lat="42.95673" lon="-0.2121">
        <ele>873</ele>
        <time>2023-05-18T03:26:48Z</time>
      </trkpt>
      <trkpt lat="42.95703" lon="-0.21122">
        <ele>871</ele>
        <time>2023-05-18T03:27:01Z</time>
      </trkpt>
      <trkpt lat="42.95723" lon="-0.21075">
        <ele>871</ele>
        <time>2023-05-18T03:27:08Z</time>
      </trkpt>
      <trkpt lat="42.9583" lon="-0.20904">
        <ele>870</ele>
        <time>2023-05-18T03:27:37Z</time>
      </trkpt>
      <trkpt lat="42.9591" lon="-0.20754">
        <ele>868</ele>
        <time>2023-05-18T03:28:01Z</time>
      </trkpt>
      <trkpt lat="42.95993" lon="-0.20626">
        <ele>865</ele>
        <time>2023-05-18T03:28:24Z</time>
      </trkpt>
      <trkpt lat="42.96006" lon="-0.206">
        <ele>864</ele>
        <time>2023-05-18T03:28:28Z</time>
      </trkpt>
      <trkpt lat="42.96022" lon="-0.20558">
        <ele>863</ele>
        <time>2023-05-18T03:28:34Z</time>
      </trkpt>
      <trkpt lat="42.96086" lon="-0.20379">
        <ele>862</ele>
        <time>2023-05-18T03:29:00Z</time>
      </trkpt>
      <trkpt lat="42.96101" lon="-0.20343">
        <ele>862</ele>
        <time>2023-05-18T03:29:05Z</time>
      </trkpt>
      <trkpt lat="42.96125" lon="-0.20302">
        <ele>863</ele>
        <time>2023-05-18T03:29:12Z</time>
      </trkpt>
      <trkpt lat="42.96148" lon="-0.20278">
        <ele>864</ele>
        <time>2023-05-18T03:29:17Z</time>
      </trkpt>
      <trkpt lat="42.96177" lon="-0.20256">
        <ele>865</ele>
        <time>2023-05-18T03:29:23Z</time>
      </trkpt>
      <trkpt lat="42.96328" lon="-0.20172">
        <ele>861</ele>
        <time>2023-05-18T03:29:52Z</time>
      </trkpt>
      <trkpt lat="42.96358" lon="-0.20162">
        <ele>861</ele>
        <time>2023-05-18T03:29:58Z</time>
      </trkpt>
      <trkpt lat="42.96385" lon="-0.2016">
        <ele>861</ele>
        <time>2023-05-18T03:30:02Z</time>
      </trkpt>
      <trkpt lat="42.96408" lon="-0.20163">
        <ele>861</ele>
        <time>2023-05-18T03:30:07Z</time>
      </trkpt>
      <trkpt lat="42.96423" lon="-0.20169">
        <ele>861</ele>
        <time>2023-05-18T03:30:09Z</time>
      </trkpt>
      <trkpt lat="42.96442" lon="-0.20184">
        <ele>862</ele>
        <time>2023-05-18T03:30:13Z</time>
      </trkpt>
      <trkpt lat="42.96456" lon="-0.20188">
        <ele>862</ele>
        <time>2023-05-18T03:30:16Z</time>
      </trkpt>
      <trkpt lat="42.96473" lon="-0.20183">
        <ele>862</ele>
        <time>2023-05-18T03:30:19Z</time>
      </trkpt>
      <trkpt lat="42.96498" lon="-0.2017">
        <ele>861</ele>
        <time>2023-05-18T03:30:24Z</time>
      </trkpt>
      <trkpt lat="42.96514" lon="-0.20171">
        <ele>861</ele>
        <time>2023-05-18T03:30:26Z</time>
      </trkpt>
      <trkpt lat="42.96553" lon="-0.20194">
        <ele>863</ele>
        <time>2023-05-18T03:30:34Z</time>
      </trkpt>
      <trkpt lat="42.96575" lon="-0.20215">
        <ele>864</ele>
        <time>2023-05-18T03:30:39Z</time>
      </trkpt>
      <trkpt lat="42.96602" lon="-0.20225">
        <ele>864</ele>
        <time>2023-05-18T03:30:44Z</time>
      </trkpt>
      <trkpt lat="42.96641" lon="-0.20249">
        <ele>864</ele>
        <time>2023-05-18T03:30:51Z</time>
      </trkpt>
      <trkpt lat="42.9666" lon="-0.20252">
        <ele>864</ele>
        <time>2023-05-18T03:30:55Z</time>
      </trkpt>
      <trkpt lat="42.9672" lon="-0.20242">
        <ele>865</ele>
        <time>2023-05-18T03:31:06Z</time>
      </trkpt>
      <trkpt lat="42.96751" lon="-0.20229">
        <ele>865</ele>
        <time>2023-05-18T03:31:11Z</time>
      </trkpt>
      <trkpt lat="42.9682" lon="-0.2019">
        <ele>867</ele>
        <time>2023-05-18T03:31:25Z</time>
      </trkpt>
      <trkpt lat="42.96848" lon="-0.2016">
        <ele>865</ele>
        <time>2023-05-18T03:31:31Z</time>
      </trkpt>
      <trkpt lat="42.96933" lon="-0.20043">
        <ele>863</ele>
        <time>2023-05-18T03:31:52Z</time>
      </trkpt>
      <trkpt lat="42.96956" lon="-0.19999">
        <ele>861</ele>
        <time>2023-05-18T03:31:59Z</time>
      </trkpt>
      <trkpt lat="42.97014" lon="-0.19844">
        <ele>855</ele>
        <time>2023-05-18T03:32:22Z</time>
      </trkpt>
      <trkpt lat="42.97027" lon="-0.19821">
        <ele>855</ele>
        <time>2023-05-18T03:32:26Z</time>
      </trkpt>
      <trkpt lat="42.97155" lon="-0.19645">
        <ele>860</ele>
        <time>2023-05-18T03:32:58Z</time>
      </trkpt>
      <trkpt lat="42.97257" lon="-0.19492">
        <ele>867</ele>
        <time>2023-05-18T03:33:25Z</time>
      </trkpt>
      <trkpt lat="42.97275" lon="-0.1946">
        <ele>869</ele>
        <time>2023-05-18T03:33:30Z</time>
      </trkpt>
      <trkpt lat="42.97285" lon="-0.19437">
        <ele>869</ele>
        <time>2023-05-18T03:33:34Z</time>
      </trkpt>
      <trkpt lat="42.97299" lon="-0.19373">
        <ele>870</ele>
        <time>2023-05-18T03:33:43Z</time>
      </trkpt>
      <trkpt lat="42.97309" lon="-0.19351">
        <ele>871</ele>
        <time>2023-05-18T03:33:46Z</time>
      </trkpt>
      <trkpt lat="42.97325" lon="-0.19327">
        <ele>873</ele>
        <time>2023-05-18T03:33:50Z</time>
      </trkpt>
      <trkpt lat="42.97331" lon="-0.19314">
        <ele>873</ele>
        <time>2023-05-18T03:33:52Z</time>
      </trkpt>
      <trkpt lat="42.97336" lon="-0.19293">
        <ele>872</ele>
        <time>2023-05-18T03:33:55Z</time>
      </trkpt>
      <trkpt lat="42.97343" lon="-0.19279">
        <ele>872</ele>
        <time>2023-05-18T03:33:57Z</time>
      </trkpt>
      <trkpt lat="42.9738" lon="-0.1924">
        <ele>871</ele>
        <time>2023-05-18T03:34:06Z</time>
      </trkpt>
      <trkpt lat="42.97393" lon="-0.19222">
        <ele>870</ele>
        <time>2023-05-18T03:34:09Z</time>
      </trkpt>
      <trkpt lat="42.97406" lon="-0.19196">
        <ele>868</ele>
        <time>2023-05-18T03:34:13Z</time>
      </trkpt>
      <trkpt lat="42.97453" lon="-0.19086">
        <ele>866</ele>
        <time>2023-05-18T03:34:30Z</time>
      </trkpt>
      <trkpt lat="42.97463" lon="-0.19016">
        <ele>861</ele>
        <time>2023-05-18T03:34:39Z</time>
      </trkpt>
      <trkpt lat="42.9748" lon="-0.18943">
        <ele>858</ele>
        <time>2023-05-18T03:34:49Z</time>
      </trkpt>
      <trkpt lat="42.97483" lon="-0.1892">
        <ele>856</ele>
        <time>2023-05-18T03:34:52Z</time>
      </trkpt>
      <trkpt lat="42.97479" lon="-0.18891">
        <ele>855</ele>
        <time>2023-05-18T03:34:56Z</time>
      </trkpt>
      <trkpt lat="42.97455" lon="-0.18799">
        <ele>852</ele>
        <time>2023-05-18T03:35:08Z</time>
      </trkpt>
      <trkpt lat="42.97455" lon="-0.18769">
        <ele>852</ele>
        <time>2023-05-18T03:35:12Z</time>
      </trkpt>
      <trkpt lat="42.97459" lon="-0.18753">
        <ele>851</ele>
        <time>2023-05-18T03:35:15Z</time>
      </trkpt>
      <trkpt lat="42.97488" lon="-0.18709">
        <ele>850</ele>
        <time>2023-05-18T03:35:22Z</time>
      </trkpt>
      <trkpt lat="42.97492" lon="-0.18698">
        <ele>850</ele>
        <time>2023-05-18T03:35:24Z</time>
      </trkpt>
      <trkpt lat="42.97502" lon="-0.18638">
        <ele>848</ele>
        <time>2023-05-18T03:35:32Z</time>
      </trkpt>
      <trkpt lat="42.97513" lon="-0.18601">
        <ele>846</ele>
        <time>2023-05-18T03:35:37Z</time>
      </trkpt>
      <trkpt lat="42.97527" lon="-0.18577">
        <ele>846</ele>
        <time>2023-05-18T03:35:41Z</time>
      </trkpt>
      <trkpt lat="42.97557" lon="-0.18537">
        <ele>846</ele>
        <time>2023-05-18T03:35:48Z</time>
      </trkpt>
      <trkpt lat="42.97568" lon="-0.18517">
        <ele>845</ele>
        <time>2023-05-18T03:35:52Z</time>
      </trkpt>
      <trkpt lat="42.97579" lon="-0.18486">
        <ele>845</ele>
        <time>2023-05-18T03:35:56Z</time>
      </trkpt>
      <trkpt lat="42.97603" lon="-0.184">
        <ele>846</ele>
        <time>2023-05-18T03:36:08Z</time>
      </trkpt>
      <trkpt lat="42.9763" lon="-0.18327">
        <ele>847</ele>
        <time>2023-05-18T03:36:19Z</time>
      </trkpt>
      <trkpt lat="42.9765" lon="-0.18257">
        <ele>844</ele>
        <time>2023-05-18T03:36:29Z</time>
      </trkpt>
      <trkpt lat="42.97689" lon="-0.18168">
        <ele>842</ele>
        <time>2023-05-18T03:36:42Z</time>
      </trkpt>
      <trkpt lat="42.97731" lon="-0.18091">
        <ele>842</ele>
        <time>2023-05-18T03:36:55Z</time>
      </trkpt>
      <trkpt lat="42.97741" lon="-0.18067">
        <ele>842</ele>
        <time>2023-05-18T03:36:58Z</time>
      </trkpt>
      <trkpt lat="42.97748" lon="-0.18032">
        <ele>841</ele>
        <time>2023-05-18T03:37:03Z</time>
      </trkpt>
      <trkpt lat="42.97756" lon="-0.17948">
        <ele>838</ele>
        <time>2023-05-18T03:37:14Z</time>
      </trkpt>
      <trkpt lat="42.97766" lon="-0.17882">
        <ele>837</ele>
        <time>2023-05-18T03:37:23Z</time>
      </trkpt>
      <trkpt lat="42.97793" lon="-0.17747">
        <ele>838</ele>
        <time>2023-05-18T03:37:41Z</time>
      </trkpt>
      <trkpt lat="42.978" lon="-0.17719">
        <ele>837</ele>
        <time>2023-05-18T03:37:45Z</time>
      </trkpt>
      <trkpt lat="42.97822" lon="-0.1766">
        <ele>835</ele>
        <time>2023-05-18T03:37:53Z</time>
      </trkpt>
      <trkpt lat="42.97827" lon="-0.17624">
        <ele>834</ele>
        <time>2023-05-18T03:37:58Z</time>
      </trkpt>
      <trkpt lat="42.97828" lon="-0.17575">
        <ele>833</ele>
        <time>2023-05-18T03:38:05Z</time>
      </trkpt>
      <trkpt lat="42.97822" lon="-0.17486">
        <ele>830</ele>
        <time>2023-05-18T03:38:16Z</time>
      </trkpt>
      <trkpt lat="42.97823" lon="-0.17356">
        <ele>833</ele>
        <time>2023-05-18T03:38:33Z</time>
      </trkpt>
      <trkpt lat="42.97827" lon="-0.17306">
        <ele>834</ele>
        <time>2023-05-18T03:38:40Z</time>
      </trkpt>
      <trkpt lat="42.97837" lon="-0.17265">
        <ele>837</ele>
        <time>2023-05-18T03:38:45Z</time>
      </trkpt>
      <trkpt lat="42.97892" lon="-0.17129">
        <ele>839</ele>
        <time>2023-05-18T03:39:06Z</time>
      </trkpt>
      <trkpt lat="42.97901" lon="-0.17084">
        <ele>840</ele>
        <time>2023-05-18T03:39:12Z</time>
      </trkpt>
      <trkpt lat="42.97903" lon="-0.17035">
        <ele>840</ele>
        <time>2023-05-18T03:39:18Z</time>
      </trkpt>
      <trkpt lat="42.97911" lon="-0.17">
        <ele>841</ele>
        <time>2023-05-18T03:39:23Z</time>
      </trkpt>
      <trkpt lat="42.97933" lon="-0.16954">
        <ele>844</ele>
        <time>2023-05-18T03:39:30Z</time>
      </trkpt>
      <trkpt lat="42.97945" lon="-0.16922">
        <ele>845</ele>
        <time>2023-05-18T03:39:35Z</time>
      </trkpt>
      <trkpt lat="42.97979" lon="-0.16785">
        <ele>842</ele>
        <time>2023-05-18T03:39:53Z</time>
      </trkpt>
      <trkpt lat="42.9798" lon="-0.16756">
        <ele>840</ele>
        <time>2023-05-18T03:39:57Z</time>
      </trkpt>
      <trkpt lat="42.97974" lon="-0.16612">
        <ele>838</ele>
        <time>2023-05-18T03:40:16Z</time>
      </trkpt>
      <trkpt lat="42.97964" lon="-0.16525">
        <ele>831</ele>
        <time>2023-05-18T03:40:27Z</time>
      </trkpt>
      <trkpt lat="42.97975" lon="-0.16362">
        <ele>825</ele>
        <time>2023-05-18T03:40:49Z</time>
      </trkpt>
      <trkpt lat="42.97959" lon="-0.16238">
        <ele>821</ele>
        <time>2023-05-18T03:41:05Z</time>
      </trkpt>
      <trkpt lat="42.97959" lon="-0.16221">
        <ele>820</ele>
        <time>2023-05-18T03:41:07Z</time>
      </trkpt>
      <trkpt lat="42.97975" lon="-0.16005">
        <ele>811</ele>
        <time>2023-05-18T03:41:36Z</time>
      </trkpt>
      <trkpt lat="42.97978" lon="-0.15975">
        <ele>809</ele>
        <time>2023-05-18T03:41:40Z</time>
      </trkpt>
      <trkpt lat="42.97986" lon="-0.15936">
        <ele>807</ele>
        <time>2023-05-18T03:41:45Z</time>
      </trkpt>
      <trkpt lat="42.98002" lon="-0.15872">
        <ele>803</ele>
        <time>2023-05-18T03:41:54Z</time>
      </trkpt>
      <trkpt lat="42.98089" lon="-0.1546">
        <ele>779</ele>
        <time>2023-05-18T03:42:49Z</time>
      </trkpt>
      <trkpt lat="42.98107" lon="-0.15413">
        <ele>776</ele>
        <time>2023-05-18T03:42:56Z</time>
      </trkpt>
      <trkpt lat="42.98229" lon="-0.15192">
        <ele>771</ele>
        <time>2023-05-18T03:43:32Z</time>
      </trkpt>
      <trkpt lat="42.98246" lon="-0.1515">
        <ele>770</ele>
        <time>2023-05-18T03:43:39Z</time>
      </trkpt>
      <trkpt lat="42.98283" lon="-0.14997">
        <ele>763</ele>
        <time>2023-05-18T03:44:00Z</time>
      </trkpt>
      <trkpt lat="42.98295" lon="-0.14956">
        <ele>761</ele>
        <time>2023-05-18T03:44:05Z</time>
      </trkpt>
      <trkpt lat="42.98329" lon="-0.14875">
        <ele>762</ele>
        <time>2023-05-18T03:44:18Z</time>
      </trkpt>
      <trkpt lat="42.98345" lon="-0.14826">
        <ele>763</ele>
        <time>2023-05-18T03:44:25Z</time>
      </trkpt>
      <trkpt lat="42.98352" lon="-0.14793">
        <ele>763</ele>
        <time>2023-05-18T03:44:29Z</time>
      </trkpt>
      <trkpt lat="42.98368" lon="-0.14632">
        <ele>759</ele>
        <time>2023-05-18T03:44:50Z</time>
      </trkpt>
      <trkpt lat="42.98374" lon="-0.14611">
        <ele>760</ele>
        <time>2023-05-18T03:44:53Z</time>
      </trkpt>
      <trkpt lat="42.98385" lon="-0.14587">
        <ele>762</ele>
        <time>2023-05-18T03:44:57Z</time>
      </trkpt>
      <trkpt lat="42.98423" lon="-0.14527">
        <ele>765</ele>
        <time>2023-05-18T03:45:07Z</time>
      </trkpt>
      <trkpt lat="42.98495" lon="-0.1443">
        <ele>759</ele>
        <time>2023-05-18T03:45:25Z</time>
      </trkpt>
      <trkpt lat="42.98528" lon="-0.14376">
        <ele>758</ele>
        <time>2023-05-18T03:45:34Z</time>
      </trkpt>
      <trkpt lat="42.98538" lon="-0.14347">
        <ele>758</ele>
        <time>2023-05-18T03:45:38Z</time>
      </trkpt>
      <trkpt lat="42.98561" lon="-0.14257">
        <ele>752</ele>
        <time>2023-05-18T03:45:51Z</time>
      </trkpt>
      <trkpt lat="42.98575" lon="-0.14214">
        <ele>749</ele>
        <time>2023-05-18T03:45:57Z</time>
      </trkpt>
      <trkpt lat="42.98646" lon="-0.14048">
        <ele>746</ele>
        <time>2023-05-18T03:46:22Z</time>
      </trkpt>
      <trkpt lat="42.9868" lon="-0.13943">
        <ele>738</ele>
        <time>2023-05-18T03:46:37Z</time>
      </trkpt>
      <trkpt lat="42.98741" lon="-0.13801">
        <ele>737</ele>
        <time>2023-05-18T03:46:58Z</time>
      </trkpt>
      <trkpt lat="42.98789" lon="-0.13677">
        <ele>733</ele>
        <time>2023-05-18T03:47:17Z</time>
      </trkpt>
      <trkpt lat="42.98804" lon="-0.13633">
        <ele>732</ele>
        <time>2023-05-18T03:47:23Z</time>
      </trkpt>
      <trkpt lat="42.98828" lon="-0.13542">
        <ele>730</ele>
        <time>2023-05-18T03:47:36Z</time>
      </trkpt>
      <trkpt lat="42.98838" lon="-0.13514">
        <ele>730</ele>
        <time>2023-05-18T03:47:40Z</time>
      </trkpt>
      <trkpt lat="42.98875" lon="-0.13444">
        <ele>728</ele>
        <time>2023-05-18T03:47:51Z</time>
      </trkpt>
      <trkpt lat="42.98896" lon="-0.13395">
        <ele>727</ele>
        <time>2023-05-18T03:47:58Z</time>
      </trkpt>
      <trkpt lat="42.98913" lon="-0.13345">
        <ele>726</ele>
        <time>2023-05-18T03:48:05Z</time>
      </trkpt>
      <trkpt lat="42.9893" lon="-0.13315">
        <ele>725</ele>
        <time>2023-05-18T03:48:10Z</time>
      </trkpt>
      <trkpt lat="42.98984" lon="-0.13249">
        <ele>725</ele>
        <time>2023-05-18T03:48:23Z</time>
      </trkpt>
      <trkpt lat="42.98999" lon="-0.13212">
        <ele>722</ele>
        <time>2023-05-18T03:48:29Z</time>
      </trkpt>
      <trkpt lat="42.99006" lon="-0.13168">
        <ele>719</ele>
        <time>2023-05-18T03:48:35Z</time>
      </trkpt>
      <trkpt lat="42.99018" lon="-0.13144">
        <ele>717</ele>
        <time>2023-05-18T03:48:38Z</time>
      </trkpt>
      <trkpt lat="42.99083" lon="-0.13074">
        <ele>715</ele>
        <time>2023-05-18T03:48:53Z</time>
      </trkpt>
      <trkpt lat="42.99158" lon="-0.12968">
        <ele>715</ele>
        <time>2023-05-18T03:49:12Z</time>
      </trkpt>
      <trkpt lat="42.9917" lon="-0.12947">
        <ele>714</ele>
        <time>2023-05-18T03:49:16Z</time>
      </trkpt>
      <trkpt lat="42.99176" lon="-0.1293">
        <ele>713</ele>
        <time>2023-05-18T03:49:18Z</time>
      </trkpt>
      <trkpt lat="42.99195" lon="-0.12825">
        <ele>703</ele>
        <time>2023-05-18T03:49:32Z</time>
      </trkpt>
      <trkpt lat="42.99207" lon="-0.1279">
        <ele>701</ele>
        <time>2023-05-18T03:49:37Z</time>
      </trkpt>
      <trkpt lat="42.99232" lon="-0.12743">
        <ele>698</ele>
        <time>2023-05-18T03:49:45Z</time>
      </trkpt>
      <trkpt lat="42.99259" lon="-0.1268">
        <ele>696</ele>
        <time>2023-05-18T03:49:54Z</time>
      </trkpt>
      <trkpt lat="42.99266" lon="-0.12653">
        <ele>696</ele>
        <time>2023-05-18T03:49:58Z</time>
      </trkpt>
      <trkpt lat="42.99279" lon="-0.12577">
        <ele>692</ele>
        <time>2023-05-18T03:50:08Z</time>
      </trkpt>
      <trkpt lat="42.99285" lon="-0.12557">
        <ele>690</ele>
        <time>2023-05-18T03:50:11Z</time>
      </trkpt>
      <trkpt lat="42.99294" lon="-0.12538">
        <ele>688</ele>
        <time>2023-05-18T03:50:14Z</time>
      </trkpt>
      <trkpt lat="42.99367" lon="-0.12437">
        <ele>680</ele>
        <time>2023-05-18T03:50:33Z</time>
      </trkpt>
      <trkpt lat="42.99421" lon="-0.12398">
        <ele>676</ele>
        <time>2023-05-18T03:50:43Z</time>
      </trkpt>
      <trkpt lat="42.99438" lon="-0.12374">
        <ele>676</ele>
        <time>2023-05-18T03:50:48Z</time>
      </trkpt>
      <trkpt lat="42.99456" lon="-0.12341">
        <ele>676</ele>
        <time>2023-05-18T03:50:53Z</time>
      </trkpt>
      <trkpt lat="42.99482" lon="-0.12267">
        <ele>671</ele>
        <time>2023-05-18T03:51:04Z</time>
      </trkpt>
      <trkpt lat="42.995" lon="-0.12201">
        <ele>663</ele>
        <time>2023-05-18T03:51:13Z</time>
      </trkpt>
      <trkpt lat="42.99511" lon="-0.12147">
        <ele>659</ele>
        <time>2023-05-18T03:51:20Z</time>
      </trkpt>
      <trkpt lat="42.99512" lon="-0.12123">
        <ele>657</ele>
        <time>2023-05-18T03:51:23Z</time>
      </trkpt>
      <trkpt lat="42.99509" lon="-0.12096">
        <ele>655</ele>
        <time>2023-05-18T03:51:27Z</time>
      </trkpt>
      <trkpt lat="42.99487" lon="-0.12025">
        <ele>645</ele>
        <time>2023-05-18T03:51:37Z</time>
      </trkpt>
      <trkpt lat="42.99486" lon="-0.11996">
        <ele>643</ele>
        <time>2023-05-18T03:51:41Z</time>
      </trkpt>
      <trkpt lat="42.99502" lon="-0.11867">
        <ele>634</ele>
        <time>2023-05-18T03:51:58Z</time>
      </trkpt>
      <trkpt lat="42.99517" lon="-0.11819">
        <ele>631</ele>
        <time>2023-05-18T03:52:05Z</time>
      </trkpt>
      <trkpt lat="42.99535" lon="-0.11786">
        <ele>628</ele>
        <time>2023-05-18T03:52:10Z</time>
      </trkpt>
      <trkpt lat="42.99552" lon="-0.1177">
        <ele>627</ele>
        <time>2023-05-18T03:52:14Z</time>
      </trkpt>
      <trkpt lat="42.99608" lon="-0.11762">
        <ele>628</ele>
        <time>2023-05-18T03:52:24Z</time>
      </trkpt>
      <trkpt lat="42.99733" lon="-0.11725">
        <ele>617</ele>
        <time>2023-05-18T03:52:46Z</time>
      </trkpt>
      <trkpt lat="42.99748" lon="-0.11717">
        <ele>615</ele>
        <time>2023-05-18T03:52:49Z</time>
      </trkpt>
      <trkpt lat="42.99773" lon="-0.11699">
        <ele>615</ele>
        <time>2023-05-18T03:52:54Z</time>
      </trkpt>
      <trkpt lat="42.99788" lon="-0.11683">
        <ele>615</ele>
        <time>2023-05-18T03:52:58Z</time>
      </trkpt>
      <trkpt lat="42.99804" lon="-0.1166">
        <ele>614</ele>
        <time>2023-05-18T03:53:02Z</time>
      </trkpt>
      <trkpt lat="42.99831" lon="-0.11607">
        <ele>608</ele>
        <time>2023-05-18T03:53:10Z</time>
      </trkpt>
      <trkpt lat="42.99843" lon="-0.11568">
        <ele>605</ele>
        <time>2023-05-18T03:53:16Z</time>
      </trkpt>
      <trkpt lat="42.99846" lon="-0.11539">
        <ele>602</ele>
        <time>2023-05-18T03:53:19Z</time>
      </trkpt>
      <trkpt lat="42.99846" lon="-0.11494">
        <ele>595</ele>
        <time>2023-05-18T03:53:25Z</time>
      </trkpt>
      <trkpt lat="42.99863" lon="-0.11416">
        <ele>594</ele>
        <time>2023-05-18T03:53:36Z</time>
      </trkpt>
      <trkpt lat="42.99863" lon="-0.11346">
        <ele>589</ele>
        <time>2023-05-18T03:53:45Z</time>
      </trkpt>
      <trkpt lat="42.99869" lon="-0.1131">
        <ele>587</ele>
        <time>2023-05-18T03:53:50Z</time>
      </trkpt>
      <trkpt lat="42.99882" lon="-0.11284">
        <ele>588</ele>
        <time>2023-05-18T03:53:54Z</time>
      </trkpt>
      <trkpt lat="42.99927" lon="-0.1121">
        <ele>593</ele>
        <time>2023-05-18T03:54:06Z</time>
      </trkpt>
      <trkpt lat="42.99928" lon="-0.11176">
        <ele>588</ele>
        <time>2023-05-18T03:54:11Z</time>
      </trkpt>
      <trkpt lat="42.99922" lon="-0.11158">
        <ele>581</ele>
        <time>2023-05-18T03:54:13Z</time>
      </trkpt>
      <trkpt lat="42.99913" lon="-0.11142">
        <ele>574</ele>
        <time>2023-05-18T03:54:16Z</time>
      </trkpt>
      <trkpt lat="42.99909" lon="-0.11129">
        <ele>569</ele>
        <time>2023-05-18T03:54:18Z</time>
      </trkpt>
      <trkpt lat="42.99908" lon="-0.11114">
        <ele>566</ele>
        <time>2023-05-18T03:54:20Z</time>
      </trkpt>
      <trkpt lat="42.99915" lon="-0.11045">
        <ele>559</ele>
        <time>2023-05-18T03:54:29Z</time>
      </trkpt>
      <trkpt lat="42.9992" lon="-0.10927">
        <ele>550</ele>
        <time>2023-05-18T03:54:44Z</time>
      </trkpt>
      <trkpt lat="42.99928" lon="-0.10892">
        <ele>546</ele>
        <time>2023-05-18T03:54:49Z</time>
      </trkpt>
      <trkpt lat="42.99941" lon="-0.10876">
        <ele>545</ele>
        <time>2023-05-18T03:54:52Z</time>
      </trkpt>
      <trkpt lat="42.99956" lon="-0.10868">
        <ele>545</ele>
        <time>2023-05-18T03:54:55Z</time>
      </trkpt>
      <trkpt lat="42.99969" lon="-0.10867">
        <ele>546</ele>
        <time>2023-05-18T03:54:57Z</time>
      </trkpt>
      <trkpt lat="43" lon="-0.10872">
        <ele>552</ele>
        <time>2023-05-18T03:55:03Z</time>
      </trkpt>
      <trkpt lat="43.00018" lon="-0.10871">
        <ele>553</ele>
        <time>2023-05-18T03:55:06Z</time>
      </trkpt>
      <trkpt lat="43.00034" lon="-0.10865">
        <ele>553</ele>
        <time>2023-05-18T03:55:09Z</time>
      </trkpt>
      <trkpt lat="43.00063" lon="-0.10848">
        <ele>550</ele>
        <time>2023-05-18T03:55:15Z</time>
      </trkpt>
      <trkpt lat="43.00126" lon="-0.10803">
        <ele>544</ele>
        <time>2023-05-18T03:55:27Z</time>
      </trkpt>
      <trkpt lat="43.00167" lon="-0.10762">
        <ele>538</ele>
        <time>2023-05-18T03:55:36Z</time>
      </trkpt>
      <trkpt lat="43.00263" lon="-0.1068">
        <ele>525</ele>
        <time>2023-05-18T03:55:57Z</time>
      </trkpt>
      <trkpt lat="43.00278" lon="-0.10665">
        <ele>523</ele>
        <time>2023-05-18T03:56:00Z</time>
      </trkpt>
      <trkpt lat="43.00324" lon="-0.10607">
        <ele>515</ele>
        <time>2023-05-18T03:56:11Z</time>
      </trkpt>
      <trkpt lat="43.00368" lon="-0.1057">
        <ele>513</ele>
        <time>2023-05-18T03:56:20Z</time>
      </trkpt>
      <trkpt lat="43.00416" lon="-0.10482">
        <ele>500</ele>
        <time>2023-05-18T03:56:34Z</time>
      </trkpt>
      <trkpt lat="43.00477" lon="-0.10412">
        <ele>494</ele>
        <time>2023-05-18T03:56:49Z</time>
      </trkpt>
      <trkpt lat="43.00484" lon="-0.10393">
        <ele>492</ele>
        <time>2023-05-18T03:56:51Z</time>
      </trkpt>
      <trkpt lat="43.0049" lon="-0.10334">
        <ele>485</ele>
        <time>2023-05-18T03:56:59Z</time>
      </trkpt>
      <trkpt lat="43.00494" lon="-0.10316">
        <ele>483</ele>
        <time>2023-05-18T03:57:02Z</time>
      </trkpt>
      <trkpt lat="43.00528" lon="-0.10259">
        <ele>478</ele>
        <time>2023-05-18T03:57:11Z</time>
      </trkpt>
      <trkpt lat="43.00549" lon="-0.10217">
        <ele>476</ele>
        <time>2023-05-18T03:57:18Z</time>
      </trkpt>
      <trkpt lat="43.00561" lon="-0.102">
        <ele>475</ele>
        <time>2023-05-18T03:57:21Z</time>
      </trkpt>
      <trkpt lat="43.00591" lon="-0.10175">
        <ele>474</ele>
        <time>2023-05-18T03:57:27Z</time>
      </trkpt>
      <trkpt lat="43.0061" lon="-0.10167">
        <ele>473</ele>
        <time>2023-05-18T03:57:31Z</time>
      </trkpt>
      <trkpt lat="43.0066" lon="-0.10163">
        <ele>473</ele>
        <time>2023-05-18T03:57:40Z</time>
      </trkpt>
      <trkpt lat="43.00697" lon="-0.10153">
        <ele>473</ele>
        <time>2023-05-18T03:57:46Z</time>
      </trkpt>
      <trkpt lat="43.00705" lon="-0.10145">
        <ele>472</ele>
        <time>2023-05-18T03:57:48Z</time>
      </trkpt>
      <trkpt lat="43.00708" lon="-0.10128">
        <ele>470</ele>
        <time>2023-05-18T03:57:50Z</time>
      </trkpt>
      <trkpt lat="43.00705" lon="-0.10119">
        <ele>468</ele>
        <time>2023-05-18T03:57:52Z</time>
      </trkpt>
      <trkpt lat="43.00701" lon="-0.10116">
        <ele>468</ele>
        <time>2023-05-18T03:57:52Z</time>
      </trkpt>
      <trkpt lat="43.00679" lon="-0.1011">
        <ele>467</ele>
        <time>2023-05-18T03:57:56Z</time>
      </trkpt>
      <trkpt lat="43.00644" lon="-0.10094">
        <ele>466</ele>
        <time>2023-05-18T03:58:03Z</time>
      </trkpt>
      <trkpt lat="43.00633" lon="-0.10024">
        <ele>461</ele>
        <time>2023-05-18T03:58:12Z</time>
      </trkpt>
      <trkpt lat="43.00558" lon="-0.10047">
        <ele>464</ele>
        <time>2023-05-18T03:58:26Z</time>
      </trkpt>
      <trkpt lat="43.00329" lon="-0.10161">
        <ele>465</ele>
        <time>2023-05-18T03:59:09Z</time>
      </trkpt>
      <trkpt lat="43.00295" lon="-0.10171">
        <ele>462</ele>
        <time>2023-05-18T03:59:16Z</time>
      </trkpt>
      <trkpt lat="43.00284" lon="-0.1017">
        <ele>461</ele>
        <time>2023-05-18T03:59:17Z</time>
      </trkpt>
      <trkpt lat="43.00273" lon="-0.10165">
        <ele>459</ele>
        <time>2023-05-18T03:59:20Z</time>
      </trkpt>
      <trkpt lat="43.00268" lon="-0.10159">
        <ele>459</ele>
        <time>2023-05-18T03:59:21Z</time>
      </trkpt>
      <trkpt lat="43.00206" lon="-0.10035">
        <ele>454</ele>
        <time>2023-05-18T03:59:40Z</time>
      </trkpt>
      <trkpt lat="43.00162" lon="-0.09957">
        <ele>453</ele>
        <time>2023-05-18T03:59:53Z</time>
      </trkpt>
      <trkpt lat="43.00157" lon="-0.09941">
        <ele>453</ele>
        <time>2023-05-18T03:59:55Z</time>
      </trkpt>
      <trkpt lat="43.00162" lon="-0.09938">
        <ele>453</ele>
        <time>2023-05-18T03:59:56Z</time>
      </trkpt>
      <trkpt lat="43.00164" lon="-0.09929">
        <ele>453</ele>
        <time>2023-05-18T03:59:58Z</time>
      </trkpt>
      <trkpt lat="43.00162" lon="-0.09918">
        <ele>453</ele>
        <time>2023-05-18T03:59:59Z</time>
      </trkpt>
      <trkpt lat="43.00158" lon="-0.09915">
        <ele>453</ele>
        <time>2023-05-18T04:00:00Z</time>
      </trkpt>
      <trkpt lat="43.0015" lon="-0.09915">
        <ele>453</ele>
        <time>2023-05-18T04:00:01Z</time>
      </trkpt>
      <trkpt lat="43.00143" lon="-0.0992">
        <ele>453</ele>
        <time>2023-05-18T04:00:03Z</time>
      </trkpt>
      <trkpt lat="43.001" lon="-0.09868">
        <ele>452</ele>
        <time>2023-05-18T04:00:13Z</time>
      </trkpt>
      <trkpt lat="42.99882" lon="-0.0954">
        <ele>448</ele>
        <time>2023-05-18T04:01:11Z</time>
      </trkpt>
      <trkpt lat="42.99814" lon="-0.09444">
        <ele>449</ele>
        <time>2023-05-18T04:01:28Z</time>
      </trkpt>
      <trkpt lat="42.99766" lon="-0.09366">
        <ele>446</ele>
        <time>2023-05-18T04:01:41Z</time>
      </trkpt>
      <trkpt lat="42.9967" lon="-0.09224">
        <ele>437</ele>
        <time>2023-05-18T04:02:06Z</time>
      </trkpt>
      <trkpt lat="42.99647" lon="-0.09206">
        <ele>437</ele>
        <time>2023-05-18T04:02:11Z</time>
      </trkpt>
      <trkpt lat="42.99542" lon="-0.09166">
        <ele>435</ele>
        <time>2023-05-18T04:02:30Z</time>
      </trkpt>
      <trkpt lat="42.99515" lon="-0.09159">
        <ele>436</ele>
        <time>2023-05-18T04:02:35Z</time>
      </trkpt>
      <trkpt lat="42.99458" lon="-0.09155">
        <ele>438</ele>
        <time>2023-05-18T04:02:46Z</time>
      </trkpt>
      <trkpt lat="42.99435" lon="-0.09149">
        <ele>439</ele>
        <time>2023-05-18T04:02:50Z</time>
      </trkpt>
      <trkpt lat="42.99299" lon="-0.09084">
        <ele>435</ele>
        <time>2023-05-18T04:03:15Z</time>
      </trkpt>
      <trkpt lat="42.99157" lon="-0.09012">
        <ele>431</ele>
        <time>2023-05-18T04:03:42Z</time>
      </trkpt>
      <trkpt lat="42.98966" lon="-0.08955">
        <ele>433</ele>
        <time>2023-05-18T04:04:17Z</time>
      </trkpt>
      <trkpt lat="42.98811" lon="-0.08888">
        <ele>434</ele>
        <time>2023-05-18T04:04:46Z</time>
      </trkpt>
      <trkpt lat="42.98774" lon="-0.08877">
        <ele>434</ele>
        <time>2023-05-18T04:04:53Z</time>
      </trkpt>
      <trkpt lat="42.98672" lon="-0.08853">
        <ele>435</ele>
        <time>2023-05-18T04:05:11Z</time>
      </trkpt>
      <trkpt lat="42.98616" lon="-0.08833">
        <ele>435</ele>
        <time>2023-05-18T04:05:21Z</time>
      </trkpt>
      <trkpt lat="42.98479" lon="-0.08767">
        <ele>435</ele>
        <time>2023-05-18T04:05:47Z</time>
      </trkpt>
      <trkpt lat="42.98429" lon="-0.08739">
        <ele>435</ele>
        <time>2023-05-18T04:05:57Z</time>
      </trkpt>
      <trkpt lat="42.98398" lon="-0.08718">
        <ele>434</ele>
        <time>2023-05-18T04:06:03Z</time>
      </trkpt>
      <trkpt lat="42.98313" lon="-0.08639">
        <ele>435</ele>
        <time>2023-05-18T04:06:21Z</time>
      </trkpt>
      <trkpt lat="42.97978" lon="-0.08312">
        <ele>437</ele>
        <time>2023-05-18T04:07:35Z</time>
      </trkpt>
      <trkpt lat="42.9769" lon="-0.08075">
        <ele>440</ele>
        <time>2023-05-18T04:08:34Z</time>
      </trkpt>
      <trkpt lat="42.97583" lon="-0.07967">
        <ele>442</ele>
        <time>2023-05-18T04:08:58Z</time>
      </trkpt>
      <trkpt lat="42.97542" lon="-0.07914">
        <ele>444</ele>
        <time>2023-05-18T04:09:08Z</time>
      </trkpt>
      <trkpt lat="42.97513" lon="-0.07859">
        <ele>443</ele>
        <time>2023-05-18T04:09:17Z</time>
      </trkpt>
      <trkpt lat="42.97463" lon="-0.07737">
        <ele>444</ele>
        <time>2023-05-18T04:09:35Z</time>
      </trkpt>
      <trkpt lat="42.97437" lon="-0.07683">
        <ele>445</ele>
        <time>2023-05-18T04:09:44Z</time>
      </trkpt>
      <trkpt lat="42.97414" lon="-0.07651">
        <ele>445</ele>
        <time>2023-05-18T04:09:49Z</time>
      </trkpt>
      <trkpt lat="42.97387" lon="-0.0762">
        <ele>445</ele>
        <time>2023-05-18T04:09:56Z</time>
      </trkpt>
      <trkpt lat="42.97347" lon="-0.07591">
        <ele>446</ele>
        <time>2023-05-18T04:10:04Z</time>
      </trkpt>
      <trkpt lat="42.97127" lon="-0.07487">
        <ele>452</ele>
        <time>2023-05-18T04:10:45Z</time>
      </trkpt>
      <trkpt lat="42.96747" lon="-0.07378">
        <ele>462</ele>
        <time>2023-05-18T04:11:54Z</time>
      </trkpt>
      <trkpt lat="42.96675" lon="-0.0736">
        <ele>463</ele>
        <time>2023-05-18T04:12:07Z</time>
      </trkpt>
      <trkpt lat="42.96636" lon="-0.07353">
        <ele>463</ele>
        <time>2023-05-18T04:12:14Z</time>
      </trkpt>
      <trkpt lat="42.96627" lon="-0.07347">
        <ele>463</ele>
        <time>2023-05-18T04:12:16Z</time>
      </trkpt>
      <trkpt lat="42.96626" lon="-0.07337">
        <ele>463</ele>
        <time>2023-05-18T04:12:17Z</time>
      </trkpt>
      <trkpt lat="42.96622" lon="-0.0733">
        <ele>463</ele>
        <time>2023-05-18T04:12:19Z</time>
      </trkpt>
      <trkpt lat="42.96616" lon="-0.07325">
        <ele>463</ele>
        <time>2023-05-18T04:12:20Z</time>
      </trkpt>
      <trkpt lat="42.96611" lon="-0.07324">
        <ele>463</ele>
        <time>2023-05-18T04:12:21Z</time>
      </trkpt>
      <trkpt lat="42.96601" lon="-0.07331">
        <ele>464</ele>
        <time>2023-05-18T04:12:23Z</time>
      </trkpt>
      <trkpt lat="42.96598" lon="-0.07346">
        <ele>464</ele>
        <time>2023-05-18T04:12:25Z</time>
      </trkpt>
      <trkpt lat="42.96601" lon="-0.07357">
        <ele>464</ele>
        <time>2023-05-18T04:12:26Z</time>
      </trkpt>
      <trkpt lat="42.96591" lon="-0.07368">
        <ele>464</ele>
        <time>2023-05-18T04:12:29Z</time>
      </trkpt>
      <trkpt lat="42.96573" lon="-0.0738">
        <ele>465</ele>
        <time>2023-05-18T04:12:32Z</time>
      </trkpt>
      <trkpt lat="42.96338" lon="-0.07448">
        <ele>474</ele>
        <time>2023-05-18T04:13:15Z</time>
      </trkpt>
      <trkpt lat="42.96215" lon="-0.07451">
        <ele>476</ele>
        <time>2023-05-18T04:13:37Z</time>
      </trkpt>
      <trkpt lat="42.96081" lon="-0.07448">
        <ele>481</ele>
        <time>2023-05-18T04:14:01Z</time>
      </trkpt>
      <trkpt lat="42.95926" lon="-0.07448">
        <ele>489</ele>
        <time>2023-05-18T04:14:28Z</time>
      </trkpt>
      <trkpt lat="42.95868" lon="-0.07457">
        <ele>491</ele>
        <time>2023-05-18T04:14:39Z</time>
      </trkpt>
      <trkpt lat="42.9585" lon="-0.07465">
        <ele>492</ele>
        <time>2023-05-18T04:14:42Z</time>
      </trkpt>
      <trkpt lat="42.95815" lon="-0.07486">
        <ele>493</ele>
        <time>2023-05-18T04:14:49Z</time>
      </trkpt>
      <trkpt lat="42.95794" lon="-0.07493">
        <ele>493</ele>
        <time>2023-05-18T04:14:53Z</time>
      </trkpt>
      <trkpt lat="42.95791" lon="-0.07487">
        <ele>493</ele>
        <time>2023-05-18T04:14:53Z</time>
      </trkpt>
      <trkpt lat="42.95787" lon="-0.07486">
        <ele>493</ele>
        <time>2023-05-18T04:14:54Z</time>
      </trkpt>
      <trkpt lat="42.95781" lon="-0.07491">
        <ele>493</ele>
        <time>2023-05-18T04:14:55Z</time>
      </trkpt>
      <trkpt lat="42.9578" lon="-0.07497">
        <ele>493</ele>
        <time>2023-05-18T04:14:56Z</time>
      </trkpt>
      <trkpt lat="42.95739" lon="-0.07511">
        <ele>495</ele>
        <time>2023-05-18T04:15:04Z</time>
      </trkpt>
      <trkpt lat="42.95707" lon="-0.0751">
        <ele>498</ele>
        <time>2023-05-18T04:15:09Z</time>
      </trkpt>
      <trkpt lat="42.95696" lon="-0.07505">
        <ele>498</ele>
        <time>2023-05-18T04:15:12Z</time>
      </trkpt>
      <trkpt lat="42.95688" lon="-0.07498">
        <ele>499</ele>
        <time>2023-05-18T04:15:13Z</time>
      </trkpt>
      <trkpt lat="42.95679" lon="-0.07481">
        <ele>499</ele>
        <time>2023-05-18T04:15:16Z</time>
      </trkpt>
      <trkpt lat="42.95666" lon="-0.07428">
        <ele>496</ele>
        <time>2023-05-18T04:15:23Z</time>
      </trkpt>
      <trkpt lat="42.95654" lon="-0.07399">
        <ele>494</ele>
        <time>2023-05-18T04:15:28Z</time>
      </trkpt>
      <trkpt lat="42.9564" lon="-0.07374">
        <ele>493</ele>
        <time>2023-05-18T04:15:32Z</time>
      </trkpt>
      <trkpt lat="42.95582" lon="-0.07283">
        <ele>489</ele>
        <time>2023-05-18T04:15:47Z</time>
      </trkpt>
      <trkpt lat="42.95488" lon="-0.07149">
        <ele>489</ele>
        <time>2023-05-18T04:16:12Z</time>
      </trkpt>
      <trkpt lat="42.95431" lon="-0.07096">
        <ele>490</ele>
        <time>2023-05-18T04:16:24Z</time>
      </trkpt>
      <trkpt lat="42.95344" lon="-0.07037">
        <ele>490</ele>
        <time>2023-05-18T04:16:41Z</time>
      </trkpt>
      <trkpt lat="42.95305" lon="-0.07015">
        <ele>489</ele>
        <time>2023-05-18T04:16:49Z</time>
      </trkpt>
      <trkpt lat="42.95245" lon="-0.06988">
        <ele>491</ele>
        <time>2023-05-18T04:17:00Z</time>
      </trkpt>
      <trkpt lat="42.95206" lon="-0.06985">
        <ele>501</ele>
        <time>2023-05-18T04:17:07Z</time>
      </trkpt>
      <trkpt lat="42.95192" lon="-0.06979">
        <ele>503</ele>
        <time>2023-05-18T04:17:09Z</time>
      </trkpt>
      <trkpt lat="42.9517" lon="-0.06965">
        <ele>504</ele>
        <time>2023-05-18T04:17:14Z</time>
      </trkpt>
      <trkpt lat="42.95159" lon="-0.0695">
        <ele>502</ele>
        <time>2023-05-18T04:17:16Z</time>
      </trkpt>
      <trkpt lat="42.95126" lon="-0.06858">
        <ele>488</ele>
        <time>2023-05-18T04:17:30Z</time>
      </trkpt>
      <trkpt lat="42.951" lon="-0.06811">
        <ele>485</ele>
        <time>2023-05-18T04:17:38Z</time>
      </trkpt>
      <trkpt lat="42.9509" lon="-0.06779">
        <ele>483</ele>
        <time>2023-05-18T04:17:42Z</time>
      </trkpt>
      <trkpt lat="42.95101" lon="-0.06772">
        <ele>482</ele>
        <time>2023-05-18T04:17:44Z</time>
      </trkpt>
      <trkpt lat="42.95106" lon="-0.06762">
        <ele>481</ele>
        <time>2023-05-18T04:17:46Z</time>
      </trkpt>
      <trkpt lat="42.95107" lon="-0.06751">
        <ele>480</ele>
        <time>2023-05-18T04:17:47Z</time>
      </trkpt>
      <trkpt lat="42.95104" lon="-0.0674">
        <ele>480</ele>
        <time>2023-05-18T04:17:49Z</time>
      </trkpt>
      <trkpt lat="42.95095" lon="-0.0673">
        <ele>481</ele>
        <time>2023-05-18T04:17:51Z</time>
      </trkpt>
      <trkpt lat="42.95086" lon="-0.06729">
        <ele>481</ele>
        <time>2023-05-18T04:17:52Z</time>
      </trkpt>
      <trkpt lat="42.95075" lon="-0.06736">
        <ele>483</ele>
        <time>2023-05-18T04:17:55Z</time>
      </trkpt>
      <trkpt lat="42.9507" lon="-0.06745">
        <ele>485</ele>
        <time>2023-05-18T04:17:56Z</time>
      </trkpt>
      <trkpt lat="42.95057" lon="-0.06729">
        <ele>488</ele>
        <time>2023-05-18T04:17:59Z</time>
      </trkpt>
      <trkpt lat="42.95052" lon="-0.06717">
        <ele>488</ele>
        <time>2023-05-18T04:18:01Z</time>
      </trkpt>
      <trkpt lat="42.95041" lon="-0.06676">
        <ele>489</ele>
        <time>2023-05-18T04:18:07Z</time>
      </trkpt>
      <trkpt lat="42.94993" lon="-0.06448">
        <ele>496</ele>
        <time>2023-05-18T04:18:38Z</time>
      </trkpt>
      <trkpt lat="42.94955" lon="-0.06344">
        <ele>502</ele>
        <time>2023-05-18T04:18:53Z</time>
      </trkpt>
      <trkpt lat="42.94934" lon="-0.06301">
        <ele>500</ele>
        <time>2023-05-18T04:18:59Z</time>
      </trkpt>
      <trkpt lat="42.94893" lon="-0.0623">
        <ele>505</ele>
        <time>2023-05-18T04:19:11Z</time>
      </trkpt>
      <trkpt lat="42.94809" lon="-0.06062">
        <ele>512</ele>
        <time>2023-05-18T04:19:38Z</time>
      </trkpt>
      <trkpt lat="42.94761" lon="-0.05985">
        <ele>504</ele>
        <time>2023-05-18T04:19:51Z</time>
      </trkpt>
      <trkpt lat="42.94745" lon="-0.05949">
        <ele>501</ele>
        <time>2023-05-18T04:19:56Z</time>
      </trkpt>
      <trkpt lat="42.94719" lon="-0.05876">
        <ele>509</ele>
        <time>2023-05-18T04:20:07Z</time>
      </trkpt>
      <trkpt lat="42.94698" lon="-0.05771">
        <ele>516</ele>
        <time>2023-05-18T04:20:21Z</time>
      </trkpt>
      <trkpt lat="42.94681" lon="-0.05716">
        <ele>517</ele>
        <time>2023-05-18T04:20:29Z</time>
      </trkpt>
      <trkpt lat="42.94664" lon="-0.05685">
        <ele>515</ele>
        <time>2023-05-18T04:20:34Z</time>
      </trkpt>
      <trkpt lat="42.94649" lon="-0.05665">
        <ele>517</ele>
        <time>2023-05-18T04:20:38Z</time>
      </trkpt>
      <trkpt lat="42.94526" lon="-0.05525">
        <ele>514</ele>
        <time>2023-05-18T04:21:06Z</time>
      </trkpt>
      <trkpt lat="42.94481" lon="-0.05467">
        <ele>514</ele>
        <time>2023-05-18T04:21:17Z</time>
      </trkpt>
      <trkpt lat="42.94432" lon="-0.0541">
        <ele>511</ele>
        <time>2023-05-18T04:21:29Z</time>
      </trkpt>
      <trkpt lat="42.94389" lon="-0.05367">
        <ele>517</ele>
        <time>2023-05-18T04:21:38Z</time>
      </trkpt>
      <trkpt lat="42.94372" lon="-0.05354">
        <ele>517</ele>
        <time>2023-05-18T04:21:42Z</time>
      </trkpt>
      <trkpt lat="42.94278" lon="-0.05295">
        <ele>519</ele>
        <time>2023-05-18T04:22:00Z</time>
      </trkpt>
      <trkpt lat="42.9423" lon="-0.05241">
        <ele>523</ele>
        <time>2023-05-18T04:22:11Z</time>
      </trkpt>
      <trkpt lat="42.9421" lon="-0.05223">
        <ele>532</ele>
        <time>2023-05-18T04:22:15Z</time>
      </trkpt>
      <trkpt lat="42.942" lon="-0.05216">
        <ele>535</ele>
        <time>2023-05-18T04:22:17Z</time>
      </trkpt>
      <trkpt lat="42.94181" lon="-0.05211">
        <ele>535</ele>
        <time>2023-05-18T04:22:21Z</time>
      </trkpt>
      <trkpt lat="42.94158" lon="-0.05215">
        <ele>533</ele>
        <time>2023-05-18T04:22:25Z</time>
      </trkpt>
      <trkpt lat="42.94131" lon="-0.05235">
        <ele>528</ele>
        <time>2023-05-18T04:22:30Z</time>
      </trkpt>
      <trkpt lat="42.94054" lon="-0.0532">
        <ele>516</ele>
        <time>2023-05-18T04:22:48Z</time>
      </trkpt>
      <trkpt lat="42.94039" lon="-0.05329">
        <ele>516</ele>
        <time>2023-05-18T04:22:51Z</time>
      </trkpt>
      <trkpt lat="42.9402" lon="-0.0533">
        <ele>517</ele>
        <time>2023-05-18T04:22:54Z</time>
      </trkpt>
      <trkpt lat="42.93999" lon="-0.05319">
        <ele>521</ele>
        <time>2023-05-18T04:22:58Z</time>
      </trkpt>
      <trkpt lat="42.93988" lon="-0.05307">
        <ele>525</ele>
        <time>2023-05-18T04:23:01Z</time>
      </trkpt>
      <trkpt lat="42.93983" lon="-0.05297">
        <ele>527</ele>
        <time>2023-05-18T04:23:02Z</time>
      </trkpt>
      <trkpt lat="42.93957" lon="-0.05226">
        <ele>531</ele>
        <time>2023-05-18T04:23:13Z</time>
      </trkpt>
      <trkpt lat="42.9394" lon="-0.0514">
        <ele>535</ele>
        <time>2023-05-18T04:23:24Z</time>
      </trkpt>
      <trkpt lat="42.93931" lon="-0.05108">
        <ele>535</ele>
        <time>2023-05-18T04:23:29Z</time>
      </trkpt>
      <trkpt lat="42.93918" lon="-0.05082">
        <ele>530</ele>
        <time>2023-05-18T04:23:33Z</time>
      </trkpt>
      <trkpt lat="42.93883" lon="-0.05036">
        <ele>541</ele>
        <time>2023-05-18T04:23:41Z</time>
      </trkpt>
      <trkpt lat="42.93851" lon="-0.05016">
        <ele>540</ele>
        <time>2023-05-18T04:23:48Z</time>
      </trkpt>
      <trkpt lat="42.93749" lon="-0.04962">
        <ele>544</ele>
        <time>2023-05-18T04:24:07Z</time>
      </trkpt>
      <trkpt lat="42.93722" lon="-0.04945">
        <ele>546</ele>
        <time>2023-05-18T04:24:12Z</time>
      </trkpt>
      <trkpt lat="42.93703" lon="-0.04926">
        <ele>542</ele>
        <time>2023-05-18T04:24:17Z</time>
      </trkpt>
      <trkpt lat="42.93694" lon="-0.0491">
        <ele>541</ele>
        <time>2023-05-18T04:24:19Z</time>
      </trkpt>
      <trkpt lat="42.93685" lon="-0.04885">
        <ele>548</ele>
        <time>2023-05-18T04:24:23Z</time>
      </trkpt>
      <trkpt lat="42.93675" lon="-0.0487">
        <ele>550</ele>
        <time>2023-05-18T04:24:26Z</time>
      </trkpt>
      <trkpt lat="42.93664" lon="-0.04858">
        <ele>552</ele>
        <time>2023-05-18T04:24:28Z</time>
      </trkpt>
      <trkpt lat="42.93652" lon="-0.04851">
        <ele>557</ele>
        <time>2023-05-18T04:24:30Z</time>
      </trkpt>
      <trkpt lat="42.93627" lon="-0.04847">
        <ele>563</ele>
        <time>2023-05-18T04:24:35Z</time>
      </trkpt>
      <trkpt lat="42.93597" lon="-0.04846">
        <ele>570</ele>
        <time>2023-05-18T04:24:40Z</time>
      </trkpt>
      <trkpt lat="42.9357" lon="-0.04851">
        <ele>573</ele>
        <time>2023-05-18T04:24:45Z</time>
      </trkpt>
      <trkpt lat="42.935" lon="-0.0487">
        <ele>585</ele>
        <time>2023-05-18T04:24:58Z</time>
      </trkpt>
      <trkpt lat="42.93485" lon="-0.0487">
        <ele>584</ele>
        <time>2023-05-18T04:25:00Z</time>
      </trkpt>
      <trkpt lat="42.9347" lon="-0.04861">
        <ele>581</ele>
        <time>2023-05-18T04:25:03Z</time>
      </trkpt>
      <trkpt lat="42.93465" lon="-0.04855">
        <ele>579</ele>
        <time>2023-05-18T04:25:05Z</time>
      </trkpt>
      <trkpt lat="42.93454" lon="-0.04832">
        <ele>573</ele>
        <time>2023-05-18T04:25:08Z</time>
      </trkpt>
      <trkpt lat="42.93438" lon="-0.04785">
        <ele>587</ele>
        <time>2023-05-18T04:25:15Z</time>
      </trkpt>
      <trkpt lat="42.93414" lon="-0.04753">
        <ele>589</ele>
        <time>2023-05-18T04:25:21Z</time>
      </trkpt>
      <trkpt lat="42.93378" lon="-0.0472">
        <ele>587</ele>
        <time>2023-05-18T04:25:29Z</time>
      </trkpt>
      <trkpt lat="42.93319" lon="-0.04674">
        <ele>581</ele>
        <time>2023-05-18T04:25:41Z</time>
      </trkpt>
      <trkpt lat="42.93256" lon="-0.04645">
        <ele>563</ele>
        <time>2023-05-18T04:25:52Z</time>
      </trkpt>
      <trkpt lat="42.93218" lon="-0.0462">
        <ele>571</ele>
        <time>2023-05-18T04:26:00Z</time>
      </trkpt>
      <trkpt lat="42.93205" lon="-0.04615">
        <ele>572</ele>
        <time>2023-05-18T04:26:02Z</time>
      </trkpt>
      <trkpt lat="42.93165" lon="-0.04607">
        <ele>568</ele>
        <time>2023-05-18T04:26:10Z</time>
      </trkpt>
      <trkpt lat="42.93122" lon="-0.04611">
        <ele>560</ele>
        <time>2023-05-18T04:26:17Z</time>
      </trkpt>
      <trkpt lat="42.93106" lon="-0.0461">
        <ele>558</ele>
        <time>2023-05-18T04:26:20Z</time>
      </trkpt>
      <trkpt lat="42.93079" lon="-0.04593">
        <ele>557</ele>
        <time>2023-05-18T04:26:25Z</time>
      </trkpt>
      <trkpt lat="42.93037" lon="-0.0454">
        <ele>564</ele>
        <time>2023-05-18T04:26:36Z</time>
      </trkpt>
      <trkpt lat="42.93016" lon="-0.04505">
        <ele>562</ele>
        <time>2023-05-18T04:26:41Z</time>
      </trkpt>
      <trkpt lat="42.92986" lon="-0.04433">
        <ele>576</ele>
        <time>2023-05-18T04:26:52Z</time>
      </trkpt>
      <trkpt lat="42.92973" lon="-0.04384">
        <ele>588</ele>
        <time>2023-05-18T04:26:59Z</time>
      </trkpt>
      <trkpt lat="42.92964" lon="-0.04367">
        <ele>590</ele>
        <time>2023-05-18T04:27:02Z</time>
      </trkpt>
      <trkpt lat="42.92902" lon="-0.04285">
        <ele>590</ele>
        <time>2023-05-18T04:27:17Z</time>
      </trkpt>
      <trkpt lat="42.92882" lon="-0.04262">
        <ele>593</ele>
        <time>2023-05-18T04:27:22Z</time>
      </trkpt>
      <trkpt lat="42.92853" lon="-0.04233">
        <ele>596</ele>
        <time>2023-05-18T04:27:28Z</time>
      </trkpt>
      <trkpt lat="42.92831" lon="-0.04218">
        <ele>596</ele>
        <time>2023-05-18T04:27:33Z</time>
      </trkpt>
      <trkpt lat="42.92777" lon="-0.04191">
        <ele>599</ele>
        <time>2023-05-18T04:27:43Z</time>
      </trkpt>
      <trkpt lat="42.92711" lon="-0.04169">
        <ele>597</ele>
        <time>2023-05-18T04:27:55Z</time>
      </trkpt>
      <trkpt lat="42.92686" lon="-0.04164">
        <ele>597</ele>
        <time>2023-05-18T04:27:59Z</time>
      </trkpt>
      <trkpt lat="42.92631" lon="-0.04159">
        <ele>611</ele>
        <time>2023-05-18T04:28:09Z</time>
      </trkpt>
      <trkpt lat="42.92623" lon="-0.0416">
        <ele>613</ele>
        <time>2023-05-18T04:28:11Z</time>
      </trkpt>
      <trkpt lat="42.92612" lon="-0.04166">
        <ele>613</ele>
        <time>2023-05-18T04:28:13Z</time>
      </trkpt>
      <trkpt lat="42.92578" lon="-0.04207">
        <ele>604</ele>
        <time>2023-05-18T04:28:21Z</time>
      </trkpt>
      <trkpt lat="42.92562" lon="-0.04213">
        <ele>602</ele>
        <time>2023-05-18T04:28:24Z</time>
      </trkpt>
      <trkpt lat="42.92544" lon="-0.04211">
        <ele>604</ele>
        <time>2023-05-18T04:28:27Z</time>
      </trkpt>
      <trkpt lat="42.92522" lon="-0.04197">
        <ele>609</ele>
        <time>2023-05-18T04:28:31Z</time>
      </trkpt>
      <trkpt lat="42.9249" lon="-0.04172">
        <ele>611</ele>
        <time>2023-05-18T04:28:38Z</time>
      </trkpt>
      <trkpt lat="42.9245" lon="-0.04135">
        <ele>617</ele>
        <time>2023-05-18T04:28:46Z</time>
      </trkpt>
      <trkpt lat="42.92412" lon="-0.0409">
        <ele>625</ele>
        <time>2023-05-18T04:28:55Z</time>
      </trkpt>
      <trkpt lat="42.92393" lon="-0.0408">
        <ele>625</ele>
        <time>2023-05-18T04:28:59Z</time>
      </trkpt>
      <trkpt lat="42.92369" lon="-0.04086">
        <ele>618</ele>
        <time>2023-05-18T04:29:03Z</time>
      </trkpt>
      <trkpt lat="42.9235" lon="-0.04087">
        <ele>614</ele>
        <time>2023-05-18T04:29:07Z</time>
      </trkpt>
      <trkpt lat="42.92334" lon="-0.04085">
        <ele>610</ele>
        <time>2023-05-18T04:29:10Z</time>
      </trkpt>
      <trkpt lat="42.92301" lon="-0.04072">
        <ele>621</ele>
        <time>2023-05-18T04:29:16Z</time>
      </trkpt>
      <trkpt lat="42.92287" lon="-0.0407">
        <ele>624</ele>
        <time>2023-05-18T04:29:18Z</time>
      </trkpt>
      <trkpt lat="42.92254" lon="-0.04076">
        <ele>623</ele>
        <time>2023-05-18T04:29:24Z</time>
      </trkpt>
      <trkpt lat="42.92213" lon="-0.04078">
        <ele>629</ele>
        <time>2023-05-18T04:29:31Z</time>
      </trkpt>
      <trkpt lat="42.92162" lon="-0.041">
        <ele>628</ele>
        <time>2023-05-18T04:29:41Z</time>
      </trkpt>
      <trkpt lat="42.92152" lon="-0.041">
        <ele>626</ele>
        <time>2023-05-18T04:29:43Z</time>
      </trkpt>
      <trkpt lat="42.92099" lon="-0.04095">
        <ele>617</ele>
        <time>2023-05-18T04:29:52Z</time>
      </trkpt>
      <trkpt lat="42.92069" lon="-0.04086">
        <ele>612</ele>
        <time>2023-05-18T04:29:58Z</time>
      </trkpt>
      <trkpt lat="42.92048" lon="-0.04071">
        <ele>613</ele>
        <time>2023-05-18T04:30:02Z</time>
      </trkpt>
      <trkpt lat="42.92017" lon="-0.0403">
        <ele>623</ele>
        <time>2023-05-18T04:30:09Z</time>
      </trkpt>
      <trkpt lat="42.92004" lon="-0.04024">
        <ele>620</ele>
        <time>2023-05-18T04:30:12Z</time>
      </trkpt>
      <trkpt lat="42.91997" lon="-0.04023">
        <ele>619</ele>
        <time>2023-05-18T04:30:13Z</time>
      </trkpt>
      <trkpt lat="42.91984" lon="-0.04027">
        <ele>617</ele>
        <time>2023-05-18T04:30:16Z</time>
      </trkpt>
      <trkpt lat="42.91963" lon="-0.04027">
        <ele>616</ele>
        <time>2023-05-18T04:30:19Z</time>
      </trkpt>
      <trkpt lat="42.91938" lon="-0.04019">
        <ele>619</ele>
        <time>2023-05-18T04:30:24Z</time>
      </trkpt>
      <trkpt lat="42.91924" lon="-0.04018">
        <ele>619</ele>
        <time>2023-05-18T04:30:26Z</time>
      </trkpt>
      <trkpt lat="42.91875" lon="-0.04041">
        <ele>607</ele>
        <time>2023-05-18T04:30:36Z</time>
      </trkpt>
      <trkpt lat="42.91861" lon="-0.04039">
        <ele>607</ele>
        <time>2023-05-18T04:30:38Z</time>
      </trkpt>
      <trkpt lat="42.91847" lon="-0.04028">
        <ele>610</ele>
        <time>2023-05-18T04:30:41Z</time>
      </trkpt>
      <trkpt lat="42.91821" lon="-0.03999">
        <ele>617</ele>
        <time>2023-05-18T04:30:47Z</time>
      </trkpt>
      <trkpt lat="42.91811" lon="-0.03992">
        <ele>617</ele>
        <time>2023-05-18T04:30:49Z</time>
      </trkpt>
      <trkpt lat="42.91797" lon="-0.03988">
        <ele>616</ele>
        <time>2023-05-18T04:30:51Z</time>
      </trkpt>
      <trkpt lat="42.91759" lon="-0.03988">
        <ele>608</ele>
        <time>2023-05-18T04:30:58Z</time>
      </trkpt>
      <trkpt lat="42.91742" lon="-0.03979">
        <ele>607</ele>
        <time>2023-05-18T04:31:01Z</time>
      </trkpt>
      <trkpt lat="42.91729" lon="-0.03964">
        <ele>609</ele>
        <time>2023-05-18T04:31:05Z</time>
      </trkpt>
      <trkpt lat="42.91649" lon="-0.03835">
        <ele>628</ele>
        <time>2023-05-18T04:31:27Z</time>
      </trkpt>
      <trkpt lat="42.91639" lon="-0.03823">
        <ele>631</ele>
        <time>2023-05-18T04:31:29Z</time>
      </trkpt>
      <trkpt lat="42.9162" lon="-0.03811">
        <ele>631</ele>
        <time>2023-05-18T04:31:33Z</time>
      </trkpt>
      <trkpt lat="42.91414" lon="-0.03703">
        <ele>643</ele>
        <time>2023-05-18T04:32:12Z</time>
      </trkpt>
      <trkpt lat="42.91403" lon="-0.03698">
        <ele>646</ele>
        <time>2023-05-18T04:32:14Z</time>
      </trkpt>
      <trkpt lat="42.91382" lon="-0.03697">
        <ele>645</ele>
        <time>2023-05-18T04:32:18Z</time>
      </trkpt>
      <trkpt lat="42.91374" lon="-0.03699">
        <ele>643</ele>
        <time>2023-05-18T04:32:19Z</time>
      </trkpt>
      <trkpt lat="42.91337" lon="-0.03718">
        <ele>628</ele>
        <time>2023-05-18T04:32:26Z</time>
      </trkpt>
      <trkpt lat="42.91296" lon="-0.0372">
        <ele>634</ele>
        <time>2023-05-18T04:32:33Z</time>
      </trkpt>
      <trkpt lat="42.91254" lon="-0.03739">
        <ele>631</ele>
        <time>2023-05-18T04:32:41Z</time>
      </trkpt>
      <trkpt lat="42.91238" lon="-0.0374">
        <ele>631</ele>
        <time>2023-05-18T04:32:44Z</time>
      </trkpt>
      <trkpt lat="42.91214" lon="-0.03734">
        <ele>635</ele>
        <time>2023-05-18T04:32:49Z</time>
      </trkpt>
      <trkpt lat="42.91153" lon="-0.03709">
        <ele>645</ele>
        <time>2023-05-18T04:33:00Z</time>
      </trkpt>
      <trkpt lat="42.91139" lon="-0.03703">
        <ele>645</ele>
        <time>2023-05-18T04:33:02Z</time>
      </trkpt>
      <trkpt lat="42.91115" lon="-0.03688">
        <ele>646</ele>
        <time>2023-05-18T04:33:07Z</time>
      </trkpt>
      <trkpt lat="42.9109" lon="-0.03677">
        <ele>643</ele>
        <time>2023-05-18T04:33:12Z</time>
      </trkpt>
      <trkpt lat="42.91006" lon="-0.03664">
        <ele>635</ele>
        <time>2023-05-18T04:33:27Z</time>
      </trkpt>
      <trkpt lat="42.90954" lon="-0.03662">
        <ele>632</ele>
        <time>2023-05-18T04:33:36Z</time>
      </trkpt>
      <trkpt lat="42.9093" lon="-0.03655">
        <ele>633</ele>
        <time>2023-05-18T04:33:41Z</time>
      </trkpt>
      <trkpt lat="42.90896" lon="-0.03639">
        <ele>633</ele>
        <time>2023-05-18T04:33:47Z</time>
      </trkpt>
      <trkpt lat="42.90868" lon="-0.03621">
        <ele>631</ele>
        <time>2023-05-18T04:33:52Z</time>
      </trkpt>
      <trkpt lat="42.90819" lon="-0.03574">
        <ele>625</ele>
        <time>2023-05-18T04:34:03Z</time>
      </trkpt>
      <trkpt lat="42.90743" lon="-0.03515">
        <ele>622</ele>
        <time>2023-05-18T04:34:19Z</time>
      </trkpt>
      <trkpt lat="42.90722" lon="-0.03501">
        <ele>621</ele>
        <time>2023-05-18T04:34:23Z</time>
      </trkpt>
      <trkpt lat="42.90687" lon="-0.03486">
        <ele>618</ele>
        <time>2023-05-18T04:34:29Z</time>
      </trkpt>
      <trkpt lat="42.90644" lon="-0.03456">
        <ele>618</ele>
        <time>2023-05-18T04:34:38Z</time>
      </trkpt>
      <trkpt lat="42.90633" lon="-0.03455">
        <ele>617</ele>
        <time>2023-05-18T04:34:40Z</time>
      </trkpt>
      <trkpt lat="42.90605" lon="-0.03465">
        <ele>611</ele>
        <time>2023-05-18T04:34:45Z</time>
      </trkpt>
      <trkpt lat="42.90596" lon="-0.03463">
        <ele>610</ele>
        <time>2023-05-18T04:34:47Z</time>
      </trkpt>
      <trkpt lat="42.90588" lon="-0.03453">
        <ele>610</ele>
        <time>2023-05-18T04:34:49Z</time>
      </trkpt>
      <trkpt lat="42.90559" lon="-0.03383">
        <ele>621</ele>
        <time>2023-05-18T04:34:59Z</time>
      </trkpt>
      <trkpt lat="42.90491" lon="-0.03274">
        <ele>626</ele>
        <time>2023-05-18T04:35:18Z</time>
      </trkpt>
      <trkpt lat="42.90447" lon="-0.03188">
        <ele>630</ele>
        <time>2023-05-18T04:35:31Z</time>
      </trkpt>
      <trkpt lat="42.9043" lon="-0.03165">
        <ele>628</ele>
        <time>2023-05-18T04:35:36Z</time>
      </trkpt>
      <trkpt lat="42.90413" lon="-0.03148">
        <ele>626</ele>
        <time>2023-05-18T04:35:39Z</time>
      </trkpt>
      <trkpt lat="42.90397" lon="-0.03138">
        <ele>626</ele>
        <time>2023-05-18T04:35:43Z</time>
      </trkpt>
      <trkpt lat="42.90379" lon="-0.03136">
        <ele>626</ele>
        <time>2023-05-18T04:35:46Z</time>
      </trkpt>
      <trkpt lat="42.90348" lon="-0.03147">
        <ele>628</ele>
        <time>2023-05-18T04:35:51Z</time>
      </trkpt>
      <trkpt lat="42.90332" lon="-0.03148">
        <ele>629</ele>
        <time>2023-05-18T04:35:54Z</time>
      </trkpt>
      <trkpt lat="42.90308" lon="-0.03139">
        <ele>629</ele>
        <time>2023-05-18T04:35:59Z</time>
      </trkpt>
      <trkpt lat="42.90256" lon="-0.0311">
        <ele>626</ele>
        <time>2023-05-18T04:36:09Z</time>
      </trkpt>
      <trkpt lat="42.90012" lon="-0.02928">
        <ele>628</ele>
        <time>2023-05-18T04:36:58Z</time>
      </trkpt>
      <trkpt lat="42.89957" lon="-0.02891">
        <ele>631</ele>
        <time>2023-05-18T04:37:09Z</time>
      </trkpt>
      <trkpt lat="42.89915" lon="-0.02855">
        <ele>630</ele>
        <time>2023-05-18T04:37:18Z</time>
      </trkpt>
      <trkpt lat="42.89871" lon="-0.02823">
        <ele>625</ele>
        <time>2023-05-18T04:37:27Z</time>
      </trkpt>
      <trkpt lat="42.89767" lon="-0.02767">
        <ele>628</ele>
        <time>2023-05-18T04:37:47Z</time>
      </trkpt>
      <trkpt lat="42.8925" lon="-0.02448">
        <ele>638</ele>
        <time>2023-05-18T04:39:28Z</time>
      </trkpt>
      <trkpt lat="42.89122" lon="-0.02363">
        <ele>651</ele>
        <time>2023-05-18T04:39:53Z</time>
      </trkpt>
      <trkpt lat="42.89088" lon="-0.02319">
        <ele>652</ele>
        <time>2023-05-18T04:40:01Z</time>
      </trkpt>
      <trkpt lat="42.89004" lon="-0.02148">
        <ele>657</ele>
        <time>2023-05-18T04:40:28Z</time>
      </trkpt>
      <trkpt lat="42.88968" lon="-0.02102">
        <ele>662</ele>
        <time>2023-05-18T04:40:37Z</time>
      </trkpt>
      <trkpt lat="42.88912" lon="-0.02048">
        <ele>667</ele>
        <time>2023-05-18T04:40:49Z</time>
      </trkpt>
      <trkpt lat="42.88873" lon="-0.01986">
        <ele>670</ele>
        <time>2023-05-18T04:41:00Z</time>
      </trkpt>
      <trkpt lat="42.88837" lon="-0.01915">
        <ele>665</ele>
        <time>2023-05-18T04:41:11Z</time>
      </trkpt>
      <trkpt lat="42.8882" lon="-0.01893">
        <ele>666</ele>
        <time>2023-05-18T04:41:15Z</time>
      </trkpt>
      <trkpt lat="42.88778" lon="-0.01853">
        <ele>667</ele>
        <time>2023-05-18T04:41:24Z</time>
      </trkpt>
      <trkpt lat="42.88595" lon="-0.01692">
        <ele>662</ele>
        <time>2023-05-18T04:42:03Z</time>
      </trkpt>
      <trkpt lat="42.88555" lon="-0.01653">
        <ele>655</ele>
        <time>2023-05-18T04:42:12Z</time>
      </trkpt>
      <trkpt lat="42.88549" lon="-0.01646">
        <ele>655</ele>
        <time>2023-05-18T04:42:13Z</time>
      </trkpt>
      <trkpt lat="42.88539" lon="-0.01625">
        <ele>654</ele>
        <time>2023-05-18T04:42:16Z</time>
      </trkpt>
      <trkpt lat="42.88533" lon="-0.01571">
        <ele>654</ele>
        <time>2023-05-18T04:42:24Z</time>
      </trkpt>
      <trkpt lat="42.88527" lon="-0.01557">
        <ele>655</ele>
        <time>2023-05-18T04:42:26Z</time>
      </trkpt>
      <trkpt lat="42.88516" lon="-0.01543">
        <ele>655</ele>
        <time>2023-05-18T04:42:28Z</time>
      </trkpt>
      <trkpt lat="42.88498" lon="-0.01527">
        <ele>654</ele>
        <time>2023-05-18T04:42:32Z</time>
      </trkpt>
      <trkpt lat="42.88388" lon="-0.01445">
        <ele>657</ele>
        <time>2023-05-18T04:42:54Z</time>
      </trkpt>
      <trkpt lat="42.88022" lon="-0.01163">
        <ele>678</ele>
        <time>2023-05-18T04:44:09Z</time>
      </trkpt>
      <trkpt lat="42.8799" lon="-0.01121">
        <ele>680</ele>
        <time>2023-05-18T04:44:17Z</time>
      </trkpt>
      <trkpt lat="42.8744" lon="-0.00321">
        <ele>714</ele>
        <time>2023-05-18T04:46:40Z</time>
      </trkpt>
      <trkpt lat="42.87436" lon="-0.00318">
        <ele>714</ele>
        <time>2023-05-18T04:46:41Z</time>
      </trkpt>
      <trkpt lat="42.87421" lon="-0.00315">
        <ele>715</ele>
        <time>2023-05-18T04:46:44Z</time>
      </trkpt>
      <trkpt lat="42.8734" lon="-0.00327">
        <ele>715</ele>
        <time>2023-05-18T04:46:58Z</time>
      </trkpt>
      <trkpt lat="42.87324" lon="-0.00325">
        <ele>716</ele>
        <time>2023-05-18T04:47:01Z</time>
      </trkpt>
      <trkpt lat="42.87317" lon="-0.00321">
        <ele>716</ele>
        <time>2023-05-18T04:47:02Z</time>
      </trkpt>
      <trkpt lat="42.87298" lon="-0.00297">
        <ele>718</ele>
        <time>2023-05-18T04:47:07Z</time>
      </trkpt>
      <trkpt lat="42.87232" lon="-0.00182">
        <ele>727</ele>
        <time>2023-05-18T04:47:26Z</time>
      </trkpt>
      <trkpt lat="42.87229" lon="-0.00172">
        <ele>728</ele>
        <time>2023-05-18T04:47:27Z</time>
      </trkpt>
      <trkpt lat="42.87231" lon="-0.00157">
        <ele>728</ele>
        <time>2023-05-18T04:47:29Z</time>
      </trkpt>
      <trkpt lat="42.87294" lon="0.00064">
        <ele>734</ele>
        <time>2023-05-18T04:48:00Z</time>
      </trkpt>
      <trkpt lat="42.87414" lon="0.00502">
        <ele>746</ele>
        <time>2023-05-18T04:49:01Z</time>
      </trkpt>
      <trkpt lat="42.8743" lon="0.00532">
        <ele>749</ele>
        <time>2023-05-18T04:49:06Z</time>
      </trkpt>
      <trkpt lat="42.87501" lon="0.00641">
        <ele>758</ele>
        <time>2023-05-18T04:49:25Z</time>
      </trkpt>
      <trkpt lat="42.87545" lon="0.00613">
        <ele>757</ele>
        <time>2023-05-18T04:49:34Z</time>
      </trkpt>
      <trkpt lat="42.87501" lon="0.00641">
        <ele>758</ele>
        <time>2023-05-18T04:49:42Z</time>
      </trkpt>
      <trkpt lat="42.87664" lon="0.00874">
        <ele>778</ele>
        <time>2023-05-18T04:50:24Z</time>
      </trkpt>
      <trkpt lat="42.87677" lon="0.00899">
        <ele>782</ele>
        <time>2023-05-18T04:50:28Z</time>
      </trkpt>
      <trkpt lat="42.87689" lon="0.00931">
        <ele>785</ele>
        <time>2023-05-18T04:50:33Z</time>
      </trkpt>
      <trkpt lat="42.87725" lon="0.01051">
        <ele>791</ele>
        <time>2023-05-18T04:50:50Z</time>
      </trkpt>
      <trkpt lat="42.87776" lon="0.01183">
        <ele>802</ele>
        <time>2023-05-18T04:51:10Z</time>
      </trkpt>
      <trkpt lat="42.87799" lon="0.01252">
        <ele>806</ele>
        <time>2023-05-18T04:51:19Z</time>
      </trkpt>
      <trkpt lat="42.87812" lon="0.01299">
        <ele>806</ele>
        <time>2023-05-18T04:51:26Z</time>
      </trkpt>
      <trkpt lat="42.87818" lon="0.01387">
        <ele>810</ele>
        <time>2023-05-18T04:51:37Z</time>
      </trkpt>
      <trkpt lat="42.8782" lon="0.01548">
        <ele>819</ele>
        <time>2023-05-18T04:51:58Z</time>
      </trkpt>
      <trkpt lat="42.87837" lon="0.01801">
        <ele>827</ele>
        <time>2023-05-18T04:52:32Z</time>
      </trkpt>
      <trkpt lat="42.87853" lon="0.02197">
        <ele>861</ele>
        <time>2023-05-18T04:53:23Z</time>
      </trkpt>
      <trkpt lat="42.87858" lon="0.02255">
        <ele>866</ele>
        <time>2023-05-18T04:53:31Z</time>
      </trkpt>
      <trkpt lat="42.87864" lon="0.02289">
        <ele>868</ele>
        <time>2023-05-18T04:53:35Z</time>
      </trkpt>
      <trkpt lat="42.87881" lon="0.02352">
        <ele>870</ele>
        <time>2023-05-18T04:53:44Z</time>
      </trkpt>
      <trkpt lat="42.87902" lon="0.02461">
        <ele>873</ele>
        <time>2023-05-18T04:53:59Z</time>
      </trkpt>
      <trkpt lat="42.87935" lon="0.02599">
        <ele>882</ele>
        <time>2023-05-18T04:54:18Z</time>
      </trkpt>
      <trkpt lat="42.87948" lon="0.02628">
        <ele>884</ele>
        <time>2023-05-18T04:54:22Z</time>
      </trkpt>
      <trkpt lat="42.87965" lon="0.02653">
        <ele>884</ele>
        <time>2023-05-18T04:54:27Z</time>
      </trkpt>
      <trkpt lat="42.88304" lon="0.03041">
        <ele>926</ele>
        <time>2023-05-18T04:55:45Z</time>
      </trkpt>
      <trkpt lat="42.88318" lon="0.03065">
        <ele>925</ele>
        <time>2023-05-18T04:55:49Z</time>
      </trkpt>
      <trkpt lat="42.88327" lon="0.03093">
        <ele>924</ele>
        <time>2023-05-18T04:55:53Z</time>
      </trkpt>
      <trkpt lat="42.88332" lon="0.03125">
        <ele>926</ele>
        <time>2023-05-18T04:55:58Z</time>
      </trkpt>
      <trkpt lat="42.88333" lon="0.03144">
        <ele>928</ele>
        <time>2023-05-18T04:56:00Z</time>
      </trkpt>
      <trkpt lat="42.88331" lon="0.03162">
        <ele>931</ele>
        <time>2023-05-18T04:56:03Z</time>
      </trkpt>
      <trkpt lat="42.88305" lon="0.03242">
        <ele>948</ele>
        <time>2023-05-18T04:56:14Z</time>
      </trkpt>
      <trkpt lat="42.88299" lon="0.03276">
        <ele>951</ele>
        <time>2023-05-18T04:56:19Z</time>
      </trkpt>
      <trkpt lat="42.88297" lon="0.03338">
        <ele>953</ele>
        <time>2023-05-18T04:56:27Z</time>
      </trkpt>
      <trkpt lat="42.88299" lon="0.03429">
        <ele>956</ele>
        <time>2023-05-18T04:56:39Z</time>
      </trkpt>
      <trkpt lat="42.88297" lon="0.0345">
        <ele>957</ele>
        <time>2023-05-18T04:56:41Z</time>
      </trkpt>
      <trkpt lat="42.8829" lon="0.03477">
        <ele>959</ele>
        <time>2023-05-18T04:56:45Z</time>
      </trkpt>
      <trkpt lat="42.88257" lon="0.03547">
        <ele>966</ele>
        <time>2023-05-18T04:56:56Z</time>
      </trkpt>
      <trkpt lat="42.88254" lon="0.0356">
        <ele>966</ele>
        <time>2023-05-18T04:56:58Z</time>
      </trkpt>
      <trkpt lat="42.88253" lon="0.03592">
        <ele>965</ele>
        <time>2023-05-18T04:57:02Z</time>
      </trkpt>
      <trkpt lat="42.88275" lon="0.03754">
        <ele>976</ele>
        <time>2023-05-18T04:57:23Z</time>
      </trkpt>
      <trkpt lat="42.88283" lon="0.03782">
        <ele>978</ele>
        <time>2023-05-18T04:57:27Z</time>
      </trkpt>
      <trkpt lat="42.88356" lon="0.03955">
        <ele>986</ele>
        <time>2023-05-18T04:57:53Z</time>
      </trkpt>
      <trkpt lat="42.88375" lon="0.04009">
        <ele>991</ele>
        <time>2023-05-18T04:58:01Z</time>
      </trkpt>
      <trkpt lat="42.88376" lon="0.04018">
        <ele>993</ele>
        <time>2023-05-18T04:58:02Z</time>
      </trkpt>
      <trkpt lat="42.88374" lon="0.04026">
        <ele>994</ele>
        <time>2023-05-18T04:58:03Z</time>
      </trkpt>
      <trkpt lat="42.88366" lon="0.04035">
        <ele>996</ele>
        <time>2023-05-18T04:58:05Z</time>
      </trkpt>
      <trkpt lat="42.88356" lon="0.04035">
        <ele>996</ele>
        <time>2023-05-18T04:58:07Z</time>
      </trkpt>
      <trkpt lat="42.88347" lon="0.04026">
        <ele>995</ele>
        <time>2023-05-18T04:58:09Z</time>
      </trkpt>
      <trkpt lat="42.88321" lon="0.03984">
        <ele>988</ele>
        <time>2023-05-18T04:58:16Z</time>
      </trkpt>
      <trkpt lat="42.88276" lon="0.03949">
        <ele>994</ele>
        <time>2023-05-18T04:58:25Z</time>
      </trkpt>
      <trkpt lat="42.88268" lon="0.03947">
        <ele>996</ele>
        <time>2023-05-18T04:58:27Z</time>
      </trkpt>
      <trkpt lat="42.88257" lon="0.03953">
        <ele>998</ele>
        <time>2023-05-18T04:58:29Z</time>
      </trkpt>
      <trkpt lat="42.88254" lon="0.03963">
        <ele>999</ele>
        <time>2023-05-18T04:58:30Z</time>
      </trkpt>
      <trkpt lat="42.88255" lon="0.03974">
        <ele>1000</ele>
        <time>2023-05-18T04:58:32Z</time>
      </trkpt>
      <trkpt lat="42.8826" lon="0.03982">
        <ele>999</ele>
        <time>2023-05-18T04:58:33Z</time>
      </trkpt>
      <trkpt lat="42.8829" lon="0.03992">
        <ele>995</ele>
        <time>2023-05-18T04:58:39Z</time>
      </trkpt>
      <trkpt lat="42.88305" lon="0.04002">
        <ele>993</ele>
        <time>2023-05-18T04:58:42Z</time>
      </trkpt>
      <trkpt lat="42.8846" lon="0.04216">
        <ele>1022</ele>
        <time>2023-05-18T04:59:21Z</time>
      </trkpt>
      <trkpt lat="42.88521" lon="0.04289">
        <ele>1032</ele>
        <time>2023-05-18T04:59:35Z</time>
      </trkpt>
      <trkpt lat="42.88562" lon="0.04363">
        <ele>1037</ele>
        <time>2023-05-18T04:59:47Z</time>
      </trkpt>
      <trkpt lat="42.88584" lon="0.04395">
        <ele>1037</ele>
        <time>2023-05-18T04:59:53Z</time>
      </trkpt>
      <trkpt lat="42.88652" lon="0.04483">
        <ele>1048</ele>
        <time>2023-05-18T05:00:10Z</time>
      </trkpt>
      <trkpt lat="42.88669" lon="0.04497">
        <ele>1047</ele>
        <time>2023-05-18T05:00:13Z</time>
      </trkpt>
      <trkpt lat="42.88701" lon="0.04512">
        <ele>1048</ele>
        <time>2023-05-18T05:00:19Z</time>
      </trkpt>
      <trkpt lat="42.8871" lon="0.0452">
        <ele>1049</ele>
        <time>2023-05-18T05:00:21Z</time>
      </trkpt>
      <trkpt lat="42.88744" lon="0.04586">
        <ele>1054</ele>
        <time>2023-05-18T05:00:32Z</time>
      </trkpt>
      <trkpt lat="42.88758" lon="0.04601">
        <ele>1058</ele>
        <time>2023-05-18T05:00:35Z</time>
      </trkpt>
      <trkpt lat="42.88775" lon="0.04615">
        <ele>1062</ele>
        <time>2023-05-18T05:00:38Z</time>
      </trkpt>
      <trkpt lat="42.88796" lon="0.04625">
        <ele>1062</ele>
        <time>2023-05-18T05:00:42Z</time>
      </trkpt>
      <trkpt lat="42.88878" lon="0.04645">
        <ele>1064</ele>
        <time>2023-05-18T05:00:57Z</time>
      </trkpt>
      <trkpt lat="42.88948" lon="0.04684">
        <ele>1070</ele>
        <time>2023-05-18T05:01:11Z</time>
      </trkpt>
      <trkpt lat="42.89004" lon="0.04704">
        <ele>1075</ele>
        <time>2023-05-18T05:01:21Z</time>
      </trkpt>
      <trkpt lat="42.89029" lon="0.04723">
        <ele>1079</ele>
        <time>2023-05-18T05:01:26Z</time>
      </trkpt>
      <trkpt lat="42.89045" lon="0.04744">
        <ele>1080</ele>
        <time>2023-05-18T05:01:30Z</time>
      </trkpt>
      <trkpt lat="42.89107" lon="0.0484">
        <ele>1093</ele>
        <time>2023-05-18T05:01:47Z</time>
      </trkpt>
      <trkpt lat="42.89112" lon="0.04857">
        <ele>1095</ele>
        <time>2023-05-18T05:01:49Z</time>
      </trkpt>
      <trkpt lat="42.89111" lon="0.04866">
        <ele>1095</ele>
        <time>2023-05-18T05:01:50Z</time>
      </trkpt>
      <trkpt lat="42.89104" lon="0.04876">
        <ele>1095</ele>
        <time>2023-05-18T05:01:52Z</time>
      </trkpt>
      <trkpt lat="42.89095" lon="0.0488">
        <ele>1095</ele>
        <time>2023-05-18T05:01:54Z</time>
      </trkpt>
      <trkpt lat="42.89082" lon="0.04871">
        <ele>1094</ele>
        <time>2023-05-18T05:01:56Z</time>
      </trkpt>
      <trkpt lat="42.89068" lon="0.04856">
        <ele>1093</ele>
        <time>2023-05-18T05:01:59Z</time>
      </trkpt>
      <trkpt lat="42.89039" lon="0.04809">
        <ele>1089</ele>
        <time>2023-05-18T05:02:08Z</time>
      </trkpt>
      <trkpt lat="42.8903" lon="0.04804">
        <ele>1089</ele>
        <time>2023-05-18T05:02:09Z</time>
      </trkpt>
      <trkpt lat="42.89025" lon="0.04804">
        <ele>1089</ele>
        <time>2023-05-18T05:02:10Z</time>
      </trkpt>
      <trkpt lat="42.89014" lon="0.04814">
        <ele>1091</ele>
        <time>2023-05-18T05:02:12Z</time>
      </trkpt>
      <trkpt lat="42.89012" lon="0.04826">
        <ele>1093</ele>
        <time>2023-05-18T05:02:14Z</time>
      </trkpt>
      <trkpt lat="42.89015" lon="0.04839">
        <ele>1095</ele>
        <time>2023-05-18T05:02:16Z</time>
      </trkpt>
      <trkpt lat="42.89041" lon="0.04872">
        <ele>1098</ele>
        <time>2023-05-18T05:02:22Z</time>
      </trkpt>
      <trkpt lat="42.89052" lon="0.04896">
        <ele>1100</ele>
        <time>2023-05-18T05:02:26Z</time>
      </trkpt>
      <trkpt lat="42.89057" lon="0.04957">
        <ele>1111</ele>
        <time>2023-05-18T05:02:34Z</time>
      </trkpt>
      <trkpt lat="42.89066" lon="0.04983">
        <ele>1115</ele>
        <time>2023-05-18T05:02:38Z</time>
      </trkpt>
      <trkpt lat="42.8912" lon="0.05058">
        <ele>1123</ele>
        <time>2023-05-18T05:02:51Z</time>
      </trkpt>
      <trkpt lat="42.89132" lon="0.05068">
        <ele>1122</ele>
        <time>2023-05-18T05:02:54Z</time>
      </trkpt>
      <trkpt lat="42.8919" lon="0.05101">
        <ele>1116</ele>
        <time>2023-05-18T05:03:05Z</time>
      </trkpt>
      <trkpt lat="42.89207" lon="0.05119">
        <ele>1118</ele>
        <time>2023-05-18T05:03:09Z</time>
      </trkpt>
      <trkpt lat="42.8924" lon="0.05181">
        <ele>1120</ele>
        <time>2023-05-18T05:03:19Z</time>
      </trkpt>
      <trkpt lat="42.89279" lon="0.05267">
        <ele>1132</ele>
        <time>2023-05-18T05:03:32Z</time>
      </trkpt>
      <trkpt lat="42.89289" lon="0.05301">
        <ele>1138</ele>
        <time>2023-05-18T05:03:37Z</time>
      </trkpt>
      <trkpt lat="42.89298" lon="0.05361">
        <ele>1147</ele>
        <time>2023-05-18T05:03:45Z</time>
      </trkpt>
      <trkpt lat="42.89307" lon="0.05395">
        <ele>1151</ele>
        <time>2023-05-18T05:03:49Z</time>
      </trkpt>
      <trkpt lat="42.89411" lon="0.05635">
        <ele>1165</ele>
        <time>2023-05-18T05:04:26Z</time>
      </trkpt>
      <trkpt lat="42.89434" lon="0.05712">
        <ele>1175</ele>
        <time>2023-05-18T05:04:37Z</time>
      </trkpt>
      <trkpt lat="42.89452" lon="0.05757">
        <ele>1179</ele>
        <time>2023-05-18T05:04:43Z</time>
      </trkpt>
      <trkpt lat="42.89477" lon="0.05799">
        <ele>1182</ele>
        <time>2023-05-18T05:04:50Z</time>
      </trkpt>
      <trkpt lat="42.89506" lon="0.05833">
        <ele>1180</ele>
        <time>2023-05-18T05:04:57Z</time>
      </trkpt>
      <trkpt lat="42.89549" lon="0.05861">
        <ele>1184</ele>
        <time>2023-05-18T05:05:06Z</time>
      </trkpt>
      <trkpt lat="42.89563" lon="0.05876">
        <ele>1185</ele>
        <time>2023-05-18T05:05:09Z</time>
      </trkpt>
      <trkpt lat="42.89564" lon="0.05892">
        <ele>1186</ele>
        <time>2023-05-18T05:05:11Z</time>
      </trkpt>
      <trkpt lat="42.89553" lon="0.05911">
        <ele>1188</ele>
        <time>2023-05-18T05:05:14Z</time>
      </trkpt>
      <trkpt lat="42.89547" lon="0.05913">
        <ele>1188</ele>
        <time>2023-05-18T05:05:15Z</time>
      </trkpt>
      <trkpt lat="42.8954" lon="0.05912">
        <ele>1189</ele>
        <time>2023-05-18T05:05:16Z</time>
      </trkpt>
      <trkpt lat="42.8952" lon="0.05897">
        <ele>1188</ele>
        <time>2023-05-18T05:05:21Z</time>
      </trkpt>
      <trkpt lat="42.89511" lon="0.05896">
        <ele>1188</ele>
        <time>2023-05-18T05:05:22Z</time>
      </trkpt>
      <trkpt lat="42.89502" lon="0.05902">
        <ele>1189</ele>
        <time>2023-05-18T05:05:24Z</time>
      </trkpt>
      <trkpt lat="42.89495" lon="0.05913">
        <ele>1192</ele>
        <time>2023-05-18T05:05:26Z</time>
      </trkpt>
      <trkpt lat="42.89493" lon="0.05929">
        <ele>1197</ele>
        <time>2023-05-18T05:05:28Z</time>
      </trkpt>
      <trkpt lat="42.89498" lon="0.05943">
        <ele>1198</ele>
        <time>2023-05-18T05:05:30Z</time>
      </trkpt>
      <trkpt lat="42.89507" lon="0.05951">
        <ele>1199</ele>
        <time>2023-05-18T05:05:32Z</time>
      </trkpt>
      <trkpt lat="42.89513" lon="0.05953">
        <ele>1199</ele>
        <time>2023-05-18T05:05:33Z</time>
      </trkpt>
      <trkpt lat="42.89544" lon="0.05948">
        <ele>1195</ele>
        <time>2023-05-18T05:05:39Z</time>
      </trkpt>
      <trkpt lat="42.89561" lon="0.05947">
        <ele>1193</ele>
        <time>2023-05-18T05:05:42Z</time>
      </trkpt>
      <trkpt lat="42.89569" lon="0.05949">
        <ele>1193</ele>
        <time>2023-05-18T05:05:43Z</time>
      </trkpt>
      <trkpt lat="42.89582" lon="0.05957">
        <ele>1193</ele>
        <time>2023-05-18T05:05:46Z</time>
      </trkpt>
      <trkpt lat="42.89591" lon="0.0597">
        <ele>1196</ele>
        <time>2023-05-18T05:05:48Z</time>
      </trkpt>
      <trkpt lat="42.896" lon="0.05993">
        <ele>1199</ele>
        <time>2023-05-18T05:05:51Z</time>
      </trkpt>
      <trkpt lat="42.89602" lon="0.06028">
        <ele>1203</ele>
        <time>2023-05-18T05:05:56Z</time>
      </trkpt>
      <trkpt lat="42.89612" lon="0.06095">
        <ele>1210</ele>
        <time>2023-05-18T05:06:05Z</time>
      </trkpt>
      <trkpt lat="42.89613" lon="0.0619">
        <ele>1218</ele>
        <time>2023-05-18T05:06:17Z</time>
      </trkpt>
      <trkpt lat="42.89623" lon="0.06303">
        <ele>1224</ele>
        <time>2023-05-18T05:06:32Z</time>
      </trkpt>
      <trkpt lat="42.89654" lon="0.06301">
        <ele>1219</ele>
        <time>2023-05-18T05:06:37Z</time>
      </trkpt>
      <trkpt lat="42.89664" lon="0.06306">
        <ele>1217</ele>
        <time>2023-05-18T05:06:39Z</time>
      </trkpt>
      <trkpt lat="42.89677" lon="0.06347">
        <ele>1223</ele>
        <time>2023-05-18T05:06:45Z</time>
      </trkpt>
      <trkpt lat="42.89711" lon="0.06405">
        <ele>1238</ele>
        <time>2023-05-18T05:06:55Z</time>
      </trkpt>
      <trkpt lat="42.89711" lon="0.06432">
        <ele>1239</ele>
        <time>2023-05-18T05:06:58Z</time>
      </trkpt>
      <trkpt lat="42.89717" lon="0.06493">
        <ele>1242</ele>
        <time>2023-05-18T05:07:06Z</time>
      </trkpt>
      <trkpt lat="42.89733" lon="0.06541">
        <ele>1243</ele>
        <time>2023-05-18T05:07:13Z</time>
      </trkpt>
      <trkpt lat="42.89731" lon="0.06554">
        <ele>1243</ele>
        <time>2023-05-18T05:07:15Z</time>
      </trkpt>
      <trkpt lat="42.89711" lon="0.06576">
        <ele>1244</ele>
        <time>2023-05-18T05:07:20Z</time>
      </trkpt>
      <trkpt lat="42.89766" lon="0.06732">
        <ele>1254</ele>
        <time>2023-05-18T05:07:42Z</time>
      </trkpt>
      <trkpt lat="42.89838" lon="0.07129">
        <ele>1287</ele>
        <time>2023-05-18T05:08:35Z</time>
      </trkpt>
      <trkpt lat="42.89843" lon="0.07231">
        <ele>1299</ele>
        <time>2023-05-18T05:08:49Z</time>
      </trkpt>
      <trkpt lat="42.89855" lon="0.07291">
        <ele>1302</ele>
        <time>2023-05-18T05:08:57Z</time>
      </trkpt>
      <trkpt lat="42.89866" lon="0.07378">
        <ele>1307</ele>
        <time>2023-05-18T05:09:08Z</time>
      </trkpt>
      <trkpt lat="42.89869" lon="0.07459">
        <ele>1311</ele>
        <time>2023-05-18T05:09:19Z</time>
      </trkpt>
      <trkpt lat="42.89873" lon="0.07491">
        <ele>1312</ele>
        <time>2023-05-18T05:09:23Z</time>
      </trkpt>
      <trkpt lat="42.89881" lon="0.07511">
        <ele>1311</ele>
        <time>2023-05-18T05:09:26Z</time>
      </trkpt>
      <trkpt lat="42.89943" lon="0.07628">
        <ele>1313</ele>
        <time>2023-05-18T05:09:45Z</time>
      </trkpt>
      <trkpt lat="42.8995" lon="0.07654">
        <ele>1315</ele>
        <time>2023-05-18T05:09:49Z</time>
      </trkpt>
      <trkpt lat="42.89961" lon="0.07729">
        <ele>1324</ele>
        <time>2023-05-18T05:09:59Z</time>
      </trkpt>
      <trkpt lat="42.89993" lon="0.07854">
        <ele>1333</ele>
        <time>2023-05-18T05:10:16Z</time>
      </trkpt>
      <trkpt lat="42.90061" lon="0.08052">
        <ele>1355</ele>
        <time>2023-05-18T05:10:44Z</time>
      </trkpt>
      <trkpt lat="42.90102" lon="0.082">
        <ele>1373</ele>
        <time>2023-05-18T05:11:05Z</time>
      </trkpt>
      <trkpt lat="42.90146" lon="0.08291">
        <ele>1372</ele>
        <time>2023-05-18T05:11:19Z</time>
      </trkpt>
      <trkpt lat="42.90158" lon="0.08325">
        <ele>1371</ele>
        <time>2023-05-18T05:11:24Z</time>
      </trkpt>
      <trkpt lat="42.9016" lon="0.0834">
        <ele>1372</ele>
        <time>2023-05-18T05:11:26Z</time>
      </trkpt>
      <trkpt lat="42.90158" lon="0.08396">
        <ele>1382</ele>
        <time>2023-05-18T05:11:33Z</time>
      </trkpt>
      <trkpt lat="42.90171" lon="0.08488">
        <ele>1392</ele>
        <time>2023-05-18T05:11:46Z</time>
      </trkpt>
      <trkpt lat="42.90187" lon="0.08656">
        <ele>1409</ele>
        <time>2023-05-18T05:12:08Z</time>
      </trkpt>
      <trkpt lat="42.90197" lon="0.08711">
        <ele>1411</ele>
        <time>2023-05-18T05:12:15Z</time>
      </trkpt>
      <trkpt lat="42.90223" lon="0.08803">
        <ele>1409</ele>
        <time>2023-05-18T05:12:28Z</time>
      </trkpt>
      <trkpt lat="42.90272" lon="0.08996">
        <ele>1416</ele>
        <time>2023-05-18T05:12:55Z</time>
      </trkpt>
      <trkpt lat="42.90275" lon="0.09021">
        <ele>1416</ele>
        <time>2023-05-18T05:12:58Z</time>
      </trkpt>
      <trkpt lat="42.90268" lon="0.09099">
        <ele>1420</ele>
        <time>2023-05-18T05:13:08Z</time>
      </trkpt>
      <trkpt lat="42.9027" lon="0.09143">
        <ele>1424</ele>
        <time>2023-05-18T05:13:14Z</time>
      </trkpt>
      <trkpt lat="42.903" lon="0.09274">
        <ele>1427</ele>
        <time>2023-05-18T05:13:32Z</time>
      </trkpt>
      <trkpt lat="42.90322" lon="0.09385">
        <ele>1433</ele>
        <time>2023-05-18T05:13:47Z</time>
      </trkpt>
      <trkpt lat="42.90333" lon="0.09477">
        <ele>1433</ele>
        <time>2023-05-18T05:13:59Z</time>
      </trkpt>
      <trkpt lat="42.90338" lon="0.09715">
        <ele>1441</ele>
        <time>2023-05-18T05:14:30Z</time>
      </trkpt>
      <trkpt lat="42.90358" lon="0.09918">
        <ele>1456</ele>
        <time>2023-05-18T05:14:57Z</time>
      </trkpt>
      <trkpt lat="42.90361" lon="0.09978">
        <ele>1458</ele>
        <time>2023-05-18T05:15:04Z</time>
      </trkpt>
      <trkpt lat="42.9036" lon="0.10006">
        <ele>1459</ele>
        <time>2023-05-18T05:15:08Z</time>
      </trkpt>
      <trkpt lat="42.90355" lon="0.10023">
        <ele>1459</ele>
        <time>2023-05-18T05:15:10Z</time>
      </trkpt>
      <trkpt lat="42.90351" lon="0.10032">
        <ele>1459</ele>
        <time>2023-05-18T05:15:12Z</time>
      </trkpt>
      <trkpt lat="42.90329" lon="0.10062">
        <ele>1460</ele>
        <time>2023-05-18T05:15:17Z</time>
      </trkpt>
      <trkpt lat="42.90322" lon="0.10081">
        <ele>1461</ele>
        <time>2023-05-18T05:15:20Z</time>
      </trkpt>
      <trkpt lat="42.90346" lon="0.10255">
        <ele>1459</ele>
        <time>2023-05-18T05:15:43Z</time>
      </trkpt>
      <trkpt lat="42.90351" lon="0.10276">
        <ele>1460</ele>
        <time>2023-05-18T05:15:46Z</time>
      </trkpt>
      <trkpt lat="42.90358" lon="0.10298">
        <ele>1462</ele>
        <time>2023-05-18T05:15:49Z</time>
      </trkpt>
      <trkpt lat="42.90376" lon="0.10337">
        <ele>1465</ele>
        <time>2023-05-18T05:15:55Z</time>
      </trkpt>
      <trkpt lat="42.90395" lon="0.10358">
        <ele>1468</ele>
        <time>2023-05-18T05:16:00Z</time>
      </trkpt>
      <trkpt lat="42.90408" lon="0.10366">
        <ele>1470</ele>
        <time>2023-05-18T05:16:02Z</time>
      </trkpt>
      <trkpt lat="42.90426" lon="0.10365">
        <ele>1471</ele>
        <time>2023-05-18T05:16:05Z</time>
      </trkpt>
      <trkpt lat="42.90442" lon="0.10357">
        <ele>1472</ele>
        <time>2023-05-18T05:16:08Z</time>
      </trkpt>
      <trkpt lat="42.90516" lon="0.10269">
        <ele>1477</ele>
        <time>2023-05-18T05:16:26Z</time>
      </trkpt>
      <trkpt lat="42.90524" lon="0.10253">
        <ele>1478</ele>
        <time>2023-05-18T05:16:28Z</time>
      </trkpt>
      <trkpt lat="42.90529" lon="0.10229">
        <ele>1481</ele>
        <time>2023-05-18T05:16:32Z</time>
      </trkpt>
      <trkpt lat="42.90529" lon="0.10177">
        <ele>1482</ele>
        <time>2023-05-18T05:16:38Z</time>
      </trkpt>
      <trkpt lat="42.90538" lon="0.1016">
        <ele>1485</ele>
        <time>2023-05-18T05:16:41Z</time>
      </trkpt>
      <trkpt lat="42.90548" lon="0.10158">
        <ele>1488</ele>
        <time>2023-05-18T05:16:43Z</time>
      </trkpt>
      <trkpt lat="42.90552" lon="0.10161">
        <ele>1489</ele>
        <time>2023-05-18T05:16:44Z</time>
      </trkpt>
      <trkpt lat="42.90562" lon="0.10183">
        <ele>1492</ele>
        <time>2023-05-18T05:16:47Z</time>
      </trkpt>
      <trkpt lat="42.90568" lon="0.10219">
        <ele>1495</ele>
        <time>2023-05-18T05:16:52Z</time>
      </trkpt>
      <trkpt lat="42.90568" lon="0.10259">
        <ele>1496</ele>
        <time>2023-05-18T05:16:57Z</time>
      </trkpt>
      <trkpt lat="42.90557" lon="0.10372">
        <ele>1502</ele>
        <time>2023-05-18T05:17:12Z</time>
      </trkpt>
      <trkpt lat="42.9055" lon="0.10397">
        <ele>1503</ele>
        <time>2023-05-18T05:17:15Z</time>
      </trkpt>
      <trkpt lat="42.90526" lon="0.10435">
        <ele>1499</ele>
        <time>2023-05-18T05:17:22Z</time>
      </trkpt>
      <trkpt lat="42.90522" lon="0.10448">
        <ele>1499</ele>
        <time>2023-05-18T05:17:24Z</time>
      </trkpt>
      <trkpt lat="42.90523" lon="0.10454">
        <ele>1500</ele>
        <time>2023-05-18T05:17:25Z</time>
      </trkpt>
      <trkpt lat="42.90529" lon="0.10463">
        <ele>1502</ele>
        <time>2023-05-18T05:17:26Z</time>
      </trkpt>
      <trkpt lat="42.90535" lon="0.10464">
        <ele>1504</ele>
        <time>2023-05-18T05:17:27Z</time>
      </trkpt>
      <trkpt lat="42.9055" lon="0.10457">
        <ele>1508</ele>
        <time>2023-05-18T05:17:30Z</time>
      </trkpt>
      <trkpt lat="42.90555" lon="0.10451">
        <ele>1509</ele>
        <time>2023-05-18T05:17:31Z</time>
      </trkpt>
      <trkpt lat="42.90586" lon="0.10393">
        <ele>1515</ele>
        <time>2023-05-18T05:17:41Z</time>
      </trkpt>
      <trkpt lat="42.90599" lon="0.10362">
        <ele>1517</ele>
        <time>2023-05-18T05:17:45Z</time>
      </trkpt>
      <trkpt lat="42.90612" lon="0.10318">
        <ele>1518</ele>
        <time>2023-05-18T05:17:52Z</time>
      </trkpt>
      <trkpt lat="42.90633" lon="0.10268">
        <ele>1522</ele>
        <time>2023-05-18T05:17:59Z</time>
      </trkpt>
      <trkpt lat="42.90638" lon="0.10248">
        <ele>1522</ele>
        <time>2023-05-18T05:18:02Z</time>
      </trkpt>
      <trkpt lat="42.90638" lon="0.10199">
        <ele>1519</ele>
        <time>2023-05-18T05:18:08Z</time>
      </trkpt>
      <trkpt lat="42.9064" lon="0.10194">
        <ele>1519</ele>
        <time>2023-05-18T05:18:09Z</time>
      </trkpt>
      <trkpt lat="42.90643" lon="0.1019">
        <ele>1520</ele>
        <time>2023-05-18T05:18:10Z</time>
      </trkpt>
      <trkpt lat="42.90651" lon="0.10188">
        <ele>1522</ele>
        <time>2023-05-18T05:18:11Z</time>
      </trkpt>
      <trkpt lat="42.90659" lon="0.10195">
        <ele>1526</ele>
        <time>2023-05-18T05:18:13Z</time>
      </trkpt>
      <trkpt lat="42.90661" lon="0.10202">
        <ele>1527</ele>
        <time>2023-05-18T05:18:14Z</time>
      </trkpt>
      <trkpt lat="42.90631" lon="0.10471">
        <ele>1542</ele>
        <time>2023-05-18T05:18:49Z</time>
      </trkpt>
      <trkpt lat="42.90631" lon="0.10549">
        <ele>1547</ele>
        <time>2023-05-18T05:18:59Z</time>
      </trkpt>
      <trkpt lat="42.90619" lon="0.10584">
        <ele>1542</ele>
        <time>2023-05-18T05:19:04Z</time>
      </trkpt>
      <trkpt lat="42.90617" lon="0.106">
        <ele>1543</ele>
        <time>2023-05-18T05:19:07Z</time>
      </trkpt>
      <trkpt lat="42.90638" lon="0.10714">
        <ele>1562</ele>
        <time>2023-05-18T05:19:22Z</time>
      </trkpt>
      <trkpt lat="42.9064" lon="0.1084">
        <ele>1568</ele>
        <time>2023-05-18T05:19:38Z</time>
      </trkpt>
      <trkpt lat="42.90653" lon="0.10931">
        <ele>1573</ele>
        <time>2023-05-18T05:19:50Z</time>
      </trkpt>
      <trkpt lat="42.90664" lon="0.10986">
        <ele>1577</ele>
        <time>2023-05-18T05:19:58Z</time>
      </trkpt>
      <trkpt lat="42.9069" lon="0.11069">
        <ele>1588</ele>
        <time>2023-05-18T05:20:10Z</time>
      </trkpt>
      <trkpt lat="42.90723" lon="0.11202">
        <ele>1596</ele>
        <time>2023-05-18T05:20:28Z</time>
      </trkpt>
      <trkpt lat="42.90726" lon="0.11231">
        <ele>1596</ele>
        <time>2023-05-18T05:20:32Z</time>
      </trkpt>
      <trkpt lat="42.90727" lon="0.11336">
        <ele>1603</ele>
        <time>2023-05-18T05:20:45Z</time>
      </trkpt>
      <trkpt lat="42.90737" lon="0.11434">
        <ele>1608</ele>
        <time>2023-05-18T05:20:58Z</time>
      </trkpt>
      <trkpt lat="42.90739" lon="0.11476">
        <ele>1611</ele>
        <time>2023-05-18T05:21:04Z</time>
      </trkpt>
      <trkpt lat="42.90735" lon="0.11521">
        <ele>1615</ele>
        <time>2023-05-18T05:21:10Z</time>
      </trkpt>
      <trkpt lat="42.90722" lon="0.11586">
        <ele>1623</ele>
        <time>2023-05-18T05:21:18Z</time>
      </trkpt>
      <trkpt lat="42.90717" lon="0.116">
        <ele>1624</ele>
        <time>2023-05-18T05:21:20Z</time>
      </trkpt>
      <trkpt lat="42.90716" lon="0.11616">
        <ele>1626</ele>
        <time>2023-05-18T05:21:23Z</time>
      </trkpt>
      <trkpt lat="42.90718" lon="0.11622">
        <ele>1627</ele>
        <time>2023-05-18T05:21:23Z</time>
      </trkpt>
      <trkpt lat="42.90722" lon="0.11626">
        <ele>1628</ele>
        <time>2023-05-18T05:21:24Z</time>
      </trkpt>
      <trkpt lat="42.90734" lon="0.11625">
        <ele>1629</ele>
        <time>2023-05-18T05:21:26Z</time>
      </trkpt>
      <trkpt lat="42.90763" lon="0.1159">
        <ele>1629</ele>
        <time>2023-05-18T05:21:33Z</time>
      </trkpt>
      <trkpt lat="42.90798" lon="0.11554">
        <ele>1630</ele>
        <time>2023-05-18T05:21:41Z</time>
      </trkpt>
      <trkpt lat="42.90804" lon="0.11552">
        <ele>1630</ele>
        <time>2023-05-18T05:21:42Z</time>
      </trkpt>
      <trkpt lat="42.90809" lon="0.11554">
        <ele>1631</ele>
        <time>2023-05-18T05:21:43Z</time>
      </trkpt>
      <trkpt lat="42.90814" lon="0.11558">
        <ele>1633</ele>
        <time>2023-05-18T05:21:44Z</time>
      </trkpt>
      <trkpt lat="42.90815" lon="0.11566">
        <ele>1633</ele>
        <time>2023-05-18T05:21:45Z</time>
      </trkpt>
      <trkpt lat="42.90815" lon="0.11575">
        <ele>1634</ele>
        <time>2023-05-18T05:21:46Z</time>
      </trkpt>
      <trkpt lat="42.90808" lon="0.11593">
        <ele>1635</ele>
        <time>2023-05-18T05:21:49Z</time>
      </trkpt>
      <trkpt lat="42.9079" lon="0.11625">
        <ele>1637</ele>
        <time>2023-05-18T05:21:54Z</time>
      </trkpt>
      <trkpt lat="42.90756" lon="0.1171">
        <ele>1641</ele>
        <time>2023-05-18T05:22:07Z</time>
      </trkpt>
      <trkpt lat="42.90733" lon="0.11837">
        <ele>1649</ele>
        <time>2023-05-18T05:22:24Z</time>
      </trkpt>
      <trkpt lat="42.90718" lon="0.11976">
        <ele>1656</ele>
        <time>2023-05-18T05:22:42Z</time>
      </trkpt>
      <trkpt lat="42.90709" lon="0.1209">
        <ele>1669</ele>
        <time>2023-05-18T05:22:57Z</time>
      </trkpt>
      <trkpt lat="42.90707" lon="0.12232">
        <ele>1680</ele>
        <time>2023-05-18T05:23:16Z</time>
      </trkpt>
      <trkpt lat="42.90711" lon="0.12305">
        <ele>1686</ele>
        <time>2023-05-18T05:23:25Z</time>
      </trkpt>
      <trkpt lat="42.90706" lon="0.12358">
        <ele>1690</ele>
        <time>2023-05-18T05:23:32Z</time>
      </trkpt>
      <trkpt lat="42.90704" lon="0.12444">
        <ele>1699</ele>
        <time>2023-05-18T05:23:43Z</time>
      </trkpt>
      <trkpt lat="42.90712" lon="0.12581">
        <ele>1705</ele>
        <time>2023-05-18T05:24:01Z</time>
      </trkpt>
      <trkpt lat="42.90712" lon="0.12619">
        <ele>1707</ele>
        <time>2023-05-18T05:24:06Z</time>
      </trkpt>
      <trkpt lat="42.90699" lon="0.12796">
        <ele>1717</ele>
        <time>2023-05-18T05:24:30Z</time>
      </trkpt>
      <trkpt lat="42.90694" lon="0.1297">
        <ele>1732</ele>
        <time>2023-05-18T05:24:52Z</time>
      </trkpt>
      <trkpt lat="42.90687" lon="0.13002">
        <ele>1734</ele>
        <time>2023-05-18T05:24:57Z</time>
      </trkpt>
      <trkpt lat="42.90669" lon="0.13059">
        <ele>1732</ele>
        <time>2023-05-18T05:25:05Z</time>
      </trkpt>
      <trkpt lat="42.90663" lon="0.13094">
        <ele>1735</ele>
        <time>2023-05-18T05:25:09Z</time>
      </trkpt>
      <trkpt lat="42.90654" lon="0.13126">
        <ele>1738</ele>
        <time>2023-05-18T05:25:14Z</time>
      </trkpt>
      <trkpt lat="42.90646" lon="0.13143">
        <ele>1740</ele>
        <time>2023-05-18T05:25:16Z</time>
      </trkpt>
      <trkpt lat="42.90636" lon="0.13153">
        <ele>1740</ele>
        <time>2023-05-18T05:25:19Z</time>
      </trkpt>
      <trkpt lat="42.90608" lon="0.13162">
        <ele>1737</ele>
        <time>2023-05-18T05:25:24Z</time>
      </trkpt>
      <trkpt lat="42.9059" lon="0.13162">
        <ele>1735</ele>
        <time>2023-05-18T05:25:27Z</time>
      </trkpt>
      <trkpt lat="42.9058" lon="0.13156">
        <ele>1734</ele>
        <time>2023-05-18T05:25:29Z</time>
      </trkpt>
      <trkpt lat="42.9057" lon="0.13144">
        <ele>1735</ele>
        <time>2023-05-18T05:25:31Z</time>
      </trkpt>
      <trkpt lat="42.90557" lon="0.13088">
        <ele>1740</ele>
        <time>2023-05-18T05:25:39Z</time>
      </trkpt>
      <trkpt lat="42.90546" lon="0.1306">
        <ele>1743</ele>
        <time>2023-05-18T05:25:43Z</time>
      </trkpt>
      <trkpt lat="42.90525" lon="0.13025">
        <ele>1748</ele>
        <time>2023-05-18T05:25:49Z</time>
      </trkpt>
      <trkpt lat="42.90507" lon="0.13014">
        <ele>1751</ele>
        <time>2023-05-18T05:25:52Z</time>
      </trkpt>
      <trkpt lat="42.90478" lon="0.13003">
        <ele>1757</ele>
        <time>2023-05-18T05:25:58Z</time>
      </trkpt>
      <trkpt lat="42.90471" lon="0.12996">
        <ele>1759</ele>
        <time>2023-05-18T05:25:59Z</time>
      </trkpt>
      <trkpt lat="42.90459" lon="0.12977">
        <ele>1762</ele>
        <time>2023-05-18T05:26:03Z</time>
      </trkpt>
      <trkpt lat="42.90447" lon="0.12945">
        <ele>1765</ele>
        <time>2023-05-18T05:26:07Z</time>
      </trkpt>
      <trkpt lat="42.90436" lon="0.12903">
        <ele>1768</ele>
        <time>2023-05-18T05:26:13Z</time>
      </trkpt>
      <trkpt lat="42.90426" lon="0.12842">
        <ele>1767</ele>
        <time>2023-05-18T05:26:21Z</time>
      </trkpt>
      <trkpt lat="42.90422" lon="0.12758">
        <ele>1765</ele>
        <time>2023-05-18T05:26:32Z</time>
      </trkpt>
      <trkpt lat="42.90405" lon="0.12706">
        <ele>1772</ele>
        <time>2023-05-18T05:26:40Z</time>
      </trkpt>
      <trkpt lat="42.90413" lon="0.1266">
        <ele>1770</ele>
        <time>2023-05-18T05:26:46Z</time>
      </trkpt>
      <trkpt lat="42.90404" lon="0.12645">
        <ele>1772</ele>
        <time>2023-05-18T05:26:48Z</time>
      </trkpt>
      <trkpt lat="42.90393" lon="0.12643">
        <ele>1777</ele>
        <time>2023-05-18T05:26:50Z</time>
      </trkpt>
      <trkpt lat="42.90386" lon="0.12646">
        <ele>1780</ele>
        <time>2023-05-18T05:26:52Z</time>
      </trkpt>
      <trkpt lat="42.90378" lon="0.12665">
        <ele>1785</ele>
        <time>2023-05-18T05:26:55Z</time>
      </trkpt>
      <trkpt lat="42.90371" lon="0.12693">
        <ele>1787</ele>
        <time>2023-05-18T05:26:58Z</time>
      </trkpt>
      <trkpt lat="42.90376" lon="0.12728">
        <ele>1783</ele>
        <time>2023-05-18T05:27:03Z</time>
      </trkpt>
      <trkpt lat="42.90375" lon="0.12742">
        <ele>1783</ele>
        <time>2023-05-18T05:27:05Z</time>
      </trkpt>
      <trkpt lat="42.90358" lon="0.12785">
        <ele>1791</ele>
        <time>2023-05-18T05:27:11Z</time>
      </trkpt>
      <trkpt lat="42.90359" lon="0.12811">
        <ele>1792</ele>
        <time>2023-05-18T05:27:15Z</time>
      </trkpt>
      <trkpt lat="42.90376" lon="0.1287">
        <ele>1788</ele>
        <time>2023-05-18T05:27:23Z</time>
      </trkpt>
      <trkpt lat="42.90378" lon="0.12911">
        <ele>1789</ele>
        <time>2023-05-18T05:27:28Z</time>
      </trkpt>
      <trkpt lat="42.90376" lon="0.1293">
        <ele>1790</ele>
        <time>2023-05-18T05:27:31Z</time>
      </trkpt>
      <trkpt lat="42.90369" lon="0.12957">
        <ele>1792</ele>
        <time>2023-05-18T05:27:34Z</time>
      </trkpt>
      <trkpt lat="42.90349" lon="0.13017">
        <ele>1798</ele>
        <time>2023-05-18T05:27:43Z</time>
      </trkpt>
      <trkpt lat="42.90336" lon="0.13067">
        <ele>1802</ele>
        <time>2023-05-18T05:27:50Z</time>
      </trkpt>
      <trkpt lat="42.90335" lon="0.13082">
        <ele>1802</ele>
        <time>2023-05-18T05:27:52Z</time>
      </trkpt>
      <trkpt lat="42.90341" lon="0.13117">
        <ele>1798</ele>
        <time>2023-05-18T05:27:57Z</time>
      </trkpt>
      <trkpt lat="42.9034" lon="0.13126">
        <ele>1798</ele>
        <time>2023-05-18T05:27:58Z</time>
      </trkpt>
      <trkpt lat="42.90329" lon="0.13149">
        <ele>1803</ele>
        <time>2023-05-18T05:28:01Z</time>
      </trkpt>
      <trkpt lat="42.90299" lon="0.13183">
        <ele>1813</ele>
        <time>2023-05-18T05:28:08Z</time>
      </trkpt>
      <trkpt lat="42.90276" lon="0.13218">
        <ele>1819</ele>
        <time>2023-05-18T05:28:14Z</time>
      </trkpt>
      <trkpt lat="42.90265" lon="0.13225">
        <ele>1822</ele>
        <time>2023-05-18T05:28:17Z</time>
      </trkpt>
      <trkpt lat="42.90241" lon="0.13232">
        <ele>1825</ele>
        <time>2023-05-18T05:28:21Z</time>
      </trkpt>
      <trkpt lat="42.90213" lon="0.13236">
        <ele>1827</ele>
        <time>2023-05-18T05:28:26Z</time>
      </trkpt>
      <trkpt lat="42.90199" lon="0.13242">
        <ele>1827</ele>
        <time>2023-05-18T05:28:29Z</time>
      </trkpt>
      <trkpt lat="42.90196" lon="0.13246">
        <ele>1827</ele>
        <time>2023-05-18T05:28:29Z</time>
      </trkpt>
      <trkpt lat="42.90193" lon="0.13266">
        <ele>1829</ele>
        <time>2023-05-18T05:28:32Z</time>
      </trkpt>
      <trkpt lat="42.90197" lon="0.13281">
        <ele>1831</ele>
        <time>2023-05-18T05:28:34Z</time>
      </trkpt>
      <trkpt lat="42.90217" lon="0.1333">
        <ele>1834</ele>
        <time>2023-05-18T05:28:41Z</time>
      </trkpt>
      <trkpt lat="42.90223" lon="0.13375">
        <ele>1840</ele>
        <time>2023-05-18T05:28:47Z</time>
      </trkpt>
      <trkpt lat="42.90227" lon="0.13389">
        <ele>1841</ele>
        <time>2023-05-18T05:28:49Z</time>
      </trkpt>
      <trkpt lat="42.90238" lon="0.13403">
        <ele>1840</ele>
        <time>2023-05-18T05:28:52Z</time>
      </trkpt>
      <trkpt lat="42.90252" lon="0.13409">
        <ele>1838</ele>
        <time>2023-05-18T05:28:55Z</time>
      </trkpt>
      <trkpt lat="42.90264" lon="0.13421">
        <ele>1838</ele>
        <time>2023-05-18T05:28:57Z</time>
      </trkpt>
      <trkpt lat="42.9027" lon="0.13431">
        <ele>1840</ele>
        <time>2023-05-18T05:28:59Z</time>
      </trkpt>
      <trkpt lat="42.90276" lon="0.13451">
        <ele>1843</ele>
        <time>2023-05-18T05:29:02Z</time>
      </trkpt>
      <trkpt lat="42.90279" lon="0.13468">
        <ele>1847</ele>
        <time>2023-05-18T05:29:04Z</time>
      </trkpt>
      <trkpt lat="42.90272" lon="0.13515">
        <ele>1857</ele>
        <time>2023-05-18T05:29:10Z</time>
      </trkpt>
      <trkpt lat="42.90275" lon="0.13536">
        <ele>1858</ele>
        <time>2023-05-18T05:29:13Z</time>
      </trkpt>
      <trkpt lat="42.90285" lon="0.1357">
        <ele>1859</ele>
        <time>2023-05-18T05:29:18Z</time>
      </trkpt>
      <trkpt lat="42.90289" lon="0.13603">
        <ele>1862</ele>
        <time>2023-05-18T05:29:22Z</time>
      </trkpt>
      <trkpt lat="42.90297" lon="0.1361">
        <ele>1861</ele>
        <time>2023-05-18T05:29:24Z</time>
      </trkpt>
      <trkpt lat="42.90319" lon="0.13614">
        <ele>1857</ele>
        <time>2023-05-18T05:29:28Z</time>
      </trkpt>
      <trkpt lat="42.90342" lon="0.1363">
        <ele>1855</ele>
        <time>2023-05-18T05:29:32Z</time>
      </trkpt>
      <trkpt lat="42.90358" lon="0.13651">
        <ele>1854</ele>
        <time>2023-05-18T05:29:36Z</time>
      </trkpt>
      <trkpt lat="42.90364" lon="0.13676">
        <ele>1856</ele>
        <time>2023-05-18T05:29:40Z</time>
      </trkpt>
      <trkpt lat="42.90368" lon="0.13684">
        <ele>1857</ele>
        <time>2023-05-18T05:29:41Z</time>
      </trkpt>
      <trkpt lat="42.9038" lon="0.13695">
        <ele>1857</ele>
        <time>2023-05-18T05:29:44Z</time>
      </trkpt>
      <trkpt lat="42.90422" lon="0.13713">
        <ele>1857</ele>
        <time>2023-05-18T05:29:51Z</time>
      </trkpt>
      <trkpt lat="42.9044" lon="0.13714">
        <ele>1858</ele>
        <time>2023-05-18T05:29:55Z</time>
      </trkpt>
      <trkpt lat="42.90473" lon="0.1371">
        <ele>1858</ele>
        <time>2023-05-18T05:30:01Z</time>
      </trkpt>
      <trkpt lat="42.90486" lon="0.13713">
        <ele>1859</ele>
        <time>2023-05-18T05:30:03Z</time>
      </trkpt>
      <trkpt lat="42.90505" lon="0.13729">
        <ele>1863</ele>
        <time>2023-05-18T05:30:07Z</time>
      </trkpt>
      <trkpt lat="42.90516" lon="0.13744">
        <ele>1866</ele>
        <time>2023-05-18T05:30:10Z</time>
      </trkpt>
      <trkpt lat="42.90538" lon="0.13788">
        <ele>1876</ele>
        <time>2023-05-18T05:30:17Z</time>
      </trkpt>
      <trkpt lat="42.90551" lon="0.13805">
        <ele>1880</ele>
        <time>2023-05-18T05:30:20Z</time>
      </trkpt>
      <trkpt lat="42.90568" lon="0.13821">
        <ele>1884</ele>
        <time>2023-05-18T05:30:23Z</time>
      </trkpt>
      <trkpt lat="42.90604" lon="0.13841">
        <ele>1890</ele>
        <time>2023-05-18T05:30:30Z</time>
      </trkpt>
      <trkpt lat="42.9063" lon="0.13866">
        <ele>1896</ele>
        <time>2023-05-18T05:30:36Z</time>
      </trkpt>
      <trkpt lat="42.90642" lon="0.13871">
        <ele>1898</ele>
        <time>2023-05-18T05:30:38Z</time>
      </trkpt>
      <trkpt lat="42.9066" lon="0.13871">
        <ele>1898</ele>
        <time>2023-05-18T05:30:42Z</time>
      </trkpt>
      <trkpt lat="42.90695" lon="0.13858">
        <ele>1899</ele>
        <time>2023-05-18T05:30:48Z</time>
      </trkpt>
      <trkpt lat="42.90703" lon="0.13857">
        <ele>1901</ele>
        <time>2023-05-18T05:30:49Z</time>
      </trkpt>
      <trkpt lat="42.90736" lon="0.1386">
        <ele>1908</ele>
        <time>2023-05-18T05:30:55Z</time>
      </trkpt>
      <trkpt lat="42.90759" lon="0.13842">
        <ele>1907</ele>
        <time>2023-05-18T05:31:00Z</time>
      </trkpt>
      <trkpt lat="42.90776" lon="0.13819">
        <ele>1904</ele>
        <time>2023-05-18T05:31:04Z</time>
      </trkpt>
      <trkpt lat="42.90788" lon="0.13808">
        <ele>1904</ele>
        <time>2023-05-18T05:31:07Z</time>
      </trkpt>
      <trkpt lat="42.90829" lon="0.13783">
        <ele>1905</ele>
        <time>2023-05-18T05:31:15Z</time>
      </trkpt>
      <trkpt lat="42.90841" lon="0.1378">
        <ele>1906</ele>
        <time>2023-05-18T05:31:17Z</time>
      </trkpt>
      <trkpt lat="42.90888" lon="0.13781">
        <ele>1913</ele>
        <time>2023-05-18T05:31:25Z</time>
      </trkpt>
      <trkpt lat="42.90945" lon="0.13799">
        <ele>1926</ele>
        <time>2023-05-18T05:31:36Z</time>
      </trkpt>
      <trkpt lat="42.91016" lon="0.13806">
        <ele>1927</ele>
        <time>2023-05-18T05:31:48Z</time>
      </trkpt>
      <trkpt lat="42.91051" lon="0.13804">
        <ele>1925</ele>
        <time>2023-05-18T05:31:55Z</time>
      </trkpt>
      <trkpt lat="42.91058" lon="0.13806">
        <ele>1925</ele>
        <time>2023-05-18T05:31:56Z</time>
      </trkpt>
      <trkpt lat="42.9107" lon="0.13818">
        <ele>1930</ele>
        <time>2023-05-18T05:31:59Z</time>
      </trkpt>
      <trkpt lat="42.91092" lon="0.13856">
        <ele>1947</ele>
        <time>2023-05-18T05:32:05Z</time>
      </trkpt>
      <trkpt lat="42.91101" lon="0.13857">
        <ele>1948</ele>
        <time>2023-05-18T05:32:06Z</time>
      </trkpt>
      <trkpt lat="42.91144" lon="0.13803">
        <ele>1924</ele>
        <time>2023-05-18T05:32:17Z</time>
      </trkpt>
      <trkpt lat="42.91157" lon="0.1379">
        <ele>1918</ele>
        <time>2023-05-18T05:32:20Z</time>
      </trkpt>
      <trkpt lat="42.91183" lon="0.13784">
        <ele>1921</ele>
        <time>2023-05-18T05:32:24Z</time>
      </trkpt>
      <trkpt lat="42.91201" lon="0.13787">
        <ele>1928</ele>
        <time>2023-05-18T05:32:28Z</time>
      </trkpt>
      <trkpt lat="42.91221" lon="0.13786">
        <ele>1934</ele>
        <time>2023-05-18T05:32:31Z</time>
      </trkpt>
      <trkpt lat="42.91251" lon="0.13768">
        <ele>1937</ele>
        <time>2023-05-18T05:32:37Z</time>
      </trkpt>
      <trkpt lat="42.91271" lon="0.13744">
        <ele>1934</ele>
        <time>2023-05-18T05:32:42Z</time>
      </trkpt>
      <trkpt lat="42.91289" lon="0.13702">
        <ele>1925</ele>
        <time>2023-05-18T05:32:48Z</time>
      </trkpt>
      <trkpt lat="42.913" lon="0.13687">
        <ele>1923</ele>
        <time>2023-05-18T05:32:51Z</time>
      </trkpt>
      <trkpt lat="42.91315" lon="0.13678">
        <ele>1926</ele>
        <time>2023-05-18T05:32:54Z</time>
      </trkpt>
      <trkpt lat="42.91327" lon="0.13678">
        <ele>1930</ele>
        <time>2023-05-18T05:32:56Z</time>
      </trkpt>
      <trkpt lat="42.91335" lon="0.13685">
        <ele>1936</ele>
        <time>2023-05-18T05:32:58Z</time>
      </trkpt>
      <trkpt lat="42.91339" lon="0.13695">
        <ele>1940</ele>
        <time>2023-05-18T05:32:59Z</time>
      </trkpt>
      <trkpt lat="42.9134" lon="0.13703">
        <ele>1943</ele>
        <time>2023-05-18T05:33:00Z</time>
      </trkpt>
      <trkpt lat="42.91337" lon="0.13714">
        <ele>1946</ele>
        <time>2023-05-18T05:33:02Z</time>
      </trkpt>
      <trkpt lat="42.91328" lon="0.13723">
        <ele>1946</ele>
        <time>2023-05-18T05:33:04Z</time>
      </trkpt>
      <trkpt lat="42.91297" lon="0.13742">
        <ele>1942</ele>
        <time>2023-05-18T05:33:10Z</time>
      </trkpt>
      <trkpt lat="42.91256" lon="0.1381">
        <ele>1956</ele>
        <time>2023-05-18T05:33:21Z</time>
      </trkpt>
      <trkpt lat="42.91229" lon="0.1383">
        <ele>1956</ele>
        <time>2023-05-18T05:33:27Z</time>
      </trkpt>
      <trkpt lat="42.91191" lon="0.13841">
        <ele>1951</ele>
        <time>2023-05-18T05:33:34Z</time>
      </trkpt>
      <trkpt lat="42.91175" lon="0.1385">
        <ele>1952</ele>
        <time>2023-05-18T05:33:37Z</time>
      </trkpt>
      <trkpt lat="42.91165" lon="0.13864">
        <ele>1958</ele>
        <time>2023-05-18T05:33:39Z</time>
      </trkpt>
      <trkpt lat="42.91142" lon="0.1391">
        <ele>1981</ele>
        <time>2023-05-18T05:33:46Z</time>
      </trkpt>
      <trkpt lat="42.91132" lon="0.13936">
        <ele>1994</ele>
        <time>2023-05-18T05:33:50Z</time>
      </trkpt>
      <trkpt lat="42.91124" lon="0.13948">
        <ele>1999</ele>
        <time>2023-05-18T05:33:52Z</time>
      </trkpt>
      <trkpt lat="42.91113" lon="0.13951">
        <ele>1999</ele>
        <time>2023-05-18T05:33:54Z</time>
      </trkpt>
      <trkpt lat="42.91095" lon="0.1395">
        <ele>1994</ele>
        <time>2023-05-18T05:33:58Z</time>
      </trkpt>
      <trkpt lat="42.91063" lon="0.13941">
        <ele>1990</ele>
        <time>2023-05-18T05:34:03Z</time>
      </trkpt>
      <trkpt lat="42.91021" lon="0.13933">
        <ele>1991</ele>
        <time>2023-05-18T05:34:11Z</time>
      </trkpt>
      <trkpt lat="42.9098" lon="0.13937">
        <ele>1998</ele>
        <time>2023-05-18T05:34:18Z</time>
      </trkpt>
      <trkpt lat="42.90942" lon="0.13933">
        <ele>1998</ele>
        <time>2023-05-18T05:34:25Z</time>
      </trkpt>
      <trkpt lat="42.90921" lon="0.13937">
        <ele>2001</ele>
        <time>2023-05-18T05:34:29Z</time>
      </trkpt>
      <trkpt lat="42.90903" lon="0.13945">
        <ele>2001</ele>
        <time>2023-05-18T05:34:32Z</time>
      </trkpt>
      <trkpt lat="42.90879" lon="0.13964">
        <ele>2001</ele>
        <time>2023-05-18T05:34:37Z</time>
      </trkpt>
      <trkpt lat="42.90848" lon="0.14004">
        <ele>2005</ele>
        <time>2023-05-18T05:34:45Z</time>
      </trkpt>
      <trkpt lat="42.90818" lon="0.14028">
        <ele>2004</ele>
        <time>2023-05-18T05:34:51Z</time>
      </trkpt>
      <trkpt lat="42.90807" lon="0.1404">
        <ele>2006</ele>
        <time>2023-05-18T05:34:53Z</time>
      </trkpt>
      <trkpt lat="42.90795" lon="0.1406">
        <ele>2011</ele>
        <time>2023-05-18T05:34:57Z</time>
      </trkpt>
      <trkpt lat="42.90773" lon="0.14086">
        <ele>2013</ele>
        <time>2023-05-18T05:35:02Z</time>
      </trkpt>
      <trkpt lat="42.90746" lon="0.14128">
        <ele>2015</ele>
        <time>2023-05-18T05:35:09Z</time>
      </trkpt>
      <trkpt lat="42.90732" lon="0.14169">
        <ele>2021</ele>
        <time>2023-05-18T05:35:15Z</time>
      </trkpt>
      <trkpt lat="42.90722" lon="0.14213">
        <ele>2022</ele>
        <time>2023-05-18T05:35:21Z</time>
      </trkpt>
      <trkpt lat="42.90719" lon="0.14236">
        <ele>2023</ele>
        <time>2023-05-18T05:35:24Z</time>
      </trkpt>
      <trkpt lat="42.9072" lon="0.14255">
        <ele>2026</ele>
        <time>2023-05-18T05:35:27Z</time>
      </trkpt>
      <trkpt lat="42.90739" lon="0.14303">
        <ele>2041</ele>
        <time>2023-05-18T05:35:34Z</time>
      </trkpt>
      <trkpt lat="42.90747" lon="0.14334">
        <ele>2047</ele>
        <time>2023-05-18T05:35:38Z</time>
      </trkpt>
      <trkpt lat="42.90749" lon="0.14351">
        <ele>2051</ele>
        <time>2023-05-18T05:35:40Z</time>
      </trkpt>
      <trkpt lat="42.90748" lon="0.14369">
        <ele>2055</ele>
        <time>2023-05-18T05:35:43Z</time>
      </trkpt>
      <trkpt lat="42.90743" lon="0.14384">
        <ele>2057</ele>
        <time>2023-05-18T05:35:45Z</time>
      </trkpt>
      <trkpt lat="42.90739" lon="0.1439">
        <ele>2057</ele>
        <time>2023-05-18T05:35:46Z</time>
      </trkpt>
      <trkpt lat="42.90716" lon="0.14407">
        <ele>2054</ele>
        <time>2023-05-18T05:35:51Z</time>
      </trkpt>
      <trkpt lat="42.90698" lon="0.14424">
        <ele>2054</ele>
        <time>2023-05-18T05:35:54Z</time>
      </trkpt>
      <trkpt lat="42.90643" lon="0.14454">
        <ele>2051</ele>
        <time>2023-05-18T05:36:05Z</time>
      </trkpt>
      <trkpt lat="42.90633" lon="0.14463">
        <ele>2051</ele>
        <time>2023-05-18T05:36:07Z</time>
      </trkpt>
      <trkpt lat="42.90623" lon="0.14479">
        <ele>2054</ele>
        <time>2023-05-18T05:36:10Z</time>
      </trkpt>
      <trkpt lat="42.90604" lon="0.14528">
        <ele>2063</ele>
        <time>2023-05-18T05:36:17Z</time>
      </trkpt>
      <trkpt lat="42.90594" lon="0.14571">
        <ele>2072</ele>
        <time>2023-05-18T05:36:23Z</time>
      </trkpt>
      <trkpt lat="42.90573" lon="0.14612">
        <ele>2078</ele>
        <time>2023-05-18T05:36:29Z</time>
      </trkpt>
      <trkpt lat="42.90552" lon="0.14638">
        <ele>2081</ele>
        <time>2023-05-18T05:36:35Z</time>
      </trkpt>
      <trkpt lat="42.90525" lon="0.14649">
        <ele>2079</ele>
        <time>2023-05-18T05:36:40Z</time>
      </trkpt>
      <trkpt lat="42.9052" lon="0.14653">
        <ele>2079</ele>
        <time>2023-05-18T05:36:41Z</time>
      </trkpt>
      <trkpt lat="42.90517" lon="0.14662">
        <ele>2082</ele>
        <time>2023-05-18T05:36:42Z</time>
      </trkpt>
      <trkpt lat="42.90521" lon="0.14669">
        <ele>2085</ele>
        <time>2023-05-18T05:36:43Z</time>
      </trkpt>
      <trkpt lat="42.90535" lon="0.14669">
        <ele>2088</ele>
        <time>2023-05-18T05:36:46Z</time>
      </trkpt>
      <trkpt lat="42.90568" lon="0.14652">
        <ele>2090</ele>
        <time>2023-05-18T05:36:52Z</time>
      </trkpt>
      <trkpt lat="42.90615" lon="0.14598">
        <ele>2088</ele>
        <time>2023-05-18T05:37:03Z</time>
      </trkpt>
      <trkpt lat="42.90667" lon="0.14555">
        <ele>2098</ele>
        <time>2023-05-18T05:37:14Z</time>
      </trkpt>
      <trkpt lat="42.90682" lon="0.14531">
        <ele>2093</ele>
        <time>2023-05-18T05:37:18Z</time>
      </trkpt>
      <trkpt lat="42.90692" lon="0.14523">
        <ele>2093</ele>
        <time>2023-05-18T05:37:20Z</time>
      </trkpt>
      <trkpt lat="42.90709" lon="0.14517">
        <ele>2096</ele>
        <time>2023-05-18T05:37:23Z</time>
      </trkpt>
      <trkpt lat="42.90739" lon="0.14513">
        <ele>2102</ele>
        <time>2023-05-18T05:37:28Z</time>
      </trkpt>
      <trkpt lat="42.90753" lon="0.14514">
        <ele>2106</ele>
        <time>2023-05-18T05:37:31Z</time>
      </trkpt>
      <trkpt lat="42.90783" lon="0.14522">
        <ele>2111</ele>
        <time>2023-05-18T05:37:36Z</time>
      </trkpt>
      <trkpt lat="42.90808" lon="0.14513">
        <ele>2113</ele>
        <time>2023-05-18T05:37:41Z</time>
      </trkpt>
      <trkpt lat="42.90819" lon="0.14512">
        <ele>2115</ele>
        <time>2023-05-18T05:37:43Z</time>
      </trkpt>
      <trkpt lat="42.90827" lon="0.14516">
        <ele>2116</ele>
        <time>2023-05-18T05:37:44Z</time>
      </trkpt>
      <trkpt lat="42.90841" lon="0.14534">
        <ele>2119</ele>
        <time>2023-05-18T05:37:48Z</time>
      </trkpt>
      <trkpt lat="42.90857" lon="0.1457">
        <ele>2120</ele>
        <time>2023-05-18T05:37:53Z</time>
      </trkpt>
      <trkpt lat="42.9086" lon="0.14583">
        <ele>2120</ele>
        <time>2023-05-18T05:37:55Z</time>
      </trkpt>
      <trkpt lat="42.9086" lon="0.14596">
        <ele>2117</ele>
        <time>2023-05-18T05:37:57Z</time>
      </trkpt>
      <trkpt lat="42.90855" lon="0.14612">
        <ele>2113</ele>
        <time>2023-05-18T05:37:59Z</time>
      </trkpt>
      <trkpt lat="42.90756" lon="0.1474">
        <ele>2092</ele>
        <time>2023-05-18T05:38:23Z</time>
      </trkpt>
      <trkpt lat="42.90741" lon="0.14754">
        <ele>2089</ele>
        <time>2023-05-18T05:38:26Z</time>
      </trkpt>
      <trkpt lat="42.90719" lon="0.14766">
        <ele>2087</ele>
        <time>2023-05-18T05:38:31Z</time>
      </trkpt>
      <trkpt lat="42.90663" lon="0.1478">
        <ele>2084</ele>
        <time>2023-05-18T05:38:41Z</time>
      </trkpt>
      <trkpt lat="42.90623" lon="0.14794">
        <ele>2084</ele>
        <time>2023-05-18T05:38:48Z</time>
      </trkpt>
      <trkpt lat="42.90606" lon="0.14803">
        <ele>2084</ele>
        <time>2023-05-18T05:38:51Z</time>
      </trkpt>
      <trkpt lat="42.906" lon="0.14817">
        <ele>2081</ele>
        <time>2023-05-18T05:38:53Z</time>
      </trkpt>
      <trkpt lat="42.90603" lon="0.14826">
        <ele>2078</ele>
        <time>2023-05-18T05:38:55Z</time>
      </trkpt>
      <trkpt lat="42.90608" lon="0.14831">
        <ele>2077</ele>
        <time>2023-05-18T05:38:56Z</time>
      </trkpt>
      <trkpt lat="42.90618" lon="0.14831">
        <ele>2075</ele>
        <time>2023-05-18T05:38:58Z</time>
      </trkpt>
      <trkpt lat="42.90642" lon="0.1482">
        <ele>2075</ele>
        <time>2023-05-18T05:39:02Z</time>
      </trkpt>
      <trkpt lat="42.90649" lon="0.14819">
        <ele>2075</ele>
        <time>2023-05-18T05:39:03Z</time>
      </trkpt>
      <trkpt lat="42.90664" lon="0.14822">
        <ele>2072</ele>
        <time>2023-05-18T05:39:06Z</time>
      </trkpt>
      <trkpt lat="42.90685" lon="0.14833">
        <ele>2069</ele>
        <time>2023-05-18T05:39:10Z</time>
      </trkpt>
      <trkpt lat="42.90733" lon="0.14871">
        <ele>2059</ele>
        <time>2023-05-18T05:39:20Z</time>
      </trkpt>
      <trkpt lat="42.90746" lon="0.14875">
        <ele>2058</ele>
        <time>2023-05-18T05:39:22Z</time>
      </trkpt>
      <trkpt lat="42.9077" lon="0.14873">
        <ele>2059</ele>
        <time>2023-05-18T05:39:27Z</time>
      </trkpt>
      <trkpt lat="42.9078" lon="0.14876">
        <ele>2058</ele>
        <time>2023-05-18T05:39:28Z</time>
      </trkpt>
      <trkpt lat="42.90806" lon="0.1489">
        <ele>2055</ele>
        <time>2023-05-18T05:39:33Z</time>
      </trkpt>
      <trkpt lat="42.90854" lon="0.1489">
        <ele>2057</ele>
        <time>2023-05-18T05:39:42Z</time>
      </trkpt>
      <trkpt lat="42.90864" lon="0.14896">
        <ele>2057</ele>
        <time>2023-05-18T05:39:44Z</time>
      </trkpt>
      <trkpt lat="42.90867" lon="0.14901">
        <ele>2056</ele>
        <time>2023-05-18T05:39:45Z</time>
      </trkpt>
      <trkpt lat="42.90869" lon="0.14912">
        <ele>2054</ele>
        <time>2023-05-18T05:39:46Z</time>
      </trkpt>
      <trkpt lat="42.9086" lon="0.14951">
        <ele>2045</ele>
        <time>2023-05-18T05:39:51Z</time>
      </trkpt>
      <trkpt lat="42.90859" lon="0.14986">
        <ele>2038</ele>
        <time>2023-05-18T05:39:56Z</time>
      </trkpt>
      <trkpt lat="42.90863" lon="0.15002">
        <ele>2036</ele>
        <time>2023-05-18T05:39:58Z</time>
      </trkpt>
      <trkpt lat="42.90894" lon="0.15084">
        <ele>2034</ele>
        <time>2023-05-18T05:40:10Z</time>
      </trkpt>
      <trkpt lat="42.909" lon="0.15109">
        <ele>2034</ele>
        <time>2023-05-18T05:40:14Z</time>
      </trkpt>
      <trkpt lat="42.90901" lon="0.15129">
        <ele>2032</ele>
        <time>2023-05-18T05:40:16Z</time>
      </trkpt>
      <trkpt lat="42.90888" lon="0.15178">
        <ele>2025</ele>
        <time>2023-05-18T05:40:23Z</time>
      </trkpt>
      <trkpt lat="42.90879" lon="0.15229">
        <ele>2020</ele>
        <time>2023-05-18T05:40:30Z</time>
      </trkpt>
      <trkpt lat="42.90845" lon="0.15323">
        <ele>2011</ele>
        <time>2023-05-18T05:40:44Z</time>
      </trkpt>
      <trkpt lat="42.90841" lon="0.15347">
        <ele>2009</ele>
        <time>2023-05-18T05:40:47Z</time>
      </trkpt>
      <trkpt lat="42.90844" lon="0.15374">
        <ele>2006</ele>
        <time>2023-05-18T05:40:50Z</time>
      </trkpt>
      <trkpt lat="42.90867" lon="0.15437">
        <ele>2002</ele>
        <time>2023-05-18T05:41:00Z</time>
      </trkpt>
      <trkpt lat="42.90876" lon="0.15453">
        <ele>2000</ele>
        <time>2023-05-18T05:41:02Z</time>
      </trkpt>
      <trkpt lat="42.90888" lon="0.1546">
        <ele>2001</ele>
        <time>2023-05-18T05:41:04Z</time>
      </trkpt>
      <trkpt lat="42.90912" lon="0.15464">
        <ele>2004</ele>
        <time>2023-05-18T05:41:09Z</time>
      </trkpt>
      <trkpt lat="42.90918" lon="0.15467">
        <ele>2005</ele>
        <time>2023-05-18T05:41:10Z</time>
      </trkpt>
      <trkpt lat="42.90962" lon="0.15533">
        <ele>1998</ele>
        <time>2023-05-18T05:41:22Z</time>
      </trkpt>
      <trkpt lat="42.90991" lon="0.15556">
        <ele>1997</ele>
        <time>2023-05-18T05:41:28Z</time>
      </trkpt>
      <trkpt lat="42.91003" lon="0.15569">
        <ele>1995</ele>
        <time>2023-05-18T05:41:30Z</time>
      </trkpt>
      <trkpt lat="42.91013" lon="0.15587">
        <ele>1994</ele>
        <time>2023-05-18T05:41:33Z</time>
      </trkpt>
      <trkpt lat="42.91016" lon="0.15601">
        <ele>1994</ele>
        <time>2023-05-18T05:41:35Z</time>
      </trkpt>
      <trkpt lat="42.91013" lon="0.15617">
        <ele>1991</ele>
        <time>2023-05-18T05:41:37Z</time>
      </trkpt>
      <trkpt lat="42.91004" lon="0.15626">
        <ele>1987</ele>
        <time>2023-05-18T05:41:39Z</time>
      </trkpt>
      <trkpt lat="42.90999" lon="0.15627">
        <ele>1985</ele>
        <time>2023-05-18T05:41:40Z</time>
      </trkpt>
      <trkpt lat="42.90989" lon="0.15623">
        <ele>1984</ele>
        <time>2023-05-18T05:41:42Z</time>
      </trkpt>
      <trkpt lat="42.90968" lon="0.15601">
        <ele>1984</ele>
        <time>2023-05-18T05:41:47Z</time>
      </trkpt>
      <trkpt lat="42.90957" lon="0.15599">
        <ele>1983</ele>
        <time>2023-05-18T05:41:49Z</time>
      </trkpt>
      <trkpt lat="42.90925" lon="0.15617">
        <ele>1976</ele>
        <time>2023-05-18T05:41:55Z</time>
      </trkpt>
      <trkpt lat="42.90898" lon="0.15639">
        <ele>1971</ele>
        <time>2023-05-18T05:42:00Z</time>
      </trkpt>
      <trkpt lat="42.9089" lon="0.15642">
        <ele>1969</ele>
        <time>2023-05-18T05:42:02Z</time>
      </trkpt>
      <trkpt lat="42.90866" lon="0.15636">
        <ele>1967</ele>
        <time>2023-05-18T05:42:06Z</time>
      </trkpt>
      <trkpt lat="42.90835" lon="0.15619">
        <ele>1966</ele>
        <time>2023-05-18T05:42:12Z</time>
      </trkpt>
      <trkpt lat="42.90809" lon="0.15623">
        <ele>1959</ele>
        <time>2023-05-18T05:42:17Z</time>
      </trkpt>
      <trkpt lat="42.908" lon="0.15616">
        <ele>1958</ele>
        <time>2023-05-18T05:42:19Z</time>
      </trkpt>
      <trkpt lat="42.90763" lon="0.15569">
        <ele>1957</ele>
        <time>2023-05-18T05:42:28Z</time>
      </trkpt>
      <trkpt lat="42.9073" lon="0.15549">
        <ele>1949</ele>
        <time>2023-05-18T05:42:34Z</time>
      </trkpt>
      <trkpt lat="42.90684" lon="0.15486">
        <ele>1942</ele>
        <time>2023-05-18T05:42:46Z</time>
      </trkpt>
      <trkpt lat="42.90677" lon="0.15472">
        <ele>1941</ele>
        <time>2023-05-18T05:42:48Z</time>
      </trkpt>
      <trkpt lat="42.90674" lon="0.15453">
        <ele>1941</ele>
        <time>2023-05-18T05:42:50Z</time>
      </trkpt>
      <trkpt lat="42.90679" lon="0.15411">
        <ele>1944</ele>
        <time>2023-05-18T05:42:56Z</time>
      </trkpt>
      <trkpt lat="42.90677" lon="0.15394">
        <ele>1945</ele>
        <time>2023-05-18T05:42:58Z</time>
      </trkpt>
      <trkpt lat="42.90667" lon="0.15389">
        <ele>1941</ele>
        <time>2023-05-18T05:43:00Z</time>
      </trkpt>
      <trkpt lat="42.90658" lon="0.15397">
        <ele>1939</ele>
        <time>2023-05-18T05:43:02Z</time>
      </trkpt>
      <trkpt lat="42.90653" lon="0.15417">
        <ele>1936</ele>
        <time>2023-05-18T05:43:05Z</time>
      </trkpt>
      <trkpt lat="42.90651" lon="0.15479">
        <ele>1934</ele>
        <time>2023-05-18T05:43:13Z</time>
      </trkpt>
      <trkpt lat="42.90653" lon="0.1551">
        <ele>1932</ele>
        <time>2023-05-18T05:43:17Z</time>
      </trkpt>
      <trkpt lat="42.90669" lon="0.15601">
        <ele>1922</ele>
        <time>2023-05-18T05:43:29Z</time>
      </trkpt>
      <trkpt lat="42.90697" lon="0.15687">
        <ele>1914</ele>
        <time>2023-05-18T05:43:41Z</time>
      </trkpt>
      <trkpt lat="42.90722" lon="0.1573">
        <ele>1913</ele>
        <time>2023-05-18T05:43:49Z</time>
      </trkpt>
      <trkpt lat="42.90743" lon="0.15784">
        <ele>1908</ele>
        <time>2023-05-18T05:43:57Z</time>
      </trkpt>
      <trkpt lat="42.90792" lon="0.15863">
        <ele>1901</ele>
        <time>2023-05-18T05:44:10Z</time>
      </trkpt>
      <trkpt lat="42.90827" lon="0.1591">
        <ele>1899</ele>
        <time>2023-05-18T05:44:19Z</time>
      </trkpt>
      <trkpt lat="42.90844" lon="0.15944">
        <ele>1897</ele>
        <time>2023-05-18T05:44:24Z</time>
      </trkpt>
      <trkpt lat="42.90853" lon="0.15976">
        <ele>1892</ele>
        <time>2023-05-18T05:44:29Z</time>
      </trkpt>
      <trkpt lat="42.90876" lon="0.16106">
        <ele>1881</ele>
        <time>2023-05-18T05:44:46Z</time>
      </trkpt>
      <trkpt lat="42.90891" lon="0.16171">
        <ele>1874</ele>
        <time>2023-05-18T05:44:55Z</time>
      </trkpt>
      <trkpt lat="42.90903" lon="0.16208">
        <ele>1871</ele>
        <time>2023-05-18T05:45:00Z</time>
      </trkpt>
      <trkpt lat="42.9093" lon="0.16272">
        <ele>1868</ele>
        <time>2023-05-18T05:45:10Z</time>
      </trkpt>
      <trkpt lat="42.90944" lon="0.16312">
        <ele>1867</ele>
        <time>2023-05-18T05:45:16Z</time>
      </trkpt>
      <trkpt lat="42.90964" lon="0.16428">
        <ele>1860</ele>
        <time>2023-05-18T05:45:31Z</time>
      </trkpt>
      <trkpt lat="42.90955" lon="0.16525">
        <ele>1851</ele>
        <time>2023-05-18T05:45:44Z</time>
      </trkpt>
      <trkpt lat="42.90942" lon="0.16625">
        <ele>1842</ele>
        <time>2023-05-18T05:45:57Z</time>
      </trkpt>
      <trkpt lat="42.90942" lon="0.16682">
        <ele>1840</ele>
        <time>2023-05-18T05:46:04Z</time>
      </trkpt>
      <trkpt lat="42.90947" lon="0.16738">
        <ele>1836</ele>
        <time>2023-05-18T05:46:12Z</time>
      </trkpt>
      <trkpt lat="42.90955" lon="0.16767">
        <ele>1835</ele>
        <time>2023-05-18T05:46:16Z</time>
      </trkpt>
      <trkpt lat="42.90977" lon="0.16811">
        <ele>1834</ele>
        <time>2023-05-18T05:46:23Z</time>
      </trkpt>
      <trkpt lat="42.90991" lon="0.16863">
        <ele>1827</ele>
        <time>2023-05-18T05:46:30Z</time>
      </trkpt>
      <trkpt lat="42.91017" lon="0.16932">
        <ele>1823</ele>
        <time>2023-05-18T05:46:40Z</time>
      </trkpt>
      <trkpt lat="42.91021" lon="0.16948">
        <ele>1823</ele>
        <time>2023-05-18T05:46:42Z</time>
      </trkpt>
      <trkpt lat="42.91025" lon="0.16998">
        <ele>1820</ele>
        <time>2023-05-18T05:46:49Z</time>
      </trkpt>
      <trkpt lat="42.91026" lon="0.17066">
        <ele>1812</ele>
        <time>2023-05-18T05:46:58Z</time>
      </trkpt>
      <trkpt lat="42.91026" lon="0.17131">
        <ele>1805</ele>
        <time>2023-05-18T05:47:06Z</time>
      </trkpt>
      <trkpt lat="42.91022" lon="0.17239">
        <ele>1798</ele>
        <time>2023-05-18T05:47:20Z</time>
      </trkpt>
      <trkpt lat="42.91023" lon="0.17313">
        <ele>1792</ele>
        <time>2023-05-18T05:47:30Z</time>
      </trkpt>
      <trkpt lat="42.91045" lon="0.17414">
        <ele>1791</ele>
        <time>2023-05-18T05:47:44Z</time>
      </trkpt>
      <trkpt lat="42.9105" lon="0.1746">
        <ele>1788</ele>
        <time>2023-05-18T05:47:50Z</time>
      </trkpt>
      <trkpt lat="42.91051" lon="0.17562">
        <ele>1777</ele>
        <time>2023-05-18T05:48:03Z</time>
      </trkpt>
      <trkpt lat="42.91054" lon="0.1759">
        <ele>1774</ele>
        <time>2023-05-18T05:48:07Z</time>
      </trkpt>
      <trkpt lat="42.91065" lon="0.17635">
        <ele>1772</ele>
        <time>2023-05-18T05:48:13Z</time>
      </trkpt>
      <trkpt lat="42.911" lon="0.17736">
        <ele>1769</ele>
        <time>2023-05-18T05:48:28Z</time>
      </trkpt>
      <trkpt lat="42.91107" lon="0.17798">
        <ele>1762</ele>
        <time>2023-05-18T05:48:36Z</time>
      </trkpt>
      <trkpt lat="42.91105" lon="0.17852">
        <ele>1758</ele>
        <time>2023-05-18T05:48:43Z</time>
      </trkpt>
      <trkpt lat="42.91096" lon="0.17879">
        <ele>1757</ele>
        <time>2023-05-18T05:48:47Z</time>
      </trkpt>
      <trkpt lat="42.91077" lon="0.17897">
        <ele>1754</ele>
        <time>2023-05-18T05:48:51Z</time>
      </trkpt>
      <trkpt lat="42.91022" lon="0.17925">
        <ele>1748</ele>
        <time>2023-05-18T05:49:01Z</time>
      </trkpt>
      <trkpt lat="42.91013" lon="0.17937">
        <ele>1746</ele>
        <time>2023-05-18T05:49:03Z</time>
      </trkpt>
      <trkpt lat="42.91006" lon="0.1796">
        <ele>1743</ele>
        <time>2023-05-18T05:49:07Z</time>
      </trkpt>
      <trkpt lat="42.91007" lon="0.18001">
        <ele>1740</ele>
        <time>2023-05-18T05:49:12Z</time>
      </trkpt>
      <trkpt lat="42.91023" lon="0.18092">
        <ele>1738</ele>
        <time>2023-05-18T05:49:24Z</time>
      </trkpt>
      <trkpt lat="42.91038" lon="0.18151">
        <ele>1732</ele>
        <time>2023-05-18T05:49:32Z</time>
      </trkpt>
      <trkpt lat="42.91054" lon="0.18185">
        <ele>1728</ele>
        <time>2023-05-18T05:49:38Z</time>
      </trkpt>
      <trkpt lat="42.91091" lon="0.18249">
        <ele>1713</ele>
        <time>2023-05-18T05:49:48Z</time>
      </trkpt>
      <trkpt lat="42.91127" lon="0.18346">
        <ele>1709</ele>
        <time>2023-05-18T05:50:02Z</time>
      </trkpt>
      <trkpt lat="42.9114" lon="0.18367">
        <ele>1707</ele>
        <time>2023-05-18T05:50:06Z</time>
      </trkpt>
      <trkpt lat="42.91162" lon="0.18394">
        <ele>1703</ele>
        <time>2023-05-18T05:50:11Z</time>
      </trkpt>
      <trkpt lat="42.91177" lon="0.18408">
        <ele>1701</ele>
        <time>2023-05-18T05:50:14Z</time>
      </trkpt>
      <trkpt lat="42.91199" lon="0.18416">
        <ele>1696</ele>
        <time>2023-05-18T05:50:19Z</time>
      </trkpt>
      <trkpt lat="42.91239" lon="0.18426">
        <ele>1686</ele>
        <time>2023-05-18T05:50:26Z</time>
      </trkpt>
      <trkpt lat="42.91254" lon="0.18436">
        <ele>1683</ele>
        <time>2023-05-18T05:50:29Z</time>
      </trkpt>
      <trkpt lat="42.91271" lon="0.18453">
        <ele>1680</ele>
        <time>2023-05-18T05:50:32Z</time>
      </trkpt>
      <trkpt lat="42.91287" lon="0.18474">
        <ele>1677</ele>
        <time>2023-05-18T05:50:36Z</time>
      </trkpt>
      <trkpt lat="42.91309" lon="0.18526">
        <ele>1676</ele>
        <time>2023-05-18T05:50:44Z</time>
      </trkpt>
      <trkpt lat="42.91341" lon="0.18631">
        <ele>1681</ele>
        <time>2023-05-18T05:50:59Z</time>
      </trkpt>
      <trkpt lat="42.91351" lon="0.18652">
        <ele>1682</ele>
        <time>2023-05-18T05:51:02Z</time>
      </trkpt>
      <trkpt lat="42.91365" lon="0.18662">
        <ele>1678</ele>
        <time>2023-05-18T05:51:05Z</time>
      </trkpt>
      <trkpt lat="42.91372" lon="0.18663">
        <ele>1676</ele>
        <time>2023-05-18T05:51:06Z</time>
      </trkpt>
      <trkpt lat="42.91404" lon="0.18658">
        <ele>1662</ele>
        <time>2023-05-18T05:51:12Z</time>
      </trkpt>
      <trkpt lat="42.91428" lon="0.18659">
        <ele>1656</ele>
        <time>2023-05-18T05:51:16Z</time>
      </trkpt>
      <trkpt lat="42.91439" lon="0.18662">
        <ele>1655</ele>
        <time>2023-05-18T05:51:18Z</time>
      </trkpt>
      <trkpt lat="42.9146" lon="0.18674">
        <ele>1655</ele>
        <time>2023-05-18T05:51:22Z</time>
      </trkpt>
      <trkpt lat="42.91494" lon="0.18705">
        <ele>1658</ele>
        <time>2023-05-18T05:51:30Z</time>
      </trkpt>
      <trkpt lat="42.91509" lon="0.18715">
        <ele>1656</ele>
        <time>2023-05-18T05:51:33Z</time>
      </trkpt>
      <trkpt lat="42.91524" lon="0.18718">
        <ele>1652</ele>
        <time>2023-05-18T05:51:35Z</time>
      </trkpt>
      <trkpt lat="42.91554" lon="0.1871">
        <ele>1640</ele>
        <time>2023-05-18T05:51:41Z</time>
      </trkpt>
      <trkpt lat="42.91565" lon="0.1871">
        <ele>1637</ele>
        <time>2023-05-18T05:51:43Z</time>
      </trkpt>
      <trkpt lat="42.91573" lon="0.18712">
        <ele>1635</ele>
        <time>2023-05-18T05:51:44Z</time>
      </trkpt>
      <trkpt lat="42.91586" lon="0.1872">
        <ele>1632</ele>
        <time>2023-05-18T05:51:47Z</time>
      </trkpt>
      <trkpt lat="42.91593" lon="0.18727">
        <ele>1630</ele>
        <time>2023-05-18T05:51:48Z</time>
      </trkpt>
      <trkpt lat="42.91604" lon="0.18747">
        <ele>1630</ele>
        <time>2023-05-18T05:51:52Z</time>
      </trkpt>
      <trkpt lat="42.91621" lon="0.18791">
        <ele>1634</ele>
        <time>2023-05-18T05:51:58Z</time>
      </trkpt>
      <trkpt lat="42.91631" lon="0.18806">
        <ele>1634</ele>
        <time>2023-05-18T05:52:01Z</time>
      </trkpt>
      <trkpt lat="42.91752" lon="0.18919">
        <ele>1620</ele>
        <time>2023-05-18T05:52:27Z</time>
      </trkpt>
      <trkpt lat="42.91818" lon="0.19">
        <ele>1612</ele>
        <time>2023-05-18T05:52:43Z</time>
      </trkpt>
      <trkpt lat="42.91908" lon="0.19082">
        <ele>1599</ele>
        <time>2023-05-18T05:53:02Z</time>
      </trkpt>
      <trkpt lat="42.91927" lon="0.19104">
        <ele>1597</ele>
        <time>2023-05-18T05:53:06Z</time>
      </trkpt>
      <trkpt lat="42.91942" lon="0.19131">
        <ele>1597</ele>
        <time>2023-05-18T05:53:11Z</time>
      </trkpt>
      <trkpt lat="42.91954" lon="0.19165">
        <ele>1596</ele>
        <time>2023-05-18T05:53:16Z</time>
      </trkpt>
      <trkpt lat="42.91963" lon="0.19201">
        <ele>1594</ele>
        <time>2023-05-18T05:53:21Z</time>
      </trkpt>
      <trkpt lat="42.91968" lon="0.19257">
        <ele>1590</ele>
        <time>2023-05-18T05:53:28Z</time>
      </trkpt>
      <trkpt lat="42.91972" lon="0.19362">
        <ele>1578</ele>
        <time>2023-05-18T05:53:42Z</time>
      </trkpt>
      <trkpt lat="42.91978" lon="0.19402">
        <ele>1574</ele>
        <time>2023-05-18T05:53:47Z</time>
      </trkpt>
      <trkpt lat="42.91998" lon="0.19476">
        <ele>1564</ele>
        <time>2023-05-18T05:53:57Z</time>
      </trkpt>
      <trkpt lat="42.9207" lon="0.19669">
        <ele>1554</ele>
        <time>2023-05-18T05:54:25Z</time>
      </trkpt>
      <trkpt lat="42.92179" lon="0.1989">
        <ele>1537</ele>
        <time>2023-05-18T05:55:00Z</time>
      </trkpt>
      <trkpt lat="42.92223" lon="0.20002">
        <ele>1529</ele>
        <time>2023-05-18T05:55:17Z</time>
      </trkpt>
      <trkpt lat="42.92242" lon="0.20068">
        <ele>1519</ele>
        <time>2023-05-18T05:55:26Z</time>
      </trkpt>
      <trkpt lat="42.92244" lon="0.20102">
        <ele>1514</ele>
        <time>2023-05-18T05:55:30Z</time>
      </trkpt>
      <trkpt lat="42.92242" lon="0.20125">
        <ele>1510</ele>
        <time>2023-05-18T05:55:33Z</time>
      </trkpt>
      <trkpt lat="42.92188" lon="0.20278">
        <ele>1504</ele>
        <time>2023-05-18T05:55:56Z</time>
      </trkpt>
      <trkpt lat="42.92169" lon="0.20354">
        <ele>1492</ele>
        <time>2023-05-18T05:56:06Z</time>
      </trkpt>
      <trkpt lat="42.92164" lon="0.20363">
        <ele>1492</ele>
        <time>2023-05-18T05:56:07Z</time>
      </trkpt>
      <trkpt lat="42.92102" lon="0.20458">
        <ele>1490</ele>
        <time>2023-05-18T05:56:24Z</time>
      </trkpt>
      <trkpt lat="42.92036" lon="0.20538">
        <ele>1482</ele>
        <time>2023-05-18T05:56:40Z</time>
      </trkpt>
      <trkpt lat="42.91994" lon="0.20575">
        <ele>1483</ele>
        <time>2023-05-18T05:56:49Z</time>
      </trkpt>
      <trkpt lat="42.91982" lon="0.20591">
        <ele>1482</ele>
        <time>2023-05-18T05:56:52Z</time>
      </trkpt>
      <trkpt lat="42.91945" lon="0.20658">
        <ele>1471</ele>
        <time>2023-05-18T05:57:03Z</time>
      </trkpt>
      <trkpt lat="42.9189" lon="0.20727">
        <ele>1463</ele>
        <time>2023-05-18T05:57:16Z</time>
      </trkpt>
      <trkpt lat="42.91864" lon="0.20756">
        <ele>1461</ele>
        <time>2023-05-18T05:57:22Z</time>
      </trkpt>
      <trkpt lat="42.9175" lon="0.20868">
        <ele>1447</ele>
        <time>2023-05-18T05:57:47Z</time>
      </trkpt>
      <trkpt lat="42.91703" lon="0.20921">
        <ele>1430</ele>
        <time>2023-05-18T05:57:58Z</time>
      </trkpt>
      <trkpt lat="42.91696" lon="0.20938">
        <ele>1428</ele>
        <time>2023-05-18T05:58:00Z</time>
      </trkpt>
      <trkpt lat="42.91699" lon="0.20955">
        <ele>1425</ele>
        <time>2023-05-18T05:58:02Z</time>
      </trkpt>
      <trkpt lat="42.91711" lon="0.2096">
        <ele>1423</ele>
        <time>2023-05-18T05:58:05Z</time>
      </trkpt>
      <trkpt lat="42.91724" lon="0.20955">
        <ele>1422</ele>
        <time>2023-05-18T05:58:07Z</time>
      </trkpt>
      <trkpt lat="42.9178" lon="0.20896">
        <ele>1426</ele>
        <time>2023-05-18T05:58:20Z</time>
      </trkpt>
      <trkpt lat="42.91801" lon="0.2087">
        <ele>1430</ele>
        <time>2023-05-18T05:58:25Z</time>
      </trkpt>
      <trkpt lat="42.91818" lon="0.20855">
        <ele>1431</ele>
        <time>2023-05-18T05:58:28Z</time>
      </trkpt>
      <trkpt lat="42.91834" lon="0.20849">
        <ele>1429</ele>
        <time>2023-05-18T05:58:31Z</time>
      </trkpt>
      <trkpt lat="42.91869" lon="0.20855">
        <ele>1417</ele>
        <time>2023-05-18T05:58:38Z</time>
      </trkpt>
      <trkpt lat="42.91884" lon="0.20852">
        <ele>1414</ele>
        <time>2023-05-18T05:58:40Z</time>
      </trkpt>
      <trkpt lat="42.91963" lon="0.20793">
        <ele>1407</ele>
        <time>2023-05-18T05:58:56Z</time>
      </trkpt>
      <trkpt lat="42.91992" lon="0.20768">
        <ele>1404</ele>
        <time>2023-05-18T05:59:02Z</time>
      </trkpt>
      <trkpt lat="42.92059" lon="0.20717">
        <ele>1399</ele>
        <time>2023-05-18T05:59:16Z</time>
      </trkpt>
      <trkpt lat="42.92076" lon="0.20706">
        <ele>1397</ele>
        <time>2023-05-18T05:59:19Z</time>
      </trkpt>
      <trkpt lat="42.92162" lon="0.20661">
        <ele>1381</ele>
        <time>2023-05-18T05:59:36Z</time>
      </trkpt>
      <trkpt lat="42.92218" lon="0.20603">
        <ele>1382</ele>
        <time>2023-05-18T05:59:48Z</time>
      </trkpt>
      <trkpt lat="42.92231" lon="0.20594">
        <ele>1380</ele>
        <time>2023-05-18T05:59:51Z</time>
      </trkpt>
      <trkpt lat="42.92266" lon="0.20581">
        <ele>1370</ele>
        <time>2023-05-18T05:59:57Z</time>
      </trkpt>
      <trkpt lat="42.92281" lon="0.20572">
        <ele>1368</ele>
        <time>2023-05-18T06:00:00Z</time>
      </trkpt>
      <trkpt lat="42.92295" lon="0.20555">
        <ele>1368</ele>
        <time>2023-05-18T06:00:04Z</time>
      </trkpt>
      <trkpt lat="42.92321" lon="0.2051">
        <ele>1370</ele>
        <time>2023-05-18T06:00:11Z</time>
      </trkpt>
      <trkpt lat="42.92358" lon="0.20456">
        <ele>1363</ele>
        <time>2023-05-18T06:00:21Z</time>
      </trkpt>
      <trkpt lat="42.9239" lon="0.20383">
        <ele>1360</ele>
        <time>2023-05-18T06:00:32Z</time>
      </trkpt>
      <trkpt lat="42.9242" lon="0.20329">
        <ele>1355</ele>
        <time>2023-05-18T06:00:41Z</time>
      </trkpt>
      <trkpt lat="42.92432" lon="0.20297">
        <ele>1351</ele>
        <time>2023-05-18T06:00:45Z</time>
      </trkpt>
      <trkpt lat="42.9244" lon="0.20256">
        <ele>1350</ele>
        <time>2023-05-18T06:00:51Z</time>
      </trkpt>
      <trkpt lat="42.92451" lon="0.2016">
        <ele>1346</ele>
        <time>2023-05-18T06:01:03Z</time>
      </trkpt>
      <trkpt lat="42.92469" lon="0.2008">
        <ele>1340</ele>
        <time>2023-05-18T06:01:14Z</time>
      </trkpt>
      <trkpt lat="42.92472" lon="0.20052">
        <ele>1337</ele>
        <time>2023-05-18T06:01:18Z</time>
      </trkpt>
      <trkpt lat="42.92478" lon="0.1996">
        <ele>1330</ele>
        <time>2023-05-18T06:01:30Z</time>
      </trkpt>
      <trkpt lat="42.92478" lon="0.1987">
        <ele>1325</ele>
        <time>2023-05-18T06:01:42Z</time>
      </trkpt>
      <trkpt lat="42.9247" lon="0.19798">
        <ele>1332</ele>
        <time>2023-05-18T06:01:51Z</time>
      </trkpt>
      <trkpt lat="42.92471" lon="0.19785">
        <ele>1332</ele>
        <time>2023-05-18T06:01:53Z</time>
      </trkpt>
      <trkpt lat="42.92476" lon="0.19775">
        <ele>1330</ele>
        <time>2023-05-18T06:01:55Z</time>
      </trkpt>
      <trkpt lat="42.92483" lon="0.19771">
        <ele>1327</ele>
        <time>2023-05-18T06:01:56Z</time>
      </trkpt>
      <trkpt lat="42.92517" lon="0.19763">
        <ele>1314</ele>
        <time>2023-05-18T06:02:02Z</time>
      </trkpt>
      <trkpt lat="42.92532" lon="0.19757">
        <ele>1311</ele>
        <time>2023-05-18T06:02:05Z</time>
      </trkpt>
      <trkpt lat="42.92564" lon="0.19736">
        <ele>1307</ele>
        <time>2023-05-18T06:02:11Z</time>
      </trkpt>
      <trkpt lat="42.92582" lon="0.19714">
        <ele>1308</ele>
        <time>2023-05-18T06:02:15Z</time>
      </trkpt>
      <trkpt lat="42.92596" lon="0.19711">
        <ele>1309</ele>
        <time>2023-05-18T06:02:18Z</time>
      </trkpt>
      <trkpt lat="42.92608" lon="0.19722">
        <ele>1306</ele>
        <time>2023-05-18T06:02:21Z</time>
      </trkpt>
      <trkpt lat="42.92631" lon="0.19771">
        <ele>1295</ele>
        <time>2023-05-18T06:02:28Z</time>
      </trkpt>
      <trkpt lat="42.92644" lon="0.19789">
        <ele>1291</ele>
        <time>2023-05-18T06:02:31Z</time>
      </trkpt>
      <trkpt lat="42.92695" lon="0.19847">
        <ele>1288</ele>
        <time>2023-05-18T06:02:43Z</time>
      </trkpt>
      <trkpt lat="42.92702" lon="0.19863">
        <ele>1286</ele>
        <time>2023-05-18T06:02:46Z</time>
      </trkpt>
      <trkpt lat="42.92708" lon="0.19889">
        <ele>1282</ele>
        <time>2023-05-18T06:02:49Z</time>
      </trkpt>
      <trkpt lat="42.92721" lon="0.19917">
        <ele>1278</ele>
        <time>2023-05-18T06:02:54Z</time>
      </trkpt>
      <trkpt lat="42.92808" lon="0.20027">
        <ele>1269</ele>
        <time>2023-05-18T06:03:15Z</time>
      </trkpt>
      <trkpt lat="42.92875" lon="0.20122">
        <ele>1254</ele>
        <time>2023-05-18T06:03:32Z</time>
      </trkpt>
      <trkpt lat="42.92895" lon="0.20142">
        <ele>1251</ele>
        <time>2023-05-18T06:03:36Z</time>
      </trkpt>
      <trkpt lat="42.92955" lon="0.20184">
        <ele>1248</ele>
        <time>2023-05-18T06:03:48Z</time>
      </trkpt>
      <trkpt lat="42.93004" lon="0.20222">
        <ele>1242</ele>
        <time>2023-05-18T06:03:58Z</time>
      </trkpt>
      <trkpt lat="42.93028" lon="0.20248">
        <ele>1238</ele>
        <time>2023-05-18T06:04:04Z</time>
      </trkpt>
      <trkpt lat="42.93045" lon="0.20275">
        <ele>1237</ele>
        <time>2023-05-18T06:04:08Z</time>
      </trkpt>
      <trkpt lat="42.93074" lon="0.2033">
        <ele>1230</ele>
        <time>2023-05-18T06:04:17Z</time>
      </trkpt>
      <trkpt lat="42.93103" lon="0.2037">
        <ele>1225</ele>
        <time>2023-05-18T06:04:24Z</time>
      </trkpt>
      <trkpt lat="42.93114" lon="0.20381">
        <ele>1224</ele>
        <time>2023-05-18T06:04:27Z</time>
      </trkpt>
      <trkpt lat="42.93233" lon="0.20459">
        <ele>1217</ele>
        <time>2023-05-18T06:04:50Z</time>
      </trkpt>
      <trkpt lat="42.93256" lon="0.20477">
        <ele>1214</ele>
        <time>2023-05-18T06:04:55Z</time>
      </trkpt>
      <trkpt lat="42.93323" lon="0.2055">
        <ele>1205</ele>
        <time>2023-05-18T06:05:10Z</time>
      </trkpt>
      <trkpt lat="42.93369" lon="0.20592">
        <ele>1204</ele>
        <time>2023-05-18T06:05:20Z</time>
      </trkpt>
      <trkpt lat="42.93391" lon="0.20621">
        <ele>1202</ele>
        <time>2023-05-18T06:05:26Z</time>
      </trkpt>
      <trkpt lat="42.93409" lon="0.20666">
        <ele>1192</ele>
        <time>2023-05-18T06:05:32Z</time>
      </trkpt>
      <trkpt lat="42.93422" lon="0.20687">
        <ele>1189</ele>
        <time>2023-05-18T06:05:36Z</time>
      </trkpt>
      <trkpt lat="42.93462" lon="0.20729">
        <ele>1189</ele>
        <time>2023-05-18T06:05:45Z</time>
      </trkpt>
      <trkpt lat="42.93476" lon="0.20747">
        <ele>1188</ele>
        <time>2023-05-18T06:05:48Z</time>
      </trkpt>
      <trkpt lat="42.93487" lon="0.20768">
        <ele>1185</ele>
        <time>2023-05-18T06:05:52Z</time>
      </trkpt>
      <trkpt lat="42.93498" lon="0.20798">
        <ele>1179</ele>
        <time>2023-05-18T06:05:56Z</time>
      </trkpt>
      <trkpt lat="42.93511" lon="0.20818">
        <ele>1175</ele>
        <time>2023-05-18T06:06:00Z</time>
      </trkpt>
      <trkpt lat="42.93529" lon="0.20829">
        <ele>1176</ele>
        <time>2023-05-18T06:06:03Z</time>
      </trkpt>
      <trkpt lat="42.93564" lon="0.20843">
        <ele>1180</ele>
        <time>2023-05-18T06:06:10Z</time>
      </trkpt>
      <trkpt lat="42.93591" lon="0.20874">
        <ele>1172</ele>
        <time>2023-05-18T06:06:16Z</time>
      </trkpt>
      <trkpt lat="42.93599" lon="0.20879">
        <ele>1172</ele>
        <time>2023-05-18T06:06:17Z</time>
      </trkpt>
      <trkpt lat="42.93607" lon="0.20878">
        <ele>1174</ele>
        <time>2023-05-18T06:06:19Z</time>
      </trkpt>
      <trkpt lat="42.93635" lon="0.20858">
        <ele>1190</ele>
        <time>2023-05-18T06:06:24Z</time>
      </trkpt>
      <trkpt lat="42.93639" lon="0.20858">
        <ele>1191</ele>
        <time>2023-05-18T06:06:25Z</time>
      </trkpt>
      <trkpt lat="42.93648" lon="0.20864">
        <ele>1190</ele>
        <time>2023-05-18T06:06:27Z</time>
      </trkpt>
      <trkpt lat="42.93653" lon="0.20878">
        <ele>1184</ele>
        <time>2023-05-18T06:06:29Z</time>
      </trkpt>
      <trkpt lat="42.93656" lon="0.20911">
        <ele>1167</ele>
        <time>2023-05-18T06:06:33Z</time>
      </trkpt>
      <trkpt lat="42.9366" lon="0.20923">
        <ele>1163</ele>
        <time>2023-05-18T06:06:35Z</time>
      </trkpt>
      <trkpt lat="42.93672" lon="0.20935">
        <ele>1162</ele>
        <time>2023-05-18T06:06:38Z</time>
      </trkpt>
      <trkpt lat="42.93711" lon="0.2096">
        <ele>1171</ele>
        <time>2023-05-18T06:06:45Z</time>
      </trkpt>
      <trkpt lat="42.93725" lon="0.20973">
        <ele>1172</ele>
        <time>2023-05-18T06:06:48Z</time>
      </trkpt>
      <trkpt lat="42.93759" lon="0.21029">
        <ele>1162</ele>
        <time>2023-05-18T06:06:58Z</time>
      </trkpt>
      <trkpt lat="42.93824" lon="0.21106">
        <ele>1152</ele>
        <time>2023-05-18T06:07:13Z</time>
      </trkpt>
      <trkpt lat="42.9387" lon="0.21176">
        <ele>1146</ele>
        <time>2023-05-18T06:07:25Z</time>
      </trkpt>
      <trkpt lat="42.93921" lon="0.21262">
        <ele>1137</ele>
        <time>2023-05-18T06:07:40Z</time>
      </trkpt>
      <trkpt lat="42.9397" lon="0.21314">
        <ele>1132</ele>
        <time>2023-05-18T06:07:51Z</time>
      </trkpt>
      <trkpt lat="42.94009" lon="0.21338">
        <ele>1130</ele>
        <time>2023-05-18T06:07:58Z</time>
      </trkpt>
      <trkpt lat="42.94029" lon="0.21354">
        <ele>1129</ele>
        <time>2023-05-18T06:08:03Z</time>
      </trkpt>
      <trkpt lat="42.94076" lon="0.21418">
        <ele>1115</ele>
        <time>2023-05-18T06:08:14Z</time>
      </trkpt>
      <trkpt lat="42.94141" lon="0.21497">
        <ele>1119</ele>
        <time>2023-05-18T06:08:30Z</time>
      </trkpt>
      <trkpt lat="42.94152" lon="0.21522">
        <ele>1116</ele>
        <time>2023-05-18T06:08:34Z</time>
      </trkpt>
      <trkpt lat="42.94177" lon="0.21598">
        <ele>1100</ele>
        <time>2023-05-18T06:08:44Z</time>
      </trkpt>
      <trkpt lat="42.94189" lon="0.21625">
        <ele>1094</ele>
        <time>2023-05-18T06:08:49Z</time>
      </trkpt>
      <trkpt lat="42.94219" lon="0.21652">
        <ele>1097</ele>
        <time>2023-05-18T06:08:55Z</time>
      </trkpt>
      <trkpt lat="42.9423" lon="0.21667">
        <ele>1096</ele>
        <time>2023-05-18T06:08:58Z</time>
      </trkpt>
      <trkpt lat="42.94261" lon="0.21726">
        <ele>1087</ele>
        <time>2023-05-18T06:09:07Z</time>
      </trkpt>
      <trkpt lat="42.94278" lon="0.2175">
        <ele>1086</ele>
        <time>2023-05-18T06:09:12Z</time>
      </trkpt>
      <trkpt lat="42.9433" lon="0.21811">
        <ele>1082</ele>
        <time>2023-05-18T06:09:24Z</time>
      </trkpt>
      <trkpt lat="42.94365" lon="0.21861">
        <ele>1073</ele>
        <time>2023-05-18T06:09:33Z</time>
      </trkpt>
      <trkpt lat="42.94441" lon="0.21956">
        <ele>1059</ele>
        <time>2023-05-18T06:09:51Z</time>
      </trkpt>
      <trkpt lat="42.94498" lon="0.22">
        <ele>1054</ele>
        <time>2023-05-18T06:10:03Z</time>
      </trkpt>
      <trkpt lat="42.94524" lon="0.22026">
        <ele>1052</ele>
        <time>2023-05-18T06:10:08Z</time>
      </trkpt>
      <trkpt lat="42.94572" lon="0.22109">
        <ele>1042</ele>
        <time>2023-05-18T06:10:22Z</time>
      </trkpt>
      <trkpt lat="42.94589" lon="0.22124">
        <ele>1040</ele>
        <time>2023-05-18T06:10:26Z</time>
      </trkpt>
      <trkpt lat="42.94598" lon="0.22129">
        <ele>1040</ele>
        <time>2023-05-18T06:10:28Z</time>
      </trkpt>
      <trkpt lat="42.9463" lon="0.22138">
        <ele>1039</ele>
        <time>2023-05-18T06:10:33Z</time>
      </trkpt>
      <trkpt lat="42.9464" lon="0.22145">
        <ele>1038</ele>
        <time>2023-05-18T06:10:35Z</time>
      </trkpt>
      <trkpt lat="42.94655" lon="0.22168">
        <ele>1035</ele>
        <time>2023-05-18T06:10:39Z</time>
      </trkpt>
      <trkpt lat="42.94663" lon="0.22192">
        <ele>1032</ele>
        <time>2023-05-18T06:10:43Z</time>
      </trkpt>
      <trkpt lat="42.94675" lon="0.22247">
        <ele>1026</ele>
        <time>2023-05-18T06:10:50Z</time>
      </trkpt>
      <trkpt lat="42.94689" lon="0.22295">
        <ele>1022</ele>
        <time>2023-05-18T06:10:57Z</time>
      </trkpt>
      <trkpt lat="42.94703" lon="0.22324">
        <ele>1020</ele>
        <time>2023-05-18T06:11:02Z</time>
      </trkpt>
      <trkpt lat="42.9472" lon="0.2235">
        <ele>1018</ele>
        <time>2023-05-18T06:11:06Z</time>
      </trkpt>
      <trkpt lat="42.9476" lon="0.2239">
        <ele>1016</ele>
        <time>2023-05-18T06:11:15Z</time>
      </trkpt>
      <trkpt lat="42.94808" lon="0.22423">
        <ele>1014</ele>
        <time>2023-05-18T06:11:25Z</time>
      </trkpt>
      <trkpt lat="42.94839" lon="0.22442">
        <ele>1012</ele>
        <time>2023-05-18T06:11:31Z</time>
      </trkpt>
      <trkpt lat="42.94868" lon="0.22449">
        <ele>1011</ele>
        <time>2023-05-18T06:11:36Z</time>
      </trkpt>
      <trkpt lat="42.94887" lon="0.22459">
        <ele>1010</ele>
        <time>2023-05-18T06:11:39Z</time>
      </trkpt>
      <trkpt lat="42.94896" lon="0.22472">
        <ele>1009</ele>
        <time>2023-05-18T06:11:42Z</time>
      </trkpt>
      <trkpt lat="42.94911" lon="0.22505">
        <ele>1007</ele>
        <time>2023-05-18T06:11:47Z</time>
      </trkpt>
      <trkpt lat="42.94924" lon="0.22525">
        <ele>1005</ele>
        <time>2023-05-18T06:11:50Z</time>
      </trkpt>
      <trkpt lat="42.94952" lon="0.2255">
        <ele>1002</ele>
        <time>2023-05-18T06:11:56Z</time>
      </trkpt>
      <trkpt lat="42.95" lon="0.22562">
        <ele>1001</ele>
        <time>2023-05-18T06:12:05Z</time>
      </trkpt>
      <trkpt lat="42.95113" lon="0.22622">
        <ele>991</ele>
        <time>2023-05-18T06:12:26Z</time>
      </trkpt>
      <trkpt lat="42.95233" lon="0.22719">
        <ele>985</ele>
        <time>2023-05-18T06:12:51Z</time>
      </trkpt>
      <trkpt lat="42.95364" lon="0.22782">
        <ele>982</ele>
        <time>2023-05-18T06:13:16Z</time>
      </trkpt>
      <trkpt lat="42.95396" lon="0.22791">
        <ele>980</ele>
        <time>2023-05-18T06:13:22Z</time>
      </trkpt>
      <trkpt lat="42.95534" lon="0.22795">
        <ele>976</ele>
        <time>2023-05-18T06:13:46Z</time>
      </trkpt>
      <trkpt lat="42.95581" lon="0.22788">
        <ele>978</ele>
        <time>2023-05-18T06:13:55Z</time>
      </trkpt>
      <trkpt lat="42.95614" lon="0.22791">
        <ele>977</ele>
        <time>2023-05-18T06:14:01Z</time>
      </trkpt>
      <trkpt lat="42.95733" lon="0.22841">
        <ele>970</ele>
        <time>2023-05-18T06:14:23Z</time>
      </trkpt>
      <trkpt lat="42.95777" lon="0.22864">
        <ele>968</ele>
        <time>2023-05-18T06:14:31Z</time>
      </trkpt>
      <trkpt lat="42.95796" lon="0.22869">
        <ele>968</ele>
        <time>2023-05-18T06:14:35Z</time>
      </trkpt>
      <trkpt lat="42.95838" lon="0.22872">
        <ele>968</ele>
        <time>2023-05-18T06:14:42Z</time>
      </trkpt>
      <trkpt lat="42.95868" lon="0.22884">
        <ele>966</ele>
        <time>2023-05-18T06:14:48Z</time>
      </trkpt>
      <trkpt lat="42.95899" lon="0.22905">
        <ele>962</ele>
        <time>2023-05-18T06:14:54Z</time>
      </trkpt>
      <trkpt lat="42.95942" lon="0.22944">
        <ele>959</ele>
        <time>2023-05-18T06:15:03Z</time>
      </trkpt>
      <trkpt lat="42.96017" lon="0.23004">
        <ele>953</ele>
        <time>2023-05-18T06:15:19Z</time>
      </trkpt>
      <trkpt lat="42.96034" lon="0.23011">
        <ele>952</ele>
        <time>2023-05-18T06:15:22Z</time>
      </trkpt>
      <trkpt lat="42.96156" lon="0.2303">
        <ele>946</ele>
        <time>2023-05-18T06:15:44Z</time>
      </trkpt>
      <trkpt lat="42.96205" lon="0.23031">
        <ele>946</ele>
        <time>2023-05-18T06:15:52Z</time>
      </trkpt>
      <trkpt lat="42.96254" lon="0.23042">
        <ele>944</ele>
        <time>2023-05-18T06:16:01Z</time>
      </trkpt>
      <trkpt lat="42.96329" lon="0.23033">
        <ele>941</ele>
        <time>2023-05-18T06:16:14Z</time>
      </trkpt>
      <trkpt lat="42.96471" lon="0.23031">
        <ele>941</ele>
        <time>2023-05-18T06:16:40Z</time>
      </trkpt>
      <trkpt lat="42.96585" lon="0.23043">
        <ele>944</ele>
        <time>2023-05-18T06:17:00Z</time>
      </trkpt>
      <trkpt lat="42.96624" lon="0.23045">
        <ele>942</ele>
        <time>2023-05-18T06:17:07Z</time>
      </trkpt>
      <trkpt lat="42.96661" lon="0.23041">
        <ele>941</ele>
        <time>2023-05-18T06:17:14Z</time>
      </trkpt>
      <trkpt lat="42.96734" lon="0.2302">
        <ele>945</ele>
        <time>2023-05-18T06:17:27Z</time>
      </trkpt>
      <trkpt lat="42.96762" lon="0.2302">
        <ele>947</ele>
        <time>2023-05-18T06:17:32Z</time>
      </trkpt>
      <trkpt lat="42.96848" lon="0.23035">
        <ele>947</ele>
        <time>2023-05-18T06:17:47Z</time>
      </trkpt>
      <trkpt lat="42.96886" lon="0.23054">
        <ele>942</ele>
        <time>2023-05-18T06:17:55Z</time>
      </trkpt>
      <trkpt lat="42.96939" lon="0.23087">
        <ele>932</ele>
        <time>2023-05-18T06:18:05Z</time>
      </trkpt>
      <trkpt lat="42.96965" lon="0.23097">
        <ele>930</ele>
        <time>2023-05-18T06:18:10Z</time>
      </trkpt>
      <trkpt lat="42.97027" lon="0.23113">
        <ele>926</ele>
        <time>2023-05-18T06:18:21Z</time>
      </trkpt>
      <trkpt lat="42.97058" lon="0.23116">
        <ele>924</ele>
        <time>2023-05-18T06:18:26Z</time>
      </trkpt>
      <trkpt lat="42.97078" lon="0.23113">
        <ele>923</ele>
        <time>2023-05-18T06:18:30Z</time>
      </trkpt>
      <trkpt lat="42.97095" lon="0.23104">
        <ele>923</ele>
        <time>2023-05-18T06:18:33Z</time>
      </trkpt>
      <trkpt lat="42.97185" lon="0.23037">
        <ele>922</ele>
        <time>2023-05-18T06:18:51Z</time>
      </trkpt>
      <trkpt lat="42.97213" lon="0.2302">
        <ele>920</ele>
        <time>2023-05-18T06:18:57Z</time>
      </trkpt>
      <trkpt lat="42.97236" lon="0.23012">
        <ele>919</ele>
        <time>2023-05-18T06:19:01Z</time>
      </trkpt>
      <trkpt lat="42.97313" lon="0.23005">
        <ele>911</ele>
        <time>2023-05-18T06:19:15Z</time>
      </trkpt>
      <trkpt lat="42.97336" lon="0.22995">
        <ele>910</ele>
        <time>2023-05-18T06:19:19Z</time>
      </trkpt>
      <trkpt lat="42.97518" lon="0.22854">
        <ele>908</ele>
        <time>2023-05-18T06:19:56Z</time>
      </trkpt>
      <trkpt lat="42.9754" lon="0.2284">
        <ele>907</ele>
        <time>2023-05-18T06:20:01Z</time>
      </trkpt>
      <trkpt lat="42.97565" lon="0.22829">
        <ele>905</ele>
        <time>2023-05-18T06:20:05Z</time>
      </trkpt>
      <trkpt lat="42.97578" lon="0.22826">
        <ele>904</ele>
        <time>2023-05-18T06:20:08Z</time>
      </trkpt>
      <trkpt lat="42.97615" lon="0.22824">
        <ele>901</ele>
        <time>2023-05-18T06:20:14Z</time>
      </trkpt>
      <trkpt lat="42.97643" lon="0.22827">
        <ele>898</ele>
        <time>2023-05-18T06:20:19Z</time>
      </trkpt>
      <trkpt lat="42.97691" lon="0.22839">
        <ele>892</ele>
        <time>2023-05-18T06:20:28Z</time>
      </trkpt>
      <trkpt lat="42.97745" lon="0.22839">
        <ele>886</ele>
        <time>2023-05-18T06:20:38Z</time>
      </trkpt>
      <trkpt lat="42.978" lon="0.22819">
        <ele>884</ele>
        <time>2023-05-18T06:20:48Z</time>
      </trkpt>
      <trkpt lat="42.97852" lon="0.22812">
        <ele>881</ele>
        <time>2023-05-18T06:20:57Z</time>
      </trkpt>
      <trkpt lat="42.97895" lon="0.22797">
        <ele>880</ele>
        <time>2023-05-18T06:21:05Z</time>
      </trkpt>
      <trkpt lat="42.9794" lon="0.22789">
        <ele>878</ele>
        <time>2023-05-18T06:21:13Z</time>
      </trkpt>
      <trkpt lat="42.97951" lon="0.22785">
        <ele>877</ele>
        <time>2023-05-18T06:21:15Z</time>
      </trkpt>
      <trkpt lat="42.9798" lon="0.22766">
        <ele>877</ele>
        <time>2023-05-18T06:21:21Z</time>
      </trkpt>
      <trkpt lat="42.98073" lon="0.22722">
        <ele>876</ele>
        <time>2023-05-18T06:21:38Z</time>
      </trkpt>
      <trkpt lat="42.98145" lon="0.22709">
        <ele>874</ele>
        <time>2023-05-18T06:21:51Z</time>
      </trkpt>
      <trkpt lat="42.98201" lon="0.22707">
        <ele>870</ele>
        <time>2023-05-18T06:22:01Z</time>
      </trkpt>
      <trkpt lat="42.98236" lon="0.22696">
        <ele>869</ele>
        <time>2023-05-18T06:22:08Z</time>
      </trkpt>
      <trkpt lat="42.98316" lon="0.22683">
        <ele>864</ele>
        <time>2023-05-18T06:22:22Z</time>
      </trkpt>
      <trkpt lat="42.98328" lon="0.22682">
        <ele>863</ele>
        <time>2023-05-18T06:22:24Z</time>
      </trkpt>
      <trkpt lat="42.98348" lon="0.22685">
        <ele>862</ele>
        <time>2023-05-18T06:22:28Z</time>
      </trkpt>
      <trkpt lat="42.98443" lon="0.22711">
        <ele>856</ele>
        <time>2023-05-18T06:22:45Z</time>
      </trkpt>
      <trkpt lat="42.98454" lon="0.22719">
        <ele>855</ele>
        <time>2023-05-18T06:22:47Z</time>
      </trkpt>
      <trkpt lat="42.98462" lon="0.22754">
        <ele>852</ele>
        <time>2023-05-18T06:22:52Z</time>
      </trkpt>
      <trkpt lat="42.9832" lon="0.2281">
        <ele>853</ele>
        <time>2023-05-18T06:23:18Z</time>
      </trkpt>
      <trkpt lat="42.98263" lon="0.22811">
        <ele>854</ele>
        <time>2023-05-18T06:23:28Z</time>
      </trkpt>
      <trkpt lat="42.9824" lon="0.22815">
        <ele>854</ele>
        <time>2023-05-18T06:23:32Z</time>
      </trkpt>
      <trkpt lat="42.98227" lon="0.22828">
        <ele>854</ele>
        <time>2023-05-18T06:23:35Z</time>
      </trkpt>
      <trkpt lat="42.98222" lon="0.2284">
        <ele>853</ele>
        <time>2023-05-18T06:23:37Z</time>
      </trkpt>
      <trkpt lat="42.9822" lon="0.22861">
        <ele>854</ele>
        <time>2023-05-18T06:23:40Z</time>
      </trkpt>
      <trkpt lat="42.98225" lon="0.2288">
        <ele>854</ele>
        <time>2023-05-18T06:23:42Z</time>
      </trkpt>
      <trkpt lat="42.98234" lon="0.22891">
        <ele>854</ele>
        <time>2023-05-18T06:23:45Z</time>
      </trkpt>
      <trkpt lat="42.98255" lon="0.22902">
        <ele>853</ele>
        <time>2023-05-18T06:23:49Z</time>
      </trkpt>
      <trkpt lat="42.98276" lon="0.22917">
        <ele>853</ele>
        <time>2023-05-18T06:23:53Z</time>
      </trkpt>
      <trkpt lat="42.98316" lon="0.22966">
        <ele>857</ele>
        <time>2023-05-18T06:24:02Z</time>
      </trkpt>
      <trkpt lat="42.98326" lon="0.2299">
        <ele>859</ele>
        <time>2023-05-18T06:24:06Z</time>
      </trkpt>
      <trkpt lat="42.98338" lon="0.23058">
        <ele>862</ele>
        <time>2023-05-18T06:24:15Z</time>
      </trkpt>
      <trkpt lat="42.98382" lon="0.23212">
        <ele>864</ele>
        <time>2023-05-18T06:24:37Z</time>
      </trkpt>
      <trkpt lat="42.98381" lon="0.23252">
        <ele>866</ele>
        <time>2023-05-18T06:24:42Z</time>
      </trkpt>
      <trkpt lat="42.98364" lon="0.23292">
        <ele>869</ele>
        <time>2023-05-18T06:24:48Z</time>
      </trkpt>
      <trkpt lat="42.9834" lon="0.23338">
        <ele>873</ele>
        <time>2023-05-18T06:24:55Z</time>
      </trkpt>
      <trkpt lat="42.98325" lon="0.23354">
        <ele>876</ele>
        <time>2023-05-18T06:24:59Z</time>
      </trkpt>
      <trkpt lat="42.98288" lon="0.23382">
        <ele>880</ele>
        <time>2023-05-18T06:25:06Z</time>
      </trkpt>
      <trkpt lat="42.98266" lon="0.23416">
        <ele>879</ele>
        <time>2023-05-18T06:25:12Z</time>
      </trkpt>
      <trkpt lat="42.98248" lon="0.23468">
        <ele>882</ele>
        <time>2023-05-18T06:25:19Z</time>
      </trkpt>
      <trkpt lat="42.98231" lon="0.23552">
        <ele>883</ele>
        <time>2023-05-18T06:25:31Z</time>
      </trkpt>
      <trkpt lat="42.98217" lon="0.2359">
        <ele>884</ele>
        <time>2023-05-18T06:25:36Z</time>
      </trkpt>
      <trkpt lat="42.98196" lon="0.23626">
        <ele>887</ele>
        <time>2023-05-18T06:25:42Z</time>
      </trkpt>
      <trkpt lat="42.98169" lon="0.23662">
        <ele>892</ele>
        <time>2023-05-18T06:25:49Z</time>
      </trkpt>
      <trkpt lat="42.9802" lon="0.23835">
        <ele>897</ele>
        <time>2023-05-18T06:26:24Z</time>
      </trkpt>
      <trkpt lat="42.97992" lon="0.23872">
        <ele>895</ele>
        <time>2023-05-18T06:26:31Z</time>
      </trkpt>
      <trkpt lat="42.97939" lon="0.23952">
        <ele>902</ele>
        <time>2023-05-18T06:26:45Z</time>
      </trkpt>
      <trkpt lat="42.97925" lon="0.23963">
        <ele>904</ele>
        <time>2023-05-18T06:26:48Z</time>
      </trkpt>
      <trkpt lat="42.97875" lon="0.2399">
        <ele>913</ele>
        <time>2023-05-18T06:26:57Z</time>
      </trkpt>
      <trkpt lat="42.97851" lon="0.2401">
        <ele>916</ele>
        <time>2023-05-18T06:27:02Z</time>
      </trkpt>
      <trkpt lat="42.97842" lon="0.24023">
        <ele>916</ele>
        <time>2023-05-18T06:27:05Z</time>
      </trkpt>
      <trkpt lat="42.97828" lon="0.24054">
        <ele>911</ele>
        <time>2023-05-18T06:27:09Z</time>
      </trkpt>
      <trkpt lat="42.97774" lon="0.24199">
        <ele>908</ele>
        <time>2023-05-18T06:27:31Z</time>
      </trkpt>
      <trkpt lat="42.97753" lon="0.24234">
        <ele>902</ele>
        <time>2023-05-18T06:27:36Z</time>
      </trkpt>
      <trkpt lat="42.9773" lon="0.2425">
        <ele>901</ele>
        <time>2023-05-18T06:27:41Z</time>
      </trkpt>
      <trkpt lat="42.97702" lon="0.24261">
        <ele>904</ele>
        <time>2023-05-18T06:27:46Z</time>
      </trkpt>
      <trkpt lat="42.97661" lon="0.24273">
        <ele>907</ele>
        <time>2023-05-18T06:27:54Z</time>
      </trkpt>
      <trkpt lat="42.97575" lon="0.24289">
        <ele>914</ele>
        <time>2023-05-18T06:28:09Z</time>
      </trkpt>
      <trkpt lat="42.97527" lon="0.24312">
        <ele>912</ele>
        <time>2023-05-18T06:28:18Z</time>
      </trkpt>
      <trkpt lat="42.97509" lon="0.24317">
        <ele>912</ele>
        <time>2023-05-18T06:28:21Z</time>
      </trkpt>
      <trkpt lat="42.9748" lon="0.24319">
        <ele>913</ele>
        <time>2023-05-18T06:28:27Z</time>
      </trkpt>
      <trkpt lat="42.97433" lon="0.24317">
        <ele>916</ele>
        <time>2023-05-18T06:28:35Z</time>
      </trkpt>
      <trkpt lat="42.97385" lon="0.24322">
        <ele>916</ele>
        <time>2023-05-18T06:28:44Z</time>
      </trkpt>
      <trkpt lat="42.97236" lon="0.24372">
        <ele>922</ele>
        <time>2023-05-18T06:29:11Z</time>
      </trkpt>
      <trkpt lat="42.97178" lon="0.244">
        <ele>921</ele>
        <time>2023-05-18T06:29:22Z</time>
      </trkpt>
      <trkpt lat="42.97148" lon="0.24405">
        <ele>923</ele>
        <time>2023-05-18T06:29:27Z</time>
      </trkpt>
      <trkpt lat="42.96988" lon="0.2442">
        <ele>939</ele>
        <time>2023-05-18T06:29:56Z</time>
      </trkpt>
      <trkpt lat="42.96948" lon="0.2442">
        <ele>942</ele>
        <time>2023-05-18T06:30:03Z</time>
      </trkpt>
      <trkpt lat="42.96912" lon="0.24423">
        <ele>944</ele>
        <time>2023-05-18T06:30:09Z</time>
      </trkpt>
      <trkpt lat="42.96885" lon="0.24431">
        <ele>943</ele>
        <time>2023-05-18T06:30:14Z</time>
      </trkpt>
      <trkpt lat="42.96772" lon="0.24485">
        <ele>942</ele>
        <time>2023-05-18T06:30:35Z</time>
      </trkpt>
      <trkpt lat="42.96721" lon="0.24498">
        <ele>944</ele>
        <time>2023-05-18T06:30:45Z</time>
      </trkpt>
      <trkpt lat="42.96688" lon="0.24503">
        <ele>945</ele>
        <time>2023-05-18T06:30:51Z</time>
      </trkpt>
      <trkpt lat="42.96641" lon="0.24505">
        <ele>949</ele>
        <time>2023-05-18T06:30:59Z</time>
      </trkpt>
      <trkpt lat="42.96627" lon="0.24508">
        <ele>950</ele>
        <time>2023-05-18T06:31:01Z</time>
      </trkpt>
      <trkpt lat="42.966" lon="0.2452">
        <ele>952</ele>
        <time>2023-05-18T06:31:07Z</time>
      </trkpt>
      <trkpt lat="42.96519" lon="0.24583">
        <ele>952</ele>
        <time>2023-05-18T06:31:23Z</time>
      </trkpt>
      <trkpt lat="42.96494" lon="0.24608">
        <ele>953</ele>
        <time>2023-05-18T06:31:29Z</time>
      </trkpt>
      <trkpt lat="42.96425" lon="0.24686">
        <ele>957</ele>
        <time>2023-05-18T06:31:45Z</time>
      </trkpt>
      <trkpt lat="42.9641" lon="0.24707">
        <ele>958</ele>
        <time>2023-05-18T06:31:48Z</time>
      </trkpt>
      <trkpt lat="42.96384" lon="0.24764">
        <ele>958</ele>
        <time>2023-05-18T06:31:57Z</time>
      </trkpt>
      <trkpt lat="42.96351" lon="0.24827">
        <ele>961</ele>
        <time>2023-05-18T06:32:07Z</time>
      </trkpt>
      <trkpt lat="42.96335" lon="0.24866">
        <ele>961</ele>
        <time>2023-05-18T06:32:13Z</time>
      </trkpt>
      <trkpt lat="42.963" lon="0.24923">
        <ele>963</ele>
        <time>2023-05-18T06:32:23Z</time>
      </trkpt>
      <trkpt lat="42.96283" lon="0.24959">
        <ele>964</ele>
        <time>2023-05-18T06:32:28Z</time>
      </trkpt>
      <trkpt lat="42.96268" lon="0.24998">
        <ele>964</ele>
        <time>2023-05-18T06:32:34Z</time>
      </trkpt>
      <trkpt lat="42.96188" lon="0.25138">
        <ele>972</ele>
        <time>2023-05-18T06:32:57Z</time>
      </trkpt>
      <trkpt lat="42.96072" lon="0.25287">
        <ele>982</ele>
        <time>2023-05-18T06:33:25Z</time>
      </trkpt>
      <trkpt lat="42.96001" lon="0.25388">
        <ele>986</ele>
        <time>2023-05-18T06:33:44Z</time>
      </trkpt>
      <trkpt lat="42.95948" lon="0.25451">
        <ele>986</ele>
        <time>2023-05-18T06:33:56Z</time>
      </trkpt>
      <trkpt lat="42.95867" lon="0.25523">
        <ele>995</ele>
        <time>2023-05-18T06:34:13Z</time>
      </trkpt>
      <trkpt lat="42.95822" lon="0.2557">
        <ele>996</ele>
        <time>2023-05-18T06:34:23Z</time>
      </trkpt>
      <trkpt lat="42.95751" lon="0.25659">
        <ele>995</ele>
        <time>2023-05-18T06:34:41Z</time>
      </trkpt>
      <trkpt lat="42.95709" lon="0.25704">
        <ele>998</ele>
        <time>2023-05-18T06:34:50Z</time>
      </trkpt>
      <trkpt lat="42.9564" lon="0.25771">
        <ele>1002</ele>
        <time>2023-05-18T06:35:05Z</time>
      </trkpt>
      <trkpt lat="42.95616" lon="0.25799">
        <ele>1002</ele>
        <time>2023-05-18T06:35:11Z</time>
      </trkpt>
      <trkpt lat="42.95604" lon="0.25816">
        <ele>1001</ele>
        <time>2023-05-18T06:35:14Z</time>
      </trkpt>
      <trkpt lat="42.95588" lon="0.25848">
        <ele>1001</ele>
        <time>2023-05-18T06:35:19Z</time>
      </trkpt>
      <trkpt lat="42.95564" lon="0.25918">
        <ele>1001</ele>
        <time>2023-05-18T06:35:29Z</time>
      </trkpt>
      <trkpt lat="42.9555" lon="0.25945">
        <ele>1003</ele>
        <time>2023-05-18T06:35:33Z</time>
      </trkpt>
      <trkpt lat="42.9554" lon="0.25955">
        <ele>1004</ele>
        <time>2023-05-18T06:35:35Z</time>
      </trkpt>
      <trkpt lat="42.9552" lon="0.25968">
        <ele>1005</ele>
        <time>2023-05-18T06:35:39Z</time>
      </trkpt>
      <trkpt lat="42.95397" lon="0.26023">
        <ele>1015</ele>
        <time>2023-05-18T06:36:02Z</time>
      </trkpt>
      <trkpt lat="42.95372" lon="0.26041">
        <ele>1019</ele>
        <time>2023-05-18T06:36:07Z</time>
      </trkpt>
      <trkpt lat="42.95365" lon="0.26049">
        <ele>1019</ele>
        <time>2023-05-18T06:36:09Z</time>
      </trkpt>
      <trkpt lat="42.9535" lon="0.26072">
        <ele>1019</ele>
        <time>2023-05-18T06:36:13Z</time>
      </trkpt>
      <trkpt lat="42.95296" lon="0.26174">
        <ele>1021</ele>
        <time>2023-05-18T06:36:30Z</time>
      </trkpt>
      <trkpt lat="42.95262" lon="0.26251">
        <ele>1025</ele>
        <time>2023-05-18T06:36:41Z</time>
      </trkpt>
      <trkpt lat="42.95232" lon="0.26331">
        <ele>1031</ele>
        <time>2023-05-18T06:36:53Z</time>
      </trkpt>
      <trkpt lat="42.95209" lon="0.26412">
        <ele>1043</ele>
        <time>2023-05-18T06:37:04Z</time>
      </trkpt>
      <trkpt lat="42.95199" lon="0.26431">
        <ele>1044</ele>
        <time>2023-05-18T06:37:07Z</time>
      </trkpt>
      <trkpt lat="42.95175" lon="0.26457">
        <ele>1047</ele>
        <time>2023-05-18T06:37:13Z</time>
      </trkpt>
      <trkpt lat="42.95162" lon="0.26475">
        <ele>1048</ele>
        <time>2023-05-18T06:37:16Z</time>
      </trkpt>
      <trkpt lat="42.95146" lon="0.26509">
        <ele>1050</ele>
        <time>2023-05-18T06:37:21Z</time>
      </trkpt>
      <trkpt lat="42.9514" lon="0.26535">
        <ele>1051</ele>
        <time>2023-05-18T06:37:25Z</time>
      </trkpt>
      <trkpt lat="42.95136" lon="0.26613">
        <ele>1052</ele>
        <time>2023-05-18T06:37:35Z</time>
      </trkpt>
      <trkpt lat="42.95131" lon="0.26641">
        <ele>1055</ele>
        <time>2023-05-18T06:37:39Z</time>
      </trkpt>
      <trkpt lat="42.95124" lon="0.26659">
        <ele>1056</ele>
        <time>2023-05-18T06:37:41Z</time>
      </trkpt>
      <trkpt lat="42.9511" lon="0.26681">
        <ele>1058</ele>
        <time>2023-05-18T06:37:45Z</time>
      </trkpt>
      <trkpt lat="42.95069" lon="0.26711">
        <ele>1061</ele>
        <time>2023-05-18T06:37:54Z</time>
      </trkpt>
      <trkpt lat="42.95032" lon="0.2675">
        <ele>1066</ele>
        <time>2023-05-18T06:38:02Z</time>
      </trkpt>
      <trkpt lat="42.94999" lon="0.26773">
        <ele>1068</ele>
        <time>2023-05-18T06:38:08Z</time>
      </trkpt>
      <trkpt lat="42.94984" lon="0.26792">
        <ele>1073</ele>
        <time>2023-05-18T06:38:12Z</time>
      </trkpt>
      <trkpt lat="42.94978" lon="0.26818">
        <ele>1073</ele>
        <time>2023-05-18T06:38:16Z</time>
      </trkpt>
      <trkpt lat="42.94984" lon="0.26879">
        <ele>1069</ele>
        <time>2023-05-18T06:38:24Z</time>
      </trkpt>
      <trkpt lat="42.94981" lon="0.26896">
        <ele>1070</ele>
        <time>2023-05-18T06:38:26Z</time>
      </trkpt>
      <trkpt lat="42.94976" lon="0.26911">
        <ele>1071</ele>
        <time>2023-05-18T06:38:28Z</time>
      </trkpt>
      <trkpt lat="42.94933" lon="0.26998">
        <ele>1072</ele>
        <time>2023-05-18T06:38:42Z</time>
      </trkpt>
      <trkpt lat="42.94918" lon="0.27022">
        <ele>1074</ele>
        <time>2023-05-18T06:38:46Z</time>
      </trkpt>
      <trkpt lat="42.94898" lon="0.27045">
        <ele>1079</ele>
        <time>2023-05-18T06:38:50Z</time>
      </trkpt>
      <trkpt lat="42.94883" lon="0.27053">
        <ele>1081</ele>
        <time>2023-05-18T06:38:53Z</time>
      </trkpt>
      <trkpt lat="42.94866" lon="0.27056">
        <ele>1083</ele>
        <time>2023-05-18T06:38:56Z</time>
      </trkpt>
      <trkpt lat="42.94825" lon="0.27058">
        <ele>1088</ele>
        <time>2023-05-18T06:39:04Z</time>
      </trkpt>
      <trkpt lat="42.94793" lon="0.27065">
        <ele>1092</ele>
        <time>2023-05-18T06:39:09Z</time>
      </trkpt>
      <trkpt lat="42.9476" lon="0.27077">
        <ele>1093</ele>
        <time>2023-05-18T06:39:16Z</time>
      </trkpt>
      <trkpt lat="42.94728" lon="0.27094">
        <ele>1096</ele>
        <time>2023-05-18T06:39:22Z</time>
      </trkpt>
      <trkpt lat="42.94692" lon="0.2712">
        <ele>1098</ele>
        <time>2023-05-18T06:39:29Z</time>
      </trkpt>
      <trkpt lat="42.94612" lon="0.27194">
        <ele>1098</ele>
        <time>2023-05-18T06:39:46Z</time>
      </trkpt>
      <trkpt lat="42.94591" lon="0.27207">
        <ele>1097</ele>
        <time>2023-05-18T06:39:50Z</time>
      </trkpt>
      <trkpt lat="42.94571" lon="0.2723">
        <ele>1096</ele>
        <time>2023-05-18T06:39:55Z</time>
      </trkpt>
      <trkpt lat="42.94554" lon="0.27266">
        <ele>1097</ele>
        <time>2023-05-18T06:40:00Z</time>
      </trkpt>
      <trkpt lat="42.94507" lon="0.2742">
        <ele>1089</ele>
        <time>2023-05-18T06:40:22Z</time>
      </trkpt>
      <trkpt lat="42.9448" lon="0.27487">
        <ele>1088</ele>
        <time>2023-05-18T06:40:32Z</time>
      </trkpt>
      <trkpt lat="42.94468" lon="0.27535">
        <ele>1091</ele>
        <time>2023-05-18T06:40:39Z</time>
      </trkpt>
      <trkpt lat="42.94461" lon="0.27575">
        <ele>1093</ele>
        <time>2023-05-18T06:40:44Z</time>
      </trkpt>
      <trkpt lat="42.94451" lon="0.27609">
        <ele>1097</ele>
        <time>2023-05-18T06:40:49Z</time>
      </trkpt>
      <trkpt lat="42.94432" lon="0.27638">
        <ele>1096</ele>
        <time>2023-05-18T06:40:54Z</time>
      </trkpt>
      <trkpt lat="42.94408" lon="0.27668">
        <ele>1094</ele>
        <time>2023-05-18T06:41:00Z</time>
      </trkpt>
      <trkpt lat="42.94397" lon="0.27688">
        <ele>1095</ele>
        <time>2023-05-18T06:41:03Z</time>
      </trkpt>
      <trkpt lat="42.9438" lon="0.27731">
        <ele>1097</ele>
        <time>2023-05-18T06:41:09Z</time>
      </trkpt>
      <trkpt lat="42.94362" lon="0.27789">
        <ele>1097</ele>
        <time>2023-05-18T06:41:18Z</time>
      </trkpt>
      <trkpt lat="42.94358" lon="0.27844">
        <ele>1098</ele>
        <time>2023-05-18T06:41:25Z</time>
      </trkpt>
      <trkpt lat="42.94364" lon="0.27958">
        <ele>1101</ele>
        <time>2023-05-18T06:41:40Z</time>
      </trkpt>
      <trkpt lat="42.9436" lon="0.27988">
        <ele>1098</ele>
        <time>2023-05-18T06:41:44Z</time>
      </trkpt>
      <trkpt lat="42.94343" lon="0.2805">
        <ele>1095</ele>
        <time>2023-05-18T06:41:52Z</time>
      </trkpt>
      <trkpt lat="42.9433" lon="0.2812">
        <ele>1098</ele>
        <time>2023-05-18T06:42:02Z</time>
      </trkpt>
      <trkpt lat="42.94289" lon="0.28206">
        <ele>1102</ele>
        <time>2023-05-18T06:42:15Z</time>
      </trkpt>
      <trkpt lat="42.94282" lon="0.2823">
        <ele>1103</ele>
        <time>2023-05-18T06:42:18Z</time>
      </trkpt>
      <trkpt lat="42.94278" lon="0.28256">
        <ele>1104</ele>
        <time>2023-05-18T06:42:22Z</time>
      </trkpt>
      <trkpt lat="42.94277" lon="0.28289">
        <ele>1104</ele>
        <time>2023-05-18T06:42:26Z</time>
      </trkpt>
      <trkpt lat="42.94281" lon="0.2836">
        <ele>1108</ele>
        <time>2023-05-18T06:42:35Z</time>
      </trkpt>
      <trkpt lat="42.94283" lon="0.28486">
        <ele>1107</ele>
        <time>2023-05-18T06:42:52Z</time>
      </trkpt>
      <trkpt lat="42.94289" lon="0.28527">
        <ele>1107</ele>
        <time>2023-05-18T06:42:57Z</time>
      </trkpt>
      <trkpt lat="42.94304" lon="0.28565">
        <ele>1107</ele>
        <time>2023-05-18T06:43:03Z</time>
      </trkpt>
      <trkpt lat="42.94417" lon="0.28768">
        <ele>1106</ele>
        <time>2023-05-18T06:43:36Z</time>
      </trkpt>
      <trkpt lat="42.94427" lon="0.28797">
        <ele>1108</ele>
        <time>2023-05-18T06:43:40Z</time>
      </trkpt>
      <trkpt lat="42.94429" lon="0.2881">
        <ele>1108</ele>
        <time>2023-05-18T06:43:42Z</time>
      </trkpt>
      <trkpt lat="42.94431" lon="0.28838">
        <ele>1110</ele>
        <time>2023-05-18T06:43:46Z</time>
      </trkpt>
      <trkpt lat="42.94429" lon="0.28863">
        <ele>1113</ele>
        <time>2023-05-18T06:43:49Z</time>
      </trkpt>
      <trkpt lat="42.94421" lon="0.28892">
        <ele>1117</ele>
        <time>2023-05-18T06:43:53Z</time>
      </trkpt>
      <trkpt lat="42.9441" lon="0.28904">
        <ele>1120</ele>
        <time>2023-05-18T06:43:55Z</time>
      </trkpt>
      <trkpt lat="42.94399" lon="0.28906">
        <ele>1122</ele>
        <time>2023-05-18T06:43:57Z</time>
      </trkpt>
      <trkpt lat="42.94385" lon="0.28897">
        <ele>1124</ele>
        <time>2023-05-18T06:44:00Z</time>
      </trkpt>
      <trkpt lat="42.9437" lon="0.28881">
        <ele>1124</ele>
        <time>2023-05-18T06:44:04Z</time>
      </trkpt>
      <trkpt lat="42.94348" lon="0.28863">
        <ele>1125</ele>
        <time>2023-05-18T06:44:08Z</time>
      </trkpt>
      <trkpt lat="42.94321" lon="0.28851">
        <ele>1126</ele>
        <time>2023-05-18T06:44:13Z</time>
      </trkpt>
      <trkpt lat="42.94308" lon="0.28847">
        <ele>1126</ele>
        <time>2023-05-18T06:44:16Z</time>
      </trkpt>
      <trkpt lat="42.94256" lon="0.2884">
        <ele>1128</ele>
        <time>2023-05-18T06:44:25Z</time>
      </trkpt>
      <trkpt lat="42.94226" lon="0.28845">
        <ele>1130</ele>
        <time>2023-05-18T06:44:30Z</time>
      </trkpt>
      <trkpt lat="42.94186" lon="0.28863">
        <ele>1135</ele>
        <time>2023-05-18T06:44:38Z</time>
      </trkpt>
      <trkpt lat="42.94141" lon="0.28891">
        <ele>1139</ele>
        <time>2023-05-18T06:44:47Z</time>
      </trkpt>
      <trkpt lat="42.94117" lon="0.28913">
        <ele>1140</ele>
        <time>2023-05-18T06:44:52Z</time>
      </trkpt>
      <trkpt lat="42.94099" lon="0.2894">
        <ele>1143</ele>
        <time>2023-05-18T06:44:56Z</time>
      </trkpt>
      <trkpt lat="42.94069" lon="0.2902">
        <ele>1150</ele>
        <time>2023-05-18T06:45:08Z</time>
      </trkpt>
      <trkpt lat="42.94066" lon="0.29039">
        <ele>1153</ele>
        <time>2023-05-18T06:45:11Z</time>
      </trkpt>
      <trkpt lat="42.94072" lon="0.29051">
        <ele>1158</ele>
        <time>2023-05-18T06:45:13Z</time>
      </trkpt>
      <trkpt lat="42.94079" lon="0.29052">
        <ele>1161</ele>
        <time>2023-05-18T06:45:14Z</time>
      </trkpt>
      <trkpt lat="42.94085" lon="0.29049">
        <ele>1162</ele>
        <time>2023-05-18T06:45:15Z</time>
      </trkpt>
      <trkpt lat="42.94099" lon="0.29026">
        <ele>1160</ele>
        <time>2023-05-18T06:45:19Z</time>
      </trkpt>
      <trkpt lat="42.94112" lon="0.29015">
        <ele>1160</ele>
        <time>2023-05-18T06:45:22Z</time>
      </trkpt>
      <trkpt lat="42.94134" lon="0.2901">
        <ele>1163</ele>
        <time>2023-05-18T06:45:26Z</time>
      </trkpt>
      <trkpt lat="42.94174" lon="0.29012">
        <ele>1170</ele>
        <time>2023-05-18T06:45:33Z</time>
      </trkpt>
      <trkpt lat="42.94266" lon="0.29022">
        <ele>1175</ele>
        <time>2023-05-18T06:45:49Z</time>
      </trkpt>
      <trkpt lat="42.94272" lon="0.29028">
        <ele>1175</ele>
        <time>2023-05-18T06:45:50Z</time>
      </trkpt>
      <trkpt lat="42.94274" lon="0.29043">
        <ele>1178</ele>
        <time>2023-05-18T06:45:52Z</time>
      </trkpt>
      <trkpt lat="42.94268" lon="0.29049">
        <ele>1181</ele>
        <time>2023-05-18T06:45:54Z</time>
      </trkpt>
      <trkpt lat="42.94259" lon="0.29052">
        <ele>1184</ele>
        <time>2023-05-18T06:45:55Z</time>
      </trkpt>
      <trkpt lat="42.94233" lon="0.29052">
        <ele>1184</ele>
        <time>2023-05-18T06:46:00Z</time>
      </trkpt>
      <trkpt lat="42.94215" lon="0.29058">
        <ele>1184</ele>
        <time>2023-05-18T06:46:03Z</time>
      </trkpt>
      <trkpt lat="42.94195" lon="0.29072">
        <ele>1185</ele>
        <time>2023-05-18T06:46:07Z</time>
      </trkpt>
      <trkpt lat="42.94158" lon="0.29114">
        <ele>1191</ele>
        <time>2023-05-18T06:46:16Z</time>
      </trkpt>
      <trkpt lat="42.94072" lon="0.29267">
        <ele>1206</ele>
        <time>2023-05-18T06:46:41Z</time>
      </trkpt>
      <trkpt lat="42.9404" lon="0.29304">
        <ele>1204</ele>
        <time>2023-05-18T06:46:48Z</time>
      </trkpt>
      <trkpt lat="42.94036" lon="0.29316">
        <ele>1206</ele>
        <time>2023-05-18T06:46:50Z</time>
      </trkpt>
      <trkpt lat="42.9404" lon="0.29327">
        <ele>1210</ele>
        <time>2023-05-18T06:46:52Z</time>
      </trkpt>
      <trkpt lat="42.94047" lon="0.29331">
        <ele>1212</ele>
        <time>2023-05-18T06:46:53Z</time>
      </trkpt>
      <trkpt lat="42.94051" lon="0.29329">
        <ele>1213</ele>
        <time>2023-05-18T06:46:54Z</time>
      </trkpt>
      <trkpt lat="42.94074" lon="0.29304">
        <ele>1214</ele>
        <time>2023-05-18T06:46:59Z</time>
      </trkpt>
      <trkpt lat="42.94089" lon="0.29294">
        <ele>1216</ele>
        <time>2023-05-18T06:47:02Z</time>
      </trkpt>
      <trkpt lat="42.94175" lon="0.29257">
        <ele>1223</ele>
        <time>2023-05-18T06:47:18Z</time>
      </trkpt>
      <trkpt lat="42.94237" lon="0.29243">
        <ele>1224</ele>
        <time>2023-05-18T06:47:29Z</time>
      </trkpt>
      <trkpt lat="42.94245" lon="0.29248">
        <ele>1225</ele>
        <time>2023-05-18T06:47:31Z</time>
      </trkpt>
      <trkpt lat="42.94248" lon="0.29257">
        <ele>1226</ele>
        <time>2023-05-18T06:47:32Z</time>
      </trkpt>
      <trkpt lat="42.94248" lon="0.29273">
        <ele>1228</ele>
        <time>2023-05-18T06:47:34Z</time>
      </trkpt>
      <trkpt lat="42.94243" lon="0.29283">
        <ele>1230</ele>
        <time>2023-05-18T06:47:36Z</time>
      </trkpt>
      <trkpt lat="42.9423" lon="0.29293">
        <ele>1231</ele>
        <time>2023-05-18T06:47:38Z</time>
      </trkpt>
      <trkpt lat="42.94209" lon="0.29304">
        <ele>1232</ele>
        <time>2023-05-18T06:47:42Z</time>
      </trkpt>
      <trkpt lat="42.94192" lon="0.29318">
        <ele>1234</ele>
        <time>2023-05-18T06:47:46Z</time>
      </trkpt>
      <trkpt lat="42.94145" lon="0.29379">
        <ele>1242</ele>
        <time>2023-05-18T06:47:58Z</time>
      </trkpt>
      <trkpt lat="42.94114" lon="0.29427">
        <ele>1247</ele>
        <time>2023-05-18T06:48:06Z</time>
      </trkpt>
      <trkpt lat="42.94099" lon="0.29459">
        <ele>1252</ele>
        <time>2023-05-18T06:48:11Z</time>
      </trkpt>
      <trkpt lat="42.94076" lon="0.29526">
        <ele>1261</ele>
        <time>2023-05-18T06:48:20Z</time>
      </trkpt>
      <trkpt lat="42.94045" lon="0.29592">
        <ele>1266</ele>
        <time>2023-05-18T06:48:31Z</time>
      </trkpt>
      <trkpt lat="42.94033" lon="0.29651">
        <ele>1276</ele>
        <time>2023-05-18T06:48:39Z</time>
      </trkpt>
      <trkpt lat="42.94022" lon="0.29665">
        <ele>1277</ele>
        <time>2023-05-18T06:48:41Z</time>
      </trkpt>
      <trkpt lat="42.93994" lon="0.29676">
        <ele>1274</ele>
        <time>2023-05-18T06:48:47Z</time>
      </trkpt>
      <trkpt lat="42.93974" lon="0.29687">
        <ele>1271</ele>
        <time>2023-05-18T06:48:50Z</time>
      </trkpt>
      <trkpt lat="42.9396" lon="0.29703">
        <ele>1272</ele>
        <time>2023-05-18T06:48:54Z</time>
      </trkpt>
      <trkpt lat="42.93937" lon="0.29747">
        <ele>1278</ele>
        <time>2023-05-18T06:49:01Z</time>
      </trkpt>
      <trkpt lat="42.93911" lon="0.29828">
        <ele>1285</ele>
        <time>2023-05-18T06:49:12Z</time>
      </trkpt>
      <trkpt lat="42.93907" lon="0.29851">
        <ele>1283</ele>
        <time>2023-05-18T06:49:15Z</time>
      </trkpt>
      <trkpt lat="42.93907" lon="0.29885">
        <ele>1281</ele>
        <time>2023-05-18T06:49:20Z</time>
      </trkpt>
      <trkpt lat="42.93914" lon="0.29901">
        <ele>1283</ele>
        <time>2023-05-18T06:49:22Z</time>
      </trkpt>
      <trkpt lat="42.93932" lon="0.2992">
        <ele>1289</ele>
        <time>2023-05-18T06:49:26Z</time>
      </trkpt>
      <trkpt lat="42.93947" lon="0.29942">
        <ele>1295</ele>
        <time>2023-05-18T06:49:30Z</time>
      </trkpt>
      <trkpt lat="42.9395" lon="0.29955">
        <ele>1296</ele>
        <time>2023-05-18T06:49:32Z</time>
      </trkpt>
      <trkpt lat="42.93951" lon="0.30004">
        <ele>1294</ele>
        <time>2023-05-18T06:49:38Z</time>
      </trkpt>
      <trkpt lat="42.93954" lon="0.30021">
        <ele>1294</ele>
        <time>2023-05-18T06:49:40Z</time>
      </trkpt>
      <trkpt lat="42.93965" lon="0.30034">
        <ele>1297</ele>
        <time>2023-05-18T06:49:43Z</time>
      </trkpt>
      <trkpt lat="42.93994" lon="0.30039">
        <ele>1308</ele>
        <time>2023-05-18T06:49:48Z</time>
      </trkpt>
      <trkpt lat="42.94001" lon="0.30045">
        <ele>1310</ele>
        <time>2023-05-18T06:49:50Z</time>
      </trkpt>
      <trkpt lat="42.94024" lon="0.30096">
        <ele>1311</ele>
        <time>2023-05-18T06:49:58Z</time>
      </trkpt>
      <trkpt lat="42.94035" lon="0.30115">
        <ele>1312</ele>
        <time>2023-05-18T06:50:01Z</time>
      </trkpt>
      <trkpt lat="42.94053" lon="0.30164">
        <ele>1312</ele>
        <time>2023-05-18T06:50:08Z</time>
      </trkpt>
      <trkpt lat="42.94068" lon="0.30191">
        <ele>1315</ele>
        <time>2023-05-18T06:50:12Z</time>
      </trkpt>
      <trkpt lat="42.94086" lon="0.30209">
        <ele>1319</ele>
        <time>2023-05-18T06:50:16Z</time>
      </trkpt>
      <trkpt lat="42.94109" lon="0.30218">
        <ele>1326</ele>
        <time>2023-05-18T06:50:20Z</time>
      </trkpt>
      <trkpt lat="42.94141" lon="0.30259">
        <ele>1332</ele>
        <time>2023-05-18T06:50:28Z</time>
      </trkpt>
      <trkpt lat="42.9415" lon="0.30307">
        <ele>1328</ele>
        <time>2023-05-18T06:50:35Z</time>
      </trkpt>
      <trkpt lat="42.94157" lon="0.30327">
        <ele>1328</ele>
        <time>2023-05-18T06:50:38Z</time>
      </trkpt>
      <trkpt lat="42.94179" lon="0.30367">
        <ele>1334</ele>
        <time>2023-05-18T06:50:44Z</time>
      </trkpt>
      <trkpt lat="42.94203" lon="0.30438">
        <ele>1338</ele>
        <time>2023-05-18T06:50:54Z</time>
      </trkpt>
      <trkpt lat="42.94222" lon="0.30475">
        <ele>1343</ele>
        <time>2023-05-18T06:51:00Z</time>
      </trkpt>
      <trkpt lat="42.94227" lon="0.30514">
        <ele>1342</ele>
        <time>2023-05-18T06:51:05Z</time>
      </trkpt>
      <trkpt lat="42.94231" lon="0.30526">
        <ele>1343</ele>
        <time>2023-05-18T06:51:07Z</time>
      </trkpt>
      <trkpt lat="42.94235" lon="0.30532">
        <ele>1344</ele>
        <time>2023-05-18T06:51:08Z</time>
      </trkpt>
      <trkpt lat="42.94245" lon="0.30539">
        <ele>1348</ele>
        <time>2023-05-18T06:51:10Z</time>
      </trkpt>
      <trkpt lat="42.94269" lon="0.30543">
        <ele>1356</ele>
        <time>2023-05-18T06:51:14Z</time>
      </trkpt>
      <trkpt lat="42.94275" lon="0.30546">
        <ele>1357</ele>
        <time>2023-05-18T06:51:16Z</time>
      </trkpt>
      <trkpt lat="42.94282" lon="0.30559">
        <ele>1358</ele>
        <time>2023-05-18T06:51:18Z</time>
      </trkpt>
      <trkpt lat="42.94281" lon="0.30671">
        <ele>1358</ele>
        <time>2023-05-18T06:51:32Z</time>
      </trkpt>
      <trkpt lat="42.94287" lon="0.30682">
        <ele>1360</ele>
        <time>2023-05-18T06:51:34Z</time>
      </trkpt>
      <trkpt lat="42.94306" lon="0.307">
        <ele>1366</ele>
        <time>2023-05-18T06:51:38Z</time>
      </trkpt>
      <trkpt lat="42.94309" lon="0.30713">
        <ele>1368</ele>
        <time>2023-05-18T06:51:40Z</time>
      </trkpt>
      <trkpt lat="42.94279" lon="0.30803">
        <ele>1364</ele>
        <time>2023-05-18T06:51:53Z</time>
      </trkpt>
      <trkpt lat="42.94264" lon="0.30874">
        <ele>1368</ele>
        <time>2023-05-18T06:52:02Z</time>
      </trkpt>
      <trkpt lat="42.94251" lon="0.30994">
        <ele>1379</ele>
        <time>2023-05-18T06:52:18Z</time>
      </trkpt>
      <trkpt lat="42.94243" lon="0.31101">
        <ele>1380</ele>
        <time>2023-05-18T06:52:32Z</time>
      </trkpt>
      <trkpt lat="42.94245" lon="0.31132">
        <ele>1378</ele>
        <time>2023-05-18T06:52:36Z</time>
      </trkpt>
      <trkpt lat="42.94257" lon="0.31148">
        <ele>1381</ele>
        <time>2023-05-18T06:52:39Z</time>
      </trkpt>
      <trkpt lat="42.94289" lon="0.31156">
        <ele>1389</ele>
        <time>2023-05-18T06:52:45Z</time>
      </trkpt>
      <trkpt lat="42.94299" lon="0.31164">
        <ele>1391</ele>
        <time>2023-05-18T06:52:47Z</time>
      </trkpt>
      <trkpt lat="42.9432" lon="0.3119">
        <ele>1390</ele>
        <time>2023-05-18T06:52:52Z</time>
      </trkpt>
      <trkpt lat="42.9435" lon="0.31234">
        <ele>1389</ele>
        <time>2023-05-18T06:53:00Z</time>
      </trkpt>
      <trkpt lat="42.94399" lon="0.31285">
        <ele>1394</ele>
        <time>2023-05-18T06:53:11Z</time>
      </trkpt>
      <trkpt lat="42.94414" lon="0.31311">
        <ele>1395</ele>
        <time>2023-05-18T06:53:15Z</time>
      </trkpt>
      <trkpt lat="42.94458" lon="0.31409">
        <ele>1400</ele>
        <time>2023-05-18T06:53:30Z</time>
      </trkpt>
      <trkpt lat="42.9447" lon="0.31437">
        <ele>1403</ele>
        <time>2023-05-18T06:53:35Z</time>
      </trkpt>
      <trkpt lat="42.9448" lon="0.31472">
        <ele>1403</ele>
        <time>2023-05-18T06:53:39Z</time>
      </trkpt>
      <trkpt lat="42.94495" lon="0.31503">
        <ele>1406</ele>
        <time>2023-05-18T06:53:44Z</time>
      </trkpt>
      <trkpt lat="42.94561" lon="0.31598">
        <ele>1416</ele>
        <time>2023-05-18T06:54:01Z</time>
      </trkpt>
      <trkpt lat="42.94587" lon="0.31622">
        <ele>1420</ele>
        <time>2023-05-18T06:54:07Z</time>
      </trkpt>
      <trkpt lat="42.94608" lon="0.31636">
        <ele>1426</ele>
        <time>2023-05-18T06:54:11Z</time>
      </trkpt>
      <trkpt lat="42.94625" lon="0.31657">
        <ele>1430</ele>
        <time>2023-05-18T06:54:15Z</time>
      </trkpt>
      <trkpt lat="42.94646" lon="0.31691">
        <ele>1439</ele>
        <time>2023-05-18T06:54:21Z</time>
      </trkpt>
      <trkpt lat="42.9465" lon="0.31703">
        <ele>1442</ele>
        <time>2023-05-18T06:54:23Z</time>
      </trkpt>
      <trkpt lat="42.94651" lon="0.31717">
        <ele>1443</ele>
        <time>2023-05-18T06:54:24Z</time>
      </trkpt>
      <trkpt lat="42.94649" lon="0.31724">
        <ele>1443</ele>
        <time>2023-05-18T06:54:25Z</time>
      </trkpt>
      <trkpt lat="42.9464" lon="0.31735">
        <ele>1439</ele>
        <time>2023-05-18T06:54:28Z</time>
      </trkpt>
      <trkpt lat="42.9462" lon="0.31751">
        <ele>1432</ele>
        <time>2023-05-18T06:54:32Z</time>
      </trkpt>
      <trkpt lat="42.94601" lon="0.31781">
        <ele>1430</ele>
        <time>2023-05-18T06:54:37Z</time>
      </trkpt>
      <trkpt lat="42.94586" lon="0.31819">
        <ele>1431</ele>
        <time>2023-05-18T06:54:43Z</time>
      </trkpt>
      <trkpt lat="42.9456" lon="0.31904">
        <ele>1447</ele>
        <time>2023-05-18T06:54:55Z</time>
      </trkpt>
      <trkpt lat="42.94495" lon="0.32021">
        <ele>1456</ele>
        <time>2023-05-18T06:55:14Z</time>
      </trkpt>
      <trkpt lat="42.94406" lon="0.3224">
        <ele>1461</ele>
        <time>2023-05-18T06:55:46Z</time>
      </trkpt>
      <trkpt lat="42.94382" lon="0.32282">
        <ele>1462</ele>
        <time>2023-05-18T06:55:53Z</time>
      </trkpt>
      <trkpt lat="42.94369" lon="0.3231">
        <ele>1463</ele>
        <time>2023-05-18T06:55:58Z</time>
      </trkpt>
      <trkpt lat="42.94362" lon="0.32343">
        <ele>1466</ele>
        <time>2023-05-18T06:56:02Z</time>
      </trkpt>
      <trkpt lat="42.94354" lon="0.3243">
        <ele>1471</ele>
        <time>2023-05-18T06:56:13Z</time>
      </trkpt>
      <trkpt lat="42.9434" lon="0.32498">
        <ele>1473</ele>
        <time>2023-05-18T06:56:23Z</time>
      </trkpt>
      <trkpt lat="42.94327" lon="0.32582">
        <ele>1483</ele>
        <time>2023-05-18T06:56:34Z</time>
      </trkpt>
      <trkpt lat="42.94316" lon="0.32621">
        <ele>1489</ele>
        <time>2023-05-18T06:56:39Z</time>
      </trkpt>
      <trkpt lat="42.94298" lon="0.32656">
        <ele>1493</ele>
        <time>2023-05-18T06:56:45Z</time>
      </trkpt>
      <trkpt lat="42.94245" lon="0.32721">
        <ele>1487</ele>
        <time>2023-05-18T06:56:57Z</time>
      </trkpt>
      <trkpt lat="42.94235" lon="0.32738">
        <ele>1486</ele>
        <time>2023-05-18T06:57:00Z</time>
      </trkpt>
      <trkpt lat="42.9423" lon="0.32752">
        <ele>1485</ele>
        <time>2023-05-18T06:57:02Z</time>
      </trkpt>
      <trkpt lat="42.94227" lon="0.32781">
        <ele>1483</ele>
        <time>2023-05-18T06:57:06Z</time>
      </trkpt>
      <trkpt lat="42.9423" lon="0.32803">
        <ele>1481</ele>
        <time>2023-05-18T06:57:09Z</time>
      </trkpt>
      <trkpt lat="42.94245" lon="0.32844">
        <ele>1482</ele>
        <time>2023-05-18T06:57:15Z</time>
      </trkpt>
      <trkpt lat="42.94259" lon="0.32904">
        <ele>1477</ele>
        <time>2023-05-18T06:57:23Z</time>
      </trkpt>
      <trkpt lat="42.94272" lon="0.32931">
        <ele>1477</ele>
        <time>2023-05-18T06:57:27Z</time>
      </trkpt>
      <trkpt lat="42.94282" lon="0.32962">
        <ele>1476</ele>
        <time>2023-05-18T06:57:32Z</time>
      </trkpt>
      <trkpt lat="42.94291" lon="0.33092">
        <ele>1460</ele>
        <time>2023-05-18T06:57:49Z</time>
      </trkpt>
      <trkpt lat="42.943" lon="0.33104">
        <ele>1462</ele>
        <time>2023-05-18T06:57:51Z</time>
      </trkpt>
      <trkpt lat="42.94315" lon="0.33117">
        <ele>1467</ele>
        <time>2023-05-18T06:57:54Z</time>
      </trkpt>
      <trkpt lat="42.94323" lon="0.33131">
        <ele>1467</ele>
        <time>2023-05-18T06:57:57Z</time>
      </trkpt>
      <trkpt lat="42.94335" lon="0.33169">
        <ele>1461</ele>
        <time>2023-05-18T06:58:02Z</time>
      </trkpt>
      <trkpt lat="42.94348" lon="0.33182">
        <ele>1464</ele>
        <time>2023-05-18T06:58:05Z</time>
      </trkpt>
      <trkpt lat="42.94371" lon="0.33194">
        <ele>1473</ele>
        <time>2023-05-18T06:58:09Z</time>
      </trkpt>
      <trkpt lat="42.94377" lon="0.332">
        <ele>1475</ele>
        <time>2023-05-18T06:58:11Z</time>
      </trkpt>
      <trkpt lat="42.94383" lon="0.33237">
        <ele>1470</ele>
        <time>2023-05-18T06:58:15Z</time>
      </trkpt>
      <trkpt lat="42.94384" lon="0.33347">
        <ele>1462</ele>
        <time>2023-05-18T06:58:30Z</time>
      </trkpt>
      <trkpt lat="42.94378" lon="0.33377">
        <ele>1459</ele>
        <time>2023-05-18T06:58:34Z</time>
      </trkpt>
      <trkpt lat="42.94335" lon="0.33522">
        <ele>1435</ele>
        <time>2023-05-18T06:58:54Z</time>
      </trkpt>
      <trkpt lat="42.9433" lon="0.33547">
        <ele>1431</ele>
        <time>2023-05-18T06:58:58Z</time>
      </trkpt>
      <trkpt lat="42.94331" lon="0.33641">
        <ele>1437</ele>
        <time>2023-05-18T06:59:10Z</time>
      </trkpt>
      <trkpt lat="42.9433" lon="0.33662">
        <ele>1437</ele>
        <time>2023-05-18T06:59:13Z</time>
      </trkpt>
      <trkpt lat="42.94326" lon="0.33681">
        <ele>1439</ele>
        <time>2023-05-18T06:59:15Z</time>
      </trkpt>
      <trkpt lat="42.94316" lon="0.33699">
        <ele>1438</ele>
        <time>2023-05-18T06:59:18Z</time>
      </trkpt>
      <trkpt lat="42.94274" lon="0.33748">
        <ele>1429</ele>
        <time>2023-05-18T06:59:28Z</time>
      </trkpt>
      <trkpt lat="42.94257" lon="0.33759">
        <ele>1422</ele>
        <time>2023-05-18T06:59:31Z</time>
      </trkpt>
      <trkpt lat="42.94238" lon="0.33766">
        <ele>1415</ele>
        <time>2023-05-18T06:59:35Z</time>
      </trkpt>
      <trkpt lat="42.94225" lon="0.33779">
        <ele>1413</ele>
        <time>2023-05-18T06:59:38Z</time>
      </trkpt>
      <trkpt lat="42.942" lon="0.33835">
        <ele>1415</ele>
        <time>2023-05-18T06:59:46Z</time>
      </trkpt>
      <trkpt lat="42.94162" lon="0.3395">
        <ele>1406</ele>
        <time>2023-05-18T07:00:03Z</time>
      </trkpt>
      <trkpt lat="42.94145" lon="0.34016">
        <ele>1399</ele>
        <time>2023-05-18T07:00:12Z</time>
      </trkpt>
      <trkpt lat="42.94123" lon="0.34167">
        <ele>1388</ele>
        <time>2023-05-18T07:00:32Z</time>
      </trkpt>
      <trkpt lat="42.94078" lon="0.34338">
        <ele>1378</ele>
        <time>2023-05-18T07:00:55Z</time>
      </trkpt>
      <trkpt lat="42.94072" lon="0.3437">
        <ele>1375</ele>
        <time>2023-05-18T07:01:00Z</time>
      </trkpt>
      <trkpt lat="42.94071" lon="0.34409">
        <ele>1375</ele>
        <time>2023-05-18T07:01:05Z</time>
      </trkpt>
      <trkpt lat="42.94076" lon="0.34425">
        <ele>1376</ele>
        <time>2023-05-18T07:01:07Z</time>
      </trkpt>
      <trkpt lat="42.94088" lon="0.34443">
        <ele>1375</ele>
        <time>2023-05-18T07:01:10Z</time>
      </trkpt>
      <trkpt lat="42.94091" lon="0.34456">
        <ele>1373</ele>
        <time>2023-05-18T07:01:12Z</time>
      </trkpt>
      <trkpt lat="42.9409" lon="0.34463">
        <ele>1371</ele>
        <time>2023-05-18T07:01:13Z</time>
      </trkpt>
      <trkpt lat="42.94085" lon="0.34472">
        <ele>1370</ele>
        <time>2023-05-18T07:01:14Z</time>
      </trkpt>
      <trkpt lat="42.9408" lon="0.34475">
        <ele>1369</ele>
        <time>2023-05-18T07:01:15Z</time>
      </trkpt>
      <trkpt lat="42.94071" lon="0.34474">
        <ele>1366</ele>
        <time>2023-05-18T07:01:17Z</time>
      </trkpt>
      <trkpt lat="42.9406" lon="0.34461">
        <ele>1365</ele>
        <time>2023-05-18T07:01:20Z</time>
      </trkpt>
      <trkpt lat="42.9404" lon="0.34395">
        <ele>1362</ele>
        <time>2023-05-18T07:01:29Z</time>
      </trkpt>
      <trkpt lat="42.94036" lon="0.34365">
        <ele>1359</ele>
        <time>2023-05-18T07:01:33Z</time>
      </trkpt>
      <trkpt lat="42.94038" lon="0.34331">
        <ele>1359</ele>
        <time>2023-05-18T07:01:37Z</time>
      </trkpt>
      <trkpt lat="42.94057" lon="0.34143">
        <ele>1352</ele>
        <time>2023-05-18T07:02:02Z</time>
      </trkpt>
      <trkpt lat="42.9405" lon="0.34121">
        <ele>1350</ele>
        <time>2023-05-18T07:02:05Z</time>
      </trkpt>
      <trkpt lat="42.94027" lon="0.341">
        <ele>1341</ele>
        <time>2023-05-18T07:02:10Z</time>
      </trkpt>
      <trkpt lat="42.94017" lon="0.34081">
        <ele>1337</ele>
        <time>2023-05-18T07:02:13Z</time>
      </trkpt>
      <trkpt lat="42.94006" lon="0.33993">
        <ele>1332</ele>
        <time>2023-05-18T07:02:25Z</time>
      </trkpt>
      <trkpt lat="42.94007" lon="0.33924">
        <ele>1327</ele>
        <time>2023-05-18T07:02:34Z</time>
      </trkpt>
      <trkpt lat="42.9401" lon="0.33882">
        <ele>1323</ele>
        <time>2023-05-18T07:02:39Z</time>
      </trkpt>
      <trkpt lat="42.94026" lon="0.33765">
        <ele>1316</ele>
        <time>2023-05-18T07:02:55Z</time>
      </trkpt>
      <trkpt lat="42.94042" lon="0.33728">
        <ele>1315</ele>
        <time>2023-05-18T07:03:00Z</time>
      </trkpt>
      <trkpt lat="42.94073" lon="0.33681">
        <ele>1316</ele>
        <time>2023-05-18T07:03:09Z</time>
      </trkpt>
      <trkpt lat="42.94098" lon="0.33623">
        <ele>1309</ele>
        <time>2023-05-18T07:03:17Z</time>
      </trkpt>
      <trkpt lat="42.94102" lon="0.33617">
        <ele>1308</ele>
        <time>2023-05-18T07:03:18Z</time>
      </trkpt>
      <trkpt lat="42.94128" lon="0.33596">
        <ele>1312</ele>
        <time>2023-05-18T07:03:24Z</time>
      </trkpt>
      <trkpt lat="42.94141" lon="0.33573">
        <ele>1312</ele>
        <time>2023-05-18T07:03:28Z</time>
      </trkpt>
      <trkpt lat="42.94141" lon="0.33554">
        <ele>1311</ele>
        <time>2023-05-18T07:03:30Z</time>
      </trkpt>
      <trkpt lat="42.94133" lon="0.33543">
        <ele>1306</ele>
        <time>2023-05-18T07:03:32Z</time>
      </trkpt>
      <trkpt lat="42.94125" lon="0.33539">
        <ele>1302</ele>
        <time>2023-05-18T07:03:34Z</time>
      </trkpt>
      <trkpt lat="42.94112" lon="0.33545">
        <ele>1297</ele>
        <time>2023-05-18T07:03:36Z</time>
      </trkpt>
      <trkpt lat="42.94105" lon="0.33558">
        <ele>1295</ele>
        <time>2023-05-18T07:03:38Z</time>
      </trkpt>
      <trkpt lat="42.94097" lon="0.33582">
        <ele>1295</ele>
        <time>2023-05-18T07:03:42Z</time>
      </trkpt>
      <trkpt lat="42.94079" lon="0.33616">
        <ele>1298</ele>
        <time>2023-05-18T07:03:47Z</time>
      </trkpt>
      <trkpt lat="42.94065" lon="0.33638">
        <ele>1297</ele>
        <time>2023-05-18T07:03:51Z</time>
      </trkpt>
      <trkpt lat="42.9405" lon="0.33656">
        <ele>1295</ele>
        <time>2023-05-18T07:03:54Z</time>
      </trkpt>
      <trkpt lat="42.94006" lon="0.33697">
        <ele>1286</ele>
        <time>2023-05-18T07:04:04Z</time>
      </trkpt>
      <trkpt lat="42.93968" lon="0.33721">
        <ele>1274</ele>
        <time>2023-05-18T07:04:11Z</time>
      </trkpt>
      <trkpt lat="42.93956" lon="0.33736">
        <ele>1272</ele>
        <time>2023-05-18T07:04:14Z</time>
      </trkpt>
      <trkpt lat="42.93935" lon="0.33793">
        <ele>1273</ele>
        <time>2023-05-18T07:04:23Z</time>
      </trkpt>
      <trkpt lat="42.93902" lon="0.33857">
        <ele>1268</ele>
        <time>2023-05-18T07:04:33Z</time>
      </trkpt>
      <trkpt lat="42.93871" lon="0.33911">
        <ele>1264</ele>
        <time>2023-05-18T07:04:42Z</time>
      </trkpt>
      <trkpt lat="42.9382" lon="0.33983">
        <ele>1254</ele>
        <time>2023-05-18T07:04:55Z</time>
      </trkpt>
      <trkpt lat="42.93804" lon="0.34012">
        <ele>1248</ele>
        <time>2023-05-18T07:04:59Z</time>
      </trkpt>
      <trkpt lat="42.93794" lon="0.34047">
        <ele>1241</ele>
        <time>2023-05-18T07:05:04Z</time>
      </trkpt>
      <trkpt lat="42.93793" lon="0.34071">
        <ele>1239</ele>
        <time>2023-05-18T07:05:08Z</time>
      </trkpt>
      <trkpt lat="42.93795" lon="0.34081">
        <ele>1239</ele>
        <time>2023-05-18T07:05:09Z</time>
      </trkpt>
      <trkpt lat="42.93803" lon="0.34096">
        <ele>1239</ele>
        <time>2023-05-18T07:05:11Z</time>
      </trkpt>
      <trkpt lat="42.9383" lon="0.34111">
        <ele>1246</ele>
        <time>2023-05-18T07:05:16Z</time>
      </trkpt>
      <trkpt lat="42.93838" lon="0.34121">
        <ele>1248</ele>
        <time>2023-05-18T07:05:18Z</time>
      </trkpt>
      <trkpt lat="42.93847" lon="0.34153">
        <ele>1247</ele>
        <time>2023-05-18T07:05:23Z</time>
      </trkpt>
      <trkpt lat="42.93857" lon="0.34172">
        <ele>1250</ele>
        <time>2023-05-18T07:05:26Z</time>
      </trkpt>
      <trkpt lat="42.9386" lon="0.34185">
        <ele>1253</ele>
        <time>2023-05-18T07:05:28Z</time>
      </trkpt>
      <trkpt lat="42.93856" lon="0.34201">
        <ele>1253</ele>
        <time>2023-05-18T07:05:30Z</time>
      </trkpt>
      <trkpt lat="42.93844" lon="0.34225">
        <ele>1250</ele>
        <time>2023-05-18T07:05:34Z</time>
      </trkpt>
      <trkpt lat="42.93815" lon="0.34266">
        <ele>1242</ele>
        <time>2023-05-18T07:05:41Z</time>
      </trkpt>
      <trkpt lat="42.93723" lon="0.34352">
        <ele>1225</ele>
        <time>2023-05-18T07:06:01Z</time>
      </trkpt>
      <trkpt lat="42.93618" lon="0.34477">
        <ele>1215</ele>
        <time>2023-05-18T07:06:26Z</time>
      </trkpt>
      <trkpt lat="42.93518" lon="0.34563">
        <ele>1204</ele>
        <time>2023-05-18T07:06:47Z</time>
      </trkpt>
      <trkpt lat="42.93469" lon="0.34598">
        <ele>1202</ele>
        <time>2023-05-18T07:06:57Z</time>
      </trkpt>
      <trkpt lat="42.93439" lon="0.34616">
        <ele>1200</ele>
        <time>2023-05-18T07:07:02Z</time>
      </trkpt>
      <trkpt lat="42.9338" lon="0.34645">
        <ele>1193</ele>
        <time>2023-05-18T07:07:14Z</time>
      </trkpt>
      <trkpt lat="42.93332" lon="0.34665">
        <ele>1186</ele>
        <time>2023-05-18T07:07:22Z</time>
      </trkpt>
      <trkpt lat="42.9327" lon="0.34701">
        <ele>1181</ele>
        <time>2023-05-18T07:07:34Z</time>
      </trkpt>
      <trkpt lat="42.93223" lon="0.34723">
        <ele>1176</ele>
        <time>2023-05-18T07:07:43Z</time>
      </trkpt>
      <trkpt lat="42.9317" lon="0.34765">
        <ele>1173</ele>
        <time>2023-05-18T07:07:54Z</time>
      </trkpt>
      <trkpt lat="42.93155" lon="0.34778">
        <ele>1171</ele>
        <time>2023-05-18T07:07:57Z</time>
      </trkpt>
      <trkpt lat="42.93048" lon="0.34899">
        <ele>1158</ele>
        <time>2023-05-18T07:08:22Z</time>
      </trkpt>
      <trkpt lat="42.92916" lon="0.35028">
        <ele>1138</ele>
        <time>2023-05-18T07:08:51Z</time>
      </trkpt>
      <trkpt lat="42.92859" lon="0.35076">
        <ele>1132</ele>
        <time>2023-05-18T07:09:03Z</time>
      </trkpt>
      <trkpt lat="42.92831" lon="0.35096">
        <ele>1128</ele>
        <time>2023-05-18T07:09:09Z</time>
      </trkpt>
      <trkpt lat="42.92785" lon="0.35119">
        <ele>1123</ele>
        <time>2023-05-18T07:09:17Z</time>
      </trkpt>
      <trkpt lat="42.92753" lon="0.35127">
        <ele>1119</ele>
        <time>2023-05-18T07:09:23Z</time>
      </trkpt>
      <trkpt lat="42.92737" lon="0.35129">
        <ele>1117</ele>
        <time>2023-05-18T07:09:26Z</time>
      </trkpt>
      <trkpt lat="42.92714" lon="0.35128">
        <ele>1112</ele>
        <time>2023-05-18T07:09:30Z</time>
      </trkpt>
      <trkpt lat="42.9269" lon="0.35136">
        <ele>1109</ele>
        <time>2023-05-18T07:09:34Z</time>
      </trkpt>
      <trkpt lat="42.92678" lon="0.35149">
        <ele>1109</ele>
        <time>2023-05-18T07:09:37Z</time>
      </trkpt>
      <trkpt lat="42.92616" lon="0.35244">
        <ele>1106</ele>
        <time>2023-05-18T07:09:54Z</time>
      </trkpt>
      <trkpt lat="42.92568" lon="0.35304">
        <ele>1097</ele>
        <time>2023-05-18T07:10:05Z</time>
      </trkpt>
      <trkpt lat="42.92545" lon="0.35338">
        <ele>1093</ele>
        <time>2023-05-18T07:10:11Z</time>
      </trkpt>
      <trkpt lat="42.92529" lon="0.35371">
        <ele>1091</ele>
        <time>2023-05-18T07:10:16Z</time>
      </trkpt>
      <trkpt lat="42.92522" lon="0.35411">
        <ele>1094</ele>
        <time>2023-05-18T07:10:22Z</time>
      </trkpt>
      <trkpt lat="42.92516" lon="0.35419">
        <ele>1094</ele>
        <time>2023-05-18T07:10:23Z</time>
      </trkpt>
      <trkpt lat="42.92508" lon="0.35422">
        <ele>1092</ele>
        <time>2023-05-18T07:10:25Z</time>
      </trkpt>
      <trkpt lat="42.92498" lon="0.35414">
        <ele>1091</ele>
        <time>2023-05-18T07:10:27Z</time>
      </trkpt>
      <trkpt lat="42.92495" lon="0.35401">
        <ele>1088</ele>
        <time>2023-05-18T07:10:29Z</time>
      </trkpt>
      <trkpt lat="42.92496" lon="0.35393">
        <ele>1087</ele>
        <time>2023-05-18T07:10:30Z</time>
      </trkpt>
      <trkpt lat="42.92527" lon="0.35293">
        <ele>1083</ele>
        <time>2023-05-18T07:10:44Z</time>
      </trkpt>
      <trkpt lat="42.92541" lon="0.35219">
        <ele>1079</ele>
        <time>2023-05-18T07:10:54Z</time>
      </trkpt>
      <trkpt lat="42.92552" lon="0.35179">
        <ele>1077</ele>
        <time>2023-05-18T07:10:59Z</time>
      </trkpt>
      <trkpt lat="42.92604" lon="0.35052">
        <ele>1066</ele>
        <time>2023-05-18T07:11:18Z</time>
      </trkpt>
      <trkpt lat="42.92625" lon="0.35006">
        <ele>1063</ele>
        <time>2023-05-18T07:11:25Z</time>
      </trkpt>
      <trkpt lat="42.92673" lon="0.3492">
        <ele>1057</ele>
        <time>2023-05-18T07:11:39Z</time>
      </trkpt>
      <trkpt lat="42.92688" lon="0.34899">
        <ele>1056</ele>
        <time>2023-05-18T07:11:43Z</time>
      </trkpt>
      <trkpt lat="42.92706" lon="0.34881">
        <ele>1057</ele>
        <time>2023-05-18T07:11:47Z</time>
      </trkpt>
      <trkpt lat="42.92732" lon="0.34847">
        <ele>1056</ele>
        <time>2023-05-18T07:11:54Z</time>
      </trkpt>
      <trkpt lat="42.92779" lon="0.34778">
        <ele>1052</ele>
        <time>2023-05-18T07:12:06Z</time>
      </trkpt>
      <trkpt lat="42.92792" lon="0.34748">
        <ele>1048</ele>
        <time>2023-05-18T07:12:10Z</time>
      </trkpt>
      <trkpt lat="42.92795" lon="0.34723">
        <ele>1046</ele>
        <time>2023-05-18T07:12:14Z</time>
      </trkpt>
      <trkpt lat="42.92795" lon="0.34608">
        <ele>1035</ele>
        <time>2023-05-18T07:12:29Z</time>
      </trkpt>
      <trkpt lat="42.92817" lon="0.34532">
        <ele>1031</ele>
        <time>2023-05-18T07:12:39Z</time>
      </trkpt>
      <trkpt lat="42.92807" lon="0.34513">
        <ele>1028</ele>
        <time>2023-05-18T07:12:42Z</time>
      </trkpt>
      <trkpt lat="42.92741" lon="0.34448">
        <ele>1014</ele>
        <time>2023-05-18T07:12:57Z</time>
      </trkpt>
      <trkpt lat="42.9273" lon="0.34443">
        <ele>1013</ele>
        <time>2023-05-18T07:12:59Z</time>
      </trkpt>
      <trkpt lat="42.92709" lon="0.34443">
        <ele>1011</ele>
        <time>2023-05-18T07:13:03Z</time>
      </trkpt>
      <trkpt lat="42.9272" lon="0.34435">
        <ele>1010</ele>
        <time>2023-05-18T07:13:05Z</time>
      </trkpt>
      <trkpt lat="42.92731" lon="0.34432">
        <ele>1011</ele>
        <time>2023-05-18T07:13:07Z</time>
      </trkpt>
      <trkpt lat="42.92791" lon="0.34435">
        <ele>1013</ele>
        <time>2023-05-18T07:13:18Z</time>
      </trkpt>
      <trkpt lat="42.92817" lon="0.34434">
        <ele>1013</ele>
        <time>2023-05-18T07:13:22Z</time>
      </trkpt>
      <trkpt lat="42.92973" lon="0.34392">
        <ele>1008</ele>
        <time>2023-05-18T07:13:51Z</time>
      </trkpt>
      <trkpt lat="42.92988" lon="0.34385">
        <ele>1007</ele>
        <time>2023-05-18T07:13:53Z</time>
      </trkpt>
      <trkpt lat="42.92997" lon="0.34373">
        <ele>1004</ele>
        <time>2023-05-18T07:13:56Z</time>
      </trkpt>
      <trkpt lat="42.93013" lon="0.34336">
        <ele>995</ele>
        <time>2023-05-18T07:14:01Z</time>
      </trkpt>
      <trkpt lat="42.93023" lon="0.34322">
        <ele>994</ele>
        <time>2023-05-18T07:14:04Z</time>
      </trkpt>
      <trkpt lat="42.93075" lon="0.34279">
        <ele>992</ele>
        <time>2023-05-18T07:14:15Z</time>
      </trkpt>
      <trkpt lat="42.93098" lon="0.34264">
        <ele>992</ele>
        <time>2023-05-18T07:14:19Z</time>
      </trkpt>
      <trkpt lat="42.93126" lon="0.34251">
        <ele>993</ele>
        <time>2023-05-18T07:14:24Z</time>
      </trkpt>
      <trkpt lat="42.93132" lon="0.34242">
        <ele>990</ele>
        <time>2023-05-18T07:14:26Z</time>
      </trkpt>
      <trkpt lat="42.93129" lon="0.34237">
        <ele>988</ele>
        <time>2023-05-18T07:14:27Z</time>
      </trkpt>
      <trkpt lat="42.93126" lon="0.34236">
        <ele>987</ele>
        <time>2023-05-18T07:14:27Z</time>
      </trkpt>
      <trkpt lat="42.93106" lon="0.34248">
        <ele>988</ele>
        <time>2023-05-18T07:14:31Z</time>
      </trkpt>
      <trkpt lat="42.93067" lon="0.34256">
        <ele>982</ele>
        <time>2023-05-18T07:14:38Z</time>
      </trkpt>
      <trkpt lat="42.93025" lon="0.34272">
        <ele>978</ele>
        <time>2023-05-18T07:14:46Z</time>
      </trkpt>
      <trkpt lat="42.93012" lon="0.3428">
        <ele>977</ele>
        <time>2023-05-18T07:14:49Z</time>
      </trkpt>
      <trkpt lat="42.92989" lon="0.34311">
        <ele>983</ele>
        <time>2023-05-18T07:14:54Z</time>
      </trkpt>
      <trkpt lat="42.92979" lon="0.34317">
        <ele>984</ele>
        <time>2023-05-18T07:14:56Z</time>
      </trkpt>
      <trkpt lat="42.92964" lon="0.34314">
        <ele>981</ele>
        <time>2023-05-18T07:14:59Z</time>
      </trkpt>
      <trkpt lat="42.92892" lon="0.34277">
        <ele>961</ele>
        <time>2023-05-18T07:15:13Z</time>
      </trkpt>
      <trkpt lat="42.92879" lon="0.34268">
        <ele>957</ele>
        <time>2023-05-18T07:15:15Z</time>
      </trkpt>
      <trkpt lat="42.92875" lon="0.34256">
        <ele>952</ele>
        <time>2023-05-18T07:15:17Z</time>
      </trkpt>
      <trkpt lat="42.9288" lon="0.3425">
        <ele>950</ele>
        <time>2023-05-18T07:15:18Z</time>
      </trkpt>
      <trkpt lat="42.92888" lon="0.34251">
        <ele>951</ele>
        <time>2023-05-18T07:15:20Z</time>
      </trkpt>
      <trkpt lat="42.92912" lon="0.34268">
        <ele>959</ele>
        <time>2023-05-18T07:15:24Z</time>
      </trkpt>
      <trkpt lat="42.92931" lon="0.34275">
        <ele>964</ele>
        <time>2023-05-18T07:15:28Z</time>
      </trkpt>
      <trkpt lat="42.92949" lon="0.34277">
        <ele>967</ele>
        <time>2023-05-18T07:15:31Z</time>
      </trkpt>
      <trkpt lat="42.92967" lon="0.3427">
        <ele>967</ele>
        <time>2023-05-18T07:15:34Z</time>
      </trkpt>
      <trkpt lat="42.92974" lon="0.3426">
        <ele>964</ele>
        <time>2023-05-18T07:15:36Z</time>
      </trkpt>
      <trkpt lat="42.92983" lon="0.3422">
        <ele>950</ele>
        <time>2023-05-18T07:15:42Z</time>
      </trkpt>
      <trkpt lat="42.92993" lon="0.34206">
        <ele>946</ele>
        <time>2023-05-18T07:15:44Z</time>
      </trkpt>
      <trkpt lat="42.93005" lon="0.34194">
        <ele>943</ele>
        <time>2023-05-18T07:15:47Z</time>
      </trkpt>
      <trkpt lat="42.93068" lon="0.34153">
        <ele>942</ele>
        <time>2023-05-18T07:15:59Z</time>
      </trkpt>
      <trkpt lat="42.931" lon="0.34124">
        <ele>941</ele>
        <time>2023-05-18T07:16:06Z</time>
      </trkpt>
      <trkpt lat="42.93126" lon="0.34076">
        <ele>935</ele>
        <time>2023-05-18T07:16:14Z</time>
      </trkpt>
      <trkpt lat="42.93129" lon="0.34049">
        <ele>938</ele>
        <time>2023-05-18T07:16:17Z</time>
      </trkpt>
      <trkpt lat="42.93111" lon="0.34084">
        <ele>932</ele>
        <time>2023-05-18T07:16:23Z</time>
      </trkpt>
      <trkpt lat="42.9309" lon="0.34105">
        <ele>933</ele>
        <time>2023-05-18T07:16:28Z</time>
      </trkpt>
      <trkpt lat="42.93078" lon="0.34111">
        <ele>933</ele>
        <time>2023-05-18T07:16:30Z</time>
      </trkpt>
      <trkpt lat="42.93026" lon="0.34115">
        <ele>927</ele>
        <time>2023-05-18T07:16:39Z</time>
      </trkpt>
      <trkpt lat="42.9299" lon="0.34111">
        <ele>922</ele>
        <time>2023-05-18T07:16:46Z</time>
      </trkpt>
      <trkpt lat="42.9298" lon="0.34112">
        <ele>921</ele>
        <time>2023-05-18T07:16:47Z</time>
      </trkpt>
      <trkpt lat="42.9296" lon="0.34119">
        <ele>918</ele>
        <time>2023-05-18T07:16:51Z</time>
      </trkpt>
      <trkpt lat="42.92932" lon="0.34133">
        <ele>914</ele>
        <time>2023-05-18T07:16:56Z</time>
      </trkpt>
      <trkpt lat="42.92912" lon="0.34136">
        <ele>912</ele>
        <time>2023-05-18T07:17:00Z</time>
      </trkpt>
      <trkpt lat="42.92842" lon="0.34131">
        <ele>910</ele>
        <time>2023-05-18T07:17:12Z</time>
      </trkpt>
      <trkpt lat="42.92751" lon="0.34131">
        <ele>906</ele>
        <time>2023-05-18T07:17:29Z</time>
      </trkpt>
      <trkpt lat="42.92733" lon="0.34134">
        <ele>903</ele>
        <time>2023-05-18T07:17:32Z</time>
      </trkpt>
      <trkpt lat="42.92712" lon="0.34145">
        <ele>900</ele>
        <time>2023-05-18T07:17:36Z</time>
      </trkpt>
      <trkpt lat="42.92682" lon="0.34155">
        <ele>896</ele>
        <time>2023-05-18T07:17:41Z</time>
      </trkpt>
      <trkpt lat="42.92662" lon="0.34157">
        <ele>894</ele>
        <time>2023-05-18T07:17:45Z</time>
      </trkpt>
      <trkpt lat="42.92642" lon="0.34151">
        <ele>893</ele>
        <time>2023-05-18T07:17:49Z</time>
      </trkpt>
      <trkpt lat="42.92604" lon="0.34126">
        <ele>886</ele>
        <time>2023-05-18T07:17:56Z</time>
      </trkpt>
      <trkpt lat="42.92589" lon="0.3412">
        <ele>883</ele>
        <time>2023-05-18T07:17:59Z</time>
      </trkpt>
      <trkpt lat="42.92547" lon="0.34118">
        <ele>876</ele>
        <time>2023-05-18T07:18:06Z</time>
      </trkpt>
      <trkpt lat="42.92515" lon="0.34103">
        <ele>865</ele>
        <time>2023-05-18T07:18:12Z</time>
      </trkpt>
      <trkpt lat="42.92503" lon="0.34105">
        <ele>864</ele>
        <time>2023-05-18T07:18:14Z</time>
      </trkpt>
      <trkpt lat="42.92463" lon="0.34142">
        <ele>864</ele>
        <time>2023-05-18T07:18:23Z</time>
      </trkpt>
      <trkpt lat="42.92441" lon="0.34156">
        <ele>859</ele>
        <time>2023-05-18T07:18:27Z</time>
      </trkpt>
      <trkpt lat="42.9241" lon="0.34169">
        <ele>849</ele>
        <time>2023-05-18T07:18:33Z</time>
      </trkpt>
      <trkpt lat="42.92386" lon="0.34187">
        <ele>849</ele>
        <time>2023-05-18T07:18:38Z</time>
      </trkpt>
      <trkpt lat="42.92346" lon="0.34228">
        <ele>847</ele>
        <time>2023-05-18T07:18:47Z</time>
      </trkpt>
      <trkpt lat="42.92283" lon="0.34302">
        <ele>839</ele>
        <time>2023-05-18T07:19:02Z</time>
      </trkpt>
      <trkpt lat="42.92251" lon="0.34329">
        <ele>830</ele>
        <time>2023-05-18T07:19:08Z</time>
      </trkpt>
      <trkpt lat="42.92188" lon="0.3441">
        <ele>820</ele>
        <time>2023-05-18T07:19:24Z</time>
      </trkpt>
      <trkpt lat="42.92126" lon="0.34513">
        <ele>813</ele>
        <time>2023-05-18T07:19:41Z</time>
      </trkpt>
      <trkpt lat="42.92114" lon="0.34524">
        <ele>810</ele>
        <time>2023-05-18T07:19:44Z</time>
      </trkpt>
      <trkpt lat="42.92082" lon="0.3454">
        <ele>801</ele>
        <time>2023-05-18T07:19:50Z</time>
      </trkpt>
      <trkpt lat="42.92072" lon="0.34552">
        <ele>802</ele>
        <time>2023-05-18T07:19:52Z</time>
      </trkpt>
      <trkpt lat="42.92037" lon="0.34628">
        <ele>799</ele>
        <time>2023-05-18T07:20:04Z</time>
      </trkpt>
      <trkpt lat="42.92031" lon="0.34649">
        <ele>798</ele>
        <time>2023-05-18T07:20:07Z</time>
      </trkpt>
      <trkpt lat="42.92029" lon="0.34675">
        <ele>799</ele>
        <time>2023-05-18T07:20:10Z</time>
      </trkpt>
      <trkpt lat="42.9202" lon="0.34695">
        <ele>799</ele>
        <time>2023-05-18T07:20:13Z</time>
      </trkpt>
      <trkpt lat="42.92015" lon="0.34701">
        <ele>798</ele>
        <time>2023-05-18T07:20:14Z</time>
      </trkpt>
      <trkpt lat="42.92004" lon="0.3471">
        <ele>796</ele>
        <time>2023-05-18T07:20:17Z</time>
      </trkpt>
      <trkpt lat="42.91998" lon="0.34707">
        <ele>794</ele>
        <time>2023-05-18T07:20:18Z</time>
      </trkpt>
      <trkpt lat="42.92005" lon="0.347">
        <ele>795</ele>
        <time>2023-05-18T07:20:19Z</time>
      </trkpt>
      <trkpt lat="42.92014" lon="0.34683">
        <ele>795</ele>
        <time>2023-05-18T07:20:22Z</time>
      </trkpt>
      <trkpt lat="42.92014" lon="0.34652">
        <ele>792</ele>
        <time>2023-05-18T07:20:26Z</time>
      </trkpt>
      <trkpt lat="42.92027" lon="0.34603">
        <ele>795</ele>
        <time>2023-05-18T07:20:33Z</time>
      </trkpt>
      <trkpt lat="42.92022" lon="0.34586">
        <ele>794</ele>
        <time>2023-05-18T07:20:35Z</time>
      </trkpt>
      <trkpt lat="42.92007" lon="0.34575">
        <ele>792</ele>
        <time>2023-05-18T07:20:38Z</time>
      </trkpt>
      <trkpt lat="42.91998" lon="0.34574">
        <ele>792</ele>
        <time>2023-05-18T07:20:40Z</time>
      </trkpt>
      <trkpt lat="42.91986" lon="0.34584">
        <ele>793</ele>
        <time>2023-05-18T07:20:43Z</time>
      </trkpt>
      <trkpt lat="42.91948" lon="0.34661">
        <ele>790</ele>
        <time>2023-05-18T07:20:55Z</time>
      </trkpt>
      <trkpt lat="42.91929" lon="0.34679">
        <ele>788</ele>
        <time>2023-05-18T07:20:59Z</time>
      </trkpt>
      <trkpt lat="42.91887" lon="0.34705">
        <ele>789</ele>
        <time>2023-05-18T07:21:07Z</time>
      </trkpt>
      <trkpt lat="42.91864" lon="0.34727">
        <ele>787</ele>
        <time>2023-05-18T07:21:12Z</time>
      </trkpt>
      <trkpt lat="42.91846" lon="0.34749">
        <ele>784</ele>
        <time>2023-05-18T07:21:16Z</time>
      </trkpt>
      <trkpt lat="42.91831" lon="0.34778">
        <ele>781</ele>
        <time>2023-05-18T07:21:21Z</time>
      </trkpt>
      <trkpt lat="42.91814" lon="0.3484">
        <ele>778</ele>
        <time>2023-05-18T07:21:29Z</time>
      </trkpt>
      <trkpt lat="42.91804" lon="0.34864">
        <ele>779</ele>
        <time>2023-05-18T07:21:33Z</time>
      </trkpt>
      <trkpt lat="42.91757" lon="0.34911">
        <ele>780</ele>
        <time>2023-05-18T07:21:43Z</time>
      </trkpt>
      <trkpt lat="42.91744" lon="0.3493">
        <ele>782</ele>
        <time>2023-05-18T07:21:47Z</time>
      </trkpt>
      <trkpt lat="42.91736" lon="0.34948">
        <ele>783</ele>
        <time>2023-05-18T07:21:50Z</time>
      </trkpt>
      <trkpt lat="42.91733" lon="0.34969">
        <ele>782</ele>
        <time>2023-05-18T07:21:52Z</time>
      </trkpt>
      <trkpt lat="42.91739" lon="0.35011">
        <ele>773</ele>
        <time>2023-05-18T07:21:58Z</time>
      </trkpt>
      <trkpt lat="42.91733" lon="0.35048">
        <ele>772</ele>
        <time>2023-05-18T07:22:03Z</time>
      </trkpt>
      <trkpt lat="42.91724" lon="0.35074">
        <ele>773</ele>
        <time>2023-05-18T07:22:07Z</time>
      </trkpt>
      <trkpt lat="42.91711" lon="0.35097">
        <ele>775</ele>
        <time>2023-05-18T07:22:10Z</time>
      </trkpt>
      <trkpt lat="42.91683" lon="0.35129">
        <ele>779</ele>
        <time>2023-05-18T07:22:17Z</time>
      </trkpt>
      <trkpt lat="42.91673" lon="0.35147">
        <ele>779</ele>
        <time>2023-05-18T07:22:20Z</time>
      </trkpt>
      <trkpt lat="42.91654" lon="0.35229">
        <ele>772</ele>
        <time>2023-05-18T07:22:31Z</time>
      </trkpt>
      <trkpt lat="42.91651" lon="0.35252">
        <ele>770</ele>
        <time>2023-05-18T07:22:34Z</time>
      </trkpt>
      <trkpt lat="42.91654" lon="0.35276">
        <ele>766</ele>
        <time>2023-05-18T07:22:37Z</time>
      </trkpt>
      <trkpt lat="42.91654" lon="0.35305">
        <ele>764</ele>
        <time>2023-05-18T07:22:41Z</time>
      </trkpt>
      <trkpt lat="42.91645" lon="0.35341">
        <ele>765</ele>
        <time>2023-05-18T07:22:46Z</time>
      </trkpt>
      <trkpt lat="42.91625" lon="0.35398">
        <ele>770</ele>
        <time>2023-05-18T07:22:54Z</time>
      </trkpt>
      <trkpt lat="42.9162" lon="0.35429">
        <ele>769</ele>
        <time>2023-05-18T07:22:58Z</time>
      </trkpt>
      <trkpt lat="42.91619" lon="0.35528">
        <ele>755</ele>
        <time>2023-05-18T07:23:11Z</time>
      </trkpt>
      <trkpt lat="42.91614" lon="0.35539">
        <ele>754</ele>
        <time>2023-05-18T07:23:13Z</time>
      </trkpt>
      <trkpt lat="42.91583" lon="0.3556">
        <ele>755</ele>
        <time>2023-05-18T07:23:19Z</time>
      </trkpt>
      <trkpt lat="42.91569" lon="0.35576">
        <ele>755</ele>
        <time>2023-05-18T07:23:22Z</time>
      </trkpt>
      <trkpt lat="42.91521" lon="0.35676">
        <ele>750</ele>
        <time>2023-05-18T07:23:38Z</time>
      </trkpt>
      <trkpt lat="42.91509" lon="0.35712">
        <ele>748</ele>
        <time>2023-05-18T07:23:43Z</time>
      </trkpt>
      <trkpt lat="42.91502" lon="0.35746">
        <ele>744</ele>
        <time>2023-05-18T07:23:48Z</time>
      </trkpt>
      <trkpt lat="42.91487" lon="0.35855">
        <ele>730</ele>
        <time>2023-05-18T07:24:02Z</time>
      </trkpt>
      <trkpt lat="42.91478" lon="0.35872">
        <ele>726</ele>
        <time>2023-05-18T07:24:05Z</time>
      </trkpt>
      <trkpt lat="42.91465" lon="0.35878">
        <ele>724</ele>
        <time>2023-05-18T07:24:07Z</time>
      </trkpt>
      <trkpt lat="42.91457" lon="0.35878">
        <ele>724</ele>
        <time>2023-05-18T07:24:09Z</time>
      </trkpt>
      <trkpt lat="42.91439" lon="0.35873">
        <ele>724</ele>
        <time>2023-05-18T07:24:12Z</time>
      </trkpt>
      <trkpt lat="42.91422" lon="0.35864">
        <ele>727</ele>
        <time>2023-05-18T07:24:15Z</time>
      </trkpt>
      <trkpt lat="42.91385" lon="0.35835">
        <ele>734</ele>
        <time>2023-05-18T07:24:23Z</time>
      </trkpt>
      <trkpt lat="42.91366" lon="0.35825">
        <ele>734</ele>
        <time>2023-05-18T07:24:26Z</time>
      </trkpt>
      <trkpt lat="42.91332" lon="0.35821">
        <ele>733</ele>
        <time>2023-05-18T07:24:33Z</time>
      </trkpt>
      <trkpt lat="42.91283" lon="0.35828">
        <ele>730</ele>
        <time>2023-05-18T07:24:41Z</time>
      </trkpt>
      <trkpt lat="42.91234" lon="0.35848">
        <ele>725</ele>
        <time>2023-05-18T07:24:50Z</time>
      </trkpt>
      <trkpt lat="42.91193" lon="0.35873">
        <ele>724</ele>
        <time>2023-05-18T07:24:58Z</time>
      </trkpt>
      <trkpt lat="42.91145" lon="0.35911">
        <ele>718</ele>
        <time>2023-05-18T07:25:08Z</time>
      </trkpt>
      <trkpt lat="42.91088" lon="0.35961">
        <ele>712</ele>
        <time>2023-05-18T07:25:20Z</time>
      </trkpt>
      <trkpt lat="42.91065" lon="0.35976">
        <ele>710</ele>
        <time>2023-05-18T07:25:25Z</time>
      </trkpt>
      <trkpt lat="42.91001" lon="0.35999">
        <ele>707</ele>
        <time>2023-05-18T07:25:37Z</time>
      </trkpt>
      <trkpt lat="42.90973" lon="0.35999">
        <ele>706</ele>
        <time>2023-05-18T07:25:42Z</time>
      </trkpt>
      <trkpt lat="42.90954" lon="0.35991">
        <ele>707</ele>
        <time>2023-05-18T07:25:45Z</time>
      </trkpt>
      <trkpt lat="42.90945" lon="0.3599">
        <ele>707</ele>
        <time>2023-05-18T07:25:47Z</time>
      </trkpt>
      <trkpt lat="42.90939" lon="0.35993">
        <ele>706</ele>
        <time>2023-05-18T07:25:48Z</time>
      </trkpt>
      <trkpt lat="42.90932" lon="0.36003">
        <ele>704</ele>
        <time>2023-05-18T07:25:50Z</time>
      </trkpt>
      <trkpt lat="42.90918" lon="0.35977">
        <ele>708</ele>
        <time>2023-05-18T07:25:54Z</time>
      </trkpt>
      <trkpt lat="42.90859" lon="0.35905">
        <ele>712</ele>
        <time>2023-05-18T07:26:08Z</time>
      </trkpt>
      <trkpt lat="42.90788" lon="0.35829">
        <ele>713</ele>
        <time>2023-05-18T07:26:24Z</time>
      </trkpt>
      <trkpt lat="42.90703" lon="0.35754">
        <ele>709</ele>
        <time>2023-05-18T07:26:42Z</time>
      </trkpt>
      <trkpt lat="42.90678" lon="0.35745">
        <ele>706</ele>
        <time>2023-05-18T07:26:47Z</time>
      </trkpt>
      <trkpt lat="42.90611" lon="0.35754">
        <ele>702</ele>
        <time>2023-05-18T07:26:59Z</time>
      </trkpt>
      <trkpt lat="42.90591" lon="0.35753">
        <ele>702</ele>
        <time>2023-05-18T07:27:02Z</time>
      </trkpt>
      <trkpt lat="42.90577" lon="0.35747">
        <ele>702</ele>
        <time>2023-05-18T07:27:05Z</time>
      </trkpt>
      <trkpt lat="42.90564" lon="0.35738">
        <ele>704</ele>
        <time>2023-05-18T07:27:07Z</time>
      </trkpt>
      <trkpt lat="42.90544" lon="0.35718">
        <ele>706</ele>
        <time>2023-05-18T07:27:12Z</time>
      </trkpt>
      <trkpt lat="42.90505" lon="0.35672">
        <ele>710</ele>
        <time>2023-05-18T07:27:21Z</time>
      </trkpt>
      <trkpt lat="42.90467" lon="0.35623">
        <ele>709</ele>
        <time>2023-05-18T07:27:30Z</time>
      </trkpt>
      <trkpt lat="42.90402" lon="0.35529">
        <ele>710</ele>
        <time>2023-05-18T07:27:47Z</time>
      </trkpt>
      <trkpt lat="42.90388" lon="0.35514">
        <ele>710</ele>
        <time>2023-05-18T07:27:50Z</time>
      </trkpt>
      <trkpt lat="42.90345" lon="0.35478">
        <ele>712</ele>
        <time>2023-05-18T07:27:59Z</time>
      </trkpt>
      <trkpt lat="42.90253" lon="0.35391">
        <ele>719</ele>
        <time>2023-05-18T07:28:19Z</time>
      </trkpt>
      <trkpt lat="42.90147" lon="0.35318">
        <ele>721</ele>
        <time>2023-05-18T07:28:40Z</time>
      </trkpt>
      <trkpt lat="42.90087" lon="0.35288">
        <ele>726</ele>
        <time>2023-05-18T07:28:52Z</time>
      </trkpt>
      <trkpt lat="42.90068" lon="0.35283">
        <ele>727</ele>
        <time>2023-05-18T07:28:55Z</time>
      </trkpt>
      <trkpt lat="42.90042" lon="0.35283">
        <ele>726</ele>
        <time>2023-05-18T07:29:00Z</time>
      </trkpt>
      <trkpt lat="42.90024" lon="0.35286">
        <ele>725</ele>
        <time>2023-05-18T07:29:03Z</time>
      </trkpt>
      <trkpt lat="42.89959" lon="0.35308">
        <ele>721</ele>
        <time>2023-05-18T07:29:15Z</time>
      </trkpt>
      <trkpt lat="42.89946" lon="0.3531">
        <ele>721</ele>
        <time>2023-05-18T07:29:17Z</time>
      </trkpt>
      <trkpt lat="42.89907" lon="0.35308">
        <ele>724</ele>
        <time>2023-05-18T07:29:24Z</time>
      </trkpt>
      <trkpt lat="42.89869" lon="0.35299">
        <ele>724</ele>
        <time>2023-05-18T07:29:31Z</time>
      </trkpt>
      <trkpt lat="42.89843" lon="0.35297">
        <ele>724</ele>
        <time>2023-05-18T07:29:36Z</time>
      </trkpt>
      <trkpt lat="42.89822" lon="0.35301">
        <ele>724</ele>
        <time>2023-05-18T07:29:39Z</time>
      </trkpt>
      <trkpt lat="42.89804" lon="0.35308">
        <ele>723</ele>
        <time>2023-05-18T07:29:43Z</time>
      </trkpt>
      <trkpt lat="42.89755" lon="0.35337">
        <ele>720</ele>
        <time>2023-05-18T07:29:52Z</time>
      </trkpt>
      <trkpt lat="42.89572" lon="0.35463">
        <ele>721</ele>
        <time>2023-05-18T07:30:29Z</time>
      </trkpt>
      <trkpt lat="42.89554" lon="0.35492">
        <ele>723</ele>
        <time>2023-05-18T07:30:34Z</time>
      </trkpt>
      <trkpt lat="42.89549" lon="0.35511">
        <ele>724</ele>
        <time>2023-05-18T07:30:36Z</time>
      </trkpt>
      <trkpt lat="42.89535" lon="0.35518">
        <ele>726</ele>
        <time>2023-05-18T07:30:39Z</time>
      </trkpt>
      <trkpt lat="42.89526" lon="0.35515">
        <ele>726</ele>
        <time>2023-05-18T07:30:41Z</time>
      </trkpt>
      <trkpt lat="42.8952" lon="0.35508">
        <ele>726</ele>
        <time>2023-05-18T07:30:42Z</time>
      </trkpt>
      <trkpt lat="42.89517" lon="0.35492">
        <ele>725</ele>
        <time>2023-05-18T07:30:44Z</time>
      </trkpt>
      <trkpt lat="42.8952" lon="0.35479">
        <ele>724</ele>
        <time>2023-05-18T07:30:46Z</time>
      </trkpt>
      <trkpt lat="42.89387" lon="0.35379">
        <ele>731</ele>
        <time>2023-05-18T07:31:13Z</time>
      </trkpt>
      <trkpt lat="42.89347" lon="0.35354">
        <ele>731</ele>
        <time>2023-05-18T07:31:21Z</time>
      </trkpt>
      <trkpt lat="42.89293" lon="0.35326">
        <ele>735</ele>
        <time>2023-05-18T07:31:31Z</time>
      </trkpt>
      <trkpt lat="42.89218" lon="0.35296">
        <ele>740</ele>
        <time>2023-05-18T07:31:45Z</time>
      </trkpt>
      <trkpt lat="42.89166" lon="0.35281">
        <ele>743</ele>
        <time>2023-05-18T07:31:54Z</time>
      </trkpt>
      <trkpt lat="42.8909" lon="0.35267">
        <ele>734</ele>
        <time>2023-05-18T07:32:08Z</time>
      </trkpt>
      <trkpt lat="42.89063" lon="0.3527">
        <ele>734</ele>
        <time>2023-05-18T07:32:13Z</time>
      </trkpt>
      <trkpt lat="42.88984" lon="0.35289">
        <ele>737</ele>
        <time>2023-05-18T07:32:27Z</time>
      </trkpt>
      <trkpt lat="42.88951" lon="0.35289">
        <ele>741</ele>
        <time>2023-05-18T07:32:33Z</time>
      </trkpt>
      <trkpt lat="42.88839" lon="0.35266">
        <ele>748</ele>
        <time>2023-05-18T07:32:53Z</time>
      </trkpt>
      <trkpt lat="42.88683" lon="0.35248">
        <ele>759</ele>
        <time>2023-05-18T07:33:21Z</time>
      </trkpt>
      <trkpt lat="42.88651" lon="0.35239">
        <ele>762</ele>
        <time>2023-05-18T07:33:27Z</time>
      </trkpt>
      <trkpt lat="42.88627" lon="0.35228">
        <ele>763</ele>
        <time>2023-05-18T07:33:31Z</time>
      </trkpt>
      <trkpt lat="42.88602" lon="0.35211">
        <ele>762</ele>
        <time>2023-05-18T07:33:36Z</time>
      </trkpt>
      <trkpt lat="42.88579" lon="0.35188">
        <ele>760</ele>
        <time>2023-05-18T07:33:41Z</time>
      </trkpt>
      <trkpt lat="42.88518" lon="0.35105">
        <ele>751</ele>
        <time>2023-05-18T07:33:57Z</time>
      </trkpt>
      <trkpt lat="42.88498" lon="0.35087">
        <ele>749</ele>
        <time>2023-05-18T07:34:01Z</time>
      </trkpt>
      <trkpt lat="42.88477" lon="0.35073">
        <ele>747</ele>
        <time>2023-05-18T07:34:05Z</time>
      </trkpt>
      <trkpt lat="42.88446" lon="0.3506">
        <ele>745</ele>
        <time>2023-05-18T07:34:11Z</time>
      </trkpt>
      <trkpt lat="42.88379" lon="0.35042">
        <ele>747</ele>
        <time>2023-05-18T07:34:23Z</time>
      </trkpt>
      <trkpt lat="42.88346" lon="0.35022">
        <ele>744</ele>
        <time>2023-05-18T07:34:30Z</time>
      </trkpt>
      <trkpt lat="42.88297" lon="0.34979">
        <ele>741</ele>
        <time>2023-05-18T07:34:40Z</time>
      </trkpt>
      <trkpt lat="42.88264" lon="0.34964">
        <ele>743</ele>
        <time>2023-05-18T07:34:46Z</time>
      </trkpt>
      <trkpt lat="42.88251" lon="0.34962">
        <ele>744</ele>
        <time>2023-05-18T07:34:48Z</time>
      </trkpt>
      <trkpt lat="42.8819" lon="0.34967">
        <ele>748</ele>
        <time>2023-05-18T07:34:59Z</time>
      </trkpt>
      <trkpt lat="42.88159" lon="0.34966">
        <ele>749</ele>
        <time>2023-05-18T07:35:05Z</time>
      </trkpt>
      <trkpt lat="42.88123" lon="0.34957">
        <ele>747</ele>
        <time>2023-05-18T07:35:11Z</time>
      </trkpt>
      <trkpt lat="42.88087" lon="0.3494">
        <ele>741</ele>
        <time>2023-05-18T07:35:18Z</time>
      </trkpt>
      <trkpt lat="42.88066" lon="0.34922">
        <ele>737</ele>
        <time>2023-05-18T07:35:22Z</time>
      </trkpt>
      <trkpt lat="42.88034" lon="0.34877">
        <ele>735</ele>
        <time>2023-05-18T07:35:31Z</time>
      </trkpt>
      <trkpt lat="42.8794" lon="0.34694">
        <ele>738</ele>
        <time>2023-05-18T07:36:00Z</time>
      </trkpt>
      <trkpt lat="42.87915" lon="0.34651">
        <ele>746</ele>
        <time>2023-05-18T07:36:07Z</time>
      </trkpt>
      <trkpt lat="42.879" lon="0.34632">
        <ele>750</ele>
        <time>2023-05-18T07:36:11Z</time>
      </trkpt>
      <trkpt lat="42.8787" lon="0.34607">
        <ele>752</ele>
        <time>2023-05-18T07:36:17Z</time>
      </trkpt>
      <trkpt lat="42.87849" lon="0.34596">
        <ele>750</ele>
        <time>2023-05-18T07:36:21Z</time>
      </trkpt>
      <trkpt lat="42.8775" lon="0.34529">
        <ele>752</ele>
        <time>2023-05-18T07:36:41Z</time>
      </trkpt>
      <trkpt lat="42.87691" lon="0.34473">
        <ele>754</ele>
        <time>2023-05-18T07:36:53Z</time>
      </trkpt>
      <trkpt lat="42.87577" lon="0.34405">
        <ele>752</ele>
        <time>2023-05-18T07:37:15Z</time>
      </trkpt>
      <trkpt lat="42.87511" lon="0.34361">
        <ele>753</ele>
        <time>2023-05-18T07:37:29Z</time>
      </trkpt>
      <trkpt lat="42.87451" lon="0.34314">
        <ele>753</ele>
        <time>2023-05-18T07:37:41Z</time>
      </trkpt>
      <trkpt lat="42.8728" lon="0.34169">
        <ele>759</ele>
        <time>2023-05-18T07:38:17Z</time>
      </trkpt>
      <trkpt lat="42.87246" lon="0.34146">
        <ele>760</ele>
        <time>2023-05-18T07:38:23Z</time>
      </trkpt>
      <trkpt lat="42.8719" lon="0.34113">
        <ele>762</ele>
        <time>2023-05-18T07:38:34Z</time>
      </trkpt>
      <trkpt lat="42.86705" lon="0.3396">
        <ele>770</ele>
        <time>2023-05-18T07:40:03Z</time>
      </trkpt>
      <trkpt lat="42.86428" lon="0.33878">
        <ele>773</ele>
        <time>2023-05-18T07:40:53Z</time>
      </trkpt>
      <trkpt lat="42.86376" lon="0.33858">
        <ele>775</ele>
        <time>2023-05-18T07:41:03Z</time>
      </trkpt>
      <trkpt lat="42.86328" lon="0.33843">
        <ele>777</ele>
        <time>2023-05-18T07:41:12Z</time>
      </trkpt>
      <trkpt lat="42.86152" lon="0.33882">
        <ele>771</ele>
        <time>2023-05-18T07:41:43Z</time>
      </trkpt>
      <trkpt lat="42.85847" lon="0.34028">
        <ele>771</ele>
        <time>2023-05-18T07:42:41Z</time>
      </trkpt>
      <trkpt lat="42.85762" lon="0.34071">
        <ele>769</ele>
        <time>2023-05-18T07:42:57Z</time>
      </trkpt>
      <trkpt lat="42.85655" lon="0.34119">
        <ele>768</ele>
        <time>2023-05-18T07:43:17Z</time>
      </trkpt>
      <trkpt lat="42.8564" lon="0.3413">
        <ele>766</ele>
        <time>2023-05-18T07:43:20Z</time>
      </trkpt>
      <trkpt lat="42.85628" lon="0.34151">
        <ele>763</ele>
        <time>2023-05-18T07:43:24Z</time>
      </trkpt>
      <trkpt lat="42.8562" lon="0.34175">
        <ele>760</ele>
        <time>2023-05-18T07:43:27Z</time>
      </trkpt>
      <trkpt lat="42.85606" lon="0.34268">
        <ele>763</ele>
        <time>2023-05-18T07:43:39Z</time>
      </trkpt>
      <trkpt lat="42.85592" lon="0.34287">
        <ele>765</ele>
        <time>2023-05-18T07:43:43Z</time>
      </trkpt>
      <trkpt lat="42.85584" lon="0.34292">
        <ele>765</ele>
        <time>2023-05-18T07:43:44Z</time>
      </trkpt>
      <trkpt lat="42.85565" lon="0.34293">
        <ele>765</ele>
        <time>2023-05-18T07:43:48Z</time>
      </trkpt>
      <trkpt lat="42.85526" lon="0.3429">
        <ele>765</ele>
        <time>2023-05-18T07:43:55Z</time>
      </trkpt>
      <trkpt lat="42.85511" lon="0.34292">
        <ele>765</ele>
        <time>2023-05-18T07:43:57Z</time>
      </trkpt>
      <trkpt lat="42.85488" lon="0.34301">
        <ele>765</ele>
        <time>2023-05-18T07:44:02Z</time>
      </trkpt>
      <trkpt lat="42.85462" lon="0.34318">
        <ele>764</ele>
        <time>2023-05-18T07:44:07Z</time>
      </trkpt>
      <trkpt lat="42.8544" lon="0.3434">
        <ele>764</ele>
        <time>2023-05-18T07:44:12Z</time>
      </trkpt>
      <trkpt lat="42.8542" lon="0.34368">
        <ele>763</ele>
        <time>2023-05-18T07:44:17Z</time>
      </trkpt>
      <trkpt lat="42.85381" lon="0.34433">
        <ele>766</ele>
        <time>2023-05-18T07:44:28Z</time>
      </trkpt>
      <trkpt lat="42.85357" lon="0.34461">
        <ele>767</ele>
        <time>2023-05-18T07:44:33Z</time>
      </trkpt>
      <trkpt lat="42.85338" lon="0.34479">
        <ele>767</ele>
        <time>2023-05-18T07:44:37Z</time>
      </trkpt>
      <trkpt lat="42.85133" lon="0.34628">
        <ele>763</ele>
        <time>2023-05-18T07:45:19Z</time>
      </trkpt>
      <trkpt lat="42.85065" lon="0.3466">
        <ele>763</ele>
        <time>2023-05-18T07:45:32Z</time>
      </trkpt>
      <trkpt lat="42.85037" lon="0.34667">
        <ele>764</ele>
        <time>2023-05-18T07:45:37Z</time>
      </trkpt>
      <trkpt lat="42.84946" lon="0.34681">
        <ele>769</ele>
        <time>2023-05-18T07:45:53Z</time>
      </trkpt>
      <trkpt lat="42.84899" lon="0.34682">
        <ele>771</ele>
        <time>2023-05-18T07:46:01Z</time>
      </trkpt>
      <trkpt lat="42.84846" lon="0.34675">
        <ele>769</ele>
        <time>2023-05-18T07:46:11Z</time>
      </trkpt>
      <trkpt lat="42.84771" lon="0.34653">
        <ele>768</ele>
        <time>2023-05-18T07:46:24Z</time>
      </trkpt>
      <trkpt lat="42.83677" lon="0.34189">
        <ele>776</ele>
        <time>2023-05-18T07:49:48Z</time>
      </trkpt>
      <trkpt lat="42.83614" lon="0.34156">
        <ele>778</ele>
        <time>2023-05-18T07:50:00Z</time>
      </trkpt>
      <trkpt lat="42.83447" lon="0.34052">
        <ele>782</ele>
        <time>2023-05-18T07:50:33Z</time>
      </trkpt>
      <trkpt lat="42.83122" lon="0.3386">
        <ele>786</ele>
        <time>2023-05-18T07:51:36Z</time>
      </trkpt>
      <trkpt lat="42.83064" lon="0.33816">
        <ele>788</ele>
        <time>2023-05-18T07:51:48Z</time>
      </trkpt>
      <trkpt lat="42.83005" lon="0.33758">
        <ele>792</ele>
        <time>2023-05-18T07:52:01Z</time>
      </trkpt>
      <trkpt lat="42.82876" lon="0.33615">
        <ele>798</ele>
        <time>2023-05-18T07:52:30Z</time>
      </trkpt>
      <trkpt lat="42.82807" lon="0.33531">
        <ele>796</ele>
        <time>2023-05-18T07:52:47Z</time>
      </trkpt>
      <trkpt lat="42.82773" lon="0.33484">
        <ele>796</ele>
        <time>2023-05-18T07:52:55Z</time>
      </trkpt>
      <trkpt lat="42.82768" lon="0.3349">
        <ele>797</ele>
        <time>2023-05-18T07:52:57Z</time>
      </trkpt>
      <trkpt lat="42.82764" lon="0.33491">
        <ele>797</ele>
        <time>2023-05-18T07:52:57Z</time>
      </trkpt>
      <trkpt lat="42.82757" lon="0.33487">
        <ele>797</ele>
        <time>2023-05-18T07:52:59Z</time>
      </trkpt>
      <trkpt lat="42.82754" lon="0.33478">
        <ele>797</ele>
        <time>2023-05-18T07:53:00Z</time>
      </trkpt>
      <trkpt lat="42.82755" lon="0.33469">
        <ele>797</ele>
        <time>2023-05-18T07:53:01Z</time>
      </trkpt>
      <trkpt lat="42.82739" lon="0.3346">
        <ele>797</ele>
        <time>2023-05-18T07:53:04Z</time>
      </trkpt>
      <trkpt lat="42.82577" lon="0.33279">
        <ele>798</ele>
        <time>2023-05-18T07:53:41Z</time>
      </trkpt>
      <trkpt lat="42.8244" lon="0.33132">
        <ele>805</ele>
        <time>2023-05-18T07:54:13Z</time>
      </trkpt>
      <trkpt lat="42.82362" lon="0.33041">
        <ele>808</ele>
        <time>2023-05-18T07:54:31Z</time>
      </trkpt>
      <trkpt lat="42.82194" lon="0.32856">
        <ele>811</ele>
        <time>2023-05-18T07:55:09Z</time>
      </trkpt>
      <trkpt lat="42.82178" lon="0.32832">
        <ele>807</ele>
        <time>2023-05-18T07:55:13Z</time>
      </trkpt>
      <trkpt lat="42.82171" lon="0.32808">
        <ele>807</ele>
        <time>2023-05-18T07:55:17Z</time>
      </trkpt>
      <trkpt lat="42.82161" lon="0.32809">
        <ele>808</ele>
        <time>2023-05-18T07:55:19Z</time>
      </trkpt>
      <trkpt lat="42.82155" lon="0.32806">
        <ele>808</ele>
        <time>2023-05-18T07:55:20Z</time>
      </trkpt>
      <trkpt lat="42.82148" lon="0.32792">
        <ele>808</ele>
        <time>2023-05-18T07:55:22Z</time>
      </trkpt>
      <trkpt lat="42.8215" lon="0.32776">
        <ele>808</ele>
        <time>2023-05-18T07:55:24Z</time>
      </trkpt>
      <trkpt lat="42.8216" lon="0.32766">
        <ele>807</ele>
        <time>2023-05-18T07:55:26Z</time>
      </trkpt>
      <trkpt lat="42.82171" lon="0.32768">
        <ele>807</ele>
        <time>2023-05-18T07:55:28Z</time>
      </trkpt>
      <trkpt lat="42.82189" lon="0.32711">
        <ele>805</ele>
        <time>2023-05-18T07:55:36Z</time>
      </trkpt>
      <trkpt lat="42.82208" lon="0.32669">
        <ele>805</ele>
        <time>2023-05-18T07:55:43Z</time>
      </trkpt>
      <trkpt lat="42.82244" lon="0.32607">
        <ele>806</ele>
        <time>2023-05-18T07:55:53Z</time>
      </trkpt>
      <trkpt lat="42.82266" lon="0.32561">
        <ele>807</ele>
        <time>2023-05-18T07:56:00Z</time>
      </trkpt>
      <trkpt lat="42.82282" lon="0.32521">
        <ele>807</ele>
        <time>2023-05-18T07:56:06Z</time>
      </trkpt>
      <trkpt lat="42.82293" lon="0.32478">
        <ele>807</ele>
        <time>2023-05-18T07:56:12Z</time>
      </trkpt>
      <trkpt lat="42.82316" lon="0.32408">
        <ele>806</ele>
        <time>2023-05-18T07:56:22Z</time>
      </trkpt>
      <trkpt lat="42.82312" lon="0.32403">
        <ele>806</ele>
        <time>2023-05-18T07:56:23Z</time>
      </trkpt>
      <trkpt lat="42.82309" lon="0.32393">
        <ele>806</ele>
        <time>2023-05-18T07:56:25Z</time>
      </trkpt>
      <trkpt lat="42.82312" lon="0.32376">
        <ele>807</ele>
        <time>2023-05-18T07:56:27Z</time>
      </trkpt>
      <trkpt lat="42.82302" lon="0.32366">
        <ele>807</ele>
        <time>2023-05-18T07:56:29Z</time>
      </trkpt>
      <trkpt lat="42.82185" lon="0.32291">
        <ele>809</ele>
        <time>2023-05-18T07:56:52Z</time>
      </trkpt>
      <trkpt lat="42.82137" lon="0.32264">
        <ele>810</ele>
        <time>2023-05-18T07:57:01Z</time>
      </trkpt>
      <trkpt lat="42.82104" lon="0.32252">
        <ele>812</ele>
        <time>2023-05-18T07:57:07Z</time>
      </trkpt>
      <trkpt lat="42.82081" lon="0.32249">
        <ele>813</ele>
        <time>2023-05-18T07:57:11Z</time>
      </trkpt>
      <trkpt lat="42.82008" lon="0.32255">
        <ele>817</ele>
        <time>2023-05-18T07:57:24Z</time>
      </trkpt>
      <trkpt lat="42.82003" lon="0.32268">
        <ele>817</ele>
        <time>2023-05-18T07:57:26Z</time>
      </trkpt>
      <trkpt lat="42.81997" lon="0.32272">
        <ele>817</ele>
        <time>2023-05-18T07:57:28Z</time>
      </trkpt>
      <trkpt lat="42.81989" lon="0.32269">
        <ele>817</ele>
        <time>2023-05-18T07:57:29Z</time>
      </trkpt>
      <trkpt lat="42.81983" lon="0.32261">
        <ele>818</ele>
        <time>2023-05-18T07:57:31Z</time>
      </trkpt>
      <trkpt lat="42.81956" lon="0.32273">
        <ele>817</ele>
        <time>2023-05-18T07:57:36Z</time>
      </trkpt>
      <trkpt lat="42.81939" lon="0.32276">
        <ele>817</ele>
        <time>2023-05-18T07:57:39Z</time>
      </trkpt>
      <trkpt lat="42.81917" lon="0.32271">
        <ele>817</ele>
        <time>2023-05-18T07:57:43Z</time>
      </trkpt>
      <trkpt lat="42.81894" lon="0.32261">
        <ele>817</ele>
        <time>2023-05-18T07:57:47Z</time>
      </trkpt>
      <trkpt lat="42.81857" lon="0.3225">
        <ele>816</ele>
        <time>2023-05-18T07:57:54Z</time>
      </trkpt>
      <trkpt lat="42.81851" lon="0.32246">
        <ele>816</ele>
        <time>2023-05-18T07:57:55Z</time>
      </trkpt>
      <trkpt lat="42.81832" lon="0.32213">
        <ele>816</ele>
        <time>2023-05-18T07:58:00Z</time>
      </trkpt>
      <trkpt lat="42.81786" lon="0.3216">
        <ele>819</ele>
        <time>2023-05-18T07:58:11Z</time>
      </trkpt>
      <trkpt lat="42.81767" lon="0.32149">
        <ele>820</ele>
        <time>2023-05-18T07:58:15Z</time>
      </trkpt>
      <trkpt lat="42.81736" lon="0.32141">
        <ele>821</ele>
        <time>2023-05-18T07:58:20Z</time>
      </trkpt>
      <trkpt lat="42.81715" lon="0.32118">
        <ele>822</ele>
        <time>2023-05-18T07:58:25Z</time>
      </trkpt>
      <trkpt lat="42.81647" lon="0.32028">
        <ele>824</ele>
        <time>2023-05-18T07:58:42Z</time>
      </trkpt>
      <trkpt lat="42.81633" lon="0.31999">
        <ele>824</ele>
        <time>2023-05-18T07:58:46Z</time>
      </trkpt>
      <trkpt lat="42.81629" lon="0.31978">
        <ele>823</ele>
        <time>2023-05-18T07:58:49Z</time>
      </trkpt>
      <trkpt lat="42.81614" lon="0.3196">
        <ele>823</ele>
        <time>2023-05-18T07:58:53Z</time>
      </trkpt>
      <trkpt lat="42.81515" lon="0.31896">
        <ele>824</ele>
        <time>2023-05-18T07:59:12Z</time>
      </trkpt>
      <trkpt lat="42.81483" lon="0.31871">
        <ele>825</ele>
        <time>2023-05-18T07:59:19Z</time>
      </trkpt>
      <trkpt lat="42.81454" lon="0.31853">
        <ele>825</ele>
        <time>2023-05-18T07:59:25Z</time>
      </trkpt>
      <trkpt lat="42.81417" lon="0.31839">
        <ele>826</ele>
        <time>2023-05-18T07:59:31Z</time>
      </trkpt>
      <trkpt lat="42.81358" lon="0.31804">
        <ele>830</ele>
        <time>2023-05-18T07:59:43Z</time>
      </trkpt>
      <trkpt lat="42.81349" lon="0.318">
        <ele>830</ele>
        <time>2023-05-18T07:59:45Z</time>
      </trkpt>
      <trkpt lat="42.81338" lon="0.31799">
        <ele>831</ele>
        <time>2023-05-18T07:59:47Z</time>
      </trkpt>
      <trkpt lat="42.81356" lon="0.31742">
        <ele>830</ele>
        <time>2023-05-18T07:59:55Z</time>
      </trkpt>
      <trkpt lat="42.81338" lon="0.31799">
        <ele>831</ele>
        <time>2023-05-18T08:00:03Z</time>
      </trkpt>
      <trkpt lat="42.81329" lon="0.318">
        <ele>832</ele>
        <time>2023-05-18T08:00:04Z</time>
      </trkpt>
      <trkpt lat="42.81329" lon="0.31814">
        <ele>833</ele>
        <time>2023-05-18T08:00:06Z</time>
      </trkpt>
      <trkpt lat="42.8132" lon="0.31821">
        <ele>835</ele>
        <time>2023-05-18T08:00:08Z</time>
      </trkpt>
      <trkpt lat="42.81311" lon="0.31814">
        <ele>837</ele>
        <time>2023-05-18T08:00:10Z</time>
      </trkpt>
      <trkpt lat="42.8131" lon="0.31807">
        <ele>836</ele>
        <time>2023-05-18T08:00:11Z</time>
      </trkpt>
      <trkpt lat="42.81287" lon="0.31804">
        <ele>841</ele>
        <time>2023-05-18T08:00:15Z</time>
      </trkpt>
      <trkpt lat="42.81278" lon="0.318">
        <ele>842</ele>
        <time>2023-05-18T08:00:17Z</time>
      </trkpt>
      <trkpt lat="42.81262" lon="0.31785">
        <ele>843</ele>
        <time>2023-05-18T08:00:20Z</time>
      </trkpt>
      <trkpt lat="42.81239" lon="0.31742">
        <ele>843</ele>
        <time>2023-05-18T08:00:27Z</time>
      </trkpt>
      <trkpt lat="42.81213" lon="0.31702">
        <ele>849</ele>
        <time>2023-05-18T08:00:34Z</time>
      </trkpt>
      <trkpt lat="42.81207" lon="0.31712">
        <ele>852</ele>
        <time>2023-05-18T08:00:36Z</time>
      </trkpt>
      <trkpt lat="42.8121" lon="0.31721">
        <ele>852</ele>
        <time>2023-05-18T08:00:37Z</time>
      </trkpt>
      <trkpt lat="42.81233" lon="0.31749">
        <ele>846</ele>
        <time>2023-05-18T08:00:42Z</time>
      </trkpt>
      <trkpt lat="42.81257" lon="0.31795">
        <ele>846</ele>
        <time>2023-05-18T08:00:50Z</time>
      </trkpt>
      <trkpt lat="42.81269" lon="0.31825">
        <ele>848</ele>
        <time>2023-05-18T08:00:54Z</time>
      </trkpt>
      <trkpt lat="42.81272" lon="0.31841">
        <ele>849</ele>
        <time>2023-05-18T08:00:56Z</time>
      </trkpt>
      <trkpt lat="42.81265" lon="0.31924">
        <ele>855</ele>
        <time>2023-05-18T08:01:07Z</time>
      </trkpt>
      <trkpt lat="42.81281" lon="0.32018">
        <ele>850</ele>
        <time>2023-05-18T08:01:20Z</time>
      </trkpt>
      <trkpt lat="42.81273" lon="0.32133">
        <ele>858</ele>
        <time>2023-05-18T08:01:35Z</time>
      </trkpt>
      <trkpt lat="42.81276" lon="0.32158">
        <ele>859</ele>
        <time>2023-05-18T08:01:38Z</time>
      </trkpt>
      <trkpt lat="42.8129" lon="0.32207">
        <ele>856</ele>
        <time>2023-05-18T08:01:45Z</time>
      </trkpt>
      <trkpt lat="42.81292" lon="0.32236">
        <ele>857</ele>
        <time>2023-05-18T08:01:49Z</time>
      </trkpt>
      <trkpt lat="42.81288" lon="0.32285">
        <ele>865</ele>
        <time>2023-05-18T08:01:55Z</time>
      </trkpt>
      <trkpt lat="42.81273" lon="0.32342">
        <ele>884</ele>
        <time>2023-05-18T08:02:03Z</time>
      </trkpt>
      <trkpt lat="42.81276" lon="0.32356">
        <ele>886</ele>
        <time>2023-05-18T08:02:05Z</time>
      </trkpt>
      <trkpt lat="42.81302" lon="0.32403">
        <ele>881</ele>
        <time>2023-05-18T08:02:13Z</time>
      </trkpt>
      <trkpt lat="42.81315" lon="0.32442">
        <ele>883</ele>
        <time>2023-05-18T08:02:18Z</time>
      </trkpt>
      <trkpt lat="42.81336" lon="0.32481">
        <ele>879</ele>
        <time>2023-05-18T08:02:25Z</time>
      </trkpt>
      <trkpt lat="42.81352" lon="0.32532">
        <ele>886</ele>
        <time>2023-05-18T08:02:32Z</time>
      </trkpt>
      <trkpt lat="42.81367" lon="0.3257">
        <ele>891</ele>
        <time>2023-05-18T08:02:38Z</time>
      </trkpt>
      <trkpt lat="42.81391" lon="0.32599">
        <ele>887</ele>
        <time>2023-05-18T08:02:43Z</time>
      </trkpt>
      <trkpt lat="42.81414" lon="0.32649">
        <ele>893</ele>
        <time>2023-05-18T08:02:51Z</time>
      </trkpt>
      <trkpt lat="42.81424" lon="0.32658">
        <ele>893</ele>
        <time>2023-05-18T08:02:53Z</time>
      </trkpt>
      <trkpt lat="42.81467" lon="0.3267">
        <ele>887</ele>
        <time>2023-05-18T08:03:01Z</time>
      </trkpt>
      <trkpt lat="42.81488" lon="0.32673">
        <ele>883</ele>
        <time>2023-05-18T08:03:05Z</time>
      </trkpt>
      <trkpt lat="42.81497" lon="0.32678">
        <ele>882</ele>
        <time>2023-05-18T08:03:07Z</time>
      </trkpt>
      <trkpt lat="42.81514" lon="0.32702">
        <ele>886</ele>
        <time>2023-05-18T08:03:11Z</time>
      </trkpt>
      <trkpt lat="42.81529" lon="0.32717">
        <ele>887</ele>
        <time>2023-05-18T08:03:14Z</time>
      </trkpt>
      <trkpt lat="42.81555" lon="0.32736">
        <ele>885</ele>
        <time>2023-05-18T08:03:19Z</time>
      </trkpt>
      <trkpt lat="42.81581" lon="0.32761">
        <ele>885</ele>
        <time>2023-05-18T08:03:25Z</time>
      </trkpt>
      <trkpt lat="42.81593" lon="0.32779">
        <ele>886</ele>
        <time>2023-05-18T08:03:28Z</time>
      </trkpt>
      <trkpt lat="42.816" lon="0.32796">
        <ele>887</ele>
        <time>2023-05-18T08:03:31Z</time>
      </trkpt>
      <trkpt lat="42.81616" lon="0.32856">
        <ele>892</ele>
        <time>2023-05-18T08:03:39Z</time>
      </trkpt>
      <trkpt lat="42.81629" lon="0.32886">
        <ele>890</ele>
        <time>2023-05-18T08:03:44Z</time>
      </trkpt>
      <trkpt lat="42.81631" lon="0.32908">
        <ele>893</ele>
        <time>2023-05-18T08:03:47Z</time>
      </trkpt>
      <trkpt lat="42.81629" lon="0.32953">
        <ele>900</ele>
        <time>2023-05-18T08:03:52Z</time>
      </trkpt>
      <trkpt lat="42.81635" lon="0.32996">
        <ele>904</ele>
        <time>2023-05-18T08:03:58Z</time>
      </trkpt>
      <trkpt lat="42.81648" lon="0.33029">
        <ele>905</ele>
        <time>2023-05-18T08:04:03Z</time>
      </trkpt>
      <trkpt lat="42.81676" lon="0.33076">
        <ele>906</ele>
        <time>2023-05-18T08:04:11Z</time>
      </trkpt>
      <trkpt lat="42.81683" lon="0.33083">
        <ele>907</ele>
        <time>2023-05-18T08:04:13Z</time>
      </trkpt>
      <trkpt lat="42.81698" lon="0.33092">
        <ele>907</ele>
        <time>2023-05-18T08:04:15Z</time>
      </trkpt>
      <trkpt lat="42.8173" lon="0.331">
        <ele>906</ele>
        <time>2023-05-18T08:04:21Z</time>
      </trkpt>
      <trkpt lat="42.81778" lon="0.3312">
        <ele>908</ele>
        <time>2023-05-18T08:04:30Z</time>
      </trkpt>
      <trkpt lat="42.81799" lon="0.33122">
        <ele>907</ele>
        <time>2023-05-18T08:04:34Z</time>
      </trkpt>
      <trkpt lat="42.81837" lon="0.33116">
        <ele>902</ele>
        <time>2023-05-18T08:04:41Z</time>
      </trkpt>
      <trkpt lat="42.8186" lon="0.33115">
        <ele>902</ele>
        <time>2023-05-18T08:04:45Z</time>
      </trkpt>
      <trkpt lat="42.81881" lon="0.33118">
        <ele>902</ele>
        <time>2023-05-18T08:04:49Z</time>
      </trkpt>
      <trkpt lat="42.81892" lon="0.33122">
        <ele>903</ele>
        <time>2023-05-18T08:04:51Z</time>
      </trkpt>
      <trkpt lat="42.81909" lon="0.33134">
        <ele>904</ele>
        <time>2023-05-18T08:04:54Z</time>
      </trkpt>
      <trkpt lat="42.81923" lon="0.33152">
        <ele>906</ele>
        <time>2023-05-18T08:04:57Z</time>
      </trkpt>
      <trkpt lat="42.81938" lon="0.33188">
        <ele>910</ele>
        <time>2023-05-18T08:05:03Z</time>
      </trkpt>
      <trkpt lat="42.81943" lon="0.33234">
        <ele>914</ele>
        <time>2023-05-18T08:05:09Z</time>
      </trkpt>
      <trkpt lat="42.81944" lon="0.33291">
        <ele>917</ele>
        <time>2023-05-18T08:05:16Z</time>
      </trkpt>
      <trkpt lat="42.81935" lon="0.33394">
        <ele>922</ele>
        <time>2023-05-18T08:05:30Z</time>
      </trkpt>
      <trkpt lat="42.8193" lon="0.33415">
        <ele>924</ele>
        <time>2023-05-18T08:05:33Z</time>
      </trkpt>
      <trkpt lat="42.8194" lon="0.33427">
        <ele>923</ele>
        <time>2023-05-18T08:05:35Z</time>
      </trkpt>
      <trkpt lat="42.81933" lon="0.33454">
        <ele>923</ele>
        <time>2023-05-18T08:05:39Z</time>
      </trkpt>
      <trkpt lat="42.81903" lon="0.33518">
        <ele>923</ele>
        <time>2023-05-18T08:05:49Z</time>
      </trkpt>
      <trkpt lat="42.81899" lon="0.33531">
        <ele>923</ele>
        <time>2023-05-18T08:05:51Z</time>
      </trkpt>
      <trkpt lat="42.81894" lon="0.33564">
        <ele>921</ele>
        <time>2023-05-18T08:05:55Z</time>
      </trkpt>
      <trkpt lat="42.81888" lon="0.33641">
        <ele>919</ele>
        <time>2023-05-18T08:06:05Z</time>
      </trkpt>
      <trkpt lat="42.81879" lon="0.33677">
        <ele>918</ele>
        <time>2023-05-18T08:06:10Z</time>
      </trkpt>
      <trkpt lat="42.81865" lon="0.33714">
        <ele>917</ele>
        <time>2023-05-18T08:06:15Z</time>
      </trkpt>
      <trkpt lat="42.8186" lon="0.33735">
        <ele>917</ele>
        <time>2023-05-18T08:06:18Z</time>
      </trkpt>
      <trkpt lat="42.81857" lon="0.33781">
        <ele>917</ele>
        <time>2023-05-18T08:06:24Z</time>
      </trkpt>
      <trkpt lat="42.81864" lon="0.33901">
        <ele>920</ele>
        <time>2023-05-18T08:06:40Z</time>
      </trkpt>
      <trkpt lat="42.81859" lon="0.33934">
        <ele>922</ele>
        <time>2023-05-18T08:06:45Z</time>
      </trkpt>
      <trkpt lat="42.81854" lon="0.33948">
        <ele>922</ele>
        <time>2023-05-18T08:06:47Z</time>
      </trkpt>
      <trkpt lat="42.81846" lon="0.33958">
        <ele>923</ele>
        <time>2023-05-18T08:06:48Z</time>
      </trkpt>
      <trkpt lat="42.8182" lon="0.3397">
        <ele>926</ele>
        <time>2023-05-18T08:06:53Z</time>
      </trkpt>
      <trkpt lat="42.81804" lon="0.33983">
        <ele>928</ele>
        <time>2023-05-18T08:06:57Z</time>
      </trkpt>
      <trkpt lat="42.81792" lon="0.33999">
        <ele>931</ele>
        <time>2023-05-18T08:07:00Z</time>
      </trkpt>
      <trkpt lat="42.81776" lon="0.34032">
        <ele>935</ele>
        <time>2023-05-18T08:07:05Z</time>
      </trkpt>
      <trkpt lat="42.81745" lon="0.34109">
        <ele>943</ele>
        <time>2023-05-18T08:07:16Z</time>
      </trkpt>
      <trkpt lat="42.81688" lon="0.34209">
        <ele>958</ele>
        <time>2023-05-18T08:07:33Z</time>
      </trkpt>
      <trkpt lat="42.81647" lon="0.34265">
        <ele>963</ele>
        <time>2023-05-18T08:07:43Z</time>
      </trkpt>
      <trkpt lat="42.8163" lon="0.34293">
        <ele>966</ele>
        <time>2023-05-18T08:07:48Z</time>
      </trkpt>
      <trkpt lat="42.81616" lon="0.34323">
        <ele>967</ele>
        <time>2023-05-18T08:07:53Z</time>
      </trkpt>
      <trkpt lat="42.81618" lon="0.34336">
        <ele>965</ele>
        <time>2023-05-18T08:07:54Z</time>
      </trkpt>
      <trkpt lat="42.81637" lon="0.34346">
        <ele>962</ele>
        <time>2023-05-18T08:07:58Z</time>
      </trkpt>
      <trkpt lat="42.81661" lon="0.34351">
        <ele>958</ele>
        <time>2023-05-18T08:08:02Z</time>
      </trkpt>
      <trkpt lat="42.817" lon="0.34354">
        <ele>960</ele>
        <time>2023-05-18T08:08:09Z</time>
      </trkpt>
      <trkpt lat="42.81713" lon="0.34359">
        <ele>962</ele>
        <time>2023-05-18T08:08:12Z</time>
      </trkpt>
      <trkpt lat="42.81717" lon="0.34369">
        <ele>964</ele>
        <time>2023-05-18T08:08:13Z</time>
      </trkpt>
      <trkpt lat="42.81712" lon="0.34377">
        <ele>965</ele>
        <time>2023-05-18T08:08:14Z</time>
      </trkpt>
      <trkpt lat="42.81695" lon="0.34389">
        <ele>966</ele>
        <time>2023-05-18T08:08:18Z</time>
      </trkpt>
      <trkpt lat="42.81681" lon="0.34392">
        <ele>965</ele>
        <time>2023-05-18T08:08:20Z</time>
      </trkpt>
      <trkpt lat="42.81674" lon="0.34391">
        <ele>964</ele>
        <time>2023-05-18T08:08:22Z</time>
      </trkpt>
      <trkpt lat="42.81637" lon="0.34375">
        <ele>966</ele>
        <time>2023-05-18T08:08:29Z</time>
      </trkpt>
      <trkpt lat="42.81633" lon="0.34376">
        <ele>967</ele>
        <time>2023-05-18T08:08:29Z</time>
      </trkpt>
      <trkpt lat="42.8163" lon="0.3438">
        <ele>968</ele>
        <time>2023-05-18T08:08:30Z</time>
      </trkpt>
      <trkpt lat="42.81629" lon="0.34388">
        <ele>969</ele>
        <time>2023-05-18T08:08:31Z</time>
      </trkpt>
      <trkpt lat="42.81635" lon="0.34401">
        <ele>970</ele>
        <time>2023-05-18T08:08:33Z</time>
      </trkpt>
      <trkpt lat="42.81673" lon="0.34433">
        <ele>974</ele>
        <time>2023-05-18T08:08:41Z</time>
      </trkpt>
      <trkpt lat="42.81708" lon="0.34454">
        <ele>984</ele>
        <time>2023-05-18T08:08:48Z</time>
      </trkpt>
      <trkpt lat="42.81727" lon="0.34457">
        <ele>986</ele>
        <time>2023-05-18T08:08:51Z</time>
      </trkpt>
      <trkpt lat="42.81744" lon="0.34454">
        <ele>987</ele>
        <time>2023-05-18T08:08:54Z</time>
      </trkpt>
      <trkpt lat="42.81769" lon="0.34437">
        <ele>988</ele>
        <time>2023-05-18T08:08:59Z</time>
      </trkpt>
      <trkpt lat="42.81786" lon="0.34421">
        <ele>990</ele>
        <time>2023-05-18T08:09:03Z</time>
      </trkpt>
      <trkpt lat="42.81806" lon="0.34391">
        <ele>990</ele>
        <time>2023-05-18T08:09:08Z</time>
      </trkpt>
      <trkpt lat="42.81837" lon="0.34326">
        <ele>987</ele>
        <time>2023-05-18T08:09:18Z</time>
      </trkpt>
      <trkpt lat="42.81852" lon="0.34311">
        <ele>985</ele>
        <time>2023-05-18T08:09:22Z</time>
      </trkpt>
      <trkpt lat="42.81864" lon="0.34307">
        <ele>985</ele>
        <time>2023-05-18T08:09:24Z</time>
      </trkpt>
      <trkpt lat="42.81873" lon="0.3431">
        <ele>986</ele>
        <time>2023-05-18T08:09:25Z</time>
      </trkpt>
      <trkpt lat="42.81882" lon="0.34318">
        <ele>989</ele>
        <time>2023-05-18T08:09:27Z</time>
      </trkpt>
      <trkpt lat="42.81879" lon="0.34333">
        <ele>992</ele>
        <time>2023-05-18T08:09:29Z</time>
      </trkpt>
      <trkpt lat="42.81876" lon="0.34336">
        <ele>993</ele>
        <time>2023-05-18T08:09:30Z</time>
      </trkpt>
      <trkpt lat="42.81853" lon="0.34336">
        <ele>990</ele>
        <time>2023-05-18T08:09:34Z</time>
      </trkpt>
      <trkpt lat="42.81847" lon="0.34342">
        <ele>991</ele>
        <time>2023-05-18T08:09:35Z</time>
      </trkpt>
      <trkpt lat="42.81842" lon="0.34353">
        <ele>993</ele>
        <time>2023-05-18T08:09:37Z</time>
      </trkpt>
      <trkpt lat="42.81804" lon="0.34494">
        <ele>1010</ele>
        <time>2023-05-18T08:09:57Z</time>
      </trkpt>
      <trkpt lat="42.81804" lon="0.34505">
        <ele>1012</ele>
        <time>2023-05-18T08:09:58Z</time>
      </trkpt>
      <trkpt lat="42.81794" lon="0.34531">
        <ele>1015</ele>
        <time>2023-05-18T08:10:02Z</time>
      </trkpt>
      <trkpt lat="42.81755" lon="0.34602">
        <ele>1025</ele>
        <time>2023-05-18T08:10:14Z</time>
      </trkpt>
      <trkpt lat="42.81749" lon="0.34607">
        <ele>1026</ele>
        <time>2023-05-18T08:10:15Z</time>
      </trkpt>
      <trkpt lat="42.81726" lon="0.34608">
        <ele>1026</ele>
        <time>2023-05-18T08:10:19Z</time>
      </trkpt>
      <trkpt lat="42.81714" lon="0.34614">
        <ele>1028</ele>
        <time>2023-05-18T08:10:21Z</time>
      </trkpt>
      <trkpt lat="42.81673" lon="0.34645">
        <ele>1036</ele>
        <time>2023-05-18T08:10:30Z</time>
      </trkpt>
      <trkpt lat="42.81641" lon="0.3466">
        <ele>1038</ele>
        <time>2023-05-18T08:10:36Z</time>
      </trkpt>
      <trkpt lat="42.8159" lon="0.34675">
        <ele>1039</ele>
        <time>2023-05-18T08:10:45Z</time>
      </trkpt>
      <trkpt lat="42.81555" lon="0.34696">
        <ele>1044</ele>
        <time>2023-05-18T08:10:52Z</time>
      </trkpt>
      <trkpt lat="42.81541" lon="0.34708">
        <ele>1047</ele>
        <time>2023-05-18T08:10:55Z</time>
      </trkpt>
      <trkpt lat="42.81519" lon="0.34739">
        <ele>1054</ele>
        <time>2023-05-18T08:11:00Z</time>
      </trkpt>
      <trkpt lat="42.81488" lon="0.34763">
        <ele>1059</ele>
        <time>2023-05-18T08:11:07Z</time>
      </trkpt>
      <trkpt lat="42.81381" lon="0.34798">
        <ele>1068</ele>
        <time>2023-05-18T08:11:26Z</time>
      </trkpt>
      <trkpt lat="42.81366" lon="0.348">
        <ele>1069</ele>
        <time>2023-05-18T08:11:29Z</time>
      </trkpt>
      <trkpt lat="42.81305" lon="0.34795">
        <ele>1071</ele>
        <time>2023-05-18T08:11:40Z</time>
      </trkpt>
      <trkpt lat="42.81267" lon="0.34797">
        <ele>1075</ele>
        <time>2023-05-18T08:11:46Z</time>
      </trkpt>
      <trkpt lat="42.81224" lon="0.34793">
        <ele>1083</ele>
        <time>2023-05-18T08:11:54Z</time>
      </trkpt>
      <trkpt lat="42.81189" lon="0.34778">
        <ele>1089</ele>
        <time>2023-05-18T08:12:01Z</time>
      </trkpt>
      <trkpt lat="42.81141" lon="0.34733">
        <ele>1082</ele>
        <time>2023-05-18T08:12:11Z</time>
      </trkpt>
      <trkpt lat="42.81125" lon="0.3472">
        <ele>1078</ele>
        <time>2023-05-18T08:12:14Z</time>
      </trkpt>
      <trkpt lat="42.81119" lon="0.34721">
        <ele>1077</ele>
        <time>2023-05-18T08:12:15Z</time>
      </trkpt>
      <trkpt lat="42.81112" lon="0.34731">
        <ele>1078</ele>
        <time>2023-05-18T08:12:17Z</time>
      </trkpt>
      <trkpt lat="42.81114" lon="0.34742">
        <ele>1081</ele>
        <time>2023-05-18T08:12:19Z</time>
      </trkpt>
      <trkpt lat="42.81112" lon="0.34748">
        <ele>1082</ele>
        <time>2023-05-18T08:12:20Z</time>
      </trkpt>
      <trkpt lat="42.81115" lon="0.34798">
        <ele>1097</ele>
        <time>2023-05-18T08:12:26Z</time>
      </trkpt>
      <trkpt lat="42.8111" lon="0.34823">
        <ele>1105</ele>
        <time>2023-05-18T08:12:30Z</time>
      </trkpt>
      <trkpt lat="42.81101" lon="0.34842">
        <ele>1110</ele>
        <time>2023-05-18T08:12:32Z</time>
      </trkpt>
      <trkpt lat="42.81092" lon="0.34852">
        <ele>1113</ele>
        <time>2023-05-18T08:12:35Z</time>
      </trkpt>
      <trkpt lat="42.81076" lon="0.34884">
        <ele>1118</ele>
        <time>2023-05-18T08:12:40Z</time>
      </trkpt>
      <trkpt lat="42.8107" lon="0.34925">
        <ele>1126</ele>
        <time>2023-05-18T08:12:45Z</time>
      </trkpt>
      <trkpt lat="42.81051" lon="0.34948">
        <ele>1125</ele>
        <time>2023-05-18T08:12:50Z</time>
      </trkpt>
      <trkpt lat="42.8105" lon="0.34961">
        <ele>1127</ele>
        <time>2023-05-18T08:12:51Z</time>
      </trkpt>
      <trkpt lat="42.81067" lon="0.35009">
        <ele>1142</ele>
        <time>2023-05-18T08:12:58Z</time>
      </trkpt>
      <trkpt lat="42.8108" lon="0.35062">
        <ele>1151</ele>
        <time>2023-05-18T08:13:06Z</time>
      </trkpt>
      <trkpt lat="42.81094" lon="0.35087">
        <ele>1154</ele>
        <time>2023-05-18T08:13:10Z</time>
      </trkpt>
      <trkpt lat="42.81102" lon="0.35107">
        <ele>1156</ele>
        <time>2023-05-18T08:13:13Z</time>
      </trkpt>
      <trkpt lat="42.81111" lon="0.35146">
        <ele>1160</ele>
        <time>2023-05-18T08:13:18Z</time>
      </trkpt>
      <trkpt lat="42.81081" lon="0.35175">
        <ele>1165</ele>
        <time>2023-05-18T08:13:24Z</time>
      </trkpt>
      <trkpt lat="42.81065" lon="0.35185">
        <ele>1165</ele>
        <time>2023-05-18T08:13:28Z</time>
      </trkpt>
      <trkpt lat="42.81078" lon="0.35196">
        <ele>1167</ele>
        <time>2023-05-18T08:13:30Z</time>
      </trkpt>
      <trkpt lat="42.81086" lon="0.35214">
        <ele>1170</ele>
        <time>2023-05-18T08:13:33Z</time>
      </trkpt>
      <trkpt lat="42.81097" lon="0.35251">
        <ele>1173</ele>
        <time>2023-05-18T08:13:38Z</time>
      </trkpt>
      <trkpt lat="42.81114" lon="0.35265">
        <ele>1174</ele>
        <time>2023-05-18T08:13:42Z</time>
      </trkpt>
      <trkpt lat="42.81139" lon="0.35297">
        <ele>1178</ele>
        <time>2023-05-18T08:13:48Z</time>
      </trkpt>
      <trkpt lat="42.81169" lon="0.35327">
        <ele>1186</ele>
        <time>2023-05-18T08:13:55Z</time>
      </trkpt>
      <trkpt lat="42.81205" lon="0.35383">
        <ele>1197</ele>
        <time>2023-05-18T08:14:04Z</time>
      </trkpt>
      <trkpt lat="42.81231" lon="0.35415">
        <ele>1204</ele>
        <time>2023-05-18T08:14:11Z</time>
      </trkpt>
      <trkpt lat="42.81267" lon="0.3544">
        <ele>1208</ele>
        <time>2023-05-18T08:14:18Z</time>
      </trkpt>
      <trkpt lat="42.81279" lon="0.35442">
        <ele>1207</ele>
        <time>2023-05-18T08:14:20Z</time>
      </trkpt>
      <trkpt lat="42.81305" lon="0.35471">
        <ele>1212</ele>
        <time>2023-05-18T08:14:26Z</time>
      </trkpt>
      <trkpt lat="42.81317" lon="0.3548">
        <ele>1213</ele>
        <time>2023-05-18T08:14:28Z</time>
      </trkpt>
      <trkpt lat="42.81329" lon="0.3548">
        <ele>1211</ele>
        <time>2023-05-18T08:14:30Z</time>
      </trkpt>
      <trkpt lat="42.81349" lon="0.35472">
        <ele>1214</ele>
        <time>2023-05-18T08:14:34Z</time>
      </trkpt>
      <trkpt lat="42.81394" lon="0.35438">
        <ele>1217</ele>
        <time>2023-05-18T08:14:43Z</time>
      </trkpt>
      <trkpt lat="42.81585" lon="0.35269">
        <ele>1235</ele>
        <time>2023-05-18T08:15:24Z</time>
      </trkpt>
      <trkpt lat="42.81631" lon="0.3524">
        <ele>1235</ele>
        <time>2023-05-18T08:15:33Z</time>
      </trkpt>
      <trkpt lat="42.81644" lon="0.35238">
        <ele>1237</ele>
        <time>2023-05-18T08:15:35Z</time>
      </trkpt>
      <trkpt lat="42.81659" lon="0.35239">
        <ele>1241</ele>
        <time>2023-05-18T08:15:38Z</time>
      </trkpt>
      <trkpt lat="42.817" lon="0.35251">
        <ele>1243</ele>
        <time>2023-05-18T08:15:45Z</time>
      </trkpt>
      <trkpt lat="42.81722" lon="0.35265">
        <ele>1246</ele>
        <time>2023-05-18T08:15:50Z</time>
      </trkpt>
      <trkpt lat="42.81737" lon="0.35278">
        <ele>1249</ele>
        <time>2023-05-18T08:15:53Z</time>
      </trkpt>
      <trkpt lat="42.81743" lon="0.35285">
        <ele>1251</ele>
        <time>2023-05-18T08:15:54Z</time>
      </trkpt>
      <trkpt lat="42.81745" lon="0.35293">
        <ele>1254</ele>
        <time>2023-05-18T08:15:55Z</time>
      </trkpt>
      <trkpt lat="42.81743" lon="0.353">
        <ele>1257</ele>
        <time>2023-05-18T08:15:56Z</time>
      </trkpt>
      <trkpt lat="42.81739" lon="0.35302">
        <ele>1258</ele>
        <time>2023-05-18T08:15:57Z</time>
      </trkpt>
      <trkpt lat="42.81735" lon="0.353">
        <ele>1257</ele>
        <time>2023-05-18T08:15:58Z</time>
      </trkpt>
      <trkpt lat="42.81721" lon="0.35284">
        <ele>1253</ele>
        <time>2023-05-18T08:16:01Z</time>
      </trkpt>
      <trkpt lat="42.81709" lon="0.35275">
        <ele>1250</ele>
        <time>2023-05-18T08:16:03Z</time>
      </trkpt>
      <trkpt lat="42.81693" lon="0.35268">
        <ele>1249</ele>
        <time>2023-05-18T08:16:06Z</time>
      </trkpt>
      <trkpt lat="42.81678" lon="0.35266">
        <ele>1250</ele>
        <time>2023-05-18T08:16:09Z</time>
      </trkpt>
      <trkpt lat="42.81663" lon="0.35268">
        <ele>1251</ele>
        <time>2023-05-18T08:16:12Z</time>
      </trkpt>
      <trkpt lat="42.81649" lon="0.35275">
        <ele>1250</ele>
        <time>2023-05-18T08:16:14Z</time>
      </trkpt>
      <trkpt lat="42.81635" lon="0.35286">
        <ele>1250</ele>
        <time>2023-05-18T08:16:17Z</time>
      </trkpt>
      <trkpt lat="42.81621" lon="0.353">
        <ele>1252</ele>
        <time>2023-05-18T08:16:20Z</time>
      </trkpt>
      <trkpt lat="42.81603" lon="0.35326">
        <ele>1256</ele>
        <time>2023-05-18T08:16:25Z</time>
      </trkpt>
      <trkpt lat="42.8157" lon="0.35399">
        <ele>1268</ele>
        <time>2023-05-18T08:16:36Z</time>
      </trkpt>
      <trkpt lat="42.81539" lon="0.35451">
        <ele>1274</ele>
        <time>2023-05-18T08:16:45Z</time>
      </trkpt>
      <trkpt lat="42.81524" lon="0.35472">
        <ele>1277</ele>
        <time>2023-05-18T08:16:49Z</time>
      </trkpt>
      <trkpt lat="42.81457" lon="0.35533">
        <ele>1273</ele>
        <time>2023-05-18T08:17:03Z</time>
      </trkpt>
      <trkpt lat="42.81445" lon="0.35553">
        <ele>1275</ele>
        <time>2023-05-18T08:17:07Z</time>
      </trkpt>
      <trkpt lat="42.81433" lon="0.3559">
        <ele>1280</ele>
        <time>2023-05-18T08:17:12Z</time>
      </trkpt>
      <trkpt lat="42.81431" lon="0.35634">
        <ele>1292</ele>
        <time>2023-05-18T08:17:18Z</time>
      </trkpt>
      <trkpt lat="42.81423" lon="0.35705">
        <ele>1307</ele>
        <time>2023-05-18T08:17:27Z</time>
      </trkpt>
      <trkpt lat="42.81415" lon="0.35729">
        <ele>1309</ele>
        <time>2023-05-18T08:17:30Z</time>
      </trkpt>
      <trkpt lat="42.81408" lon="0.35742">
        <ele>1314</ele>
        <time>2023-05-18T08:17:32Z</time>
      </trkpt>
      <trkpt lat="42.81399" lon="0.35744">
        <ele>1315</ele>
        <time>2023-05-18T08:17:34Z</time>
      </trkpt>
      <trkpt lat="42.81385" lon="0.35739">
        <ele>1315</ele>
        <time>2023-05-18T08:17:37Z</time>
      </trkpt>
      <trkpt lat="42.8136" lon="0.35725">
        <ele>1311</ele>
        <time>2023-05-18T08:17:41Z</time>
      </trkpt>
      <trkpt lat="42.81349" lon="0.35722">
        <ele>1310</ele>
        <time>2023-05-18T08:17:43Z</time>
      </trkpt>
      <trkpt lat="42.81332" lon="0.35721">
        <ele>1310</ele>
        <time>2023-05-18T08:17:47Z</time>
      </trkpt>
      <trkpt lat="42.81305" lon="0.35714">
        <ele>1305</ele>
        <time>2023-05-18T08:17:51Z</time>
      </trkpt>
      <trkpt lat="42.81268" lon="0.35709">
        <ele>1302</ele>
        <time>2023-05-18T08:17:58Z</time>
      </trkpt>
      <trkpt lat="42.81259" lon="0.35709">
        <ele>1302</ele>
        <time>2023-05-18T08:18:00Z</time>
      </trkpt>
      <trkpt lat="42.81252" lon="0.35712">
        <ele>1302</ele>
        <time>2023-05-18T08:18:01Z</time>
      </trkpt>
      <trkpt lat="42.8124" lon="0.35725">
        <ele>1303</ele>
        <time>2023-05-18T08:18:04Z</time>
      </trkpt>
      <trkpt lat="42.81189" lon="0.35857">
        <ele>1328</ele>
        <time>2023-05-18T08:18:23Z</time>
      </trkpt>
      <trkpt lat="42.8115" lon="0.35941">
        <ele>1340</ele>
        <time>2023-05-18T08:18:36Z</time>
      </trkpt>
      <trkpt lat="42.81109" lon="0.36021">
        <ele>1350</ele>
        <time>2023-05-18T08:18:49Z</time>
      </trkpt>
      <trkpt lat="42.81089" lon="0.36046">
        <ele>1348</ele>
        <time>2023-05-18T08:18:54Z</time>
      </trkpt>
      <trkpt lat="42.81067" lon="0.36064">
        <ele>1346</ele>
        <time>2023-05-18T08:18:58Z</time>
      </trkpt>
      <trkpt lat="42.81047" lon="0.36091">
        <ele>1350</ele>
        <time>2023-05-18T08:19:03Z</time>
      </trkpt>
      <trkpt lat="42.80962" lon="0.36181">
        <ele>1356</ele>
        <time>2023-05-18T08:19:22Z</time>
      </trkpt>
      <trkpt lat="42.80943" lon="0.36205">
        <ele>1361</ele>
        <time>2023-05-18T08:19:27Z</time>
      </trkpt>
      <trkpt lat="42.80922" lon="0.36238">
        <ele>1367</ele>
        <time>2023-05-18T08:19:33Z</time>
      </trkpt>
      <trkpt lat="42.80889" lon="0.36271">
        <ele>1372</ele>
        <time>2023-05-18T08:19:40Z</time>
      </trkpt>
      <trkpt lat="42.80878" lon="0.36279">
        <ele>1373</ele>
        <time>2023-05-18T08:19:42Z</time>
      </trkpt>
      <trkpt lat="42.80805" lon="0.36312">
        <ele>1377</ele>
        <time>2023-05-18T08:19:56Z</time>
      </trkpt>
      <trkpt lat="42.80771" lon="0.36333">
        <ele>1385</ele>
        <time>2023-05-18T08:20:03Z</time>
      </trkpt>
      <trkpt lat="42.80761" lon="0.36342">
        <ele>1389</ele>
        <time>2023-05-18T08:20:05Z</time>
      </trkpt>
      <trkpt lat="42.80717" lon="0.36359">
        <ele>1387</ele>
        <time>2023-05-18T08:20:13Z</time>
      </trkpt>
      <trkpt lat="42.80628" lon="0.36413">
        <ele>1386</ele>
        <time>2023-05-18T08:20:30Z</time>
      </trkpt>
      <trkpt lat="42.8062" lon="0.36426">
        <ele>1387</ele>
        <time>2023-05-18T08:20:32Z</time>
      </trkpt>
      <trkpt lat="42.80618" lon="0.36434">
        <ele>1388</ele>
        <time>2023-05-18T08:20:33Z</time>
      </trkpt>
      <trkpt lat="42.80619" lon="0.36493">
        <ele>1400</ele>
        <time>2023-05-18T08:20:41Z</time>
      </trkpt>
      <trkpt lat="42.80616" lon="0.36532">
        <ele>1404</ele>
        <time>2023-05-18T08:20:46Z</time>
      </trkpt>
      <trkpt lat="42.80599" lon="0.36654">
        <ele>1412</ele>
        <time>2023-05-18T08:21:02Z</time>
      </trkpt>
      <trkpt lat="42.80591" lon="0.36755">
        <ele>1429</ele>
        <time>2023-05-18T08:21:16Z</time>
      </trkpt>
      <trkpt lat="42.80588" lon="0.36772">
        <ele>1431</ele>
        <time>2023-05-18T08:21:18Z</time>
      </trkpt>
      <trkpt lat="42.80579" lon="0.36794">
        <ele>1432</ele>
        <time>2023-05-18T08:21:21Z</time>
      </trkpt>
      <trkpt lat="42.80566" lon="0.36809">
        <ele>1432</ele>
        <time>2023-05-18T08:21:24Z</time>
      </trkpt>
      <trkpt lat="42.80514" lon="0.36838">
        <ele>1429</ele>
        <time>2023-05-18T08:21:34Z</time>
      </trkpt>
      <trkpt lat="42.80502" lon="0.36847">
        <ele>1430</ele>
        <time>2023-05-18T08:21:37Z</time>
      </trkpt>
      <trkpt lat="42.80478" lon="0.36873">
        <ele>1437</ele>
        <time>2023-05-18T08:21:42Z</time>
      </trkpt>
      <trkpt lat="42.80459" lon="0.36888">
        <ele>1441</ele>
        <time>2023-05-18T08:21:46Z</time>
      </trkpt>
      <trkpt lat="42.80382" lon="0.36917">
        <ele>1440</ele>
        <time>2023-05-18T08:22:00Z</time>
      </trkpt>
      <trkpt lat="42.80364" lon="0.36927">
        <ele>1440</ele>
        <time>2023-05-18T08:22:04Z</time>
      </trkpt>
      <trkpt lat="42.8034" lon="0.36967">
        <ele>1449</ele>
        <time>2023-05-18T08:22:11Z</time>
      </trkpt>
      <trkpt lat="42.80334" lon="0.36973">
        <ele>1450</ele>
        <time>2023-05-18T08:22:12Z</time>
      </trkpt>
      <trkpt lat="42.80315" lon="0.36982">
        <ele>1447</ele>
        <time>2023-05-18T08:22:15Z</time>
      </trkpt>
      <trkpt lat="42.80304" lon="0.36995">
        <ele>1448</ele>
        <time>2023-05-18T08:22:18Z</time>
      </trkpt>
      <trkpt lat="42.80298" lon="0.37006">
        <ele>1449</ele>
        <time>2023-05-18T08:22:20Z</time>
      </trkpt>
      <trkpt lat="42.8029" lon="0.37032">
        <ele>1452</ele>
        <time>2023-05-18T08:22:24Z</time>
      </trkpt>
      <trkpt lat="42.80255" lon="0.37103">
        <ele>1459</ele>
        <time>2023-05-18T08:22:35Z</time>
      </trkpt>
      <trkpt lat="42.80247" lon="0.37114">
        <ele>1461</ele>
        <time>2023-05-18T08:22:37Z</time>
      </trkpt>
      <trkpt lat="42.80203" lon="0.37148">
        <ele>1470</ele>
        <time>2023-05-18T08:22:46Z</time>
      </trkpt>
      <trkpt lat="42.80193" lon="0.37152">
        <ele>1470</ele>
        <time>2023-05-18T08:22:48Z</time>
      </trkpt>
      <trkpt lat="42.80184" lon="0.3715">
        <ele>1469</ele>
        <time>2023-05-18T08:22:49Z</time>
      </trkpt>
      <trkpt lat="42.8017" lon="0.37134">
        <ele>1465</ele>
        <time>2023-05-18T08:22:52Z</time>
      </trkpt>
      <trkpt lat="42.8015" lon="0.37095">
        <ele>1455</ele>
        <time>2023-05-18T08:22:59Z</time>
      </trkpt>
      <trkpt lat="42.80123" lon="0.37059">
        <ele>1447</ele>
        <time>2023-05-18T08:23:05Z</time>
      </trkpt>
      <trkpt lat="42.80106" lon="0.37045">
        <ele>1444</ele>
        <time>2023-05-18T08:23:09Z</time>
      </trkpt>
      <trkpt lat="42.80095" lon="0.37047">
        <ele>1445</ele>
        <time>2023-05-18T08:23:11Z</time>
      </trkpt>
      <trkpt lat="42.80088" lon="0.37053">
        <ele>1446</ele>
        <time>2023-05-18T08:23:12Z</time>
      </trkpt>
      <trkpt lat="42.80081" lon="0.37065">
        <ele>1449</ele>
        <time>2023-05-18T08:23:14Z</time>
      </trkpt>
      <trkpt lat="42.8007" lon="0.37095">
        <ele>1452</ele>
        <time>2023-05-18T08:23:19Z</time>
      </trkpt>
      <trkpt lat="42.80064" lon="0.3713">
        <ele>1456</ele>
        <time>2023-05-18T08:23:23Z</time>
      </trkpt>
      <trkpt lat="42.80062" lon="0.37162">
        <ele>1460</ele>
        <time>2023-05-18T08:23:28Z</time>
      </trkpt>
      <trkpt lat="42.80065" lon="0.37216">
        <ele>1470</ele>
        <time>2023-05-18T08:23:35Z</time>
      </trkpt>
      <trkpt lat="42.80039" lon="0.37333">
        <ele>1485</ele>
        <time>2023-05-18T08:23:51Z</time>
      </trkpt>
      <trkpt lat="42.80024" lon="0.37351">
        <ele>1487</ele>
        <time>2023-05-18T08:23:54Z</time>
      </trkpt>
      <trkpt lat="42.80012" lon="0.37355">
        <ele>1484</ele>
        <time>2023-05-18T08:23:56Z</time>
      </trkpt>
      <trkpt lat="42.79974" lon="0.3736">
        <ele>1479</ele>
        <time>2023-05-18T08:24:03Z</time>
      </trkpt>
      <trkpt lat="42.79912" lon="0.37399">
        <ele>1486</ele>
        <time>2023-05-18T08:24:15Z</time>
      </trkpt>
      <trkpt lat="42.79885" lon="0.37409">
        <ele>1484</ele>
        <time>2023-05-18T08:24:20Z</time>
      </trkpt>
      <trkpt lat="42.79857" lon="0.3741">
        <ele>1479</ele>
        <time>2023-05-18T08:24:25Z</time>
      </trkpt>
      <trkpt lat="42.79849" lon="0.37413">
        <ele>1479</ele>
        <time>2023-05-18T08:24:27Z</time>
      </trkpt>
      <trkpt lat="42.79831" lon="0.37428">
        <ele>1479</ele>
        <time>2023-05-18T08:24:31Z</time>
      </trkpt>
      <trkpt lat="42.79818" lon="0.3745">
        <ele>1481</ele>
        <time>2023-05-18T08:24:34Z</time>
      </trkpt>
      <trkpt lat="42.79797" lon="0.37513">
        <ele>1491</ele>
        <time>2023-05-18T08:24:43Z</time>
      </trkpt>
      <trkpt lat="42.79772" lon="0.37569">
        <ele>1498</ele>
        <time>2023-05-18T08:24:52Z</time>
      </trkpt>
      <trkpt lat="42.79756" lon="0.37589">
        <ele>1498</ele>
        <time>2023-05-18T08:24:56Z</time>
      </trkpt>
      <trkpt lat="42.7972" lon="0.3762">
        <ele>1493</ele>
        <time>2023-05-18T08:25:03Z</time>
      </trkpt>
      <trkpt lat="42.7971" lon="0.3764">
        <ele>1494</ele>
        <time>2023-05-18T08:25:06Z</time>
      </trkpt>
      <trkpt lat="42.79697" lon="0.37696">
        <ele>1498</ele>
        <time>2023-05-18T08:25:14Z</time>
      </trkpt>
      <trkpt lat="42.79703" lon="0.37746">
        <ele>1509</ele>
        <time>2023-05-18T08:25:21Z</time>
      </trkpt>
      <trkpt lat="42.79703" lon="0.37766">
        <ele>1511</ele>
        <time>2023-05-18T08:25:23Z</time>
      </trkpt>
      <trkpt lat="42.79701" lon="0.37802">
        <ele>1513</ele>
        <time>2023-05-18T08:25:28Z</time>
      </trkpt>
      <trkpt lat="42.79694" lon="0.37833">
        <ele>1513</ele>
        <time>2023-05-18T08:25:32Z</time>
      </trkpt>
      <trkpt lat="42.79693" lon="0.37866">
        <ele>1516</ele>
        <time>2023-05-18T08:25:37Z</time>
      </trkpt>
      <trkpt lat="42.79696" lon="0.37918">
        <ele>1523</ele>
        <time>2023-05-18T08:25:43Z</time>
      </trkpt>
      <trkpt lat="42.79708" lon="0.3798">
        <ele>1534</ele>
        <time>2023-05-18T08:25:52Z</time>
      </trkpt>
      <trkpt lat="42.79708" lon="0.3799">
        <ele>1535</ele>
        <time>2023-05-18T08:25:53Z</time>
      </trkpt>
      <trkpt lat="42.79688" lon="0.38055">
        <ele>1541</ele>
        <time>2023-05-18T08:26:02Z</time>
      </trkpt>
      <trkpt lat="42.79677" lon="0.38075">
        <ele>1542</ele>
        <time>2023-05-18T08:26:06Z</time>
      </trkpt>
      <trkpt lat="42.7966" lon="0.38088">
        <ele>1542</ele>
        <time>2023-05-18T08:26:09Z</time>
      </trkpt>
      <trkpt lat="42.79636" lon="0.38091">
        <ele>1542</ele>
        <time>2023-05-18T08:26:13Z</time>
      </trkpt>
      <trkpt lat="42.79595" lon="0.38106">
        <ele>1546</ele>
        <time>2023-05-18T08:26:21Z</time>
      </trkpt>
      <trkpt lat="42.79587" lon="0.38106">
        <ele>1546</ele>
        <time>2023-05-18T08:26:22Z</time>
      </trkpt>
      <trkpt lat="42.79557" lon="0.38095">
        <ele>1543</ele>
        <time>2023-05-18T08:26:28Z</time>
      </trkpt>
      <trkpt lat="42.79534" lon="0.38098">
        <ele>1545</ele>
        <time>2023-05-18T08:26:32Z</time>
      </trkpt>
      <trkpt lat="42.79521" lon="0.38106">
        <ele>1548</ele>
        <time>2023-05-18T08:26:34Z</time>
      </trkpt>
      <trkpt lat="42.79482" lon="0.38139">
        <ele>1561</ele>
        <time>2023-05-18T08:26:43Z</time>
      </trkpt>
      <trkpt lat="42.79432" lon="0.38159">
        <ele>1566</ele>
        <time>2023-05-18T08:26:52Z</time>
      </trkpt>
      <trkpt lat="42.79416" lon="0.38163">
        <ele>1567</ele>
        <time>2023-05-18T08:26:55Z</time>
      </trkpt>
      <trkpt lat="42.7939" lon="0.38163">
        <ele>1568</ele>
        <time>2023-05-18T08:26:59Z</time>
      </trkpt>
      <trkpt lat="42.79363" lon="0.38152">
        <ele>1567</ele>
        <time>2023-05-18T08:27:04Z</time>
      </trkpt>
      <trkpt lat="42.79352" lon="0.38143">
        <ele>1565</ele>
        <time>2023-05-18T08:27:07Z</time>
      </trkpt>
      <trkpt lat="42.79334" lon="0.38122">
        <ele>1561</ele>
        <time>2023-05-18T08:27:11Z</time>
      </trkpt>
      <trkpt lat="42.79325" lon="0.38116">
        <ele>1561</ele>
        <time>2023-05-18T08:27:13Z</time>
      </trkpt>
      <trkpt lat="42.79309" lon="0.38113">
        <ele>1562</ele>
        <time>2023-05-18T08:27:16Z</time>
      </trkpt>
      <trkpt lat="42.79263" lon="0.38113">
        <ele>1567</ele>
        <time>2023-05-18T08:27:24Z</time>
      </trkpt>
      <trkpt lat="42.79203" lon="0.38088">
        <ele>1577</ele>
        <time>2023-05-18T08:27:35Z</time>
      </trkpt>
      <trkpt lat="42.79185" lon="0.38086">
        <ele>1580</ele>
        <time>2023-05-18T08:27:38Z</time>
      </trkpt>
      <trkpt lat="42.79187" lon="0.38101">
        <ele>1578</ele>
        <time>2023-05-18T08:27:40Z</time>
      </trkpt>
      <trkpt lat="42.79191" lon="0.38111">
        <ele>1576</ele>
        <time>2023-05-18T08:27:42Z</time>
      </trkpt>
      <trkpt lat="42.79206" lon="0.38127">
        <ele>1573</ele>
        <time>2023-05-18T08:27:45Z</time>
      </trkpt>
      <trkpt lat="42.79269" lon="0.38168">
        <ele>1570</ele>
        <time>2023-05-18T08:27:57Z</time>
      </trkpt>
      <trkpt lat="42.79313" lon="0.3827">
        <ele>1560</ele>
        <time>2023-05-18T08:28:13Z</time>
      </trkpt>
      <trkpt lat="42.79328" lon="0.3829">
        <ele>1558</ele>
        <time>2023-05-18T08:28:17Z</time>
      </trkpt>
      <trkpt lat="42.79345" lon="0.38303">
        <ele>1557</ele>
        <time>2023-05-18T08:28:20Z</time>
      </trkpt>
      <trkpt lat="42.7937" lon="0.38313">
        <ele>1556</ele>
        <time>2023-05-18T08:28:25Z</time>
      </trkpt>
      <trkpt lat="42.79409" lon="0.38336">
        <ele>1552</ele>
        <time>2023-05-18T08:28:32Z</time>
      </trkpt>
      <trkpt lat="42.79441" lon="0.38334">
        <ele>1557</ele>
        <time>2023-05-18T08:28:38Z</time>
      </trkpt>
      <trkpt lat="42.79459" lon="0.3834">
        <ele>1558</ele>
        <time>2023-05-18T08:28:41Z</time>
      </trkpt>
      <trkpt lat="42.79477" lon="0.38359">
        <ele>1554</ele>
        <time>2023-05-18T08:28:45Z</time>
      </trkpt>
      <trkpt lat="42.79493" lon="0.38396">
        <ele>1545</ele>
        <time>2023-05-18T08:28:51Z</time>
      </trkpt>
      <trkpt lat="42.79512" lon="0.38421">
        <ele>1540</ele>
        <time>2023-05-18T08:28:56Z</time>
      </trkpt>
      <trkpt lat="42.79532" lon="0.38455">
        <ele>1533</ele>
        <time>2023-05-18T08:29:01Z</time>
      </trkpt>
      <trkpt lat="42.79543" lon="0.38465">
        <ele>1531</ele>
        <time>2023-05-18T08:29:04Z</time>
      </trkpt>
      <trkpt lat="42.79553" lon="0.38467">
        <ele>1532</ele>
        <time>2023-05-18T08:29:05Z</time>
      </trkpt>
      <trkpt lat="42.79627" lon="0.38439">
        <ele>1540</ele>
        <time>2023-05-18T08:29:19Z</time>
      </trkpt>
      <trkpt lat="42.79645" lon="0.38437">
        <ele>1540</ele>
        <time>2023-05-18T08:29:22Z</time>
      </trkpt>
      <trkpt lat="42.79656" lon="0.38444">
        <ele>1538</ele>
        <time>2023-05-18T08:29:25Z</time>
      </trkpt>
      <trkpt lat="42.79674" lon="0.38463">
        <ele>1536</ele>
        <time>2023-05-18T08:29:29Z</time>
      </trkpt>
      <trkpt lat="42.79713" lon="0.38526">
        <ele>1529</ele>
        <time>2023-05-18T08:29:39Z</time>
      </trkpt>
      <trkpt lat="42.7974" lon="0.38564">
        <ele>1524</ele>
        <time>2023-05-18T08:29:46Z</time>
      </trkpt>
      <trkpt lat="42.79775" lon="0.38595">
        <ele>1520</ele>
        <time>2023-05-18T08:29:54Z</time>
      </trkpt>
      <trkpt lat="42.79796" lon="0.38624">
        <ele>1516</ele>
        <time>2023-05-18T08:29:59Z</time>
      </trkpt>
      <trkpt lat="42.79856" lon="0.38686">
        <ele>1509</ele>
        <time>2023-05-18T08:30:12Z</time>
      </trkpt>
      <trkpt lat="42.79904" lon="0.3873">
        <ele>1502</ele>
        <time>2023-05-18T08:30:23Z</time>
      </trkpt>
      <trkpt lat="42.79925" lon="0.38741">
        <ele>1499</ele>
        <time>2023-05-18T08:30:27Z</time>
      </trkpt>
      <trkpt lat="42.79943" lon="0.38744">
        <ele>1498</ele>
        <time>2023-05-18T08:30:30Z</time>
      </trkpt>
      <trkpt lat="42.7997" lon="0.38744">
        <ele>1497</ele>
        <time>2023-05-18T08:30:35Z</time>
      </trkpt>
      <trkpt lat="42.80002" lon="0.38755">
        <ele>1493</ele>
        <time>2023-05-18T08:30:41Z</time>
      </trkpt>
      <trkpt lat="42.8001" lon="0.38759">
        <ele>1491</ele>
        <time>2023-05-18T08:30:42Z</time>
      </trkpt>
      <trkpt lat="42.80026" lon="0.38779">
        <ele>1485</ele>
        <time>2023-05-18T08:30:46Z</time>
      </trkpt>
      <trkpt lat="42.80043" lon="0.38794">
        <ele>1480</ele>
        <time>2023-05-18T08:30:50Z</time>
      </trkpt>
      <trkpt lat="42.80051" lon="0.38796">
        <ele>1479</ele>
        <time>2023-05-18T08:30:51Z</time>
      </trkpt>
      <trkpt lat="42.8007" lon="0.38792">
        <ele>1479</ele>
        <time>2023-05-18T08:30:54Z</time>
      </trkpt>
      <trkpt lat="42.80104" lon="0.38777">
        <ele>1477</ele>
        <time>2023-05-18T08:31:01Z</time>
      </trkpt>
      <trkpt lat="42.80119" lon="0.38779">
        <ele>1472</ele>
        <time>2023-05-18T08:31:03Z</time>
      </trkpt>
      <trkpt lat="42.80122" lon="0.38783">
        <ele>1470</ele>
        <time>2023-05-18T08:31:04Z</time>
      </trkpt>
      <trkpt lat="42.80122" lon="0.38791">
        <ele>1468</ele>
        <time>2023-05-18T08:31:05Z</time>
      </trkpt>
      <trkpt lat="42.80119" lon="0.38798">
        <ele>1467</ele>
        <time>2023-05-18T08:31:06Z</time>
      </trkpt>
      <trkpt lat="42.8008" lon="0.38807">
        <ele>1474</ele>
        <time>2023-05-18T08:31:13Z</time>
      </trkpt>
      <trkpt lat="42.80049" lon="0.38822">
        <ele>1471</ele>
        <time>2023-05-18T08:31:19Z</time>
      </trkpt>
      <trkpt lat="42.80005" lon="0.38826">
        <ele>1473</ele>
        <time>2023-05-18T08:31:27Z</time>
      </trkpt>
      <trkpt lat="42.79972" lon="0.3884">
        <ele>1471</ele>
        <time>2023-05-18T08:31:33Z</time>
      </trkpt>
      <trkpt lat="42.7996" lon="0.38848">
        <ele>1470</ele>
        <time>2023-05-18T08:31:36Z</time>
      </trkpt>
      <trkpt lat="42.79951" lon="0.38859">
        <ele>1468</ele>
        <time>2023-05-18T08:31:38Z</time>
      </trkpt>
      <trkpt lat="42.79928" lon="0.38894">
        <ele>1461</ele>
        <time>2023-05-18T08:31:44Z</time>
      </trkpt>
      <trkpt lat="42.79917" lon="0.38902">
        <ele>1460</ele>
        <time>2023-05-18T08:31:46Z</time>
      </trkpt>
      <trkpt lat="42.79912" lon="0.38903">
        <ele>1459</ele>
        <time>2023-05-18T08:31:47Z</time>
      </trkpt>
      <trkpt lat="42.79897" lon="0.38896">
        <ele>1459</ele>
        <time>2023-05-18T08:31:50Z</time>
      </trkpt>
      <trkpt lat="42.79856" lon="0.38863">
        <ele>1462</ele>
        <time>2023-05-18T08:31:58Z</time>
      </trkpt>
      <trkpt lat="42.79823" lon="0.3884">
        <ele>1462</ele>
        <time>2023-05-18T08:32:05Z</time>
      </trkpt>
      <trkpt lat="42.79808" lon="0.38832">
        <ele>1462</ele>
        <time>2023-05-18T08:32:08Z</time>
      </trkpt>
      <trkpt lat="42.79793" lon="0.38833">
        <ele>1460</ele>
        <time>2023-05-18T08:32:10Z</time>
      </trkpt>
      <trkpt lat="42.79838" lon="0.38893">
        <ele>1454</ele>
        <time>2023-05-18T08:32:22Z</time>
      </trkpt>
      <trkpt lat="42.79844" lon="0.38904">
        <ele>1452</ele>
        <time>2023-05-18T08:32:23Z</time>
      </trkpt>
      <trkpt lat="42.79853" lon="0.3893">
        <ele>1449</ele>
        <time>2023-05-18T08:32:27Z</time>
      </trkpt>
      <trkpt lat="42.7986" lon="0.3897">
        <ele>1442</ele>
        <time>2023-05-18T08:32:33Z</time>
      </trkpt>
      <trkpt lat="42.79874" lon="0.38984">
        <ele>1440</ele>
        <time>2023-05-18T08:32:36Z</time>
      </trkpt>
      <trkpt lat="42.79945" lon="0.39011">
        <ele>1432</ele>
        <time>2023-05-18T08:32:49Z</time>
      </trkpt>
      <trkpt lat="42.79961" lon="0.3901">
        <ele>1432</ele>
        <time>2023-05-18T08:32:52Z</time>
      </trkpt>
      <trkpt lat="42.79968" lon="0.39007">
        <ele>1432</ele>
        <time>2023-05-18T08:32:53Z</time>
      </trkpt>
      <trkpt lat="42.79985" lon="0.38991">
        <ele>1435</ele>
        <time>2023-05-18T08:32:57Z</time>
      </trkpt>
      <trkpt lat="42.80001" lon="0.38983">
        <ele>1436</ele>
        <time>2023-05-18T08:33:00Z</time>
      </trkpt>
      <trkpt lat="42.80027" lon="0.3898">
        <ele>1430</ele>
        <time>2023-05-18T08:33:04Z</time>
      </trkpt>
      <trkpt lat="42.80039" lon="0.38976">
        <ele>1429</ele>
        <time>2023-05-18T08:33:06Z</time>
      </trkpt>
      <trkpt lat="42.80104" lon="0.3894">
        <ele>1427</ele>
        <time>2023-05-18T08:33:19Z</time>
      </trkpt>
      <trkpt lat="42.80146" lon="0.38925">
        <ele>1422</ele>
        <time>2023-05-18T08:33:27Z</time>
      </trkpt>
      <trkpt lat="42.80186" lon="0.38899">
        <ele>1419</ele>
        <time>2023-05-18T08:33:35Z</time>
      </trkpt>
      <trkpt lat="42.80242" lon="0.3884">
        <ele>1418</ele>
        <time>2023-05-18T08:33:47Z</time>
      </trkpt>
      <trkpt lat="42.80262" lon="0.38829">
        <ele>1416</ele>
        <time>2023-05-18T08:33:51Z</time>
      </trkpt>
      <trkpt lat="42.80315" lon="0.38811">
        <ele>1409</ele>
        <time>2023-05-18T08:34:01Z</time>
      </trkpt>
      <trkpt lat="42.8035" lon="0.38796">
        <ele>1407</ele>
        <time>2023-05-18T08:34:07Z</time>
      </trkpt>
      <trkpt lat="42.80358" lon="0.38799">
        <ele>1407</ele>
        <time>2023-05-18T08:34:09Z</time>
      </trkpt>
      <trkpt lat="42.8036" lon="0.38808">
        <ele>1406</ele>
        <time>2023-05-18T08:34:10Z</time>
      </trkpt>
      <trkpt lat="42.80356" lon="0.38815">
        <ele>1405</ele>
        <time>2023-05-18T08:34:11Z</time>
      </trkpt>
      <trkpt lat="42.80322" lon="0.38821">
        <ele>1406</ele>
        <time>2023-05-18T08:34:17Z</time>
      </trkpt>
      <trkpt lat="42.80292" lon="0.38833">
        <ele>1410</ele>
        <time>2023-05-18T08:34:23Z</time>
      </trkpt>
      <trkpt lat="42.80281" lon="0.38841">
        <ele>1409</ele>
        <time>2023-05-18T08:34:25Z</time>
      </trkpt>
      <trkpt lat="42.80252" lon="0.38873">
        <ele>1405</ele>
        <time>2023-05-18T08:34:32Z</time>
      </trkpt>
      <trkpt lat="42.80237" lon="0.38895">
        <ele>1403</ele>
        <time>2023-05-18T08:34:35Z</time>
      </trkpt>
      <trkpt lat="42.80198" lon="0.38982">
        <ele>1391</ele>
        <time>2023-05-18T08:34:49Z</time>
      </trkpt>
      <trkpt lat="42.80173" lon="0.39028">
        <ele>1387</ele>
        <time>2023-05-18T08:34:56Z</time>
      </trkpt>
      <trkpt lat="42.80159" lon="0.39042">
        <ele>1386</ele>
        <time>2023-05-18T08:34:59Z</time>
      </trkpt>
      <trkpt lat="42.80127" lon="0.39065">
        <ele>1387</ele>
        <time>2023-05-18T08:35:06Z</time>
      </trkpt>
      <trkpt lat="42.80118" lon="0.39077">
        <ele>1386</ele>
        <time>2023-05-18T08:35:08Z</time>
      </trkpt>
      <trkpt lat="42.80114" lon="0.39084">
        <ele>1385</ele>
        <time>2023-05-18T08:35:09Z</time>
      </trkpt>
      <trkpt lat="42.80103" lon="0.39133">
        <ele>1376</ele>
        <time>2023-05-18T08:35:16Z</time>
      </trkpt>
      <trkpt lat="42.80099" lon="0.39141">
        <ele>1375</ele>
        <time>2023-05-18T08:35:17Z</time>
      </trkpt>
      <trkpt lat="42.8009" lon="0.3915">
        <ele>1374</ele>
        <time>2023-05-18T08:35:19Z</time>
      </trkpt>
      <trkpt lat="42.80079" lon="0.39157">
        <ele>1375</ele>
        <time>2023-05-18T08:35:21Z</time>
      </trkpt>
      <trkpt lat="42.80056" lon="0.39161">
        <ele>1377</ele>
        <time>2023-05-18T08:35:25Z</time>
      </trkpt>
      <trkpt lat="42.80048" lon="0.39166">
        <ele>1377</ele>
        <time>2023-05-18T08:35:27Z</time>
      </trkpt>
      <trkpt lat="42.79981" lon="0.39223">
        <ele>1366</ele>
        <time>2023-05-18T08:35:41Z</time>
      </trkpt>
      <trkpt lat="42.79954" lon="0.39238">
        <ele>1363</ele>
        <time>2023-05-18T08:35:46Z</time>
      </trkpt>
      <trkpt lat="42.79937" lon="0.39241">
        <ele>1363</ele>
        <time>2023-05-18T08:35:49Z</time>
      </trkpt>
      <trkpt lat="42.79864" lon="0.39279">
        <ele>1358</ele>
        <time>2023-05-18T08:36:03Z</time>
      </trkpt>
      <trkpt lat="42.79821" lon="0.39295">
        <ele>1357</ele>
        <time>2023-05-18T08:36:11Z</time>
      </trkpt>
      <trkpt lat="42.79815" lon="0.39307">
        <ele>1356</ele>
        <time>2023-05-18T08:36:13Z</time>
      </trkpt>
      <trkpt lat="42.7981" lon="0.39362">
        <ele>1348</ele>
        <time>2023-05-18T08:36:20Z</time>
      </trkpt>
      <trkpt lat="42.79799" lon="0.39385">
        <ele>1345</ele>
        <time>2023-05-18T08:36:24Z</time>
      </trkpt>
      <trkpt lat="42.79784" lon="0.39396">
        <ele>1343</ele>
        <time>2023-05-18T08:36:27Z</time>
      </trkpt>
      <trkpt lat="42.79739" lon="0.394">
        <ele>1344</ele>
        <time>2023-05-18T08:36:35Z</time>
      </trkpt>
      <trkpt lat="42.79736" lon="0.39405">
        <ele>1343</ele>
        <time>2023-05-18T08:36:36Z</time>
      </trkpt>
      <trkpt lat="42.79737" lon="0.39413">
        <ele>1342</ele>
        <time>2023-05-18T08:36:37Z</time>
      </trkpt>
      <trkpt lat="42.79739" lon="0.39416">
        <ele>1341</ele>
        <time>2023-05-18T08:36:37Z</time>
      </trkpt>
      <trkpt lat="42.7976" lon="0.39425">
        <ele>1340</ele>
        <time>2023-05-18T08:36:41Z</time>
      </trkpt>
      <trkpt lat="42.7979" lon="0.39442">
        <ele>1336</ele>
        <time>2023-05-18T08:36:47Z</time>
      </trkpt>
      <trkpt lat="42.79813" lon="0.3945">
        <ele>1335</ele>
        <time>2023-05-18T08:36:51Z</time>
      </trkpt>
      <trkpt lat="42.79846" lon="0.39447">
        <ele>1334</ele>
        <time>2023-05-18T08:36:57Z</time>
      </trkpt>
      <trkpt lat="42.79854" lon="0.39449">
        <ele>1334</ele>
        <time>2023-05-18T08:36:59Z</time>
      </trkpt>
      <trkpt lat="42.79859" lon="0.39454">
        <ele>1333</ele>
        <time>2023-05-18T08:37:00Z</time>
      </trkpt>
      <trkpt lat="42.79878" lon="0.39489">
        <ele>1327</ele>
        <time>2023-05-18T08:37:05Z</time>
      </trkpt>
      <trkpt lat="42.79883" lon="0.39503">
        <ele>1325</ele>
        <time>2023-05-18T08:37:07Z</time>
      </trkpt>
      <trkpt lat="42.79889" lon="0.39509">
        <ele>1324</ele>
        <time>2023-05-18T08:37:09Z</time>
      </trkpt>
      <trkpt lat="42.79899" lon="0.39515">
        <ele>1323</ele>
        <time>2023-05-18T08:37:11Z</time>
      </trkpt>
      <trkpt lat="42.79918" lon="0.39521">
        <ele>1321</ele>
        <time>2023-05-18T08:37:14Z</time>
      </trkpt>
      <trkpt lat="42.79946" lon="0.39523">
        <ele>1318</ele>
        <time>2023-05-18T08:37:19Z</time>
      </trkpt>
      <trkpt lat="42.79958" lon="0.39523">
        <ele>1317</ele>
        <time>2023-05-18T08:37:21Z</time>
      </trkpt>
      <trkpt lat="42.79989" lon="0.39514">
        <ele>1317</ele>
        <time>2023-05-18T08:37:27Z</time>
      </trkpt>
      <trkpt lat="42.8002" lon="0.39515">
        <ele>1312</ele>
        <time>2023-05-18T08:37:32Z</time>
      </trkpt>
      <trkpt lat="42.80048" lon="0.39509">
        <ele>1307</ele>
        <time>2023-05-18T08:37:37Z</time>
      </trkpt>
      <trkpt lat="42.80074" lon="0.39495">
        <ele>1305</ele>
        <time>2023-05-18T08:37:42Z</time>
      </trkpt>
      <trkpt lat="42.80089" lon="0.39483">
        <ele>1304</ele>
        <time>2023-05-18T08:37:46Z</time>
      </trkpt>
      <trkpt lat="42.80153" lon="0.39452">
        <ele>1297</ele>
        <time>2023-05-18T08:37:58Z</time>
      </trkpt>
      <trkpt lat="42.8021" lon="0.39413">
        <ele>1295</ele>
        <time>2023-05-18T08:38:09Z</time>
      </trkpt>
      <trkpt lat="42.80217" lon="0.39413">
        <ele>1294</ele>
        <time>2023-05-18T08:38:10Z</time>
      </trkpt>
      <trkpt lat="42.80221" lon="0.39416">
        <ele>1292</ele>
        <time>2023-05-18T08:38:11Z</time>
      </trkpt>
      <trkpt lat="42.80224" lon="0.39425">
        <ele>1289</ele>
        <time>2023-05-18T08:38:12Z</time>
      </trkpt>
      <trkpt lat="42.80222" lon="0.39429">
        <ele>1288</ele>
        <time>2023-05-18T08:38:13Z</time>
      </trkpt>
      <trkpt lat="42.80209" lon="0.39442">
        <ele>1287</ele>
        <time>2023-05-18T08:38:16Z</time>
      </trkpt>
      <trkpt lat="42.80167" lon="0.39499">
        <ele>1282</ele>
        <time>2023-05-18T08:38:26Z</time>
      </trkpt>
      <trkpt lat="42.8015" lon="0.39513">
        <ele>1282</ele>
        <time>2023-05-18T08:38:30Z</time>
      </trkpt>
      <trkpt lat="42.80139" lon="0.39519">
        <ele>1284</ele>
        <time>2023-05-18T08:38:32Z</time>
      </trkpt>
      <trkpt lat="42.80113" lon="0.39559">
        <ele>1280</ele>
        <time>2023-05-18T08:38:39Z</time>
      </trkpt>
      <trkpt lat="42.80098" lon="0.39591">
        <ele>1275</ele>
        <time>2023-05-18T08:38:44Z</time>
      </trkpt>
      <trkpt lat="42.80087" lon="0.39606">
        <ele>1274</ele>
        <time>2023-05-18T08:38:47Z</time>
      </trkpt>
      <trkpt lat="42.80056" lon="0.39633">
        <ele>1272</ele>
        <time>2023-05-18T08:38:53Z</time>
      </trkpt>
      <trkpt lat="42.80054" lon="0.39639">
        <ele>1271</ele>
        <time>2023-05-18T08:38:54Z</time>
      </trkpt>
      <trkpt lat="42.80055" lon="0.39653">
        <ele>1266</ele>
        <time>2023-05-18T08:38:56Z</time>
      </trkpt>
      <trkpt lat="42.80058" lon="0.39658">
        <ele>1265</ele>
        <time>2023-05-18T08:38:57Z</time>
      </trkpt>
      <trkpt lat="42.80067" lon="0.39658">
        <ele>1263</ele>
        <time>2023-05-18T08:38:58Z</time>
      </trkpt>
      <trkpt lat="42.80155" lon="0.39606">
        <ele>1256</ele>
        <time>2023-05-18T08:39:15Z</time>
      </trkpt>
      <trkpt lat="42.80173" lon="0.39591">
        <ele>1255</ele>
        <time>2023-05-18T08:39:19Z</time>
      </trkpt>
      <trkpt lat="42.80204" lon="0.39554">
        <ele>1257</ele>
        <time>2023-05-18T08:39:27Z</time>
      </trkpt>
      <trkpt lat="42.80214" lon="0.39548">
        <ele>1256</ele>
        <time>2023-05-18T08:39:28Z</time>
      </trkpt>
      <trkpt lat="42.80231" lon="0.39551">
        <ele>1250</ele>
        <time>2023-05-18T08:39:32Z</time>
      </trkpt>
      <trkpt lat="42.80231" lon="0.39562">
        <ele>1247</ele>
        <time>2023-05-18T08:39:33Z</time>
      </trkpt>
      <trkpt lat="42.80198" lon="0.39629">
        <ele>1238</ele>
        <time>2023-05-18T08:39:44Z</time>
      </trkpt>
      <trkpt lat="42.80157" lon="0.39678">
        <ele>1237</ele>
        <time>2023-05-18T08:39:53Z</time>
      </trkpt>
      <trkpt lat="42.80138" lon="0.39714">
        <ele>1234</ele>
        <time>2023-05-18T08:39:59Z</time>
      </trkpt>
      <trkpt lat="42.80125" lon="0.39747">
        <ele>1229</ele>
        <time>2023-05-18T08:40:04Z</time>
      </trkpt>
      <trkpt lat="42.80127" lon="0.39759">
        <ele>1224</ele>
        <time>2023-05-18T08:40:05Z</time>
      </trkpt>
      <trkpt lat="42.80132" lon="0.39764">
        <ele>1222</ele>
        <time>2023-05-18T08:40:07Z</time>
      </trkpt>
      <trkpt lat="42.80142" lon="0.39765">
        <ele>1220</ele>
        <time>2023-05-18T08:40:08Z</time>
      </trkpt>
      <trkpt lat="42.8016" lon="0.39758">
        <ele>1221</ele>
        <time>2023-05-18T08:40:12Z</time>
      </trkpt>
      <trkpt lat="42.80231" lon="0.39699">
        <ele>1211</ele>
        <time>2023-05-18T08:40:27Z</time>
      </trkpt>
      <trkpt lat="42.80239" lon="0.39695">
        <ele>1210</ele>
        <time>2023-05-18T08:40:28Z</time>
      </trkpt>
      <trkpt lat="42.80257" lon="0.39692">
        <ele>1205</ele>
        <time>2023-05-18T08:40:31Z</time>
      </trkpt>
      <trkpt lat="42.80281" lon="0.39668">
        <ele>1205</ele>
        <time>2023-05-18T08:40:37Z</time>
      </trkpt>
      <trkpt lat="42.80304" lon="0.39653">
        <ele>1204</ele>
        <time>2023-05-18T08:40:41Z</time>
      </trkpt>
      <trkpt lat="42.80326" lon="0.39647">
        <ele>1200</ele>
        <time>2023-05-18T08:40:45Z</time>
      </trkpt>
      <trkpt lat="42.80369" lon="0.39624">
        <ele>1196</ele>
        <time>2023-05-18T08:40:53Z</time>
      </trkpt>
      <trkpt lat="42.80387" lon="0.39617">
        <ele>1193</ele>
        <time>2023-05-18T08:40:57Z</time>
      </trkpt>
      <trkpt lat="42.8042" lon="0.39594">
        <ele>1190</ele>
        <time>2023-05-18T08:41:03Z</time>
      </trkpt>
      <trkpt lat="42.80428" lon="0.39598">
        <ele>1186</ele>
        <time>2023-05-18T08:41:05Z</time>
      </trkpt>
      <trkpt lat="42.80428" lon="0.39608">
        <ele>1183</ele>
        <time>2023-05-18T08:41:06Z</time>
      </trkpt>
      <trkpt lat="42.80424" lon="0.39614">
        <ele>1183</ele>
        <time>2023-05-18T08:41:07Z</time>
      </trkpt>
      <trkpt lat="42.80401" lon="0.39633">
        <ele>1185</ele>
        <time>2023-05-18T08:41:12Z</time>
      </trkpt>
      <trkpt lat="42.80363" lon="0.39686">
        <ele>1179</ele>
        <time>2023-05-18T08:41:22Z</time>
      </trkpt>
      <trkpt lat="42.80294" lon="0.39774">
        <ele>1171</ele>
        <time>2023-05-18T08:41:38Z</time>
      </trkpt>
      <trkpt lat="42.80272" lon="0.39825">
        <ele>1162</ele>
        <time>2023-05-18T08:41:46Z</time>
      </trkpt>
      <trkpt lat="42.80238" lon="0.39852">
        <ele>1160</ele>
        <time>2023-05-18T08:41:53Z</time>
      </trkpt>
      <trkpt lat="42.80218" lon="0.39863">
        <ele>1160</ele>
        <time>2023-05-18T08:41:57Z</time>
      </trkpt>
      <trkpt lat="42.80182" lon="0.39873">
        <ele>1164</ele>
        <time>2023-05-18T08:42:03Z</time>
      </trkpt>
      <trkpt lat="42.80177" lon="0.39877">
        <ele>1162</ele>
        <time>2023-05-18T08:42:05Z</time>
      </trkpt>
      <trkpt lat="42.80173" lon="0.39887">
        <ele>1158</ele>
        <time>2023-05-18T08:42:06Z</time>
      </trkpt>
      <trkpt lat="42.80176" lon="0.39894">
        <ele>1153</ele>
        <time>2023-05-18T08:42:07Z</time>
      </trkpt>
      <trkpt lat="42.80181" lon="0.39895">
        <ele>1152</ele>
        <time>2023-05-18T08:42:08Z</time>
      </trkpt>
      <trkpt lat="42.80265" lon="0.39878">
        <ele>1142</ele>
        <time>2023-05-18T08:42:23Z</time>
      </trkpt>
      <trkpt lat="42.80325" lon="0.39861">
        <ele>1134</ele>
        <time>2023-05-18T08:42:34Z</time>
      </trkpt>
      <trkpt lat="42.80361" lon="0.39839">
        <ele>1132</ele>
        <time>2023-05-18T08:42:41Z</time>
      </trkpt>
      <trkpt lat="42.80367" lon="0.39845">
        <ele>1128</ele>
        <time>2023-05-18T08:42:42Z</time>
      </trkpt>
      <trkpt lat="42.80365" lon="0.39857">
        <ele>1125</ele>
        <time>2023-05-18T08:42:44Z</time>
      </trkpt>
      <trkpt lat="42.80356" lon="0.39868">
        <ele>1124</ele>
        <time>2023-05-18T08:42:46Z</time>
      </trkpt>
      <trkpt lat="42.80329" lon="0.3989">
        <ele>1123</ele>
        <time>2023-05-18T08:42:52Z</time>
      </trkpt>
      <trkpt lat="42.80272" lon="0.39925">
        <ele>1121</ele>
        <time>2023-05-18T08:43:03Z</time>
      </trkpt>
      <trkpt lat="42.80196" lon="0.39959">
        <ele>1117</ele>
        <time>2023-05-18T08:43:17Z</time>
      </trkpt>
      <trkpt lat="42.80187" lon="0.39976">
        <ele>1110</ele>
        <time>2023-05-18T08:43:20Z</time>
      </trkpt>
      <trkpt lat="42.80188" lon="0.39985">
        <ele>1105</ele>
        <time>2023-05-18T08:43:21Z</time>
      </trkpt>
      <trkpt lat="42.80192" lon="0.39987">
        <ele>1104</ele>
        <time>2023-05-18T08:43:22Z</time>
      </trkpt>
      <trkpt lat="42.8022" lon="0.39983">
        <ele>1103</ele>
        <time>2023-05-18T08:43:27Z</time>
      </trkpt>
      <trkpt lat="42.80308" lon="0.39959">
        <ele>1101</ele>
        <time>2023-05-18T08:43:43Z</time>
      </trkpt>
      <trkpt lat="42.80378" lon="0.39947">
        <ele>1090</ele>
        <time>2023-05-18T08:43:55Z</time>
      </trkpt>
      <trkpt lat="42.80413" lon="0.39932">
        <ele>1086</ele>
        <time>2023-05-18T08:44:02Z</time>
      </trkpt>
      <trkpt lat="42.80437" lon="0.39913">
        <ele>1082</ele>
        <time>2023-05-18T08:44:07Z</time>
      </trkpt>
      <trkpt lat="42.80444" lon="0.39915">
        <ele>1078</ele>
        <time>2023-05-18T08:44:08Z</time>
      </trkpt>
      <trkpt lat="42.80446" lon="0.39918">
        <ele>1077</ele>
        <time>2023-05-18T08:44:08Z</time>
      </trkpt>
      <trkpt lat="42.80445" lon="0.3993">
        <ele>1074</ele>
        <time>2023-05-18T08:44:10Z</time>
      </trkpt>
      <trkpt lat="42.80394" lon="0.39974">
        <ele>1077</ele>
        <time>2023-05-18T08:44:21Z</time>
      </trkpt>
      <trkpt lat="42.80363" lon="0.39995">
        <ele>1076</ele>
        <time>2023-05-18T08:44:27Z</time>
      </trkpt>
      <trkpt lat="42.80334" lon="0.40011">
        <ele>1075</ele>
        <time>2023-05-18T08:44:33Z</time>
      </trkpt>
      <trkpt lat="42.80278" lon="0.40049">
        <ele>1066</ele>
        <time>2023-05-18T08:44:44Z</time>
      </trkpt>
      <trkpt lat="42.80239" lon="0.40068">
        <ele>1063</ele>
        <time>2023-05-18T08:44:51Z</time>
      </trkpt>
      <trkpt lat="42.80186" lon="0.40082">
        <ele>1061</ele>
        <time>2023-05-18T08:45:01Z</time>
      </trkpt>
      <trkpt lat="42.8018" lon="0.40086">
        <ele>1060</ele>
        <time>2023-05-18T08:45:02Z</time>
      </trkpt>
      <trkpt lat="42.80175" lon="0.40094">
        <ele>1057</ele>
        <time>2023-05-18T08:45:03Z</time>
      </trkpt>
      <trkpt lat="42.80175" lon="0.40099">
        <ele>1055</ele>
        <time>2023-05-18T08:45:04Z</time>
      </trkpt>
      <trkpt lat="42.80179" lon="0.40106">
        <ele>1053</ele>
        <time>2023-05-18T08:45:05Z</time>
      </trkpt>
      <trkpt lat="42.80201" lon="0.40107">
        <ele>1050</ele>
        <time>2023-05-18T08:45:09Z</time>
      </trkpt>
      <trkpt lat="42.80257" lon="0.40102">
        <ele>1047</ele>
        <time>2023-05-18T08:45:19Z</time>
      </trkpt>
      <trkpt lat="42.80385" lon="0.40078">
        <ele>1037</ele>
        <time>2023-05-18T08:45:42Z</time>
      </trkpt>
      <trkpt lat="42.80416" lon="0.40089">
        <ele>1029</ele>
        <time>2023-05-18T08:45:48Z</time>
      </trkpt>
      <trkpt lat="42.80433" lon="0.40087">
        <ele>1025</ele>
        <time>2023-05-18T08:45:51Z</time>
      </trkpt>
      <trkpt lat="42.80453" lon="0.40075">
        <ele>1024</ele>
        <time>2023-05-18T08:45:55Z</time>
      </trkpt>
      <trkpt lat="42.8047" lon="0.40073">
        <ele>1020</ele>
        <time>2023-05-18T08:45:58Z</time>
      </trkpt>
      <trkpt lat="42.80477" lon="0.4007">
        <ele>1019</ele>
        <time>2023-05-18T08:45:59Z</time>
      </trkpt>
      <trkpt lat="42.80507" lon="0.4005">
        <ele>1017</ele>
        <time>2023-05-18T08:46:05Z</time>
      </trkpt>
      <trkpt lat="42.8054" lon="0.40022">
        <ele>1016</ele>
        <time>2023-05-18T08:46:12Z</time>
      </trkpt>
      <trkpt lat="42.806" lon="0.39979">
        <ele>1009</ele>
        <time>2023-05-18T08:46:24Z</time>
      </trkpt>
      <trkpt lat="42.80615" lon="0.39978">
        <ele>1007</ele>
        <time>2023-05-18T08:46:26Z</time>
      </trkpt>
      <trkpt lat="42.80639" lon="0.39983">
        <ele>1003</ele>
        <time>2023-05-18T08:46:31Z</time>
      </trkpt>
      <trkpt lat="42.80683" lon="0.39981">
        <ele>998</ele>
        <time>2023-05-18T08:46:39Z</time>
      </trkpt>
      <trkpt lat="42.80708" lon="0.39996">
        <ele>993</ele>
        <time>2023-05-18T08:46:43Z</time>
      </trkpt>
      <trkpt lat="42.80724" lon="0.4001">
        <ele>990</ele>
        <time>2023-05-18T08:46:47Z</time>
      </trkpt>
      <trkpt lat="42.80747" lon="0.40036">
        <ele>984</ele>
        <time>2023-05-18T08:46:52Z</time>
      </trkpt>
      <trkpt lat="42.80768" lon="0.40068">
        <ele>981</ele>
        <time>2023-05-18T08:46:58Z</time>
      </trkpt>
      <trkpt lat="42.80797" lon="0.40102">
        <ele>976</ele>
        <time>2023-05-18T08:47:05Z</time>
      </trkpt>
      <trkpt lat="42.80902" lon="0.40155">
        <ele>972</ele>
        <time>2023-05-18T08:47:25Z</time>
      </trkpt>
      <trkpt lat="42.80923" lon="0.40173">
        <ele>971</ele>
        <time>2023-05-18T08:47:29Z</time>
      </trkpt>
      <trkpt lat="42.80925" lon="0.40182">
        <ele>970</ele>
        <time>2023-05-18T08:47:30Z</time>
      </trkpt>
      <trkpt lat="42.80938" lon="0.40182">
        <ele>971</ele>
        <time>2023-05-18T08:47:32Z</time>
      </trkpt>
      <trkpt lat="42.80973" lon="0.40197">
        <ele>972</ele>
        <time>2023-05-18T08:47:39Z</time>
      </trkpt>
      <trkpt lat="42.80994" lon="0.40214">
        <ele>971</ele>
        <time>2023-05-18T08:47:43Z</time>
      </trkpt>
      <trkpt lat="42.81046" lon="0.40268">
        <ele>975</ele>
        <time>2023-05-18T08:47:55Z</time>
      </trkpt>
      <trkpt lat="42.8108" lon="0.40285">
        <ele>979</ele>
        <time>2023-05-18T08:48:01Z</time>
      </trkpt>
      <trkpt lat="42.81096" lon="0.40304">
        <ele>982</ele>
        <time>2023-05-18T08:48:05Z</time>
      </trkpt>
      <trkpt lat="42.81114" lon="0.40352">
        <ele>986</ele>
        <time>2023-05-18T08:48:12Z</time>
      </trkpt>
      <trkpt lat="42.81126" lon="0.40367">
        <ele>988</ele>
        <time>2023-05-18T08:48:15Z</time>
      </trkpt>
      <trkpt lat="42.8115" lon="0.40389">
        <ele>990</ele>
        <time>2023-05-18T08:48:20Z</time>
      </trkpt>
      <trkpt lat="42.81214" lon="0.40487">
        <ele>979</ele>
        <time>2023-05-18T08:48:37Z</time>
      </trkpt>
      <trkpt lat="42.81226" lon="0.40502">
        <ele>976</ele>
        <time>2023-05-18T08:48:40Z</time>
      </trkpt>
      <trkpt lat="42.81236" lon="0.4051">
        <ele>974</ele>
        <time>2023-05-18T08:48:42Z</time>
      </trkpt>
      <trkpt lat="42.81246" lon="0.40513">
        <ele>973</ele>
        <time>2023-05-18T08:48:44Z</time>
      </trkpt>
      <trkpt lat="42.81256" lon="0.40511">
        <ele>972</ele>
        <time>2023-05-18T08:48:46Z</time>
      </trkpt>
      <trkpt lat="42.81268" lon="0.40504">
        <ele>971</ele>
        <time>2023-05-18T08:48:48Z</time>
      </trkpt>
      <trkpt lat="42.81297" lon="0.40475">
        <ele>970</ele>
        <time>2023-05-18T08:48:55Z</time>
      </trkpt>
      <trkpt lat="42.81305" lon="0.4047">
        <ele>970</ele>
        <time>2023-05-18T08:48:56Z</time>
      </trkpt>
      <trkpt lat="42.8132" lon="0.40466">
        <ele>968</ele>
        <time>2023-05-18T08:48:59Z</time>
      </trkpt>
      <trkpt lat="42.81328" lon="0.40467">
        <ele>967</ele>
        <time>2023-05-18T08:49:00Z</time>
      </trkpt>
      <trkpt lat="42.81343" lon="0.40474">
        <ele>965</ele>
        <time>2023-05-18T08:49:03Z</time>
      </trkpt>
      <trkpt lat="42.81383" lon="0.40505">
        <ele>960</ele>
        <time>2023-05-18T08:49:11Z</time>
      </trkpt>
      <trkpt lat="42.81364" lon="0.40548">
        <ele>957</ele>
        <time>2023-05-18T08:49:18Z</time>
      </trkpt>
      <trkpt lat="42.81315" lon="0.40622">
        <ele>955</ele>
        <time>2023-05-18T08:49:31Z</time>
      </trkpt>
      <trkpt lat="42.81237" lon="0.40749">
        <ele>954</ele>
        <time>2023-05-18T08:49:53Z</time>
      </trkpt>
      <trkpt lat="42.81224" lon="0.40769">
        <ele>954</ele>
        <time>2023-05-18T08:49:56Z</time>
      </trkpt>
      <trkpt lat="42.81185" lon="0.40818">
        <ele>954</ele>
        <time>2023-05-18T08:50:06Z</time>
      </trkpt>
      <trkpt lat="42.81159" lon="0.40844">
        <ele>954</ele>
        <time>2023-05-18T08:50:11Z</time>
      </trkpt>
      <trkpt lat="42.81152" lon="0.40862">
        <ele>953</ele>
        <time>2023-05-18T08:50:14Z</time>
      </trkpt>
      <trkpt lat="42.81158" lon="0.40887">
        <ele>950</ele>
        <time>2023-05-18T08:50:17Z</time>
      </trkpt>
      <trkpt lat="42.81179" lon="0.40909">
        <ele>945</ele>
        <time>2023-05-18T08:50:22Z</time>
      </trkpt>
      <trkpt lat="42.81187" lon="0.40914">
        <ele>944</ele>
        <time>2023-05-18T08:50:24Z</time>
      </trkpt>
      <trkpt lat="42.81195" lon="0.40909">
        <ele>944</ele>
        <time>2023-05-18T08:50:25Z</time>
      </trkpt>
      <trkpt lat="42.8121" lon="0.40913">
        <ele>943</ele>
        <time>2023-05-18T08:50:28Z</time>
      </trkpt>
      <trkpt lat="42.81253" lon="0.40945">
        <ele>940</ele>
        <time>2023-05-18T08:50:37Z</time>
      </trkpt>
      <trkpt lat="42.81301" lon="0.40964">
        <ele>940</ele>
        <time>2023-05-18T08:50:46Z</time>
      </trkpt>
      <trkpt lat="42.81309" lon="0.40975">
        <ele>940</ele>
        <time>2023-05-18T08:50:48Z</time>
      </trkpt>
      <trkpt lat="42.81313" lon="0.4099">
        <ele>940</ele>
        <time>2023-05-18T08:50:50Z</time>
      </trkpt>
      <trkpt lat="42.81324" lon="0.41088">
        <ele>941</ele>
        <time>2023-05-18T08:51:03Z</time>
      </trkpt>
      <trkpt lat="42.81328" lon="0.41155">
        <ele>939</ele>
        <time>2023-05-18T08:51:11Z</time>
      </trkpt>
      <trkpt lat="42.81343" lon="0.41255">
        <ele>941</ele>
        <time>2023-05-18T08:51:25Z</time>
      </trkpt>
      <trkpt lat="42.81344" lon="0.41323">
        <ele>943</ele>
        <time>2023-05-18T08:51:34Z</time>
      </trkpt>
      <trkpt lat="42.81353" lon="0.41354">
        <ele>945</ele>
        <time>2023-05-18T08:51:38Z</time>
      </trkpt>
      <trkpt lat="42.81364" lon="0.41372">
        <ele>946</ele>
        <time>2023-05-18T08:51:41Z</time>
      </trkpt>
      <trkpt lat="42.8138" lon="0.41382">
        <ele>945</ele>
        <time>2023-05-18T08:51:44Z</time>
      </trkpt>
      <trkpt lat="42.81408" lon="0.41391">
        <ele>945</ele>
        <time>2023-05-18T08:51:49Z</time>
      </trkpt>
      <trkpt lat="42.81452" lon="0.41394">
        <ele>945</ele>
        <time>2023-05-18T08:51:57Z</time>
      </trkpt>
      <trkpt lat="42.8148" lon="0.41393">
        <ele>945</ele>
        <time>2023-05-18T08:52:02Z</time>
      </trkpt>
      <trkpt lat="42.81505" lon="0.41382">
        <ele>945</ele>
        <time>2023-05-18T08:52:07Z</time>
      </trkpt>
      <trkpt lat="42.81517" lon="0.4137">
        <ele>945</ele>
        <time>2023-05-18T08:52:09Z</time>
      </trkpt>
      <trkpt lat="42.81542" lon="0.41337">
        <ele>943</ele>
        <time>2023-05-18T08:52:16Z</time>
      </trkpt>
      <trkpt lat="42.81556" lon="0.41325">
        <ele>942</ele>
        <time>2023-05-18T08:52:18Z</time>
      </trkpt>
      <trkpt lat="42.8157" lon="0.4132">
        <ele>942</ele>
        <time>2023-05-18T08:52:21Z</time>
      </trkpt>
      <trkpt lat="42.81602" lon="0.41317">
        <ele>943</ele>
        <time>2023-05-18T08:52:27Z</time>
      </trkpt>
      <trkpt lat="42.81614" lon="0.41318">
        <ele>944</ele>
        <time>2023-05-18T08:52:29Z</time>
      </trkpt>
      <trkpt lat="42.81624" lon="0.41328">
        <ele>945</ele>
        <time>2023-05-18T08:52:31Z</time>
      </trkpt>
      <trkpt lat="42.81632" lon="0.41351">
        <ele>947</ele>
        <time>2023-05-18T08:52:34Z</time>
      </trkpt>
      <trkpt lat="42.81644" lon="0.41369">
        <ele>950</ele>
        <time>2023-05-18T08:52:38Z</time>
      </trkpt>
      <trkpt lat="42.81658" lon="0.41375">
        <ele>951</ele>
        <time>2023-05-18T08:52:40Z</time>
      </trkpt>
      <trkpt lat="42.81673" lon="0.41377">
        <ele>952</ele>
        <time>2023-05-18T08:52:43Z</time>
      </trkpt>
      <trkpt lat="42.81706" lon="0.41365">
        <ele>950</ele>
        <time>2023-05-18T08:52:49Z</time>
      </trkpt>
      <trkpt lat="42.81711" lon="0.41366">
        <ele>951</ele>
        <time>2023-05-18T08:52:50Z</time>
      </trkpt>
      <trkpt lat="42.81718" lon="0.41373">
        <ele>951</ele>
        <time>2023-05-18T08:52:51Z</time>
      </trkpt>
      <trkpt lat="42.81721" lon="0.41385">
        <ele>952</ele>
        <time>2023-05-18T08:52:53Z</time>
      </trkpt>
      <trkpt lat="42.81721" lon="0.41404">
        <ele>954</ele>
        <time>2023-05-18T08:52:56Z</time>
      </trkpt>
      <trkpt lat="42.81717" lon="0.41499">
        <ele>968</ele>
        <time>2023-05-18T08:53:08Z</time>
      </trkpt>
      <trkpt lat="42.81721" lon="0.41512">
        <ele>970</ele>
        <time>2023-05-18T08:53:10Z</time>
      </trkpt>
      <trkpt lat="42.81725" lon="0.41517">
        <ele>971</ele>
        <time>2023-05-18T08:53:11Z</time>
      </trkpt>
      <trkpt lat="42.81735" lon="0.41521">
        <ele>970</ele>
        <time>2023-05-18T08:53:13Z</time>
      </trkpt>
      <trkpt lat="42.81741" lon="0.4152">
        <ele>970</ele>
        <time>2023-05-18T08:53:14Z</time>
      </trkpt>
      <trkpt lat="42.81767" lon="0.41508">
        <ele>969</ele>
        <time>2023-05-18T08:53:19Z</time>
      </trkpt>
      <trkpt lat="42.81793" lon="0.41502">
        <ele>970</ele>
        <time>2023-05-18T08:53:23Z</time>
      </trkpt>
      <trkpt lat="42.8182" lon="0.4149">
        <ele>971</ele>
        <time>2023-05-18T08:53:28Z</time>
      </trkpt>
      <trkpt lat="42.81839" lon="0.41475">
        <ele>970</ele>
        <time>2023-05-18T08:53:32Z</time>
      </trkpt>
      <trkpt lat="42.81851" lon="0.41471">
        <ele>971</ele>
        <time>2023-05-18T08:53:34Z</time>
      </trkpt>
      <trkpt lat="42.81861" lon="0.41475">
        <ele>972</ele>
        <time>2023-05-18T08:53:36Z</time>
      </trkpt>
      <trkpt lat="42.81868" lon="0.41485">
        <ele>974</ele>
        <time>2023-05-18T08:53:38Z</time>
      </trkpt>
      <trkpt lat="42.81872" lon="0.41529">
        <ele>981</ele>
        <time>2023-05-18T08:53:44Z</time>
      </trkpt>
      <trkpt lat="42.81879" lon="0.41545">
        <ele>984</ele>
        <time>2023-05-18T08:53:46Z</time>
      </trkpt>
      <trkpt lat="42.81895" lon="0.41555">
        <ele>986</ele>
        <time>2023-05-18T08:53:49Z</time>
      </trkpt>
      <trkpt lat="42.81915" lon="0.41555">
        <ele>987</ele>
        <time>2023-05-18T08:53:53Z</time>
      </trkpt>
      <trkpt lat="42.82017" lon="0.41534">
        <ele>992</ele>
        <time>2023-05-18T08:54:11Z</time>
      </trkpt>
      <trkpt lat="42.82056" lon="0.41536">
        <ele>993</ele>
        <time>2023-05-18T08:54:18Z</time>
      </trkpt>
      <trkpt lat="42.82075" lon="0.41541">
        <ele>994</ele>
        <time>2023-05-18T08:54:22Z</time>
      </trkpt>
      <trkpt lat="42.82092" lon="0.4155">
        <ele>996</ele>
        <time>2023-05-18T08:54:25Z</time>
      </trkpt>
      <trkpt lat="42.8212" lon="0.41575">
        <ele>1001</ele>
        <time>2023-05-18T08:54:31Z</time>
      </trkpt>
      <trkpt lat="42.82159" lon="0.41593">
        <ele>1006</ele>
        <time>2023-05-18T08:54:38Z</time>
      </trkpt>
      <trkpt lat="42.82177" lon="0.41598">
        <ele>1008</ele>
        <time>2023-05-18T08:54:42Z</time>
      </trkpt>
      <trkpt lat="42.82188" lon="0.41598">
        <ele>1009</ele>
        <time>2023-05-18T08:54:44Z</time>
      </trkpt>
      <trkpt lat="42.8221" lon="0.41593">
        <ele>1010</ele>
        <time>2023-05-18T08:54:47Z</time>
      </trkpt>
      <trkpt lat="42.82233" lon="0.41579">
        <ele>1009</ele>
        <time>2023-05-18T08:54:52Z</time>
      </trkpt>
      <trkpt lat="42.82268" lon="0.41552">
        <ele>1004</ele>
        <time>2023-05-18T08:54:59Z</time>
      </trkpt>
      <trkpt lat="42.82341" lon="0.41512">
        <ele>997</ele>
        <time>2023-05-18T08:55:13Z</time>
      </trkpt>
      <trkpt lat="42.82357" lon="0.41498">
        <ele>996</ele>
        <time>2023-05-18T08:55:16Z</time>
      </trkpt>
      <trkpt lat="42.82385" lon="0.41465">
        <ele>993</ele>
        <time>2023-05-18T08:55:23Z</time>
      </trkpt>
      <trkpt lat="42.82397" lon="0.41463">
        <ele>994</ele>
        <time>2023-05-18T08:55:25Z</time>
      </trkpt>
      <trkpt lat="42.82404" lon="0.4147">
        <ele>996</ele>
        <time>2023-05-18T08:55:27Z</time>
      </trkpt>
      <trkpt lat="42.82409" lon="0.41481">
        <ele>999</ele>
        <time>2023-05-18T08:55:28Z</time>
      </trkpt>
      <trkpt lat="42.82389" lon="0.4149">
        <ele>998</ele>
        <time>2023-05-18T08:55:32Z</time>
      </trkpt>
      <trkpt lat="42.82373" lon="0.41503">
        <ele>999</ele>
        <time>2023-05-18T08:55:36Z</time>
      </trkpt>
      <trkpt lat="42.8233" lon="0.4157">
        <ele>1010</ele>
        <time>2023-05-18T08:55:47Z</time>
      </trkpt>
      <trkpt lat="42.82316" lon="0.41584">
        <ele>1013</ele>
        <time>2023-05-18T08:55:50Z</time>
      </trkpt>
      <trkpt lat="42.82138" lon="0.41708">
        <ele>1032</ele>
        <time>2023-05-18T08:56:26Z</time>
      </trkpt>
      <trkpt lat="42.82047" lon="0.4176">
        <ele>1040</ele>
        <time>2023-05-18T08:56:43Z</time>
      </trkpt>
      <trkpt lat="42.81982" lon="0.41812">
        <ele>1049</ele>
        <time>2023-05-18T08:56:57Z</time>
      </trkpt>
      <trkpt lat="42.81943" lon="0.41837">
        <ele>1052</ele>
        <time>2023-05-18T08:57:04Z</time>
      </trkpt>
      <trkpt lat="42.819" lon="0.41882">
        <ele>1061</ele>
        <time>2023-05-18T08:57:14Z</time>
      </trkpt>
      <trkpt lat="42.81855" lon="0.41909">
        <ele>1064</ele>
        <time>2023-05-18T08:57:23Z</time>
      </trkpt>
      <trkpt lat="42.81769" lon="0.41946">
        <ele>1072</ele>
        <time>2023-05-18T08:57:39Z</time>
      </trkpt>
      <trkpt lat="42.81704" lon="0.41978">
        <ele>1077</ele>
        <time>2023-05-18T08:57:51Z</time>
      </trkpt>
      <trkpt lat="42.81682" lon="0.41993">
        <ele>1079</ele>
        <time>2023-05-18T08:57:56Z</time>
      </trkpt>
      <trkpt lat="42.81636" lon="0.42038">
        <ele>1088</ele>
        <time>2023-05-18T08:58:06Z</time>
      </trkpt>
      <trkpt lat="42.81598" lon="0.42082">
        <ele>1093</ele>
        <time>2023-05-18T08:58:14Z</time>
      </trkpt>
      <trkpt lat="42.81585" lon="0.4209">
        <ele>1093</ele>
        <time>2023-05-18T08:58:17Z</time>
      </trkpt>
      <trkpt lat="42.81476" lon="0.42138">
        <ele>1102</ele>
        <time>2023-05-18T08:58:37Z</time>
      </trkpt>
      <trkpt lat="42.81457" lon="0.42152">
        <ele>1104</ele>
        <time>2023-05-18T08:58:41Z</time>
      </trkpt>
      <trkpt lat="42.8144" lon="0.42168">
        <ele>1105</ele>
        <time>2023-05-18T08:58:45Z</time>
      </trkpt>
      <trkpt lat="42.8141" lon="0.42214">
        <ele>1111</ele>
        <time>2023-05-18T08:58:53Z</time>
      </trkpt>
      <trkpt lat="42.81357" lon="0.42326">
        <ele>1126</ele>
        <time>2023-05-18T08:59:10Z</time>
      </trkpt>
      <trkpt lat="42.81343" lon="0.42347">
        <ele>1128</ele>
        <time>2023-05-18T08:59:14Z</time>
      </trkpt>
      <trkpt lat="42.81331" lon="0.42357">
        <ele>1128</ele>
        <time>2023-05-18T08:59:17Z</time>
      </trkpt>
      <trkpt lat="42.81323" lon="0.4236">
        <ele>1129</ele>
        <time>2023-05-18T08:59:18Z</time>
      </trkpt>
      <trkpt lat="42.81305" lon="0.42359">
        <ele>1130</ele>
        <time>2023-05-18T08:59:21Z</time>
      </trkpt>
      <trkpt lat="42.81252" lon="0.42329">
        <ele>1129</ele>
        <time>2023-05-18T08:59:31Z</time>
      </trkpt>
      <trkpt lat="42.81147" lon="0.42283">
        <ele>1145</ele>
        <time>2023-05-18T08:59:51Z</time>
      </trkpt>
      <trkpt lat="42.81112" lon="0.42262">
        <ele>1149</ele>
        <time>2023-05-18T08:59:58Z</time>
      </trkpt>
      <trkpt lat="42.81035" lon="0.42203">
        <ele>1153</ele>
        <time>2023-05-18T09:00:14Z</time>
      </trkpt>
      <trkpt lat="42.81009" lon="0.42187">
        <ele>1155</ele>
        <time>2023-05-18T09:00:19Z</time>
      </trkpt>
      <trkpt lat="42.80966" lon="0.42176">
        <ele>1161</ele>
        <time>2023-05-18T09:00:26Z</time>
      </trkpt>
      <trkpt lat="42.80941" lon="0.42176">
        <ele>1165</ele>
        <time>2023-05-18T09:00:31Z</time>
      </trkpt>
      <trkpt lat="42.80926" lon="0.42173">
        <ele>1167</ele>
        <time>2023-05-18T09:00:34Z</time>
      </trkpt>
      <trkpt lat="42.80915" lon="0.42167">
        <ele>1167</ele>
        <time>2023-05-18T09:00:36Z</time>
      </trkpt>
      <trkpt lat="42.80893" lon="0.42133">
        <ele>1162</ele>
        <time>2023-05-18T09:00:42Z</time>
      </trkpt>
      <trkpt lat="42.80887" lon="0.42132">
        <ele>1162</ele>
        <time>2023-05-18T09:00:43Z</time>
      </trkpt>
      <trkpt lat="42.80881" lon="0.42136">
        <ele>1164</ele>
        <time>2023-05-18T09:00:44Z</time>
      </trkpt>
      <trkpt lat="42.80878" lon="0.42144">
        <ele>1166</ele>
        <time>2023-05-18T09:00:45Z</time>
      </trkpt>
      <trkpt lat="42.80879" lon="0.42152">
        <ele>1168</ele>
        <time>2023-05-18T09:00:46Z</time>
      </trkpt>
      <trkpt lat="42.80889" lon="0.42168">
        <ele>1171</ele>
        <time>2023-05-18T09:00:49Z</time>
      </trkpt>
      <trkpt lat="42.80922" lon="0.42203">
        <ele>1177</ele>
        <time>2023-05-18T09:00:56Z</time>
      </trkpt>
      <trkpt lat="42.80976" lon="0.42249">
        <ele>1180</ele>
        <time>2023-05-18T09:01:08Z</time>
      </trkpt>
      <trkpt lat="42.80986" lon="0.42264">
        <ele>1181</ele>
        <time>2023-05-18T09:01:10Z</time>
      </trkpt>
      <trkpt lat="42.81021" lon="0.42341">
        <ele>1189</ele>
        <time>2023-05-18T09:01:22Z</time>
      </trkpt>
      <trkpt lat="42.81061" lon="0.42421">
        <ele>1195</ele>
        <time>2023-05-18T09:01:35Z</time>
      </trkpt>
      <trkpt lat="42.81065" lon="0.42434">
        <ele>1196</ele>
        <time>2023-05-18T09:01:37Z</time>
      </trkpt>
      <trkpt lat="42.81067" lon="0.42479">
        <ele>1205</ele>
        <time>2023-05-18T09:01:42Z</time>
      </trkpt>
      <trkpt lat="42.81071" lon="0.42496">
        <ele>1208</ele>
        <time>2023-05-18T09:01:45Z</time>
      </trkpt>
      <trkpt lat="42.81075" lon="0.42502">
        <ele>1208</ele>
        <time>2023-05-18T09:01:46Z</time>
      </trkpt>
      <trkpt lat="42.81089" lon="0.42512">
        <ele>1208</ele>
        <time>2023-05-18T09:01:49Z</time>
      </trkpt>
      <trkpt lat="42.81123" lon="0.42521">
        <ele>1203</ele>
        <time>2023-05-18T09:01:55Z</time>
      </trkpt>
      <trkpt lat="42.81139" lon="0.42533">
        <ele>1202</ele>
        <time>2023-05-18T09:01:58Z</time>
      </trkpt>
      <trkpt lat="42.81158" lon="0.42558">
        <ele>1204</ele>
        <time>2023-05-18T09:02:03Z</time>
      </trkpt>
      <trkpt lat="42.8117" lon="0.42594">
        <ele>1209</ele>
        <time>2023-05-18T09:02:08Z</time>
      </trkpt>
      <trkpt lat="42.81185" lon="0.42671">
        <ele>1221</ele>
        <time>2023-05-18T09:02:18Z</time>
      </trkpt>
      <trkpt lat="42.81198" lon="0.42707">
        <ele>1225</ele>
        <time>2023-05-18T09:02:24Z</time>
      </trkpt>
      <trkpt lat="42.81225" lon="0.42747">
        <ele>1227</ele>
        <time>2023-05-18T09:02:31Z</time>
      </trkpt>
      <trkpt lat="42.81252" lon="0.42778">
        <ele>1229</ele>
        <time>2023-05-18T09:02:37Z</time>
      </trkpt>
      <trkpt lat="42.81261" lon="0.42785">
        <ele>1229</ele>
        <time>2023-05-18T09:02:39Z</time>
      </trkpt>
      <trkpt lat="42.81294" lon="0.42792">
        <ele>1226</ele>
        <time>2023-05-18T09:02:45Z</time>
      </trkpt>
      <trkpt lat="42.81305" lon="0.428">
        <ele>1226</ele>
        <time>2023-05-18T09:02:47Z</time>
      </trkpt>
      <trkpt lat="42.81309" lon="0.42809">
        <ele>1228</ele>
        <time>2023-05-18T09:02:48Z</time>
      </trkpt>
      <trkpt lat="42.8131" lon="0.42821">
        <ele>1230</ele>
        <time>2023-05-18T09:02:50Z</time>
      </trkpt>
      <trkpt lat="42.81305" lon="0.42835">
        <ele>1234</ele>
        <time>2023-05-18T09:02:52Z</time>
      </trkpt>
      <trkpt lat="42.81301" lon="0.42838">
        <ele>1236</ele>
        <time>2023-05-18T09:02:53Z</time>
      </trkpt>
      <trkpt lat="42.8129" lon="0.42841">
        <ele>1238</ele>
        <time>2023-05-18T09:02:55Z</time>
      </trkpt>
      <trkpt lat="42.8127" lon="0.4284">
        <ele>1240</ele>
        <time>2023-05-18T09:02:58Z</time>
      </trkpt>
      <trkpt lat="42.81234" lon="0.4283">
        <ele>1244</ele>
        <time>2023-05-18T09:03:05Z</time>
      </trkpt>
      <trkpt lat="42.81175" lon="0.42798">
        <ele>1248</ele>
        <time>2023-05-18T09:03:16Z</time>
      </trkpt>
      <trkpt lat="42.81109" lon="0.42748">
        <ele>1252</ele>
        <time>2023-05-18T09:03:30Z</time>
      </trkpt>
      <trkpt lat="42.81081" lon="0.42733">
        <ele>1255</ele>
        <time>2023-05-18T09:03:35Z</time>
      </trkpt>
      <trkpt lat="42.81042" lon="0.42719">
        <ele>1262</ele>
        <time>2023-05-18T09:03:42Z</time>
      </trkpt>
      <trkpt lat="42.81022" lon="0.42708">
        <ele>1265</ele>
        <time>2023-05-18T09:03:46Z</time>
      </trkpt>
      <trkpt lat="42.80974" lon="0.42668">
        <ele>1269</ele>
        <time>2023-05-18T09:03:56Z</time>
      </trkpt>
      <trkpt lat="42.80943" lon="0.42651">
        <ele>1275</ele>
        <time>2023-05-18T09:04:02Z</time>
      </trkpt>
      <trkpt lat="42.80924" lon="0.42631">
        <ele>1276</ele>
        <time>2023-05-18T09:04:06Z</time>
      </trkpt>
      <trkpt lat="42.80878" lon="0.42566">
        <ele>1273</ele>
        <time>2023-05-18T09:04:18Z</time>
      </trkpt>
      <trkpt lat="42.80861" lon="0.42553">
        <ele>1275</ele>
        <time>2023-05-18T09:04:21Z</time>
      </trkpt>
      <trkpt lat="42.80838" lon="0.4254">
        <ele>1278</ele>
        <time>2023-05-18T09:04:26Z</time>
      </trkpt>
      <trkpt lat="42.8071" lon="0.42492">
        <ele>1290</ele>
        <time>2023-05-18T09:04:49Z</time>
      </trkpt>
      <trkpt lat="42.80621" lon="0.42476">
        <ele>1298</ele>
        <time>2023-05-18T09:05:05Z</time>
      </trkpt>
      <trkpt lat="42.80513" lon="0.42468">
        <ele>1310</ele>
        <time>2023-05-18T09:05:25Z</time>
      </trkpt>
      <trkpt lat="42.80423" lon="0.42458">
        <ele>1314</ele>
        <time>2023-05-18T09:05:41Z</time>
      </trkpt>
      <trkpt lat="42.80396" lon="0.42463">
        <ele>1314</ele>
        <time>2023-05-18T09:05:46Z</time>
      </trkpt>
      <trkpt lat="42.80354" lon="0.42484">
        <ele>1319</ele>
        <time>2023-05-18T09:05:54Z</time>
      </trkpt>
      <trkpt lat="42.80278" lon="0.42541">
        <ele>1327</ele>
        <time>2023-05-18T09:06:09Z</time>
      </trkpt>
      <trkpt lat="42.80263" lon="0.42558">
        <ele>1328</ele>
        <time>2023-05-18T09:06:12Z</time>
      </trkpt>
      <trkpt lat="42.80255" lon="0.42577">
        <ele>1331</ele>
        <time>2023-05-18T09:06:15Z</time>
      </trkpt>
      <trkpt lat="42.80239" lon="0.4264">
        <ele>1343</ele>
        <time>2023-05-18T09:06:24Z</time>
      </trkpt>
      <trkpt lat="42.80218" lon="0.42705">
        <ele>1353</ele>
        <time>2023-05-18T09:06:33Z</time>
      </trkpt>
      <trkpt lat="42.80208" lon="0.42787">
        <ele>1362</ele>
        <time>2023-05-18T09:06:44Z</time>
      </trkpt>
      <trkpt lat="42.80201" lon="0.42821">
        <ele>1363</ele>
        <time>2023-05-18T09:06:49Z</time>
      </trkpt>
      <trkpt lat="42.80191" lon="0.4285">
        <ele>1363</ele>
        <time>2023-05-18T09:06:53Z</time>
      </trkpt>
      <trkpt lat="42.80186" lon="0.42878">
        <ele>1364</ele>
        <time>2023-05-18T09:06:57Z</time>
      </trkpt>
      <trkpt lat="42.80178" lon="0.42962">
        <ele>1369</ele>
        <time>2023-05-18T09:07:08Z</time>
      </trkpt>
      <trkpt lat="42.80179" lon="0.43031">
        <ele>1374</ele>
        <time>2023-05-18T09:07:17Z</time>
      </trkpt>
      <trkpt lat="42.80172" lon="0.43068">
        <ele>1374</ele>
        <time>2023-05-18T09:07:22Z</time>
      </trkpt>
      <trkpt lat="42.80146" lon="0.43136">
        <ele>1378</ele>
        <time>2023-05-18T09:07:32Z</time>
      </trkpt>
      <trkpt lat="42.80138" lon="0.43183">
        <ele>1380</ele>
        <time>2023-05-18T09:07:38Z</time>
      </trkpt>
      <trkpt lat="42.80139" lon="0.43304">
        <ele>1385</ele>
        <time>2023-05-18T09:07:54Z</time>
      </trkpt>
      <trkpt lat="42.80118" lon="0.43448">
        <ele>1389</ele>
        <time>2023-05-18T09:08:13Z</time>
      </trkpt>
      <trkpt lat="42.80113" lon="0.43505">
        <ele>1393</ele>
        <time>2023-05-18T09:08:21Z</time>
      </trkpt>
      <trkpt lat="42.80088" lon="0.43632">
        <ele>1394</ele>
        <time>2023-05-18T09:08:38Z</time>
      </trkpt>
      <trkpt lat="42.80086" lon="0.43654">
        <ele>1395</ele>
        <time>2023-05-18T09:08:41Z</time>
      </trkpt>
      <trkpt lat="42.80094" lon="0.43917">
        <ele>1409</ele>
        <time>2023-05-18T09:09:15Z</time>
      </trkpt>
      <trkpt lat="42.80098" lon="0.43963">
        <ele>1413</ele>
        <time>2023-05-18T09:09:21Z</time>
      </trkpt>
      <trkpt lat="42.80108" lon="0.4403">
        <ele>1421</ele>
        <time>2023-05-18T09:09:30Z</time>
      </trkpt>
      <trkpt lat="42.80109" lon="0.44092">
        <ele>1424</ele>
        <time>2023-05-18T09:09:38Z</time>
      </trkpt>
      <trkpt lat="42.80113" lon="0.44122">
        <ele>1425</ele>
        <time>2023-05-18T09:09:42Z</time>
      </trkpt>
      <trkpt lat="42.8014" lon="0.44178">
        <ele>1433</ele>
        <time>2023-05-18T09:09:51Z</time>
      </trkpt>
      <trkpt lat="42.80147" lon="0.44204">
        <ele>1435</ele>
        <time>2023-05-18T09:09:54Z</time>
      </trkpt>
      <trkpt lat="42.80165" lon="0.4431">
        <ele>1442</ele>
        <time>2023-05-18T09:10:09Z</time>
      </trkpt>
      <trkpt lat="42.80176" lon="0.44336">
        <ele>1447</ele>
        <time>2023-05-18T09:10:13Z</time>
      </trkpt>
      <trkpt lat="42.80201" lon="0.44379">
        <ele>1454</ele>
        <time>2023-05-18T09:10:20Z</time>
      </trkpt>
      <trkpt lat="42.80209" lon="0.44397">
        <ele>1455</ele>
        <time>2023-05-18T09:10:22Z</time>
      </trkpt>
      <trkpt lat="42.80212" lon="0.44411">
        <ele>1455</ele>
        <time>2023-05-18T09:10:24Z</time>
      </trkpt>
      <trkpt lat="42.80203" lon="0.44489">
        <ele>1447</ele>
        <time>2023-05-18T09:10:35Z</time>
      </trkpt>
      <trkpt lat="42.80196" lon="0.44684">
        <ele>1466</ele>
        <time>2023-05-18T09:11:00Z</time>
      </trkpt>
      <trkpt lat="42.80182" lon="0.4491">
        <ele>1481</ele>
        <time>2023-05-18T09:11:30Z</time>
      </trkpt>
      <trkpt lat="42.80188" lon="0.44952">
        <ele>1484</ele>
        <time>2023-05-18T09:11:35Z</time>
      </trkpt>
      <trkpt lat="42.80216" lon="0.45041">
        <ele>1499</ele>
        <time>2023-05-18T09:11:48Z</time>
      </trkpt>
      <trkpt lat="42.8023" lon="0.45124">
        <ele>1505</ele>
        <time>2023-05-18T09:11:59Z</time>
      </trkpt>
      <trkpt lat="42.80235" lon="0.45254">
        <ele>1511</ele>
        <time>2023-05-18T09:12:16Z</time>
      </trkpt>
      <trkpt lat="42.80228" lon="0.45285">
        <ele>1513</ele>
        <time>2023-05-18T09:12:20Z</time>
      </trkpt>
      <trkpt lat="42.80216" lon="0.45311">
        <ele>1512</ele>
        <time>2023-05-18T09:12:24Z</time>
      </trkpt>
      <trkpt lat="42.80206" lon="0.45347">
        <ele>1513</ele>
        <time>2023-05-18T09:12:29Z</time>
      </trkpt>
      <trkpt lat="42.80202" lon="0.45456">
        <ele>1525</ele>
        <time>2023-05-18T09:12:44Z</time>
      </trkpt>
      <trkpt lat="42.80189" lon="0.4554">
        <ele>1530</ele>
        <time>2023-05-18T09:12:55Z</time>
      </trkpt>
      <trkpt lat="42.80183" lon="0.45619">
        <ele>1539</ele>
        <time>2023-05-18T09:13:05Z</time>
      </trkpt>
      <trkpt lat="42.80172" lon="0.45701">
        <ele>1546</ele>
        <time>2023-05-18T09:13:16Z</time>
      </trkpt>
      <trkpt lat="42.80172" lon="0.45733">
        <ele>1549</ele>
        <time>2023-05-18T09:13:20Z</time>
      </trkpt>
      <trkpt lat="42.80182" lon="0.45803">
        <ele>1559</ele>
        <time>2023-05-18T09:13:30Z</time>
      </trkpt>
      <trkpt lat="42.80192" lon="0.4595">
        <ele>1578</ele>
        <time>2023-05-18T09:13:49Z</time>
      </trkpt>
      <trkpt lat="42.80224" lon="0.46211">
        <ele>1590</ele>
        <time>2023-05-18T09:14:23Z</time>
      </trkpt>
      <trkpt lat="42.80232" lon="0.46363">
        <ele>1584</ele>
        <time>2023-05-18T09:14:43Z</time>
      </trkpt>
      <trkpt lat="42.80237" lon="0.46394">
        <ele>1578</ele>
        <time>2023-05-18T09:14:47Z</time>
      </trkpt>
      <trkpt lat="42.80256" lon="0.46458">
        <ele>1569</ele>
        <time>2023-05-18T09:14:56Z</time>
      </trkpt>
      <trkpt lat="42.80289" lon="0.46589">
        <ele>1552</ele>
        <time>2023-05-18T09:15:14Z</time>
      </trkpt>
      <trkpt lat="42.80304" lon="0.46635">
        <ele>1547</ele>
        <time>2023-05-18T09:15:21Z</time>
      </trkpt>
      <trkpt lat="42.80319" lon="0.46663">
        <ele>1546</ele>
        <time>2023-05-18T09:15:26Z</time>
      </trkpt>
      <trkpt lat="42.80352" lon="0.46712">
        <ele>1541</ele>
        <time>2023-05-18T09:15:34Z</time>
      </trkpt>
      <trkpt lat="42.80439" lon="0.4683">
        <ele>1526</ele>
        <time>2023-05-18T09:15:56Z</time>
      </trkpt>
      <trkpt lat="42.80476" lon="0.46868">
        <ele>1515</ele>
        <time>2023-05-18T09:16:04Z</time>
      </trkpt>
      <trkpt lat="42.80473" lon="0.46878">
        <ele>1509</ele>
        <time>2023-05-18T09:16:06Z</time>
      </trkpt>
      <trkpt lat="42.80467" lon="0.46881">
        <ele>1507</ele>
        <time>2023-05-18T09:16:07Z</time>
      </trkpt>
      <trkpt lat="42.80463" lon="0.4688">
        <ele>1507</ele>
        <time>2023-05-18T09:16:08Z</time>
      </trkpt>
      <trkpt lat="42.80422" lon="0.46839">
        <ele>1519</ele>
        <time>2023-05-18T09:16:17Z</time>
      </trkpt>
      <trkpt lat="42.80378" lon="0.46806">
        <ele>1517</ele>
        <time>2023-05-18T09:16:26Z</time>
      </trkpt>
      <trkpt lat="42.80277" lon="0.46736">
        <ele>1507</ele>
        <time>2023-05-18T09:16:46Z</time>
      </trkpt>
      <trkpt lat="42.80249" lon="0.46719">
        <ele>1503</ele>
        <time>2023-05-18T09:16:51Z</time>
      </trkpt>
      <trkpt lat="42.80217" lon="0.46706">
        <ele>1502</ele>
        <time>2023-05-18T09:16:57Z</time>
      </trkpt>
      <trkpt lat="42.80183" lon="0.46696">
        <ele>1499</ele>
        <time>2023-05-18T09:17:03Z</time>
      </trkpt>
      <trkpt lat="42.80173" lon="0.46697">
        <ele>1497</ele>
        <time>2023-05-18T09:17:05Z</time>
      </trkpt>
      <trkpt lat="42.80166" lon="0.46702">
        <ele>1496</ele>
        <time>2023-05-18T09:17:07Z</time>
      </trkpt>
      <trkpt lat="42.80163" lon="0.46716">
        <ele>1494</ele>
        <time>2023-05-18T09:17:08Z</time>
      </trkpt>
      <trkpt lat="42.80169" lon="0.4673">
        <ele>1491</ele>
        <time>2023-05-18T09:17:11Z</time>
      </trkpt>
      <trkpt lat="42.80176" lon="0.46732">
        <ele>1491</ele>
        <time>2023-05-18T09:17:12Z</time>
      </trkpt>
      <trkpt lat="42.80199" lon="0.46731">
        <ele>1494</ele>
        <time>2023-05-18T09:17:16Z</time>
      </trkpt>
      <trkpt lat="42.80213" lon="0.46735">
        <ele>1495</ele>
        <time>2023-05-18T09:17:18Z</time>
      </trkpt>
      <trkpt lat="42.80234" lon="0.46749">
        <ele>1494</ele>
        <time>2023-05-18T09:17:23Z</time>
      </trkpt>
      <trkpt lat="42.80251" lon="0.46765">
        <ele>1490</ele>
        <time>2023-05-18T09:17:26Z</time>
      </trkpt>
      <trkpt lat="42.80325" lon="0.4686">
        <ele>1478</ele>
        <time>2023-05-18T09:17:44Z</time>
      </trkpt>
      <trkpt lat="42.80382" lon="0.46928">
        <ele>1469</ele>
        <time>2023-05-18T09:17:58Z</time>
      </trkpt>
      <trkpt lat="42.80389" lon="0.46939">
        <ele>1466</ele>
        <time>2023-05-18T09:18:00Z</time>
      </trkpt>
      <trkpt lat="42.8039" lon="0.46946">
        <ele>1464</ele>
        <time>2023-05-18T09:18:01Z</time>
      </trkpt>
      <trkpt lat="42.80385" lon="0.46954">
        <ele>1459</ele>
        <time>2023-05-18T09:18:02Z</time>
      </trkpt>
      <trkpt lat="42.80378" lon="0.46954">
        <ele>1457</ele>
        <time>2023-05-18T09:18:03Z</time>
      </trkpt>
      <trkpt lat="42.80369" lon="0.46945">
        <ele>1459</ele>
        <time>2023-05-18T09:18:05Z</time>
      </trkpt>
      <trkpt lat="42.80357" lon="0.46926">
        <ele>1464</ele>
        <time>2023-05-18T09:18:09Z</time>
      </trkpt>
      <trkpt lat="42.80344" lon="0.46913">
        <ele>1467</ele>
        <time>2023-05-18T09:18:11Z</time>
      </trkpt>
      <trkpt lat="42.80319" lon="0.469">
        <ele>1465</ele>
        <time>2023-05-18T09:18:16Z</time>
      </trkpt>
      <trkpt lat="42.80297" lon="0.46893">
        <ele>1462</ele>
        <time>2023-05-18T09:18:20Z</time>
      </trkpt>
      <trkpt lat="42.80273" lon="0.46889">
        <ele>1458</ele>
        <time>2023-05-18T09:18:25Z</time>
      </trkpt>
      <trkpt lat="42.80258" lon="0.46889">
        <ele>1454</ele>
        <time>2023-05-18T09:18:27Z</time>
      </trkpt>
      <trkpt lat="42.80235" lon="0.46893">
        <ele>1454</ele>
        <time>2023-05-18T09:18:31Z</time>
      </trkpt>
      <trkpt lat="42.80207" lon="0.46902">
        <ele>1456</ele>
        <time>2023-05-18T09:18:36Z</time>
      </trkpt>
      <trkpt lat="42.8019" lon="0.46911">
        <ele>1457</ele>
        <time>2023-05-18T09:18:40Z</time>
      </trkpt>
      <trkpt lat="42.8018" lon="0.46925">
        <ele>1455</ele>
        <time>2023-05-18T09:18:42Z</time>
      </trkpt>
      <trkpt lat="42.80173" lon="0.46951">
        <ele>1451</ele>
        <time>2023-05-18T09:18:46Z</time>
      </trkpt>
      <trkpt lat="42.80167" lon="0.47025">
        <ele>1441</ele>
        <time>2023-05-18T09:18:56Z</time>
      </trkpt>
      <trkpt lat="42.80144" lon="0.47132">
        <ele>1436</ele>
        <time>2023-05-18T09:19:10Z</time>
      </trkpt>
      <trkpt lat="42.80143" lon="0.4716">
        <ele>1432</ele>
        <time>2023-05-18T09:19:14Z</time>
      </trkpt>
      <trkpt lat="42.80151" lon="0.47208">
        <ele>1429</ele>
        <time>2023-05-18T09:19:20Z</time>
      </trkpt>
      <trkpt lat="42.80159" lon="0.47232">
        <ele>1427</ele>
        <time>2023-05-18T09:19:24Z</time>
      </trkpt>
      <trkpt lat="42.80173" lon="0.47258">
        <ele>1425</ele>
        <time>2023-05-18T09:19:28Z</time>
      </trkpt>
      <trkpt lat="42.80214" lon="0.47311">
        <ele>1413</ele>
        <time>2023-05-18T09:19:38Z</time>
      </trkpt>
      <trkpt lat="42.80227" lon="0.47345">
        <ele>1410</ele>
        <time>2023-05-18T09:19:43Z</time>
      </trkpt>
      <trkpt lat="42.80237" lon="0.4738">
        <ele>1412</ele>
        <time>2023-05-18T09:19:48Z</time>
      </trkpt>
      <trkpt lat="42.8026" lon="0.47426">
        <ele>1411</ele>
        <time>2023-05-18T09:19:55Z</time>
      </trkpt>
      <trkpt lat="42.80293" lon="0.47474">
        <ele>1406</ele>
        <time>2023-05-18T09:20:04Z</time>
      </trkpt>
      <trkpt lat="42.80346" lon="0.4753">
        <ele>1395</ele>
        <time>2023-05-18T09:20:16Z</time>
      </trkpt>
      <trkpt lat="42.80369" lon="0.47558">
        <ele>1391</ele>
        <time>2023-05-18T09:20:21Z</time>
      </trkpt>
      <trkpt lat="42.80395" lon="0.47602">
        <ele>1386</ele>
        <time>2023-05-18T09:20:28Z</time>
      </trkpt>
      <trkpt lat="42.80458" lon="0.47762">
        <ele>1377</ele>
        <time>2023-05-18T09:20:52Z</time>
      </trkpt>
      <trkpt lat="42.80485" lon="0.47889">
        <ele>1371</ele>
        <time>2023-05-18T09:21:09Z</time>
      </trkpt>
      <trkpt lat="42.80525" lon="0.48014">
        <ele>1361</ele>
        <time>2023-05-18T09:21:27Z</time>
      </trkpt>
      <trkpt lat="42.80629" lon="0.48168">
        <ele>1349</ele>
        <time>2023-05-18T09:21:55Z</time>
      </trkpt>
      <trkpt lat="42.80666" lon="0.48214">
        <ele>1345</ele>
        <time>2023-05-18T09:22:03Z</time>
      </trkpt>
      <trkpt lat="42.807" lon="0.48262">
        <ele>1342</ele>
        <time>2023-05-18T09:22:12Z</time>
      </trkpt>
      <trkpt lat="42.80727" lon="0.4831">
        <ele>1336</ele>
        <time>2023-05-18T09:22:20Z</time>
      </trkpt>
      <trkpt lat="42.80744" lon="0.4835">
        <ele>1333</ele>
        <time>2023-05-18T09:22:26Z</time>
      </trkpt>
      <trkpt lat="42.80761" lon="0.48423">
        <ele>1331</ele>
        <time>2023-05-18T09:22:36Z</time>
      </trkpt>
      <trkpt lat="42.80764" lon="0.48473">
        <ele>1329</ele>
        <time>2023-05-18T09:22:43Z</time>
      </trkpt>
      <trkpt lat="42.8076" lon="0.48633">
        <ele>1318</ele>
        <time>2023-05-18T09:23:04Z</time>
      </trkpt>
      <trkpt lat="42.80761" lon="0.48793">
        <ele>1305</ele>
        <time>2023-05-18T09:23:24Z</time>
      </trkpt>
      <trkpt lat="42.80734" lon="0.48976">
        <ele>1295</ele>
        <time>2023-05-18T09:23:49Z</time>
      </trkpt>
      <trkpt lat="42.80716" lon="0.49052">
        <ele>1293</ele>
        <time>2023-05-18T09:23:59Z</time>
      </trkpt>
      <trkpt lat="42.8067" lon="0.49354">
        <ele>1268</ele>
        <time>2023-05-18T09:24:40Z</time>
      </trkpt>
      <trkpt lat="42.80644" lon="0.49494">
        <ele>1259</ele>
        <time>2023-05-18T09:24:58Z</time>
      </trkpt>
      <trkpt lat="42.80636" lon="0.49562">
        <ele>1255</ele>
        <time>2023-05-18T09:25:07Z</time>
      </trkpt>
      <trkpt lat="42.80628" lon="0.49673">
        <ele>1250</ele>
        <time>2023-05-18T09:25:22Z</time>
      </trkpt>
      <trkpt lat="42.8063" lon="0.497">
        <ele>1248</ele>
        <time>2023-05-18T09:25:25Z</time>
      </trkpt>
      <trkpt lat="42.80634" lon="0.49714">
        <ele>1246</ele>
        <time>2023-05-18T09:25:27Z</time>
      </trkpt>
      <trkpt lat="42.80655" lon="0.49763">
        <ele>1238</ele>
        <time>2023-05-18T09:25:35Z</time>
      </trkpt>
      <trkpt lat="42.80662" lon="0.49788">
        <ele>1236</ele>
        <time>2023-05-18T09:25:38Z</time>
      </trkpt>
      <trkpt lat="42.80664" lon="0.49811">
        <ele>1236</ele>
        <time>2023-05-18T09:25:41Z</time>
      </trkpt>
      <trkpt lat="42.80661" lon="0.49901">
        <ele>1232</ele>
        <time>2023-05-18T09:25:53Z</time>
      </trkpt>
      <trkpt lat="42.80653" lon="0.49933">
        <ele>1231</ele>
        <time>2023-05-18T09:25:58Z</time>
      </trkpt>
      <trkpt lat="42.80558" lon="0.50154">
        <ele>1212</ele>
        <time>2023-05-18T09:26:31Z</time>
      </trkpt>
      <trkpt lat="42.80551" lon="0.50178">
        <ele>1211</ele>
        <time>2023-05-18T09:26:34Z</time>
      </trkpt>
      <trkpt lat="42.80548" lon="0.50209">
        <ele>1210</ele>
        <time>2023-05-18T09:26:38Z</time>
      </trkpt>
      <trkpt lat="42.80552" lon="0.50236">
        <ele>1209</ele>
        <time>2023-05-18T09:26:42Z</time>
      </trkpt>
      <trkpt lat="42.80563" lon="0.50259">
        <ele>1206</ele>
        <time>2023-05-18T09:26:46Z</time>
      </trkpt>
      <trkpt lat="42.80644" lon="0.50342">
        <ele>1192</ele>
        <time>2023-05-18T09:27:04Z</time>
      </trkpt>
      <trkpt lat="42.80663" lon="0.50374">
        <ele>1190</ele>
        <time>2023-05-18T09:27:09Z</time>
      </trkpt>
      <trkpt lat="42.8067" lon="0.50396">
        <ele>1190</ele>
        <time>2023-05-18T09:27:12Z</time>
      </trkpt>
      <trkpt lat="42.8071" lon="0.50698">
        <ele>1171</ele>
        <time>2023-05-18T09:27:52Z</time>
      </trkpt>
      <trkpt lat="42.80722" lon="0.50767">
        <ele>1167</ele>
        <time>2023-05-18T09:28:01Z</time>
      </trkpt>
      <trkpt lat="42.80798" lon="0.51056">
        <ele>1151</ele>
        <time>2023-05-18T09:28:41Z</time>
      </trkpt>
      <trkpt lat="42.80808" lon="0.51133">
        <ele>1147</ele>
        <time>2023-05-18T09:28:52Z</time>
      </trkpt>
      <trkpt lat="42.80819" lon="0.51182">
        <ele>1144</ele>
        <time>2023-05-18T09:28:58Z</time>
      </trkpt>
      <trkpt lat="42.80823" lon="0.51232">
        <ele>1140</ele>
        <time>2023-05-18T09:29:05Z</time>
      </trkpt>
      <trkpt lat="42.80807" lon="0.51374">
        <ele>1132</ele>
        <time>2023-05-18T09:29:24Z</time>
      </trkpt>
      <trkpt lat="42.80805" lon="0.51424">
        <ele>1127</ele>
        <time>2023-05-18T09:29:30Z</time>
      </trkpt>
      <trkpt lat="42.80808" lon="0.51453">
        <ele>1125</ele>
        <time>2023-05-18T09:29:34Z</time>
      </trkpt>
      <trkpt lat="42.80812" lon="0.51467">
        <ele>1124</ele>
        <time>2023-05-18T09:29:36Z</time>
      </trkpt>
      <trkpt lat="42.80823" lon="0.51486">
        <ele>1122</ele>
        <time>2023-05-18T09:29:39Z</time>
      </trkpt>
      <trkpt lat="42.80831" lon="0.51495">
        <ele>1121</ele>
        <time>2023-05-18T09:29:41Z</time>
      </trkpt>
      <trkpt lat="42.80853" lon="0.51508">
        <ele>1123</ele>
        <time>2023-05-18T09:29:45Z</time>
      </trkpt>
      <trkpt lat="42.80864" lon="0.51522">
        <ele>1125</ele>
        <time>2023-05-18T09:29:48Z</time>
      </trkpt>
      <trkpt lat="42.80878" lon="0.51656">
        <ele>1122</ele>
        <time>2023-05-18T09:30:06Z</time>
      </trkpt>
      <trkpt lat="42.80884" lon="0.5175">
        <ele>1117</ele>
        <time>2023-05-18T09:30:18Z</time>
      </trkpt>
      <trkpt lat="42.80883" lon="0.51786">
        <ele>1115</ele>
        <time>2023-05-18T09:30:23Z</time>
      </trkpt>
      <trkpt lat="42.80871" lon="0.51868">
        <ele>1110</ele>
        <time>2023-05-18T09:30:34Z</time>
      </trkpt>
      <trkpt lat="42.80861" lon="0.51895">
        <ele>1108</ele>
        <time>2023-05-18T09:30:38Z</time>
      </trkpt>
      <trkpt lat="42.80844" lon="0.51924">
        <ele>1106</ele>
        <time>2023-05-18T09:30:42Z</time>
      </trkpt>
      <trkpt lat="42.8083" lon="0.5194">
        <ele>1104</ele>
        <time>2023-05-18T09:30:46Z</time>
      </trkpt>
      <trkpt lat="42.80808" lon="0.5195">
        <ele>1103</ele>
        <time>2023-05-18T09:30:50Z</time>
      </trkpt>
      <trkpt lat="42.80797" lon="0.51952">
        <ele>1103</ele>
        <time>2023-05-18T09:30:52Z</time>
      </trkpt>
      <trkpt lat="42.80746" lon="0.51952">
        <ele>1100</ele>
        <time>2023-05-18T09:31:01Z</time>
      </trkpt>
      <trkpt lat="42.80714" lon="0.51956">
        <ele>1098</ele>
        <time>2023-05-18T09:31:07Z</time>
      </trkpt>
      <trkpt lat="42.80704" lon="0.5196">
        <ele>1097</ele>
        <time>2023-05-18T09:31:08Z</time>
      </trkpt>
      <trkpt lat="42.80675" lon="0.51984">
        <ele>1091</ele>
        <time>2023-05-18T09:31:14Z</time>
      </trkpt>
      <trkpt lat="42.80659" lon="0.52009">
        <ele>1086</ele>
        <time>2023-05-18T09:31:19Z</time>
      </trkpt>
      <trkpt lat="42.80651" lon="0.5203">
        <ele>1084</ele>
        <time>2023-05-18T09:31:22Z</time>
      </trkpt>
      <trkpt lat="42.80634" lon="0.52089">
        <ele>1077</ele>
        <time>2023-05-18T09:31:30Z</time>
      </trkpt>
      <trkpt lat="42.80602" lon="0.52172">
        <ele>1066</ele>
        <time>2023-05-18T09:31:42Z</time>
      </trkpt>
      <trkpt lat="42.80596" lon="0.5221">
        <ele>1064</ele>
        <time>2023-05-18T09:31:47Z</time>
      </trkpt>
      <trkpt lat="42.80606" lon="0.52373">
        <ele>1050</ele>
        <time>2023-05-18T09:32:09Z</time>
      </trkpt>
      <trkpt lat="42.80606" lon="0.5248">
        <ele>1040</ele>
        <time>2023-05-18T09:32:23Z</time>
      </trkpt>
      <trkpt lat="42.8061" lon="0.52519">
        <ele>1037</ele>
        <time>2023-05-18T09:32:28Z</time>
      </trkpt>
      <trkpt lat="42.80664" lon="0.5276">
        <ele>1020</ele>
        <time>2023-05-18T09:33:01Z</time>
      </trkpt>
      <trkpt lat="42.80716" lon="0.52894">
        <ele>1009</ele>
        <time>2023-05-18T09:33:21Z</time>
      </trkpt>
      <trkpt lat="42.80721" lon="0.52913">
        <ele>1007</ele>
        <time>2023-05-18T09:33:23Z</time>
      </trkpt>
      <trkpt lat="42.80729" lon="0.52951">
        <ele>1005</ele>
        <time>2023-05-18T09:33:28Z</time>
      </trkpt>
      <trkpt lat="42.80737" lon="0.53023">
        <ele>1001</ele>
        <time>2023-05-18T09:33:38Z</time>
      </trkpt>
      <trkpt lat="42.80735" lon="0.5306">
        <ele>998</ele>
        <time>2023-05-18T09:33:43Z</time>
      </trkpt>
      <trkpt lat="42.80729" lon="0.53096">
        <ele>995</ele>
        <time>2023-05-18T09:33:48Z</time>
      </trkpt>
      <trkpt lat="42.8069" lon="0.53279">
        <ele>980</ele>
        <time>2023-05-18T09:34:12Z</time>
      </trkpt>
      <trkpt lat="42.80681" lon="0.53334">
        <ele>977</ele>
        <time>2023-05-18T09:34:20Z</time>
      </trkpt>
      <trkpt lat="42.80687" lon="0.53416">
        <ele>974</ele>
        <time>2023-05-18T09:34:31Z</time>
      </trkpt>
      <trkpt lat="42.80687" lon="0.53458">
        <ele>974</ele>
        <time>2023-05-18T09:34:36Z</time>
      </trkpt>
      <trkpt lat="42.80662" lon="0.53594">
        <ele>969</ele>
        <time>2023-05-18T09:34:54Z</time>
      </trkpt>
      <trkpt lat="42.8066" lon="0.53639">
        <ele>972</ele>
        <time>2023-05-18T09:35:00Z</time>
      </trkpt>
      <trkpt lat="42.80662" lon="0.53743">
        <ele>969</ele>
        <time>2023-05-18T09:35:14Z</time>
      </trkpt>
      <trkpt lat="42.8066" lon="0.53778">
        <ele>968</ele>
        <time>2023-05-18T09:35:18Z</time>
      </trkpt>
      <trkpt lat="42.80651" lon="0.53861">
        <ele>963</ele>
        <time>2023-05-18T09:35:29Z</time>
      </trkpt>
      <trkpt lat="42.80628" lon="0.54024">
        <ele>957</ele>
        <time>2023-05-18T09:35:51Z</time>
      </trkpt>
      <trkpt lat="42.80621" lon="0.541">
        <ele>953</ele>
        <time>2023-05-18T09:36:01Z</time>
      </trkpt>
      <trkpt lat="42.80618" lon="0.54206">
        <ele>948</ele>
        <time>2023-05-18T09:36:15Z</time>
      </trkpt>
      <trkpt lat="42.8062" lon="0.54298">
        <ele>942</ele>
        <time>2023-05-18T09:36:27Z</time>
      </trkpt>
      <trkpt lat="42.80641" lon="0.54418">
        <ele>939</ele>
        <time>2023-05-18T09:36:43Z</time>
      </trkpt>
      <trkpt lat="42.80646" lon="0.54481">
        <ele>938</ele>
        <time>2023-05-18T09:36:51Z</time>
      </trkpt>
      <trkpt lat="42.80646" lon="0.54563">
        <ele>933</ele>
        <time>2023-05-18T09:37:02Z</time>
      </trkpt>
      <trkpt lat="42.80655" lon="0.54621">
        <ele>932</ele>
        <time>2023-05-18T09:37:10Z</time>
      </trkpt>
      <trkpt lat="42.80658" lon="0.54656">
        <ele>932</ele>
        <time>2023-05-18T09:37:14Z</time>
      </trkpt>
      <trkpt lat="42.80658" lon="0.54696">
        <ele>932</ele>
        <time>2023-05-18T09:37:19Z</time>
      </trkpt>
      <trkpt lat="42.8065" lon="0.54785">
        <ele>926</ele>
        <time>2023-05-18T09:37:31Z</time>
      </trkpt>
      <trkpt lat="42.80636" lon="0.54827">
        <ele>918</ele>
        <time>2023-05-18T09:37:37Z</time>
      </trkpt>
      <trkpt lat="42.80629" lon="0.54856">
        <ele>914</ele>
        <time>2023-05-18T09:37:41Z</time>
      </trkpt>
      <trkpt lat="42.80628" lon="0.54886">
        <ele>913</ele>
        <time>2023-05-18T09:37:45Z</time>
      </trkpt>
      <trkpt lat="42.80632" lon="0.54982">
        <ele>911</ele>
        <time>2023-05-18T09:37:58Z</time>
      </trkpt>
      <trkpt lat="42.80628" lon="0.55025">
        <ele>909</ele>
        <time>2023-05-18T09:38:03Z</time>
      </trkpt>
      <trkpt lat="42.80601" lon="0.55198">
        <ele>897</ele>
        <time>2023-05-18T09:38:26Z</time>
      </trkpt>
      <trkpt lat="42.80596" lon="0.55248">
        <ele>894</ele>
        <time>2023-05-18T09:38:33Z</time>
      </trkpt>
      <trkpt lat="42.80596" lon="0.55342">
        <ele>879</ele>
        <time>2023-05-18T09:38:45Z</time>
      </trkpt>
      <trkpt lat="42.80609" lon="0.55462">
        <ele>878</ele>
        <time>2023-05-18T09:39:01Z</time>
      </trkpt>
      <trkpt lat="42.80611" lon="0.55519">
        <ele>874</ele>
        <time>2023-05-18T09:39:09Z</time>
      </trkpt>
      <trkpt lat="42.80609" lon="0.55566">
        <ele>870</ele>
        <time>2023-05-18T09:39:15Z</time>
      </trkpt>
      <trkpt lat="42.806" lon="0.55616">
        <ele>865</ele>
        <time>2023-05-18T09:39:21Z</time>
      </trkpt>
      <trkpt lat="42.80593" lon="0.55674">
        <ele>864</ele>
        <time>2023-05-18T09:39:29Z</time>
      </trkpt>
      <trkpt lat="42.80551" lon="0.55828">
        <ele>842</ele>
        <time>2023-05-18T09:39:51Z</time>
      </trkpt>
      <trkpt lat="42.80547" lon="0.5585">
        <ele>839</ele>
        <time>2023-05-18T09:39:53Z</time>
      </trkpt>
      <trkpt lat="42.80548" lon="0.55869">
        <ele>838</ele>
        <time>2023-05-18T09:39:56Z</time>
      </trkpt>
      <trkpt lat="42.80554" lon="0.55889">
        <ele>839</ele>
        <time>2023-05-18T09:39:59Z</time>
      </trkpt>
      <trkpt lat="42.80569" lon="0.55908">
        <ele>842</ele>
        <time>2023-05-18T09:40:02Z</time>
      </trkpt>
      <trkpt lat="42.80585" lon="0.55921">
        <ele>844</ele>
        <time>2023-05-18T09:40:06Z</time>
      </trkpt>
      <trkpt lat="42.80605" lon="0.55933">
        <ele>846</ele>
        <time>2023-05-18T09:40:10Z</time>
      </trkpt>
      <trkpt lat="42.80651" lon="0.55948">
        <ele>853</ele>
        <time>2023-05-18T09:40:18Z</time>
      </trkpt>
      <trkpt lat="42.80659" lon="0.5596">
        <ele>851</ele>
        <time>2023-05-18T09:40:20Z</time>
      </trkpt>
      <trkpt lat="42.8066" lon="0.55969">
        <ele>848</ele>
        <time>2023-05-18T09:40:21Z</time>
      </trkpt>
      <trkpt lat="42.80659" lon="0.55975">
        <ele>846</ele>
        <time>2023-05-18T09:40:22Z</time>
      </trkpt>
      <trkpt lat="42.80654" lon="0.55982">
        <ele>843</ele>
        <time>2023-05-18T09:40:23Z</time>
      </trkpt>
      <trkpt lat="42.80644" lon="0.55985">
        <ele>840</ele>
        <time>2023-05-18T09:40:25Z</time>
      </trkpt>
      <trkpt lat="42.80613" lon="0.5597">
        <ele>838</ele>
        <time>2023-05-18T09:40:31Z</time>
      </trkpt>
      <trkpt lat="42.80591" lon="0.55964">
        <ele>835</ele>
        <time>2023-05-18T09:40:35Z</time>
      </trkpt>
      <trkpt lat="42.80546" lon="0.55964">
        <ele>826</ele>
        <time>2023-05-18T09:40:43Z</time>
      </trkpt>
      <trkpt lat="42.80525" lon="0.5597">
        <ele>821</ele>
        <time>2023-05-18T09:40:47Z</time>
      </trkpt>
      <trkpt lat="42.80496" lon="0.55988">
        <ele>813</ele>
        <time>2023-05-18T09:40:53Z</time>
      </trkpt>
      <trkpt lat="42.80475" lon="0.55991">
        <ele>807</ele>
        <time>2023-05-18T09:40:56Z</time>
      </trkpt>
      <trkpt lat="42.80469" lon="0.55994">
        <ele>805</ele>
        <time>2023-05-18T09:40:57Z</time>
      </trkpt>
      <trkpt lat="42.80463" lon="0.56002">
        <ele>803</ele>
        <time>2023-05-18T09:40:59Z</time>
      </trkpt>
      <trkpt lat="42.80462" lon="0.56014">
        <ele>801</ele>
        <time>2023-05-18T09:41:01Z</time>
      </trkpt>
      <trkpt lat="42.80467" lon="0.56024">
        <ele>801</ele>
        <time>2023-05-18T09:41:02Z</time>
      </trkpt>
      <trkpt lat="42.80475" lon="0.56028">
        <ele>803</ele>
        <time>2023-05-18T09:41:04Z</time>
      </trkpt>
      <trkpt lat="42.80481" lon="0.56028">
        <ele>804</ele>
        <time>2023-05-18T09:41:05Z</time>
      </trkpt>
      <trkpt lat="42.80512" lon="0.56006">
        <ele>814</ele>
        <time>2023-05-18T09:41:11Z</time>
      </trkpt>
      <trkpt lat="42.80519" lon="0.56005">
        <ele>815</ele>
        <time>2023-05-18T09:41:12Z</time>
      </trkpt>
      <trkpt lat="42.80541" lon="0.56005">
        <ele>817</ele>
        <time>2023-05-18T09:41:16Z</time>
      </trkpt>
      <trkpt lat="42.80559" lon="0.56008">
        <ele>819</ele>
        <time>2023-05-18T09:41:19Z</time>
      </trkpt>
      <trkpt lat="42.80599" lon="0.56021">
        <ele>822</ele>
        <time>2023-05-18T09:41:27Z</time>
      </trkpt>
      <trkpt lat="42.80622" lon="0.56038">
        <ele>822</ele>
        <time>2023-05-18T09:41:31Z</time>
      </trkpt>
      <trkpt lat="42.80631" lon="0.56053">
        <ele>820</ele>
        <time>2023-05-18T09:41:34Z</time>
      </trkpt>
      <trkpt lat="42.80634" lon="0.5607">
        <ele>817</ele>
        <time>2023-05-18T09:41:36Z</time>
      </trkpt>
      <trkpt lat="42.80628" lon="0.5609">
        <ele>815</ele>
        <time>2023-05-18T09:41:39Z</time>
      </trkpt>
      <trkpt lat="42.80621" lon="0.56098">
        <ele>816</ele>
        <time>2023-05-18T09:41:41Z</time>
      </trkpt>
      <trkpt lat="42.80611" lon="0.56103">
        <ele>816</ele>
        <time>2023-05-18T09:41:42Z</time>
      </trkpt>
      <trkpt lat="42.80562" lon="0.56108">
        <ele>809</ele>
        <time>2023-05-18T09:41:51Z</time>
      </trkpt>
      <trkpt lat="42.80543" lon="0.56115">
        <ele>808</ele>
        <time>2023-05-18T09:41:55Z</time>
      </trkpt>
      <trkpt lat="42.8052" lon="0.56128">
        <ele>806</ele>
        <time>2023-05-18T09:41:59Z</time>
      </trkpt>
      <trkpt lat="42.80488" lon="0.56152">
        <ele>801</ele>
        <time>2023-05-18T09:42:06Z</time>
      </trkpt>
      <trkpt lat="42.80455" lon="0.56172">
        <ele>795</ele>
        <time>2023-05-18T09:42:12Z</time>
      </trkpt>
      <trkpt lat="42.80418" lon="0.5619">
        <ele>791</ele>
        <time>2023-05-18T09:42:19Z</time>
      </trkpt>
      <trkpt lat="42.80407" lon="0.56194">
        <ele>790</ele>
        <time>2023-05-18T09:42:21Z</time>
      </trkpt>
      <trkpt lat="42.8038" lon="0.56198">
        <ele>786</ele>
        <time>2023-05-18T09:42:26Z</time>
      </trkpt>
      <trkpt lat="42.80345" lon="0.56194">
        <ele>779</ele>
        <time>2023-05-18T09:42:32Z</time>
      </trkpt>
      <trkpt lat="42.80327" lon="0.56203">
        <ele>779</ele>
        <time>2023-05-18T09:42:36Z</time>
      </trkpt>
      <trkpt lat="42.80311" lon="0.56225">
        <ele>784</ele>
        <time>2023-05-18T09:42:40Z</time>
      </trkpt>
      <trkpt lat="42.80287" lon="0.56277">
        <ele>783</ele>
        <time>2023-05-18T09:42:48Z</time>
      </trkpt>
      <trkpt lat="42.80273" lon="0.563">
        <ele>780</ele>
        <time>2023-05-18T09:42:52Z</time>
      </trkpt>
      <trkpt lat="42.8016" lon="0.56448">
        <ele>772</ele>
        <time>2023-05-18T09:43:19Z</time>
      </trkpt>
      <trkpt lat="42.80136" lon="0.56476">
        <ele>772</ele>
        <time>2023-05-18T09:43:25Z</time>
      </trkpt>
      <trkpt lat="42.80104" lon="0.56506">
        <ele>771</ele>
        <time>2023-05-18T09:43:32Z</time>
      </trkpt>
      <trkpt lat="42.80071" lon="0.56526">
        <ele>779</ele>
        <time>2023-05-18T09:43:38Z</time>
      </trkpt>
      <trkpt lat="42.80025" lon="0.56549">
        <ele>777</ele>
        <time>2023-05-18T09:43:47Z</time>
      </trkpt>
      <trkpt lat="42.79997" lon="0.56571">
        <ele>768</ele>
        <time>2023-05-18T09:43:53Z</time>
      </trkpt>
      <trkpt lat="42.79922" lon="0.56638">
        <ele>777</ele>
        <time>2023-05-18T09:44:09Z</time>
      </trkpt>
      <trkpt lat="42.79908" lon="0.56646">
        <ele>776</ele>
        <time>2023-05-18T09:44:12Z</time>
      </trkpt>
      <trkpt lat="42.79879" lon="0.56656">
        <ele>774</ele>
        <time>2023-05-18T09:44:17Z</time>
      </trkpt>
      <trkpt lat="42.79848" lon="0.56661">
        <ele>770</ele>
        <time>2023-05-18T09:44:22Z</time>
      </trkpt>
      <trkpt lat="42.7979" lon="0.5666">
        <ele>762</ele>
        <time>2023-05-18T09:44:33Z</time>
      </trkpt>
      <trkpt lat="42.79768" lon="0.56671">
        <ele>759</ele>
        <time>2023-05-18T09:44:37Z</time>
      </trkpt>
      <trkpt lat="42.7975" lon="0.56696">
        <ele>759</ele>
        <time>2023-05-18T09:44:41Z</time>
      </trkpt>
      <trkpt lat="42.79727" lon="0.56763">
        <ele>761</ele>
        <time>2023-05-18T09:44:51Z</time>
      </trkpt>
      <trkpt lat="42.79687" lon="0.56833">
        <ele>755</ele>
        <time>2023-05-18T09:45:03Z</time>
      </trkpt>
      <trkpt lat="42.79657" lon="0.56912">
        <ele>754</ele>
        <time>2023-05-18T09:45:14Z</time>
      </trkpt>
      <trkpt lat="42.79631" lon="0.56996">
        <ele>758</ele>
        <time>2023-05-18T09:45:26Z</time>
      </trkpt>
      <trkpt lat="42.79621" lon="0.57045">
        <ele>752</ele>
        <time>2023-05-18T09:45:33Z</time>
      </trkpt>
      <trkpt lat="42.79653" lon="0.57171">
        <ele>755</ele>
        <time>2023-05-18T09:45:50Z</time>
      </trkpt>
      <trkpt lat="42.79656" lon="0.57192">
        <ele>756</ele>
        <time>2023-05-18T09:45:53Z</time>
      </trkpt>
      <trkpt lat="42.79654" lon="0.57238">
        <ele>754</ele>
        <time>2023-05-18T09:45:59Z</time>
      </trkpt>
      <trkpt lat="42.79636" lon="0.57357">
        <ele>743</ele>
        <time>2023-05-18T09:46:15Z</time>
      </trkpt>
      <trkpt lat="42.79585" lon="0.57561">
        <ele>717</ele>
        <time>2023-05-18T09:46:43Z</time>
      </trkpt>
      <trkpt lat="42.79586" lon="0.57625">
        <ele>715</ele>
        <time>2023-05-18T09:46:51Z</time>
      </trkpt>
      <trkpt lat="42.7958" lon="0.57702">
        <ele>714</ele>
        <time>2023-05-18T09:47:02Z</time>
      </trkpt>
      <trkpt lat="42.79575" lon="0.57725">
        <ele>715</ele>
        <time>2023-05-18T09:47:05Z</time>
      </trkpt>
      <trkpt lat="42.79562" lon="0.57757">
        <ele>712</ele>
        <time>2023-05-18T09:47:09Z</time>
      </trkpt>
      <trkpt lat="42.79495" lon="0.57878">
        <ele>693</ele>
        <time>2023-05-18T09:47:29Z</time>
      </trkpt>
      <trkpt lat="42.79465" lon="0.57919">
        <ele>688</ele>
        <time>2023-05-18T09:47:37Z</time>
      </trkpt>
      <trkpt lat="42.79452" lon="0.57945">
        <ele>686</ele>
        <time>2023-05-18T09:47:41Z</time>
      </trkpt>
      <trkpt lat="42.79428" lon="0.58055">
        <ele>684</ele>
        <time>2023-05-18T09:47:56Z</time>
      </trkpt>
      <trkpt lat="42.79424" lon="0.58095">
        <ele>684</ele>
        <time>2023-05-18T09:48:01Z</time>
      </trkpt>
      <trkpt lat="42.79424" lon="0.5827">
        <ele>690</ele>
        <time>2023-05-18T09:48:24Z</time>
      </trkpt>
      <trkpt lat="42.79406" lon="0.58351">
        <ele>681</ele>
        <time>2023-05-18T09:48:35Z</time>
      </trkpt>
      <trkpt lat="42.7939" lon="0.58469">
        <ele>673</ele>
        <time>2023-05-18T09:48:51Z</time>
      </trkpt>
      <trkpt lat="42.79371" lon="0.58538">
        <ele>664</ele>
        <time>2023-05-18T09:49:00Z</time>
      </trkpt>
      <trkpt lat="42.79347" lon="0.58604">
        <ele>652</ele>
        <time>2023-05-18T09:49:10Z</time>
      </trkpt>
      <trkpt lat="42.79337" lon="0.58652">
        <ele>647</ele>
        <time>2023-05-18T09:49:16Z</time>
      </trkpt>
      <trkpt lat="42.79357" lon="0.58876">
        <ele>644</ele>
        <time>2023-05-18T09:49:46Z</time>
      </trkpt>
      <trkpt lat="42.79377" lon="0.58996">
        <ele>643</ele>
        <time>2023-05-18T09:50:02Z</time>
      </trkpt>
      <trkpt lat="42.7938" lon="0.5904">
        <ele>641</ele>
        <time>2023-05-18T09:50:08Z</time>
      </trkpt>
      <trkpt lat="42.79375" lon="0.59116">
        <ele>637</ele>
        <time>2023-05-18T09:50:18Z</time>
      </trkpt>
      <trkpt lat="42.79378" lon="0.59153">
        <ele>636</ele>
        <time>2023-05-18T09:50:23Z</time>
      </trkpt>
      <trkpt lat="42.79385" lon="0.59174">
        <ele>635</ele>
        <time>2023-05-18T09:50:26Z</time>
      </trkpt>
      <trkpt lat="42.7941" lon="0.59224">
        <ele>635</ele>
        <time>2023-05-18T09:50:34Z</time>
      </trkpt>
      <trkpt lat="42.79433" lon="0.59267">
        <ele>639</ele>
        <time>2023-05-18T09:50:40Z</time>
      </trkpt>
      <trkpt lat="42.79465" lon="0.59317">
        <ele>639</ele>
        <time>2023-05-18T09:50:49Z</time>
      </trkpt>
      <trkpt lat="42.7948" lon="0.59348">
        <ele>635</ele>
        <time>2023-05-18T09:50:54Z</time>
      </trkpt>
      <trkpt lat="42.7949" lon="0.59378">
        <ele>633</ele>
        <time>2023-05-18T09:50:58Z</time>
      </trkpt>
      <trkpt lat="42.79491" lon="0.5939">
        <ele>632</ele>
        <time>2023-05-18T09:51:00Z</time>
      </trkpt>
      <trkpt lat="42.79498" lon="0.5939">
        <ele>632</ele>
        <time>2023-05-18T09:51:01Z</time>
      </trkpt>
      <trkpt lat="42.79503" lon="0.59397">
        <ele>631</ele>
        <time>2023-05-18T09:51:02Z</time>
      </trkpt>
      <trkpt lat="42.79517" lon="0.59442">
        <ele>629</ele>
        <time>2023-05-18T09:51:09Z</time>
      </trkpt>
      <trkpt lat="42.79513" lon="0.59456">
        <ele>628</ele>
        <time>2023-05-18T09:51:11Z</time>
      </trkpt>
      <trkpt lat="42.79513" lon="0.59468">
        <ele>628</ele>
        <time>2023-05-18T09:51:12Z</time>
      </trkpt>
      <trkpt lat="42.79522" lon="0.59612">
        <ele>626</ele>
        <time>2023-05-18T09:51:31Z</time>
      </trkpt>
      <trkpt lat="42.79492" lon="0.59632">
        <ele>626</ele>
        <time>2023-05-18T09:51:37Z</time>
      </trkpt>
      <trkpt lat="42.79403" lon="0.59674">
        <ele>628</ele>
        <time>2023-05-18T09:51:54Z</time>
      </trkpt>
      <trkpt lat="42.79297" lon="0.59751">
        <ele>626</ele>
        <time>2023-05-18T09:52:15Z</time>
      </trkpt>
      <trkpt lat="42.79269" lon="0.59768">
        <ele>627</ele>
        <time>2023-05-18T09:52:21Z</time>
      </trkpt>
      <trkpt lat="42.79237" lon="0.59779">
        <ele>627</ele>
        <time>2023-05-18T09:52:27Z</time>
      </trkpt>
      <trkpt lat="42.79211" lon="0.5978">
        <ele>628</ele>
        <time>2023-05-18T09:52:31Z</time>
      </trkpt>
      <trkpt lat="42.79126" lon="0.59775">
        <ele>629</ele>
        <time>2023-05-18T09:52:46Z</time>
      </trkpt>
      <trkpt lat="42.79122" lon="0.59783">
        <ele>630</ele>
        <time>2023-05-18T09:52:48Z</time>
      </trkpt>
      <trkpt lat="42.79115" lon="0.59788">
        <ele>630</ele>
        <time>2023-05-18T09:52:49Z</time>
      </trkpt>
      <trkpt lat="42.79107" lon="0.59782">
        <ele>630</ele>
        <time>2023-05-18T09:52:51Z</time>
      </trkpt>
      <trkpt lat="42.79104" lon="0.59773">
        <ele>630</ele>
        <time>2023-05-18T09:52:52Z</time>
      </trkpt>
    </trkseg>
  </trk>
</gpx>